<?xml version="1.0" encoding="UTF-8" standalone="no" ?>
<gpx xmlns="http://www.topografix.com/GPX/1/1" xmlns:xsi="http://www.w3.org/2001/XMLSchema-instance" xsi:schemaLocation="http://www.topografix.com/GPX/1/1 http://www.topografix.com/GPX/1/1/gpx.xsd" version="1.1" creator="VisuGPX - https://www.visugpx.com">
  <metadata>
    <name>Traces 2022</name>
    <desc><![CDATA[8 traces potentielles pour la sortie 2022 !]]></desc>
  </metadata>
  <trk>
    <name><![CDATA[Trace 3]]></name>
    <desc><![CDATA[Arcs ST Pierre, Gorges du Tarn, hameaux troglodytes.]]></desc>
    <extensions>
      <line xmlns="http://www.topografix.com/GPX/gpx_style/0/2">
        <color>0000ff</color>
        <width>4</width>
          <extensions>
            <sens>1</sens>
          </extensions>
      </line>
    </extensions>
    <trkseg>
      <trkpt lat="44.21791" lon="3.27283">
        <ele>904.5</ele>
        <time>2020-07-19T13:26:43Z</time>
      </trkpt>
      <trkpt lat="44.21793" lon="3.27281">
        <ele>904.5</ele>
        <time>2020-07-19T13:26:44Z</time>
      </trkpt>
      <trkpt lat="44.21794" lon="3.27276">
        <ele>904.5</ele>
        <time>2020-07-19T13:26:46Z</time>
      </trkpt>
      <trkpt lat="44.21796" lon="3.27269">
        <ele>904.5</ele>
        <time>2020-07-19T13:26:47Z</time>
      </trkpt>
      <trkpt lat="44.21797" lon="3.27265">
        <ele>904.4</ele>
        <time>2020-07-19T13:26:48Z</time>
      </trkpt>
      <trkpt lat="44.21798" lon="3.27255">
        <ele>904.2</ele>
        <time>2020-07-19T13:26:50Z</time>
      </trkpt>
      <trkpt lat="44.21799" lon="3.27248">
        <ele>904.1</ele>
        <time>2020-07-19T13:26:51Z</time>
      </trkpt>
      <trkpt lat="44.218" lon="3.27242">
        <ele>904</ele>
        <time>2020-07-19T13:26:52Z</time>
      </trkpt>
      <trkpt lat="44.21803" lon="3.27225">
        <ele>903.9</ele>
        <time>2020-07-19T13:26:54Z</time>
      </trkpt>
      <trkpt lat="44.21804" lon="3.27217">
        <ele>903.8</ele>
        <time>2020-07-19T13:26:56Z</time>
      </trkpt>
      <trkpt lat="44.21809" lon="3.27207">
        <ele>903.7</ele>
        <time>2020-07-19T13:26:57Z</time>
      </trkpt>
      <trkpt lat="44.21812" lon="3.27201">
        <ele>903.6</ele>
        <time>2020-07-19T13:26:58Z</time>
      </trkpt>
      <trkpt lat="44.21816" lon="3.27186">
        <ele>903.7</ele>
        <time>2020-07-19T13:27:00Z</time>
      </trkpt>
      <trkpt lat="44.21816" lon="3.27172">
        <ele>903.9</ele>
        <time>2020-07-19T13:27:02Z</time>
      </trkpt>
      <trkpt lat="44.21816" lon="3.27162">
        <ele>904.1</ele>
        <time>2020-07-19T13:27:04Z</time>
      </trkpt>
      <trkpt lat="44.21817" lon="3.2716">
        <ele>904.2</ele>
        <time>2020-07-19T13:27:05Z</time>
      </trkpt>
      <trkpt lat="44.21818" lon="3.27156">
        <ele>904.3</ele>
        <time>2020-07-19T13:27:06Z</time>
      </trkpt>
      <trkpt lat="44.21818" lon="3.27155">
        <ele>904.4</ele>
        <time>2020-07-19T13:27:08Z</time>
      </trkpt>
      <trkpt lat="44.21818" lon="3.27154">
        <ele>904.4</ele>
        <time>2020-07-19T13:27:10Z</time>
      </trkpt>
      <trkpt lat="44.21818" lon="3.27153">
        <ele>904.4</ele>
        <time>2020-07-19T13:27:12Z</time>
      </trkpt>
      <trkpt lat="44.21818" lon="3.27152">
        <ele>904.5</ele>
        <time>2020-07-19T13:27:13Z</time>
      </trkpt>
      <trkpt lat="44.21818" lon="3.27151">
        <ele>904.5</ele>
        <time>2020-07-19T13:27:14Z</time>
      </trkpt>
      <trkpt lat="44.21818" lon="3.2715">
        <ele>904.5</ele>
        <time>2020-07-19T13:27:16Z</time>
      </trkpt>
      <trkpt lat="44.21818" lon="3.27149">
        <ele>904.5</ele>
        <time>2020-07-19T13:27:17Z</time>
      </trkpt>
      <trkpt lat="44.21818" lon="3.27148">
        <ele>904.6</ele>
        <time>2020-07-19T13:27:18Z</time>
      </trkpt>
      <trkpt lat="44.21818" lon="3.27147">
        <ele>904.6</ele>
        <time>2020-07-19T13:27:20Z</time>
      </trkpt>
      <trkpt lat="44.21818" lon="3.27146">
        <ele>904.6</ele>
        <time>2020-07-19T13:27:21Z</time>
      </trkpt>
      <trkpt lat="44.21819" lon="3.27145">
        <ele>904.6</ele>
        <time>2020-07-19T13:27:22Z</time>
      </trkpt>
      <trkpt lat="44.21819" lon="3.27146">
        <ele>904.7</ele>
        <time>2020-07-19T13:27:24Z</time>
      </trkpt>
      <trkpt lat="44.21818" lon="3.27147">
        <ele>904.7</ele>
        <time>2020-07-19T13:27:25Z</time>
      </trkpt>
      <trkpt lat="44.21818" lon="3.27147">
        <ele>904.7</ele>
        <time>2020-07-19T13:27:27Z</time>
      </trkpt>
      <trkpt lat="44.21818" lon="3.27148">
        <ele>904.7</ele>
        <time>2020-07-19T13:27:28Z</time>
      </trkpt>
      <trkpt lat="44.21818" lon="3.27147">
        <ele>904.7</ele>
        <time>2020-07-19T13:27:30Z</time>
      </trkpt>
      <trkpt lat="44.21818" lon="3.27146">
        <ele>904.8</ele>
        <time>2020-07-19T13:27:31Z</time>
      </trkpt>
      <trkpt lat="44.21817" lon="3.27143">
        <ele>904.9</ele>
        <time>2020-07-19T13:27:33Z</time>
      </trkpt>
      <trkpt lat="44.21817" lon="3.27142">
        <ele>904.9</ele>
        <time>2020-07-19T13:27:34Z</time>
      </trkpt>
      <trkpt lat="44.21817" lon="3.27139">
        <ele>905.1</ele>
        <time>2020-07-19T13:27:35Z</time>
      </trkpt>
      <trkpt lat="44.21817" lon="3.27135">
        <ele>905.2</ele>
        <time>2020-07-19T13:27:37Z</time>
      </trkpt>
      <trkpt lat="44.21816" lon="3.27133">
        <ele>905.3</ele>
        <time>2020-07-19T13:27:38Z</time>
      </trkpt>
      <trkpt lat="44.21817" lon="3.27126">
        <ele>905.6</ele>
        <time>2020-07-19T13:27:40Z</time>
      </trkpt>
      <trkpt lat="44.21816" lon="3.27119">
        <ele>905.9</ele>
        <time>2020-07-19T13:27:41Z</time>
      </trkpt>
      <trkpt lat="44.21816" lon="3.27112">
        <ele>906.1</ele>
        <time>2020-07-19T13:27:42Z</time>
      </trkpt>
      <trkpt lat="44.21817" lon="3.27104">
        <ele>906.4</ele>
        <time>2020-07-19T13:27:44Z</time>
      </trkpt>
      <trkpt lat="44.21817" lon="3.27099">
        <ele>906.5</ele>
        <time>2020-07-19T13:27:45Z</time>
      </trkpt>
      <trkpt lat="44.21818" lon="3.27094">
        <ele>906.6</ele>
        <time>2020-07-19T13:27:46Z</time>
      </trkpt>
      <trkpt lat="44.21818" lon="3.27089">
        <ele>906.8</ele>
        <time>2020-07-19T13:27:47Z</time>
      </trkpt>
      <trkpt lat="44.21818" lon="3.27083">
        <ele>907</ele>
        <time>2020-07-19T13:27:49Z</time>
      </trkpt>
      <trkpt lat="44.21819" lon="3.27076">
        <ele>907.3</ele>
        <time>2020-07-19T13:27:50Z</time>
      </trkpt>
      <trkpt lat="44.2182" lon="3.27071">
        <ele>907.5</ele>
        <time>2020-07-19T13:27:51Z</time>
      </trkpt>
      <trkpt lat="44.2182" lon="3.27066">
        <ele>907.7</ele>
        <time>2020-07-19T13:27:52Z</time>
      </trkpt>
      <trkpt lat="44.21821" lon="3.27061">
        <ele>907.9</ele>
        <time>2020-07-19T13:27:54Z</time>
      </trkpt>
      <trkpt lat="44.21822" lon="3.27055">
        <ele>908.1</ele>
        <time>2020-07-19T13:27:55Z</time>
      </trkpt>
      <trkpt lat="44.21823" lon="3.2705">
        <ele>908.3</ele>
        <time>2020-07-19T13:27:56Z</time>
      </trkpt>
      <trkpt lat="44.21824" lon="3.27045">
        <ele>908.6</ele>
        <time>2020-07-19T13:27:58Z</time>
      </trkpt>
      <trkpt lat="44.21826" lon="3.27041">
        <ele>908.7</ele>
        <time>2020-07-19T13:27:59Z</time>
      </trkpt>
      <trkpt lat="44.21827" lon="3.27038">
        <ele>908.9</ele>
        <time>2020-07-19T13:28:00Z</time>
      </trkpt>
      <trkpt lat="44.21829" lon="3.27034">
        <ele>909.1</ele>
        <time>2020-07-19T13:28:02Z</time>
      </trkpt>
      <trkpt lat="44.2183" lon="3.27029">
        <ele>909.3</ele>
        <time>2020-07-19T13:28:03Z</time>
      </trkpt>
      <trkpt lat="44.21832" lon="3.27024">
        <ele>909.6</ele>
        <time>2020-07-19T13:28:05Z</time>
      </trkpt>
      <trkpt lat="44.21834" lon="3.27019">
        <ele>909.9</ele>
        <time>2020-07-19T13:28:06Z</time>
      </trkpt>
      <trkpt lat="44.21836" lon="3.27013">
        <ele>910.2</ele>
        <time>2020-07-19T13:28:07Z</time>
      </trkpt>
      <trkpt lat="44.21839" lon="3.27008">
        <ele>910.6</ele>
        <time>2020-07-19T13:28:09Z</time>
      </trkpt>
      <trkpt lat="44.2184" lon="3.27006">
        <ele>910.7</ele>
        <time>2020-07-19T13:28:10Z</time>
      </trkpt>
      <trkpt lat="44.21841" lon="3.27004">
        <ele>910.8</ele>
        <time>2020-07-19T13:28:11Z</time>
      </trkpt>
      <trkpt lat="44.21844" lon="3.26998">
        <ele>911.1</ele>
        <time>2020-07-19T13:28:13Z</time>
      </trkpt>
      <trkpt lat="44.21845" lon="3.26993">
        <ele>911.3</ele>
        <time>2020-07-19T13:28:14Z</time>
      </trkpt>
      <trkpt lat="44.21847" lon="3.26989">
        <ele>911.5</ele>
        <time>2020-07-19T13:28:15Z</time>
      </trkpt>
      <trkpt lat="44.21848" lon="3.26986">
        <ele>911.7</ele>
        <time>2020-07-19T13:28:16Z</time>
      </trkpt>
      <trkpt lat="44.21849" lon="3.26979">
        <ele>912</ele>
        <time>2020-07-19T13:28:18Z</time>
      </trkpt>
      <trkpt lat="44.2185" lon="3.26976">
        <ele>912.2</ele>
        <time>2020-07-19T13:28:19Z</time>
      </trkpt>
      <trkpt lat="44.21851" lon="3.26969">
        <ele>912.5</ele>
        <time>2020-07-19T13:28:21Z</time>
      </trkpt>
      <trkpt lat="44.21852" lon="3.26963">
        <ele>912.8</ele>
        <time>2020-07-19T13:28:23Z</time>
      </trkpt>
      <trkpt lat="44.21853" lon="3.26958">
        <ele>913</ele>
        <time>2020-07-19T13:28:24Z</time>
      </trkpt>
      <trkpt lat="44.21854" lon="3.26951">
        <ele>913.4</ele>
        <time>2020-07-19T13:28:26Z</time>
      </trkpt>
      <trkpt lat="44.21854" lon="3.26946">
        <ele>913.7</ele>
        <time>2020-07-19T13:28:28Z</time>
      </trkpt>
      <trkpt lat="44.21854" lon="3.26941">
        <ele>913.9</ele>
        <time>2020-07-19T13:28:29Z</time>
      </trkpt>
      <trkpt lat="44.21854" lon="3.26933">
        <ele>914.3</ele>
        <time>2020-07-19T13:28:31Z</time>
      </trkpt>
      <trkpt lat="44.21854" lon="3.26925">
        <ele>914.5</ele>
        <time>2020-07-19T13:28:33Z</time>
      </trkpt>
      <trkpt lat="44.21854" lon="3.26919">
        <ele>914.7</ele>
        <time>2020-07-19T13:28:35Z</time>
      </trkpt>
      <trkpt lat="44.21854" lon="3.26914">
        <ele>914.9</ele>
        <time>2020-07-19T13:28:36Z</time>
      </trkpt>
      <trkpt lat="44.21853" lon="3.2691">
        <ele>914.9</ele>
        <time>2020-07-19T13:28:37Z</time>
      </trkpt>
      <trkpt lat="44.21852" lon="3.26904">
        <ele>915</ele>
        <time>2020-07-19T13:28:39Z</time>
      </trkpt>
      <trkpt lat="44.21851" lon="3.26897">
        <ele>915.1</ele>
        <time>2020-07-19T13:28:40Z</time>
      </trkpt>
      <trkpt lat="44.21851" lon="3.26889">
        <ele>915.2</ele>
        <time>2020-07-19T13:28:42Z</time>
      </trkpt>
      <trkpt lat="44.21851" lon="3.26883">
        <ele>915.3</ele>
        <time>2020-07-19T13:28:43Z</time>
      </trkpt>
      <trkpt lat="44.21851" lon="3.26873">
        <ele>915.5</ele>
        <time>2020-07-19T13:28:45Z</time>
      </trkpt>
      <trkpt lat="44.21852" lon="3.26866">
        <ele>915.6</ele>
        <time>2020-07-19T13:28:46Z</time>
      </trkpt>
      <trkpt lat="44.21853" lon="3.26856">
        <ele>915.9</ele>
        <time>2020-07-19T13:28:48Z</time>
      </trkpt>
      <trkpt lat="44.21854" lon="3.2685">
        <ele>916</ele>
        <time>2020-07-19T13:28:49Z</time>
      </trkpt>
      <trkpt lat="44.21855" lon="3.26842">
        <ele>916</ele>
        <time>2020-07-19T13:28:51Z</time>
      </trkpt>
      <trkpt lat="44.21857" lon="3.26835">
        <ele>916</ele>
        <time>2020-07-19T13:28:52Z</time>
      </trkpt>
      <trkpt lat="44.2186" lon="3.26824">
        <ele>915.8</ele>
        <time>2020-07-19T13:28:54Z</time>
      </trkpt>
      <trkpt lat="44.21863" lon="3.26816">
        <ele>915.5</ele>
        <time>2020-07-19T13:28:55Z</time>
      </trkpt>
      <trkpt lat="44.21866" lon="3.26807">
        <ele>915.2</ele>
        <time>2020-07-19T13:28:56Z</time>
      </trkpt>
      <trkpt lat="44.21867" lon="3.26799">
        <ele>914.9</ele>
        <time>2020-07-19T13:28:57Z</time>
      </trkpt>
      <trkpt lat="44.21872" lon="3.26782">
        <ele>914</ele>
        <time>2020-07-19T13:28:59Z</time>
      </trkpt>
      <trkpt lat="44.21875" lon="3.26767">
        <ele>913.1</ele>
        <time>2020-07-19T13:29:01Z</time>
      </trkpt>
      <trkpt lat="44.21876" lon="3.26763">
        <ele>913.3</ele>
        <time>2020-07-19T13:29:02Z</time>
      </trkpt>
      <trkpt lat="44.21876" lon="3.26756">
        <ele>913.5</ele>
        <time>2020-07-19T13:29:04Z</time>
      </trkpt>
      <trkpt lat="44.21877" lon="3.26753">
        <ele>913.6</ele>
        <time>2020-07-19T13:29:05Z</time>
      </trkpt>
      <trkpt lat="44.21878" lon="3.26745">
        <ele>913.8</ele>
        <time>2020-07-19T13:29:07Z</time>
      </trkpt>
      <trkpt lat="44.2188" lon="3.26741">
        <ele>914</ele>
        <time>2020-07-19T13:29:08Z</time>
      </trkpt>
      <trkpt lat="44.21882" lon="3.26736">
        <ele>914.1</ele>
        <time>2020-07-19T13:29:09Z</time>
      </trkpt>
      <trkpt lat="44.21885" lon="3.26732">
        <ele>914.3</ele>
        <time>2020-07-19T13:29:11Z</time>
      </trkpt>
      <trkpt lat="44.21886" lon="3.26727">
        <ele>914.5</ele>
        <time>2020-07-19T13:29:12Z</time>
      </trkpt>
      <trkpt lat="44.21887" lon="3.26723">
        <ele>914.8</ele>
        <time>2020-07-19T13:29:13Z</time>
      </trkpt>
      <trkpt lat="44.21888" lon="3.26719">
        <ele>914.9</ele>
        <time>2020-07-19T13:29:14Z</time>
      </trkpt>
      <trkpt lat="44.2189" lon="3.26714">
        <ele>915.3</ele>
        <time>2020-07-19T13:29:16Z</time>
      </trkpt>
      <trkpt lat="44.21892" lon="3.2671">
        <ele>915.6</ele>
        <time>2020-07-19T13:29:17Z</time>
      </trkpt>
      <trkpt lat="44.21894" lon="3.26705">
        <ele>915.9</ele>
        <time>2020-07-19T13:29:18Z</time>
      </trkpt>
      <trkpt lat="44.21895" lon="3.26702">
        <ele>916.2</ele>
        <time>2020-07-19T13:29:19Z</time>
      </trkpt>
      <trkpt lat="44.21895" lon="3.26697">
        <ele>916.5</ele>
        <time>2020-07-19T13:29:20Z</time>
      </trkpt>
      <trkpt lat="44.21896" lon="3.26695">
        <ele>916.7</ele>
        <time>2020-07-19T13:29:21Z</time>
      </trkpt>
      <trkpt lat="44.21897" lon="3.2669">
        <ele>917</ele>
        <time>2020-07-19T13:29:23Z</time>
      </trkpt>
      <trkpt lat="44.21897" lon="3.26688">
        <ele>917.1</ele>
        <time>2020-07-19T13:29:24Z</time>
      </trkpt>
      <trkpt lat="44.21899" lon="3.26684">
        <ele>917.4</ele>
        <time>2020-07-19T13:29:25Z</time>
      </trkpt>
      <trkpt lat="44.21902" lon="3.26681">
        <ele>917.5</ele>
        <time>2020-07-19T13:29:26Z</time>
      </trkpt>
      <trkpt lat="44.21904" lon="3.26677">
        <ele>917.5</ele>
        <time>2020-07-19T13:29:27Z</time>
      </trkpt>
      <trkpt lat="44.21906" lon="3.26674">
        <ele>917.5</ele>
        <time>2020-07-19T13:29:29Z</time>
      </trkpt>
      <trkpt lat="44.21909" lon="3.26668">
        <ele>917.5</ele>
        <time>2020-07-19T13:29:30Z</time>
      </trkpt>
      <trkpt lat="44.21911" lon="3.26664">
        <ele>917.4</ele>
        <time>2020-07-19T13:29:31Z</time>
      </trkpt>
      <trkpt lat="44.21912" lon="3.26657">
        <ele>917.3</ele>
        <time>2020-07-19T13:29:33Z</time>
      </trkpt>
      <trkpt lat="44.21913" lon="3.26649">
        <ele>917.1</ele>
        <time>2020-07-19T13:29:34Z</time>
      </trkpt>
      <trkpt lat="44.21915" lon="3.2664">
        <ele>916.8</ele>
        <time>2020-07-19T13:29:36Z</time>
      </trkpt>
      <trkpt lat="44.21919" lon="3.26631">
        <ele>916.6</ele>
        <time>2020-07-19T13:29:37Z</time>
      </trkpt>
      <trkpt lat="44.21921" lon="3.26625">
        <ele>916.4</ele>
        <time>2020-07-19T13:29:38Z</time>
      </trkpt>
      <trkpt lat="44.21926" lon="3.26611">
        <ele>916</ele>
        <time>2020-07-19T13:29:40Z</time>
      </trkpt>
      <trkpt lat="44.21929" lon="3.26604">
        <ele>915.8</ele>
        <time>2020-07-19T13:29:41Z</time>
      </trkpt>
      <trkpt lat="44.21931" lon="3.26597">
        <ele>915.5</ele>
        <time>2020-07-19T13:29:42Z</time>
      </trkpt>
      <trkpt lat="44.21935" lon="3.26582">
        <ele>914.7</ele>
        <time>2020-07-19T13:29:44Z</time>
      </trkpt>
      <trkpt lat="44.2194" lon="3.26567">
        <ele>914.2</ele>
        <time>2020-07-19T13:29:46Z</time>
      </trkpt>
      <trkpt lat="44.21942" lon="3.2656">
        <ele>914</ele>
        <time>2020-07-19T13:29:47Z</time>
      </trkpt>
      <trkpt lat="44.21947" lon="3.26546">
        <ele>913.6</ele>
        <time>2020-07-19T13:29:49Z</time>
      </trkpt>
      <trkpt lat="44.21949" lon="3.26539">
        <ele>913.4</ele>
        <time>2020-07-19T13:29:50Z</time>
      </trkpt>
      <trkpt lat="44.21951" lon="3.26533">
        <ele>913.2</ele>
        <time>2020-07-19T13:29:51Z</time>
      </trkpt>
      <trkpt lat="44.21957" lon="3.26521">
        <ele>913.1</ele>
        <time>2020-07-19T13:29:53Z</time>
      </trkpt>
      <trkpt lat="44.21961" lon="3.26514">
        <ele>913.2</ele>
        <time>2020-07-19T13:29:55Z</time>
      </trkpt>
      <trkpt lat="44.21962" lon="3.26507">
        <ele>913.4</ele>
        <time>2020-07-19T13:29:57Z</time>
      </trkpt>
      <trkpt lat="44.21966" lon="3.26499">
        <ele>913.5</ele>
        <time>2020-07-19T13:29:59Z</time>
      </trkpt>
      <trkpt lat="44.21968" lon="3.26496">
        <ele>913.6</ele>
        <time>2020-07-19T13:30:00Z</time>
      </trkpt>
      <trkpt lat="44.21968" lon="3.26494">
        <ele>913.6</ele>
        <time>2020-07-19T13:30:01Z</time>
      </trkpt>
      <trkpt lat="44.21971" lon="3.2649">
        <ele>913.7</ele>
        <time>2020-07-19T13:30:03Z</time>
      </trkpt>
      <trkpt lat="44.21978" lon="3.26483">
        <ele>913.9</ele>
        <time>2020-07-19T13:30:05Z</time>
      </trkpt>
      <trkpt lat="44.2198" lon="3.2648">
        <ele>914</ele>
        <time>2020-07-19T13:30:06Z</time>
      </trkpt>
      <trkpt lat="44.21983" lon="3.26477">
        <ele>914.1</ele>
        <time>2020-07-19T13:30:07Z</time>
      </trkpt>
      <trkpt lat="44.21987" lon="3.26473">
        <ele>914.2</ele>
        <time>2020-07-19T13:30:09Z</time>
      </trkpt>
      <trkpt lat="44.21989" lon="3.26469">
        <ele>914.4</ele>
        <time>2020-07-19T13:30:10Z</time>
      </trkpt>
      <trkpt lat="44.21991" lon="3.26465">
        <ele>914.5</ele>
        <time>2020-07-19T13:30:11Z</time>
      </trkpt>
      <trkpt lat="44.21993" lon="3.2646">
        <ele>914.7</ele>
        <time>2020-07-19T13:30:13Z</time>
      </trkpt>
      <trkpt lat="44.21996" lon="3.26456">
        <ele>914.9</ele>
        <time>2020-07-19T13:30:14Z</time>
      </trkpt>
      <trkpt lat="44.22001" lon="3.2645">
        <ele>915.2</ele>
        <time>2020-07-19T13:30:16Z</time>
      </trkpt>
      <trkpt lat="44.22007" lon="3.26444">
        <ele>915.4</ele>
        <time>2020-07-19T13:30:18Z</time>
      </trkpt>
      <trkpt lat="44.22011" lon="3.26441">
        <ele>915.4</ele>
        <time>2020-07-19T13:30:19Z</time>
      </trkpt>
      <trkpt lat="44.22014" lon="3.2644">
        <ele>915.3</ele>
        <time>2020-07-19T13:30:20Z</time>
      </trkpt>
      <trkpt lat="44.22021" lon="3.26437">
        <ele>914.9</ele>
        <time>2020-07-19T13:30:22Z</time>
      </trkpt>
      <trkpt lat="44.22024" lon="3.26434">
        <ele>914.7</ele>
        <time>2020-07-19T13:30:24Z</time>
      </trkpt>
      <trkpt lat="44.22025" lon="3.2643">
        <ele>914.3</ele>
        <time>2020-07-19T13:30:25Z</time>
      </trkpt>
      <trkpt lat="44.22022" lon="3.26423">
        <ele>913.7</ele>
        <time>2020-07-19T13:30:26Z</time>
      </trkpt>
      <trkpt lat="44.2202" lon="3.26416">
        <ele>913</ele>
        <time>2020-07-19T13:30:27Z</time>
      </trkpt>
      <trkpt lat="44.22021" lon="3.26406">
        <ele>911.9</ele>
        <time>2020-07-19T13:30:29Z</time>
      </trkpt>
      <trkpt lat="44.2202" lon="3.26403">
        <ele>911.6</ele>
        <time>2020-07-19T13:30:30Z</time>
      </trkpt>
      <trkpt lat="44.22021" lon="3.264">
        <ele>911.2</ele>
        <time>2020-07-19T13:30:32Z</time>
      </trkpt>
      <trkpt lat="44.22024" lon="3.26401">
        <ele>910.8</ele>
        <time>2020-07-19T13:30:33Z</time>
      </trkpt>
      <trkpt lat="44.22028" lon="3.26406">
        <ele>910.1</ele>
        <time>2020-07-19T13:30:34Z</time>
      </trkpt>
      <trkpt lat="44.22034" lon="3.26407">
        <ele>909.3</ele>
        <time>2020-07-19T13:30:36Z</time>
      </trkpt>
      <trkpt lat="44.22036" lon="3.26402">
        <ele>908.8</ele>
        <time>2020-07-19T13:30:37Z</time>
      </trkpt>
      <trkpt lat="44.22035" lon="3.26394">
        <ele>908.2</ele>
        <time>2020-07-19T13:30:39Z</time>
      </trkpt>
      <trkpt lat="44.22032" lon="3.26386">
        <ele>907.3</ele>
        <time>2020-07-19T13:30:41Z</time>
      </trkpt>
      <trkpt lat="44.2203" lon="3.26378">
        <ele>906.5</ele>
        <time>2020-07-19T13:30:43Z</time>
      </trkpt>
      <trkpt lat="44.22029" lon="3.26371">
        <ele>905.8</ele>
        <time>2020-07-19T13:30:44Z</time>
      </trkpt>
      <trkpt lat="44.22027" lon="3.26363">
        <ele>905.2</ele>
        <time>2020-07-19T13:30:45Z</time>
      </trkpt>
      <trkpt lat="44.22026" lon="3.26357">
        <ele>904.6</ele>
        <time>2020-07-19T13:30:46Z</time>
      </trkpt>
      <trkpt lat="44.22023" lon="3.26352">
        <ele>904.2</ele>
        <time>2020-07-19T13:30:48Z</time>
      </trkpt>
      <trkpt lat="44.22023" lon="3.26347">
        <ele>903.9</ele>
        <time>2020-07-19T13:30:49Z</time>
      </trkpt>
      <trkpt lat="44.22021" lon="3.26342">
        <ele>903.5</ele>
        <time>2020-07-19T13:30:50Z</time>
      </trkpt>
      <trkpt lat="44.2202" lon="3.26338">
        <ele>903.3</ele>
        <time>2020-07-19T13:30:51Z</time>
      </trkpt>
      <trkpt lat="44.22019" lon="3.2633">
        <ele>902.8</ele>
        <time>2020-07-19T13:30:53Z</time>
      </trkpt>
      <trkpt lat="44.2202" lon="3.26325">
        <ele>902.5</ele>
        <time>2020-07-19T13:30:54Z</time>
      </trkpt>
      <trkpt lat="44.22021" lon="3.26321">
        <ele>902.3</ele>
        <time>2020-07-19T13:30:55Z</time>
      </trkpt>
      <trkpt lat="44.2202" lon="3.26312">
        <ele>901.7</ele>
        <time>2020-07-19T13:30:57Z</time>
      </trkpt>
      <trkpt lat="44.22019" lon="3.26307">
        <ele>901.3</ele>
        <time>2020-07-19T13:30:59Z</time>
      </trkpt>
      <trkpt lat="44.22018" lon="3.26302">
        <ele>901</ele>
        <time>2020-07-19T13:31:00Z</time>
      </trkpt>
      <trkpt lat="44.22017" lon="3.26297">
        <ele>900.6</ele>
        <time>2020-07-19T13:31:01Z</time>
      </trkpt>
      <trkpt lat="44.22014" lon="3.26292">
        <ele>900.2</ele>
        <time>2020-07-19T13:31:03Z</time>
      </trkpt>
      <trkpt lat="44.22011" lon="3.26289">
        <ele>899.8</ele>
        <time>2020-07-19T13:31:05Z</time>
      </trkpt>
      <trkpt lat="44.22012" lon="3.2629">
        <ele>899.8</ele>
        <time>2020-07-19T13:31:06Z</time>
      </trkpt>
      <trkpt lat="44.22012" lon="3.2629">
        <ele>899.7</ele>
        <time>2020-07-19T13:31:08Z</time>
      </trkpt>
      <trkpt lat="44.22012" lon="3.26291">
        <ele>899.7</ele>
        <time>2020-07-19T13:31:09Z</time>
      </trkpt>
      <trkpt lat="44.22012" lon="3.26291">
        <ele>899.6</ele>
        <time>2020-07-19T13:31:11Z</time>
      </trkpt>
      <trkpt lat="44.2201" lon="3.26292">
        <ele>899.4</ele>
        <time>2020-07-19T13:31:12Z</time>
      </trkpt>
      <trkpt lat="44.22008" lon="3.26292">
        <ele>899</ele>
        <time>2020-07-19T13:31:14Z</time>
      </trkpt>
      <trkpt lat="44.22006" lon="3.26291">
        <ele>898.9</ele>
        <time>2020-07-19T13:31:15Z</time>
      </trkpt>
      <trkpt lat="44.22006" lon="3.26289">
        <ele>898.7</ele>
        <time>2020-07-19T13:31:16Z</time>
      </trkpt>
      <trkpt lat="44.22005" lon="3.26286">
        <ele>898.3</ele>
        <time>2020-07-19T13:31:18Z</time>
      </trkpt>
      <trkpt lat="44.22004" lon="3.26279">
        <ele>898.3</ele>
        <time>2020-07-19T13:31:19Z</time>
      </trkpt>
      <trkpt lat="44.22003" lon="3.26276">
        <ele>898.3</ele>
        <time>2020-07-19T13:31:20Z</time>
      </trkpt>
      <trkpt lat="44.22002" lon="3.26269">
        <ele>898.4</ele>
        <time>2020-07-19T13:31:22Z</time>
      </trkpt>
      <trkpt lat="44.22" lon="3.26263">
        <ele>898.4</ele>
        <time>2020-07-19T13:31:24Z</time>
      </trkpt>
      <trkpt lat="44.21999" lon="3.2626">
        <ele>898.4</ele>
        <time>2020-07-19T13:31:25Z</time>
      </trkpt>
      <trkpt lat="44.21998" lon="3.26254">
        <ele>898.3</ele>
        <time>2020-07-19T13:31:26Z</time>
      </trkpt>
      <trkpt lat="44.21997" lon="3.26249">
        <ele>898.2</ele>
        <time>2020-07-19T13:31:27Z</time>
      </trkpt>
      <trkpt lat="44.21997" lon="3.26245">
        <ele>898.2</ele>
        <time>2020-07-19T13:31:28Z</time>
      </trkpt>
      <trkpt lat="44.21997" lon="3.26239">
        <ele>898</ele>
        <time>2020-07-19T13:31:30Z</time>
      </trkpt>
      <trkpt lat="44.21996" lon="3.26237">
        <ele>898</ele>
        <time>2020-07-19T13:31:31Z</time>
      </trkpt>
      <trkpt lat="44.21994" lon="3.26234">
        <ele>897.9</ele>
        <time>2020-07-19T13:31:33Z</time>
      </trkpt>
      <trkpt lat="44.21994" lon="3.26228">
        <ele>889.5</ele>
      </trkpt>
      <trkpt lat="44.22008" lon="3.26223">
        <ele>889.6</ele>
      </trkpt>
      <trkpt lat="44.22024" lon="3.26216">
        <ele>891.9</ele>
      </trkpt>
      <trkpt lat="44.22029" lon="3.26216">
        <ele>892.3</ele>
      </trkpt>
      <trkpt lat="44.22034" lon="3.26235">
        <ele>893.5</ele>
      </trkpt>
      <trkpt lat="44.22057" lon="3.26272">
        <ele>897.9</ele>
      </trkpt>
      <trkpt lat="44.22065" lon="3.26275">
        <ele>898.9</ele>
      </trkpt>
      <trkpt lat="44.22071" lon="3.26277">
        <ele>899.7</ele>
      </trkpt>
      <trkpt lat="44.22074" lon="3.26291">
        <ele>901.8</ele>
      </trkpt>
      <trkpt lat="44.22073" lon="3.26299">
        <ele>903</ele>
      </trkpt>
      <trkpt lat="44.22067" lon="3.26302">
        <ele>902.7</ele>
      </trkpt>
      <trkpt lat="44.22062" lon="3.26294">
        <ele>901</ele>
      </trkpt>
      <trkpt lat="44.22057" lon="3.26276">
        <ele>898</ele>
      </trkpt>
      <trkpt lat="44.22035" lon="3.26233">
        <ele>893.4</ele>
      </trkpt>
      <trkpt lat="44.22031" lon="3.26217">
        <ele>892.4</ele>
      </trkpt>
      <trkpt lat="44.22025" lon="3.26217">
        <ele>891.8</ele>
      </trkpt>
      <trkpt lat="44.21992" lon="3.2623">
        <ele>889.7</ele>
      </trkpt>
      <trkpt lat="44.21981" lon="3.26226">
        <ele>897.6</ele>
        <time>2020-07-19T13:31:39Z</time>
      </trkpt>
      <trkpt lat="44.21977" lon="3.26222">
        <ele>897.9</ele>
        <time>2020-07-19T13:31:41Z</time>
      </trkpt>
      <trkpt lat="44.21977" lon="3.26221">
        <ele>898</ele>
        <time>2020-07-19T13:31:42Z</time>
      </trkpt>
      <trkpt lat="44.21976" lon="3.26219">
        <ele>898.1</ele>
        <time>2020-07-19T13:31:43Z</time>
      </trkpt>
      <trkpt lat="44.21974" lon="3.26216">
        <ele>898.4</ele>
        <time>2020-07-19T13:31:44Z</time>
      </trkpt>
      <trkpt lat="44.21974" lon="3.26215">
        <ele>898.4</ele>
        <time>2020-07-19T13:31:45Z</time>
      </trkpt>
      <trkpt lat="44.21974" lon="3.26212">
        <ele>898.6</ele>
        <time>2020-07-19T13:31:47Z</time>
      </trkpt>
      <trkpt lat="44.21974" lon="3.2621">
        <ele>898.7</ele>
        <time>2020-07-19T13:31:48Z</time>
      </trkpt>
      <trkpt lat="44.21973" lon="3.26208">
        <ele>898.8</ele>
        <time>2020-07-19T13:31:49Z</time>
      </trkpt>
      <trkpt lat="44.21973" lon="3.26206">
        <ele>898.9</ele>
        <time>2020-07-19T13:31:50Z</time>
      </trkpt>
      <trkpt lat="44.21974" lon="3.26202">
        <ele>899.1</ele>
        <time>2020-07-19T13:31:52Z</time>
      </trkpt>
      <trkpt lat="44.21974" lon="3.262">
        <ele>899.1</ele>
        <time>2020-07-19T13:31:53Z</time>
      </trkpt>
      <trkpt lat="44.21972" lon="3.26198">
        <ele>899.3</ele>
        <time>2020-07-19T13:31:55Z</time>
      </trkpt>
      <trkpt lat="44.21972" lon="3.26198">
        <ele>899.3</ele>
        <time>2020-07-19T13:31:56Z</time>
      </trkpt>
      <trkpt lat="44.21972" lon="3.26198">
        <ele>899.3</ele>
        <time>2020-07-19T13:31:58Z</time>
      </trkpt>
      <trkpt lat="44.2197" lon="3.26196">
        <ele>899.4</ele>
        <time>2020-07-19T13:31:59Z</time>
      </trkpt>
      <trkpt lat="44.21968" lon="3.2619">
        <ele>899.6</ele>
        <time>2020-07-19T13:32:01Z</time>
      </trkpt>
      <trkpt lat="44.21966" lon="3.26187">
        <ele>899.8</ele>
        <time>2020-07-19T13:32:02Z</time>
      </trkpt>
      <trkpt lat="44.21963" lon="3.26183">
        <ele>900</ele>
        <time>2020-07-19T13:32:04Z</time>
      </trkpt>
      <trkpt lat="44.2196" lon="3.26181">
        <ele>900.2</ele>
        <time>2020-07-19T13:32:05Z</time>
      </trkpt>
      <trkpt lat="44.21956" lon="3.2618">
        <ele>900.4</ele>
        <time>2020-07-19T13:32:07Z</time>
      </trkpt>
      <trkpt lat="44.21954" lon="3.2618">
        <ele>900.6</ele>
        <time>2020-07-19T13:32:08Z</time>
      </trkpt>
      <trkpt lat="44.21953" lon="3.2618">
        <ele>900.6</ele>
        <time>2020-07-19T13:32:09Z</time>
      </trkpt>
      <trkpt lat="44.21949" lon="3.2618">
        <ele>900.8</ele>
        <time>2020-07-19T13:32:11Z</time>
      </trkpt>
      <trkpt lat="44.21945" lon="3.26181">
        <ele>901</ele>
        <time>2020-07-19T13:32:13Z</time>
      </trkpt>
      <trkpt lat="44.21942" lon="3.2618">
        <ele>901.1</ele>
        <time>2020-07-19T13:32:15Z</time>
      </trkpt>
      <trkpt lat="44.21939" lon="3.26178">
        <ele>901.3</ele>
        <time>2020-07-19T13:32:16Z</time>
      </trkpt>
      <trkpt lat="44.21938" lon="3.26177">
        <ele>901.3</ele>
        <time>2020-07-19T13:32:17Z</time>
      </trkpt>
      <trkpt lat="44.21936" lon="3.26174">
        <ele>901.4</ele>
        <time>2020-07-19T13:32:18Z</time>
      </trkpt>
      <trkpt lat="44.21935" lon="3.26173">
        <ele>901.4</ele>
        <time>2020-07-19T13:32:19Z</time>
      </trkpt>
      <trkpt lat="44.21934" lon="3.2617">
        <ele>901.6</ele>
        <time>2020-07-19T13:32:20Z</time>
      </trkpt>
      <trkpt lat="44.21933" lon="3.26168">
        <ele>901.7</ele>
        <time>2020-07-19T13:32:22Z</time>
      </trkpt>
      <trkpt lat="44.21932" lon="3.26165">
        <ele>901.8</ele>
        <time>2020-07-19T13:32:23Z</time>
      </trkpt>
      <trkpt lat="44.21932" lon="3.26163">
        <ele>901.9</ele>
        <time>2020-07-19T13:32:24Z</time>
      </trkpt>
      <trkpt lat="44.21932" lon="3.26157">
        <ele>902.2</ele>
        <time>2020-07-19T13:32:26Z</time>
      </trkpt>
      <trkpt lat="44.2193" lon="3.26153">
        <ele>902.4</ele>
        <time>2020-07-19T13:32:28Z</time>
      </trkpt>
      <trkpt lat="44.21928" lon="3.26151">
        <ele>902.6</ele>
        <time>2020-07-19T13:32:29Z</time>
      </trkpt>
      <trkpt lat="44.21926" lon="3.26149">
        <ele>902.8</ele>
        <time>2020-07-19T13:32:31Z</time>
      </trkpt>
      <trkpt lat="44.21923" lon="3.26148">
        <ele>903</ele>
        <time>2020-07-19T13:32:33Z</time>
      </trkpt>
      <trkpt lat="44.21921" lon="3.26148">
        <ele>903.1</ele>
        <time>2020-07-19T13:32:34Z</time>
      </trkpt>
      <trkpt lat="44.21916" lon="3.26149">
        <ele>903.4</ele>
        <time>2020-07-19T13:32:36Z</time>
      </trkpt>
      <trkpt lat="44.21915" lon="3.26148">
        <ele>903.5</ele>
        <time>2020-07-19T13:32:37Z</time>
      </trkpt>
      <trkpt lat="44.21912" lon="3.26146">
        <ele>903.7</ele>
        <time>2020-07-19T13:32:39Z</time>
      </trkpt>
      <trkpt lat="44.21909" lon="3.26145">
        <ele>903.9</ele>
        <time>2020-07-19T13:32:41Z</time>
      </trkpt>
      <trkpt lat="44.21907" lon="3.26143">
        <ele>904.1</ele>
        <time>2020-07-19T13:32:42Z</time>
      </trkpt>
      <trkpt lat="44.21903" lon="3.26142">
        <ele>904.3</ele>
        <time>2020-07-19T13:32:44Z</time>
      </trkpt>
      <trkpt lat="44.21899" lon="3.26138">
        <ele>904.7</ele>
        <time>2020-07-19T13:32:46Z</time>
      </trkpt>
      <trkpt lat="44.21897" lon="3.26136">
        <ele>904.8</ele>
        <time>2020-07-19T13:32:48Z</time>
      </trkpt>
      <trkpt lat="44.21896" lon="3.26135">
        <ele>905</ele>
        <time>2020-07-19T13:32:49Z</time>
      </trkpt>
      <trkpt lat="44.21895" lon="3.26133">
        <ele>905.2</ele>
        <time>2020-07-19T13:32:50Z</time>
      </trkpt>
      <trkpt lat="44.21895" lon="3.26132">
        <ele>905.2</ele>
        <time>2020-07-19T13:32:51Z</time>
      </trkpt>
      <trkpt lat="44.21895" lon="3.26132">
        <ele>905.3</ele>
        <time>2020-07-19T13:32:52Z</time>
      </trkpt>
      <trkpt lat="44.21894" lon="3.2613">
        <ele>905.4</ele>
        <time>2020-07-19T13:32:54Z</time>
      </trkpt>
      <trkpt lat="44.21894" lon="3.2613">
        <ele>905.4</ele>
        <time>2020-07-19T13:32:55Z</time>
      </trkpt>
      <trkpt lat="44.21894" lon="3.2613">
        <ele>905.4</ele>
        <time>2020-07-19T13:32:56Z</time>
      </trkpt>
      <trkpt lat="44.21894" lon="3.2613">
        <ele>905.5</ele>
        <time>2020-07-19T13:32:58Z</time>
      </trkpt>
      <trkpt lat="44.21894" lon="3.2613">
        <ele>905.5</ele>
        <time>2020-07-19T13:32:59Z</time>
      </trkpt>
      <trkpt lat="44.21893" lon="3.26129">
        <ele>905.6</ele>
        <time>2020-07-19T13:33:00Z</time>
      </trkpt>
      <trkpt lat="44.21893" lon="3.26129">
        <ele>905.6</ele>
        <time>2020-07-19T13:33:02Z</time>
      </trkpt>
      <trkpt lat="44.21893" lon="3.26129">
        <ele>905.6</ele>
        <time>2020-07-19T13:33:04Z</time>
      </trkpt>
      <trkpt lat="44.21892" lon="3.26129">
        <ele>905.7</ele>
        <time>2020-07-19T13:33:05Z</time>
      </trkpt>
      <trkpt lat="44.21891" lon="3.26128">
        <ele>905.9</ele>
        <time>2020-07-19T13:33:07Z</time>
      </trkpt>
      <trkpt lat="44.2189" lon="3.26127">
        <ele>906</ele>
        <time>2020-07-19T13:33:08Z</time>
      </trkpt>
      <trkpt lat="44.21889" lon="3.26127">
        <ele>906.1</ele>
        <time>2020-07-19T13:33:10Z</time>
      </trkpt>
      <trkpt lat="44.21887" lon="3.26126">
        <ele>906.4</ele>
        <time>2020-07-19T13:33:12Z</time>
      </trkpt>
      <trkpt lat="44.21887" lon="3.26126">
        <ele>906.5</ele>
        <time>2020-07-19T13:33:13Z</time>
      </trkpt>
      <trkpt lat="44.21886" lon="3.26125">
        <ele>906.7</ele>
        <time>2020-07-19T13:33:15Z</time>
      </trkpt>
      <trkpt lat="44.21886" lon="3.26125">
        <ele>906.7</ele>
        <time>2020-07-19T13:33:16Z</time>
      </trkpt>
      <trkpt lat="44.21886" lon="3.26125">
        <ele>906.7</ele>
        <time>2020-07-19T13:33:18Z</time>
      </trkpt>
      <trkpt lat="44.21886" lon="3.26125">
        <ele>906.7</ele>
        <time>2020-07-19T13:33:19Z</time>
      </trkpt>
      <trkpt lat="44.21885" lon="3.26125">
        <ele>906.8</ele>
        <time>2020-07-19T13:33:21Z</time>
      </trkpt>
      <trkpt lat="44.21885" lon="3.26125">
        <ele>906.8</ele>
        <time>2020-07-19T13:33:22Z</time>
      </trkpt>
      <trkpt lat="44.21884" lon="3.26125">
        <ele>906.9</ele>
        <time>2020-07-19T13:33:24Z</time>
      </trkpt>
      <trkpt lat="44.21882" lon="3.26124">
        <ele>907.4</ele>
        <time>2020-07-19T13:33:42Z</time>
      </trkpt>
      <trkpt lat="44.21882" lon="3.26123">
        <ele>907.4</ele>
        <time>2020-07-19T13:33:43Z</time>
      </trkpt>
      <trkpt lat="44.21881" lon="3.26122">
        <ele>907.6</ele>
        <time>2020-07-19T13:33:44Z</time>
      </trkpt>
      <trkpt lat="44.21881" lon="3.26122">
        <ele>907.7</ele>
        <time>2020-07-19T13:33:46Z</time>
      </trkpt>
      <trkpt lat="44.21879" lon="3.26122">
        <ele>907.9</ele>
        <time>2020-07-19T13:33:47Z</time>
      </trkpt>
      <trkpt lat="44.21878" lon="3.26122">
        <ele>908.1</ele>
        <time>2020-07-19T13:33:48Z</time>
      </trkpt>
      <trkpt lat="44.21876" lon="3.26121">
        <ele>908.5</ele>
        <time>2020-07-19T13:33:50Z</time>
      </trkpt>
      <trkpt lat="44.21872" lon="3.26121">
        <ele>909.1</ele>
        <time>2020-07-19T13:33:52Z</time>
      </trkpt>
      <trkpt lat="44.2187" lon="3.26119">
        <ele>909.6</ele>
        <time>2020-07-19T13:33:54Z</time>
      </trkpt>
      <trkpt lat="44.21869" lon="3.26119">
        <ele>909.7</ele>
        <time>2020-07-19T13:33:55Z</time>
      </trkpt>
      <trkpt lat="44.21868" lon="3.26119">
        <ele>909.8</ele>
        <time>2020-07-19T13:33:56Z</time>
      </trkpt>
      <trkpt lat="44.21868" lon="3.26118">
        <ele>909.9</ele>
        <time>2020-07-19T13:33:57Z</time>
      </trkpt>
      <trkpt lat="44.21866" lon="3.26118">
        <ele>910.1</ele>
        <time>2020-07-19T13:33:58Z</time>
      </trkpt>
      <trkpt lat="44.21863" lon="3.26117">
        <ele>910.4</ele>
        <time>2020-07-19T13:34:00Z</time>
      </trkpt>
      <trkpt lat="44.2186" lon="3.26116">
        <ele>910.8</ele>
        <time>2020-07-19T13:34:02Z</time>
      </trkpt>
      <trkpt lat="44.21859" lon="3.26115">
        <ele>910.9</ele>
        <time>2020-07-19T13:34:03Z</time>
      </trkpt>
      <trkpt lat="44.21857" lon="3.26115">
        <ele>911.1</ele>
        <time>2020-07-19T13:34:04Z</time>
      </trkpt>
      <trkpt lat="44.21856" lon="3.26114">
        <ele>911.2</ele>
        <time>2020-07-19T13:34:06Z</time>
      </trkpt>
      <trkpt lat="44.21855" lon="3.26114">
        <ele>911.3</ele>
        <time>2020-07-19T13:34:07Z</time>
      </trkpt>
      <trkpt lat="44.21852" lon="3.26113">
        <ele>911.6</ele>
        <time>2020-07-19T13:34:09Z</time>
      </trkpt>
      <trkpt lat="44.21852" lon="3.26112">
        <ele>911.7</ele>
        <time>2020-07-19T13:34:10Z</time>
      </trkpt>
      <trkpt lat="44.2185" lon="3.26112">
        <ele>911.9</ele>
        <time>2020-07-19T13:34:11Z</time>
      </trkpt>
      <trkpt lat="44.21848" lon="3.26111">
        <ele>912.1</ele>
        <time>2020-07-19T13:34:13Z</time>
      </trkpt>
      <trkpt lat="44.21847" lon="3.2611">
        <ele>912.2</ele>
        <time>2020-07-19T13:34:14Z</time>
      </trkpt>
      <trkpt lat="44.21847" lon="3.2611">
        <ele>912.3</ele>
        <time>2020-07-19T13:34:15Z</time>
      </trkpt>
      <trkpt lat="44.21845" lon="3.26109">
        <ele>912.5</ele>
        <time>2020-07-19T13:34:16Z</time>
      </trkpt>
      <trkpt lat="44.21843" lon="3.26108">
        <ele>912.9</ele>
        <time>2020-07-19T13:34:17Z</time>
      </trkpt>
      <trkpt lat="44.21841" lon="3.26108">
        <ele>913</ele>
        <time>2020-07-19T13:34:19Z</time>
      </trkpt>
      <trkpt lat="44.2184" lon="3.26108">
        <ele>913.1</ele>
        <time>2020-07-19T13:34:20Z</time>
      </trkpt>
      <trkpt lat="44.21839" lon="3.26108">
        <ele>913.3</ele>
        <time>2020-07-19T13:34:22Z</time>
      </trkpt>
      <trkpt lat="44.21838" lon="3.26108">
        <ele>913.4</ele>
        <time>2020-07-19T13:34:23Z</time>
      </trkpt>
      <trkpt lat="44.21836" lon="3.26106">
        <ele>913.8</ele>
        <time>2020-07-19T13:34:24Z</time>
      </trkpt>
      <trkpt lat="44.21835" lon="3.26106">
        <ele>914</ele>
        <time>2020-07-19T13:34:25Z</time>
      </trkpt>
      <trkpt lat="44.21832" lon="3.26105">
        <ele>914.4</ele>
        <time>2020-07-19T13:34:27Z</time>
      </trkpt>
      <trkpt lat="44.21831" lon="3.26105">
        <ele>914.5</ele>
        <time>2020-07-19T13:34:28Z</time>
      </trkpt>
      <trkpt lat="44.21828" lon="3.26104">
        <ele>914.8</ele>
        <time>2020-07-19T13:34:29Z</time>
      </trkpt>
      <trkpt lat="44.21826" lon="3.26103">
        <ele>915.2</ele>
        <time>2020-07-19T13:34:31Z</time>
      </trkpt>
      <trkpt lat="44.21824" lon="3.26102">
        <ele>915.4</ele>
        <time>2020-07-19T13:34:32Z</time>
      </trkpt>
      <trkpt lat="44.21821" lon="3.26102">
        <ele>915.7</ele>
        <time>2020-07-19T13:34:34Z</time>
      </trkpt>
      <trkpt lat="44.21817" lon="3.26101">
        <ele>916</ele>
        <time>2020-07-19T13:34:36Z</time>
      </trkpt>
      <trkpt lat="44.21816" lon="3.26101">
        <ele>916</ele>
        <time>2020-07-19T13:34:37Z</time>
      </trkpt>
      <trkpt lat="44.21813" lon="3.26101">
        <ele>916.3</ele>
        <time>2020-07-19T13:34:39Z</time>
      </trkpt>
      <trkpt lat="44.21811" lon="3.26102">
        <ele>916.4</ele>
        <time>2020-07-19T13:34:40Z</time>
      </trkpt>
      <trkpt lat="44.21808" lon="3.26101">
        <ele>916.7</ele>
        <time>2020-07-19T13:34:42Z</time>
      </trkpt>
      <trkpt lat="44.21806" lon="3.26101">
        <ele>916.8</ele>
        <time>2020-07-19T13:34:43Z</time>
      </trkpt>
      <trkpt lat="44.21804" lon="3.26101">
        <ele>917</ele>
        <time>2020-07-19T13:34:45Z</time>
      </trkpt>
      <trkpt lat="44.21802" lon="3.26101">
        <ele>917.3</ele>
        <time>2020-07-19T13:34:46Z</time>
      </trkpt>
      <trkpt lat="44.218" lon="3.26101">
        <ele>917.4</ele>
        <time>2020-07-19T13:34:47Z</time>
      </trkpt>
      <trkpt lat="44.21798" lon="3.261">
        <ele>917.7</ele>
        <time>2020-07-19T13:34:49Z</time>
      </trkpt>
      <trkpt lat="44.21797" lon="3.26099">
        <ele>917.8</ele>
        <time>2020-07-19T13:34:50Z</time>
      </trkpt>
      <trkpt lat="44.21797" lon="3.26098">
        <ele>917.9</ele>
        <time>2020-07-19T13:34:52Z</time>
      </trkpt>
      <trkpt lat="44.21796" lon="3.26098">
        <ele>918</ele>
        <time>2020-07-19T13:34:53Z</time>
      </trkpt>
      <trkpt lat="44.21795" lon="3.26097">
        <ele>918.1</ele>
        <time>2020-07-19T13:34:55Z</time>
      </trkpt>
      <trkpt lat="44.21794" lon="3.26096">
        <ele>918.3</ele>
        <time>2020-07-19T13:34:57Z</time>
      </trkpt>
      <trkpt lat="44.21789" lon="3.26094">
        <ele>919</ele>
        <time>2020-07-19T13:35:02Z</time>
      </trkpt>
      <trkpt lat="44.21788" lon="3.26093">
        <ele>919.2</ele>
        <time>2020-07-19T13:35:04Z</time>
      </trkpt>
      <trkpt lat="44.21787" lon="3.26092">
        <ele>919.3</ele>
        <time>2020-07-19T13:35:05Z</time>
      </trkpt>
      <trkpt lat="44.21787" lon="3.26091">
        <ele>919.5</ele>
        <time>2020-07-19T13:35:07Z</time>
      </trkpt>
      <trkpt lat="44.21787" lon="3.26091">
        <ele>919.5</ele>
        <time>2020-07-19T13:35:09Z</time>
      </trkpt>
      <trkpt lat="44.21788" lon="3.26091">
        <ele>919.6</ele>
        <time>2020-07-19T13:35:10Z</time>
      </trkpt>
      <trkpt lat="44.21788" lon="3.26091">
        <ele>919.6</ele>
        <time>2020-07-19T13:35:12Z</time>
      </trkpt>
      <trkpt lat="44.21788" lon="3.26089">
        <ele>919.7</ele>
        <time>2020-07-19T13:35:13Z</time>
      </trkpt>
      <trkpt lat="44.21787" lon="3.26088">
        <ele>919.9</ele>
        <time>2020-07-19T13:35:15Z</time>
      </trkpt>
      <trkpt lat="44.21787" lon="3.26088">
        <ele>919.9</ele>
        <time>2020-07-19T13:35:16Z</time>
      </trkpt>
      <trkpt lat="44.21787" lon="3.26087">
        <ele>920</ele>
        <time>2020-07-19T13:35:17Z</time>
      </trkpt>
      <trkpt lat="44.21787" lon="3.26086">
        <ele>920.1</ele>
        <time>2020-07-19T13:35:18Z</time>
      </trkpt>
      <trkpt lat="44.21787" lon="3.26086">
        <ele>920.2</ele>
        <time>2020-07-19T13:35:20Z</time>
      </trkpt>
      <trkpt lat="44.21786" lon="3.26085">
        <ele>920.3</ele>
        <time>2020-07-19T13:35:21Z</time>
      </trkpt>
      <trkpt lat="44.21785" lon="3.26084">
        <ele>920.5</ele>
        <time>2020-07-19T13:35:22Z</time>
      </trkpt>
      <trkpt lat="44.21785" lon="3.26083">
        <ele>920.7</ele>
        <time>2020-07-19T13:35:23Z</time>
      </trkpt>
      <trkpt lat="44.21783" lon="3.26083">
        <ele>920.9</ele>
        <time>2020-07-19T13:35:25Z</time>
      </trkpt>
      <trkpt lat="44.21782" lon="3.26084">
        <ele>921.2</ele>
        <time>2020-07-19T13:35:26Z</time>
      </trkpt>
      <trkpt lat="44.21781" lon="3.26085">
        <ele>921.4</ele>
        <time>2020-07-19T13:35:27Z</time>
      </trkpt>
      <trkpt lat="44.2178" lon="3.26086">
        <ele>921.5</ele>
        <time>2020-07-19T13:35:28Z</time>
      </trkpt>
      <trkpt lat="44.21778" lon="3.26087">
        <ele>921.7</ele>
        <time>2020-07-19T13:35:30Z</time>
      </trkpt>
      <trkpt lat="44.21777" lon="3.26086">
        <ele>921.8</ele>
        <time>2020-07-19T13:35:31Z</time>
      </trkpt>
      <trkpt lat="44.21776" lon="3.26085">
        <ele>921.9</ele>
        <time>2020-07-19T13:35:33Z</time>
      </trkpt>
      <trkpt lat="44.21776" lon="3.26084">
        <ele>922</ele>
        <time>2020-07-19T13:35:35Z</time>
      </trkpt>
      <trkpt lat="44.21776" lon="3.26083">
        <ele>922</ele>
        <time>2020-07-19T13:35:37Z</time>
      </trkpt>
      <trkpt lat="44.21776" lon="3.26083">
        <ele>922</ele>
        <time>2020-07-19T13:35:38Z</time>
      </trkpt>
      <trkpt lat="44.21775" lon="3.26082">
        <ele>922.1</ele>
        <time>2020-07-19T13:35:40Z</time>
      </trkpt>
      <trkpt lat="44.21775" lon="3.2608">
        <ele>922.1</ele>
        <time>2020-07-19T13:35:41Z</time>
      </trkpt>
      <trkpt lat="44.21776" lon="3.26079">
        <ele>922.1</ele>
        <time>2020-07-19T13:35:43Z</time>
      </trkpt>
      <trkpt lat="44.21776" lon="3.26078">
        <ele>922.2</ele>
        <time>2020-07-19T13:35:45Z</time>
      </trkpt>
      <trkpt lat="44.21776" lon="3.26078">
        <ele>922.2</ele>
        <time>2020-07-19T13:35:46Z</time>
      </trkpt>
      <trkpt lat="44.21777" lon="3.26078">
        <ele>922.2</ele>
        <time>2020-07-19T13:35:48Z</time>
      </trkpt>
      <trkpt lat="44.21776" lon="3.26077">
        <ele>922.1</ele>
        <time>2020-07-19T13:35:49Z</time>
      </trkpt>
      <trkpt lat="44.21776" lon="3.26075">
        <ele>922.1</ele>
        <time>2020-07-19T13:35:50Z</time>
      </trkpt>
      <trkpt lat="44.21776" lon="3.26071">
        <ele>922</ele>
        <time>2020-07-19T13:35:52Z</time>
      </trkpt>
      <trkpt lat="44.21777" lon="3.26068">
        <ele>921.8</ele>
        <time>2020-07-19T13:35:54Z</time>
      </trkpt>
      <trkpt lat="44.21778" lon="3.26064">
        <ele>921.5</ele>
        <time>2020-07-19T13:35:56Z</time>
      </trkpt>
      <trkpt lat="44.21779" lon="3.26062">
        <ele>921.3</ele>
        <time>2020-07-19T13:35:57Z</time>
      </trkpt>
      <trkpt lat="44.21779" lon="3.2606">
        <ele>921.2</ele>
        <time>2020-07-19T13:35:58Z</time>
      </trkpt>
      <trkpt lat="44.2178" lon="3.26056">
        <ele>920.8</ele>
        <time>2020-07-19T13:35:59Z</time>
      </trkpt>
      <trkpt lat="44.21782" lon="3.26046">
        <ele>919.2</ele>
        <time>2020-07-19T13:36:01Z</time>
      </trkpt>
      <trkpt lat="44.21782" lon="3.26041">
        <ele>918.4</ele>
        <time>2020-07-19T13:36:02Z</time>
      </trkpt>
      <trkpt lat="44.21782" lon="3.26035">
        <ele>917.3</ele>
        <time>2020-07-19T13:36:03Z</time>
      </trkpt>
      <trkpt lat="44.2178" lon="3.26031">
        <ele>916.2</ele>
        <time>2020-07-19T13:36:05Z</time>
      </trkpt>
      <trkpt lat="44.21775" lon="3.26027">
        <ele>914.6</ele>
        <time>2020-07-19T13:36:06Z</time>
      </trkpt>
      <trkpt lat="44.21771" lon="3.26026">
        <ele>913.5</ele>
        <time>2020-07-19T13:36:07Z</time>
      </trkpt>
      <trkpt lat="44.21764" lon="3.26025">
        <ele>911.9</ele>
        <time>2020-07-19T13:36:09Z</time>
      </trkpt>
      <trkpt lat="44.21762" lon="3.26023">
        <ele>911.4</ele>
        <time>2020-07-19T13:36:10Z</time>
      </trkpt>
      <trkpt lat="44.21759" lon="3.26019">
        <ele>910.6</ele>
        <time>2020-07-19T13:36:12Z</time>
      </trkpt>
      <trkpt lat="44.21758" lon="3.26017">
        <ele>910.3</ele>
        <time>2020-07-19T13:36:13Z</time>
      </trkpt>
      <trkpt lat="44.21755" lon="3.26014">
        <ele>909.7</ele>
        <time>2020-07-19T13:36:14Z</time>
      </trkpt>
      <trkpt lat="44.21751" lon="3.26011">
        <ele>909.1</ele>
        <time>2020-07-19T13:36:15Z</time>
      </trkpt>
      <trkpt lat="44.21747" lon="3.26009">
        <ele>908.4</ele>
        <time>2020-07-19T13:36:16Z</time>
      </trkpt>
      <trkpt lat="44.2174" lon="3.26007">
        <ele>907.3</ele>
        <time>2020-07-19T13:36:18Z</time>
      </trkpt>
      <trkpt lat="44.21728" lon="3.26008">
        <ele>905</ele>
        <time>2020-07-19T13:36:19Z</time>
      </trkpt>
      <trkpt lat="44.21717" lon="3.26009">
        <ele>903.7</ele>
        <time>2020-07-19T13:36:21Z</time>
      </trkpt>
      <trkpt lat="44.21711" lon="3.26008">
        <ele>902.7</ele>
        <time>2020-07-19T13:36:22Z</time>
      </trkpt>
      <trkpt lat="44.21702" lon="3.26007">
        <ele>901.7</ele>
        <time>2020-07-19T13:36:24Z</time>
      </trkpt>
      <trkpt lat="44.21693" lon="3.26011">
        <ele>900.6</ele>
        <time>2020-07-19T13:36:26Z</time>
      </trkpt>
      <trkpt lat="44.21689" lon="3.26014">
        <ele>900</ele>
        <time>2020-07-19T13:36:27Z</time>
      </trkpt>
      <trkpt lat="44.21684" lon="3.26016">
        <ele>899.3</ele>
        <time>2020-07-19T13:36:29Z</time>
      </trkpt>
      <trkpt lat="44.21678" lon="3.2602">
        <ele>898.2</ele>
        <time>2020-07-19T13:36:30Z</time>
      </trkpt>
      <trkpt lat="44.21674" lon="3.26022">
        <ele>897.3</ele>
        <time>2020-07-19T13:36:31Z</time>
      </trkpt>
      <trkpt lat="44.21666" lon="3.26022">
        <ele>895.5</ele>
        <time>2020-07-19T13:36:32Z</time>
      </trkpt>
      <trkpt lat="44.21662" lon="3.26022">
        <ele>894.7</ele>
        <time>2020-07-19T13:36:33Z</time>
      </trkpt>
      <trkpt lat="44.21657" lon="3.26022">
        <ele>893.7</ele>
        <time>2020-07-19T13:36:35Z</time>
      </trkpt>
      <trkpt lat="44.21652" lon="3.26019">
        <ele>892.7</ele>
        <time>2020-07-19T13:36:37Z</time>
      </trkpt>
      <trkpt lat="44.21645" lon="3.26018">
        <ele>891.6</ele>
        <time>2020-07-19T13:36:38Z</time>
      </trkpt>
      <trkpt lat="44.21639" lon="3.26018">
        <ele>890.8</ele>
        <time>2020-07-19T13:36:39Z</time>
      </trkpt>
      <trkpt lat="44.21636" lon="3.26019">
        <ele>890.3</ele>
        <time>2020-07-19T13:36:40Z</time>
      </trkpt>
      <trkpt lat="44.2163" lon="3.26021">
        <ele>889.6</ele>
        <time>2020-07-19T13:36:42Z</time>
      </trkpt>
      <trkpt lat="44.21627" lon="3.26021">
        <ele>889.3</ele>
        <time>2020-07-19T13:36:43Z</time>
      </trkpt>
      <trkpt lat="44.21622" lon="3.26021">
        <ele>888.8</ele>
        <time>2020-07-19T13:36:44Z</time>
      </trkpt>
      <trkpt lat="44.21617" lon="3.26022">
        <ele>888.4</ele>
        <time>2020-07-19T13:36:46Z</time>
      </trkpt>
      <trkpt lat="44.21612" lon="3.26022">
        <ele>888</ele>
        <time>2020-07-19T13:36:47Z</time>
      </trkpt>
      <trkpt lat="44.21599" lon="3.26017">
        <ele>886.6</ele>
        <time>2020-07-19T13:36:49Z</time>
      </trkpt>
      <trkpt lat="44.2159" lon="3.26015">
        <ele>885.6</ele>
        <time>2020-07-19T13:36:51Z</time>
      </trkpt>
      <trkpt lat="44.21586" lon="3.26015">
        <ele>885</ele>
        <time>2020-07-19T13:36:52Z</time>
      </trkpt>
      <trkpt lat="44.21581" lon="3.26013">
        <ele>884.4</ele>
        <time>2020-07-19T13:36:53Z</time>
      </trkpt>
      <trkpt lat="44.21579" lon="3.26013">
        <ele>884.2</ele>
        <time>2020-07-19T13:36:54Z</time>
      </trkpt>
      <trkpt lat="44.21576" lon="3.26012">
        <ele>883.9</ele>
        <time>2020-07-19T13:36:56Z</time>
      </trkpt>
      <trkpt lat="44.21574" lon="3.26015">
        <ele>883.7</ele>
        <time>2020-07-19T13:36:57Z</time>
      </trkpt>
      <trkpt lat="44.21574" lon="3.26016">
        <ele>883.6</ele>
        <time>2020-07-19T13:36:58Z</time>
      </trkpt>
      <trkpt lat="44.21574" lon="3.26017">
        <ele>883.6</ele>
        <time>2020-07-19T13:36:59Z</time>
      </trkpt>
      <trkpt lat="44.21571" lon="3.26022">
        <ele>883.2</ele>
        <time>2020-07-19T13:37:01Z</time>
      </trkpt>
      <trkpt lat="44.2157" lon="3.26023">
        <ele>883</ele>
        <time>2020-07-19T13:37:02Z</time>
      </trkpt>
      <trkpt lat="44.21569" lon="3.26024">
        <ele>882.9</ele>
        <time>2020-07-19T13:37:03Z</time>
      </trkpt>
      <trkpt lat="44.21567" lon="3.26027">
        <ele>882.6</ele>
        <time>2020-07-19T13:37:04Z</time>
      </trkpt>
      <trkpt lat="44.21564" lon="3.26029">
        <ele>882.2</ele>
        <time>2020-07-19T13:37:06Z</time>
      </trkpt>
      <trkpt lat="44.2156" lon="3.2603">
        <ele>881.8</ele>
        <time>2020-07-19T13:37:07Z</time>
      </trkpt>
      <trkpt lat="44.21557" lon="3.2603">
        <ele>881.5</ele>
        <time>2020-07-19T13:37:08Z</time>
      </trkpt>
      <trkpt lat="44.21554" lon="3.26032">
        <ele>881.1</ele>
        <time>2020-07-19T13:37:09Z</time>
      </trkpt>
      <trkpt lat="44.21548" lon="3.26034">
        <ele>880.4</ele>
        <time>2020-07-19T13:37:11Z</time>
      </trkpt>
      <trkpt lat="44.21546" lon="3.26034">
        <ele>880.2</ele>
        <time>2020-07-19T13:37:12Z</time>
      </trkpt>
      <trkpt lat="44.21539" lon="3.26036">
        <ele>879.3</ele>
        <time>2020-07-19T13:37:14Z</time>
      </trkpt>
      <trkpt lat="44.21534" lon="3.26037">
        <ele>878.7</ele>
        <time>2020-07-19T13:37:15Z</time>
      </trkpt>
      <trkpt lat="44.2153" lon="3.26037">
        <ele>878.3</ele>
        <time>2020-07-19T13:37:16Z</time>
      </trkpt>
      <trkpt lat="44.21525" lon="3.26036">
        <ele>877.6</ele>
        <time>2020-07-19T13:37:18Z</time>
      </trkpt>
      <trkpt lat="44.21519" lon="3.26037">
        <ele>876.9</ele>
        <time>2020-07-19T13:37:19Z</time>
      </trkpt>
      <trkpt lat="44.21516" lon="3.26038">
        <ele>876.5</ele>
        <time>2020-07-19T13:37:20Z</time>
      </trkpt>
      <trkpt lat="44.21513" lon="3.26042">
        <ele>876</ele>
        <time>2020-07-19T13:37:22Z</time>
      </trkpt>
      <trkpt lat="44.21511" lon="3.26047">
        <ele>875.5</ele>
        <time>2020-07-19T13:37:23Z</time>
      </trkpt>
      <trkpt lat="44.21509" lon="3.26052">
        <ele>875</ele>
        <time>2020-07-19T13:37:25Z</time>
      </trkpt>
      <trkpt lat="44.21507" lon="3.26057">
        <ele>874.6</ele>
        <time>2020-07-19T13:37:26Z</time>
      </trkpt>
      <trkpt lat="44.21505" lon="3.26061">
        <ele>874.1</ele>
        <time>2020-07-19T13:37:27Z</time>
      </trkpt>
      <trkpt lat="44.21503" lon="3.26065">
        <ele>873.6</ele>
        <time>2020-07-19T13:37:28Z</time>
      </trkpt>
      <trkpt lat="44.21501" lon="3.26068">
        <ele>873.2</ele>
        <time>2020-07-19T13:37:29Z</time>
      </trkpt>
      <trkpt lat="44.21499" lon="3.26071">
        <ele>872.6</ele>
        <time>2020-07-19T13:37:30Z</time>
      </trkpt>
      <trkpt lat="44.21494" lon="3.26074">
        <ele>871.7</ele>
        <time>2020-07-19T13:37:32Z</time>
      </trkpt>
      <trkpt lat="44.2149" lon="3.26075">
        <ele>871</ele>
        <time>2020-07-19T13:37:33Z</time>
      </trkpt>
      <trkpt lat="44.21487" lon="3.26076">
        <ele>870.5</ele>
        <time>2020-07-19T13:37:34Z</time>
      </trkpt>
      <trkpt lat="44.21483" lon="3.26075">
        <ele>870</ele>
        <time>2020-07-19T13:37:35Z</time>
      </trkpt>
      <trkpt lat="44.21479" lon="3.26074">
        <ele>869.7</ele>
        <time>2020-07-19T13:37:37Z</time>
      </trkpt>
      <trkpt lat="44.21477" lon="3.26074">
        <ele>869.4</ele>
        <time>2020-07-19T13:37:38Z</time>
      </trkpt>
      <trkpt lat="44.21473" lon="3.26074">
        <ele>869.1</ele>
        <time>2020-07-19T13:37:40Z</time>
      </trkpt>
      <trkpt lat="44.21469" lon="3.26075">
        <ele>868.7</ele>
        <time>2020-07-19T13:37:41Z</time>
      </trkpt>
      <trkpt lat="44.21465" lon="3.26076">
        <ele>868.3</ele>
        <time>2020-07-19T13:37:42Z</time>
      </trkpt>
      <trkpt lat="44.21462" lon="3.26076">
        <ele>868</ele>
        <time>2020-07-19T13:37:43Z</time>
      </trkpt>
      <trkpt lat="44.21458" lon="3.26077">
        <ele>867.7</ele>
        <time>2020-07-19T13:37:44Z</time>
      </trkpt>
      <trkpt lat="44.21455" lon="3.26078">
        <ele>867.3</ele>
        <time>2020-07-19T13:37:45Z</time>
      </trkpt>
      <trkpt lat="44.2145" lon="3.26079">
        <ele>866.5</ele>
        <time>2020-07-19T13:37:47Z</time>
      </trkpt>
      <trkpt lat="44.21444" lon="3.26079">
        <ele>865.8</ele>
        <time>2020-07-19T13:37:48Z</time>
      </trkpt>
      <trkpt lat="44.21441" lon="3.2608">
        <ele>865.3</ele>
        <time>2020-07-19T13:37:49Z</time>
      </trkpt>
      <trkpt lat="44.21437" lon="3.2608">
        <ele>864.7</ele>
        <time>2020-07-19T13:37:50Z</time>
      </trkpt>
      <trkpt lat="44.21427" lon="3.2608">
        <ele>863.9</ele>
        <time>2020-07-19T13:37:52Z</time>
      </trkpt>
      <trkpt lat="44.21422" lon="3.26081">
        <ele>863.4</ele>
        <time>2020-07-19T13:37:53Z</time>
      </trkpt>
      <trkpt lat="44.21417" lon="3.26081">
        <ele>862.9</ele>
        <time>2020-07-19T13:37:54Z</time>
      </trkpt>
      <trkpt lat="44.21413" lon="3.26081">
        <ele>862.6</ele>
        <time>2020-07-19T13:37:55Z</time>
      </trkpt>
      <trkpt lat="44.21406" lon="3.26083">
        <ele>861.9</ele>
        <time>2020-07-19T13:37:57Z</time>
      </trkpt>
      <trkpt lat="44.21401" lon="3.26084">
        <ele>861.5</ele>
        <time>2020-07-19T13:37:58Z</time>
      </trkpt>
      <trkpt lat="44.21398" lon="3.26086">
        <ele>861.1</ele>
        <time>2020-07-19T13:37:59Z</time>
      </trkpt>
      <trkpt lat="44.21394" lon="3.26086">
        <ele>860.7</ele>
        <time>2020-07-19T13:38:01Z</time>
      </trkpt>
      <trkpt lat="44.21393" lon="3.26086">
        <ele>860.6</ele>
        <time>2020-07-19T13:38:02Z</time>
      </trkpt>
      <trkpt lat="44.21391" lon="3.26086">
        <ele>860.5</ele>
        <time>2020-07-19T13:38:03Z</time>
      </trkpt>
      <trkpt lat="44.21388" lon="3.26085">
        <ele>860.2</ele>
        <time>2020-07-19T13:38:04Z</time>
      </trkpt>
      <trkpt lat="44.21387" lon="3.26085">
        <ele>860.1</ele>
        <time>2020-07-19T13:38:05Z</time>
      </trkpt>
      <trkpt lat="44.21384" lon="3.2609">
        <ele>859.7</ele>
        <time>2020-07-19T13:38:07Z</time>
      </trkpt>
      <trkpt lat="44.21383" lon="3.26093">
        <ele>859.4</ele>
        <time>2020-07-19T13:38:08Z</time>
      </trkpt>
      <trkpt lat="44.21378" lon="3.26099">
        <ele>858.7</ele>
        <time>2020-07-19T13:38:10Z</time>
      </trkpt>
      <trkpt lat="44.21371" lon="3.261">
        <ele>858.1</ele>
        <time>2020-07-19T13:38:11Z</time>
      </trkpt>
      <trkpt lat="44.21367" lon="3.26103">
        <ele>857.7</ele>
        <time>2020-07-19T13:38:13Z</time>
      </trkpt>
      <trkpt lat="44.21362" lon="3.26107">
        <ele>857.3</ele>
        <time>2020-07-19T13:38:14Z</time>
      </trkpt>
      <trkpt lat="44.21356" lon="3.26109">
        <ele>856.9</ele>
        <time>2020-07-19T13:38:16Z</time>
      </trkpt>
      <trkpt lat="44.21351" lon="3.26115">
        <ele>856.5</ele>
        <time>2020-07-19T13:38:17Z</time>
      </trkpt>
      <trkpt lat="44.21344" lon="3.26122">
        <ele>855.9</ele>
        <time>2020-07-19T13:38:19Z</time>
      </trkpt>
      <trkpt lat="44.2134" lon="3.26126">
        <ele>855.6</ele>
        <time>2020-07-19T13:38:20Z</time>
      </trkpt>
      <trkpt lat="44.21337" lon="3.26132">
        <ele>855.3</ele>
        <time>2020-07-19T13:38:21Z</time>
      </trkpt>
      <trkpt lat="44.21334" lon="3.26138">
        <ele>855</ele>
        <time>2020-07-19T13:38:22Z</time>
      </trkpt>
      <trkpt lat="44.21332" lon="3.26144">
        <ele>854.8</ele>
        <time>2020-07-19T13:38:23Z</time>
      </trkpt>
      <trkpt lat="44.21332" lon="3.2615">
        <ele>854.5</ele>
        <time>2020-07-19T13:38:24Z</time>
      </trkpt>
      <trkpt lat="44.21332" lon="3.26157">
        <ele>854.3</ele>
        <time>2020-07-19T13:38:26Z</time>
      </trkpt>
      <trkpt lat="44.21333" lon="3.26163">
        <ele>854.1</ele>
        <time>2020-07-19T13:38:28Z</time>
      </trkpt>
      <trkpt lat="44.21334" lon="3.26166">
        <ele>853.9</ele>
        <time>2020-07-19T13:38:29Z</time>
      </trkpt>
      <trkpt lat="44.21333" lon="3.26167">
        <ele>853.9</ele>
        <time>2020-07-19T13:38:30Z</time>
      </trkpt>
      <trkpt lat="44.21333" lon="3.26168">
        <ele>853.8</ele>
        <time>2020-07-19T13:38:32Z</time>
      </trkpt>
      <trkpt lat="44.21332" lon="3.26169">
        <ele>853.8</ele>
        <time>2020-07-19T13:38:33Z</time>
      </trkpt>
      <trkpt lat="44.21332" lon="3.26168">
        <ele>853.8</ele>
        <time>2020-07-19T13:38:35Z</time>
      </trkpt>
      <trkpt lat="44.21332" lon="3.26168">
        <ele>853.8</ele>
        <time>2020-07-19T13:38:36Z</time>
      </trkpt>
      <trkpt lat="44.21332" lon="3.26169">
        <ele>853.7</ele>
        <time>2020-07-19T13:38:37Z</time>
      </trkpt>
      <trkpt lat="44.21331" lon="3.26172">
        <ele>853.6</ele>
        <time>2020-07-19T13:38:39Z</time>
      </trkpt>
      <trkpt lat="44.2133" lon="3.26174">
        <ele>853.5</ele>
        <time>2020-07-19T13:38:40Z</time>
      </trkpt>
      <trkpt lat="44.21328" lon="3.26175">
        <ele>853.3</ele>
        <time>2020-07-19T13:38:42Z</time>
      </trkpt>
      <trkpt lat="44.21327" lon="3.26176">
        <ele>853.3</ele>
        <time>2020-07-19T13:38:43Z</time>
      </trkpt>
      <trkpt lat="44.21327" lon="3.26178">
        <ele>853.1</ele>
        <time>2020-07-19T13:38:44Z</time>
      </trkpt>
      <trkpt lat="44.21327" lon="3.26182">
        <ele>852.9</ele>
        <time>2020-07-19T13:38:46Z</time>
      </trkpt>
      <trkpt lat="44.21326" lon="3.26184">
        <ele>852.8</ele>
        <time>2020-07-19T13:38:48Z</time>
      </trkpt>
      <trkpt lat="44.21327" lon="3.26187">
        <ele>852.5</ele>
        <time>2020-07-19T13:38:49Z</time>
      </trkpt>
      <trkpt lat="44.21328" lon="3.26189">
        <ele>852.4</ele>
        <time>2020-07-19T13:38:50Z</time>
      </trkpt>
      <trkpt lat="44.21328" lon="3.2619">
        <ele>852.2</ele>
        <time>2020-07-19T13:38:51Z</time>
      </trkpt>
      <trkpt lat="44.21327" lon="3.26192">
        <ele>852.1</ele>
        <time>2020-07-19T13:38:53Z</time>
      </trkpt>
      <trkpt lat="44.21327" lon="3.26193">
        <ele>852</ele>
        <time>2020-07-19T13:38:54Z</time>
      </trkpt>
      <trkpt lat="44.21327" lon="3.26194">
        <ele>851.9</ele>
        <time>2020-07-19T13:38:55Z</time>
      </trkpt>
      <trkpt lat="44.21326" lon="3.26195">
        <ele>851.8</ele>
        <time>2020-07-19T13:38:56Z</time>
      </trkpt>
      <trkpt lat="44.21326" lon="3.26195">
        <ele>851.8</ele>
        <time>2020-07-19T13:38:57Z</time>
      </trkpt>
      <trkpt lat="44.21326" lon="3.26195">
        <ele>851.8</ele>
        <time>2020-07-19T13:38:58Z</time>
      </trkpt>
      <trkpt lat="44.21326" lon="3.26196">
        <ele>851.7</ele>
        <time>2020-07-19T13:38:59Z</time>
      </trkpt>
      <trkpt lat="44.21325" lon="3.26196">
        <ele>851.7</ele>
        <time>2020-07-19T13:39:00Z</time>
      </trkpt>
      <trkpt lat="44.21324" lon="3.26197">
        <ele>851.5</ele>
        <time>2020-07-19T13:39:02Z</time>
      </trkpt>
      <trkpt lat="44.21324" lon="3.26197">
        <ele>851.5</ele>
        <time>2020-07-19T13:39:03Z</time>
      </trkpt>
      <trkpt lat="44.21323" lon="3.26198">
        <ele>851.4</ele>
        <time>2020-07-19T13:39:05Z</time>
      </trkpt>
      <trkpt lat="44.21316" lon="3.262">
        <ele>850.7</ele>
        <time>2020-07-19T13:39:34Z</time>
      </trkpt>
      <trkpt lat="44.21318" lon="3.26205">
        <ele>850.4</ele>
        <time>2020-07-19T13:39:36Z</time>
      </trkpt>
      <trkpt lat="44.21317" lon="3.26208">
        <ele>850.3</ele>
        <time>2020-07-19T13:39:38Z</time>
      </trkpt>
      <trkpt lat="44.21315" lon="3.26208">
        <ele>849.1</ele>
        <time>2020-07-19T13:39:40Z</time>
      </trkpt>
      <trkpt lat="44.21314" lon="3.26213">
        <ele>848.6</ele>
        <time>2020-07-19T13:39:42Z</time>
      </trkpt>
      <trkpt lat="44.21314" lon="3.26215">
        <ele>848.6</ele>
        <time>2020-07-19T13:39:43Z</time>
      </trkpt>
      <trkpt lat="44.21314" lon="3.26218">
        <ele>848</ele>
        <time>2020-07-19T13:39:45Z</time>
      </trkpt>
      <trkpt lat="44.21313" lon="3.26218">
        <ele>846.9</ele>
        <time>2020-07-19T13:39:47Z</time>
      </trkpt>
      <trkpt lat="44.21311" lon="3.26217">
        <ele>846.9</ele>
        <time>2020-07-19T13:39:48Z</time>
      </trkpt>
      <trkpt lat="44.21307" lon="3.26218">
        <ele>845.8</ele>
        <time>2020-07-19T13:39:49Z</time>
      </trkpt>
      <trkpt lat="44.21306" lon="3.26218">
        <ele>845.8</ele>
        <time>2020-07-19T13:39:50Z</time>
      </trkpt>
      <trkpt lat="44.21305" lon="3.2622">
        <ele>844.7</ele>
        <time>2020-07-19T13:39:52Z</time>
      </trkpt>
      <trkpt lat="44.21305" lon="3.2622">
        <ele>844.8</ele>
        <time>2020-07-19T13:39:53Z</time>
      </trkpt>
      <trkpt lat="44.21304" lon="3.26221">
        <ele>844.8</ele>
        <time>2020-07-19T13:39:54Z</time>
      </trkpt>
      <trkpt lat="44.21304" lon="3.26222">
        <ele>844.2</ele>
        <time>2020-07-19T13:39:56Z</time>
      </trkpt>
      <trkpt lat="44.21303" lon="3.26223">
        <ele>844.3</ele>
        <time>2020-07-19T13:39:57Z</time>
      </trkpt>
      <trkpt lat="44.21303" lon="3.26224">
        <ele>843.3</ele>
        <time>2020-07-19T13:39:59Z</time>
      </trkpt>
      <trkpt lat="44.21303" lon="3.26224">
        <ele>843.3</ele>
        <time>2020-07-19T13:40:00Z</time>
      </trkpt>
      <trkpt lat="44.21303" lon="3.26225">
        <ele>843.4</ele>
        <time>2020-07-19T13:40:01Z</time>
      </trkpt>
      <trkpt lat="44.21302" lon="3.26226">
        <ele>842.8</ele>
        <time>2020-07-19T13:40:02Z</time>
      </trkpt>
      <trkpt lat="44.21302" lon="3.26227">
        <ele>842.9</ele>
        <time>2020-07-19T13:40:04Z</time>
      </trkpt>
      <trkpt lat="44.21302" lon="3.26228">
        <ele>843</ele>
        <time>2020-07-19T13:40:05Z</time>
      </trkpt>
      <trkpt lat="44.21302" lon="3.26229">
        <ele>843</ele>
        <time>2020-07-19T13:40:06Z</time>
      </trkpt>
      <trkpt lat="44.21299" lon="3.26227">
        <ele>842.1</ele>
        <time>2020-07-19T13:40:18Z</time>
      </trkpt>
      <trkpt lat="44.21298" lon="3.26224">
        <ele>842.7</ele>
        <time>2020-07-19T13:40:19Z</time>
      </trkpt>
      <trkpt lat="44.21297" lon="3.26224">
        <ele>841.8</ele>
        <time>2020-07-19T13:40:21Z</time>
      </trkpt>
      <trkpt lat="44.21295" lon="3.26224">
        <ele>841.9</ele>
        <time>2020-07-19T13:40:22Z</time>
      </trkpt>
      <trkpt lat="44.21294" lon="3.26225">
        <ele>841.1</ele>
        <time>2020-07-19T13:40:23Z</time>
      </trkpt>
      <trkpt lat="44.21293" lon="3.26225">
        <ele>841.1</ele>
        <time>2020-07-19T13:40:25Z</time>
      </trkpt>
      <trkpt lat="44.21291" lon="3.26224">
        <ele>841.2</ele>
        <time>2020-07-19T13:40:26Z</time>
      </trkpt>
      <trkpt lat="44.2129" lon="3.26228">
        <ele>839.8</ele>
        <time>2020-07-19T13:40:28Z</time>
      </trkpt>
      <trkpt lat="44.21289" lon="3.2623">
        <ele>839.3</ele>
        <time>2020-07-19T13:40:29Z</time>
      </trkpt>
      <trkpt lat="44.21289" lon="3.26233">
        <ele>839.4</ele>
        <time>2020-07-19T13:40:30Z</time>
      </trkpt>
      <trkpt lat="44.21289" lon="3.26235">
        <ele>838.9</ele>
        <time>2020-07-19T13:40:31Z</time>
      </trkpt>
      <trkpt lat="44.21289" lon="3.26238">
        <ele>839</ele>
        <time>2020-07-19T13:40:33Z</time>
      </trkpt>
      <trkpt lat="44.21289" lon="3.26238">
        <ele>838.5</ele>
        <time>2020-07-19T13:40:34Z</time>
      </trkpt>
      <trkpt lat="44.21289" lon="3.26239">
        <ele>838.6</ele>
        <time>2020-07-19T13:40:36Z</time>
      </trkpt>
      <trkpt lat="44.21289" lon="3.26241">
        <ele>838.6</ele>
        <time>2020-07-19T13:40:38Z</time>
      </trkpt>
      <trkpt lat="44.21289" lon="3.26242">
        <ele>838.7</ele>
        <time>2020-07-19T13:40:39Z</time>
      </trkpt>
      <trkpt lat="44.2129" lon="3.26244">
        <ele>838.3</ele>
        <time>2020-07-19T13:40:41Z</time>
      </trkpt>
      <trkpt lat="44.2129" lon="3.26245">
        <ele>838.4</ele>
        <time>2020-07-19T13:40:43Z</time>
      </trkpt>
      <trkpt lat="44.2129" lon="3.26246">
        <ele>838.4</ele>
        <time>2020-07-19T13:40:44Z</time>
      </trkpt>
      <trkpt lat="44.21289" lon="3.26247">
        <ele>838.5</ele>
        <time>2020-07-19T13:40:45Z</time>
      </trkpt>
      <trkpt lat="44.21288" lon="3.26247">
        <ele>838.1</ele>
        <time>2020-07-19T13:40:47Z</time>
      </trkpt>
      <trkpt lat="44.21288" lon="3.26247">
        <ele>837.3</ele>
        <time>2020-07-19T13:40:49Z</time>
      </trkpt>
      <trkpt lat="44.21287" lon="3.26247">
        <ele>837.4</ele>
        <time>2020-07-19T13:40:50Z</time>
      </trkpt>
      <trkpt lat="44.21286" lon="3.26246">
        <ele>837.9</ele>
        <time>2020-07-19T13:40:52Z</time>
      </trkpt>
      <trkpt lat="44.21285" lon="3.26246">
        <ele>837.9</ele>
        <time>2020-07-19T13:40:53Z</time>
      </trkpt>
      <trkpt lat="44.21283" lon="3.26244">
        <ele>837.2</ele>
        <time>2020-07-19T13:40:55Z</time>
      </trkpt>
      <trkpt lat="44.21282" lon="3.26243">
        <ele>837.2</ele>
        <time>2020-07-19T13:40:56Z</time>
      </trkpt>
      <trkpt lat="44.2128" lon="3.26244">
        <ele>836.5</ele>
        <time>2020-07-19T13:40:58Z</time>
      </trkpt>
      <trkpt lat="44.2128" lon="3.26245">
        <ele>836.6</ele>
        <time>2020-07-19T13:41:00Z</time>
      </trkpt>
      <trkpt lat="44.21279" lon="3.26246">
        <ele>836.6</ele>
        <time>2020-07-19T13:41:02Z</time>
      </trkpt>
      <trkpt lat="44.21279" lon="3.26246">
        <ele>836.7</ele>
        <time>2020-07-19T13:41:03Z</time>
      </trkpt>
      <trkpt lat="44.21279" lon="3.26246">
        <ele>836</ele>
        <time>2020-07-19T13:41:05Z</time>
      </trkpt>
      <trkpt lat="44.21279" lon="3.26247">
        <ele>836.1</ele>
        <time>2020-07-19T13:41:07Z</time>
      </trkpt>
      <trkpt lat="44.21278" lon="3.26247">
        <ele>835.7</ele>
        <time>2020-07-19T13:41:08Z</time>
      </trkpt>
      <trkpt lat="44.21273" lon="3.26239">
        <ele>836</ele>
        <time>2020-07-19T13:43:03Z</time>
      </trkpt>
      <trkpt lat="44.21273" lon="3.26239">
        <ele>836.1</ele>
        <time>2020-07-19T13:43:04Z</time>
      </trkpt>
      <trkpt lat="44.21273" lon="3.26238">
        <ele>836.7</ele>
        <time>2020-07-19T13:43:06Z</time>
      </trkpt>
      <trkpt lat="44.21272" lon="3.26238">
        <ele>836.1</ele>
        <time>2020-07-19T13:43:07Z</time>
      </trkpt>
      <trkpt lat="44.21272" lon="3.26238">
        <ele>836.1</ele>
        <time>2020-07-19T13:43:09Z</time>
      </trkpt>
      <trkpt lat="44.21272" lon="3.26239">
        <ele>836.1</ele>
        <time>2020-07-19T13:43:10Z</time>
      </trkpt>
      <trkpt lat="44.21272" lon="3.26238">
        <ele>836.1</ele>
        <time>2020-07-19T13:43:12Z</time>
      </trkpt>
      <trkpt lat="44.21272" lon="3.26238">
        <ele>836.1</ele>
        <time>2020-07-19T13:43:13Z</time>
      </trkpt>
      <trkpt lat="44.21272" lon="3.26238">
        <ele>836.1</ele>
        <time>2020-07-19T13:43:16Z</time>
      </trkpt>
      <trkpt lat="44.21272" lon="3.26238">
        <ele>836.2</ele>
        <time>2020-07-19T13:43:18Z</time>
      </trkpt>
      <trkpt lat="44.21272" lon="3.26238">
        <ele>836.2</ele>
        <time>2020-07-19T13:43:19Z</time>
      </trkpt>
      <trkpt lat="44.21274" lon="3.26235">
        <ele>836.3</ele>
        <time>2020-07-19T13:44:19Z</time>
      </trkpt>
      <trkpt lat="44.21273" lon="3.26235">
        <ele>836.4</ele>
        <time>2020-07-19T13:44:21Z</time>
      </trkpt>
      <trkpt lat="44.21272" lon="3.26234">
        <ele>836.4</ele>
        <time>2020-07-19T13:44:22Z</time>
      </trkpt>
      <trkpt lat="44.21272" lon="3.2623">
        <ele>836.6</ele>
        <time>2020-07-19T13:44:24Z</time>
      </trkpt>
      <trkpt lat="44.21271" lon="3.26225">
        <ele>836.9</ele>
        <time>2020-07-19T13:44:26Z</time>
      </trkpt>
      <trkpt lat="44.21271" lon="3.26224">
        <ele>836.9</ele>
        <time>2020-07-19T13:44:27Z</time>
      </trkpt>
      <trkpt lat="44.2127" lon="3.2622">
        <ele>837.2</ele>
        <time>2020-07-19T13:44:28Z</time>
      </trkpt>
      <trkpt lat="44.2127" lon="3.26219">
        <ele>837.3</ele>
        <time>2020-07-19T13:44:29Z</time>
      </trkpt>
      <trkpt lat="44.21269" lon="3.26214">
        <ele>837.6</ele>
        <time>2020-07-19T13:44:30Z</time>
      </trkpt>
      <trkpt lat="44.21268" lon="3.26208">
        <ele>838.4</ele>
        <time>2020-07-19T13:44:32Z</time>
      </trkpt>
      <trkpt lat="44.21268" lon="3.26202">
        <ele>838.6</ele>
        <time>2020-07-19T13:44:33Z</time>
      </trkpt>
      <trkpt lat="44.21268" lon="3.26198">
        <ele>838.7</ele>
        <time>2020-07-19T13:44:34Z</time>
      </trkpt>
      <trkpt lat="44.21269" lon="3.26193">
        <ele>838.9</ele>
        <time>2020-07-19T13:44:35Z</time>
      </trkpt>
      <trkpt lat="44.2127" lon="3.26191">
        <ele>839</ele>
        <time>2020-07-19T13:44:36Z</time>
      </trkpt>
      <trkpt lat="44.2127" lon="3.26187">
        <ele>839.1</ele>
        <time>2020-07-19T13:44:37Z</time>
      </trkpt>
      <trkpt lat="44.21272" lon="3.26183">
        <ele>839.3</ele>
        <time>2020-07-19T13:44:39Z</time>
      </trkpt>
      <trkpt lat="44.21274" lon="3.26179">
        <ele>839.5</ele>
        <time>2020-07-19T13:44:40Z</time>
      </trkpt>
      <trkpt lat="44.21275" lon="3.26175">
        <ele>839.7</ele>
        <time>2020-07-19T13:44:41Z</time>
      </trkpt>
      <trkpt lat="44.21276" lon="3.26171">
        <ele>839.8</ele>
        <time>2020-07-19T13:44:43Z</time>
      </trkpt>
      <trkpt lat="44.21277" lon="3.26167">
        <ele>840</ele>
        <time>2020-07-19T13:44:44Z</time>
      </trkpt>
      <trkpt lat="44.21279" lon="3.26161">
        <ele>840.2</ele>
        <time>2020-07-19T13:44:46Z</time>
      </trkpt>
      <trkpt lat="44.21279" lon="3.26158">
        <ele>840.3</ele>
        <time>2020-07-19T13:44:47Z</time>
      </trkpt>
      <trkpt lat="44.2128" lon="3.26155">
        <ele>840.4</ele>
        <time>2020-07-19T13:44:48Z</time>
      </trkpt>
      <trkpt lat="44.2128" lon="3.26152">
        <ele>840.5</ele>
        <time>2020-07-19T13:44:49Z</time>
      </trkpt>
      <trkpt lat="44.21282" lon="3.26149">
        <ele>840.6</ele>
        <time>2020-07-19T13:44:51Z</time>
      </trkpt>
      <trkpt lat="44.21283" lon="3.26145">
        <ele>840.8</ele>
        <time>2020-07-19T13:44:52Z</time>
      </trkpt>
      <trkpt lat="44.21284" lon="3.26143">
        <ele>840.9</ele>
        <time>2020-07-19T13:44:53Z</time>
      </trkpt>
      <trkpt lat="44.21285" lon="3.26139">
        <ele>841</ele>
        <time>2020-07-19T13:44:54Z</time>
      </trkpt>
      <trkpt lat="44.21285" lon="3.26135">
        <ele>841.2</ele>
        <time>2020-07-19T13:44:56Z</time>
      </trkpt>
      <trkpt lat="44.21285" lon="3.26131">
        <ele>841.3</ele>
        <time>2020-07-19T13:44:58Z</time>
      </trkpt>
      <trkpt lat="44.21285" lon="3.26128">
        <ele>841.4</ele>
        <time>2020-07-19T13:44:59Z</time>
      </trkpt>
      <trkpt lat="44.21285" lon="3.26124">
        <ele>841.6</ele>
        <time>2020-07-19T13:45:01Z</time>
      </trkpt>
      <trkpt lat="44.21286" lon="3.26118">
        <ele>841.8</ele>
        <time>2020-07-19T13:45:02Z</time>
      </trkpt>
      <trkpt lat="44.21287" lon="3.26116">
        <ele>841.8</ele>
        <time>2020-07-19T13:45:03Z</time>
      </trkpt>
      <trkpt lat="44.21287" lon="3.26112">
        <ele>841.9</ele>
        <time>2020-07-19T13:45:04Z</time>
      </trkpt>
      <trkpt lat="44.21288" lon="3.26108">
        <ele>842</ele>
        <time>2020-07-19T13:45:06Z</time>
      </trkpt>
      <trkpt lat="44.21288" lon="3.26104">
        <ele>842.1</ele>
        <time>2020-07-19T13:45:07Z</time>
      </trkpt>
      <trkpt lat="44.21289" lon="3.26102">
        <ele>842.2</ele>
        <time>2020-07-19T13:45:08Z</time>
      </trkpt>
      <trkpt lat="44.21289" lon="3.26096">
        <ele>842.4</ele>
        <time>2020-07-19T13:45:10Z</time>
      </trkpt>
      <trkpt lat="44.21288" lon="3.26093">
        <ele>842.5</ele>
        <time>2020-07-19T13:45:11Z</time>
      </trkpt>
      <trkpt lat="44.21288" lon="3.26089">
        <ele>842.7</ele>
        <time>2020-07-19T13:45:13Z</time>
      </trkpt>
      <trkpt lat="44.21287" lon="3.26086">
        <ele>842.8</ele>
        <time>2020-07-19T13:45:15Z</time>
      </trkpt>
      <trkpt lat="44.21286" lon="3.26083">
        <ele>843</ele>
        <time>2020-07-19T13:45:17Z</time>
      </trkpt>
      <trkpt lat="44.21285" lon="3.26081">
        <ele>843.1</ele>
        <time>2020-07-19T13:45:18Z</time>
      </trkpt>
      <trkpt lat="44.21284" lon="3.26077">
        <ele>843.2</ele>
        <time>2020-07-19T13:45:20Z</time>
      </trkpt>
      <trkpt lat="44.21282" lon="3.26074">
        <ele>843.4</ele>
        <time>2020-07-19T13:45:21Z</time>
      </trkpt>
      <trkpt lat="44.21281" lon="3.26072">
        <ele>843.5</ele>
        <time>2020-07-19T13:45:22Z</time>
      </trkpt>
      <trkpt lat="44.21281" lon="3.2607">
        <ele>843.6</ele>
        <time>2020-07-19T13:45:23Z</time>
      </trkpt>
      <trkpt lat="44.2128" lon="3.26068">
        <ele>843.7</ele>
        <time>2020-07-19T13:45:24Z</time>
      </trkpt>
      <trkpt lat="44.2128" lon="3.26062">
        <ele>844</ele>
        <time>2020-07-19T13:45:26Z</time>
      </trkpt>
      <trkpt lat="44.2128" lon="3.26059">
        <ele>844.1</ele>
        <time>2020-07-19T13:45:28Z</time>
      </trkpt>
      <trkpt lat="44.21279" lon="3.26057">
        <ele>844.2</ele>
        <time>2020-07-19T13:45:29Z</time>
      </trkpt>
      <trkpt lat="44.21278" lon="3.26053">
        <ele>844.5</ele>
        <time>2020-07-19T13:45:31Z</time>
      </trkpt>
      <trkpt lat="44.21278" lon="3.2605">
        <ele>844.6</ele>
        <time>2020-07-19T13:45:32Z</time>
      </trkpt>
      <trkpt lat="44.21277" lon="3.26046">
        <ele>844.9</ele>
        <time>2020-07-19T13:45:34Z</time>
      </trkpt>
      <trkpt lat="44.21276" lon="3.26042">
        <ele>845.1</ele>
        <time>2020-07-19T13:45:35Z</time>
      </trkpt>
      <trkpt lat="44.21276" lon="3.26041">
        <ele>845.2</ele>
        <time>2020-07-19T13:45:36Z</time>
      </trkpt>
      <trkpt lat="44.21275" lon="3.26038">
        <ele>845.4</ele>
        <time>2020-07-19T13:45:37Z</time>
      </trkpt>
      <trkpt lat="44.21274" lon="3.26035">
        <ele>845.6</ele>
        <time>2020-07-19T13:45:39Z</time>
      </trkpt>
      <trkpt lat="44.21274" lon="3.26031">
        <ele>845.8</ele>
        <time>2020-07-19T13:45:40Z</time>
      </trkpt>
      <trkpt lat="44.21274" lon="3.2603">
        <ele>845.9</ele>
        <time>2020-07-19T13:45:41Z</time>
      </trkpt>
      <trkpt lat="44.21273" lon="3.26026">
        <ele>846.3</ele>
        <time>2020-07-19T13:45:43Z</time>
      </trkpt>
      <trkpt lat="44.21273" lon="3.26024">
        <ele>846.4</ele>
        <time>2020-07-19T13:45:44Z</time>
      </trkpt>
      <trkpt lat="44.21273" lon="3.26022">
        <ele>846.6</ele>
        <time>2020-07-19T13:45:45Z</time>
      </trkpt>
      <trkpt lat="44.21272" lon="3.26018">
        <ele>846.8</ele>
        <time>2020-07-19T13:45:47Z</time>
      </trkpt>
      <trkpt lat="44.21272" lon="3.26015">
        <ele>847.1</ele>
        <time>2020-07-19T13:45:49Z</time>
      </trkpt>
      <trkpt lat="44.21272" lon="3.26014">
        <ele>847.2</ele>
        <time>2020-07-19T13:45:50Z</time>
      </trkpt>
      <trkpt lat="44.21271" lon="3.26011">
        <ele>847.4</ele>
        <time>2020-07-19T13:45:52Z</time>
      </trkpt>
      <trkpt lat="44.21271" lon="3.26009">
        <ele>847.5</ele>
        <time>2020-07-19T13:45:53Z</time>
      </trkpt>
      <trkpt lat="44.21271" lon="3.26005">
        <ele>847.9</ele>
        <time>2020-07-19T13:45:55Z</time>
      </trkpt>
      <trkpt lat="44.21271" lon="3.26003">
        <ele>848</ele>
        <time>2020-07-19T13:45:56Z</time>
      </trkpt>
      <trkpt lat="44.21271" lon="3.26001">
        <ele>848.2</ele>
        <time>2020-07-19T13:45:57Z</time>
      </trkpt>
      <trkpt lat="44.21271" lon="3.25998">
        <ele>848.5</ele>
        <time>2020-07-19T13:45:59Z</time>
      </trkpt>
      <trkpt lat="44.21271" lon="3.25996">
        <ele>848.7</ele>
        <time>2020-07-19T13:46:00Z</time>
      </trkpt>
      <trkpt lat="44.21271" lon="3.25994">
        <ele>848.8</ele>
        <time>2020-07-19T13:46:01Z</time>
      </trkpt>
      <trkpt lat="44.2127" lon="3.25992">
        <ele>849.1</ele>
        <time>2020-07-19T13:46:02Z</time>
      </trkpt>
      <trkpt lat="44.2127" lon="3.25989">
        <ele>849.3</ele>
        <time>2020-07-19T13:46:04Z</time>
      </trkpt>
      <trkpt lat="44.2127" lon="3.25987">
        <ele>849.5</ele>
        <time>2020-07-19T13:46:05Z</time>
      </trkpt>
      <trkpt lat="44.2127" lon="3.25985">
        <ele>849.7</ele>
        <time>2020-07-19T13:46:06Z</time>
      </trkpt>
      <trkpt lat="44.2127" lon="3.25984">
        <ele>849.9</ele>
        <time>2020-07-19T13:46:07Z</time>
      </trkpt>
      <trkpt lat="44.2127" lon="3.25982">
        <ele>850</ele>
        <time>2020-07-19T13:46:08Z</time>
      </trkpt>
      <trkpt lat="44.2127" lon="3.25979">
        <ele>850.3</ele>
        <time>2020-07-19T13:46:10Z</time>
      </trkpt>
      <trkpt lat="44.2127" lon="3.25977">
        <ele>850.5</ele>
        <time>2020-07-19T13:46:11Z</time>
      </trkpt>
      <trkpt lat="44.21271" lon="3.25976">
        <ele>850.6</ele>
        <time>2020-07-19T13:46:12Z</time>
      </trkpt>
      <trkpt lat="44.21271" lon="3.25974">
        <ele>850.8</ele>
        <time>2020-07-19T13:46:14Z</time>
      </trkpt>
      <trkpt lat="44.21271" lon="3.25973">
        <ele>850.9</ele>
        <time>2020-07-19T13:46:15Z</time>
      </trkpt>
      <trkpt lat="44.21272" lon="3.2597">
        <ele>851.1</ele>
        <time>2020-07-19T13:46:17Z</time>
      </trkpt>
      <trkpt lat="44.21273" lon="3.25969">
        <ele>851.3</ele>
        <time>2020-07-19T13:46:18Z</time>
      </trkpt>
      <trkpt lat="44.21274" lon="3.25965">
        <ele>851.7</ele>
        <time>2020-07-19T13:46:20Z</time>
      </trkpt>
      <trkpt lat="44.21275" lon="3.25963">
        <ele>851.8</ele>
        <time>2020-07-19T13:46:21Z</time>
      </trkpt>
      <trkpt lat="44.21277" lon="3.25959">
        <ele>852.1</ele>
        <time>2020-07-19T13:46:23Z</time>
      </trkpt>
      <trkpt lat="44.21277" lon="3.25958">
        <ele>852.2</ele>
        <time>2020-07-19T13:46:24Z</time>
      </trkpt>
      <trkpt lat="44.21278" lon="3.25956">
        <ele>852.4</ele>
        <time>2020-07-19T13:46:25Z</time>
      </trkpt>
      <trkpt lat="44.21279" lon="3.25955">
        <ele>852.5</ele>
        <time>2020-07-19T13:46:26Z</time>
      </trkpt>
      <trkpt lat="44.2128" lon="3.25952">
        <ele>852.6</ele>
        <time>2020-07-19T13:46:28Z</time>
      </trkpt>
      <trkpt lat="44.21281" lon="3.25951">
        <ele>852.7</ele>
        <time>2020-07-19T13:46:29Z</time>
      </trkpt>
      <trkpt lat="44.21282" lon="3.25948">
        <ele>852.9</ele>
        <time>2020-07-19T13:46:30Z</time>
      </trkpt>
      <trkpt lat="44.21284" lon="3.25944">
        <ele>853.1</ele>
        <time>2020-07-19T13:46:32Z</time>
      </trkpt>
      <trkpt lat="44.21285" lon="3.2594">
        <ele>853.2</ele>
        <time>2020-07-19T13:46:33Z</time>
      </trkpt>
      <trkpt lat="44.21287" lon="3.25937">
        <ele>853.3</ele>
        <time>2020-07-19T13:46:34Z</time>
      </trkpt>
      <trkpt lat="44.21289" lon="3.25933">
        <ele>853.4</ele>
        <time>2020-07-19T13:46:36Z</time>
      </trkpt>
      <trkpt lat="44.2129" lon="3.25929">
        <ele>853.5</ele>
        <time>2020-07-19T13:46:37Z</time>
      </trkpt>
      <trkpt lat="44.21291" lon="3.25927">
        <ele>853.5</ele>
        <time>2020-07-19T13:46:38Z</time>
      </trkpt>
      <trkpt lat="44.21293" lon="3.25924">
        <ele>853.6</ele>
        <time>2020-07-19T13:46:40Z</time>
      </trkpt>
      <trkpt lat="44.21293" lon="3.25921">
        <ele>853.6</ele>
        <time>2020-07-19T13:46:41Z</time>
      </trkpt>
      <trkpt lat="44.21295" lon="3.25917">
        <ele>853.7</ele>
        <time>2020-07-19T13:46:43Z</time>
      </trkpt>
      <trkpt lat="44.21297" lon="3.25913">
        <ele>853.7</ele>
        <time>2020-07-19T13:46:45Z</time>
      </trkpt>
      <trkpt lat="44.21298" lon="3.25911">
        <ele>853.7</ele>
        <time>2020-07-19T13:46:46Z</time>
      </trkpt>
      <trkpt lat="44.21299" lon="3.25908">
        <ele>853.8</ele>
        <time>2020-07-19T13:46:47Z</time>
      </trkpt>
      <trkpt lat="44.21301" lon="3.25904">
        <ele>853.9</ele>
        <time>2020-07-19T13:46:49Z</time>
      </trkpt>
      <trkpt lat="44.21303" lon="3.25899">
        <ele>853.9</ele>
        <time>2020-07-19T13:46:51Z</time>
      </trkpt>
      <trkpt lat="44.21304" lon="3.25894">
        <ele>854</ele>
        <time>2020-07-19T13:46:52Z</time>
      </trkpt>
      <trkpt lat="44.21305" lon="3.25893">
        <ele>854</ele>
        <time>2020-07-19T13:46:53Z</time>
      </trkpt>
      <trkpt lat="44.21306" lon="3.25889">
        <ele>854.1</ele>
        <time>2020-07-19T13:46:54Z</time>
      </trkpt>
      <trkpt lat="44.21306" lon="3.25886">
        <ele>854.1</ele>
        <time>2020-07-19T13:46:55Z</time>
      </trkpt>
      <trkpt lat="44.21307" lon="3.25881">
        <ele>854.2</ele>
        <time>2020-07-19T13:46:57Z</time>
      </trkpt>
      <trkpt lat="44.21307" lon="3.25879">
        <ele>854.3</ele>
        <time>2020-07-19T13:46:58Z</time>
      </trkpt>
      <trkpt lat="44.21308" lon="3.25874">
        <ele>854.3</ele>
        <time>2020-07-19T13:47:00Z</time>
      </trkpt>
      <trkpt lat="44.21309" lon="3.2587">
        <ele>854.4</ele>
        <time>2020-07-19T13:47:01Z</time>
      </trkpt>
      <trkpt lat="44.21311" lon="3.25865">
        <ele>854.5</ele>
        <time>2020-07-19T13:47:03Z</time>
      </trkpt>
      <trkpt lat="44.21313" lon="3.2586">
        <ele>854.5</ele>
        <time>2020-07-19T13:47:05Z</time>
      </trkpt>
      <trkpt lat="44.21314" lon="3.25856">
        <ele>854.6</ele>
        <time>2020-07-19T13:47:06Z</time>
      </trkpt>
      <trkpt lat="44.21315" lon="3.25852">
        <ele>854.6</ele>
        <time>2020-07-19T13:47:07Z</time>
      </trkpt>
      <trkpt lat="44.21316" lon="3.25846">
        <ele>854.7</ele>
        <time>2020-07-19T13:47:08Z</time>
      </trkpt>
      <trkpt lat="44.21317" lon="3.25843">
        <ele>854.7</ele>
        <time>2020-07-19T13:47:09Z</time>
      </trkpt>
      <trkpt lat="44.21319" lon="3.25835">
        <ele>854.8</ele>
        <time>2020-07-19T13:47:11Z</time>
      </trkpt>
      <trkpt lat="44.21321" lon="3.25829">
        <ele>854.8</ele>
        <time>2020-07-19T13:47:13Z</time>
      </trkpt>
      <trkpt lat="44.21322" lon="3.25823">
        <ele>854.9</ele>
        <time>2020-07-19T13:47:14Z</time>
      </trkpt>
      <trkpt lat="44.21324" lon="3.25818">
        <ele>854.9</ele>
        <time>2020-07-19T13:47:15Z</time>
      </trkpt>
      <trkpt lat="44.21326" lon="3.25811">
        <ele>854.9</ele>
        <time>2020-07-19T13:47:17Z</time>
      </trkpt>
      <trkpt lat="44.21328" lon="3.25806">
        <ele>854.8</ele>
        <time>2020-07-19T13:47:18Z</time>
      </trkpt>
      <trkpt lat="44.21329" lon="3.25802">
        <ele>854.8</ele>
        <time>2020-07-19T13:47:19Z</time>
      </trkpt>
      <trkpt lat="44.21333" lon="3.25794">
        <ele>854.8</ele>
        <time>2020-07-19T13:47:21Z</time>
      </trkpt>
      <trkpt lat="44.21335" lon="3.25788">
        <ele>854.7</ele>
        <time>2020-07-19T13:47:23Z</time>
      </trkpt>
      <trkpt lat="44.21337" lon="3.25779">
        <ele>854.6</ele>
        <time>2020-07-19T13:47:24Z</time>
      </trkpt>
      <trkpt lat="44.21338" lon="3.25773">
        <ele>854.6</ele>
        <time>2020-07-19T13:47:25Z</time>
      </trkpt>
      <trkpt lat="44.21337" lon="3.25769">
        <ele>854.5</ele>
        <time>2020-07-19T13:47:27Z</time>
      </trkpt>
      <trkpt lat="44.21337" lon="3.25764">
        <ele>854.5</ele>
        <time>2020-07-19T13:47:28Z</time>
      </trkpt>
      <trkpt lat="44.21334" lon="3.25761">
        <ele>854.5</ele>
        <time>2020-07-19T13:47:29Z</time>
      </trkpt>
      <trkpt lat="44.21331" lon="3.25757">
        <ele>854.6</ele>
        <time>2020-07-19T13:47:31Z</time>
      </trkpt>
      <trkpt lat="44.21327" lon="3.25754">
        <ele>854.7</ele>
        <time>2020-07-19T13:47:32Z</time>
      </trkpt>
      <trkpt lat="44.21324" lon="3.25751">
        <ele>854.9</ele>
        <time>2020-07-19T13:47:34Z</time>
      </trkpt>
      <trkpt lat="44.21322" lon="3.25749">
        <ele>855</ele>
        <time>2020-07-19T13:47:35Z</time>
      </trkpt>
      <trkpt lat="44.21319" lon="3.25745">
        <ele>855.3</ele>
        <time>2020-07-19T13:47:37Z</time>
      </trkpt>
      <trkpt lat="44.21317" lon="3.25742">
        <ele>855.7</ele>
        <time>2020-07-19T13:47:39Z</time>
      </trkpt>
      <trkpt lat="44.21315" lon="3.25739">
        <ele>856.2</ele>
        <time>2020-07-19T13:47:40Z</time>
      </trkpt>
      <trkpt lat="44.21312" lon="3.25737">
        <ele>856.8</ele>
        <time>2020-07-19T13:47:41Z</time>
      </trkpt>
      <trkpt lat="44.21311" lon="3.25736">
        <ele>856.9</ele>
        <time>2020-07-19T13:47:42Z</time>
      </trkpt>
      <trkpt lat="44.21309" lon="3.25734">
        <ele>857.4</ele>
        <time>2020-07-19T13:47:43Z</time>
      </trkpt>
      <trkpt lat="44.21308" lon="3.25732">
        <ele>857.5</ele>
        <time>2020-07-19T13:47:44Z</time>
      </trkpt>
      <trkpt lat="44.21306" lon="3.25728">
        <ele>858.1</ele>
        <time>2020-07-19T13:47:46Z</time>
      </trkpt>
      <trkpt lat="44.21306" lon="3.25726">
        <ele>858.3</ele>
        <time>2020-07-19T13:47:47Z</time>
      </trkpt>
      <trkpt lat="44.21304" lon="3.25722">
        <ele>858.7</ele>
        <time>2020-07-19T13:47:49Z</time>
      </trkpt>
      <trkpt lat="44.21304" lon="3.25718">
        <ele>859.1</ele>
        <time>2020-07-19T13:47:50Z</time>
      </trkpt>
      <trkpt lat="44.21304" lon="3.25715">
        <ele>859.4</ele>
        <time>2020-07-19T13:47:52Z</time>
      </trkpt>
      <trkpt lat="44.21304" lon="3.25709">
        <ele>859.9</ele>
        <time>2020-07-19T13:47:53Z</time>
      </trkpt>
      <trkpt lat="44.21303" lon="3.25707">
        <ele>860.1</ele>
        <time>2020-07-19T13:47:54Z</time>
      </trkpt>
      <trkpt lat="44.21303" lon="3.25704">
        <ele>860.4</ele>
        <time>2020-07-19T13:47:56Z</time>
      </trkpt>
      <trkpt lat="44.21303" lon="3.25701">
        <ele>860.7</ele>
        <time>2020-07-19T13:47:58Z</time>
      </trkpt>
      <trkpt lat="44.21302" lon="3.257">
        <ele>860.8</ele>
        <time>2020-07-19T13:47:59Z</time>
      </trkpt>
      <trkpt lat="44.21301" lon="3.25696">
        <ele>861.2</ele>
        <time>2020-07-19T13:48:01Z</time>
      </trkpt>
      <trkpt lat="44.21301" lon="3.25692">
        <ele>861.6</ele>
        <time>2020-07-19T13:48:03Z</time>
      </trkpt>
      <trkpt lat="44.21301" lon="3.25689">
        <ele>861.8</ele>
        <time>2020-07-19T13:48:04Z</time>
      </trkpt>
      <trkpt lat="44.21302" lon="3.25685">
        <ele>862.2</ele>
        <time>2020-07-19T13:48:06Z</time>
      </trkpt>
      <trkpt lat="44.21302" lon="3.2568">
        <ele>862.6</ele>
        <time>2020-07-19T13:48:08Z</time>
      </trkpt>
      <trkpt lat="44.21302" lon="3.25677">
        <ele>862.9</ele>
        <time>2020-07-19T13:48:10Z</time>
      </trkpt>
      <trkpt lat="44.21302" lon="3.25672">
        <ele>863.4</ele>
        <time>2020-07-19T13:48:12Z</time>
      </trkpt>
      <trkpt lat="44.21301" lon="3.2567">
        <ele>863.6</ele>
        <time>2020-07-19T13:48:13Z</time>
      </trkpt>
      <trkpt lat="44.21301" lon="3.25668">
        <ele>863.7</ele>
        <time>2020-07-19T13:48:14Z</time>
      </trkpt>
      <trkpt lat="44.21301" lon="3.25664">
        <ele>864</ele>
        <time>2020-07-19T13:48:16Z</time>
      </trkpt>
      <trkpt lat="44.21301" lon="3.25661">
        <ele>864.4</ele>
        <time>2020-07-19T13:48:18Z</time>
      </trkpt>
      <trkpt lat="44.21301" lon="3.25659">
        <ele>864.5</ele>
        <time>2020-07-19T13:48:20Z</time>
      </trkpt>
      <trkpt lat="44.21301" lon="3.25658">
        <ele>864.7</ele>
        <time>2020-07-19T13:48:21Z</time>
      </trkpt>
      <trkpt lat="44.213" lon="3.25656">
        <ele>864.9</ele>
        <time>2020-07-19T13:48:22Z</time>
      </trkpt>
      <trkpt lat="44.213" lon="3.25651">
        <ele>865.3</ele>
        <time>2020-07-19T13:48:24Z</time>
      </trkpt>
      <trkpt lat="44.213" lon="3.2565">
        <ele>865.4</ele>
        <time>2020-07-19T13:48:25Z</time>
      </trkpt>
      <trkpt lat="44.21299" lon="3.25646">
        <ele>865.9</ele>
        <time>2020-07-19T13:48:26Z</time>
      </trkpt>
      <trkpt lat="44.21299" lon="3.25644">
        <ele>866.1</ele>
        <time>2020-07-19T13:48:28Z</time>
      </trkpt>
      <trkpt lat="44.21298" lon="3.25642">
        <ele>866.3</ele>
        <time>2020-07-19T13:48:29Z</time>
      </trkpt>
      <trkpt lat="44.21297" lon="3.2564">
        <ele>866.4</ele>
        <time>2020-07-19T13:48:30Z</time>
      </trkpt>
      <trkpt lat="44.21296" lon="3.25636">
        <ele>866.8</ele>
        <time>2020-07-19T13:48:32Z</time>
      </trkpt>
      <trkpt lat="44.21295" lon="3.25634">
        <ele>867</ele>
        <time>2020-07-19T13:48:33Z</time>
      </trkpt>
      <trkpt lat="44.21294" lon="3.25632">
        <ele>867.2</ele>
        <time>2020-07-19T13:48:34Z</time>
      </trkpt>
      <trkpt lat="44.21293" lon="3.25629">
        <ele>867.5</ele>
        <time>2020-07-19T13:48:36Z</time>
      </trkpt>
      <trkpt lat="44.21292" lon="3.25627">
        <ele>867.8</ele>
        <time>2020-07-19T13:48:37Z</time>
      </trkpt>
      <trkpt lat="44.21291" lon="3.25625">
        <ele>868</ele>
        <time>2020-07-19T13:48:38Z</time>
      </trkpt>
      <trkpt lat="44.2129" lon="3.25624">
        <ele>868.1</ele>
        <time>2020-07-19T13:48:39Z</time>
      </trkpt>
      <trkpt lat="44.21289" lon="3.2562">
        <ele>868.5</ele>
        <time>2020-07-19T13:48:41Z</time>
      </trkpt>
      <trkpt lat="44.21288" lon="3.25619">
        <ele>868.6</ele>
        <time>2020-07-19T13:48:42Z</time>
      </trkpt>
      <trkpt lat="44.21286" lon="3.25616">
        <ele>869.1</ele>
        <time>2020-07-19T13:48:44Z</time>
      </trkpt>
      <trkpt lat="44.21284" lon="3.25614">
        <ele>869.4</ele>
        <time>2020-07-19T13:48:45Z</time>
      </trkpt>
      <trkpt lat="44.21283" lon="3.25612">
        <ele>869.7</ele>
        <time>2020-07-19T13:48:47Z</time>
      </trkpt>
      <trkpt lat="44.2128" lon="3.2561">
        <ele>870.2</ele>
        <time>2020-07-19T13:48:48Z</time>
      </trkpt>
      <trkpt lat="44.2128" lon="3.25609">
        <ele>870.3</ele>
        <time>2020-07-19T13:48:49Z</time>
      </trkpt>
      <trkpt lat="44.21278" lon="3.25608">
        <ele>870.6</ele>
        <time>2020-07-19T13:48:50Z</time>
      </trkpt>
      <trkpt lat="44.21276" lon="3.25607">
        <ele>871</ele>
        <time>2020-07-19T13:48:52Z</time>
      </trkpt>
      <trkpt lat="44.21273" lon="3.25605">
        <ele>871.5</ele>
        <time>2020-07-19T13:48:53Z</time>
      </trkpt>
      <trkpt lat="44.21272" lon="3.25605">
        <ele>871.6</ele>
        <time>2020-07-19T13:48:54Z</time>
      </trkpt>
      <trkpt lat="44.2127" lon="3.25605">
        <ele>872</ele>
        <time>2020-07-19T13:48:55Z</time>
      </trkpt>
      <trkpt lat="44.21269" lon="3.25606">
        <ele>872.2</ele>
        <time>2020-07-19T13:48:57Z</time>
      </trkpt>
      <trkpt lat="44.21268" lon="3.25607">
        <ele>872.5</ele>
        <time>2020-07-19T13:48:58Z</time>
      </trkpt>
      <trkpt lat="44.21267" lon="3.25608">
        <ele>872.5</ele>
        <time>2020-07-19T13:48:59Z</time>
      </trkpt>
      <trkpt lat="44.21268" lon="3.25609">
        <ele>872.7</ele>
        <time>2020-07-19T13:49:01Z</time>
      </trkpt>
      <trkpt lat="44.21268" lon="3.2561">
        <ele>872.9</ele>
        <time>2020-07-19T13:49:02Z</time>
      </trkpt>
      <trkpt lat="44.21268" lon="3.25611">
        <ele>873</ele>
        <time>2020-07-19T13:49:03Z</time>
      </trkpt>
      <trkpt lat="44.21268" lon="3.25612">
        <ele>873.1</ele>
        <time>2020-07-19T13:49:05Z</time>
      </trkpt>
      <trkpt lat="44.21268" lon="3.25614">
        <ele>876.6</ele>
        <time>2020-07-19T13:49:06Z</time>
      </trkpt>
      <trkpt lat="44.21267" lon="3.25615">
        <ele>876.7</ele>
        <time>2020-07-19T13:49:07Z</time>
      </trkpt>
      <trkpt lat="44.21267" lon="3.25617">
        <ele>876.8</ele>
        <time>2020-07-19T13:49:09Z</time>
      </trkpt>
      <trkpt lat="44.21267" lon="3.25618">
        <ele>876.9</ele>
        <time>2020-07-19T13:49:10Z</time>
      </trkpt>
      <trkpt lat="44.21266" lon="3.2562">
        <ele>877</ele>
        <time>2020-07-19T13:49:12Z</time>
      </trkpt>
      <trkpt lat="44.21266" lon="3.2562">
        <ele>877.1</ele>
        <time>2020-07-19T13:49:13Z</time>
      </trkpt>
      <trkpt lat="44.21265" lon="3.25622">
        <ele>877.2</ele>
        <time>2020-07-19T13:49:14Z</time>
      </trkpt>
      <trkpt lat="44.21265" lon="3.25623">
        <ele>877.3</ele>
        <time>2020-07-19T13:49:15Z</time>
      </trkpt>
      <trkpt lat="44.21265" lon="3.25625">
        <ele>877.4</ele>
        <time>2020-07-19T13:49:16Z</time>
      </trkpt>
      <trkpt lat="44.21265" lon="3.25626">
        <ele>877.5</ele>
        <time>2020-07-19T13:49:17Z</time>
      </trkpt>
      <trkpt lat="44.21264" lon="3.25629">
        <ele>877.7</ele>
        <time>2020-07-19T13:49:19Z</time>
      </trkpt>
      <trkpt lat="44.21264" lon="3.2563">
        <ele>877.8</ele>
        <time>2020-07-19T13:49:20Z</time>
      </trkpt>
      <trkpt lat="44.21264" lon="3.25631">
        <ele>877.8</ele>
        <time>2020-07-19T13:49:21Z</time>
      </trkpt>
      <trkpt lat="44.21264" lon="3.25633">
        <ele>878</ele>
        <time>2020-07-19T13:49:23Z</time>
      </trkpt>
      <trkpt lat="44.21263" lon="3.25636">
        <ele>878.1</ele>
        <time>2020-07-19T13:49:24Z</time>
      </trkpt>
      <trkpt lat="44.21263" lon="3.2564">
        <ele>878.3</ele>
        <time>2020-07-19T13:49:26Z</time>
      </trkpt>
      <trkpt lat="44.21263" lon="3.25642">
        <ele>878.4</ele>
        <time>2020-07-19T13:49:27Z</time>
      </trkpt>
      <trkpt lat="44.21261" lon="3.25646">
        <ele>878.6</ele>
        <time>2020-07-19T13:49:29Z</time>
      </trkpt>
      <trkpt lat="44.2126" lon="3.25648">
        <ele>878.8</ele>
        <time>2020-07-19T13:49:30Z</time>
      </trkpt>
      <trkpt lat="44.2126" lon="3.2565">
        <ele>878.8</ele>
        <time>2020-07-19T13:49:31Z</time>
      </trkpt>
      <trkpt lat="44.21258" lon="3.25653">
        <ele>879</ele>
        <time>2020-07-19T13:49:33Z</time>
      </trkpt>
      <trkpt lat="44.21257" lon="3.25656">
        <ele>879.2</ele>
        <time>2020-07-19T13:49:35Z</time>
      </trkpt>
      <trkpt lat="44.21256" lon="3.2566">
        <ele>879.4</ele>
        <time>2020-07-19T13:49:36Z</time>
      </trkpt>
      <trkpt lat="44.21256" lon="3.25661">
        <ele>879.5</ele>
        <time>2020-07-19T13:49:37Z</time>
      </trkpt>
      <trkpt lat="44.21255" lon="3.25663">
        <ele>879.6</ele>
        <time>2020-07-19T13:49:38Z</time>
      </trkpt>
      <trkpt lat="44.21255" lon="3.25665">
        <ele>879.7</ele>
        <time>2020-07-19T13:49:40Z</time>
      </trkpt>
      <trkpt lat="44.21254" lon="3.25667">
        <ele>879.8</ele>
        <time>2020-07-19T13:49:41Z</time>
      </trkpt>
      <trkpt lat="44.21253" lon="3.2567">
        <ele>880</ele>
        <time>2020-07-19T13:49:43Z</time>
      </trkpt>
      <trkpt lat="44.21253" lon="3.25672">
        <ele>880.2</ele>
        <time>2020-07-19T13:49:44Z</time>
      </trkpt>
      <trkpt lat="44.21253" lon="3.25674">
        <ele>880.3</ele>
        <time>2020-07-19T13:49:45Z</time>
      </trkpt>
      <trkpt lat="44.21252" lon="3.25676">
        <ele>880.5</ele>
        <time>2020-07-19T13:49:47Z</time>
      </trkpt>
      <trkpt lat="44.21251" lon="3.2568">
        <ele>880.7</ele>
        <time>2020-07-19T13:49:49Z</time>
      </trkpt>
      <trkpt lat="44.2125" lon="3.25681">
        <ele>880.8</ele>
        <time>2020-07-19T13:49:50Z</time>
      </trkpt>
      <trkpt lat="44.2125" lon="3.25682">
        <ele>880.9</ele>
        <time>2020-07-19T13:49:52Z</time>
      </trkpt>
      <trkpt lat="44.21249" lon="3.25684">
        <ele>881</ele>
        <time>2020-07-19T13:49:54Z</time>
      </trkpt>
      <trkpt lat="44.21248" lon="3.25685">
        <ele>881.2</ele>
        <time>2020-07-19T13:49:55Z</time>
      </trkpt>
      <trkpt lat="44.21247" lon="3.25687">
        <ele>881.4</ele>
        <time>2020-07-19T13:49:56Z</time>
      </trkpt>
      <trkpt lat="44.21245" lon="3.25691">
        <ele>881.6</ele>
        <time>2020-07-19T13:49:57Z</time>
      </trkpt>
      <trkpt lat="44.21244" lon="3.25692">
        <ele>881.8</ele>
        <time>2020-07-19T13:49:59Z</time>
      </trkpt>
      <trkpt lat="44.21243" lon="3.25694">
        <ele>881.9</ele>
        <time>2020-07-19T13:50:00Z</time>
      </trkpt>
      <trkpt lat="44.21242" lon="3.25695">
        <ele>882</ele>
        <time>2020-07-19T13:50:01Z</time>
      </trkpt>
      <trkpt lat="44.2124" lon="3.25699">
        <ele>882.3</ele>
        <time>2020-07-19T13:50:03Z</time>
      </trkpt>
      <trkpt lat="44.21239" lon="3.257">
        <ele>882.4</ele>
        <time>2020-07-19T13:50:04Z</time>
      </trkpt>
      <trkpt lat="44.21239" lon="3.25701">
        <ele>882.6</ele>
        <time>2020-07-19T13:50:05Z</time>
      </trkpt>
      <trkpt lat="44.21238" lon="3.25702">
        <ele>882.6</ele>
        <time>2020-07-19T13:50:06Z</time>
      </trkpt>
      <trkpt lat="44.21239" lon="3.25702">
        <ele>882.7</ele>
        <time>2020-07-19T13:50:08Z</time>
      </trkpt>
      <trkpt lat="44.21239" lon="3.25702">
        <ele>882.7</ele>
        <time>2020-07-19T13:50:09Z</time>
      </trkpt>
      <trkpt lat="44.21239" lon="3.25702">
        <ele>882.7</ele>
        <time>2020-07-19T13:50:11Z</time>
      </trkpt>
      <trkpt lat="44.21239" lon="3.25703">
        <ele>882.8</ele>
        <time>2020-07-19T13:50:13Z</time>
      </trkpt>
      <trkpt lat="44.21238" lon="3.25704">
        <ele>882.8</ele>
        <time>2020-07-19T13:50:15Z</time>
      </trkpt>
      <trkpt lat="44.21236" lon="3.25706">
        <ele>883.1</ele>
        <time>2020-07-19T13:51:01Z</time>
      </trkpt>
      <trkpt lat="44.21235" lon="3.25708">
        <ele>883.3</ele>
        <time>2020-07-19T13:51:03Z</time>
      </trkpt>
      <trkpt lat="44.21235" lon="3.2571">
        <ele>883.4</ele>
        <time>2020-07-19T13:51:04Z</time>
      </trkpt>
      <trkpt lat="44.21234" lon="3.25712">
        <ele>883.5</ele>
        <time>2020-07-19T13:51:05Z</time>
      </trkpt>
      <trkpt lat="44.21235" lon="3.25713">
        <ele>883.6</ele>
        <time>2020-07-19T13:51:06Z</time>
      </trkpt>
      <trkpt lat="44.21235" lon="3.25714">
        <ele>883.6</ele>
        <time>2020-07-19T13:51:07Z</time>
      </trkpt>
      <trkpt lat="44.21235" lon="3.25715">
        <ele>883.7</ele>
        <time>2020-07-19T13:51:09Z</time>
      </trkpt>
      <trkpt lat="44.21235" lon="3.25715">
        <ele>883.7</ele>
        <time>2020-07-19T13:51:10Z</time>
      </trkpt>
      <trkpt lat="44.21235" lon="3.25719">
        <ele>883.9</ele>
        <time>2020-07-19T13:51:11Z</time>
      </trkpt>
      <trkpt lat="44.21234" lon="3.25722">
        <ele>884.1</ele>
        <time>2020-07-19T13:51:13Z</time>
      </trkpt>
      <trkpt lat="44.21232" lon="3.25726">
        <ele>884.2</ele>
        <time>2020-07-19T13:51:14Z</time>
      </trkpt>
      <trkpt lat="44.21231" lon="3.25728">
        <ele>884.3</ele>
        <time>2020-07-19T13:51:15Z</time>
      </trkpt>
      <trkpt lat="44.2123" lon="3.2573">
        <ele>884.4</ele>
        <time>2020-07-19T13:51:16Z</time>
      </trkpt>
      <trkpt lat="44.21227" lon="3.25736">
        <ele>884.6</ele>
        <time>2020-07-19T13:51:18Z</time>
      </trkpt>
      <trkpt lat="44.21226" lon="3.25737">
        <ele>884.7</ele>
        <time>2020-07-19T13:51:20Z</time>
      </trkpt>
      <trkpt lat="44.21224" lon="3.25739">
        <ele>884.8</ele>
        <time>2020-07-19T13:51:21Z</time>
      </trkpt>
      <trkpt lat="44.21223" lon="3.25741">
        <ele>884.8</ele>
        <time>2020-07-19T13:51:22Z</time>
      </trkpt>
      <trkpt lat="44.21221" lon="3.25743">
        <ele>884.9</ele>
        <time>2020-07-19T13:51:24Z</time>
      </trkpt>
      <trkpt lat="44.21219" lon="3.25745">
        <ele>884.9</ele>
        <time>2020-07-19T13:51:26Z</time>
      </trkpt>
      <trkpt lat="44.21217" lon="3.25746">
        <ele>885</ele>
        <time>2020-07-19T13:51:27Z</time>
      </trkpt>
      <trkpt lat="44.21216" lon="3.25747">
        <ele>885</ele>
        <time>2020-07-19T13:51:28Z</time>
      </trkpt>
      <trkpt lat="44.21214" lon="3.25747">
        <ele>885.1</ele>
        <time>2020-07-19T13:51:29Z</time>
      </trkpt>
      <trkpt lat="44.21213" lon="3.25747">
        <ele>885.1</ele>
        <time>2020-07-19T13:51:30Z</time>
      </trkpt>
      <trkpt lat="44.21211" lon="3.25746">
        <ele>885.1</ele>
        <time>2020-07-19T13:51:31Z</time>
      </trkpt>
      <trkpt lat="44.21209" lon="3.25746">
        <ele>885.2</ele>
        <time>2020-07-19T13:51:33Z</time>
      </trkpt>
      <trkpt lat="44.21206" lon="3.25747">
        <ele>885.3</ele>
        <time>2020-07-19T13:51:34Z</time>
      </trkpt>
      <trkpt lat="44.21205" lon="3.25747">
        <ele>885.3</ele>
        <time>2020-07-19T13:51:35Z</time>
      </trkpt>
      <trkpt lat="44.21202" lon="3.25745">
        <ele>885.4</ele>
        <time>2020-07-19T13:51:37Z</time>
      </trkpt>
      <trkpt lat="44.21199" lon="3.25745">
        <ele>885.5</ele>
        <time>2020-07-19T13:51:38Z</time>
      </trkpt>
      <trkpt lat="44.21194" lon="3.25744">
        <ele>885.7</ele>
        <time>2020-07-19T13:51:40Z</time>
      </trkpt>
      <trkpt lat="44.21192" lon="3.25744">
        <ele>885.8</ele>
        <time>2020-07-19T13:51:41Z</time>
      </trkpt>
      <trkpt lat="44.21189" lon="3.25744">
        <ele>885.9</ele>
        <time>2020-07-19T13:51:43Z</time>
      </trkpt>
      <trkpt lat="44.21186" lon="3.25743">
        <ele>886</ele>
        <time>2020-07-19T13:51:44Z</time>
      </trkpt>
      <trkpt lat="44.21183" lon="3.25742">
        <ele>886.1</ele>
        <time>2020-07-19T13:51:46Z</time>
      </trkpt>
      <trkpt lat="44.2118" lon="3.25742">
        <ele>886.2</ele>
        <time>2020-07-19T13:51:47Z</time>
      </trkpt>
      <trkpt lat="44.21179" lon="3.25742">
        <ele>886.2</ele>
        <time>2020-07-19T13:51:48Z</time>
      </trkpt>
      <trkpt lat="44.21177" lon="3.25742">
        <ele>886.2</ele>
        <time>2020-07-19T13:51:49Z</time>
      </trkpt>
      <trkpt lat="44.21174" lon="3.25742">
        <ele>886.3</ele>
        <time>2020-07-19T13:51:51Z</time>
      </trkpt>
      <trkpt lat="44.21173" lon="3.25742">
        <ele>886.3</ele>
        <time>2020-07-19T13:51:52Z</time>
      </trkpt>
      <trkpt lat="44.21171" lon="3.2574">
        <ele>886.3</ele>
        <time>2020-07-19T13:51:53Z</time>
      </trkpt>
      <trkpt lat="44.21169" lon="3.25738">
        <ele>886.3</ele>
        <time>2020-07-19T13:51:54Z</time>
      </trkpt>
      <trkpt lat="44.21167" lon="3.25735">
        <ele>886.3</ele>
        <time>2020-07-19T13:51:56Z</time>
      </trkpt>
      <trkpt lat="44.21164" lon="3.25734">
        <ele>886.2</ele>
        <time>2020-07-19T13:51:57Z</time>
      </trkpt>
      <trkpt lat="44.21163" lon="3.25733">
        <ele>886.2</ele>
        <time>2020-07-19T13:51:58Z</time>
      </trkpt>
      <trkpt lat="44.21161" lon="3.25729">
        <ele>886.2</ele>
        <time>2020-07-19T13:52:00Z</time>
      </trkpt>
      <trkpt lat="44.21157" lon="3.25725">
        <ele>886.2</ele>
        <time>2020-07-19T13:52:02Z</time>
      </trkpt>
      <trkpt lat="44.21156" lon="3.25722">
        <ele>886.1</ele>
        <time>2020-07-19T13:52:03Z</time>
      </trkpt>
      <trkpt lat="44.21152" lon="3.25715">
        <ele>886</ele>
        <time>2020-07-19T13:52:05Z</time>
      </trkpt>
      <trkpt lat="44.21151" lon="3.25711">
        <ele>885.9</ele>
        <time>2020-07-19T13:52:06Z</time>
      </trkpt>
      <trkpt lat="44.21151" lon="3.25707">
        <ele>885.8</ele>
        <time>2020-07-19T13:52:07Z</time>
      </trkpt>
      <trkpt lat="44.2115" lon="3.25702">
        <ele>885.7</ele>
        <time>2020-07-19T13:52:09Z</time>
      </trkpt>
      <trkpt lat="44.21148" lon="3.25698">
        <ele>885.5</ele>
        <time>2020-07-19T13:52:10Z</time>
      </trkpt>
      <trkpt lat="44.21145" lon="3.25691">
        <ele>885.2</ele>
        <time>2020-07-19T13:52:11Z</time>
      </trkpt>
      <trkpt lat="44.21144" lon="3.25685">
        <ele>885</ele>
        <time>2020-07-19T13:52:13Z</time>
      </trkpt>
      <trkpt lat="44.21143" lon="3.25677">
        <ele>884.8</ele>
        <time>2020-07-19T13:52:14Z</time>
      </trkpt>
      <trkpt lat="44.21142" lon="3.25668">
        <ele>884.7</ele>
        <time>2020-07-19T13:52:16Z</time>
      </trkpt>
      <trkpt lat="44.21142" lon="3.2566">
        <ele>884.6</ele>
        <time>2020-07-19T13:52:17Z</time>
      </trkpt>
      <trkpt lat="44.21142" lon="3.25652">
        <ele>884.6</ele>
        <time>2020-07-19T13:52:18Z</time>
      </trkpt>
      <trkpt lat="44.21142" lon="3.25646">
        <ele>884.6</ele>
        <time>2020-07-19T13:52:20Z</time>
      </trkpt>
      <trkpt lat="44.21142" lon="3.2564">
        <ele>884.6</ele>
        <time>2020-07-19T13:52:21Z</time>
      </trkpt>
      <trkpt lat="44.21143" lon="3.25635">
        <ele>884.7</ele>
        <time>2020-07-19T13:52:23Z</time>
      </trkpt>
      <trkpt lat="44.21144" lon="3.2563">
        <ele>884.6</ele>
        <time>2020-07-19T13:52:24Z</time>
      </trkpt>
      <trkpt lat="44.21145" lon="3.25625">
        <ele>884.6</ele>
        <time>2020-07-19T13:52:26Z</time>
      </trkpt>
      <trkpt lat="44.21147" lon="3.25619">
        <ele>884.5</ele>
        <time>2020-07-19T13:52:27Z</time>
      </trkpt>
      <trkpt lat="44.21149" lon="3.25614">
        <ele>884.4</ele>
        <time>2020-07-19T13:52:28Z</time>
      </trkpt>
      <trkpt lat="44.21151" lon="3.25608">
        <ele>884.3</ele>
        <time>2020-07-19T13:52:30Z</time>
      </trkpt>
      <trkpt lat="44.21152" lon="3.25602">
        <ele>884.1</ele>
        <time>2020-07-19T13:52:31Z</time>
      </trkpt>
      <trkpt lat="44.21153" lon="3.25598">
        <ele>883.9</ele>
        <time>2020-07-19T13:52:32Z</time>
      </trkpt>
      <trkpt lat="44.21155" lon="3.2559">
        <ele>883.6</ele>
        <time>2020-07-19T13:52:34Z</time>
      </trkpt>
      <trkpt lat="44.21157" lon="3.25581">
        <ele>883.1</ele>
        <time>2020-07-19T13:52:35Z</time>
      </trkpt>
      <trkpt lat="44.21158" lon="3.25574">
        <ele>882.8</ele>
        <time>2020-07-19T13:52:36Z</time>
      </trkpt>
      <trkpt lat="44.21161" lon="3.25562">
        <ele>882.5</ele>
        <time>2020-07-19T13:52:38Z</time>
      </trkpt>
      <trkpt lat="44.21161" lon="3.25557">
        <ele>882.4</ele>
        <time>2020-07-19T13:52:39Z</time>
      </trkpt>
      <trkpt lat="44.21163" lon="3.25546">
        <ele>882.4</ele>
        <time>2020-07-19T13:52:41Z</time>
      </trkpt>
      <trkpt lat="44.21165" lon="3.25537">
        <ele>882.4</ele>
        <time>2020-07-19T13:52:43Z</time>
      </trkpt>
      <trkpt lat="44.21165" lon="3.2553">
        <ele>882.4</ele>
        <time>2020-07-19T13:52:44Z</time>
      </trkpt>
      <trkpt lat="44.21165" lon="3.25522">
        <ele>882.6</ele>
        <time>2020-07-19T13:52:45Z</time>
      </trkpt>
      <trkpt lat="44.21163" lon="3.25515">
        <ele>882.7</ele>
        <time>2020-07-19T13:52:47Z</time>
      </trkpt>
      <trkpt lat="44.21162" lon="3.2551">
        <ele>882.9</ele>
        <time>2020-07-19T13:52:48Z</time>
      </trkpt>
      <trkpt lat="44.21161" lon="3.25506">
        <ele>883.1</ele>
        <time>2020-07-19T13:52:49Z</time>
      </trkpt>
      <trkpt lat="44.2116" lon="3.25505">
        <ele>883.1</ele>
        <time>2020-07-19T13:52:50Z</time>
      </trkpt>
      <trkpt lat="44.21159" lon="3.25503">
        <ele>883.3</ele>
        <time>2020-07-19T13:52:52Z</time>
      </trkpt>
      <trkpt lat="44.21157" lon="3.25502">
        <ele>883.4</ele>
        <time>2020-07-19T13:52:53Z</time>
      </trkpt>
      <trkpt lat="44.21154" lon="3.25503">
        <ele>883.7</ele>
        <time>2020-07-19T13:52:55Z</time>
      </trkpt>
      <trkpt lat="44.21152" lon="3.25503">
        <ele>883.8</ele>
        <time>2020-07-19T13:52:56Z</time>
      </trkpt>
      <trkpt lat="44.2115" lon="3.25503">
        <ele>884.1</ele>
        <time>2020-07-19T13:52:57Z</time>
      </trkpt>
      <trkpt lat="44.21149" lon="3.25503">
        <ele>884.2</ele>
        <time>2020-07-19T13:52:58Z</time>
      </trkpt>
      <trkpt lat="44.21145" lon="3.25502">
        <ele>884.6</ele>
        <time>2020-07-19T13:53:00Z</time>
      </trkpt>
      <trkpt lat="44.21144" lon="3.25502">
        <ele>884.7</ele>
        <time>2020-07-19T13:53:01Z</time>
      </trkpt>
      <trkpt lat="44.21142" lon="3.25502">
        <ele>884.9</ele>
        <time>2020-07-19T13:53:02Z</time>
      </trkpt>
      <trkpt lat="44.21141" lon="3.25502">
        <ele>885</ele>
        <time>2020-07-19T13:53:03Z</time>
      </trkpt>
      <trkpt lat="44.21138" lon="3.25502">
        <ele>885.3</ele>
        <time>2020-07-19T13:53:04Z</time>
      </trkpt>
      <trkpt lat="44.21137" lon="3.25502">
        <ele>885.4</ele>
        <time>2020-07-19T13:53:05Z</time>
      </trkpt>
      <trkpt lat="44.21133" lon="3.25501">
        <ele>885.7</ele>
        <time>2020-07-19T13:53:07Z</time>
      </trkpt>
      <trkpt lat="44.21133" lon="3.25501">
        <ele>885.8</ele>
        <time>2020-07-19T13:53:08Z</time>
      </trkpt>
      <trkpt lat="44.21131" lon="3.25501">
        <ele>885.9</ele>
        <time>2020-07-19T13:53:09Z</time>
      </trkpt>
      <trkpt lat="44.21129" lon="3.255">
        <ele>886.2</ele>
        <time>2020-07-19T13:53:11Z</time>
      </trkpt>
      <trkpt lat="44.21125" lon="3.25498">
        <ele>886.4</ele>
        <time>2020-07-19T13:53:12Z</time>
      </trkpt>
      <trkpt lat="44.21124" lon="3.25497">
        <ele>886.5</ele>
        <time>2020-07-19T13:53:13Z</time>
      </trkpt>
      <trkpt lat="44.21123" lon="3.25496">
        <ele>886.6</ele>
        <time>2020-07-19T13:53:14Z</time>
      </trkpt>
      <trkpt lat="44.21121" lon="3.25495">
        <ele>886.8</ele>
        <time>2020-07-19T13:53:16Z</time>
      </trkpt>
      <trkpt lat="44.2112" lon="3.25494">
        <ele>886.9</ele>
        <time>2020-07-19T13:53:17Z</time>
      </trkpt>
      <trkpt lat="44.21118" lon="3.25491">
        <ele>887.2</ele>
        <time>2020-07-19T13:53:19Z</time>
      </trkpt>
      <trkpt lat="44.21118" lon="3.25488">
        <ele>887.3</ele>
        <time>2020-07-19T13:53:20Z</time>
      </trkpt>
      <trkpt lat="44.21118" lon="3.25486">
        <ele>887.5</ele>
        <time>2020-07-19T13:53:22Z</time>
      </trkpt>
      <trkpt lat="44.21118" lon="3.25484">
        <ele>887.6</ele>
        <time>2020-07-19T13:53:23Z</time>
      </trkpt>
      <trkpt lat="44.21118" lon="3.25481">
        <ele>887.8</ele>
        <time>2020-07-19T13:53:25Z</time>
      </trkpt>
      <trkpt lat="44.21118" lon="3.25479">
        <ele>888</ele>
        <time>2020-07-19T13:53:27Z</time>
      </trkpt>
      <trkpt lat="44.21117" lon="3.25478">
        <ele>888</ele>
        <time>2020-07-19T13:53:28Z</time>
      </trkpt>
      <trkpt lat="44.21118" lon="3.25475">
        <ele>888.3</ele>
        <time>2020-07-19T13:53:30Z</time>
      </trkpt>
      <trkpt lat="44.21117" lon="3.25474">
        <ele>888.4</ele>
        <time>2020-07-19T13:53:31Z</time>
      </trkpt>
      <trkpt lat="44.21117" lon="3.25472">
        <ele>888.5</ele>
        <time>2020-07-19T13:53:32Z</time>
      </trkpt>
      <trkpt lat="44.21117" lon="3.25468">
        <ele>888.8</ele>
        <time>2020-07-19T13:53:34Z</time>
      </trkpt>
      <trkpt lat="44.21117" lon="3.25465">
        <ele>889</ele>
        <time>2020-07-19T13:53:35Z</time>
      </trkpt>
      <trkpt lat="44.21118" lon="3.25463">
        <ele>889.1</ele>
        <time>2020-07-19T13:53:36Z</time>
      </trkpt>
      <trkpt lat="44.21118" lon="3.25459">
        <ele>889.4</ele>
        <time>2020-07-19T13:53:38Z</time>
      </trkpt>
      <trkpt lat="44.21118" lon="3.25457">
        <ele>889.6</ele>
        <time>2020-07-19T13:53:39Z</time>
      </trkpt>
      <trkpt lat="44.21119" lon="3.25452">
        <ele>889.9</ele>
        <time>2020-07-19T13:53:40Z</time>
      </trkpt>
      <trkpt lat="44.21119" lon="3.2545">
        <ele>890</ele>
        <time>2020-07-19T13:53:41Z</time>
      </trkpt>
      <trkpt lat="44.21118" lon="3.25447">
        <ele>890.1</ele>
        <time>2020-07-19T13:53:42Z</time>
      </trkpt>
      <trkpt lat="44.21118" lon="3.25441">
        <ele>890.5</ele>
        <time>2020-07-19T13:53:44Z</time>
      </trkpt>
      <trkpt lat="44.21118" lon="3.25435">
        <ele>890.8</ele>
        <time>2020-07-19T13:53:45Z</time>
      </trkpt>
      <trkpt lat="44.21118" lon="3.25431">
        <ele>891</ele>
        <time>2020-07-19T13:53:46Z</time>
      </trkpt>
      <trkpt lat="44.21117" lon="3.25424">
        <ele>891.3</ele>
        <time>2020-07-19T13:53:48Z</time>
      </trkpt>
      <trkpt lat="44.21118" lon="3.25421">
        <ele>891.4</ele>
        <time>2020-07-19T13:53:49Z</time>
      </trkpt>
      <trkpt lat="44.21118" lon="3.25418">
        <ele>891.6</ele>
        <time>2020-07-19T13:53:51Z</time>
      </trkpt>
      <trkpt lat="44.21118" lon="3.25413">
        <ele>891.8</ele>
        <time>2020-07-19T13:53:52Z</time>
      </trkpt>
      <trkpt lat="44.21118" lon="3.25411">
        <ele>891.9</ele>
        <time>2020-07-19T13:53:53Z</time>
      </trkpt>
      <trkpt lat="44.21119" lon="3.25408">
        <ele>892.1</ele>
        <time>2020-07-19T13:53:54Z</time>
      </trkpt>
      <trkpt lat="44.21119" lon="3.25406">
        <ele>892.2</ele>
        <time>2020-07-19T13:53:55Z</time>
      </trkpt>
      <trkpt lat="44.2112" lon="3.25404">
        <ele>892.3</ele>
        <time>2020-07-19T13:53:56Z</time>
      </trkpt>
      <trkpt lat="44.2112" lon="3.25402">
        <ele>892.4</ele>
        <time>2020-07-19T13:53:57Z</time>
      </trkpt>
      <trkpt lat="44.21121" lon="3.254">
        <ele>892.6</ele>
        <time>2020-07-19T13:53:59Z</time>
      </trkpt>
      <trkpt lat="44.21121" lon="3.25398">
        <ele>892.7</ele>
        <time>2020-07-19T13:54:00Z</time>
      </trkpt>
      <trkpt lat="44.21122" lon="3.25396">
        <ele>892.9</ele>
        <time>2020-07-19T13:54:01Z</time>
      </trkpt>
      <trkpt lat="44.21123" lon="3.25393">
        <ele>893.1</ele>
        <time>2020-07-19T13:54:03Z</time>
      </trkpt>
      <trkpt lat="44.21124" lon="3.25388">
        <ele>893.5</ele>
        <time>2020-07-19T13:54:04Z</time>
      </trkpt>
      <trkpt lat="44.21124" lon="3.25386">
        <ele>893.6</ele>
        <time>2020-07-19T13:54:05Z</time>
      </trkpt>
      <trkpt lat="44.21124" lon="3.25381">
        <ele>894</ele>
        <time>2020-07-19T13:54:07Z</time>
      </trkpt>
      <trkpt lat="44.21124" lon="3.25378">
        <ele>894.3</ele>
        <time>2020-07-19T13:54:08Z</time>
      </trkpt>
      <trkpt lat="44.21124" lon="3.25374">
        <ele>894.5</ele>
        <time>2020-07-19T13:54:10Z</time>
      </trkpt>
      <trkpt lat="44.21125" lon="3.25371">
        <ele>894.7</ele>
        <time>2020-07-19T13:54:11Z</time>
      </trkpt>
      <trkpt lat="44.21126" lon="3.25365">
        <ele>895.1</ele>
        <time>2020-07-19T13:54:13Z</time>
      </trkpt>
      <trkpt lat="44.21126" lon="3.25362">
        <ele>895.2</ele>
        <time>2020-07-19T13:54:14Z</time>
      </trkpt>
      <trkpt lat="44.21126" lon="3.25356">
        <ele>895.4</ele>
        <time>2020-07-19T13:54:16Z</time>
      </trkpt>
      <trkpt lat="44.21127" lon="3.25353">
        <ele>895.6</ele>
        <time>2020-07-19T13:54:17Z</time>
      </trkpt>
      <trkpt lat="44.21127" lon="3.25351">
        <ele>895.7</ele>
        <time>2020-07-19T13:54:19Z</time>
      </trkpt>
      <trkpt lat="44.21128" lon="3.25345">
        <ele>895.9</ele>
        <time>2020-07-19T13:54:20Z</time>
      </trkpt>
      <trkpt lat="44.21128" lon="3.25343">
        <ele>896</ele>
        <time>2020-07-19T13:54:21Z</time>
      </trkpt>
      <trkpt lat="44.21129" lon="3.25338">
        <ele>896.2</ele>
        <time>2020-07-19T13:54:23Z</time>
      </trkpt>
      <trkpt lat="44.21129" lon="3.25334">
        <ele>896.4</ele>
        <time>2020-07-19T13:54:24Z</time>
      </trkpt>
      <trkpt lat="44.21129" lon="3.25332">
        <ele>896.5</ele>
        <time>2020-07-19T13:54:25Z</time>
      </trkpt>
      <trkpt lat="44.21129" lon="3.25329">
        <ele>896.6</ele>
        <time>2020-07-19T13:54:27Z</time>
      </trkpt>
      <trkpt lat="44.2113" lon="3.25323">
        <ele>896.8</ele>
        <time>2020-07-19T13:54:29Z</time>
      </trkpt>
      <trkpt lat="44.21131" lon="3.2532">
        <ele>896.9</ele>
        <time>2020-07-19T13:54:30Z</time>
      </trkpt>
      <trkpt lat="44.21131" lon="3.25317">
        <ele>897.1</ele>
        <time>2020-07-19T13:54:32Z</time>
      </trkpt>
      <trkpt lat="44.21132" lon="3.25313">
        <ele>897.2</ele>
        <time>2020-07-19T13:54:33Z</time>
      </trkpt>
      <trkpt lat="44.21132" lon="3.25311">
        <ele>897.3</ele>
        <time>2020-07-19T13:54:34Z</time>
      </trkpt>
      <trkpt lat="44.21134" lon="3.25306">
        <ele>897.5</ele>
        <time>2020-07-19T13:54:36Z</time>
      </trkpt>
      <trkpt lat="44.21134" lon="3.25304">
        <ele>897.5</ele>
        <time>2020-07-19T13:54:37Z</time>
      </trkpt>
      <trkpt lat="44.21135" lon="3.25302">
        <ele>897.6</ele>
        <time>2020-07-19T13:54:38Z</time>
      </trkpt>
      <trkpt lat="44.21135" lon="3.25298">
        <ele>897.8</ele>
        <time>2020-07-19T13:54:39Z</time>
      </trkpt>
      <trkpt lat="44.21135" lon="3.25296">
        <ele>897.9</ele>
        <time>2020-07-19T13:54:40Z</time>
      </trkpt>
      <trkpt lat="44.21136" lon="3.25293">
        <ele>898.1</ele>
        <time>2020-07-19T13:54:41Z</time>
      </trkpt>
      <trkpt lat="44.21136" lon="3.25288">
        <ele>898.3</ele>
        <time>2020-07-19T13:54:43Z</time>
      </trkpt>
      <trkpt lat="44.21137" lon="3.25281">
        <ele>898.7</ele>
        <time>2020-07-19T13:54:45Z</time>
      </trkpt>
      <trkpt lat="44.21138" lon="3.25278">
        <ele>898.8</ele>
        <time>2020-07-19T13:54:47Z</time>
      </trkpt>
      <trkpt lat="44.21138" lon="3.25276">
        <ele>898.9</ele>
        <time>2020-07-19T13:54:48Z</time>
      </trkpt>
      <trkpt lat="44.21138" lon="3.25273">
        <ele>899.1</ele>
        <time>2020-07-19T13:54:49Z</time>
      </trkpt>
      <trkpt lat="44.2114" lon="3.25269">
        <ele>899.3</ele>
        <time>2020-07-19T13:54:51Z</time>
      </trkpt>
      <trkpt lat="44.21141" lon="3.25264">
        <ele>899.5</ele>
        <time>2020-07-19T13:54:53Z</time>
      </trkpt>
      <trkpt lat="44.21141" lon="3.25259">
        <ele>899.7</ele>
        <time>2020-07-19T13:54:55Z</time>
      </trkpt>
      <trkpt lat="44.21141" lon="3.25257">
        <ele>899.8</ele>
        <time>2020-07-19T13:54:56Z</time>
      </trkpt>
      <trkpt lat="44.21142" lon="3.25252">
        <ele>900</ele>
        <time>2020-07-19T13:54:58Z</time>
      </trkpt>
      <trkpt lat="44.21143" lon="3.25246">
        <ele>900.3</ele>
        <time>2020-07-19T13:55:00Z</time>
      </trkpt>
      <trkpt lat="44.21143" lon="3.25244">
        <ele>900.4</ele>
        <time>2020-07-19T13:55:01Z</time>
      </trkpt>
      <trkpt lat="44.21144" lon="3.25242">
        <ele>900.5</ele>
        <time>2020-07-19T13:55:02Z</time>
      </trkpt>
      <trkpt lat="44.21145" lon="3.25237">
        <ele>900.8</ele>
        <time>2020-07-19T13:55:03Z</time>
      </trkpt>
      <trkpt lat="44.21145" lon="3.25235">
        <ele>900.9</ele>
        <time>2020-07-19T13:55:04Z</time>
      </trkpt>
      <trkpt lat="44.21145" lon="3.25229">
        <ele>901.3</ele>
        <time>2020-07-19T13:55:06Z</time>
      </trkpt>
      <trkpt lat="44.21146" lon="3.25227">
        <ele>901.4</ele>
        <time>2020-07-19T13:55:07Z</time>
      </trkpt>
      <trkpt lat="44.21146" lon="3.25225">
        <ele>901.5</ele>
        <time>2020-07-19T13:55:08Z</time>
      </trkpt>
      <trkpt lat="44.21147" lon="3.25221">
        <ele>901.7</ele>
        <time>2020-07-19T13:55:10Z</time>
      </trkpt>
      <trkpt lat="44.21147" lon="3.2522">
        <ele>901.8</ele>
        <time>2020-07-19T13:55:11Z</time>
      </trkpt>
      <trkpt lat="44.21147" lon="3.25215">
        <ele>902.1</ele>
        <time>2020-07-19T13:55:13Z</time>
      </trkpt>
      <trkpt lat="44.21147" lon="3.2521">
        <ele>902.4</ele>
        <time>2020-07-19T13:55:15Z</time>
      </trkpt>
      <trkpt lat="44.21147" lon="3.25209">
        <ele>902.4</ele>
        <time>2020-07-19T13:55:16Z</time>
      </trkpt>
      <trkpt lat="44.21147" lon="3.25207">
        <ele>902.6</ele>
        <time>2020-07-19T13:55:17Z</time>
      </trkpt>
      <trkpt lat="44.21147" lon="3.25205">
        <ele>902.7</ele>
        <time>2020-07-19T13:55:18Z</time>
      </trkpt>
      <trkpt lat="44.21147" lon="3.25201">
        <ele>902.9</ele>
        <time>2020-07-19T13:55:20Z</time>
      </trkpt>
      <trkpt lat="44.21147" lon="3.25199">
        <ele>903</ele>
        <time>2020-07-19T13:55:21Z</time>
      </trkpt>
      <trkpt lat="44.21147" lon="3.25196">
        <ele>903.2</ele>
        <time>2020-07-19T13:55:22Z</time>
      </trkpt>
      <trkpt lat="44.21147" lon="3.25192">
        <ele>903.4</ele>
        <time>2020-07-19T13:55:24Z</time>
      </trkpt>
      <trkpt lat="44.21148" lon="3.25188">
        <ele>903.6</ele>
        <time>2020-07-19T13:55:25Z</time>
      </trkpt>
      <trkpt lat="44.21148" lon="3.25186">
        <ele>903.7</ele>
        <time>2020-07-19T13:55:26Z</time>
      </trkpt>
      <trkpt lat="44.21148" lon="3.25182">
        <ele>904</ele>
        <time>2020-07-19T13:55:28Z</time>
      </trkpt>
      <trkpt lat="44.21148" lon="3.25179">
        <ele>904.2</ele>
        <time>2020-07-19T13:55:29Z</time>
      </trkpt>
      <trkpt lat="44.21148" lon="3.25175">
        <ele>904.4</ele>
        <time>2020-07-19T13:55:31Z</time>
      </trkpt>
      <trkpt lat="44.21148" lon="3.25171">
        <ele>904.6</ele>
        <time>2020-07-19T13:55:32Z</time>
      </trkpt>
      <trkpt lat="44.21148" lon="3.25169">
        <ele>904.8</ele>
        <time>2020-07-19T13:55:34Z</time>
      </trkpt>
      <trkpt lat="44.21148" lon="3.25166">
        <ele>905</ele>
        <time>2020-07-19T13:55:35Z</time>
      </trkpt>
      <trkpt lat="44.21148" lon="3.25162">
        <ele>905.2</ele>
        <time>2020-07-19T13:55:37Z</time>
      </trkpt>
      <trkpt lat="44.21147" lon="3.25159">
        <ele>905.4</ele>
        <time>2020-07-19T13:55:38Z</time>
      </trkpt>
      <trkpt lat="44.21147" lon="3.25154">
        <ele>905.6</ele>
        <time>2020-07-19T13:55:40Z</time>
      </trkpt>
      <trkpt lat="44.21147" lon="3.2515">
        <ele>905.7</ele>
        <time>2020-07-19T13:55:42Z</time>
      </trkpt>
      <trkpt lat="44.21146" lon="3.25146">
        <ele>905.9</ele>
        <time>2020-07-19T13:55:43Z</time>
      </trkpt>
      <trkpt lat="44.21145" lon="3.25139">
        <ele>906.1</ele>
        <time>2020-07-19T13:55:45Z</time>
      </trkpt>
      <trkpt lat="44.21145" lon="3.25136">
        <ele>906.1</ele>
        <time>2020-07-19T13:55:47Z</time>
      </trkpt>
      <trkpt lat="44.21145" lon="3.25135">
        <ele>906.1</ele>
        <time>2020-07-19T13:55:48Z</time>
      </trkpt>
      <trkpt lat="44.21144" lon="3.25135">
        <ele>906.2</ele>
        <time>2020-07-19T13:55:50Z</time>
      </trkpt>
      <trkpt lat="44.21144" lon="3.25134">
        <ele>906.2</ele>
        <time>2020-07-19T13:55:52Z</time>
      </trkpt>
      <trkpt lat="44.21143" lon="3.25134">
        <ele>906.2</ele>
        <time>2020-07-19T13:55:53Z</time>
      </trkpt>
      <trkpt lat="44.21143" lon="3.25134">
        <ele>906.2</ele>
        <time>2020-07-19T13:55:54Z</time>
      </trkpt>
      <trkpt lat="44.21143" lon="3.25134">
        <ele>906.2</ele>
        <time>2020-07-19T13:55:56Z</time>
      </trkpt>
      <trkpt lat="44.21143" lon="3.25133">
        <ele>906.2</ele>
        <time>2020-07-19T13:55:58Z</time>
      </trkpt>
      <trkpt lat="44.21143" lon="3.25133">
        <ele>906.2</ele>
        <time>2020-07-19T13:56:00Z</time>
      </trkpt>
      <trkpt lat="44.21143" lon="3.25133">
        <ele>906.2</ele>
        <time>2020-07-19T13:56:01Z</time>
      </trkpt>
      <trkpt lat="44.21143" lon="3.25133">
        <ele>906.2</ele>
        <time>2020-07-19T13:56:02Z</time>
      </trkpt>
      <trkpt lat="44.21144" lon="3.25135">
        <ele>906.2</ele>
        <time>2020-07-19T13:56:04Z</time>
      </trkpt>
      <trkpt lat="44.21145" lon="3.25136">
        <ele>906.3</ele>
        <time>2020-07-19T13:56:05Z</time>
      </trkpt>
      <trkpt lat="44.21145" lon="3.25136">
        <ele>906.3</ele>
        <time>2020-07-19T13:56:06Z</time>
      </trkpt>
      <trkpt lat="44.21145" lon="3.25135">
        <ele>906.3</ele>
        <time>2020-07-19T13:56:07Z</time>
      </trkpt>
      <trkpt lat="44.21145" lon="3.25134">
        <ele>906.3</ele>
        <time>2020-07-19T13:56:09Z</time>
      </trkpt>
      <trkpt lat="44.21145" lon="3.25133">
        <ele>906.3</ele>
        <time>2020-07-19T13:56:11Z</time>
      </trkpt>
      <trkpt lat="44.21145" lon="3.25132">
        <ele>906.3</ele>
        <time>2020-07-19T13:56:12Z</time>
      </trkpt>
      <trkpt lat="44.21145" lon="3.25131">
        <ele>906.3</ele>
        <time>2020-07-19T13:56:14Z</time>
      </trkpt>
      <trkpt lat="44.21145" lon="3.2513">
        <ele>906.4</ele>
        <time>2020-07-19T13:56:16Z</time>
      </trkpt>
      <trkpt lat="44.21145" lon="3.25128">
        <ele>906.4</ele>
        <time>2020-07-19T13:56:17Z</time>
      </trkpt>
      <trkpt lat="44.21145" lon="3.25127">
        <ele>906.4</ele>
        <time>2020-07-19T13:59:36Z</time>
      </trkpt>
      <trkpt lat="44.21146" lon="3.25126">
        <ele>906.5</ele>
        <time>2020-07-19T13:59:38Z</time>
      </trkpt>
      <trkpt lat="44.21146" lon="3.25125">
        <ele>906.6</ele>
        <time>2020-07-19T13:59:39Z</time>
      </trkpt>
      <trkpt lat="44.21146" lon="3.25122">
        <ele>906.9</ele>
        <time>2020-07-19T13:59:40Z</time>
      </trkpt>
      <trkpt lat="44.21145" lon="3.25119">
        <ele>907.2</ele>
        <time>2020-07-19T13:59:42Z</time>
      </trkpt>
      <trkpt lat="44.21145" lon="3.25116">
        <ele>907.4</ele>
        <time>2020-07-19T13:59:43Z</time>
      </trkpt>
      <trkpt lat="44.21144" lon="3.25111">
        <ele>907.9</ele>
        <time>2020-07-19T13:59:45Z</time>
      </trkpt>
      <trkpt lat="44.21144" lon="3.25106">
        <ele>908.3</ele>
        <time>2020-07-19T13:59:46Z</time>
      </trkpt>
      <trkpt lat="44.21144" lon="3.25104">
        <ele>908.5</ele>
        <time>2020-07-19T13:59:47Z</time>
      </trkpt>
      <trkpt lat="44.21143" lon="3.25096">
        <ele>909.3</ele>
        <time>2020-07-19T13:59:49Z</time>
      </trkpt>
      <trkpt lat="44.21143" lon="3.25086">
        <ele>910.2</ele>
        <time>2020-07-19T13:59:50Z</time>
      </trkpt>
      <trkpt lat="44.21143" lon="3.25081">
        <ele>910.8</ele>
        <time>2020-07-19T13:59:51Z</time>
      </trkpt>
      <trkpt lat="44.21143" lon="3.25074">
        <ele>911.6</ele>
        <time>2020-07-19T13:59:52Z</time>
      </trkpt>
      <trkpt lat="44.21142" lon="3.25068">
        <ele>912.4</ele>
        <time>2020-07-19T13:59:54Z</time>
      </trkpt>
      <trkpt lat="44.2114" lon="3.25061">
        <ele>913.3</ele>
        <time>2020-07-19T13:59:56Z</time>
      </trkpt>
      <trkpt lat="44.21139" lon="3.25056">
        <ele>914</ele>
        <time>2020-07-19T13:59:57Z</time>
      </trkpt>
      <trkpt lat="44.21139" lon="3.25055">
        <ele>914.3</ele>
        <time>2020-07-19T13:59:58Z</time>
      </trkpt>
      <trkpt lat="44.21137" lon="3.25049">
        <ele>915.1</ele>
        <time>2020-07-19T14:00:00Z</time>
      </trkpt>
      <trkpt lat="44.21136" lon="3.25047">
        <ele>915.5</ele>
        <time>2020-07-19T14:00:01Z</time>
      </trkpt>
      <trkpt lat="44.21135" lon="3.25045">
        <ele>915.8</ele>
        <time>2020-07-19T14:00:02Z</time>
      </trkpt>
      <trkpt lat="44.21134" lon="3.25039">
        <ele>916.6</ele>
        <time>2020-07-19T14:00:04Z</time>
      </trkpt>
      <trkpt lat="44.21134" lon="3.25035">
        <ele>917.2</ele>
        <time>2020-07-19T14:00:05Z</time>
      </trkpt>
      <trkpt lat="44.21134" lon="3.25031">
        <ele>917.8</ele>
        <time>2020-07-19T14:00:06Z</time>
      </trkpt>
      <trkpt lat="44.21135" lon="3.2503">
        <ele>917.9</ele>
        <time>2020-07-19T14:00:07Z</time>
      </trkpt>
      <trkpt lat="44.21135" lon="3.25025">
        <ele>918.5</ele>
        <time>2020-07-19T14:00:09Z</time>
      </trkpt>
      <trkpt lat="44.21134" lon="3.25022">
        <ele>918.9</ele>
        <time>2020-07-19T14:00:10Z</time>
      </trkpt>
      <trkpt lat="44.21132" lon="3.25018">
        <ele>919.6</ele>
        <time>2020-07-19T14:00:12Z</time>
      </trkpt>
      <trkpt lat="44.2113" lon="3.25015">
        <ele>920.1</ele>
        <time>2020-07-19T14:00:13Z</time>
      </trkpt>
      <trkpt lat="44.2113" lon="3.25014">
        <ele>920.2</ele>
        <time>2020-07-19T14:00:14Z</time>
      </trkpt>
      <trkpt lat="44.21128" lon="3.25009">
        <ele>920.8</ele>
        <time>2020-07-19T14:00:16Z</time>
      </trkpt>
      <trkpt lat="44.21127" lon="3.25006">
        <ele>921.2</ele>
        <time>2020-07-19T14:00:17Z</time>
      </trkpt>
      <trkpt lat="44.21124" lon="3.25002">
        <ele>921.8</ele>
        <time>2020-07-19T14:00:19Z</time>
      </trkpt>
      <trkpt lat="44.21121" lon="3.24999">
        <ele>921.8</ele>
        <time>2020-07-19T14:00:21Z</time>
      </trkpt>
      <trkpt lat="44.2112" lon="3.24998">
        <ele>921.9</ele>
        <time>2020-07-19T14:00:22Z</time>
      </trkpt>
      <trkpt lat="44.21118" lon="3.24994">
        <ele>921.9</ele>
        <time>2020-07-19T14:00:24Z</time>
      </trkpt>
      <trkpt lat="44.21116" lon="3.24992">
        <ele>921.9</ele>
        <time>2020-07-19T14:00:25Z</time>
      </trkpt>
      <trkpt lat="44.21115" lon="3.2499">
        <ele>921.9</ele>
        <time>2020-07-19T14:00:27Z</time>
      </trkpt>
      <trkpt lat="44.21113" lon="3.24988">
        <ele>921.9</ele>
        <time>2020-07-19T14:00:29Z</time>
      </trkpt>
      <trkpt lat="44.21111" lon="3.24986">
        <ele>922</ele>
        <time>2020-07-19T14:00:31Z</time>
      </trkpt>
      <trkpt lat="44.2111" lon="3.24984">
        <ele>922</ele>
        <time>2020-07-19T14:00:32Z</time>
      </trkpt>
      <trkpt lat="44.21107" lon="3.24979">
        <ele>922</ele>
        <time>2020-07-19T14:00:34Z</time>
      </trkpt>
      <trkpt lat="44.21105" lon="3.24976">
        <ele>922</ele>
        <time>2020-07-19T14:00:35Z</time>
      </trkpt>
      <trkpt lat="44.21104" lon="3.24975">
        <ele>922</ele>
        <time>2020-07-19T14:00:36Z</time>
      </trkpt>
      <trkpt lat="44.21101" lon="3.24971">
        <ele>922.1</ele>
        <time>2020-07-19T14:00:38Z</time>
      </trkpt>
      <trkpt lat="44.21098" lon="3.24967">
        <ele>922.1</ele>
        <time>2020-07-19T14:00:39Z</time>
      </trkpt>
      <trkpt lat="44.21096" lon="3.24964">
        <ele>922.2</ele>
        <time>2020-07-19T14:00:40Z</time>
      </trkpt>
      <trkpt lat="44.21093" lon="3.24961">
        <ele>922.3</ele>
        <time>2020-07-19T14:00:41Z</time>
      </trkpt>
      <trkpt lat="44.21088" lon="3.24956">
        <ele>922.6</ele>
        <time>2020-07-19T14:00:43Z</time>
      </trkpt>
      <trkpt lat="44.21083" lon="3.24951">
        <ele>922.9</ele>
        <time>2020-07-19T14:00:44Z</time>
      </trkpt>
      <trkpt lat="44.21074" lon="3.24943">
        <ele>923.3</ele>
        <time>2020-07-19T14:00:46Z</time>
      </trkpt>
      <trkpt lat="44.21063" lon="3.24932">
        <ele>923.5</ele>
        <time>2020-07-19T14:00:48Z</time>
      </trkpt>
      <trkpt lat="44.21057" lon="3.24926">
        <ele>923.4</ele>
        <time>2020-07-19T14:00:49Z</time>
      </trkpt>
      <trkpt lat="44.21049" lon="3.24917">
        <ele>923.1</ele>
        <time>2020-07-19T14:00:51Z</time>
      </trkpt>
      <trkpt lat="44.21043" lon="3.24906">
        <ele>922.5</ele>
        <time>2020-07-19T14:00:52Z</time>
      </trkpt>
      <trkpt lat="44.21038" lon="3.24889">
        <ele>921.6</ele>
        <time>2020-07-19T14:00:54Z</time>
      </trkpt>
      <trkpt lat="44.21036" lon="3.24881">
        <ele>921.2</ele>
        <time>2020-07-19T14:00:55Z</time>
      </trkpt>
      <trkpt lat="44.21035" lon="3.24862">
        <ele>920</ele>
        <time>2020-07-19T14:00:57Z</time>
      </trkpt>
      <trkpt lat="44.21038" lon="3.24852">
        <ele>919.2</ele>
        <time>2020-07-19T14:00:58Z</time>
      </trkpt>
      <trkpt lat="44.21047" lon="3.24835">
        <ele>917.6</ele>
        <time>2020-07-19T14:01:00Z</time>
      </trkpt>
      <trkpt lat="44.21052" lon="3.24825">
        <ele>916.5</ele>
        <time>2020-07-19T14:01:01Z</time>
      </trkpt>
      <trkpt lat="44.21057" lon="3.24815">
        <ele>915.6</ele>
        <time>2020-07-19T14:01:02Z</time>
      </trkpt>
      <trkpt lat="44.21069" lon="3.24795">
        <ele>914.2</ele>
        <time>2020-07-19T14:01:04Z</time>
      </trkpt>
      <trkpt lat="44.2108" lon="3.24777">
        <ele>913.3</ele>
        <time>2020-07-19T14:01:06Z</time>
      </trkpt>
      <trkpt lat="44.21092" lon="3.2476">
        <ele>912.4</ele>
        <time>2020-07-19T14:01:08Z</time>
      </trkpt>
      <trkpt lat="44.21097" lon="3.2474">
        <ele>911.7</ele>
        <time>2020-07-19T14:01:10Z</time>
      </trkpt>
      <trkpt lat="44.21092" lon="3.24725">
        <ele>911.1</ele>
        <time>2020-07-19T14:01:12Z</time>
      </trkpt>
      <trkpt lat="44.21082" lon="3.24711">
        <ele>910.2</ele>
        <time>2020-07-19T14:01:14Z</time>
      </trkpt>
      <trkpt lat="44.2108" lon="3.24702">
        <ele>909.8</ele>
        <time>2020-07-19T14:01:15Z</time>
      </trkpt>
      <trkpt lat="44.2108" lon="3.24692">
        <ele>909.3</ele>
        <time>2020-07-19T14:01:16Z</time>
      </trkpt>
      <trkpt lat="44.21081" lon="3.24674">
        <ele>908.1</ele>
        <time>2020-07-19T14:01:18Z</time>
      </trkpt>
      <trkpt lat="44.21086" lon="3.24654">
        <ele>906.4</ele>
        <time>2020-07-19T14:01:20Z</time>
      </trkpt>
      <trkpt lat="44.2109" lon="3.2463">
        <ele>904.9</ele>
        <time>2020-07-19T14:01:22Z</time>
      </trkpt>
      <trkpt lat="44.21092" lon="3.24616">
        <ele>903.9</ele>
        <time>2020-07-19T14:01:23Z</time>
      </trkpt>
      <trkpt lat="44.21097" lon="3.24604">
        <ele>904.7</ele>
        <time>2020-07-19T14:01:24Z</time>
      </trkpt>
      <trkpt lat="44.21109" lon="3.24592">
        <ele>906.1</ele>
        <time>2020-07-19T14:01:26Z</time>
      </trkpt>
      <trkpt lat="44.21116" lon="3.2459">
        <ele>906.8</ele>
        <time>2020-07-19T14:01:27Z</time>
      </trkpt>
      <trkpt lat="44.21121" lon="3.24586">
        <ele>907.5</ele>
        <time>2020-07-19T14:01:28Z</time>
      </trkpt>
      <trkpt lat="44.21124" lon="3.24583">
        <ele>907.9</ele>
        <time>2020-07-19T14:01:29Z</time>
      </trkpt>
      <trkpt lat="44.21126" lon="3.24582">
        <ele>908.1</ele>
        <time>2020-07-19T14:01:30Z</time>
      </trkpt>
      <trkpt lat="44.21134" lon="3.2458">
        <ele>909.3</ele>
        <time>2020-07-19T14:01:32Z</time>
      </trkpt>
      <trkpt lat="44.21139" lon="3.24577">
        <ele>909.8</ele>
        <time>2020-07-19T14:01:33Z</time>
      </trkpt>
      <trkpt lat="44.21142" lon="3.24572">
        <ele>910.3</ele>
        <time>2020-07-19T14:01:35Z</time>
      </trkpt>
      <trkpt lat="44.21147" lon="3.24569">
        <ele>910.6</ele>
        <time>2020-07-19T14:01:36Z</time>
      </trkpt>
      <trkpt lat="44.21149" lon="3.24568">
        <ele>910.8</ele>
        <time>2020-07-19T14:01:38Z</time>
      </trkpt>
      <trkpt lat="44.21151" lon="3.24566">
        <ele>910.9</ele>
        <time>2020-07-19T14:01:39Z</time>
      </trkpt>
      <trkpt lat="44.21155" lon="3.24562">
        <ele>911.1</ele>
        <time>2020-07-19T14:01:40Z</time>
      </trkpt>
      <trkpt lat="44.21159" lon="3.24559">
        <ele>911.3</ele>
        <time>2020-07-19T14:01:41Z</time>
      </trkpt>
      <trkpt lat="44.21168" lon="3.24555">
        <ele>911.6</ele>
        <time>2020-07-19T14:01:43Z</time>
      </trkpt>
      <trkpt lat="44.2117" lon="3.24554">
        <ele>911.9</ele>
        <time>2020-07-19T14:01:44Z</time>
      </trkpt>
      <trkpt lat="44.21173" lon="3.24552">
        <ele>912.2</ele>
        <time>2020-07-19T14:01:45Z</time>
      </trkpt>
      <trkpt lat="44.2118" lon="3.24549">
        <ele>912.8</ele>
        <time>2020-07-19T14:01:47Z</time>
      </trkpt>
      <trkpt lat="44.21183" lon="3.24548">
        <ele>913</ele>
        <time>2020-07-19T14:01:48Z</time>
      </trkpt>
      <trkpt lat="44.21187" lon="3.24547">
        <ele>913.2</ele>
        <time>2020-07-19T14:01:50Z</time>
      </trkpt>
      <trkpt lat="44.21193" lon="3.24547">
        <ele>913.3</ele>
        <time>2020-07-19T14:01:51Z</time>
      </trkpt>
      <trkpt lat="44.21196" lon="3.24547">
        <ele>913.3</ele>
        <time>2020-07-19T14:01:52Z</time>
      </trkpt>
      <trkpt lat="44.212" lon="3.24546">
        <ele>913.3</ele>
        <time>2020-07-19T14:01:53Z</time>
      </trkpt>
      <trkpt lat="44.21204" lon="3.24545">
        <ele>913.3</ele>
        <time>2020-07-19T14:01:55Z</time>
      </trkpt>
      <trkpt lat="44.21209" lon="3.24545">
        <ele>913.1</ele>
        <time>2020-07-19T14:01:56Z</time>
      </trkpt>
      <trkpt lat="44.21211" lon="3.24545">
        <ele>913</ele>
        <time>2020-07-19T14:01:57Z</time>
      </trkpt>
      <trkpt lat="44.21217" lon="3.24545">
        <ele>912.7</ele>
        <time>2020-07-19T14:01:59Z</time>
      </trkpt>
      <trkpt lat="44.21221" lon="3.24545">
        <ele>912.5</ele>
        <time>2020-07-19T14:02:00Z</time>
      </trkpt>
      <trkpt lat="44.21235" lon="3.2455">
        <ele>911.3</ele>
        <time>2020-07-19T14:02:02Z</time>
      </trkpt>
      <trkpt lat="44.21249" lon="3.24557">
        <ele>910.1</ele>
        <time>2020-07-19T14:02:04Z</time>
      </trkpt>
      <trkpt lat="44.21263" lon="3.2456">
        <ele>909</ele>
        <time>2020-07-19T14:02:06Z</time>
      </trkpt>
      <trkpt lat="44.2128" lon="3.24558">
        <ele>906.9</ele>
        <time>2020-07-19T14:02:08Z</time>
      </trkpt>
      <trkpt lat="44.21295" lon="3.24554">
        <ele>904.8</ele>
        <time>2020-07-19T14:02:10Z</time>
      </trkpt>
      <trkpt lat="44.21313" lon="3.24546">
        <ele>902.5</ele>
        <time>2020-07-19T14:02:12Z</time>
      </trkpt>
      <trkpt lat="44.21321" lon="3.24539">
        <ele>901.2</ele>
        <time>2020-07-19T14:02:13Z</time>
      </trkpt>
      <trkpt lat="44.21338" lon="3.24526">
        <ele>898.9</ele>
        <time>2020-07-19T14:02:15Z</time>
      </trkpt>
      <trkpt lat="44.21345" lon="3.24518">
        <ele>897.9</ele>
        <time>2020-07-19T14:02:16Z</time>
      </trkpt>
      <trkpt lat="44.21352" lon="3.24509">
        <ele>897.1</ele>
        <time>2020-07-19T14:02:17Z</time>
      </trkpt>
      <trkpt lat="44.21359" lon="3.24499">
        <ele>896.3</ele>
        <time>2020-07-19T14:02:18Z</time>
      </trkpt>
      <trkpt lat="44.21366" lon="3.24489">
        <ele>894.8</ele>
        <time>2020-07-19T14:02:19Z</time>
      </trkpt>
      <trkpt lat="44.21381" lon="3.24471">
        <ele>892.2</ele>
        <time>2020-07-19T14:02:21Z</time>
      </trkpt>
      <trkpt lat="44.21391" lon="3.24465">
        <ele>891.7</ele>
        <time>2020-07-19T14:02:22Z</time>
      </trkpt>
      <trkpt lat="44.2141" lon="3.24451">
        <ele>891</ele>
        <time>2020-07-19T14:02:24Z</time>
      </trkpt>
      <trkpt lat="44.21425" lon="3.24435">
        <ele>890.3</ele>
        <time>2020-07-19T14:02:26Z</time>
      </trkpt>
      <trkpt lat="44.21438" lon="3.24419">
        <ele>889.5</ele>
        <time>2020-07-19T14:02:28Z</time>
      </trkpt>
      <trkpt lat="44.21451" lon="3.24403">
        <ele>888</ele>
        <time>2020-07-19T14:02:30Z</time>
      </trkpt>
      <trkpt lat="44.21463" lon="3.24387">
        <ele>887.1</ele>
        <time>2020-07-19T14:02:32Z</time>
      </trkpt>
      <trkpt lat="44.21468" lon="3.24379">
        <ele>886.1</ele>
        <time>2020-07-19T14:02:33Z</time>
      </trkpt>
      <trkpt lat="44.21473" lon="3.2437">
        <ele>885.1</ele>
        <time>2020-07-19T14:02:34Z</time>
      </trkpt>
      <trkpt lat="44.2148" lon="3.24349">
        <ele>882.5</ele>
        <time>2020-07-19T14:02:36Z</time>
      </trkpt>
      <trkpt lat="44.21484" lon="3.24339">
        <ele>881.8</ele>
        <time>2020-07-19T14:02:37Z</time>
      </trkpt>
      <trkpt lat="44.2149" lon="3.24327">
        <ele>881.2</ele>
        <time>2020-07-19T14:02:38Z</time>
      </trkpt>
      <trkpt lat="44.21497" lon="3.24315">
        <ele>880.2</ele>
        <time>2020-07-19T14:02:39Z</time>
      </trkpt>
      <trkpt lat="44.21503" lon="3.24302">
        <ele>879.3</ele>
        <time>2020-07-19T14:02:40Z</time>
      </trkpt>
      <trkpt lat="44.21509" lon="3.24291">
        <ele>878.7</ele>
        <time>2020-07-19T14:02:41Z</time>
      </trkpt>
      <trkpt lat="44.21522" lon="3.24269">
        <ele>878.2</ele>
        <time>2020-07-19T14:02:43Z</time>
      </trkpt>
      <trkpt lat="44.21536" lon="3.2425">
        <ele>877.6</ele>
        <time>2020-07-19T14:02:45Z</time>
      </trkpt>
      <trkpt lat="44.21551" lon="3.24235">
        <ele>877.2</ele>
        <time>2020-07-19T14:02:47Z</time>
      </trkpt>
      <trkpt lat="44.21561" lon="3.24219">
        <ele>877.4</ele>
        <time>2020-07-19T14:02:49Z</time>
      </trkpt>
      <trkpt lat="44.21567" lon="3.24203">
        <ele>877.6</ele>
        <time>2020-07-19T14:02:51Z</time>
      </trkpt>
      <trkpt lat="44.21569" lon="3.24195">
        <ele>877.8</ele>
        <time>2020-07-19T14:02:52Z</time>
      </trkpt>
      <trkpt lat="44.21572" lon="3.24182">
        <ele>878.3</ele>
        <time>2020-07-19T14:02:54Z</time>
      </trkpt>
      <trkpt lat="44.21572" lon="3.24181">
        <ele>878.4</ele>
        <time>2020-07-19T14:02:55Z</time>
      </trkpt>
      <trkpt lat="44.21573" lon="3.24168">
        <ele>879</ele>
        <time>2020-07-19T14:02:57Z</time>
      </trkpt>
      <trkpt lat="44.21573" lon="3.24157">
        <ele>879.3</ele>
        <time>2020-07-19T14:02:59Z</time>
      </trkpt>
      <trkpt lat="44.21574" lon="3.24152">
        <ele>879.6</ele>
        <time>2020-07-19T14:03:00Z</time>
      </trkpt>
      <trkpt lat="44.21574" lon="3.24149">
        <ele>879.7</ele>
        <time>2020-07-19T14:03:01Z</time>
      </trkpt>
      <trkpt lat="44.21576" lon="3.2415">
        <ele>879.8</ele>
        <time>2020-07-19T14:03:03Z</time>
      </trkpt>
      <trkpt lat="44.21578" lon="3.24141">
        <ele>880.2</ele>
        <time>2020-07-19T14:03:05Z</time>
      </trkpt>
      <trkpt lat="44.2158" lon="3.24136">
        <ele>880.3</ele>
        <time>2020-07-19T14:03:06Z</time>
      </trkpt>
      <trkpt lat="44.2158" lon="3.24131">
        <ele>880.3</ele>
        <time>2020-07-19T14:03:07Z</time>
      </trkpt>
      <trkpt lat="44.2158" lon="3.24124">
        <ele>880.2</ele>
        <time>2020-07-19T14:03:09Z</time>
      </trkpt>
      <trkpt lat="44.21581" lon="3.24119">
        <ele>880.2</ele>
        <time>2020-07-19T14:03:10Z</time>
      </trkpt>
      <trkpt lat="44.21582" lon="3.24113">
        <ele>880.1</ele>
        <time>2020-07-19T14:03:11Z</time>
      </trkpt>
      <trkpt lat="44.21582" lon="3.24111">
        <ele>880.1</ele>
        <time>2020-07-19T14:03:12Z</time>
      </trkpt>
      <trkpt lat="44.21583" lon="3.24106">
        <ele>880.1</ele>
        <time>2020-07-19T14:03:13Z</time>
      </trkpt>
      <trkpt lat="44.21582" lon="3.241">
        <ele>880.4</ele>
        <time>2020-07-19T14:03:15Z</time>
      </trkpt>
      <trkpt lat="44.21583" lon="3.24094">
        <ele>880.7</ele>
        <time>2020-07-19T14:03:17Z</time>
      </trkpt>
      <trkpt lat="44.21584" lon="3.2409">
        <ele>881</ele>
        <time>2020-07-19T14:03:18Z</time>
      </trkpt>
      <trkpt lat="44.21589" lon="3.24083">
        <ele>881.6</ele>
        <time>2020-07-19T14:03:20Z</time>
      </trkpt>
      <trkpt lat="44.21593" lon="3.2408">
        <ele>881.9</ele>
        <time>2020-07-19T14:03:21Z</time>
      </trkpt>
      <trkpt lat="44.21597" lon="3.24078">
        <ele>881.8</ele>
        <time>2020-07-19T14:03:23Z</time>
      </trkpt>
      <trkpt lat="44.216" lon="3.24078">
        <ele>881.6</ele>
        <time>2020-07-19T14:03:24Z</time>
      </trkpt>
      <trkpt lat="44.21607" lon="3.24079">
        <ele>881.1</ele>
        <time>2020-07-19T14:03:26Z</time>
      </trkpt>
      <trkpt lat="44.21609" lon="3.24079">
        <ele>881</ele>
        <time>2020-07-19T14:03:27Z</time>
      </trkpt>
      <trkpt lat="44.2161" lon="3.24082">
        <ele>880.9</ele>
        <time>2020-07-19T14:03:29Z</time>
      </trkpt>
      <trkpt lat="44.2161" lon="3.24086">
        <ele>880.8</ele>
        <time>2020-07-19T14:03:30Z</time>
      </trkpt>
      <trkpt lat="44.21611" lon="3.24087">
        <ele>880.8</ele>
        <time>2020-07-19T14:03:31Z</time>
      </trkpt>
      <trkpt lat="44.21617" lon="3.24086">
        <ele>880.6</ele>
        <time>2020-07-19T14:03:33Z</time>
      </trkpt>
      <trkpt lat="44.2162" lon="3.24086">
        <ele>880.6</ele>
        <time>2020-07-19T14:03:34Z</time>
      </trkpt>
      <trkpt lat="44.21621" lon="3.24086">
        <ele>880.6</ele>
        <time>2020-07-19T14:03:35Z</time>
      </trkpt>
      <trkpt lat="44.21626" lon="3.24086">
        <ele>880.5</ele>
        <time>2020-07-19T14:03:37Z</time>
      </trkpt>
      <trkpt lat="44.21634" lon="3.24089">
        <ele>880.2</ele>
        <time>2020-07-19T14:03:38Z</time>
      </trkpt>
      <trkpt lat="44.21648" lon="3.24092">
        <ele>879.5</ele>
        <time>2020-07-19T14:03:39Z</time>
      </trkpt>
      <trkpt lat="44.21658" lon="3.24095">
        <ele>878.9</ele>
        <time>2020-07-19T14:03:40Z</time>
      </trkpt>
      <trkpt lat="44.21663" lon="3.241">
        <ele>878.5</ele>
        <time>2020-07-19T14:03:41Z</time>
      </trkpt>
      <trkpt lat="44.21673" lon="3.24106">
        <ele>877.8</ele>
        <time>2020-07-19T14:03:43Z</time>
      </trkpt>
      <trkpt lat="44.21679" lon="3.24108">
        <ele>877.5</ele>
        <time>2020-07-19T14:03:45Z</time>
      </trkpt>
      <trkpt lat="44.21681" lon="3.24106">
        <ele>877.3</ele>
        <time>2020-07-19T14:03:46Z</time>
      </trkpt>
      <trkpt lat="44.21686" lon="3.24106">
        <ele>877</ele>
        <time>2020-07-19T14:03:47Z</time>
      </trkpt>
      <trkpt lat="44.21706" lon="3.24115">
        <ele>875.5</ele>
        <time>2020-07-19T14:03:49Z</time>
      </trkpt>
      <trkpt lat="44.21714" lon="3.24118">
        <ele>874.9</ele>
        <time>2020-07-19T14:03:50Z</time>
      </trkpt>
      <trkpt lat="44.21722" lon="3.2412">
        <ele>874.3</ele>
        <time>2020-07-19T14:03:51Z</time>
      </trkpt>
      <trkpt lat="44.21736" lon="3.24122">
        <ele>873.2</ele>
        <time>2020-07-19T14:03:53Z</time>
      </trkpt>
      <trkpt lat="44.21749" lon="3.24123">
        <ele>872.6</ele>
        <time>2020-07-19T14:03:55Z</time>
      </trkpt>
      <trkpt lat="44.21756" lon="3.24124">
        <ele>872.4</ele>
        <time>2020-07-19T14:03:56Z</time>
      </trkpt>
      <trkpt lat="44.21761" lon="3.24124">
        <ele>872.3</ele>
        <time>2020-07-19T14:03:57Z</time>
      </trkpt>
      <trkpt lat="44.21773" lon="3.24124">
        <ele>871.7</ele>
        <time>2020-07-19T14:03:59Z</time>
      </trkpt>
      <trkpt lat="44.21784" lon="3.24124">
        <ele>870.7</ele>
        <time>2020-07-19T14:04:01Z</time>
      </trkpt>
      <trkpt lat="44.21789" lon="3.24126">
        <ele>870.3</ele>
        <time>2020-07-19T14:04:02Z</time>
      </trkpt>
      <trkpt lat="44.21794" lon="3.24127">
        <ele>869.8</ele>
        <time>2020-07-19T14:04:03Z</time>
      </trkpt>
      <trkpt lat="44.21807" lon="3.24134">
        <ele>869</ele>
        <time>2020-07-19T14:04:05Z</time>
      </trkpt>
      <trkpt lat="44.21819" lon="3.24139">
        <ele>868.9</ele>
        <time>2020-07-19T14:04:07Z</time>
      </trkpt>
      <trkpt lat="44.21825" lon="3.2414">
        <ele>868.9</ele>
        <time>2020-07-19T14:04:08Z</time>
      </trkpt>
      <trkpt lat="44.2183" lon="3.2414">
        <ele>868.8</ele>
        <time>2020-07-19T14:04:09Z</time>
      </trkpt>
      <trkpt lat="44.21837" lon="3.24139">
        <ele>868.4</ele>
        <time>2020-07-19T14:04:11Z</time>
      </trkpt>
      <trkpt lat="44.21842" lon="3.24138">
        <ele>868</ele>
        <time>2020-07-19T14:04:12Z</time>
      </trkpt>
      <trkpt lat="44.21852" lon="3.24138">
        <ele>867.2</ele>
        <time>2020-07-19T14:04:14Z</time>
      </trkpt>
      <trkpt lat="44.21858" lon="3.24138">
        <ele>866.6</ele>
        <time>2020-07-19T14:04:15Z</time>
      </trkpt>
      <trkpt lat="44.21871" lon="3.2414">
        <ele>865.2</ele>
        <time>2020-07-19T14:04:17Z</time>
      </trkpt>
      <trkpt lat="44.21877" lon="3.24141">
        <ele>864.4</ele>
        <time>2020-07-19T14:04:18Z</time>
      </trkpt>
      <trkpt lat="44.21891" lon="3.24145">
        <ele>863.1</ele>
        <time>2020-07-19T14:04:20Z</time>
      </trkpt>
      <trkpt lat="44.21899" lon="3.24145">
        <ele>862.4</ele>
        <time>2020-07-19T14:04:21Z</time>
      </trkpt>
      <trkpt lat="44.21913" lon="3.24142">
        <ele>860.3</ele>
        <time>2020-07-19T14:04:23Z</time>
      </trkpt>
      <trkpt lat="44.21921" lon="3.24141">
        <ele>859.3</ele>
        <time>2020-07-19T14:04:24Z</time>
      </trkpt>
      <trkpt lat="44.21928" lon="3.24142">
        <ele>858.6</ele>
        <time>2020-07-19T14:04:25Z</time>
      </trkpt>
      <trkpt lat="44.21943" lon="3.2415">
        <ele>857.5</ele>
        <time>2020-07-19T14:04:27Z</time>
      </trkpt>
      <trkpt lat="44.2195" lon="3.24155">
        <ele>857</ele>
        <time>2020-07-19T14:04:28Z</time>
      </trkpt>
      <trkpt lat="44.21965" lon="3.24164">
        <ele>855.6</ele>
        <time>2020-07-19T14:04:30Z</time>
      </trkpt>
      <trkpt lat="44.21971" lon="3.24172">
        <ele>854.9</ele>
        <time>2020-07-19T14:04:31Z</time>
      </trkpt>
      <trkpt lat="44.21976" lon="3.2418">
        <ele>854.5</ele>
        <time>2020-07-19T14:04:32Z</time>
      </trkpt>
      <trkpt lat="44.21987" lon="3.24196">
        <ele>853.8</ele>
        <time>2020-07-19T14:04:34Z</time>
      </trkpt>
      <trkpt lat="44.21992" lon="3.24204">
        <ele>853.7</ele>
        <time>2020-07-19T14:04:35Z</time>
      </trkpt>
      <trkpt lat="44.21996" lon="3.24213">
        <ele>853.6</ele>
        <time>2020-07-19T14:04:36Z</time>
      </trkpt>
      <trkpt lat="44.22004" lon="3.24229">
        <ele>853.2</ele>
        <time>2020-07-19T14:04:38Z</time>
      </trkpt>
      <trkpt lat="44.22013" lon="3.24238">
        <ele>852.4</ele>
        <time>2020-07-19T14:04:40Z</time>
      </trkpt>
      <trkpt lat="44.22027" lon="3.24241">
        <ele>851.1</ele>
        <time>2020-07-19T14:04:42Z</time>
      </trkpt>
      <trkpt lat="44.22034" lon="3.24243">
        <ele>850.6</ele>
        <time>2020-07-19T14:04:43Z</time>
      </trkpt>
      <trkpt lat="44.22049" lon="3.24243">
        <ele>850</ele>
        <time>2020-07-19T14:04:45Z</time>
      </trkpt>
      <trkpt lat="44.22063" lon="3.24247">
        <ele>849</ele>
        <time>2020-07-19T14:04:47Z</time>
      </trkpt>
      <trkpt lat="44.22071" lon="3.24248">
        <ele>848.6</ele>
        <time>2020-07-19T14:04:48Z</time>
      </trkpt>
      <trkpt lat="44.22079" lon="3.24248">
        <ele>848.4</ele>
        <time>2020-07-19T14:04:49Z</time>
      </trkpt>
      <trkpt lat="44.22094" lon="3.2425">
        <ele>847.9</ele>
        <time>2020-07-19T14:04:51Z</time>
      </trkpt>
      <trkpt lat="44.22108" lon="3.24245">
        <ele>847.4</ele>
        <time>2020-07-19T14:04:53Z</time>
      </trkpt>
      <trkpt lat="44.22116" lon="3.24245">
        <ele>847.1</ele>
        <time>2020-07-19T14:04:54Z</time>
      </trkpt>
      <trkpt lat="44.2213" lon="3.24249">
        <ele>846.4</ele>
        <time>2020-07-19T14:04:56Z</time>
      </trkpt>
      <trkpt lat="44.22142" lon="3.24258">
        <ele>845.8</ele>
        <time>2020-07-19T14:04:58Z</time>
      </trkpt>
      <trkpt lat="44.22148" lon="3.24263">
        <ele>845.2</ele>
        <time>2020-07-19T14:04:59Z</time>
      </trkpt>
      <trkpt lat="44.22154" lon="3.24267">
        <ele>844.7</ele>
        <time>2020-07-19T14:05:00Z</time>
      </trkpt>
      <trkpt lat="44.22168" lon="3.24266">
        <ele>844.3</ele>
        <time>2020-07-19T14:05:02Z</time>
      </trkpt>
      <trkpt lat="44.22182" lon="3.24264">
        <ele>843.4</ele>
        <time>2020-07-19T14:05:04Z</time>
      </trkpt>
      <trkpt lat="44.22187" lon="3.24264">
        <ele>843.1</ele>
        <time>2020-07-19T14:05:05Z</time>
      </trkpt>
      <trkpt lat="44.22193" lon="3.24264">
        <ele>842.7</ele>
        <time>2020-07-19T14:05:07Z</time>
      </trkpt>
      <trkpt lat="44.22197" lon="3.24263">
        <ele>842.5</ele>
        <time>2020-07-19T14:05:08Z</time>
      </trkpt>
      <trkpt lat="44.22202" lon="3.2426">
        <ele>842.3</ele>
        <time>2020-07-19T14:05:10Z</time>
      </trkpt>
      <trkpt lat="44.22204" lon="3.24258">
        <ele>842.2</ele>
        <time>2020-07-19T14:05:11Z</time>
      </trkpt>
      <trkpt lat="44.22208" lon="3.24257">
        <ele>842.1</ele>
        <time>2020-07-19T14:05:13Z</time>
      </trkpt>
      <trkpt lat="44.22209" lon="3.24257">
        <ele>842.1</ele>
        <time>2020-07-19T14:05:14Z</time>
      </trkpt>
      <trkpt lat="44.22215" lon="3.24256">
        <ele>842</ele>
        <time>2020-07-19T14:05:16Z</time>
      </trkpt>
      <trkpt lat="44.22219" lon="3.24255">
        <ele>842</ele>
        <time>2020-07-19T14:05:18Z</time>
      </trkpt>
      <trkpt lat="44.22223" lon="3.24253">
        <ele>842</ele>
        <time>2020-07-19T14:05:20Z</time>
      </trkpt>
      <trkpt lat="44.22226" lon="3.24252">
        <ele>842.1</ele>
        <time>2020-07-19T14:05:22Z</time>
      </trkpt>
      <trkpt lat="44.22229" lon="3.24249">
        <ele>842.2</ele>
        <time>2020-07-19T14:05:24Z</time>
      </trkpt>
      <trkpt lat="44.22232" lon="3.24248">
        <ele>842.3</ele>
        <time>2020-07-19T14:05:26Z</time>
      </trkpt>
      <trkpt lat="44.22235" lon="3.24248">
        <ele>842.3</ele>
        <time>2020-07-19T14:05:27Z</time>
      </trkpt>
      <trkpt lat="44.22237" lon="3.24247">
        <ele>842.4</ele>
        <time>2020-07-19T14:05:28Z</time>
      </trkpt>
      <trkpt lat="44.22241" lon="3.24245">
        <ele>842.5</ele>
        <time>2020-07-19T14:05:30Z</time>
      </trkpt>
      <trkpt lat="44.22243" lon="3.24245">
        <ele>842.5</ele>
        <time>2020-07-19T14:05:31Z</time>
      </trkpt>
      <trkpt lat="44.22247" lon="3.24242">
        <ele>842.6</ele>
        <time>2020-07-19T14:05:33Z</time>
      </trkpt>
      <trkpt lat="44.22251" lon="3.24241">
        <ele>842.6</ele>
        <time>2020-07-19T14:05:34Z</time>
      </trkpt>
      <trkpt lat="44.22252" lon="3.24241">
        <ele>842.6</ele>
        <time>2020-07-19T14:05:35Z</time>
      </trkpt>
      <trkpt lat="44.22257" lon="3.24238">
        <ele>842.6</ele>
        <time>2020-07-19T14:05:37Z</time>
      </trkpt>
      <trkpt lat="44.2226" lon="3.24236">
        <ele>842.6</ele>
        <time>2020-07-19T14:05:38Z</time>
      </trkpt>
      <trkpt lat="44.22266" lon="3.24233">
        <ele>842.3</ele>
        <time>2020-07-19T14:05:40Z</time>
      </trkpt>
      <trkpt lat="44.22269" lon="3.24232">
        <ele>842.1</ele>
        <time>2020-07-19T14:05:41Z</time>
      </trkpt>
      <trkpt lat="44.2227" lon="3.24232">
        <ele>842</ele>
        <time>2020-07-19T14:05:43Z</time>
      </trkpt>
      <trkpt lat="44.22271" lon="3.24232">
        <ele>841.9</ele>
        <time>2020-07-19T14:05:44Z</time>
      </trkpt>
      <trkpt lat="44.22273" lon="3.24231">
        <ele>841.8</ele>
        <time>2020-07-19T14:05:45Z</time>
      </trkpt>
      <trkpt lat="44.2228" lon="3.24229">
        <ele>840.9</ele>
        <time>2020-07-19T14:05:47Z</time>
      </trkpt>
      <trkpt lat="44.22284" lon="3.2423">
        <ele>840.4</ele>
        <time>2020-07-19T14:05:48Z</time>
      </trkpt>
      <trkpt lat="44.2229" lon="3.24238">
        <ele>839.7</ele>
        <time>2020-07-19T14:05:49Z</time>
      </trkpt>
      <trkpt lat="44.22296" lon="3.24251">
        <ele>838.6</ele>
        <time>2020-07-19T14:05:51Z</time>
      </trkpt>
      <trkpt lat="44.223" lon="3.24258">
        <ele>837.9</ele>
        <time>2020-07-19T14:05:52Z</time>
      </trkpt>
      <trkpt lat="44.22305" lon="3.24263">
        <ele>837.2</ele>
        <time>2020-07-19T14:05:53Z</time>
      </trkpt>
      <trkpt lat="44.22314" lon="3.24267">
        <ele>836.5</ele>
        <time>2020-07-19T14:05:55Z</time>
      </trkpt>
      <trkpt lat="44.22317" lon="3.24262">
        <ele>836.4</ele>
        <time>2020-07-19T14:05:56Z</time>
      </trkpt>
      <trkpt lat="44.22317" lon="3.24258">
        <ele>836.5</ele>
        <time>2020-07-19T14:05:57Z</time>
      </trkpt>
      <trkpt lat="44.22317" lon="3.24254">
        <ele>836.7</ele>
        <time>2020-07-19T14:05:58Z</time>
      </trkpt>
      <trkpt lat="44.22317" lon="3.2425">
        <ele>836.9</ele>
        <time>2020-07-19T14:06:00Z</time>
      </trkpt>
      <trkpt lat="44.22319" lon="3.24245">
        <ele>837.3</ele>
        <time>2020-07-19T14:06:01Z</time>
      </trkpt>
      <trkpt lat="44.22321" lon="3.2424">
        <ele>837.7</ele>
        <time>2020-07-19T14:06:03Z</time>
      </trkpt>
      <trkpt lat="44.22324" lon="3.24235">
        <ele>837.9</ele>
        <time>2020-07-19T14:06:04Z</time>
      </trkpt>
      <trkpt lat="44.22327" lon="3.2423">
        <ele>838.2</ele>
        <time>2020-07-19T14:06:06Z</time>
      </trkpt>
      <trkpt lat="44.22329" lon="3.24227">
        <ele>838.3</ele>
        <time>2020-07-19T14:06:07Z</time>
      </trkpt>
      <trkpt lat="44.22332" lon="3.24224">
        <ele>838.5</ele>
        <time>2020-07-19T14:06:08Z</time>
      </trkpt>
      <trkpt lat="44.22335" lon="3.24221">
        <ele>838.6</ele>
        <time>2020-07-19T14:06:09Z</time>
      </trkpt>
      <trkpt lat="44.22343" lon="3.24217">
        <ele>838.9</ele>
        <time>2020-07-19T14:06:11Z</time>
      </trkpt>
      <trkpt lat="44.22348" lon="3.24216">
        <ele>838.9</ele>
        <time>2020-07-19T14:06:13Z</time>
      </trkpt>
      <trkpt lat="44.22352" lon="3.24217">
        <ele>838.8</ele>
        <time>2020-07-19T14:06:14Z</time>
      </trkpt>
      <trkpt lat="44.22355" lon="3.24219">
        <ele>838.8</ele>
        <time>2020-07-19T14:06:15Z</time>
      </trkpt>
      <trkpt lat="44.22357" lon="3.2422">
        <ele>838.8</ele>
        <time>2020-07-19T14:06:16Z</time>
      </trkpt>
      <trkpt lat="44.22363" lon="3.24223">
        <ele>838.8</ele>
        <time>2020-07-19T14:06:18Z</time>
      </trkpt>
      <trkpt lat="44.22367" lon="3.24225">
        <ele>838.9</ele>
        <time>2020-07-19T14:06:19Z</time>
      </trkpt>
      <trkpt lat="44.22369" lon="3.24226">
        <ele>839</ele>
        <time>2020-07-19T14:06:20Z</time>
      </trkpt>
      <trkpt lat="44.22374" lon="3.24226">
        <ele>839.2</ele>
        <time>2020-07-19T14:06:22Z</time>
      </trkpt>
      <trkpt lat="44.22378" lon="3.24226">
        <ele>839.4</ele>
        <time>2020-07-19T14:06:23Z</time>
      </trkpt>
      <trkpt lat="44.22381" lon="3.24226">
        <ele>839.6</ele>
        <time>2020-07-19T14:06:24Z</time>
      </trkpt>
      <trkpt lat="44.22384" lon="3.24225">
        <ele>839.8</ele>
        <time>2020-07-19T14:06:25Z</time>
      </trkpt>
      <trkpt lat="44.22386" lon="3.24224">
        <ele>839.9</ele>
        <time>2020-07-19T14:06:26Z</time>
      </trkpt>
      <trkpt lat="44.22389" lon="3.24224">
        <ele>840.1</ele>
        <time>2020-07-19T14:06:28Z</time>
      </trkpt>
      <trkpt lat="44.22393" lon="3.24224">
        <ele>840.4</ele>
        <time>2020-07-19T14:06:30Z</time>
      </trkpt>
      <trkpt lat="44.22396" lon="3.24227">
        <ele>840.7</ele>
        <time>2020-07-19T14:06:31Z</time>
      </trkpt>
      <trkpt lat="44.22397" lon="3.24227">
        <ele>840.8</ele>
        <time>2020-07-19T14:06:32Z</time>
      </trkpt>
      <trkpt lat="44.224" lon="3.24229">
        <ele>841</ele>
        <time>2020-07-19T14:06:33Z</time>
      </trkpt>
      <trkpt lat="44.22402" lon="3.2423">
        <ele>841.1</ele>
        <time>2020-07-19T14:06:34Z</time>
      </trkpt>
      <trkpt lat="44.22403" lon="3.24231">
        <ele>841.2</ele>
        <time>2020-07-19T14:06:35Z</time>
      </trkpt>
      <trkpt lat="44.22407" lon="3.24232">
        <ele>841.6</ele>
        <time>2020-07-19T14:06:37Z</time>
      </trkpt>
      <trkpt lat="44.22409" lon="3.24233">
        <ele>841.7</ele>
        <time>2020-07-19T14:06:38Z</time>
      </trkpt>
      <trkpt lat="44.2241" lon="3.24234">
        <ele>841.8</ele>
        <time>2020-07-19T14:06:39Z</time>
      </trkpt>
      <trkpt lat="44.22412" lon="3.24236">
        <ele>842.1</ele>
        <time>2020-07-19T14:06:40Z</time>
      </trkpt>
      <trkpt lat="44.22413" lon="3.24237">
        <ele>842.1</ele>
        <time>2020-07-19T14:06:41Z</time>
      </trkpt>
      <trkpt lat="44.22416" lon="3.24239">
        <ele>842.4</ele>
        <time>2020-07-19T14:06:43Z</time>
      </trkpt>
      <trkpt lat="44.22419" lon="3.24241">
        <ele>842.7</ele>
        <time>2020-07-19T14:06:44Z</time>
      </trkpt>
      <trkpt lat="44.22421" lon="3.24243">
        <ele>842.8</ele>
        <time>2020-07-19T14:06:45Z</time>
      </trkpt>
      <trkpt lat="44.22425" lon="3.24246">
        <ele>843</ele>
        <time>2020-07-19T14:06:47Z</time>
      </trkpt>
      <trkpt lat="44.22426" lon="3.24247">
        <ele>843.1</ele>
        <time>2020-07-19T14:06:48Z</time>
      </trkpt>
      <trkpt lat="44.22429" lon="3.24251">
        <ele>843.3</ele>
        <time>2020-07-19T14:06:50Z</time>
      </trkpt>
      <trkpt lat="44.22431" lon="3.24253">
        <ele>843.5</ele>
        <time>2020-07-19T14:06:51Z</time>
      </trkpt>
      <trkpt lat="44.22433" lon="3.24258">
        <ele>843.6</ele>
        <time>2020-07-19T14:06:52Z</time>
      </trkpt>
      <trkpt lat="44.22434" lon="3.24259">
        <ele>843.7</ele>
        <time>2020-07-19T14:06:53Z</time>
      </trkpt>
      <trkpt lat="44.22436" lon="3.24263">
        <ele>843.9</ele>
        <time>2020-07-19T14:06:55Z</time>
      </trkpt>
      <trkpt lat="44.22438" lon="3.24266">
        <ele>844.1</ele>
        <time>2020-07-19T14:06:56Z</time>
      </trkpt>
      <trkpt lat="44.2244" lon="3.2427">
        <ele>844.3</ele>
        <time>2020-07-19T14:06:58Z</time>
      </trkpt>
      <trkpt lat="44.22442" lon="3.24272">
        <ele>844.5</ele>
        <time>2020-07-19T14:06:59Z</time>
      </trkpt>
      <trkpt lat="44.22445" lon="3.24275">
        <ele>844.7</ele>
        <time>2020-07-19T14:07:00Z</time>
      </trkpt>
      <trkpt lat="44.22447" lon="3.24276">
        <ele>845</ele>
        <time>2020-07-19T14:07:01Z</time>
      </trkpt>
      <trkpt lat="44.22448" lon="3.24277">
        <ele>845</ele>
        <time>2020-07-19T14:07:02Z</time>
      </trkpt>
      <trkpt lat="44.22451" lon="3.24279">
        <ele>845.3</ele>
        <time>2020-07-19T14:07:04Z</time>
      </trkpt>
      <trkpt lat="44.22451" lon="3.24279">
        <ele>845.4</ele>
        <time>2020-07-19T14:07:05Z</time>
      </trkpt>
      <trkpt lat="44.22453" lon="3.2428">
        <ele>845.5</ele>
        <time>2020-07-19T14:07:06Z</time>
      </trkpt>
      <trkpt lat="44.22454" lon="3.24281">
        <ele>845.7</ele>
        <time>2020-07-19T14:07:07Z</time>
      </trkpt>
      <trkpt lat="44.22456" lon="3.24283">
        <ele>845.9</ele>
        <time>2020-07-19T14:07:09Z</time>
      </trkpt>
      <trkpt lat="44.22457" lon="3.24283">
        <ele>846</ele>
        <time>2020-07-19T14:07:10Z</time>
      </trkpt>
      <trkpt lat="44.22459" lon="3.24285">
        <ele>846.1</ele>
        <time>2020-07-19T14:07:11Z</time>
      </trkpt>
      <trkpt lat="44.22461" lon="3.24286">
        <ele>846.4</ele>
        <time>2020-07-19T14:07:13Z</time>
      </trkpt>
      <trkpt lat="44.22463" lon="3.24287">
        <ele>846.5</ele>
        <time>2020-07-19T14:07:14Z</time>
      </trkpt>
      <trkpt lat="44.22464" lon="3.24287">
        <ele>846.7</ele>
        <time>2020-07-19T14:07:15Z</time>
      </trkpt>
      <trkpt lat="44.22468" lon="3.24289">
        <ele>847</ele>
        <time>2020-07-19T14:07:17Z</time>
      </trkpt>
      <trkpt lat="44.22469" lon="3.24289">
        <ele>847.1</ele>
        <time>2020-07-19T14:07:18Z</time>
      </trkpt>
      <trkpt lat="44.2247" lon="3.2429">
        <ele>847.2</ele>
        <time>2020-07-19T14:07:19Z</time>
      </trkpt>
      <trkpt lat="44.22472" lon="3.2429">
        <ele>847.4</ele>
        <time>2020-07-19T14:07:20Z</time>
      </trkpt>
      <trkpt lat="44.22473" lon="3.24291">
        <ele>847.5</ele>
        <time>2020-07-19T14:07:21Z</time>
      </trkpt>
      <trkpt lat="44.22475" lon="3.24291">
        <ele>847.7</ele>
        <time>2020-07-19T14:07:23Z</time>
      </trkpt>
      <trkpt lat="44.22477" lon="3.24292">
        <ele>847.9</ele>
        <time>2020-07-19T14:07:24Z</time>
      </trkpt>
      <trkpt lat="44.2248" lon="3.24294">
        <ele>848.2</ele>
        <time>2020-07-19T14:07:26Z</time>
      </trkpt>
      <trkpt lat="44.22484" lon="3.24296">
        <ele>848.5</ele>
        <time>2020-07-19T14:07:28Z</time>
      </trkpt>
      <trkpt lat="44.22487" lon="3.24298">
        <ele>848.9</ele>
        <time>2020-07-19T14:07:29Z</time>
      </trkpt>
      <trkpt lat="44.22487" lon="3.24298">
        <ele>848.9</ele>
        <time>2020-07-19T14:07:30Z</time>
      </trkpt>
      <trkpt lat="44.22489" lon="3.243">
        <ele>849.1</ele>
        <time>2020-07-19T14:07:31Z</time>
      </trkpt>
      <trkpt lat="44.22491" lon="3.24301">
        <ele>849.3</ele>
        <time>2020-07-19T14:07:33Z</time>
      </trkpt>
      <trkpt lat="44.22493" lon="3.24303">
        <ele>849.4</ele>
        <time>2020-07-19T14:07:34Z</time>
      </trkpt>
      <trkpt lat="44.22494" lon="3.24303">
        <ele>849.5</ele>
        <time>2020-07-19T14:07:35Z</time>
      </trkpt>
      <trkpt lat="44.22497" lon="3.24304">
        <ele>849.6</ele>
        <time>2020-07-19T14:07:37Z</time>
      </trkpt>
      <trkpt lat="44.22499" lon="3.24305">
        <ele>849.7</ele>
        <time>2020-07-19T14:07:38Z</time>
      </trkpt>
      <trkpt lat="44.225" lon="3.24305">
        <ele>849.7</ele>
        <time>2020-07-19T14:07:39Z</time>
      </trkpt>
      <trkpt lat="44.22504" lon="3.24306">
        <ele>849.8</ele>
        <time>2020-07-19T14:07:41Z</time>
      </trkpt>
      <trkpt lat="44.22507" lon="3.24307">
        <ele>849.9</ele>
        <time>2020-07-19T14:07:43Z</time>
      </trkpt>
      <trkpt lat="44.22511" lon="3.24308">
        <ele>850.1</ele>
        <time>2020-07-19T14:07:44Z</time>
      </trkpt>
      <trkpt lat="44.22514" lon="3.24309">
        <ele>850.2</ele>
        <time>2020-07-19T14:07:45Z</time>
      </trkpt>
      <trkpt lat="44.22517" lon="3.24311">
        <ele>850.4</ele>
        <time>2020-07-19T14:07:47Z</time>
      </trkpt>
      <trkpt lat="44.22519" lon="3.24311">
        <ele>850.4</ele>
        <time>2020-07-19T14:07:48Z</time>
      </trkpt>
      <trkpt lat="44.22523" lon="3.24313">
        <ele>850.5</ele>
        <time>2020-07-19T14:07:50Z</time>
      </trkpt>
      <trkpt lat="44.22534" lon="3.24317">
        <ele>850.4</ele>
        <time>2020-07-19T14:07:52Z</time>
      </trkpt>
      <trkpt lat="44.22544" lon="3.2432">
        <ele>850.8</ele>
        <time>2020-07-19T14:07:54Z</time>
      </trkpt>
      <trkpt lat="44.22551" lon="3.24322">
        <ele>851.3</ele>
        <time>2020-07-19T14:07:55Z</time>
      </trkpt>
      <trkpt lat="44.22558" lon="3.24326">
        <ele>851.7</ele>
        <time>2020-07-19T14:07:56Z</time>
      </trkpt>
      <trkpt lat="44.22565" lon="3.24329">
        <ele>852.1</ele>
        <time>2020-07-19T14:07:58Z</time>
      </trkpt>
      <trkpt lat="44.22569" lon="3.24331">
        <ele>852.4</ele>
        <time>2020-07-19T14:07:59Z</time>
      </trkpt>
      <trkpt lat="44.22575" lon="3.24335">
        <ele>852.8</ele>
        <time>2020-07-19T14:08:01Z</time>
      </trkpt>
      <trkpt lat="44.22578" lon="3.24337">
        <ele>852.9</ele>
        <time>2020-07-19T14:08:02Z</time>
      </trkpt>
      <trkpt lat="44.22584" lon="3.2434">
        <ele>853.4</ele>
        <time>2020-07-19T14:08:03Z</time>
      </trkpt>
      <trkpt lat="44.22588" lon="3.24341">
        <ele>853.6</ele>
        <time>2020-07-19T14:08:04Z</time>
      </trkpt>
      <trkpt lat="44.22591" lon="3.24342">
        <ele>853.8</ele>
        <time>2020-07-19T14:08:06Z</time>
      </trkpt>
      <trkpt lat="44.22595" lon="3.24344">
        <ele>854.1</ele>
        <time>2020-07-19T14:08:07Z</time>
      </trkpt>
      <trkpt lat="44.22601" lon="3.24346">
        <ele>854.5</ele>
        <time>2020-07-19T14:08:09Z</time>
      </trkpt>
      <trkpt lat="44.22606" lon="3.24347">
        <ele>854.8</ele>
        <time>2020-07-19T14:08:10Z</time>
      </trkpt>
      <trkpt lat="44.2261" lon="3.24349">
        <ele>855.2</ele>
        <time>2020-07-19T14:08:11Z</time>
      </trkpt>
      <trkpt lat="44.22615" lon="3.2435">
        <ele>855.7</ele>
        <time>2020-07-19T14:08:13Z</time>
      </trkpt>
      <trkpt lat="44.22619" lon="3.24352">
        <ele>856.1</ele>
        <time>2020-07-19T14:08:14Z</time>
      </trkpt>
      <trkpt lat="44.22623" lon="3.24354">
        <ele>856.4</ele>
        <time>2020-07-19T14:08:15Z</time>
      </trkpt>
      <trkpt lat="44.22629" lon="3.24358">
        <ele>857</ele>
        <time>2020-07-19T14:08:17Z</time>
      </trkpt>
      <trkpt lat="44.22631" lon="3.24359">
        <ele>857.3</ele>
        <time>2020-07-19T14:08:18Z</time>
      </trkpt>
      <trkpt lat="44.22634" lon="3.24361">
        <ele>857.6</ele>
        <time>2020-07-19T14:08:19Z</time>
      </trkpt>
      <trkpt lat="44.22637" lon="3.24362">
        <ele>858</ele>
        <time>2020-07-19T14:08:21Z</time>
      </trkpt>
      <trkpt lat="44.2264" lon="3.24362">
        <ele>858.3</ele>
        <time>2020-07-19T14:08:23Z</time>
      </trkpt>
      <trkpt lat="44.22643" lon="3.24362">
        <ele>858.6</ele>
        <time>2020-07-19T14:08:24Z</time>
      </trkpt>
      <trkpt lat="44.22645" lon="3.24363">
        <ele>858.9</ele>
        <time>2020-07-19T14:08:25Z</time>
      </trkpt>
      <trkpt lat="44.22648" lon="3.24367">
        <ele>859.2</ele>
        <time>2020-07-19T14:08:27Z</time>
      </trkpt>
      <trkpt lat="44.22651" lon="3.24368">
        <ele>859.5</ele>
        <time>2020-07-19T14:08:28Z</time>
      </trkpt>
      <trkpt lat="44.22652" lon="3.24369">
        <ele>859.6</ele>
        <time>2020-07-19T14:08:29Z</time>
      </trkpt>
      <trkpt lat="44.22654" lon="3.24371">
        <ele>860</ele>
        <time>2020-07-19T14:08:30Z</time>
      </trkpt>
      <trkpt lat="44.22658" lon="3.24372">
        <ele>860.3</ele>
        <time>2020-07-19T14:08:32Z</time>
      </trkpt>
      <trkpt lat="44.22659" lon="3.24373">
        <ele>860.5</ele>
        <time>2020-07-19T14:08:33Z</time>
      </trkpt>
      <trkpt lat="44.22662" lon="3.24374">
        <ele>860.8</ele>
        <time>2020-07-19T14:08:34Z</time>
      </trkpt>
      <trkpt lat="44.22663" lon="3.24375">
        <ele>860.9</ele>
        <time>2020-07-19T14:08:35Z</time>
      </trkpt>
      <trkpt lat="44.22664" lon="3.24375">
        <ele>861.1</ele>
        <time>2020-07-19T14:08:36Z</time>
      </trkpt>
      <trkpt lat="44.22668" lon="3.24375">
        <ele>861.5</ele>
        <time>2020-07-19T14:08:38Z</time>
      </trkpt>
      <trkpt lat="44.22673" lon="3.24376">
        <ele>861.8</ele>
        <time>2020-07-19T14:08:40Z</time>
      </trkpt>
      <trkpt lat="44.22676" lon="3.24378">
        <ele>862.1</ele>
        <time>2020-07-19T14:08:42Z</time>
      </trkpt>
      <trkpt lat="44.22679" lon="3.24379">
        <ele>862.3</ele>
        <time>2020-07-19T14:08:43Z</time>
      </trkpt>
      <trkpt lat="44.22682" lon="3.24381">
        <ele>862.6</ele>
        <time>2020-07-19T14:08:45Z</time>
      </trkpt>
      <trkpt lat="44.22685" lon="3.24382">
        <ele>862.9</ele>
        <time>2020-07-19T14:08:46Z</time>
      </trkpt>
      <trkpt lat="44.22686" lon="3.24382">
        <ele>863</ele>
        <time>2020-07-19T14:08:47Z</time>
      </trkpt>
      <trkpt lat="44.22688" lon="3.24383">
        <ele>863.2</ele>
        <time>2020-07-19T14:08:48Z</time>
      </trkpt>
      <trkpt lat="44.22691" lon="3.24384">
        <ele>863.5</ele>
        <time>2020-07-19T14:08:50Z</time>
      </trkpt>
      <trkpt lat="44.22693" lon="3.24384">
        <ele>863.6</ele>
        <time>2020-07-19T14:08:51Z</time>
      </trkpt>
      <trkpt lat="44.22694" lon="3.24384">
        <ele>863.8</ele>
        <time>2020-07-19T14:08:52Z</time>
      </trkpt>
      <trkpt lat="44.22697" lon="3.24385">
        <ele>864</ele>
        <time>2020-07-19T14:08:53Z</time>
      </trkpt>
      <trkpt lat="44.22699" lon="3.24385">
        <ele>864.2</ele>
        <time>2020-07-19T14:08:55Z</time>
      </trkpt>
      <trkpt lat="44.22701" lon="3.24385">
        <ele>864.3</ele>
        <time>2020-07-19T14:08:56Z</time>
      </trkpt>
      <trkpt lat="44.22702" lon="3.24385">
        <ele>864.4</ele>
        <time>2020-07-19T14:08:57Z</time>
      </trkpt>
      <trkpt lat="44.22702" lon="3.24385">
        <ele>864.4</ele>
        <time>2020-07-19T14:08:58Z</time>
      </trkpt>
      <trkpt lat="44.22703" lon="3.24385">
        <ele>864.4</ele>
        <time>2020-07-19T14:09:00Z</time>
      </trkpt>
      <trkpt lat="44.22703" lon="3.24386">
        <ele>864.4</ele>
        <time>2020-07-19T14:09:01Z</time>
      </trkpt>
      <trkpt lat="44.22703" lon="3.24386">
        <ele>864.5</ele>
        <time>2020-07-19T14:09:02Z</time>
      </trkpt>
      <trkpt lat="44.22703" lon="3.24386">
        <ele>864.5</ele>
        <time>2020-07-19T14:09:03Z</time>
      </trkpt>
      <trkpt lat="44.22703" lon="3.24387">
        <ele>864.5</ele>
        <time>2020-07-19T14:09:05Z</time>
      </trkpt>
      <trkpt lat="44.22703" lon="3.24387">
        <ele>864.5</ele>
        <time>2020-07-19T14:09:07Z</time>
      </trkpt>
      <trkpt lat="44.22703" lon="3.24388">
        <ele>864.5</ele>
        <time>2020-07-19T14:09:09Z</time>
      </trkpt>
      <trkpt lat="44.22703" lon="3.24388">
        <ele>864.6</ele>
        <time>2020-07-19T14:09:20Z</time>
      </trkpt>
      <trkpt lat="44.22704" lon="3.24388">
        <ele>864.6</ele>
        <time>2020-07-19T14:09:21Z</time>
      </trkpt>
      <trkpt lat="44.22704" lon="3.24389">
        <ele>864.6</ele>
        <time>2020-07-19T14:09:23Z</time>
      </trkpt>
      <trkpt lat="44.22704" lon="3.24389">
        <ele>864.6</ele>
        <time>2020-07-19T14:09:25Z</time>
      </trkpt>
      <trkpt lat="44.22704" lon="3.24389">
        <ele>864.6</ele>
        <time>2020-07-19T14:09:27Z</time>
      </trkpt>
      <trkpt lat="44.22704" lon="3.2439">
        <ele>864.6</ele>
        <time>2020-07-19T14:09:28Z</time>
      </trkpt>
      <trkpt lat="44.22704" lon="3.2439">
        <ele>864.6</ele>
        <time>2020-07-19T14:09:30Z</time>
      </trkpt>
      <trkpt lat="44.22704" lon="3.2439">
        <ele>864.7</ele>
        <time>2020-07-19T14:09:31Z</time>
      </trkpt>
      <trkpt lat="44.22704" lon="3.24391">
        <ele>864.7</ele>
        <time>2020-07-19T14:09:32Z</time>
      </trkpt>
      <trkpt lat="44.22705" lon="3.24391">
        <ele>864.7</ele>
        <time>2020-07-19T14:09:34Z</time>
      </trkpt>
      <trkpt lat="44.22705" lon="3.24391">
        <ele>864.7</ele>
        <time>2020-07-19T14:09:35Z</time>
      </trkpt>
      <trkpt lat="44.22705" lon="3.24392">
        <ele>864.7</ele>
        <time>2020-07-19T14:09:36Z</time>
      </trkpt>
      <trkpt lat="44.22705" lon="3.24392">
        <ele>864.7</ele>
        <time>2020-07-19T14:09:37Z</time>
      </trkpt>
      <trkpt lat="44.22705" lon="3.24393">
        <ele>864.8</ele>
        <time>2020-07-19T14:09:38Z</time>
      </trkpt>
      <trkpt lat="44.22705" lon="3.24393">
        <ele>864.8</ele>
        <time>2020-07-19T14:09:40Z</time>
      </trkpt>
      <trkpt lat="44.22705" lon="3.24393">
        <ele>864.8</ele>
        <time>2020-07-19T14:09:42Z</time>
      </trkpt>
      <trkpt lat="44.22705" lon="3.24394">
        <ele>864.8</ele>
        <time>2020-07-19T14:09:44Z</time>
      </trkpt>
      <trkpt lat="44.22706" lon="3.24394">
        <ele>864.8</ele>
        <time>2020-07-19T14:09:45Z</time>
      </trkpt>
      <trkpt lat="44.22706" lon="3.24394">
        <ele>864.8</ele>
        <time>2020-07-19T14:09:46Z</time>
      </trkpt>
      <trkpt lat="44.22706" lon="3.24395">
        <ele>864.8</ele>
        <time>2020-07-19T14:09:47Z</time>
      </trkpt>
      <trkpt lat="44.22708" lon="3.24395">
        <ele>864.9</ele>
        <time>2020-07-19T14:09:48Z</time>
      </trkpt>
      <trkpt lat="44.2271" lon="3.24395">
        <ele>865.1</ele>
        <time>2020-07-19T14:09:50Z</time>
      </trkpt>
      <trkpt lat="44.22712" lon="3.24396">
        <ele>865.2</ele>
        <time>2020-07-19T14:09:51Z</time>
      </trkpt>
      <trkpt lat="44.22716" lon="3.24397">
        <ele>865.5</ele>
        <time>2020-07-19T14:09:53Z</time>
      </trkpt>
      <trkpt lat="44.22719" lon="3.24397">
        <ele>865.8</ele>
        <time>2020-07-19T14:09:54Z</time>
      </trkpt>
      <trkpt lat="44.22724" lon="3.24398">
        <ele>866.3</ele>
        <time>2020-07-19T14:09:55Z</time>
      </trkpt>
      <trkpt lat="44.22731" lon="3.24399">
        <ele>866.9</ele>
        <time>2020-07-19T14:09:57Z</time>
      </trkpt>
      <trkpt lat="44.22735" lon="3.24399">
        <ele>867.2</ele>
        <time>2020-07-19T14:09:58Z</time>
      </trkpt>
      <trkpt lat="44.22738" lon="3.24398">
        <ele>867.5</ele>
        <time>2020-07-19T14:10:00Z</time>
      </trkpt>
      <trkpt lat="44.22742" lon="3.24396">
        <ele>867.8</ele>
        <time>2020-07-19T14:10:01Z</time>
      </trkpt>
      <trkpt lat="44.22744" lon="3.24394">
        <ele>868</ele>
        <time>2020-07-19T14:10:02Z</time>
      </trkpt>
      <trkpt lat="44.22746" lon="3.24393">
        <ele>868.2</ele>
        <time>2020-07-19T14:10:04Z</time>
      </trkpt>
      <trkpt lat="44.22749" lon="3.24391">
        <ele>868.4</ele>
        <time>2020-07-19T14:10:05Z</time>
      </trkpt>
      <trkpt lat="44.22752" lon="3.2439">
        <ele>868.6</ele>
        <time>2020-07-19T14:10:06Z</time>
      </trkpt>
      <trkpt lat="44.22756" lon="3.24388">
        <ele>869</ele>
        <time>2020-07-19T14:10:08Z</time>
      </trkpt>
      <trkpt lat="44.22759" lon="3.24386">
        <ele>869.2</ele>
        <time>2020-07-19T14:10:09Z</time>
      </trkpt>
      <trkpt lat="44.22763" lon="3.24385">
        <ele>869.6</ele>
        <time>2020-07-19T14:10:10Z</time>
      </trkpt>
      <trkpt lat="44.22765" lon="3.24385">
        <ele>869.7</ele>
        <time>2020-07-19T14:10:11Z</time>
      </trkpt>
      <trkpt lat="44.22767" lon="3.24385">
        <ele>869.9</ele>
        <time>2020-07-19T14:10:12Z</time>
      </trkpt>
      <trkpt lat="44.22771" lon="3.24384">
        <ele>870.3</ele>
        <time>2020-07-19T14:10:14Z</time>
      </trkpt>
      <trkpt lat="44.22773" lon="3.24383">
        <ele>870.5</ele>
        <time>2020-07-19T14:10:15Z</time>
      </trkpt>
      <trkpt lat="44.22776" lon="3.24383">
        <ele>870.7</ele>
        <time>2020-07-19T14:10:17Z</time>
      </trkpt>
      <trkpt lat="44.22779" lon="3.24383">
        <ele>871</ele>
        <time>2020-07-19T14:10:18Z</time>
      </trkpt>
      <trkpt lat="44.22781" lon="3.24383">
        <ele>871.1</ele>
        <time>2020-07-19T14:10:19Z</time>
      </trkpt>
      <trkpt lat="44.22783" lon="3.24384">
        <ele>871.4</ele>
        <time>2020-07-19T14:10:21Z</time>
      </trkpt>
      <trkpt lat="44.22785" lon="3.24384">
        <ele>871.5</ele>
        <time>2020-07-19T14:10:22Z</time>
      </trkpt>
      <trkpt lat="44.22787" lon="3.24384">
        <ele>871.6</ele>
        <time>2020-07-19T14:10:23Z</time>
      </trkpt>
      <trkpt lat="44.22789" lon="3.24384">
        <ele>871.9</ele>
        <time>2020-07-19T14:10:25Z</time>
      </trkpt>
      <trkpt lat="44.22791" lon="3.24384">
        <ele>872.1</ele>
        <time>2020-07-19T14:10:26Z</time>
      </trkpt>
      <trkpt lat="44.22793" lon="3.24385">
        <ele>872.3</ele>
        <time>2020-07-19T14:10:27Z</time>
      </trkpt>
      <trkpt lat="44.22795" lon="3.24385">
        <ele>872.5</ele>
        <time>2020-07-19T14:10:28Z</time>
      </trkpt>
      <trkpt lat="44.22796" lon="3.24386">
        <ele>872.7</ele>
        <time>2020-07-19T14:10:29Z</time>
      </trkpt>
      <trkpt lat="44.22799" lon="3.24387">
        <ele>873.1</ele>
        <time>2020-07-19T14:10:30Z</time>
      </trkpt>
      <trkpt lat="44.22802" lon="3.24387">
        <ele>873.3</ele>
        <time>2020-07-19T14:10:31Z</time>
      </trkpt>
      <trkpt lat="44.22804" lon="3.24386">
        <ele>873.6</ele>
        <time>2020-07-19T14:10:33Z</time>
      </trkpt>
      <trkpt lat="44.22808" lon="3.24386">
        <ele>874</ele>
        <time>2020-07-19T14:10:34Z</time>
      </trkpt>
      <trkpt lat="44.22811" lon="3.24385">
        <ele>874.3</ele>
        <time>2020-07-19T14:10:35Z</time>
      </trkpt>
      <trkpt lat="44.22812" lon="3.24385">
        <ele>874.3</ele>
        <time>2020-07-19T14:10:36Z</time>
      </trkpt>
      <trkpt lat="44.22815" lon="3.24384">
        <ele>874.5</ele>
        <time>2020-07-19T14:10:38Z</time>
      </trkpt>
      <trkpt lat="44.22818" lon="3.24383">
        <ele>874.7</ele>
        <time>2020-07-19T14:10:39Z</time>
      </trkpt>
      <trkpt lat="44.22821" lon="3.24382">
        <ele>874.8</ele>
        <time>2020-07-19T14:10:40Z</time>
      </trkpt>
      <trkpt lat="44.22823" lon="3.24382">
        <ele>875</ele>
        <time>2020-07-19T14:10:41Z</time>
      </trkpt>
      <trkpt lat="44.22827" lon="3.24381">
        <ele>875.2</ele>
        <time>2020-07-19T14:10:43Z</time>
      </trkpt>
      <trkpt lat="44.22828" lon="3.2438">
        <ele>875.3</ele>
        <time>2020-07-19T14:10:44Z</time>
      </trkpt>
      <trkpt lat="44.22831" lon="3.2438">
        <ele>875.6</ele>
        <time>2020-07-19T14:10:46Z</time>
      </trkpt>
      <trkpt lat="44.22834" lon="3.24379">
        <ele>875.9</ele>
        <time>2020-07-19T14:10:47Z</time>
      </trkpt>
      <trkpt lat="44.22836" lon="3.24378">
        <ele>876.1</ele>
        <time>2020-07-19T14:10:48Z</time>
      </trkpt>
      <trkpt lat="44.22838" lon="3.24378">
        <ele>876.3</ele>
        <time>2020-07-19T14:10:49Z</time>
      </trkpt>
      <trkpt lat="44.22842" lon="3.24378">
        <ele>876.7</ele>
        <time>2020-07-19T14:10:51Z</time>
      </trkpt>
      <trkpt lat="44.22843" lon="3.24378">
        <ele>876.8</ele>
        <time>2020-07-19T14:10:52Z</time>
      </trkpt>
      <trkpt lat="44.22844" lon="3.24378">
        <ele>877</ele>
        <time>2020-07-19T14:10:53Z</time>
      </trkpt>
      <trkpt lat="44.22846" lon="3.24378">
        <ele>877.2</ele>
        <time>2020-07-19T14:10:54Z</time>
      </trkpt>
      <trkpt lat="44.22851" lon="3.24379">
        <ele>877.8</ele>
        <time>2020-07-19T14:10:56Z</time>
      </trkpt>
      <trkpt lat="44.22852" lon="3.24379">
        <ele>877.9</ele>
        <time>2020-07-19T14:10:57Z</time>
      </trkpt>
      <trkpt lat="44.22853" lon="3.24379">
        <ele>878</ele>
        <time>2020-07-19T14:10:58Z</time>
      </trkpt>
      <trkpt lat="44.22857" lon="3.24379">
        <ele>878.5</ele>
        <time>2020-07-19T14:11:00Z</time>
      </trkpt>
      <trkpt lat="44.22858" lon="3.24379">
        <ele>878.6</ele>
        <time>2020-07-19T14:11:01Z</time>
      </trkpt>
      <trkpt lat="44.2286" lon="3.24378">
        <ele>878.8</ele>
        <time>2020-07-19T14:11:02Z</time>
      </trkpt>
      <trkpt lat="44.22863" lon="3.24378">
        <ele>879.1</ele>
        <time>2020-07-19T14:11:04Z</time>
      </trkpt>
      <trkpt lat="44.22865" lon="3.24377">
        <ele>879.3</ele>
        <time>2020-07-19T14:11:05Z</time>
      </trkpt>
      <trkpt lat="44.22868" lon="3.24376">
        <ele>879.5</ele>
        <time>2020-07-19T14:11:07Z</time>
      </trkpt>
      <trkpt lat="44.22872" lon="3.24376">
        <ele>879.7</ele>
        <time>2020-07-19T14:11:08Z</time>
      </trkpt>
      <trkpt lat="44.22875" lon="3.24374">
        <ele>879.8</ele>
        <time>2020-07-19T14:11:10Z</time>
      </trkpt>
      <trkpt lat="44.22877" lon="3.24372">
        <ele>879.9</ele>
        <time>2020-07-19T14:11:11Z</time>
      </trkpt>
      <trkpt lat="44.22879" lon="3.2437">
        <ele>879.9</ele>
        <time>2020-07-19T14:11:12Z</time>
      </trkpt>
      <trkpt lat="44.22883" lon="3.24366">
        <ele>879.9</ele>
        <time>2020-07-19T14:11:14Z</time>
      </trkpt>
      <trkpt lat="44.22886" lon="3.24362">
        <ele>879.9</ele>
        <time>2020-07-19T14:11:15Z</time>
      </trkpt>
      <trkpt lat="44.22886" lon="3.2436">
        <ele>879.9</ele>
        <time>2020-07-19T14:11:16Z</time>
      </trkpt>
      <trkpt lat="44.22888" lon="3.24356">
        <ele>879.8</ele>
        <time>2020-07-19T14:11:17Z</time>
      </trkpt>
      <trkpt lat="44.2289" lon="3.24351">
        <ele>879.8</ele>
        <time>2020-07-19T14:11:19Z</time>
      </trkpt>
      <trkpt lat="44.22892" lon="3.24345">
        <ele>879.8</ele>
        <time>2020-07-19T14:11:20Z</time>
      </trkpt>
      <trkpt lat="44.22894" lon="3.24339">
        <ele>879.7</ele>
        <time>2020-07-19T14:11:21Z</time>
      </trkpt>
      <trkpt lat="44.22896" lon="3.24334">
        <ele>879.7</ele>
        <time>2020-07-19T14:11:23Z</time>
      </trkpt>
      <trkpt lat="44.22898" lon="3.24328">
        <ele>879.7</ele>
        <time>2020-07-19T14:11:24Z</time>
      </trkpt>
      <trkpt lat="44.22902" lon="3.24321">
        <ele>879.7</ele>
        <time>2020-07-19T14:11:26Z</time>
      </trkpt>
      <trkpt lat="44.22904" lon="3.24316">
        <ele>879.8</ele>
        <time>2020-07-19T14:11:27Z</time>
      </trkpt>
      <trkpt lat="44.22905" lon="3.24312">
        <ele>879.8</ele>
        <time>2020-07-19T14:11:28Z</time>
      </trkpt>
      <trkpt lat="44.22908" lon="3.24306">
        <ele>880</ele>
        <time>2020-07-19T14:11:30Z</time>
      </trkpt>
      <trkpt lat="44.2291" lon="3.24302">
        <ele>880</ele>
        <time>2020-07-19T14:11:32Z</time>
      </trkpt>
      <trkpt lat="44.22912" lon="3.24298">
        <ele>880</ele>
        <time>2020-07-19T14:11:33Z</time>
      </trkpt>
      <trkpt lat="44.22913" lon="3.24297">
        <ele>880</ele>
        <time>2020-07-19T14:11:34Z</time>
      </trkpt>
      <trkpt lat="44.22917" lon="3.24295">
        <ele>879.9</ele>
        <time>2020-07-19T14:11:36Z</time>
      </trkpt>
      <trkpt lat="44.2292" lon="3.24295">
        <ele>879.9</ele>
        <time>2020-07-19T14:11:38Z</time>
      </trkpt>
      <trkpt lat="44.22921" lon="3.24294">
        <ele>879.9</ele>
        <time>2020-07-19T14:11:39Z</time>
      </trkpt>
      <trkpt lat="44.22921" lon="3.24295">
        <ele>879.8</ele>
        <time>2020-07-19T14:11:40Z</time>
      </trkpt>
      <trkpt lat="44.22921" lon="3.24296">
        <ele>879.8</ele>
        <time>2020-07-19T14:11:42Z</time>
      </trkpt>
      <trkpt lat="44.2292" lon="3.24297">
        <ele>879.7</ele>
        <time>2020-07-19T14:11:43Z</time>
      </trkpt>
      <trkpt lat="44.2292" lon="3.24297">
        <ele>879.7</ele>
        <time>2020-07-19T14:11:45Z</time>
      </trkpt>
      <trkpt lat="44.22919" lon="3.24298">
        <ele>879.7</ele>
        <time>2020-07-19T14:11:47Z</time>
      </trkpt>
      <trkpt lat="44.22919" lon="3.24298">
        <ele>879.7</ele>
        <time>2020-07-19T14:11:48Z</time>
      </trkpt>
      <trkpt lat="44.22919" lon="3.24298">
        <ele>879.6</ele>
        <time>2020-07-19T14:11:49Z</time>
      </trkpt>
      <trkpt lat="44.22919" lon="3.24298">
        <ele>879.6</ele>
        <time>2020-07-19T14:11:50Z</time>
      </trkpt>
      <trkpt lat="44.2292" lon="3.24296">
        <ele>879.5</ele>
        <time>2020-07-19T14:14:12Z</time>
      </trkpt>
      <trkpt lat="44.22921" lon="3.24295">
        <ele>879.3</ele>
        <time>2020-07-19T14:14:13Z</time>
      </trkpt>
      <trkpt lat="44.22922" lon="3.24294">
        <ele>879.2</ele>
        <time>2020-07-19T14:14:14Z</time>
      </trkpt>
      <trkpt lat="44.22922" lon="3.24292">
        <ele>879</ele>
        <time>2020-07-19T14:14:16Z</time>
      </trkpt>
      <trkpt lat="44.22931" lon="3.24274">
        <ele>876.7</ele>
        <time>2020-07-19T14:14:17Z</time>
      </trkpt>
      <trkpt lat="44.22939" lon="3.24261">
        <ele>876.1</ele>
        <time>2020-07-19T14:14:19Z</time>
      </trkpt>
      <trkpt lat="44.2295" lon="3.24257">
        <ele>875.3</ele>
        <time>2020-07-19T14:14:21Z</time>
      </trkpt>
      <trkpt lat="44.22962" lon="3.24263">
        <ele>874.4</ele>
        <time>2020-07-19T14:14:23Z</time>
      </trkpt>
      <trkpt lat="44.22975" lon="3.24268">
        <ele>873.4</ele>
        <time>2020-07-19T14:14:25Z</time>
      </trkpt>
      <trkpt lat="44.22981" lon="3.24272">
        <ele>872.7</ele>
        <time>2020-07-19T14:14:26Z</time>
      </trkpt>
      <trkpt lat="44.22995" lon="3.24278">
        <ele>871.3</ele>
        <time>2020-07-19T14:14:28Z</time>
      </trkpt>
      <trkpt lat="44.23009" lon="3.24281">
        <ele>870.3</ele>
        <time>2020-07-19T14:14:30Z</time>
      </trkpt>
      <trkpt lat="44.23016" lon="3.24285">
        <ele>869.8</ele>
        <time>2020-07-19T14:14:31Z</time>
      </trkpt>
      <trkpt lat="44.23022" lon="3.24292">
        <ele>869.3</ele>
        <time>2020-07-19T14:14:32Z</time>
      </trkpt>
      <trkpt lat="44.23034" lon="3.24305">
        <ele>867.8</ele>
        <time>2020-07-19T14:14:34Z</time>
      </trkpt>
      <trkpt lat="44.23049" lon="3.24313">
        <ele>866.8</ele>
        <time>2020-07-19T14:14:36Z</time>
      </trkpt>
      <trkpt lat="44.23064" lon="3.24316">
        <ele>866.1</ele>
        <time>2020-07-19T14:14:38Z</time>
      </trkpt>
      <trkpt lat="44.23071" lon="3.24317">
        <ele>865.7</ele>
        <time>2020-07-19T14:14:39Z</time>
      </trkpt>
      <trkpt lat="44.23079" lon="3.24321">
        <ele>865.2</ele>
        <time>2020-07-19T14:14:40Z</time>
      </trkpt>
      <trkpt lat="44.23086" lon="3.24326">
        <ele>864.8</ele>
        <time>2020-07-19T14:14:41Z</time>
      </trkpt>
      <trkpt lat="44.231" lon="3.24336">
        <ele>864.3</ele>
        <time>2020-07-19T14:14:43Z</time>
      </trkpt>
      <trkpt lat="44.23115" lon="3.24344">
        <ele>864.3</ele>
        <time>2020-07-19T14:14:45Z</time>
      </trkpt>
      <trkpt lat="44.23129" lon="3.2435">
        <ele>864</ele>
        <time>2020-07-19T14:14:47Z</time>
      </trkpt>
      <trkpt lat="44.2314" lon="3.24356">
        <ele>863.7</ele>
        <time>2020-07-19T14:14:49Z</time>
      </trkpt>
      <trkpt lat="44.23153" lon="3.2436">
        <ele>863.8</ele>
        <time>2020-07-19T14:14:51Z</time>
      </trkpt>
      <trkpt lat="44.23159" lon="3.24354">
        <ele>864.4</ele>
        <time>2020-07-19T14:14:53Z</time>
      </trkpt>
      <trkpt lat="44.23163" lon="3.24351">
        <ele>864.8</ele>
        <time>2020-07-19T14:14:55Z</time>
      </trkpt>
      <trkpt lat="44.23165" lon="3.2435">
        <ele>865</ele>
        <time>2020-07-19T14:14:56Z</time>
      </trkpt>
      <trkpt lat="44.23168" lon="3.24348">
        <ele>865.3</ele>
        <time>2020-07-19T14:14:58Z</time>
      </trkpt>
      <trkpt lat="44.23171" lon="3.24346">
        <ele>865.6</ele>
        <time>2020-07-19T14:14:59Z</time>
      </trkpt>
      <trkpt lat="44.23174" lon="3.24344">
        <ele>865.8</ele>
        <time>2020-07-19T14:15:00Z</time>
      </trkpt>
      <trkpt lat="44.23175" lon="3.24343">
        <ele>865.9</ele>
        <time>2020-07-19T14:15:02Z</time>
      </trkpt>
      <trkpt lat="44.23176" lon="3.24343">
        <ele>866</ele>
        <time>2020-07-19T14:15:03Z</time>
      </trkpt>
      <trkpt lat="44.23177" lon="3.24344">
        <ele>866.1</ele>
        <time>2020-07-19T14:15:04Z</time>
      </trkpt>
      <trkpt lat="44.23179" lon="3.24344">
        <ele>866.2</ele>
        <time>2020-07-19T14:15:06Z</time>
      </trkpt>
      <trkpt lat="44.23181" lon="3.24344">
        <ele>866.3</ele>
        <time>2020-07-19T14:15:07Z</time>
      </trkpt>
      <trkpt lat="44.23182" lon="3.24344">
        <ele>866.4</ele>
        <time>2020-07-19T14:15:09Z</time>
      </trkpt>
      <trkpt lat="44.23187" lon="3.24343">
        <ele>866.8</ele>
        <time>2020-07-19T14:15:10Z</time>
      </trkpt>
      <trkpt lat="44.23192" lon="3.24344">
        <ele>867.3</ele>
        <time>2020-07-19T14:15:11Z</time>
      </trkpt>
      <trkpt lat="44.23197" lon="3.24344">
        <ele>867.7</ele>
        <time>2020-07-19T14:15:13Z</time>
      </trkpt>
      <trkpt lat="44.23202" lon="3.24342">
        <ele>868.1</ele>
        <time>2020-07-19T14:15:15Z</time>
      </trkpt>
      <trkpt lat="44.23204" lon="3.2434">
        <ele>868.2</ele>
        <time>2020-07-19T14:15:16Z</time>
      </trkpt>
      <trkpt lat="44.23207" lon="3.24338">
        <ele>868.4</ele>
        <time>2020-07-19T14:15:17Z</time>
      </trkpt>
      <trkpt lat="44.23211" lon="3.24335">
        <ele>868.5</ele>
        <time>2020-07-19T14:15:19Z</time>
      </trkpt>
      <trkpt lat="44.23215" lon="3.24333">
        <ele>868.6</ele>
        <time>2020-07-19T14:15:20Z</time>
      </trkpt>
      <trkpt lat="44.23219" lon="3.24331">
        <ele>868.6</ele>
        <time>2020-07-19T14:15:21Z</time>
      </trkpt>
      <trkpt lat="44.23225" lon="3.24329">
        <ele>868.4</ele>
        <time>2020-07-19T14:15:23Z</time>
      </trkpt>
      <trkpt lat="44.23232" lon="3.24327">
        <ele>868.3</ele>
        <time>2020-07-19T14:15:25Z</time>
      </trkpt>
      <trkpt lat="44.23238" lon="3.24326">
        <ele>868.1</ele>
        <time>2020-07-19T14:15:26Z</time>
      </trkpt>
      <trkpt lat="44.23243" lon="3.24325">
        <ele>868</ele>
        <time>2020-07-19T14:15:27Z</time>
      </trkpt>
      <trkpt lat="44.23249" lon="3.24325">
        <ele>867.9</ele>
        <time>2020-07-19T14:15:29Z</time>
      </trkpt>
      <trkpt lat="44.23254" lon="3.24326">
        <ele>867.9</ele>
        <time>2020-07-19T14:15:30Z</time>
      </trkpt>
      <trkpt lat="44.23261" lon="3.24327">
        <ele>868</ele>
        <time>2020-07-19T14:15:31Z</time>
      </trkpt>
      <trkpt lat="44.23267" lon="3.24329">
        <ele>868.1</ele>
        <time>2020-07-19T14:15:33Z</time>
      </trkpt>
      <trkpt lat="44.23272" lon="3.2433">
        <ele>868.3</ele>
        <time>2020-07-19T14:15:34Z</time>
      </trkpt>
      <trkpt lat="44.23276" lon="3.24332">
        <ele>868.4</ele>
        <time>2020-07-19T14:15:35Z</time>
      </trkpt>
      <trkpt lat="44.23281" lon="3.24337">
        <ele>868.6</ele>
        <time>2020-07-19T14:15:37Z</time>
      </trkpt>
      <trkpt lat="44.23286" lon="3.2434">
        <ele>868.7</ele>
        <time>2020-07-19T14:15:38Z</time>
      </trkpt>
      <trkpt lat="44.2329" lon="3.24342">
        <ele>868.7</ele>
        <time>2020-07-19T14:15:40Z</time>
      </trkpt>
      <trkpt lat="44.23296" lon="3.24345">
        <ele>868.6</ele>
        <time>2020-07-19T14:15:41Z</time>
      </trkpt>
      <trkpt lat="44.23302" lon="3.24348">
        <ele>868.5</ele>
        <time>2020-07-19T14:15:43Z</time>
      </trkpt>
      <trkpt lat="44.23309" lon="3.24351">
        <ele>868.4</ele>
        <time>2020-07-19T14:15:45Z</time>
      </trkpt>
      <trkpt lat="44.23316" lon="3.24354">
        <ele>868.3</ele>
        <time>2020-07-19T14:15:46Z</time>
      </trkpt>
      <trkpt lat="44.23321" lon="3.24356">
        <ele>868.3</ele>
        <time>2020-07-19T14:15:47Z</time>
      </trkpt>
      <trkpt lat="44.23328" lon="3.24358">
        <ele>868.2</ele>
        <time>2020-07-19T14:15:49Z</time>
      </trkpt>
      <trkpt lat="44.23335" lon="3.2436">
        <ele>868.2</ele>
        <time>2020-07-19T14:15:51Z</time>
      </trkpt>
      <trkpt lat="44.23341" lon="3.24361">
        <ele>868.3</ele>
        <time>2020-07-19T14:15:52Z</time>
      </trkpt>
      <trkpt lat="44.23346" lon="3.24362">
        <ele>868.5</ele>
        <time>2020-07-19T14:15:53Z</time>
      </trkpt>
      <trkpt lat="44.23351" lon="3.24361">
        <ele>868.7</ele>
        <time>2020-07-19T14:15:54Z</time>
      </trkpt>
      <trkpt lat="44.23355" lon="3.2436">
        <ele>868.9</ele>
        <time>2020-07-19T14:15:55Z</time>
      </trkpt>
      <trkpt lat="44.23359" lon="3.24358">
        <ele>869.1</ele>
        <time>2020-07-19T14:15:57Z</time>
      </trkpt>
      <trkpt lat="44.23361" lon="3.24357">
        <ele>869.2</ele>
        <time>2020-07-19T14:15:58Z</time>
      </trkpt>
      <trkpt lat="44.23365" lon="3.24356">
        <ele>869.4</ele>
        <time>2020-07-19T14:15:59Z</time>
      </trkpt>
      <trkpt lat="44.23368" lon="3.24355">
        <ele>869.5</ele>
        <time>2020-07-19T14:16:00Z</time>
      </trkpt>
      <trkpt lat="44.23371" lon="3.24354">
        <ele>869.6</ele>
        <time>2020-07-19T14:16:01Z</time>
      </trkpt>
      <trkpt lat="44.23376" lon="3.24352">
        <ele>869.7</ele>
        <time>2020-07-19T14:16:03Z</time>
      </trkpt>
      <trkpt lat="44.23379" lon="3.24351">
        <ele>869.8</ele>
        <time>2020-07-19T14:16:04Z</time>
      </trkpt>
      <trkpt lat="44.23383" lon="3.24349">
        <ele>869.9</ele>
        <time>2020-07-19T14:16:05Z</time>
      </trkpt>
      <trkpt lat="44.23389" lon="3.24346">
        <ele>870</ele>
        <time>2020-07-19T14:16:07Z</time>
      </trkpt>
      <trkpt lat="44.23393" lon="3.24344">
        <ele>870</ele>
        <time>2020-07-19T14:16:09Z</time>
      </trkpt>
      <trkpt lat="44.23396" lon="3.24343">
        <ele>870</ele>
        <time>2020-07-19T14:16:10Z</time>
      </trkpt>
      <trkpt lat="44.23401" lon="3.2434">
        <ele>869.9</ele>
        <time>2020-07-19T14:16:11Z</time>
      </trkpt>
      <trkpt lat="44.23406" lon="3.24338">
        <ele>869.9</ele>
        <time>2020-07-19T14:16:13Z</time>
      </trkpt>
      <trkpt lat="44.23411" lon="3.24337">
        <ele>869.8</ele>
        <time>2020-07-19T14:16:14Z</time>
      </trkpt>
      <trkpt lat="44.23418" lon="3.24336">
        <ele>869.6</ele>
        <time>2020-07-19T14:16:15Z</time>
      </trkpt>
      <trkpt lat="44.23421" lon="3.24335">
        <ele>869.5</ele>
        <time>2020-07-19T14:16:16Z</time>
      </trkpt>
      <trkpt lat="44.23433" lon="3.24331">
        <ele>869.1</ele>
        <time>2020-07-19T14:16:18Z</time>
      </trkpt>
      <trkpt lat="44.23438" lon="3.2433">
        <ele>868.9</ele>
        <time>2020-07-19T14:16:19Z</time>
      </trkpt>
      <trkpt lat="44.23443" lon="3.24329">
        <ele>868.8</ele>
        <time>2020-07-19T14:16:20Z</time>
      </trkpt>
      <trkpt lat="44.23454" lon="3.24328">
        <ele>868.8</ele>
        <time>2020-07-19T14:16:22Z</time>
      </trkpt>
      <trkpt lat="44.23459" lon="3.24327">
        <ele>868.8</ele>
        <time>2020-07-19T14:16:23Z</time>
      </trkpt>
      <trkpt lat="44.23469" lon="3.24324">
        <ele>868.8</ele>
        <time>2020-07-19T14:16:25Z</time>
      </trkpt>
      <trkpt lat="44.23474" lon="3.24323">
        <ele>868.9</ele>
        <time>2020-07-19T14:16:26Z</time>
      </trkpt>
      <trkpt lat="44.23485" lon="3.24321">
        <ele>869</ele>
        <time>2020-07-19T14:16:28Z</time>
      </trkpt>
      <trkpt lat="44.23489" lon="3.24319">
        <ele>869</ele>
        <time>2020-07-19T14:16:29Z</time>
      </trkpt>
      <trkpt lat="44.23498" lon="3.24315">
        <ele>869</ele>
        <time>2020-07-19T14:16:31Z</time>
      </trkpt>
      <trkpt lat="44.23502" lon="3.24313">
        <ele>869.1</ele>
        <time>2020-07-19T14:16:32Z</time>
      </trkpt>
      <trkpt lat="44.23507" lon="3.24311">
        <ele>869.2</ele>
        <time>2020-07-19T14:16:33Z</time>
      </trkpt>
      <trkpt lat="44.23511" lon="3.2431">
        <ele>869.2</ele>
        <time>2020-07-19T14:16:34Z</time>
      </trkpt>
      <trkpt lat="44.2352" lon="3.24306">
        <ele>869.3</ele>
        <time>2020-07-19T14:16:36Z</time>
      </trkpt>
      <trkpt lat="44.2353" lon="3.24303">
        <ele>869.4</ele>
        <time>2020-07-19T14:16:38Z</time>
      </trkpt>
      <trkpt lat="44.23538" lon="3.24301">
        <ele>869.5</ele>
        <time>2020-07-19T14:16:40Z</time>
      </trkpt>
      <trkpt lat="44.23548" lon="3.24299">
        <ele>869.6</ele>
        <time>2020-07-19T14:16:42Z</time>
      </trkpt>
      <trkpt lat="44.23556" lon="3.24299">
        <ele>869.8</ele>
        <time>2020-07-19T14:16:44Z</time>
      </trkpt>
      <trkpt lat="44.23562" lon="3.24302">
        <ele>870</ele>
        <time>2020-07-19T14:16:46Z</time>
      </trkpt>
      <trkpt lat="44.23566" lon="3.24301">
        <ele>870.1</ele>
        <time>2020-07-19T14:16:47Z</time>
      </trkpt>
      <trkpt lat="44.2357" lon="3.24301">
        <ele>870.2</ele>
        <time>2020-07-19T14:16:48Z</time>
      </trkpt>
      <trkpt lat="44.23575" lon="3.243">
        <ele>870.3</ele>
        <time>2020-07-19T14:16:49Z</time>
      </trkpt>
      <trkpt lat="44.2358" lon="3.243">
        <ele>870.3</ele>
        <time>2020-07-19T14:16:50Z</time>
      </trkpt>
      <trkpt lat="44.23585" lon="3.24299">
        <ele>870.3</ele>
        <time>2020-07-19T14:16:52Z</time>
      </trkpt>
      <trkpt lat="44.2359" lon="3.24299">
        <ele>870.3</ele>
        <time>2020-07-19T14:16:53Z</time>
      </trkpt>
      <trkpt lat="44.23598" lon="3.24299">
        <ele>870.2</ele>
        <time>2020-07-19T14:16:54Z</time>
      </trkpt>
      <trkpt lat="44.23602" lon="3.243">
        <ele>870.2</ele>
        <time>2020-07-19T14:16:55Z</time>
      </trkpt>
      <trkpt lat="44.23612" lon="3.243">
        <ele>870.1</ele>
        <time>2020-07-19T14:16:57Z</time>
      </trkpt>
      <trkpt lat="44.23622" lon="3.243">
        <ele>870</ele>
        <time>2020-07-19T14:16:59Z</time>
      </trkpt>
      <trkpt lat="44.23627" lon="3.243">
        <ele>870</ele>
        <time>2020-07-19T14:17:00Z</time>
      </trkpt>
      <trkpt lat="44.23632" lon="3.24301">
        <ele>870</ele>
        <time>2020-07-19T14:17:01Z</time>
      </trkpt>
      <trkpt lat="44.23642" lon="3.24302">
        <ele>870.1</ele>
        <time>2020-07-19T14:17:03Z</time>
      </trkpt>
      <trkpt lat="44.23652" lon="3.24302">
        <ele>870.3</ele>
        <time>2020-07-19T14:17:05Z</time>
      </trkpt>
      <trkpt lat="44.23658" lon="3.24301">
        <ele>870.5</ele>
        <time>2020-07-19T14:17:07Z</time>
      </trkpt>
      <trkpt lat="44.23662" lon="3.24303">
        <ele>870.6</ele>
        <time>2020-07-19T14:17:08Z</time>
      </trkpt>
      <trkpt lat="44.23669" lon="3.24302">
        <ele>870.7</ele>
        <time>2020-07-19T14:17:10Z</time>
      </trkpt>
      <trkpt lat="44.23675" lon="3.243">
        <ele>870.8</ele>
        <time>2020-07-19T14:17:11Z</time>
      </trkpt>
      <trkpt lat="44.2368" lon="3.24299">
        <ele>870.9</ele>
        <time>2020-07-19T14:17:12Z</time>
      </trkpt>
      <trkpt lat="44.23685" lon="3.24298">
        <ele>870.9</ele>
        <time>2020-07-19T14:17:14Z</time>
      </trkpt>
      <trkpt lat="44.23689" lon="3.24298">
        <ele>871</ele>
        <time>2020-07-19T14:17:15Z</time>
      </trkpt>
      <trkpt lat="44.23695" lon="3.24299">
        <ele>871.1</ele>
        <time>2020-07-19T14:17:16Z</time>
      </trkpt>
      <trkpt lat="44.23698" lon="3.24299">
        <ele>871.1</ele>
        <time>2020-07-19T14:17:17Z</time>
      </trkpt>
      <trkpt lat="44.23706" lon="3.24298">
        <ele>871.1</ele>
        <time>2020-07-19T14:17:19Z</time>
      </trkpt>
      <trkpt lat="44.23712" lon="3.24298">
        <ele>871.2</ele>
        <time>2020-07-19T14:17:20Z</time>
      </trkpt>
      <trkpt lat="44.23718" lon="3.24298">
        <ele>871.3</ele>
        <time>2020-07-19T14:17:22Z</time>
      </trkpt>
      <trkpt lat="44.23723" lon="3.24298">
        <ele>871.4</ele>
        <time>2020-07-19T14:17:24Z</time>
      </trkpt>
      <trkpt lat="44.23728" lon="3.24298">
        <ele>871.4</ele>
        <time>2020-07-19T14:17:25Z</time>
      </trkpt>
      <trkpt lat="44.23733" lon="3.24298">
        <ele>871.3</ele>
        <time>2020-07-19T14:17:26Z</time>
      </trkpt>
      <trkpt lat="44.23738" lon="3.24298">
        <ele>871.3</ele>
        <time>2020-07-19T14:17:27Z</time>
      </trkpt>
      <trkpt lat="44.23746" lon="3.24297">
        <ele>871.2</ele>
        <time>2020-07-19T14:17:28Z</time>
      </trkpt>
      <trkpt lat="44.23756" lon="3.24296">
        <ele>870.8</ele>
        <time>2020-07-19T14:17:30Z</time>
      </trkpt>
      <trkpt lat="44.23765" lon="3.24294">
        <ele>870.5</ele>
        <time>2020-07-19T14:17:32Z</time>
      </trkpt>
      <trkpt lat="44.2377" lon="3.24293">
        <ele>870.3</ele>
        <time>2020-07-19T14:17:33Z</time>
      </trkpt>
      <trkpt lat="44.23775" lon="3.24291">
        <ele>870.2</ele>
        <time>2020-07-19T14:17:34Z</time>
      </trkpt>
      <trkpt lat="44.2378" lon="3.24288">
        <ele>869.9</ele>
        <time>2020-07-19T14:17:35Z</time>
      </trkpt>
      <trkpt lat="44.23787" lon="3.24283">
        <ele>869.3</ele>
        <time>2020-07-19T14:17:37Z</time>
      </trkpt>
      <trkpt lat="44.23788" lon="3.24279">
        <ele>869.2</ele>
        <time>2020-07-19T14:17:38Z</time>
      </trkpt>
      <trkpt lat="44.23793" lon="3.24276">
        <ele>869</ele>
        <time>2020-07-19T14:17:40Z</time>
      </trkpt>
      <trkpt lat="44.23802" lon="3.24269">
        <ele>868.6</ele>
        <time>2020-07-19T14:17:41Z</time>
      </trkpt>
      <trkpt lat="44.2381" lon="3.2426">
        <ele>868.2</ele>
        <time>2020-07-19T14:17:43Z</time>
      </trkpt>
      <trkpt lat="44.23815" lon="3.24256">
        <ele>868</ele>
        <time>2020-07-19T14:17:44Z</time>
      </trkpt>
      <trkpt lat="44.23823" lon="3.24247">
        <ele>867.5</ele>
        <time>2020-07-19T14:17:46Z</time>
      </trkpt>
      <trkpt lat="44.23828" lon="3.24243">
        <ele>867.3</ele>
        <time>2020-07-19T14:17:47Z</time>
      </trkpt>
      <trkpt lat="44.23834" lon="3.24238">
        <ele>867.2</ele>
        <time>2020-07-19T14:17:48Z</time>
      </trkpt>
      <trkpt lat="44.2384" lon="3.24234">
        <ele>867</ele>
        <time>2020-07-19T14:17:49Z</time>
      </trkpt>
      <trkpt lat="44.23845" lon="3.2423">
        <ele>866.9</ele>
        <time>2020-07-19T14:17:50Z</time>
      </trkpt>
      <trkpt lat="44.23857" lon="3.24224">
        <ele>866.7</ele>
        <time>2020-07-19T14:17:52Z</time>
      </trkpt>
      <trkpt lat="44.23862" lon="3.2422">
        <ele>866.6</ele>
        <time>2020-07-19T14:17:53Z</time>
      </trkpt>
      <trkpt lat="44.23868" lon="3.24216">
        <ele>866.4</ele>
        <time>2020-07-19T14:17:54Z</time>
      </trkpt>
      <trkpt lat="44.23874" lon="3.24212">
        <ele>866.2</ele>
        <time>2020-07-19T14:17:55Z</time>
      </trkpt>
      <trkpt lat="44.23885" lon="3.24202">
        <ele>865.7</ele>
        <time>2020-07-19T14:17:57Z</time>
      </trkpt>
      <trkpt lat="44.23891" lon="3.24197">
        <ele>865.3</ele>
        <time>2020-07-19T14:17:58Z</time>
      </trkpt>
      <trkpt lat="44.23897" lon="3.24193">
        <ele>865</ele>
        <time>2020-07-19T14:17:59Z</time>
      </trkpt>
      <trkpt lat="44.23904" lon="3.24191">
        <ele>864.5</ele>
        <time>2020-07-19T14:18:00Z</time>
      </trkpt>
      <trkpt lat="44.23917" lon="3.2419">
        <ele>863.5</ele>
        <time>2020-07-19T14:18:02Z</time>
      </trkpt>
      <trkpt lat="44.23931" lon="3.24192">
        <ele>862.4</ele>
        <time>2020-07-19T14:18:04Z</time>
      </trkpt>
      <trkpt lat="44.23938" lon="3.24193">
        <ele>861.8</ele>
        <time>2020-07-19T14:18:05Z</time>
      </trkpt>
      <trkpt lat="44.23953" lon="3.24191">
        <ele>861.1</ele>
        <time>2020-07-19T14:18:07Z</time>
      </trkpt>
      <trkpt lat="44.23961" lon="3.24191">
        <ele>860.9</ele>
        <time>2020-07-19T14:18:08Z</time>
      </trkpt>
      <trkpt lat="44.23975" lon="3.24192">
        <ele>860.5</ele>
        <time>2020-07-19T14:18:10Z</time>
      </trkpt>
      <trkpt lat="44.23987" lon="3.24184">
        <ele>860.3</ele>
        <time>2020-07-19T14:18:12Z</time>
      </trkpt>
      <trkpt lat="44.23997" lon="3.24174">
        <ele>859.9</ele>
        <time>2020-07-19T14:18:14Z</time>
      </trkpt>
      <trkpt lat="44.24008" lon="3.24166">
        <ele>859.3</ele>
        <time>2020-07-19T14:18:16Z</time>
      </trkpt>
      <trkpt lat="44.24013" lon="3.2416">
        <ele>859</ele>
        <time>2020-07-19T14:18:17Z</time>
      </trkpt>
      <trkpt lat="44.2402" lon="3.24146">
        <ele>858.3</ele>
        <time>2020-07-19T14:18:19Z</time>
      </trkpt>
      <trkpt lat="44.24028" lon="3.24137">
        <ele>857.8</ele>
        <time>2020-07-19T14:18:21Z</time>
      </trkpt>
      <trkpt lat="44.24036" lon="3.24133">
        <ele>857.4</ele>
        <time>2020-07-19T14:18:23Z</time>
      </trkpt>
      <trkpt lat="44.24041" lon="3.24131">
        <ele>856.9</ele>
        <time>2020-07-19T14:18:24Z</time>
      </trkpt>
      <trkpt lat="44.24048" lon="3.24128">
        <ele>856</ele>
        <time>2020-07-19T14:18:26Z</time>
      </trkpt>
      <trkpt lat="44.24052" lon="3.24126">
        <ele>856</ele>
        <time>2020-07-19T14:18:27Z</time>
      </trkpt>
      <trkpt lat="44.24055" lon="3.24124">
        <ele>855.9</ele>
        <time>2020-07-19T14:18:28Z</time>
      </trkpt>
      <trkpt lat="44.24061" lon="3.24123">
        <ele>855.8</ele>
        <time>2020-07-19T14:18:30Z</time>
      </trkpt>
      <trkpt lat="44.24063" lon="3.24124">
        <ele>855.8</ele>
        <time>2020-07-19T14:18:31Z</time>
      </trkpt>
      <trkpt lat="44.24063" lon="3.24127">
        <ele>855.8</ele>
        <time>2020-07-19T14:18:32Z</time>
      </trkpt>
      <trkpt lat="44.24066" lon="3.24123">
        <ele>855.8</ele>
        <time>2020-07-19T14:18:34Z</time>
      </trkpt>
      <trkpt lat="44.24067" lon="3.24122">
        <ele>855.8</ele>
        <time>2020-07-19T14:18:35Z</time>
      </trkpt>
      <trkpt lat="44.2407" lon="3.24121">
        <ele>855.8</ele>
        <time>2020-07-19T14:18:37Z</time>
      </trkpt>
      <trkpt lat="44.24072" lon="3.24119">
        <ele>856</ele>
        <time>2020-07-19T14:18:38Z</time>
      </trkpt>
      <trkpt lat="44.24073" lon="3.24118">
        <ele>856.1</ele>
        <time>2020-07-19T14:18:39Z</time>
      </trkpt>
      <trkpt lat="44.24079" lon="3.24116">
        <ele>856.4</ele>
        <time>2020-07-19T14:18:41Z</time>
      </trkpt>
      <trkpt lat="44.24081" lon="3.24115">
        <ele>856.6</ele>
        <time>2020-07-19T14:18:42Z</time>
      </trkpt>
      <trkpt lat="44.24085" lon="3.24114">
        <ele>856.7</ele>
        <time>2020-07-19T14:18:43Z</time>
      </trkpt>
      <trkpt lat="44.24088" lon="3.24113">
        <ele>856.9</ele>
        <time>2020-07-19T14:18:44Z</time>
      </trkpt>
      <trkpt lat="44.24092" lon="3.24113">
        <ele>857.1</ele>
        <time>2020-07-19T14:18:46Z</time>
      </trkpt>
      <trkpt lat="44.24094" lon="3.24113">
        <ele>857.2</ele>
        <time>2020-07-19T14:18:47Z</time>
      </trkpt>
      <trkpt lat="44.24099" lon="3.24113">
        <ele>857.5</ele>
        <time>2020-07-19T14:18:49Z</time>
      </trkpt>
      <trkpt lat="44.24102" lon="3.24113">
        <ele>857.7</ele>
        <time>2020-07-19T14:18:50Z</time>
      </trkpt>
      <trkpt lat="44.24105" lon="3.24112">
        <ele>857.9</ele>
        <time>2020-07-19T14:18:52Z</time>
      </trkpt>
      <trkpt lat="44.24109" lon="3.24113">
        <ele>858.1</ele>
        <time>2020-07-19T14:18:53Z</time>
      </trkpt>
      <trkpt lat="44.24114" lon="3.24113">
        <ele>858.5</ele>
        <time>2020-07-19T14:18:55Z</time>
      </trkpt>
      <trkpt lat="44.24117" lon="3.24113">
        <ele>858.7</ele>
        <time>2020-07-19T14:18:56Z</time>
      </trkpt>
      <trkpt lat="44.24119" lon="3.24113">
        <ele>858.8</ele>
        <time>2020-07-19T14:18:57Z</time>
      </trkpt>
      <trkpt lat="44.24123" lon="3.24114">
        <ele>859.1</ele>
        <time>2020-07-19T14:18:59Z</time>
      </trkpt>
      <trkpt lat="44.24127" lon="3.24116">
        <ele>859.4</ele>
        <time>2020-07-19T14:19:01Z</time>
      </trkpt>
      <trkpt lat="44.24132" lon="3.24118">
        <ele>859.7</ele>
        <time>2020-07-19T14:19:03Z</time>
      </trkpt>
      <trkpt lat="44.24135" lon="3.2412">
        <ele>860</ele>
        <time>2020-07-19T14:19:04Z</time>
      </trkpt>
      <trkpt lat="44.24136" lon="3.24121">
        <ele>860</ele>
        <time>2020-07-19T14:19:05Z</time>
      </trkpt>
      <trkpt lat="44.24138" lon="3.24123">
        <ele>860.2</ele>
        <time>2020-07-19T14:19:06Z</time>
      </trkpt>
      <trkpt lat="44.24141" lon="3.24126">
        <ele>860.4</ele>
        <time>2020-07-19T14:19:08Z</time>
      </trkpt>
      <trkpt lat="44.24143" lon="3.24128">
        <ele>860.5</ele>
        <time>2020-07-19T14:19:09Z</time>
      </trkpt>
      <trkpt lat="44.24147" lon="3.24131">
        <ele>860.7</ele>
        <time>2020-07-19T14:19:11Z</time>
      </trkpt>
      <trkpt lat="44.24149" lon="3.24134">
        <ele>860.8</ele>
        <time>2020-07-19T14:19:12Z</time>
      </trkpt>
      <trkpt lat="44.24151" lon="3.24135">
        <ele>860.8</ele>
        <time>2020-07-19T14:19:13Z</time>
      </trkpt>
      <trkpt lat="44.24155" lon="3.24138">
        <ele>861</ele>
        <time>2020-07-19T14:19:15Z</time>
      </trkpt>
      <trkpt lat="44.24156" lon="3.2414">
        <ele>861</ele>
        <time>2020-07-19T14:19:16Z</time>
      </trkpt>
      <trkpt lat="44.24159" lon="3.24143">
        <ele>861.1</ele>
        <time>2020-07-19T14:19:18Z</time>
      </trkpt>
      <trkpt lat="44.24162" lon="3.24146">
        <ele>861.2</ele>
        <time>2020-07-19T14:19:20Z</time>
      </trkpt>
      <trkpt lat="44.24166" lon="3.24149">
        <ele>861.3</ele>
        <time>2020-07-19T14:19:22Z</time>
      </trkpt>
      <trkpt lat="44.24169" lon="3.24152">
        <ele>861.4</ele>
        <time>2020-07-19T14:19:23Z</time>
      </trkpt>
      <trkpt lat="44.2417" lon="3.24153">
        <ele>861.4</ele>
        <time>2020-07-19T14:19:24Z</time>
      </trkpt>
      <trkpt lat="44.24172" lon="3.24155">
        <ele>861.4</ele>
        <time>2020-07-19T14:19:25Z</time>
      </trkpt>
      <trkpt lat="44.24176" lon="3.24158">
        <ele>861.4</ele>
        <time>2020-07-19T14:19:27Z</time>
      </trkpt>
      <trkpt lat="44.24181" lon="3.24163">
        <ele>861.5</ele>
        <time>2020-07-19T14:19:29Z</time>
      </trkpt>
      <trkpt lat="44.24183" lon="3.24165">
        <ele>861.6</ele>
        <time>2020-07-19T14:19:30Z</time>
      </trkpt>
      <trkpt lat="44.24186" lon="3.24167">
        <ele>861.6</ele>
        <time>2020-07-19T14:19:31Z</time>
      </trkpt>
      <trkpt lat="44.2419" lon="3.2417">
        <ele>861.7</ele>
        <time>2020-07-19T14:19:32Z</time>
      </trkpt>
      <trkpt lat="44.24195" lon="3.24175">
        <ele>861.8</ele>
        <time>2020-07-19T14:19:34Z</time>
      </trkpt>
      <trkpt lat="44.24197" lon="3.24177">
        <ele>861.8</ele>
        <time>2020-07-19T14:19:35Z</time>
      </trkpt>
      <trkpt lat="44.24205" lon="3.24186">
        <ele>861.8</ele>
        <time>2020-07-19T14:19:37Z</time>
      </trkpt>
      <trkpt lat="44.24209" lon="3.24189">
        <ele>861.7</ele>
        <time>2020-07-19T14:19:38Z</time>
      </trkpt>
      <trkpt lat="44.24212" lon="3.24191">
        <ele>861.7</ele>
        <time>2020-07-19T14:19:39Z</time>
      </trkpt>
      <trkpt lat="44.24219" lon="3.24197">
        <ele>861.5</ele>
        <time>2020-07-19T14:19:41Z</time>
      </trkpt>
      <trkpt lat="44.24222" lon="3.24199">
        <ele>861.5</ele>
        <time>2020-07-19T14:19:42Z</time>
      </trkpt>
      <trkpt lat="44.24231" lon="3.24207">
        <ele>861.3</ele>
        <time>2020-07-19T14:19:44Z</time>
      </trkpt>
      <trkpt lat="44.24235" lon="3.24213">
        <ele>861.2</ele>
        <time>2020-07-19T14:19:45Z</time>
      </trkpt>
      <trkpt lat="44.2424" lon="3.2422">
        <ele>861.1</ele>
        <time>2020-07-19T14:19:46Z</time>
      </trkpt>
      <trkpt lat="44.2425" lon="3.2423">
        <ele>860.8</ele>
        <time>2020-07-19T14:19:48Z</time>
      </trkpt>
      <trkpt lat="44.24255" lon="3.24234">
        <ele>860.6</ele>
        <time>2020-07-19T14:19:49Z</time>
      </trkpt>
      <trkpt lat="44.24266" lon="3.2424">
        <ele>860.1</ele>
        <time>2020-07-19T14:19:51Z</time>
      </trkpt>
      <trkpt lat="44.24271" lon="3.24243">
        <ele>859.9</ele>
        <time>2020-07-19T14:19:52Z</time>
      </trkpt>
      <trkpt lat="44.24277" lon="3.24246">
        <ele>859.7</ele>
        <time>2020-07-19T14:19:53Z</time>
      </trkpt>
      <trkpt lat="44.24289" lon="3.2425">
        <ele>859.2</ele>
        <time>2020-07-19T14:19:55Z</time>
      </trkpt>
      <trkpt lat="44.24296" lon="3.24252">
        <ele>859</ele>
        <time>2020-07-19T14:19:56Z</time>
      </trkpt>
      <trkpt lat="44.2431" lon="3.24255">
        <ele>858.5</ele>
        <time>2020-07-19T14:19:58Z</time>
      </trkpt>
      <trkpt lat="44.24318" lon="3.24255">
        <ele>858.2</ele>
        <time>2020-07-19T14:19:59Z</time>
      </trkpt>
      <trkpt lat="44.24325" lon="3.24254">
        <ele>857.9</ele>
        <time>2020-07-19T14:20:00Z</time>
      </trkpt>
      <trkpt lat="44.24332" lon="3.24252">
        <ele>857.6</ele>
        <time>2020-07-19T14:20:01Z</time>
      </trkpt>
      <trkpt lat="44.24347" lon="3.24246">
        <ele>857.1</ele>
        <time>2020-07-19T14:20:03Z</time>
      </trkpt>
      <trkpt lat="44.24353" lon="3.24241">
        <ele>856.8</ele>
        <time>2020-07-19T14:20:04Z</time>
      </trkpt>
      <trkpt lat="44.24368" lon="3.2423">
        <ele>856.1</ele>
        <time>2020-07-19T14:20:06Z</time>
      </trkpt>
      <trkpt lat="44.24383" lon="3.2422">
        <ele>855.5</ele>
        <time>2020-07-19T14:20:08Z</time>
      </trkpt>
      <trkpt lat="44.244" lon="3.24217">
        <ele>854.8</ele>
        <time>2020-07-19T14:20:10Z</time>
      </trkpt>
      <trkpt lat="44.24419" lon="3.24221">
        <ele>854.4</ele>
        <time>2020-07-19T14:20:12Z</time>
      </trkpt>
      <trkpt lat="44.24428" lon="3.24224">
        <ele>854.3</ele>
        <time>2020-07-19T14:20:13Z</time>
      </trkpt>
      <trkpt lat="44.24445" lon="3.24229">
        <ele>854.5</ele>
        <time>2020-07-19T14:20:15Z</time>
      </trkpt>
      <trkpt lat="44.24453" lon="3.24231">
        <ele>854.7</ele>
        <time>2020-07-19T14:20:16Z</time>
      </trkpt>
      <trkpt lat="44.24468" lon="3.24236">
        <ele>855.1</ele>
        <time>2020-07-19T14:20:18Z</time>
      </trkpt>
      <trkpt lat="44.24475" lon="3.24238">
        <ele>855.4</ele>
        <time>2020-07-19T14:20:19Z</time>
      </trkpt>
      <trkpt lat="44.24482" lon="3.24239">
        <ele>855.8</ele>
        <time>2020-07-19T14:20:20Z</time>
      </trkpt>
      <trkpt lat="44.24495" lon="3.24242">
        <ele>856.6</ele>
        <time>2020-07-19T14:20:22Z</time>
      </trkpt>
      <trkpt lat="44.24506" lon="3.24245">
        <ele>857.5</ele>
        <time>2020-07-19T14:20:24Z</time>
      </trkpt>
      <trkpt lat="44.24515" lon="3.24247">
        <ele>858.2</ele>
        <time>2020-07-19T14:20:26Z</time>
      </trkpt>
      <trkpt lat="44.24526" lon="3.24249">
        <ele>859.1</ele>
        <time>2020-07-19T14:20:28Z</time>
      </trkpt>
      <trkpt lat="44.24533" lon="3.24249">
        <ele>859.8</ele>
        <time>2020-07-19T14:20:30Z</time>
      </trkpt>
      <trkpt lat="44.24537" lon="3.24248">
        <ele>860.1</ele>
        <time>2020-07-19T14:20:31Z</time>
      </trkpt>
      <trkpt lat="44.24543" lon="3.24245">
        <ele>860.7</ele>
        <time>2020-07-19T14:20:33Z</time>
      </trkpt>
      <trkpt lat="44.24548" lon="3.2424">
        <ele>861.2</ele>
        <time>2020-07-19T14:20:35Z</time>
      </trkpt>
      <trkpt lat="44.2455" lon="3.24237">
        <ele>861.6</ele>
        <time>2020-07-19T14:20:36Z</time>
      </trkpt>
      <trkpt lat="44.24549" lon="3.24236">
        <ele>861.9</ele>
        <time>2020-07-19T14:20:38Z</time>
      </trkpt>
      <trkpt lat="44.24548" lon="3.24237">
        <ele>862</ele>
        <time>2020-07-19T14:20:39Z</time>
      </trkpt>
      <trkpt lat="44.24548" lon="3.24234">
        <ele>862.2</ele>
        <time>2020-07-19T14:20:41Z</time>
      </trkpt>
      <trkpt lat="44.24551" lon="3.24229">
        <ele>862.7</ele>
        <time>2020-07-19T14:20:43Z</time>
      </trkpt>
      <trkpt lat="44.24555" lon="3.24225">
        <ele>863.1</ele>
        <time>2020-07-19T14:20:44Z</time>
      </trkpt>
      <trkpt lat="44.24558" lon="3.24223">
        <ele>863.3</ele>
        <time>2020-07-19T14:20:45Z</time>
      </trkpt>
      <trkpt lat="44.24562" lon="3.24218">
        <ele>863.7</ele>
        <time>2020-07-19T14:20:46Z</time>
      </trkpt>
      <trkpt lat="44.24567" lon="3.24209">
        <ele>864.2</ele>
        <time>2020-07-19T14:20:48Z</time>
      </trkpt>
      <trkpt lat="44.24571" lon="3.24201">
        <ele>864.7</ele>
        <time>2020-07-19T14:20:50Z</time>
      </trkpt>
      <trkpt lat="44.24574" lon="3.24194">
        <ele>865.1</ele>
        <time>2020-07-19T14:20:51Z</time>
      </trkpt>
      <trkpt lat="44.24575" lon="3.24192">
        <ele>865.3</ele>
        <time>2020-07-19T14:20:52Z</time>
      </trkpt>
      <trkpt lat="44.24579" lon="3.24188">
        <ele>865.5</ele>
        <time>2020-07-19T14:20:54Z</time>
      </trkpt>
      <trkpt lat="44.24582" lon="3.24184">
        <ele>865.8</ele>
        <time>2020-07-19T14:20:56Z</time>
      </trkpt>
      <trkpt lat="44.24587" lon="3.2418">
        <ele>866.1</ele>
        <time>2020-07-19T14:20:58Z</time>
      </trkpt>
      <trkpt lat="44.24591" lon="3.24178">
        <ele>866.3</ele>
        <time>2020-07-19T14:21:00Z</time>
      </trkpt>
      <trkpt lat="44.24594" lon="3.24176">
        <ele>866.5</ele>
        <time>2020-07-19T14:21:01Z</time>
      </trkpt>
      <trkpt lat="44.24595" lon="3.24175">
        <ele>866.6</ele>
        <time>2020-07-19T14:21:02Z</time>
      </trkpt>
      <trkpt lat="44.246" lon="3.24173">
        <ele>866.8</ele>
        <time>2020-07-19T14:21:04Z</time>
      </trkpt>
      <trkpt lat="44.24603" lon="3.24171">
        <ele>867.1</ele>
        <time>2020-07-19T14:21:06Z</time>
      </trkpt>
      <trkpt lat="44.24608" lon="3.2417">
        <ele>867.3</ele>
        <time>2020-07-19T14:21:08Z</time>
      </trkpt>
      <trkpt lat="44.24611" lon="3.24169">
        <ele>867.5</ele>
        <time>2020-07-19T14:21:09Z</time>
      </trkpt>
      <trkpt lat="44.24616" lon="3.24167">
        <ele>867.7</ele>
        <time>2020-07-19T14:21:11Z</time>
      </trkpt>
      <trkpt lat="44.2462" lon="3.24167">
        <ele>868</ele>
        <time>2020-07-19T14:21:13Z</time>
      </trkpt>
      <trkpt lat="44.24622" lon="3.24166">
        <ele>868.2</ele>
        <time>2020-07-19T14:21:14Z</time>
      </trkpt>
      <trkpt lat="44.24625" lon="3.24166">
        <ele>868.4</ele>
        <time>2020-07-19T14:21:16Z</time>
      </trkpt>
      <trkpt lat="44.24629" lon="3.24164">
        <ele>868.7</ele>
        <time>2020-07-19T14:21:18Z</time>
      </trkpt>
      <trkpt lat="44.24633" lon="3.24164">
        <ele>868.9</ele>
        <time>2020-07-19T14:21:20Z</time>
      </trkpt>
      <trkpt lat="44.24636" lon="3.24163">
        <ele>869.1</ele>
        <time>2020-07-19T14:21:21Z</time>
      </trkpt>
      <trkpt lat="44.24637" lon="3.24163">
        <ele>869.2</ele>
        <time>2020-07-19T14:21:22Z</time>
      </trkpt>
      <trkpt lat="44.24638" lon="3.24162">
        <ele>869.3</ele>
        <time>2020-07-19T14:21:23Z</time>
      </trkpt>
      <trkpt lat="44.2464" lon="3.24161">
        <ele>869.5</ele>
        <time>2020-07-19T14:21:25Z</time>
      </trkpt>
      <trkpt lat="44.24642" lon="3.24161">
        <ele>869.5</ele>
        <time>2020-07-19T14:21:26Z</time>
      </trkpt>
      <trkpt lat="44.24644" lon="3.24161">
        <ele>869.6</ele>
        <time>2020-07-19T14:21:27Z</time>
      </trkpt>
      <trkpt lat="44.24645" lon="3.24161">
        <ele>869.7</ele>
        <time>2020-07-19T14:21:28Z</time>
      </trkpt>
      <trkpt lat="44.24649" lon="3.2416">
        <ele>869.9</ele>
        <time>2020-07-19T14:21:30Z</time>
      </trkpt>
      <trkpt lat="44.24652" lon="3.2416">
        <ele>870.1</ele>
        <time>2020-07-19T14:21:32Z</time>
      </trkpt>
      <trkpt lat="44.24655" lon="3.24159">
        <ele>870.3</ele>
        <time>2020-07-19T14:21:33Z</time>
      </trkpt>
      <trkpt lat="44.24659" lon="3.2416">
        <ele>870.5</ele>
        <time>2020-07-19T14:21:35Z</time>
      </trkpt>
      <trkpt lat="44.24661" lon="3.2416">
        <ele>870.6</ele>
        <time>2020-07-19T14:21:36Z</time>
      </trkpt>
      <trkpt lat="44.24665" lon="3.24159">
        <ele>870.8</ele>
        <time>2020-07-19T14:21:38Z</time>
      </trkpt>
      <trkpt lat="44.24669" lon="3.24158">
        <ele>870.9</ele>
        <time>2020-07-19T14:21:39Z</time>
      </trkpt>
      <trkpt lat="44.2467" lon="3.24157">
        <ele>871</ele>
        <time>2020-07-19T14:21:40Z</time>
      </trkpt>
      <trkpt lat="44.24674" lon="3.24155">
        <ele>871.2</ele>
        <time>2020-07-19T14:21:42Z</time>
      </trkpt>
      <trkpt lat="44.24678" lon="3.24153">
        <ele>871.5</ele>
        <time>2020-07-19T14:21:44Z</time>
      </trkpt>
      <trkpt lat="44.2468" lon="3.24151">
        <ele>871.6</ele>
        <time>2020-07-19T14:21:45Z</time>
      </trkpt>
      <trkpt lat="44.24682" lon="3.2415">
        <ele>871.8</ele>
        <time>2020-07-19T14:21:47Z</time>
      </trkpt>
      <trkpt lat="44.24685" lon="3.24148">
        <ele>871.9</ele>
        <time>2020-07-19T14:21:48Z</time>
      </trkpt>
      <trkpt lat="44.24686" lon="3.24146">
        <ele>872</ele>
        <time>2020-07-19T14:21:49Z</time>
      </trkpt>
      <trkpt lat="44.24688" lon="3.24144">
        <ele>872.1</ele>
        <time>2020-07-19T14:21:51Z</time>
      </trkpt>
      <trkpt lat="44.2469" lon="3.24141">
        <ele>872.3</ele>
        <time>2020-07-19T14:21:52Z</time>
      </trkpt>
      <trkpt lat="44.24691" lon="3.2414">
        <ele>872.4</ele>
        <time>2020-07-19T14:21:53Z</time>
      </trkpt>
      <trkpt lat="44.24693" lon="3.24138">
        <ele>872.5</ele>
        <time>2020-07-19T14:21:54Z</time>
      </trkpt>
      <trkpt lat="44.24694" lon="3.24135">
        <ele>872.6</ele>
        <time>2020-07-19T14:21:56Z</time>
      </trkpt>
      <trkpt lat="44.24697" lon="3.24132">
        <ele>872.8</ele>
        <time>2020-07-19T14:21:57Z</time>
      </trkpt>
      <trkpt lat="44.24698" lon="3.24131">
        <ele>872.9</ele>
        <time>2020-07-19T14:21:58Z</time>
      </trkpt>
      <trkpt lat="44.247" lon="3.24127">
        <ele>873.1</ele>
        <time>2020-07-19T14:22:00Z</time>
      </trkpt>
      <trkpt lat="44.24702" lon="3.24124">
        <ele>873.3</ele>
        <time>2020-07-19T14:22:02Z</time>
      </trkpt>
      <trkpt lat="44.24705" lon="3.24122">
        <ele>873.5</ele>
        <time>2020-07-19T14:22:04Z</time>
      </trkpt>
      <trkpt lat="44.24707" lon="3.24119">
        <ele>873.7</ele>
        <time>2020-07-19T14:22:06Z</time>
      </trkpt>
      <trkpt lat="44.2471" lon="3.24117">
        <ele>873.9</ele>
        <time>2020-07-19T14:22:07Z</time>
      </trkpt>
      <trkpt lat="44.24713" lon="3.24114">
        <ele>874.2</ele>
        <time>2020-07-19T14:22:09Z</time>
      </trkpt>
      <trkpt lat="44.24715" lon="3.24112">
        <ele>874.3</ele>
        <time>2020-07-19T14:22:10Z</time>
      </trkpt>
      <trkpt lat="44.24717" lon="3.2411">
        <ele>874.5</ele>
        <time>2020-07-19T14:22:12Z</time>
      </trkpt>
      <trkpt lat="44.24721" lon="3.24107">
        <ele>874.8</ele>
        <time>2020-07-19T14:22:14Z</time>
      </trkpt>
      <trkpt lat="44.24723" lon="3.24105">
        <ele>875</ele>
        <time>2020-07-19T14:22:15Z</time>
      </trkpt>
      <trkpt lat="44.24726" lon="3.24104">
        <ele>875.2</ele>
        <time>2020-07-19T14:22:17Z</time>
      </trkpt>
      <trkpt lat="44.24729" lon="3.24103">
        <ele>875.5</ele>
        <time>2020-07-19T14:22:19Z</time>
      </trkpt>
      <trkpt lat="44.24734" lon="3.241">
        <ele>875.8</ele>
        <time>2020-07-19T14:22:21Z</time>
      </trkpt>
      <trkpt lat="44.24737" lon="3.24099">
        <ele>876</ele>
        <time>2020-07-19T14:22:23Z</time>
      </trkpt>
      <trkpt lat="44.2474" lon="3.24098">
        <ele>876.3</ele>
        <time>2020-07-19T14:22:25Z</time>
      </trkpt>
      <trkpt lat="44.24742" lon="3.24097">
        <ele>876.4</ele>
        <time>2020-07-19T14:22:26Z</time>
      </trkpt>
      <trkpt lat="44.24746" lon="3.24096">
        <ele>876.6</ele>
        <time>2020-07-19T14:22:28Z</time>
      </trkpt>
      <trkpt lat="44.2475" lon="3.24096">
        <ele>876.9</ele>
        <time>2020-07-19T14:22:30Z</time>
      </trkpt>
      <trkpt lat="44.24753" lon="3.24095">
        <ele>877.1</ele>
        <time>2020-07-19T14:22:31Z</time>
      </trkpt>
      <trkpt lat="44.24755" lon="3.24095">
        <ele>877.1</ele>
        <time>2020-07-19T14:22:32Z</time>
      </trkpt>
      <trkpt lat="44.24758" lon="3.24093">
        <ele>877.3</ele>
        <time>2020-07-19T14:22:34Z</time>
      </trkpt>
      <trkpt lat="44.2476" lon="3.24093">
        <ele>877.4</ele>
        <time>2020-07-19T14:22:35Z</time>
      </trkpt>
      <trkpt lat="44.24763" lon="3.24091">
        <ele>877.6</ele>
        <time>2020-07-19T14:22:37Z</time>
      </trkpt>
      <trkpt lat="44.24764" lon="3.2409">
        <ele>877.7</ele>
        <time>2020-07-19T14:22:38Z</time>
      </trkpt>
      <trkpt lat="44.24768" lon="3.24089">
        <ele>877.9</ele>
        <time>2020-07-19T14:22:40Z</time>
      </trkpt>
      <trkpt lat="44.24771" lon="3.24087">
        <ele>878</ele>
        <time>2020-07-19T14:22:41Z</time>
      </trkpt>
      <trkpt lat="44.24772" lon="3.24086">
        <ele>878.1</ele>
        <time>2020-07-19T14:22:42Z</time>
      </trkpt>
      <trkpt lat="44.24777" lon="3.24082">
        <ele>878.4</ele>
        <time>2020-07-19T14:22:44Z</time>
      </trkpt>
      <trkpt lat="44.24778" lon="3.24081">
        <ele>878.5</ele>
        <time>2020-07-19T14:22:45Z</time>
      </trkpt>
      <trkpt lat="44.2478" lon="3.24081">
        <ele>878.6</ele>
        <time>2020-07-19T14:22:46Z</time>
      </trkpt>
      <trkpt lat="44.24784" lon="3.24078">
        <ele>878.9</ele>
        <time>2020-07-19T14:22:48Z</time>
      </trkpt>
      <trkpt lat="44.24786" lon="3.24077">
        <ele>879</ele>
        <time>2020-07-19T14:22:49Z</time>
      </trkpt>
      <trkpt lat="44.2479" lon="3.24076">
        <ele>879.2</ele>
        <time>2020-07-19T14:22:51Z</time>
      </trkpt>
      <trkpt lat="44.24793" lon="3.24075">
        <ele>879.4</ele>
        <time>2020-07-19T14:22:53Z</time>
      </trkpt>
      <trkpt lat="44.24795" lon="3.24075">
        <ele>879.5</ele>
        <time>2020-07-19T14:22:54Z</time>
      </trkpt>
      <trkpt lat="44.24799" lon="3.24074">
        <ele>879.7</ele>
        <time>2020-07-19T14:22:56Z</time>
      </trkpt>
      <trkpt lat="44.24801" lon="3.24074">
        <ele>879.8</ele>
        <time>2020-07-19T14:22:57Z</time>
      </trkpt>
      <trkpt lat="44.24803" lon="3.24074">
        <ele>879.9</ele>
        <time>2020-07-19T14:22:59Z</time>
      </trkpt>
      <trkpt lat="44.24805" lon="3.24073">
        <ele>880</ele>
        <time>2020-07-19T14:23:00Z</time>
      </trkpt>
      <trkpt lat="44.24808" lon="3.24072">
        <ele>880.2</ele>
        <time>2020-07-19T14:23:02Z</time>
      </trkpt>
      <trkpt lat="44.2481" lon="3.24071">
        <ele>880.4</ele>
        <time>2020-07-19T14:23:03Z</time>
      </trkpt>
      <trkpt lat="44.24812" lon="3.24069">
        <ele>880.5</ele>
        <time>2020-07-19T14:23:05Z</time>
      </trkpt>
      <trkpt lat="44.24815" lon="3.24069">
        <ele>880.7</ele>
        <time>2020-07-19T14:23:07Z</time>
      </trkpt>
      <trkpt lat="44.24818" lon="3.24068">
        <ele>880.9</ele>
        <time>2020-07-19T14:23:08Z</time>
      </trkpt>
      <trkpt lat="44.24821" lon="3.24068">
        <ele>881</ele>
        <time>2020-07-19T14:23:09Z</time>
      </trkpt>
      <trkpt lat="44.24824" lon="3.24069">
        <ele>881.2</ele>
        <time>2020-07-19T14:23:10Z</time>
      </trkpt>
      <trkpt lat="44.24828" lon="3.2407">
        <ele>881.4</ele>
        <time>2020-07-19T14:23:12Z</time>
      </trkpt>
      <trkpt lat="44.24829" lon="3.24071">
        <ele>881.5</ele>
        <time>2020-07-19T14:23:13Z</time>
      </trkpt>
      <trkpt lat="44.24833" lon="3.2407">
        <ele>881.7</ele>
        <time>2020-07-19T14:23:15Z</time>
      </trkpt>
      <trkpt lat="44.24837" lon="3.24072">
        <ele>882</ele>
        <time>2020-07-19T14:23:17Z</time>
      </trkpt>
      <trkpt lat="44.24842" lon="3.24073">
        <ele>882.2</ele>
        <time>2020-07-19T14:23:19Z</time>
      </trkpt>
      <trkpt lat="44.24846" lon="3.24076">
        <ele>882.4</ele>
        <time>2020-07-19T14:23:21Z</time>
      </trkpt>
      <trkpt lat="44.24849" lon="3.24078">
        <ele>882.6</ele>
        <time>2020-07-19T14:23:22Z</time>
      </trkpt>
      <trkpt lat="44.24851" lon="3.2408">
        <ele>882.7</ele>
        <time>2020-07-19T14:23:23Z</time>
      </trkpt>
      <trkpt lat="44.24854" lon="3.24084">
        <ele>882.9</ele>
        <time>2020-07-19T14:23:24Z</time>
      </trkpt>
      <trkpt lat="44.24856" lon="3.24087">
        <ele>883.1</ele>
        <time>2020-07-19T14:23:26Z</time>
      </trkpt>
      <trkpt lat="44.24858" lon="3.2409">
        <ele>883.3</ele>
        <time>2020-07-19T14:23:27Z</time>
      </trkpt>
      <trkpt lat="44.24859" lon="3.2409">
        <ele>883.3</ele>
        <time>2020-07-19T14:23:28Z</time>
      </trkpt>
      <trkpt lat="44.24863" lon="3.24095">
        <ele>883.6</ele>
        <time>2020-07-19T14:23:30Z</time>
      </trkpt>
      <trkpt lat="44.24864" lon="3.24097">
        <ele>883.7</ele>
        <time>2020-07-19T14:23:31Z</time>
      </trkpt>
      <trkpt lat="44.24867" lon="3.24099">
        <ele>884</ele>
        <time>2020-07-19T14:23:33Z</time>
      </trkpt>
      <trkpt lat="44.24871" lon="3.24102">
        <ele>884.2</ele>
        <time>2020-07-19T14:23:35Z</time>
      </trkpt>
      <trkpt lat="44.24876" lon="3.24105">
        <ele>884.6</ele>
        <time>2020-07-19T14:23:37Z</time>
      </trkpt>
      <trkpt lat="44.2488" lon="3.24107">
        <ele>884.8</ele>
        <time>2020-07-19T14:23:39Z</time>
      </trkpt>
      <trkpt lat="44.24884" lon="3.2411">
        <ele>885</ele>
        <time>2020-07-19T14:23:41Z</time>
      </trkpt>
      <trkpt lat="44.24885" lon="3.24111">
        <ele>885</ele>
        <time>2020-07-19T14:23:42Z</time>
      </trkpt>
      <trkpt lat="44.24888" lon="3.24113">
        <ele>885.2</ele>
        <time>2020-07-19T14:23:44Z</time>
      </trkpt>
      <trkpt lat="44.24891" lon="3.24117">
        <ele>885.3</ele>
        <time>2020-07-19T14:23:45Z</time>
      </trkpt>
      <trkpt lat="44.24892" lon="3.24118">
        <ele>885.4</ele>
        <time>2020-07-19T14:23:46Z</time>
      </trkpt>
      <trkpt lat="44.24894" lon="3.24124">
        <ele>885.5</ele>
        <time>2020-07-19T14:23:48Z</time>
      </trkpt>
      <trkpt lat="44.24896" lon="3.24129">
        <ele>885.7</ele>
        <time>2020-07-19T14:23:50Z</time>
      </trkpt>
      <trkpt lat="44.24897" lon="3.24132">
        <ele>885.7</ele>
        <time>2020-07-19T14:23:51Z</time>
      </trkpt>
      <trkpt lat="44.24898" lon="3.24138">
        <ele>885.9</ele>
        <time>2020-07-19T14:23:53Z</time>
      </trkpt>
      <trkpt lat="44.24899" lon="3.24145">
        <ele>886</ele>
        <time>2020-07-19T14:23:55Z</time>
      </trkpt>
      <trkpt lat="44.24899" lon="3.24148">
        <ele>886.1</ele>
        <time>2020-07-19T14:23:56Z</time>
      </trkpt>
      <trkpt lat="44.24898" lon="3.24157">
        <ele>886.2</ele>
        <time>2020-07-19T14:23:58Z</time>
      </trkpt>
      <trkpt lat="44.24898" lon="3.24161">
        <ele>886.3</ele>
        <time>2020-07-19T14:23:59Z</time>
      </trkpt>
      <trkpt lat="44.24899" lon="3.24168">
        <ele>886.4</ele>
        <time>2020-07-19T14:24:01Z</time>
      </trkpt>
      <trkpt lat="44.249" lon="3.24175">
        <ele>886.5</ele>
        <time>2020-07-19T14:24:03Z</time>
      </trkpt>
      <trkpt lat="44.249" lon="3.24179">
        <ele>886.6</ele>
        <time>2020-07-19T14:24:04Z</time>
      </trkpt>
      <trkpt lat="44.249" lon="3.24184">
        <ele>886.6</ele>
        <time>2020-07-19T14:24:05Z</time>
      </trkpt>
      <trkpt lat="44.249" lon="3.24191">
        <ele>886.7</ele>
        <time>2020-07-19T14:24:06Z</time>
      </trkpt>
      <trkpt lat="44.249" lon="3.24193">
        <ele>886.7</ele>
        <time>2020-07-19T14:24:07Z</time>
      </trkpt>
      <trkpt lat="44.249" lon="3.24197">
        <ele>886.8</ele>
        <time>2020-07-19T14:24:08Z</time>
      </trkpt>
      <trkpt lat="44.24899" lon="3.24205">
        <ele>886.8</ele>
        <time>2020-07-19T14:24:10Z</time>
      </trkpt>
      <trkpt lat="44.24899" lon="3.24211">
        <ele>886.8</ele>
        <time>2020-07-19T14:24:11Z</time>
      </trkpt>
      <trkpt lat="44.24898" lon="3.24215">
        <ele>886.9</ele>
        <time>2020-07-19T14:24:12Z</time>
      </trkpt>
      <trkpt lat="44.24897" lon="3.24221">
        <ele>886.9</ele>
        <time>2020-07-19T14:24:14Z</time>
      </trkpt>
      <trkpt lat="44.24897" lon="3.24225">
        <ele>886.9</ele>
        <time>2020-07-19T14:24:15Z</time>
      </trkpt>
      <trkpt lat="44.24896" lon="3.2423">
        <ele>886.9</ele>
        <time>2020-07-19T14:24:17Z</time>
      </trkpt>
      <trkpt lat="44.24896" lon="3.24235">
        <ele>886.9</ele>
        <time>2020-07-19T14:24:18Z</time>
      </trkpt>
      <trkpt lat="44.24896" lon="3.24237">
        <ele>887</ele>
        <time>2020-07-19T14:24:19Z</time>
      </trkpt>
      <trkpt lat="44.24896" lon="3.2424">
        <ele>887</ele>
        <time>2020-07-19T14:24:20Z</time>
      </trkpt>
      <trkpt lat="44.24896" lon="3.24246">
        <ele>887</ele>
        <time>2020-07-19T14:24:22Z</time>
      </trkpt>
      <trkpt lat="44.24895" lon="3.2425">
        <ele>887.1</ele>
        <time>2020-07-19T14:24:23Z</time>
      </trkpt>
      <trkpt lat="44.24895" lon="3.24251">
        <ele>887.1</ele>
        <time>2020-07-19T14:24:24Z</time>
      </trkpt>
      <trkpt lat="44.24895" lon="3.24258">
        <ele>887.1</ele>
        <time>2020-07-19T14:24:26Z</time>
      </trkpt>
      <trkpt lat="44.24896" lon="3.24261">
        <ele>887.2</ele>
        <time>2020-07-19T14:24:27Z</time>
      </trkpt>
      <trkpt lat="44.24897" lon="3.24268">
        <ele>887.2</ele>
        <time>2020-07-19T14:24:29Z</time>
      </trkpt>
      <trkpt lat="44.24898" lon="3.24278">
        <ele>887.2</ele>
        <time>2020-07-19T14:24:31Z</time>
      </trkpt>
      <trkpt lat="44.24899" lon="3.24287">
        <ele>887.2</ele>
        <time>2020-07-19T14:24:33Z</time>
      </trkpt>
      <trkpt lat="44.249" lon="3.24293">
        <ele>887.3</ele>
        <time>2020-07-19T14:24:34Z</time>
      </trkpt>
      <trkpt lat="44.24903" lon="3.24302">
        <ele>887.3</ele>
        <time>2020-07-19T14:24:36Z</time>
      </trkpt>
      <trkpt lat="44.24905" lon="3.24307">
        <ele>887.4</ele>
        <time>2020-07-19T14:24:37Z</time>
      </trkpt>
      <trkpt lat="44.24907" lon="3.24315">
        <ele>887.4</ele>
        <time>2020-07-19T14:24:39Z</time>
      </trkpt>
      <trkpt lat="44.24908" lon="3.2432">
        <ele>887.5</ele>
        <time>2020-07-19T14:24:40Z</time>
      </trkpt>
      <trkpt lat="44.2491" lon="3.24324">
        <ele>887.5</ele>
        <time>2020-07-19T14:24:41Z</time>
      </trkpt>
      <trkpt lat="44.24913" lon="3.24331">
        <ele>887.6</ele>
        <time>2020-07-19T14:24:43Z</time>
      </trkpt>
      <trkpt lat="44.24914" lon="3.24335">
        <ele>887.6</ele>
        <time>2020-07-19T14:24:44Z</time>
      </trkpt>
      <trkpt lat="44.24915" lon="3.24342">
        <ele>887.7</ele>
        <time>2020-07-19T14:24:46Z</time>
      </trkpt>
      <trkpt lat="44.24917" lon="3.24345">
        <ele>887.7</ele>
        <time>2020-07-19T14:24:47Z</time>
      </trkpt>
      <trkpt lat="44.24918" lon="3.24348">
        <ele>887.8</ele>
        <time>2020-07-19T14:24:49Z</time>
      </trkpt>
      <trkpt lat="44.24919" lon="3.24351">
        <ele>887.8</ele>
        <time>2020-07-19T14:24:50Z</time>
      </trkpt>
      <trkpt lat="44.24921" lon="3.24357">
        <ele>887.9</ele>
        <time>2020-07-19T14:24:51Z</time>
      </trkpt>
      <trkpt lat="44.24922" lon="3.24362">
        <ele>887.9</ele>
        <time>2020-07-19T14:24:52Z</time>
      </trkpt>
      <trkpt lat="44.24923" lon="3.24367">
        <ele>888</ele>
        <time>2020-07-19T14:24:53Z</time>
      </trkpt>
      <trkpt lat="44.24924" lon="3.24372">
        <ele>888</ele>
        <time>2020-07-19T14:24:54Z</time>
      </trkpt>
      <trkpt lat="44.24925" lon="3.24379">
        <ele>888.1</ele>
        <time>2020-07-19T14:24:56Z</time>
      </trkpt>
      <trkpt lat="44.24925" lon="3.24385">
        <ele>888.1</ele>
        <time>2020-07-19T14:24:57Z</time>
      </trkpt>
      <trkpt lat="44.24926" lon="3.24392">
        <ele>888.2</ele>
        <time>2020-07-19T14:24:58Z</time>
      </trkpt>
      <trkpt lat="44.24926" lon="3.24397">
        <ele>888.3</ele>
        <time>2020-07-19T14:24:59Z</time>
      </trkpt>
      <trkpt lat="44.24926" lon="3.24402">
        <ele>888.3</ele>
        <time>2020-07-19T14:25:00Z</time>
      </trkpt>
      <trkpt lat="44.24927" lon="3.2441">
        <ele>888.4</ele>
        <time>2020-07-19T14:25:02Z</time>
      </trkpt>
      <trkpt lat="44.24928" lon="3.24415">
        <ele>888.4</ele>
        <time>2020-07-19T14:25:03Z</time>
      </trkpt>
      <trkpt lat="44.24931" lon="3.24425">
        <ele>888.5</ele>
        <time>2020-07-19T14:25:05Z</time>
      </trkpt>
      <trkpt lat="44.24936" lon="3.24435">
        <ele>888.4</ele>
        <time>2020-07-19T14:25:06Z</time>
      </trkpt>
      <trkpt lat="44.24945" lon="3.24445">
        <ele>888.1</ele>
        <time>2020-07-19T14:25:08Z</time>
      </trkpt>
      <trkpt lat="44.24951" lon="3.24447">
        <ele>887.7</ele>
        <time>2020-07-19T14:25:09Z</time>
      </trkpt>
      <trkpt lat="44.24956" lon="3.24448">
        <ele>887.3</ele>
        <time>2020-07-19T14:25:10Z</time>
      </trkpt>
      <trkpt lat="44.24968" lon="3.24449">
        <ele>886.5</ele>
        <time>2020-07-19T14:25:12Z</time>
      </trkpt>
      <trkpt lat="44.24974" lon="3.24449">
        <ele>886</ele>
        <time>2020-07-19T14:25:13Z</time>
      </trkpt>
      <trkpt lat="44.24987" lon="3.24453">
        <ele>885</ele>
        <time>2020-07-19T14:25:15Z</time>
      </trkpt>
      <trkpt lat="44.24994" lon="3.24457">
        <ele>884.5</ele>
        <time>2020-07-19T14:25:16Z</time>
      </trkpt>
      <trkpt lat="44.25" lon="3.24461">
        <ele>884</ele>
        <time>2020-07-19T14:25:17Z</time>
      </trkpt>
      <trkpt lat="44.25012" lon="3.24473">
        <ele>882.9</ele>
        <time>2020-07-19T14:25:19Z</time>
      </trkpt>
      <trkpt lat="44.25025" lon="3.24486">
        <ele>881.7</ele>
        <time>2020-07-19T14:25:21Z</time>
      </trkpt>
      <trkpt lat="44.25033" lon="3.24504">
        <ele>880.5</ele>
        <time>2020-07-19T14:25:23Z</time>
      </trkpt>
      <trkpt lat="44.25036" lon="3.24528">
        <ele>879.3</ele>
        <time>2020-07-19T14:25:25Z</time>
      </trkpt>
      <trkpt lat="44.25036" lon="3.2454">
        <ele>878.7</ele>
        <time>2020-07-19T14:25:26Z</time>
      </trkpt>
      <trkpt lat="44.25039" lon="3.24565">
        <ele>878.1</ele>
        <time>2020-07-19T14:25:28Z</time>
      </trkpt>
      <trkpt lat="44.25042" lon="3.24577">
        <ele>877.7</ele>
        <time>2020-07-19T14:25:29Z</time>
      </trkpt>
      <trkpt lat="44.25052" lon="3.24599">
        <ele>877.1</ele>
        <time>2020-07-19T14:25:31Z</time>
      </trkpt>
      <trkpt lat="44.25065" lon="3.24614">
        <ele>877.4</ele>
        <time>2020-07-19T14:25:33Z</time>
      </trkpt>
      <trkpt lat="44.25077" lon="3.24624">
        <ele>877.8</ele>
        <time>2020-07-19T14:25:35Z</time>
      </trkpt>
      <trkpt lat="44.25087" lon="3.24625">
        <ele>878.3</ele>
        <time>2020-07-19T14:25:37Z</time>
      </trkpt>
      <trkpt lat="44.25096" lon="3.24625">
        <ele>878.8</ele>
        <time>2020-07-19T14:25:39Z</time>
      </trkpt>
      <trkpt lat="44.25103" lon="3.24622">
        <ele>879.3</ele>
        <time>2020-07-19T14:25:41Z</time>
      </trkpt>
      <trkpt lat="44.2511" lon="3.2462">
        <ele>879.7</ele>
        <time>2020-07-19T14:25:43Z</time>
      </trkpt>
      <trkpt lat="44.25115" lon="3.2462">
        <ele>879.9</ele>
        <time>2020-07-19T14:25:45Z</time>
      </trkpt>
      <trkpt lat="44.2512" lon="3.24619">
        <ele>880.2</ele>
        <time>2020-07-19T14:25:46Z</time>
      </trkpt>
      <trkpt lat="44.25124" lon="3.24619">
        <ele>880.4</ele>
        <time>2020-07-19T14:25:47Z</time>
      </trkpt>
      <trkpt lat="44.25127" lon="3.2462">
        <ele>880.6</ele>
        <time>2020-07-19T14:25:48Z</time>
      </trkpt>
      <trkpt lat="44.25132" lon="3.24617">
        <ele>880.8</ele>
        <time>2020-07-19T14:25:50Z</time>
      </trkpt>
      <trkpt lat="44.25136" lon="3.24616">
        <ele>881</ele>
        <time>2020-07-19T14:25:51Z</time>
      </trkpt>
      <trkpt lat="44.25139" lon="3.24615">
        <ele>881.2</ele>
        <time>2020-07-19T14:25:52Z</time>
      </trkpt>
      <trkpt lat="44.25144" lon="3.24615">
        <ele>881.4</ele>
        <time>2020-07-19T14:25:54Z</time>
      </trkpt>
      <trkpt lat="44.25147" lon="3.24615">
        <ele>881.5</ele>
        <time>2020-07-19T14:25:55Z</time>
      </trkpt>
      <trkpt lat="44.25151" lon="3.24614">
        <ele>881.7</ele>
        <time>2020-07-19T14:25:57Z</time>
      </trkpt>
      <trkpt lat="44.25154" lon="3.24614">
        <ele>881.9</ele>
        <time>2020-07-19T14:25:58Z</time>
      </trkpt>
      <trkpt lat="44.25159" lon="3.24614">
        <ele>882.1</ele>
        <time>2020-07-19T14:26:00Z</time>
      </trkpt>
      <trkpt lat="44.25163" lon="3.24614">
        <ele>882.3</ele>
        <time>2020-07-19T14:26:01Z</time>
      </trkpt>
      <trkpt lat="44.25168" lon="3.24614">
        <ele>882.6</ele>
        <time>2020-07-19T14:26:03Z</time>
      </trkpt>
      <trkpt lat="44.25173" lon="3.24614">
        <ele>882.8</ele>
        <time>2020-07-19T14:26:05Z</time>
      </trkpt>
      <trkpt lat="44.25175" lon="3.24613">
        <ele>882.9</ele>
        <time>2020-07-19T14:26:06Z</time>
      </trkpt>
      <trkpt lat="44.2518" lon="3.24613">
        <ele>883.1</ele>
        <time>2020-07-19T14:26:08Z</time>
      </trkpt>
      <trkpt lat="44.25185" lon="3.24613">
        <ele>883.3</ele>
        <time>2020-07-19T14:26:10Z</time>
      </trkpt>
      <trkpt lat="44.25189" lon="3.24613">
        <ele>883.5</ele>
        <time>2020-07-19T14:26:11Z</time>
      </trkpt>
      <trkpt lat="44.25191" lon="3.24613">
        <ele>883.6</ele>
        <time>2020-07-19T14:26:12Z</time>
      </trkpt>
      <trkpt lat="44.25196" lon="3.24611">
        <ele>883.9</ele>
        <time>2020-07-19T14:26:14Z</time>
      </trkpt>
      <trkpt lat="44.25198" lon="3.24611">
        <ele>884</ele>
        <time>2020-07-19T14:26:15Z</time>
      </trkpt>
      <trkpt lat="44.25202" lon="3.2461">
        <ele>884.2</ele>
        <time>2020-07-19T14:26:17Z</time>
      </trkpt>
      <trkpt lat="44.25206" lon="3.24609">
        <ele>884.4</ele>
        <time>2020-07-19T14:26:18Z</time>
      </trkpt>
      <trkpt lat="44.25208" lon="3.24609">
        <ele>884.5</ele>
        <time>2020-07-19T14:26:19Z</time>
      </trkpt>
      <trkpt lat="44.25212" lon="3.24608">
        <ele>884.8</ele>
        <time>2020-07-19T14:26:21Z</time>
      </trkpt>
      <trkpt lat="44.25217" lon="3.24608">
        <ele>885</ele>
        <time>2020-07-19T14:26:22Z</time>
      </trkpt>
      <trkpt lat="44.25221" lon="3.24606">
        <ele>885.3</ele>
        <time>2020-07-19T14:26:24Z</time>
      </trkpt>
      <trkpt lat="44.25224" lon="3.24604">
        <ele>885.5</ele>
        <time>2020-07-19T14:26:25Z</time>
      </trkpt>
      <trkpt lat="44.25228" lon="3.24602">
        <ele>885.8</ele>
        <time>2020-07-19T14:26:27Z</time>
      </trkpt>
      <trkpt lat="44.25232" lon="3.24601">
        <ele>886</ele>
        <time>2020-07-19T14:26:29Z</time>
      </trkpt>
      <trkpt lat="44.25236" lon="3.246">
        <ele>886.2</ele>
        <time>2020-07-19T14:26:30Z</time>
      </trkpt>
      <trkpt lat="44.25238" lon="3.24599">
        <ele>886.3</ele>
        <time>2020-07-19T14:26:31Z</time>
      </trkpt>
      <trkpt lat="44.25242" lon="3.24598">
        <ele>886.4</ele>
        <time>2020-07-19T14:26:33Z</time>
      </trkpt>
      <trkpt lat="44.25246" lon="3.24597">
        <ele>886.6</ele>
        <time>2020-07-19T14:26:34Z</time>
      </trkpt>
      <trkpt lat="44.25247" lon="3.24597">
        <ele>886.7</ele>
        <time>2020-07-19T14:26:35Z</time>
      </trkpt>
      <trkpt lat="44.25252" lon="3.24595">
        <ele>886.9</ele>
        <time>2020-07-19T14:26:37Z</time>
      </trkpt>
      <trkpt lat="44.25257" lon="3.24594">
        <ele>887.1</ele>
        <time>2020-07-19T14:26:39Z</time>
      </trkpt>
      <trkpt lat="44.25262" lon="3.24594">
        <ele>887.3</ele>
        <time>2020-07-19T14:26:41Z</time>
      </trkpt>
      <trkpt lat="44.25265" lon="3.24594">
        <ele>887.5</ele>
        <time>2020-07-19T14:26:43Z</time>
      </trkpt>
      <trkpt lat="44.25267" lon="3.24594">
        <ele>887.6</ele>
        <time>2020-07-19T14:26:44Z</time>
      </trkpt>
      <trkpt lat="44.25272" lon="3.24593">
        <ele>887.8</ele>
        <time>2020-07-19T14:26:46Z</time>
      </trkpt>
      <trkpt lat="44.25276" lon="3.24594">
        <ele>887.9</ele>
        <time>2020-07-19T14:26:48Z</time>
      </trkpt>
      <trkpt lat="44.25279" lon="3.24595">
        <ele>888.1</ele>
        <time>2020-07-19T14:26:49Z</time>
      </trkpt>
      <trkpt lat="44.2528" lon="3.24596">
        <ele>888.1</ele>
        <time>2020-07-19T14:26:50Z</time>
      </trkpt>
      <trkpt lat="44.25284" lon="3.24597">
        <ele>888.3</ele>
        <time>2020-07-19T14:26:52Z</time>
      </trkpt>
      <trkpt lat="44.25288" lon="3.24599">
        <ele>888.5</ele>
        <time>2020-07-19T14:26:53Z</time>
      </trkpt>
      <trkpt lat="44.25291" lon="3.246">
        <ele>888.6</ele>
        <time>2020-07-19T14:26:54Z</time>
      </trkpt>
      <trkpt lat="44.25293" lon="3.24601">
        <ele>888.7</ele>
        <time>2020-07-19T14:26:55Z</time>
      </trkpt>
      <trkpt lat="44.25297" lon="3.24604">
        <ele>888.9</ele>
        <time>2020-07-19T14:26:57Z</time>
      </trkpt>
      <trkpt lat="44.25301" lon="3.24606">
        <ele>889.1</ele>
        <time>2020-07-19T14:26:58Z</time>
      </trkpt>
      <trkpt lat="44.25304" lon="3.24608">
        <ele>889.3</ele>
        <time>2020-07-19T14:26:59Z</time>
      </trkpt>
      <trkpt lat="44.25306" lon="3.24609">
        <ele>889.4</ele>
        <time>2020-07-19T14:27:00Z</time>
      </trkpt>
      <trkpt lat="44.25311" lon="3.24613">
        <ele>889.7</ele>
        <time>2020-07-19T14:27:02Z</time>
      </trkpt>
      <trkpt lat="44.25313" lon="3.24615">
        <ele>889.8</ele>
        <time>2020-07-19T14:27:03Z</time>
      </trkpt>
      <trkpt lat="44.25317" lon="3.24617">
        <ele>890</ele>
        <time>2020-07-19T14:27:04Z</time>
      </trkpt>
      <trkpt lat="44.25322" lon="3.24619">
        <ele>890.4</ele>
        <time>2020-07-19T14:27:06Z</time>
      </trkpt>
      <trkpt lat="44.25326" lon="3.24621">
        <ele>890.6</ele>
        <time>2020-07-19T14:27:08Z</time>
      </trkpt>
      <trkpt lat="44.2533" lon="3.24622">
        <ele>890.8</ele>
        <time>2020-07-19T14:27:09Z</time>
      </trkpt>
      <trkpt lat="44.25337" lon="3.24623">
        <ele>891.1</ele>
        <time>2020-07-19T14:27:11Z</time>
      </trkpt>
      <trkpt lat="44.25339" lon="3.24623">
        <ele>891.2</ele>
        <time>2020-07-19T14:27:12Z</time>
      </trkpt>
      <trkpt lat="44.25345" lon="3.24623">
        <ele>891.5</ele>
        <time>2020-07-19T14:27:14Z</time>
      </trkpt>
      <trkpt lat="44.25349" lon="3.24623">
        <ele>891.7</ele>
        <time>2020-07-19T14:27:15Z</time>
      </trkpt>
      <trkpt lat="44.2535" lon="3.24623">
        <ele>891.8</ele>
        <time>2020-07-19T14:27:16Z</time>
      </trkpt>
      <trkpt lat="44.25354" lon="3.24624">
        <ele>892</ele>
        <time>2020-07-19T14:27:17Z</time>
      </trkpt>
      <trkpt lat="44.25358" lon="3.24625">
        <ele>892.2</ele>
        <time>2020-07-19T14:27:19Z</time>
      </trkpt>
      <trkpt lat="44.25364" lon="3.24624">
        <ele>892.5</ele>
        <time>2020-07-19T14:27:21Z</time>
      </trkpt>
      <trkpt lat="44.25368" lon="3.24624">
        <ele>892.8</ele>
        <time>2020-07-19T14:27:22Z</time>
      </trkpt>
      <trkpt lat="44.25373" lon="3.24623">
        <ele>893.1</ele>
        <time>2020-07-19T14:27:24Z</time>
      </trkpt>
      <trkpt lat="44.25377" lon="3.24623">
        <ele>893.3</ele>
        <time>2020-07-19T14:27:25Z</time>
      </trkpt>
      <trkpt lat="44.2538" lon="3.24624">
        <ele>893.4</ele>
        <time>2020-07-19T14:27:26Z</time>
      </trkpt>
      <trkpt lat="44.25386" lon="3.24625">
        <ele>893.8</ele>
        <time>2020-07-19T14:27:28Z</time>
      </trkpt>
      <trkpt lat="44.2539" lon="3.24626">
        <ele>894</ele>
        <time>2020-07-19T14:27:29Z</time>
      </trkpt>
      <trkpt lat="44.25398" lon="3.24627">
        <ele>894.4</ele>
        <time>2020-07-19T14:27:31Z</time>
      </trkpt>
      <trkpt lat="44.25401" lon="3.24627">
        <ele>894.5</ele>
        <time>2020-07-19T14:27:32Z</time>
      </trkpt>
      <trkpt lat="44.25405" lon="3.24628">
        <ele>894.7</ele>
        <time>2020-07-19T14:27:34Z</time>
      </trkpt>
      <trkpt lat="44.2541" lon="3.24629">
        <ele>894.9</ele>
        <time>2020-07-19T14:27:35Z</time>
      </trkpt>
      <trkpt lat="44.25413" lon="3.24629">
        <ele>895</ele>
        <time>2020-07-19T14:27:36Z</time>
      </trkpt>
      <trkpt lat="44.25418" lon="3.2463">
        <ele>895.2</ele>
        <time>2020-07-19T14:27:38Z</time>
      </trkpt>
      <trkpt lat="44.25422" lon="3.2463">
        <ele>895.4</ele>
        <time>2020-07-19T14:27:39Z</time>
      </trkpt>
      <trkpt lat="44.25425" lon="3.2463">
        <ele>895.5</ele>
        <time>2020-07-19T14:27:40Z</time>
      </trkpt>
      <trkpt lat="44.25431" lon="3.2463">
        <ele>895.8</ele>
        <time>2020-07-19T14:27:42Z</time>
      </trkpt>
      <trkpt lat="44.25435" lon="3.2463">
        <ele>896</ele>
        <time>2020-07-19T14:27:44Z</time>
      </trkpt>
      <trkpt lat="44.2544" lon="3.2463">
        <ele>896.2</ele>
        <time>2020-07-19T14:27:45Z</time>
      </trkpt>
      <trkpt lat="44.25445" lon="3.2463">
        <ele>896.4</ele>
        <time>2020-07-19T14:27:47Z</time>
      </trkpt>
      <trkpt lat="44.25449" lon="3.24631">
        <ele>896.5</ele>
        <time>2020-07-19T14:27:49Z</time>
      </trkpt>
      <trkpt lat="44.25452" lon="3.24631">
        <ele>896.7</ele>
        <time>2020-07-19T14:27:50Z</time>
      </trkpt>
      <trkpt lat="44.25455" lon="3.24632">
        <ele>896.8</ele>
        <time>2020-07-19T14:27:51Z</time>
      </trkpt>
      <trkpt lat="44.25458" lon="3.24632">
        <ele>896.9</ele>
        <time>2020-07-19T14:27:52Z</time>
      </trkpt>
      <trkpt lat="44.25462" lon="3.24633">
        <ele>897.1</ele>
        <time>2020-07-19T14:27:53Z</time>
      </trkpt>
      <trkpt lat="44.25466" lon="3.24633">
        <ele>897.2</ele>
        <time>2020-07-19T14:27:55Z</time>
      </trkpt>
      <trkpt lat="44.25471" lon="3.24635">
        <ele>897.4</ele>
        <time>2020-07-19T14:27:57Z</time>
      </trkpt>
      <trkpt lat="44.25475" lon="3.24636">
        <ele>897.6</ele>
        <time>2020-07-19T14:27:58Z</time>
      </trkpt>
      <trkpt lat="44.2548" lon="3.24637">
        <ele>897.7</ele>
        <time>2020-07-19T14:28:00Z</time>
      </trkpt>
      <trkpt lat="44.25483" lon="3.24639">
        <ele>897.8</ele>
        <time>2020-07-19T14:28:01Z</time>
      </trkpt>
      <trkpt lat="44.25484" lon="3.24639">
        <ele>897.8</ele>
        <time>2020-07-19T14:28:02Z</time>
      </trkpt>
      <trkpt lat="44.25485" lon="3.24639">
        <ele>897.9</ele>
        <time>2020-07-19T14:28:04Z</time>
      </trkpt>
      <trkpt lat="44.25486" lon="3.24639">
        <ele>897.9</ele>
        <time>2020-07-19T14:28:05Z</time>
      </trkpt>
      <trkpt lat="44.25486" lon="3.2464">
        <ele>897.9</ele>
        <time>2020-07-19T14:28:07Z</time>
      </trkpt>
      <trkpt lat="44.25486" lon="3.2464">
        <ele>897.9</ele>
        <time>2020-07-19T14:28:08Z</time>
      </trkpt>
      <trkpt lat="44.25486" lon="3.2464">
        <ele>897.9</ele>
        <time>2020-07-19T14:28:10Z</time>
      </trkpt>
      <trkpt lat="44.25487" lon="3.24641">
        <ele>897.9</ele>
        <time>2020-07-19T14:28:11Z</time>
      </trkpt>
      <trkpt lat="44.25487" lon="3.24641">
        <ele>897.9</ele>
        <time>2020-07-19T14:28:12Z</time>
      </trkpt>
      <trkpt lat="44.25487" lon="3.24641">
        <ele>897.9</ele>
        <time>2020-07-19T14:28:55Z</time>
      </trkpt>
      <trkpt lat="44.25487" lon="3.24642">
        <ele>897.9</ele>
        <time>2020-07-19T14:28:57Z</time>
      </trkpt>
      <trkpt lat="44.25488" lon="3.24642">
        <ele>898</ele>
        <time>2020-07-19T14:28:58Z</time>
      </trkpt>
      <trkpt lat="44.25488" lon="3.24642">
        <ele>898</ele>
        <time>2020-07-19T14:29:00Z</time>
      </trkpt>
      <trkpt lat="44.25488" lon="3.24643">
        <ele>898</ele>
        <time>2020-07-19T14:29:01Z</time>
      </trkpt>
      <trkpt lat="44.25488" lon="3.24643">
        <ele>898</ele>
        <time>2020-07-19T14:29:02Z</time>
      </trkpt>
      <trkpt lat="44.25488" lon="3.24643">
        <ele>898</ele>
        <time>2020-07-19T14:29:04Z</time>
      </trkpt>
      <trkpt lat="44.25489" lon="3.24644">
        <ele>898</ele>
        <time>2020-07-19T14:29:05Z</time>
      </trkpt>
      <trkpt lat="44.25489" lon="3.24644">
        <ele>898</ele>
        <time>2020-07-19T14:29:07Z</time>
      </trkpt>
      <trkpt lat="44.25489" lon="3.24644">
        <ele>898</ele>
        <time>2020-07-19T14:30:04Z</time>
      </trkpt>
      <trkpt lat="44.25489" lon="3.24645">
        <ele>898</ele>
        <time>2020-07-19T14:30:05Z</time>
      </trkpt>
      <trkpt lat="44.2549" lon="3.24645">
        <ele>898</ele>
        <time>2020-07-19T14:30:07Z</time>
      </trkpt>
      <trkpt lat="44.2549" lon="3.24645">
        <ele>898</ele>
        <time>2020-07-19T14:30:08Z</time>
      </trkpt>
      <trkpt lat="44.2549" lon="3.24646">
        <ele>898.1</ele>
        <time>2020-07-19T14:30:10Z</time>
      </trkpt>
      <trkpt lat="44.2549" lon="3.24646">
        <ele>898.1</ele>
        <time>2020-07-19T14:30:12Z</time>
      </trkpt>
      <trkpt lat="44.25491" lon="3.24647">
        <ele>898.1</ele>
        <time>2020-07-19T14:30:13Z</time>
      </trkpt>
      <trkpt lat="44.25491" lon="3.24647">
        <ele>898.1</ele>
        <time>2020-07-19T14:30:14Z</time>
      </trkpt>
      <trkpt lat="44.25491" lon="3.24647">
        <ele>898.1</ele>
        <time>2020-07-19T14:30:16Z</time>
      </trkpt>
      <trkpt lat="44.25491" lon="3.24648">
        <ele>898.1</ele>
        <time>2020-07-19T14:30:17Z</time>
      </trkpt>
      <trkpt lat="44.25492" lon="3.24648">
        <ele>898.1</ele>
        <time>2020-07-19T14:31:30Z</time>
      </trkpt>
      <trkpt lat="44.25492" lon="3.24648">
        <ele>898.1</ele>
        <time>2020-07-19T14:31:31Z</time>
      </trkpt>
      <trkpt lat="44.25492" lon="3.24649">
        <ele>898.1</ele>
        <time>2020-07-19T14:31:32Z</time>
      </trkpt>
      <trkpt lat="44.25492" lon="3.24649">
        <ele>898.1</ele>
        <time>2020-07-19T14:31:33Z</time>
      </trkpt>
      <trkpt lat="44.25493" lon="3.24649">
        <ele>898.1</ele>
        <time>2020-07-19T14:31:35Z</time>
      </trkpt>
      <trkpt lat="44.25493" lon="3.2465">
        <ele>898.1</ele>
        <time>2020-07-19T14:31:36Z</time>
      </trkpt>
      <trkpt lat="44.25497" lon="3.24651">
        <ele>898.2</ele>
        <time>2020-07-19T14:31:38Z</time>
      </trkpt>
      <trkpt lat="44.25498" lon="3.24651">
        <ele>898.2</ele>
        <time>2020-07-19T14:31:40Z</time>
      </trkpt>
      <trkpt lat="44.25499" lon="3.24652">
        <ele>898.2</ele>
        <time>2020-07-19T14:31:41Z</time>
      </trkpt>
      <trkpt lat="44.25501" lon="3.24653">
        <ele>898.3</ele>
        <time>2020-07-19T14:31:42Z</time>
      </trkpt>
      <trkpt lat="44.25507" lon="3.24659">
        <ele>898.3</ele>
        <time>2020-07-19T14:31:44Z</time>
      </trkpt>
      <trkpt lat="44.2551" lon="3.24663">
        <ele>898.3</ele>
        <time>2020-07-19T14:31:45Z</time>
      </trkpt>
      <trkpt lat="44.25518" lon="3.2467">
        <ele>898.4</ele>
        <time>2020-07-19T14:31:47Z</time>
      </trkpt>
      <trkpt lat="44.25524" lon="3.24675">
        <ele>898.4</ele>
        <time>2020-07-19T14:31:49Z</time>
      </trkpt>
      <trkpt lat="44.25527" lon="3.24678">
        <ele>898.3</ele>
        <time>2020-07-19T14:31:50Z</time>
      </trkpt>
      <trkpt lat="44.25532" lon="3.24683">
        <ele>898.3</ele>
        <time>2020-07-19T14:31:52Z</time>
      </trkpt>
      <trkpt lat="44.25537" lon="3.24688">
        <ele>898.3</ele>
        <time>2020-07-19T14:31:53Z</time>
      </trkpt>
      <trkpt lat="44.25541" lon="3.24693">
        <ele>898.2</ele>
        <time>2020-07-19T14:31:55Z</time>
      </trkpt>
      <trkpt lat="44.25546" lon="3.24696">
        <ele>898.2</ele>
        <time>2020-07-19T14:31:56Z</time>
      </trkpt>
      <trkpt lat="44.25551" lon="3.24699">
        <ele>898.1</ele>
        <time>2020-07-19T14:31:57Z</time>
      </trkpt>
      <trkpt lat="44.25556" lon="3.24701">
        <ele>898.1</ele>
        <time>2020-07-19T14:31:58Z</time>
      </trkpt>
      <trkpt lat="44.25561" lon="3.24703">
        <ele>898</ele>
        <time>2020-07-19T14:31:59Z</time>
      </trkpt>
      <trkpt lat="44.25569" lon="3.24705">
        <ele>897.9</ele>
        <time>2020-07-19T14:32:01Z</time>
      </trkpt>
      <trkpt lat="44.25573" lon="3.24706">
        <ele>897.8</ele>
        <time>2020-07-19T14:32:02Z</time>
      </trkpt>
      <trkpt lat="44.25578" lon="3.24707">
        <ele>897.8</ele>
        <time>2020-07-19T14:32:03Z</time>
      </trkpt>
      <trkpt lat="44.25583" lon="3.24708">
        <ele>897.8</ele>
        <time>2020-07-19T14:32:04Z</time>
      </trkpt>
      <trkpt lat="44.25589" lon="3.2471">
        <ele>897.7</ele>
        <time>2020-07-19T14:32:05Z</time>
      </trkpt>
      <trkpt lat="44.25594" lon="3.24712">
        <ele>897.7</ele>
        <time>2020-07-19T14:32:07Z</time>
      </trkpt>
      <trkpt lat="44.25601" lon="3.24715">
        <ele>897.7</ele>
        <time>2020-07-19T14:32:08Z</time>
      </trkpt>
      <trkpt lat="44.25606" lon="3.24719">
        <ele>897.7</ele>
        <time>2020-07-19T14:32:09Z</time>
      </trkpt>
      <trkpt lat="44.25611" lon="3.24723">
        <ele>897.7</ele>
        <time>2020-07-19T14:32:10Z</time>
      </trkpt>
      <trkpt lat="44.2562" lon="3.2473">
        <ele>897.7</ele>
        <time>2020-07-19T14:32:12Z</time>
      </trkpt>
      <trkpt lat="44.25623" lon="3.24733">
        <ele>897.6</ele>
        <time>2020-07-19T14:32:14Z</time>
      </trkpt>
      <trkpt lat="44.25628" lon="3.24736">
        <ele>897.6</ele>
        <time>2020-07-19T14:32:15Z</time>
      </trkpt>
      <trkpt lat="44.25638" lon="3.2474">
        <ele>897.7</ele>
        <time>2020-07-19T14:32:16Z</time>
      </trkpt>
      <trkpt lat="44.25642" lon="3.24742">
        <ele>897.7</ele>
        <time>2020-07-19T14:32:17Z</time>
      </trkpt>
      <trkpt lat="44.25648" lon="3.24742">
        <ele>897.7</ele>
        <time>2020-07-19T14:32:18Z</time>
      </trkpt>
      <trkpt lat="44.25658" lon="3.24742">
        <ele>897.7</ele>
        <time>2020-07-19T14:32:20Z</time>
      </trkpt>
      <trkpt lat="44.25664" lon="3.24742">
        <ele>897.7</ele>
        <time>2020-07-19T14:32:21Z</time>
      </trkpt>
      <trkpt lat="44.25674" lon="3.2474">
        <ele>897.6</ele>
        <time>2020-07-19T14:32:23Z</time>
      </trkpt>
      <trkpt lat="44.25679" lon="3.24738">
        <ele>897.6</ele>
        <time>2020-07-19T14:32:24Z</time>
      </trkpt>
      <trkpt lat="44.25687" lon="3.24734">
        <ele>897.6</ele>
        <time>2020-07-19T14:32:26Z</time>
      </trkpt>
      <trkpt lat="44.25692" lon="3.24731">
        <ele>897.6</ele>
        <time>2020-07-19T14:32:27Z</time>
      </trkpt>
      <trkpt lat="44.25699" lon="3.24727">
        <ele>897.6</ele>
        <time>2020-07-19T14:32:29Z</time>
      </trkpt>
      <trkpt lat="44.25704" lon="3.24723">
        <ele>897.6</ele>
        <time>2020-07-19T14:32:30Z</time>
      </trkpt>
      <trkpt lat="44.25708" lon="3.2472">
        <ele>897.5</ele>
        <time>2020-07-19T14:32:31Z</time>
      </trkpt>
      <trkpt lat="44.25718" lon="3.24714">
        <ele>897.4</ele>
        <time>2020-07-19T14:32:33Z</time>
      </trkpt>
      <trkpt lat="44.25723" lon="3.24711">
        <ele>897.4</ele>
        <time>2020-07-19T14:32:34Z</time>
      </trkpt>
      <trkpt lat="44.25733" lon="3.24707">
        <ele>897.2</ele>
        <time>2020-07-19T14:32:36Z</time>
      </trkpt>
      <trkpt lat="44.25742" lon="3.24703">
        <ele>897.1</ele>
        <time>2020-07-19T14:32:38Z</time>
      </trkpt>
      <trkpt lat="44.25747" lon="3.24701">
        <ele>897</ele>
        <time>2020-07-19T14:32:39Z</time>
      </trkpt>
      <trkpt lat="44.25752" lon="3.247">
        <ele>896.9</ele>
        <time>2020-07-19T14:32:40Z</time>
      </trkpt>
      <trkpt lat="44.25757" lon="3.24699">
        <ele>896.9</ele>
        <time>2020-07-19T14:32:41Z</time>
      </trkpt>
      <trkpt lat="44.25762" lon="3.24698">
        <ele>896.8</ele>
        <time>2020-07-19T14:32:42Z</time>
      </trkpt>
      <trkpt lat="44.25767" lon="3.24698">
        <ele>896.7</ele>
        <time>2020-07-19T14:32:43Z</time>
      </trkpt>
      <trkpt lat="44.25773" lon="3.24699">
        <ele>896.7</ele>
        <time>2020-07-19T14:32:44Z</time>
      </trkpt>
      <trkpt lat="44.25784" lon="3.24702">
        <ele>896.5</ele>
        <time>2020-07-19T14:32:46Z</time>
      </trkpt>
      <trkpt lat="44.2579" lon="3.24705">
        <ele>896.4</ele>
        <time>2020-07-19T14:32:47Z</time>
      </trkpt>
      <trkpt lat="44.25801" lon="3.2471">
        <ele>896.3</ele>
        <time>2020-07-19T14:32:49Z</time>
      </trkpt>
      <trkpt lat="44.25812" lon="3.24715">
        <ele>896.1</ele>
        <time>2020-07-19T14:32:51Z</time>
      </trkpt>
      <trkpt lat="44.25824" lon="3.24719">
        <ele>895.9</ele>
        <time>2020-07-19T14:32:53Z</time>
      </trkpt>
      <trkpt lat="44.2583" lon="3.24721">
        <ele>895.9</ele>
        <time>2020-07-19T14:32:54Z</time>
      </trkpt>
      <trkpt lat="44.25841" lon="3.24726">
        <ele>895.8</ele>
        <time>2020-07-19T14:32:56Z</time>
      </trkpt>
      <trkpt lat="44.25853" lon="3.24731">
        <ele>895.9</ele>
        <time>2020-07-19T14:32:58Z</time>
      </trkpt>
      <trkpt lat="44.2586" lon="3.24732">
        <ele>897.1</ele>
        <time>2020-07-19T14:32:59Z</time>
      </trkpt>
      <trkpt lat="44.25873" lon="3.2474">
        <ele>898.9</ele>
        <time>2020-07-19T14:33:01Z</time>
      </trkpt>
      <trkpt lat="44.2588" lon="3.24744">
        <ele>898.9</ele>
        <time>2020-07-19T14:33:02Z</time>
      </trkpt>
      <trkpt lat="44.25892" lon="3.24749">
        <ele>898.6</ele>
        <time>2020-07-19T14:33:04Z</time>
      </trkpt>
      <trkpt lat="44.25898" lon="3.24753">
        <ele>898.4</ele>
        <time>2020-07-19T14:33:05Z</time>
      </trkpt>
      <trkpt lat="44.25911" lon="3.24762">
        <ele>898</ele>
        <time>2020-07-19T14:33:07Z</time>
      </trkpt>
      <trkpt lat="44.25921" lon="3.24774">
        <ele>897.6</ele>
        <time>2020-07-19T14:33:09Z</time>
      </trkpt>
      <trkpt lat="44.25926" lon="3.24781">
        <ele>897.3</ele>
        <time>2020-07-19T14:33:10Z</time>
      </trkpt>
      <trkpt lat="44.25937" lon="3.24791">
        <ele>897</ele>
        <time>2020-07-19T14:33:12Z</time>
      </trkpt>
      <trkpt lat="44.25952" lon="3.24799">
        <ele>896.5</ele>
        <time>2020-07-19T14:33:14Z</time>
      </trkpt>
      <trkpt lat="44.25966" lon="3.2481">
        <ele>896.2</ele>
        <time>2020-07-19T14:33:16Z</time>
      </trkpt>
      <trkpt lat="44.25976" lon="3.24826">
        <ele>896</ele>
        <time>2020-07-19T14:33:18Z</time>
      </trkpt>
      <trkpt lat="44.2599" lon="3.24831">
        <ele>895.9</ele>
        <time>2020-07-19T14:33:20Z</time>
      </trkpt>
      <trkpt lat="44.26003" lon="3.24823">
        <ele>895.9</ele>
        <time>2020-07-19T14:33:22Z</time>
      </trkpt>
      <trkpt lat="44.2601" lon="3.24807">
        <ele>895.8</ele>
        <time>2020-07-19T14:33:24Z</time>
      </trkpt>
      <trkpt lat="44.26013" lon="3.24799">
        <ele>895.8</ele>
        <time>2020-07-19T14:33:25Z</time>
      </trkpt>
      <trkpt lat="44.26017" lon="3.24782">
        <ele>895.7</ele>
        <time>2020-07-19T14:33:27Z</time>
      </trkpt>
      <trkpt lat="44.2602" lon="3.24775">
        <ele>895.7</ele>
        <time>2020-07-19T14:33:28Z</time>
      </trkpt>
      <trkpt lat="44.26026" lon="3.24761">
        <ele>895.8</ele>
        <time>2020-07-19T14:33:30Z</time>
      </trkpt>
      <trkpt lat="44.26032" lon="3.24748">
        <ele>895.9</ele>
        <time>2020-07-19T14:33:32Z</time>
      </trkpt>
      <trkpt lat="44.26036" lon="3.24742">
        <ele>895.9</ele>
        <time>2020-07-19T14:33:33Z</time>
      </trkpt>
      <trkpt lat="44.26043" lon="3.2473">
        <ele>895.9</ele>
        <time>2020-07-19T14:33:35Z</time>
      </trkpt>
      <trkpt lat="44.26046" lon="3.24724">
        <ele>895.9</ele>
        <time>2020-07-19T14:33:36Z</time>
      </trkpt>
      <trkpt lat="44.26049" lon="3.24718">
        <ele>896</ele>
        <time>2020-07-19T14:33:37Z</time>
      </trkpt>
      <trkpt lat="44.26053" lon="3.24713">
        <ele>896.1</ele>
        <time>2020-07-19T14:33:38Z</time>
      </trkpt>
      <trkpt lat="44.2606" lon="3.24701">
        <ele>896.2</ele>
        <time>2020-07-19T14:33:40Z</time>
      </trkpt>
      <trkpt lat="44.26066" lon="3.24689">
        <ele>896.3</ele>
        <time>2020-07-19T14:33:42Z</time>
      </trkpt>
      <trkpt lat="44.26073" lon="3.24678">
        <ele>896.4</ele>
        <time>2020-07-19T14:33:44Z</time>
      </trkpt>
      <trkpt lat="44.2608" lon="3.24669">
        <ele>896.4</ele>
        <time>2020-07-19T14:33:46Z</time>
      </trkpt>
      <trkpt lat="44.26087" lon="3.24659">
        <ele>896.5</ele>
        <time>2020-07-19T14:33:48Z</time>
      </trkpt>
      <trkpt lat="44.26091" lon="3.24654">
        <ele>896.5</ele>
        <time>2020-07-19T14:33:49Z</time>
      </trkpt>
      <trkpt lat="44.261" lon="3.24646">
        <ele>896.6</ele>
        <time>2020-07-19T14:33:51Z</time>
      </trkpt>
      <trkpt lat="44.26103" lon="3.24642">
        <ele>896.7</ele>
        <time>2020-07-19T14:33:52Z</time>
      </trkpt>
      <trkpt lat="44.26108" lon="3.24638">
        <ele>896.8</ele>
        <time>2020-07-19T14:33:53Z</time>
      </trkpt>
      <trkpt lat="44.26112" lon="3.24635">
        <ele>896.8</ele>
        <time>2020-07-19T14:33:54Z</time>
      </trkpt>
      <trkpt lat="44.2612" lon="3.24629">
        <ele>896.9</ele>
        <time>2020-07-19T14:33:56Z</time>
      </trkpt>
      <trkpt lat="44.26124" lon="3.24626">
        <ele>897</ele>
        <time>2020-07-19T14:33:57Z</time>
      </trkpt>
      <trkpt lat="44.26129" lon="3.24624">
        <ele>897</ele>
        <time>2020-07-19T14:33:58Z</time>
      </trkpt>
      <trkpt lat="44.26138" lon="3.24619">
        <ele>897</ele>
        <time>2020-07-19T14:34:00Z</time>
      </trkpt>
      <trkpt lat="44.2615" lon="3.24615">
        <ele>897.2</ele>
        <time>2020-07-19T14:34:02Z</time>
      </trkpt>
      <trkpt lat="44.26157" lon="3.24611">
        <ele>897.2</ele>
        <time>2020-07-19T14:34:04Z</time>
      </trkpt>
      <trkpt lat="44.26166" lon="3.24609">
        <ele>897.3</ele>
        <time>2020-07-19T14:34:06Z</time>
      </trkpt>
      <trkpt lat="44.26176" lon="3.24606">
        <ele>897.4</ele>
        <time>2020-07-19T14:34:08Z</time>
      </trkpt>
      <trkpt lat="44.2618" lon="3.24604">
        <ele>897.4</ele>
        <time>2020-07-19T14:34:09Z</time>
      </trkpt>
      <trkpt lat="44.26184" lon="3.24604">
        <ele>897.4</ele>
        <time>2020-07-19T14:34:10Z</time>
      </trkpt>
      <trkpt lat="44.26188" lon="3.24605">
        <ele>897.4</ele>
        <time>2020-07-19T14:34:11Z</time>
      </trkpt>
      <trkpt lat="44.26198" lon="3.24604">
        <ele>897.5</ele>
        <time>2020-07-19T14:34:13Z</time>
      </trkpt>
      <trkpt lat="44.26203" lon="3.24605">
        <ele>897.6</ele>
        <time>2020-07-19T14:34:14Z</time>
      </trkpt>
      <trkpt lat="44.26208" lon="3.24606">
        <ele>897.6</ele>
        <time>2020-07-19T14:34:15Z</time>
      </trkpt>
      <trkpt lat="44.26213" lon="3.24609">
        <ele>897.7</ele>
        <time>2020-07-19T14:34:16Z</time>
      </trkpt>
      <trkpt lat="44.26218" lon="3.24613">
        <ele>897.8</ele>
        <time>2020-07-19T14:34:17Z</time>
      </trkpt>
      <trkpt lat="44.26226" lon="3.24619">
        <ele>897.9</ele>
        <time>2020-07-19T14:34:19Z</time>
      </trkpt>
      <trkpt lat="44.2623" lon="3.24622">
        <ele>898</ele>
        <time>2020-07-19T14:34:20Z</time>
      </trkpt>
      <trkpt lat="44.26233" lon="3.24624">
        <ele>898.1</ele>
        <time>2020-07-19T14:34:21Z</time>
      </trkpt>
      <trkpt lat="44.26241" lon="3.24627">
        <ele>898.1</ele>
        <time>2020-07-19T14:34:23Z</time>
      </trkpt>
      <trkpt lat="44.26247" lon="3.24628">
        <ele>898.2</ele>
        <time>2020-07-19T14:34:25Z</time>
      </trkpt>
      <trkpt lat="44.26253" lon="3.2463">
        <ele>898.2</ele>
        <time>2020-07-19T14:34:26Z</time>
      </trkpt>
      <trkpt lat="44.26259" lon="3.24632">
        <ele>898.2</ele>
        <time>2020-07-19T14:34:28Z</time>
      </trkpt>
      <trkpt lat="44.26265" lon="3.24631">
        <ele>898.2</ele>
        <time>2020-07-19T14:34:29Z</time>
      </trkpt>
      <trkpt lat="44.26272" lon="3.24629">
        <ele>898.3</ele>
        <time>2020-07-19T14:34:31Z</time>
      </trkpt>
      <trkpt lat="44.26277" lon="3.24628">
        <ele>898.3</ele>
        <time>2020-07-19T14:34:32Z</time>
      </trkpt>
      <trkpt lat="44.26286" lon="3.24626">
        <ele>898.4</ele>
        <time>2020-07-19T14:34:33Z</time>
      </trkpt>
      <trkpt lat="44.26295" lon="3.24625">
        <ele>898.4</ele>
        <time>2020-07-19T14:34:35Z</time>
      </trkpt>
      <trkpt lat="44.26304" lon="3.24624">
        <ele>898.5</ele>
        <time>2020-07-19T14:34:37Z</time>
      </trkpt>
      <trkpt lat="44.26313" lon="3.24618">
        <ele>898.5</ele>
        <time>2020-07-19T14:34:39Z</time>
      </trkpt>
      <trkpt lat="44.26318" lon="3.24615">
        <ele>898.5</ele>
        <time>2020-07-19T14:34:40Z</time>
      </trkpt>
      <trkpt lat="44.26324" lon="3.2461">
        <ele>898.5</ele>
        <time>2020-07-19T14:34:42Z</time>
      </trkpt>
      <trkpt lat="44.26329" lon="3.24606">
        <ele>898.6</ele>
        <time>2020-07-19T14:34:44Z</time>
      </trkpt>
      <trkpt lat="44.26334" lon="3.24602">
        <ele>898.6</ele>
        <time>2020-07-19T14:34:45Z</time>
      </trkpt>
      <trkpt lat="44.2634" lon="3.24597">
        <ele>898.6</ele>
        <time>2020-07-19T14:34:47Z</time>
      </trkpt>
      <trkpt lat="44.26349" lon="3.24589">
        <ele>898.7</ele>
        <time>2020-07-19T14:34:48Z</time>
      </trkpt>
      <trkpt lat="44.26353" lon="3.24585">
        <ele>898.8</ele>
        <time>2020-07-19T14:34:49Z</time>
      </trkpt>
      <trkpt lat="44.26361" lon="3.24576">
        <ele>898.9</ele>
        <time>2020-07-19T14:34:51Z</time>
      </trkpt>
      <trkpt lat="44.26364" lon="3.24572">
        <ele>898.9</ele>
        <time>2020-07-19T14:34:52Z</time>
      </trkpt>
      <trkpt lat="44.26367" lon="3.24568">
        <ele>898.9</ele>
        <time>2020-07-19T14:34:53Z</time>
      </trkpt>
      <trkpt lat="44.26375" lon="3.24559">
        <ele>899</ele>
        <time>2020-07-19T14:34:55Z</time>
      </trkpt>
      <trkpt lat="44.26382" lon="3.24549">
        <ele>899</ele>
        <time>2020-07-19T14:34:57Z</time>
      </trkpt>
      <trkpt lat="44.26387" lon="3.24535">
        <ele>899</ele>
        <time>2020-07-19T14:34:59Z</time>
      </trkpt>
      <trkpt lat="44.26389" lon="3.24519">
        <ele>899</ele>
        <time>2020-07-19T14:35:01Z</time>
      </trkpt>
      <trkpt lat="44.26391" lon="3.24505">
        <ele>899.1</ele>
        <time>2020-07-19T14:35:03Z</time>
      </trkpt>
      <trkpt lat="44.26393" lon="3.24497">
        <ele>899.1</ele>
        <time>2020-07-19T14:35:04Z</time>
      </trkpt>
      <trkpt lat="44.26395" lon="3.24491">
        <ele>899.1</ele>
        <time>2020-07-19T14:35:05Z</time>
      </trkpt>
      <trkpt lat="44.26399" lon="3.24479">
        <ele>899.2</ele>
        <time>2020-07-19T14:35:07Z</time>
      </trkpt>
      <trkpt lat="44.26402" lon="3.24472">
        <ele>899.3</ele>
        <time>2020-07-19T14:35:08Z</time>
      </trkpt>
      <trkpt lat="44.26408" lon="3.24461">
        <ele>899.4</ele>
        <time>2020-07-19T14:35:10Z</time>
      </trkpt>
      <trkpt lat="44.26411" lon="3.24455">
        <ele>899.4</ele>
        <time>2020-07-19T14:35:11Z</time>
      </trkpt>
      <trkpt lat="44.26417" lon="3.24446">
        <ele>899.4</ele>
        <time>2020-07-19T14:35:13Z</time>
      </trkpt>
      <trkpt lat="44.26424" lon="3.24438">
        <ele>899.5</ele>
        <time>2020-07-19T14:35:15Z</time>
      </trkpt>
      <trkpt lat="44.26434" lon="3.24436">
        <ele>899.5</ele>
        <time>2020-07-19T14:35:17Z</time>
      </trkpt>
      <trkpt lat="44.26439" lon="3.24437">
        <ele>899.5</ele>
        <time>2020-07-19T14:35:18Z</time>
      </trkpt>
      <trkpt lat="44.26447" lon="3.24439">
        <ele>899.4</ele>
        <time>2020-07-19T14:35:20Z</time>
      </trkpt>
      <trkpt lat="44.26451" lon="3.24439">
        <ele>899.4</ele>
        <time>2020-07-19T14:35:21Z</time>
      </trkpt>
      <trkpt lat="44.26464" lon="3.2444">
        <ele>899.3</ele>
        <time>2020-07-19T14:35:23Z</time>
      </trkpt>
      <trkpt lat="44.26474" lon="3.24439">
        <ele>899.2</ele>
        <time>2020-07-19T14:35:25Z</time>
      </trkpt>
      <trkpt lat="44.26483" lon="3.24437">
        <ele>899.2</ele>
        <time>2020-07-19T14:35:27Z</time>
      </trkpt>
      <trkpt lat="44.26487" lon="3.24436">
        <ele>899.3</ele>
        <time>2020-07-19T14:35:28Z</time>
      </trkpt>
      <trkpt lat="44.26492" lon="3.24435">
        <ele>899.3</ele>
        <time>2020-07-19T14:35:29Z</time>
      </trkpt>
      <trkpt lat="44.26496" lon="3.24433">
        <ele>899.4</ele>
        <time>2020-07-19T14:35:30Z</time>
      </trkpt>
      <trkpt lat="44.26499" lon="3.24431">
        <ele>899.4</ele>
        <time>2020-07-19T14:35:32Z</time>
      </trkpt>
      <trkpt lat="44.26504" lon="3.24428">
        <ele>899.5</ele>
        <time>2020-07-19T14:35:33Z</time>
      </trkpt>
      <trkpt lat="44.26508" lon="3.24424">
        <ele>899.6</ele>
        <time>2020-07-19T14:35:34Z</time>
      </trkpt>
      <trkpt lat="44.26513" lon="3.24419">
        <ele>899.7</ele>
        <time>2020-07-19T14:35:35Z</time>
      </trkpt>
      <trkpt lat="44.26519" lon="3.24412">
        <ele>899.8</ele>
        <time>2020-07-19T14:35:37Z</time>
      </trkpt>
      <trkpt lat="44.26518" lon="3.24409">
        <ele>899.8</ele>
        <time>2020-07-19T14:35:38Z</time>
      </trkpt>
      <trkpt lat="44.26525" lon="3.24401">
        <ele>899.9</ele>
        <time>2020-07-19T14:35:40Z</time>
      </trkpt>
      <trkpt lat="44.26532" lon="3.24395">
        <ele>900</ele>
        <time>2020-07-19T14:35:42Z</time>
      </trkpt>
      <trkpt lat="44.26538" lon="3.24393">
        <ele>900</ele>
        <time>2020-07-19T14:35:43Z</time>
      </trkpt>
      <trkpt lat="44.26544" lon="3.24387">
        <ele>900</ele>
        <time>2020-07-19T14:35:44Z</time>
      </trkpt>
      <trkpt lat="44.26549" lon="3.24381">
        <ele>900</ele>
        <time>2020-07-19T14:35:46Z</time>
      </trkpt>
      <trkpt lat="44.26553" lon="3.24375">
        <ele>900</ele>
        <time>2020-07-19T14:35:47Z</time>
      </trkpt>
      <trkpt lat="44.26557" lon="3.24369">
        <ele>900</ele>
        <time>2020-07-19T14:35:48Z</time>
      </trkpt>
      <trkpt lat="44.26561" lon="3.24362">
        <ele>900</ele>
        <time>2020-07-19T14:35:49Z</time>
      </trkpt>
      <trkpt lat="44.26564" lon="3.24356">
        <ele>900.1</ele>
        <time>2020-07-19T14:35:50Z</time>
      </trkpt>
      <trkpt lat="44.26567" lon="3.24351">
        <ele>900.1</ele>
        <time>2020-07-19T14:35:51Z</time>
      </trkpt>
      <trkpt lat="44.26571" lon="3.24344">
        <ele>900.1</ele>
        <time>2020-07-19T14:35:53Z</time>
      </trkpt>
      <trkpt lat="44.26573" lon="3.24338">
        <ele>900.1</ele>
        <time>2020-07-19T14:35:54Z</time>
      </trkpt>
      <trkpt lat="44.26577" lon="3.24328">
        <ele>900.1</ele>
        <time>2020-07-19T14:35:56Z</time>
      </trkpt>
      <trkpt lat="44.2658" lon="3.24323">
        <ele>900.1</ele>
        <time>2020-07-19T14:35:57Z</time>
      </trkpt>
      <trkpt lat="44.26582" lon="3.24318">
        <ele>900</ele>
        <time>2020-07-19T14:35:58Z</time>
      </trkpt>
      <trkpt lat="44.26584" lon="3.24314">
        <ele>900</ele>
        <time>2020-07-19T14:35:59Z</time>
      </trkpt>
      <trkpt lat="44.26591" lon="3.24301">
        <ele>899.9</ele>
        <time>2020-07-19T14:36:01Z</time>
      </trkpt>
      <trkpt lat="44.26595" lon="3.24294">
        <ele>899.8</ele>
        <time>2020-07-19T14:36:03Z</time>
      </trkpt>
      <trkpt lat="44.26596" lon="3.24287">
        <ele>899.7</ele>
        <time>2020-07-19T14:36:05Z</time>
      </trkpt>
      <trkpt lat="44.26602" lon="3.2428">
        <ele>899.3</ele>
        <time>2020-07-19T14:36:07Z</time>
      </trkpt>
      <trkpt lat="44.26609" lon="3.24273">
        <ele>898.9</ele>
        <time>2020-07-19T14:36:09Z</time>
      </trkpt>
      <trkpt lat="44.26615" lon="3.24269">
        <ele>898.6</ele>
        <time>2020-07-19T14:36:10Z</time>
      </trkpt>
      <trkpt lat="44.2662" lon="3.24264">
        <ele>898.3</ele>
        <time>2020-07-19T14:36:12Z</time>
      </trkpt>
      <trkpt lat="44.26623" lon="3.24262">
        <ele>898.2</ele>
        <time>2020-07-19T14:36:13Z</time>
      </trkpt>
      <trkpt lat="44.26627" lon="3.24259">
        <ele>897.9</ele>
        <time>2020-07-19T14:36:15Z</time>
      </trkpt>
      <trkpt lat="44.2663" lon="3.24256">
        <ele>897.7</ele>
        <time>2020-07-19T14:36:17Z</time>
      </trkpt>
      <trkpt lat="44.26633" lon="3.24251">
        <ele>897.5</ele>
        <time>2020-07-19T14:36:18Z</time>
      </trkpt>
      <trkpt lat="44.26636" lon="3.24248">
        <ele>897.5</ele>
        <time>2020-07-19T14:36:19Z</time>
      </trkpt>
      <trkpt lat="44.26639" lon="3.24244">
        <ele>897.6</ele>
        <time>2020-07-19T14:36:20Z</time>
      </trkpt>
      <trkpt lat="44.26644" lon="3.24239">
        <ele>897.6</ele>
        <time>2020-07-19T14:36:21Z</time>
      </trkpt>
      <trkpt lat="44.26653" lon="3.24229">
        <ele>897.7</ele>
        <time>2020-07-19T14:36:23Z</time>
      </trkpt>
      <trkpt lat="44.2666" lon="3.24223">
        <ele>897.8</ele>
        <time>2020-07-19T14:36:24Z</time>
      </trkpt>
      <trkpt lat="44.26665" lon="3.24218">
        <ele>897.9</ele>
        <time>2020-07-19T14:36:25Z</time>
      </trkpt>
      <trkpt lat="44.2667" lon="3.24214">
        <ele>897.9</ele>
        <time>2020-07-19T14:36:26Z</time>
      </trkpt>
      <trkpt lat="44.26678" lon="3.24208">
        <ele>898</ele>
        <time>2020-07-19T14:36:28Z</time>
      </trkpt>
      <trkpt lat="44.26681" lon="3.24206">
        <ele>898</ele>
        <time>2020-07-19T14:36:29Z</time>
      </trkpt>
      <trkpt lat="44.26689" lon="3.24203">
        <ele>897.9</ele>
        <time>2020-07-19T14:36:31Z</time>
      </trkpt>
      <trkpt lat="44.26692" lon="3.24202">
        <ele>897.9</ele>
        <time>2020-07-19T14:36:32Z</time>
      </trkpt>
      <trkpt lat="44.26697" lon="3.242">
        <ele>897.8</ele>
        <time>2020-07-19T14:36:33Z</time>
      </trkpt>
      <trkpt lat="44.26703" lon="3.24198">
        <ele>897.8</ele>
        <time>2020-07-19T14:36:35Z</time>
      </trkpt>
      <trkpt lat="44.2671" lon="3.24195">
        <ele>897.7</ele>
        <time>2020-07-19T14:36:37Z</time>
      </trkpt>
      <trkpt lat="44.26716" lon="3.24193">
        <ele>897.7</ele>
        <time>2020-07-19T14:36:38Z</time>
      </trkpt>
      <trkpt lat="44.26723" lon="3.2419">
        <ele>897.8</ele>
        <time>2020-07-19T14:36:40Z</time>
      </trkpt>
      <trkpt lat="44.26727" lon="3.24187">
        <ele>897.8</ele>
        <time>2020-07-19T14:36:41Z</time>
      </trkpt>
      <trkpt lat="44.26734" lon="3.24183">
        <ele>897.8</ele>
        <time>2020-07-19T14:36:43Z</time>
      </trkpt>
      <trkpt lat="44.26738" lon="3.2418">
        <ele>897.7</ele>
        <time>2020-07-19T14:36:44Z</time>
      </trkpt>
      <trkpt lat="44.26745" lon="3.24174">
        <ele>897.6</ele>
        <time>2020-07-19T14:36:46Z</time>
      </trkpt>
      <trkpt lat="44.26748" lon="3.24171">
        <ele>897.5</ele>
        <time>2020-07-19T14:36:47Z</time>
      </trkpt>
      <trkpt lat="44.26752" lon="3.24166">
        <ele>897.3</ele>
        <time>2020-07-19T14:36:48Z</time>
      </trkpt>
      <trkpt lat="44.26757" lon="3.24158">
        <ele>897.1</ele>
        <time>2020-07-19T14:36:49Z</time>
      </trkpt>
      <trkpt lat="44.26764" lon="3.24146">
        <ele>896.9</ele>
        <time>2020-07-19T14:36:51Z</time>
      </trkpt>
      <trkpt lat="44.26768" lon="3.2414">
        <ele>896.7</ele>
        <time>2020-07-19T14:36:52Z</time>
      </trkpt>
      <trkpt lat="44.26775" lon="3.24128">
        <ele>896.2</ele>
        <time>2020-07-19T14:36:54Z</time>
      </trkpt>
      <trkpt lat="44.26778" lon="3.24122">
        <ele>895.8</ele>
        <time>2020-07-19T14:36:55Z</time>
      </trkpt>
      <trkpt lat="44.26785" lon="3.24109">
        <ele>895.1</ele>
        <time>2020-07-19T14:36:57Z</time>
      </trkpt>
      <trkpt lat="44.26793" lon="3.24095">
        <ele>894.6</ele>
        <time>2020-07-19T14:36:59Z</time>
      </trkpt>
      <trkpt lat="44.26797" lon="3.24088">
        <ele>894.4</ele>
        <time>2020-07-19T14:37:00Z</time>
      </trkpt>
      <trkpt lat="44.26804" lon="3.24074">
        <ele>893.8</ele>
        <time>2020-07-19T14:37:02Z</time>
      </trkpt>
      <trkpt lat="44.26812" lon="3.24058">
        <ele>893</ele>
        <time>2020-07-19T14:37:04Z</time>
      </trkpt>
      <trkpt lat="44.26819" lon="3.24041">
        <ele>892.3</ele>
        <time>2020-07-19T14:37:06Z</time>
      </trkpt>
      <trkpt lat="44.26823" lon="3.24022">
        <ele>891.7</ele>
        <time>2020-07-19T14:37:08Z</time>
      </trkpt>
      <trkpt lat="44.26827" lon="3.24003">
        <ele>891</ele>
        <time>2020-07-19T14:37:10Z</time>
      </trkpt>
      <trkpt lat="44.26829" lon="3.23993">
        <ele>890.6</ele>
        <time>2020-07-19T14:37:11Z</time>
      </trkpt>
      <trkpt lat="44.2683" lon="3.23982">
        <ele>890.2</ele>
        <time>2020-07-19T14:37:12Z</time>
      </trkpt>
      <trkpt lat="44.26833" lon="3.23962">
        <ele>889.4</ele>
        <time>2020-07-19T14:37:14Z</time>
      </trkpt>
      <trkpt lat="44.26834" lon="3.23951">
        <ele>889</ele>
        <time>2020-07-19T14:37:15Z</time>
      </trkpt>
      <trkpt lat="44.26837" lon="3.2393">
        <ele>888.2</ele>
        <time>2020-07-19T14:37:17Z</time>
      </trkpt>
      <trkpt lat="44.26839" lon="3.23918">
        <ele>887.8</ele>
        <time>2020-07-19T14:37:18Z</time>
      </trkpt>
      <trkpt lat="44.26842" lon="3.23894">
        <ele>887.1</ele>
        <time>2020-07-19T14:37:20Z</time>
      </trkpt>
      <trkpt lat="44.26844" lon="3.23883">
        <ele>886.8</ele>
        <time>2020-07-19T14:37:21Z</time>
      </trkpt>
      <trkpt lat="44.26846" lon="3.2386">
        <ele>886.2</ele>
        <time>2020-07-19T14:37:23Z</time>
      </trkpt>
      <trkpt lat="44.26848" lon="3.23848">
        <ele>885.9</ele>
        <time>2020-07-19T14:37:24Z</time>
      </trkpt>
      <trkpt lat="44.26857" lon="3.23827">
        <ele>885.2</ele>
        <time>2020-07-19T14:37:26Z</time>
      </trkpt>
      <trkpt lat="44.26863" lon="3.23819">
        <ele>884.8</ele>
        <time>2020-07-19T14:37:27Z</time>
      </trkpt>
      <trkpt lat="44.26878" lon="3.23804">
        <ele>883.6</ele>
        <time>2020-07-19T14:37:29Z</time>
      </trkpt>
      <trkpt lat="44.26893" lon="3.23789">
        <ele>882.1</ele>
        <time>2020-07-19T14:37:31Z</time>
      </trkpt>
      <trkpt lat="44.26909" lon="3.23772">
        <ele>880.9</ele>
        <time>2020-07-19T14:37:33Z</time>
      </trkpt>
      <trkpt lat="44.26923" lon="3.2376">
        <ele>879.9</ele>
        <time>2020-07-19T14:37:35Z</time>
      </trkpt>
      <trkpt lat="44.2693" lon="3.23755">
        <ele>879.4</ele>
        <time>2020-07-19T14:37:36Z</time>
      </trkpt>
      <trkpt lat="44.26947" lon="3.23746">
        <ele>878.4</ele>
        <time>2020-07-19T14:37:38Z</time>
      </trkpt>
      <trkpt lat="44.26955" lon="3.23742">
        <ele>878</ele>
        <time>2020-07-19T14:37:39Z</time>
      </trkpt>
      <trkpt lat="44.26963" lon="3.23739">
        <ele>877.6</ele>
        <time>2020-07-19T14:37:40Z</time>
      </trkpt>
      <trkpt lat="44.2698" lon="3.23736">
        <ele>877.1</ele>
        <time>2020-07-19T14:37:42Z</time>
      </trkpt>
      <trkpt lat="44.26999" lon="3.23734">
        <ele>876.4</ele>
        <time>2020-07-19T14:37:44Z</time>
      </trkpt>
      <trkpt lat="44.27017" lon="3.23732">
        <ele>875.7</ele>
        <time>2020-07-19T14:37:46Z</time>
      </trkpt>
      <trkpt lat="44.27034" lon="3.23736">
        <ele>875.1</ele>
        <time>2020-07-19T14:37:48Z</time>
      </trkpt>
      <trkpt lat="44.27042" lon="3.23739">
        <ele>874.9</ele>
        <time>2020-07-19T14:37:49Z</time>
      </trkpt>
      <trkpt lat="44.27058" lon="3.23743">
        <ele>874.4</ele>
        <time>2020-07-19T14:37:51Z</time>
      </trkpt>
      <trkpt lat="44.27066" lon="3.23743">
        <ele>874.1</ele>
        <time>2020-07-19T14:37:52Z</time>
      </trkpt>
      <trkpt lat="44.27074" lon="3.23739">
        <ele>873.7</ele>
        <time>2020-07-19T14:37:53Z</time>
      </trkpt>
      <trkpt lat="44.27082" lon="3.23735">
        <ele>873.3</ele>
        <time>2020-07-19T14:37:54Z</time>
      </trkpt>
      <trkpt lat="44.27096" lon="3.23725">
        <ele>872.3</ele>
        <time>2020-07-19T14:37:56Z</time>
      </trkpt>
      <trkpt lat="44.27104" lon="3.2372">
        <ele>871.8</ele>
        <time>2020-07-19T14:37:57Z</time>
      </trkpt>
      <trkpt lat="44.27118" lon="3.23711">
        <ele>871</ele>
        <time>2020-07-19T14:37:59Z</time>
      </trkpt>
      <trkpt lat="44.27128" lon="3.23705">
        <ele>870.5</ele>
        <time>2020-07-19T14:38:01Z</time>
      </trkpt>
      <trkpt lat="44.2713" lon="3.23697">
        <ele>870.2</ele>
        <time>2020-07-19T14:38:03Z</time>
      </trkpt>
      <trkpt lat="44.27132" lon="3.23695">
        <ele>870.1</ele>
        <time>2020-07-19T14:38:05Z</time>
      </trkpt>
      <trkpt lat="44.27132" lon="3.23695">
        <ele>870.1</ele>
        <time>2020-07-19T14:38:07Z</time>
      </trkpt>
      <trkpt lat="44.27132" lon="3.23695">
        <ele>870.1</ele>
        <time>2020-07-19T14:38:08Z</time>
      </trkpt>
      <trkpt lat="44.27132" lon="3.23695">
        <ele>870.1</ele>
        <time>2020-07-19T14:38:09Z</time>
      </trkpt>
      <trkpt lat="44.27132" lon="3.23695">
        <ele>870</ele>
        <time>2020-07-19T14:38:11Z</time>
      </trkpt>
      <trkpt lat="44.27131" lon="3.23695">
        <ele>870</ele>
        <time>2020-07-19T14:38:12Z</time>
      </trkpt>
      <trkpt lat="44.27131" lon="3.23695">
        <ele>870</ele>
        <time>2020-07-19T14:38:13Z</time>
      </trkpt>
      <trkpt lat="44.27131" lon="3.23696">
        <ele>870</ele>
        <time>2020-07-19T14:38:14Z</time>
      </trkpt>
      <trkpt lat="44.27131" lon="3.23696">
        <ele>870</ele>
        <time>2020-07-19T14:38:16Z</time>
      </trkpt>
      <trkpt lat="44.27128" lon="3.23701">
        <ele>869.8</ele>
        <time>2020-07-19T14:41:16Z</time>
      </trkpt>
      <trkpt lat="44.27127" lon="3.23701">
        <ele>869.7</ele>
        <time>2020-07-19T14:41:17Z</time>
      </trkpt>
      <trkpt lat="44.27126" lon="3.23701">
        <ele>869.7</ele>
        <time>2020-07-19T14:41:18Z</time>
      </trkpt>
      <trkpt lat="44.27127" lon="3.237">
        <ele>869.7</ele>
        <time>2020-07-19T14:41:20Z</time>
      </trkpt>
      <trkpt lat="44.27127" lon="3.237">
        <ele>869.7</ele>
        <time>2020-07-19T14:41:21Z</time>
      </trkpt>
      <trkpt lat="44.27127" lon="3.237">
        <ele>869.7</ele>
        <time>2020-07-19T14:41:22Z</time>
      </trkpt>
      <trkpt lat="44.27127" lon="3.237">
        <ele>869.7</ele>
        <time>2020-07-19T14:41:24Z</time>
      </trkpt>
      <trkpt lat="44.27127" lon="3.237">
        <ele>869.7</ele>
        <time>2020-07-19T14:41:25Z</time>
      </trkpt>
      <trkpt lat="44.27127" lon="3.237">
        <ele>869.7</ele>
        <time>2020-07-19T14:41:27Z</time>
      </trkpt>
      <trkpt lat="44.27127" lon="3.237">
        <ele>869.7</ele>
        <time>2020-07-19T14:41:28Z</time>
      </trkpt>
      <trkpt lat="44.27133" lon="3.23686">
        <ele>869.1</ele>
        <time>2020-07-19T14:42:37Z</time>
      </trkpt>
      <trkpt lat="44.27134" lon="3.23684">
        <ele>869</ele>
        <time>2020-07-19T14:42:38Z</time>
      </trkpt>
      <trkpt lat="44.27137" lon="3.23685">
        <ele>868.9</ele>
        <time>2020-07-19T14:42:40Z</time>
      </trkpt>
      <trkpt lat="44.27138" lon="3.23685">
        <ele>868.8</ele>
        <time>2020-07-19T14:42:41Z</time>
      </trkpt>
      <trkpt lat="44.2714" lon="3.23685">
        <ele>868.7</ele>
        <time>2020-07-19T14:42:42Z</time>
      </trkpt>
      <trkpt lat="44.27143" lon="3.23685">
        <ele>868.5</ele>
        <time>2020-07-19T14:42:44Z</time>
      </trkpt>
      <trkpt lat="44.27145" lon="3.23685">
        <ele>865.2</ele>
        <time>2020-07-19T14:42:45Z</time>
      </trkpt>
      <trkpt lat="44.27151" lon="3.23684">
        <ele>862</ele>
        <time>2020-07-19T14:42:46Z</time>
      </trkpt>
      <trkpt lat="44.27153" lon="3.23683">
        <ele>858.7</ele>
        <time>2020-07-19T14:42:47Z</time>
      </trkpt>
      <trkpt lat="44.27165" lon="3.2368">
        <ele>853.6</ele>
        <time>2020-07-19T14:42:48Z</time>
      </trkpt>
      <trkpt lat="44.27182" lon="3.23676">
        <ele>847.5</ele>
        <time>2020-07-19T14:42:50Z</time>
      </trkpt>
      <trkpt lat="44.27188" lon="3.23675">
        <ele>843</ele>
        <time>2020-07-19T14:42:51Z</time>
      </trkpt>
      <trkpt lat="44.27199" lon="3.23675">
        <ele>838.4</ele>
        <time>2020-07-19T14:42:53Z</time>
      </trkpt>
      <trkpt lat="44.27204" lon="3.23676">
        <ele>834.1</ele>
        <time>2020-07-19T14:42:54Z</time>
      </trkpt>
      <trkpt lat="44.27214" lon="3.23672">
        <ele>829.3</ele>
        <time>2020-07-19T14:42:56Z</time>
      </trkpt>
      <trkpt lat="44.2722" lon="3.23673">
        <ele>829.8</ele>
        <time>2020-07-19T14:42:57Z</time>
      </trkpt>
      <trkpt lat="44.27222" lon="3.23676">
        <ele>830.2</ele>
        <time>2020-07-19T14:42:59Z</time>
      </trkpt>
      <trkpt lat="44.27223" lon="3.23678">
        <ele>830.3</ele>
        <time>2020-07-19T14:43:00Z</time>
      </trkpt>
      <trkpt lat="44.27226" lon="3.23676">
        <ele>830.5</ele>
        <time>2020-07-19T14:43:01Z</time>
      </trkpt>
      <trkpt lat="44.27231" lon="3.23676">
        <ele>831</ele>
        <time>2020-07-19T14:43:03Z</time>
      </trkpt>
      <trkpt lat="44.27244" lon="3.23678">
        <ele>832.1</ele>
        <time>2020-07-19T14:43:04Z</time>
      </trkpt>
      <trkpt lat="44.27258" lon="3.2368">
        <ele>833.3</ele>
        <time>2020-07-19T14:43:06Z</time>
      </trkpt>
      <trkpt lat="44.27265" lon="3.23683">
        <ele>833.9</ele>
        <time>2020-07-19T14:43:08Z</time>
      </trkpt>
      <trkpt lat="44.2727" lon="3.23686">
        <ele>834.4</ele>
        <time>2020-07-19T14:43:10Z</time>
      </trkpt>
      <trkpt lat="44.27275" lon="3.23687">
        <ele>834.8</ele>
        <time>2020-07-19T14:43:11Z</time>
      </trkpt>
      <trkpt lat="44.27285" lon="3.23693">
        <ele>835.7</ele>
        <time>2020-07-19T14:43:13Z</time>
      </trkpt>
      <trkpt lat="44.27287" lon="3.23695">
        <ele>836</ele>
        <time>2020-07-19T14:43:14Z</time>
      </trkpt>
      <trkpt lat="44.27292" lon="3.23696">
        <ele>836.4</ele>
        <time>2020-07-19T14:43:16Z</time>
      </trkpt>
      <trkpt lat="44.27295" lon="3.23696">
        <ele>836.7</ele>
        <time>2020-07-19T14:43:17Z</time>
      </trkpt>
      <trkpt lat="44.27298" lon="3.23699">
        <ele>836.9</ele>
        <time>2020-07-19T14:43:19Z</time>
      </trkpt>
      <trkpt lat="44.273" lon="3.237">
        <ele>837.1</ele>
        <time>2020-07-19T14:43:21Z</time>
      </trkpt>
      <trkpt lat="44.27301" lon="3.23702">
        <ele>837.2</ele>
        <time>2020-07-19T14:43:22Z</time>
      </trkpt>
      <trkpt lat="44.27303" lon="3.23706">
        <ele>837</ele>
        <time>2020-07-19T14:43:23Z</time>
      </trkpt>
      <trkpt lat="44.27304" lon="3.23707">
        <ele>836.9</ele>
        <time>2020-07-19T14:43:24Z</time>
      </trkpt>
      <trkpt lat="44.27307" lon="3.23711">
        <ele>836.6</ele>
        <time>2020-07-19T14:43:26Z</time>
      </trkpt>
      <trkpt lat="44.27308" lon="3.23712">
        <ele>836.4</ele>
        <time>2020-07-19T14:43:27Z</time>
      </trkpt>
      <trkpt lat="44.27312" lon="3.23713">
        <ele>836</ele>
        <time>2020-07-19T14:43:28Z</time>
      </trkpt>
      <trkpt lat="44.27314" lon="3.23713">
        <ele>835.8</ele>
        <time>2020-07-19T14:43:29Z</time>
      </trkpt>
      <trkpt lat="44.27319" lon="3.23713">
        <ele>835</ele>
        <time>2020-07-19T14:43:30Z</time>
      </trkpt>
      <trkpt lat="44.27325" lon="3.23714">
        <ele>834</ele>
        <time>2020-07-19T14:43:32Z</time>
      </trkpt>
      <trkpt lat="44.27337" lon="3.23715">
        <ele>832.1</ele>
        <time>2020-07-19T14:43:34Z</time>
      </trkpt>
      <trkpt lat="44.2735" lon="3.23715">
        <ele>830.6</ele>
        <time>2020-07-19T14:43:36Z</time>
      </trkpt>
      <trkpt lat="44.27355" lon="3.23715">
        <ele>830.1</ele>
        <time>2020-07-19T14:43:37Z</time>
      </trkpt>
      <trkpt lat="44.27357" lon="3.23714">
        <ele>829.8</ele>
        <time>2020-07-19T14:43:38Z</time>
      </trkpt>
      <trkpt lat="44.27363" lon="3.23712">
        <ele>828.9</ele>
        <time>2020-07-19T14:43:40Z</time>
      </trkpt>
      <trkpt lat="44.27364" lon="3.23711">
        <ele>828.7</ele>
        <time>2020-07-19T14:43:41Z</time>
      </trkpt>
      <trkpt lat="44.27363" lon="3.2371">
        <ele>828.5</ele>
        <time>2020-07-19T14:43:43Z</time>
      </trkpt>
      <trkpt lat="44.27361" lon="3.2371">
        <ele>828.3</ele>
        <time>2020-07-19T14:43:44Z</time>
      </trkpt>
      <trkpt lat="44.2736" lon="3.23709">
        <ele>828.1</ele>
        <time>2020-07-19T14:43:45Z</time>
      </trkpt>
      <trkpt lat="44.27354" lon="3.23706">
        <ele>826.8</ele>
        <time>2020-07-19T14:43:46Z</time>
      </trkpt>
      <trkpt lat="44.27344" lon="3.23701">
        <ele>824.7</ele>
        <time>2020-07-19T14:43:48Z</time>
      </trkpt>
      <trkpt lat="44.27339" lon="3.23698">
        <ele>823.7</ele>
        <time>2020-07-19T14:43:49Z</time>
      </trkpt>
      <trkpt lat="44.27333" lon="3.23695">
        <ele>822.8</ele>
        <time>2020-07-19T14:43:50Z</time>
      </trkpt>
      <trkpt lat="44.27328" lon="3.23691">
        <ele>821.9</ele>
        <time>2020-07-19T14:43:51Z</time>
      </trkpt>
      <trkpt lat="44.27322" lon="3.23685">
        <ele>820.7</ele>
        <time>2020-07-19T14:43:53Z</time>
      </trkpt>
      <trkpt lat="44.27321" lon="3.23681">
        <ele>820.2</ele>
        <time>2020-07-19T14:43:54Z</time>
      </trkpt>
      <trkpt lat="44.27319" lon="3.2368">
        <ele>820</ele>
        <time>2020-07-19T14:43:55Z</time>
      </trkpt>
      <trkpt lat="44.27316" lon="3.23678">
        <ele>819.3</ele>
        <time>2020-07-19T14:43:57Z</time>
      </trkpt>
      <trkpt lat="44.27315" lon="3.23676">
        <ele>819.1</ele>
        <time>2020-07-19T14:43:58Z</time>
      </trkpt>
      <trkpt lat="44.27314" lon="3.23675">
        <ele>818.9</ele>
        <time>2020-07-19T14:43:59Z</time>
      </trkpt>
      <trkpt lat="44.27311" lon="3.23673">
        <ele>818.4</ele>
        <time>2020-07-19T14:44:00Z</time>
      </trkpt>
      <trkpt lat="44.27309" lon="3.2367">
        <ele>817.8</ele>
        <time>2020-07-19T14:44:01Z</time>
      </trkpt>
      <trkpt lat="44.27308" lon="3.23669">
        <ele>817.6</ele>
        <time>2020-07-19T14:44:02Z</time>
      </trkpt>
      <trkpt lat="44.27305" lon="3.23666">
        <ele>816.8</ele>
        <time>2020-07-19T14:44:04Z</time>
      </trkpt>
      <trkpt lat="44.27299" lon="3.23658">
        <ele>814.7</ele>
        <time>2020-07-19T14:44:05Z</time>
      </trkpt>
      <trkpt lat="44.27294" lon="3.23652">
        <ele>813.1</ele>
        <time>2020-07-19T14:44:06Z</time>
      </trkpt>
      <trkpt lat="44.27291" lon="3.23648">
        <ele>812.1</ele>
        <time>2020-07-19T14:44:08Z</time>
      </trkpt>
      <trkpt lat="44.27283" lon="3.23642">
        <ele>810.2</ele>
        <time>2020-07-19T14:44:09Z</time>
      </trkpt>
      <trkpt lat="44.27274" lon="3.23634">
        <ele>808.6</ele>
        <time>2020-07-19T14:44:11Z</time>
      </trkpt>
      <trkpt lat="44.27265" lon="3.23627">
        <ele>807.2</ele>
        <time>2020-07-19T14:44:12Z</time>
      </trkpt>
      <trkpt lat="44.27257" lon="3.2362">
        <ele>805.7</ele>
        <time>2020-07-19T14:44:13Z</time>
      </trkpt>
      <trkpt lat="44.27246" lon="3.2361">
        <ele>803.4</ele>
        <time>2020-07-19T14:44:15Z</time>
      </trkpt>
      <trkpt lat="44.27241" lon="3.23606">
        <ele>802.5</ele>
        <time>2020-07-19T14:44:16Z</time>
      </trkpt>
      <trkpt lat="44.2724" lon="3.23607">
        <ele>802.2</ele>
        <time>2020-07-19T14:44:18Z</time>
      </trkpt>
      <trkpt lat="44.27237" lon="3.23608">
        <ele>801.6</ele>
        <time>2020-07-19T14:44:20Z</time>
      </trkpt>
      <trkpt lat="44.27234" lon="3.23605">
        <ele>801.1</ele>
        <time>2020-07-19T14:44:21Z</time>
      </trkpt>
      <trkpt lat="44.27234" lon="3.23604">
        <ele>800.9</ele>
        <time>2020-07-19T14:44:22Z</time>
      </trkpt>
      <trkpt lat="44.27233" lon="3.236">
        <ele>800.3</ele>
        <time>2020-07-19T14:44:23Z</time>
      </trkpt>
      <trkpt lat="44.27232" lon="3.23598">
        <ele>800.1</ele>
        <time>2020-07-19T14:44:24Z</time>
      </trkpt>
      <trkpt lat="44.2723" lon="3.23596">
        <ele>799.7</ele>
        <time>2020-07-19T14:44:25Z</time>
      </trkpt>
      <trkpt lat="44.27228" lon="3.23591">
        <ele>797.3</ele>
        <time>2020-07-19T14:44:27Z</time>
      </trkpt>
      <trkpt lat="44.27226" lon="3.23585">
        <ele>793.6</ele>
        <time>2020-07-19T14:44:28Z</time>
      </trkpt>
      <trkpt lat="44.27224" lon="3.2358">
        <ele>791.9</ele>
        <time>2020-07-19T14:44:30Z</time>
      </trkpt>
      <trkpt lat="44.27224" lon="3.23578">
        <ele>791.5</ele>
        <time>2020-07-19T14:44:31Z</time>
      </trkpt>
      <trkpt lat="44.27224" lon="3.23577">
        <ele>788.8</ele>
        <time>2020-07-19T14:44:32Z</time>
      </trkpt>
      <trkpt lat="44.27225" lon="3.23575">
        <ele>787.2</ele>
        <time>2020-07-19T14:44:34Z</time>
      </trkpt>
      <trkpt lat="44.27229" lon="3.23576">
        <ele>785.7</ele>
        <time>2020-07-19T14:44:35Z</time>
      </trkpt>
      <trkpt lat="44.27231" lon="3.23577">
        <ele>784.3</ele>
        <time>2020-07-19T14:44:36Z</time>
      </trkpt>
      <trkpt lat="44.2724" lon="3.2358">
        <ele>784.3</ele>
        <time>2020-07-19T14:44:37Z</time>
      </trkpt>
      <trkpt lat="44.27248" lon="3.23583">
        <ele>783.5</ele>
        <time>2020-07-19T14:44:38Z</time>
      </trkpt>
      <trkpt lat="44.27259" lon="3.23585">
        <ele>781.9</ele>
        <time>2020-07-19T14:44:40Z</time>
      </trkpt>
      <trkpt lat="44.27268" lon="3.23588">
        <ele>780</ele>
        <time>2020-07-19T14:44:42Z</time>
      </trkpt>
      <trkpt lat="44.27268" lon="3.2359">
        <ele>779.6</ele>
        <time>2020-07-19T14:44:44Z</time>
      </trkpt>
      <trkpt lat="44.27277" lon="3.2359">
        <ele>777.6</ele>
        <time>2020-07-19T14:44:46Z</time>
      </trkpt>
      <trkpt lat="44.27284" lon="3.23592">
        <ele>776.3</ele>
        <time>2020-07-19T14:44:47Z</time>
      </trkpt>
      <trkpt lat="44.27292" lon="3.2359">
        <ele>774.7</ele>
        <time>2020-07-19T14:44:48Z</time>
      </trkpt>
      <trkpt lat="44.273" lon="3.23591">
        <ele>773.1</ele>
        <time>2020-07-19T14:44:50Z</time>
      </trkpt>
      <trkpt lat="44.2731" lon="3.23594">
        <ele>771.1</ele>
        <time>2020-07-19T14:44:51Z</time>
      </trkpt>
      <trkpt lat="44.27316" lon="3.23595">
        <ele>770.3</ele>
        <time>2020-07-19T14:44:52Z</time>
      </trkpt>
      <trkpt lat="44.27321" lon="3.23597">
        <ele>769.5</ele>
        <time>2020-07-19T14:44:53Z</time>
      </trkpt>
      <trkpt lat="44.27324" lon="3.23596">
        <ele>769</ele>
        <time>2020-07-19T14:44:54Z</time>
      </trkpt>
      <trkpt lat="44.27322" lon="3.23591">
        <ele>768.4</ele>
        <time>2020-07-19T14:44:56Z</time>
      </trkpt>
      <trkpt lat="44.27318" lon="3.23587">
        <ele>767.4</ele>
        <time>2020-07-19T14:44:58Z</time>
      </trkpt>
      <trkpt lat="44.27315" lon="3.23583">
        <ele>766.3</ele>
        <time>2020-07-19T14:44:59Z</time>
      </trkpt>
      <trkpt lat="44.2731" lon="3.23578">
        <ele>764.8</ele>
        <time>2020-07-19T14:45:00Z</time>
      </trkpt>
      <trkpt lat="44.27305" lon="3.23573">
        <ele>762.9</ele>
        <time>2020-07-19T14:45:01Z</time>
      </trkpt>
      <trkpt lat="44.27301" lon="3.23568">
        <ele>761.2</ele>
        <time>2020-07-19T14:45:03Z</time>
      </trkpt>
      <trkpt lat="44.273" lon="3.23566">
        <ele>760.7</ele>
        <time>2020-07-19T14:45:05Z</time>
      </trkpt>
      <trkpt lat="44.273" lon="3.23567">
        <ele>760.6</ele>
        <time>2020-07-19T14:45:06Z</time>
      </trkpt>
      <trkpt lat="44.27302" lon="3.23567">
        <ele>759.9</ele>
        <time>2020-07-19T14:45:07Z</time>
      </trkpt>
      <trkpt lat="44.27303" lon="3.23564">
        <ele>759.2</ele>
        <time>2020-07-19T14:45:09Z</time>
      </trkpt>
      <trkpt lat="44.27301" lon="3.23562">
        <ele>758.4</ele>
        <time>2020-07-19T14:45:11Z</time>
      </trkpt>
      <trkpt lat="44.27297" lon="3.23559">
        <ele>757</ele>
        <time>2020-07-19T14:45:12Z</time>
      </trkpt>
      <trkpt lat="44.27296" lon="3.23556">
        <ele>756.3</ele>
        <time>2020-07-19T14:45:13Z</time>
      </trkpt>
      <trkpt lat="44.27294" lon="3.23554">
        <ele>755.6</ele>
        <time>2020-07-19T14:45:15Z</time>
      </trkpt>
      <trkpt lat="44.27293" lon="3.23552">
        <ele>755</ele>
        <time>2020-07-19T14:45:16Z</time>
      </trkpt>
      <trkpt lat="44.27285" lon="3.23539">
        <ele>751.5</ele>
        <time>2020-07-19T14:45:18Z</time>
      </trkpt>
      <trkpt lat="44.27281" lon="3.23533">
        <ele>749.9</ele>
        <time>2020-07-19T14:45:19Z</time>
      </trkpt>
      <trkpt lat="44.2727" lon="3.23517">
        <ele>746.8</ele>
        <time>2020-07-19T14:45:21Z</time>
      </trkpt>
      <trkpt lat="44.27258" lon="3.23502">
        <ele>743.6</ele>
        <time>2020-07-19T14:45:23Z</time>
      </trkpt>
      <trkpt lat="44.27251" lon="3.23494">
        <ele>741.4</ele>
        <time>2020-07-19T14:45:24Z</time>
      </trkpt>
      <trkpt lat="44.27245" lon="3.23486">
        <ele>739.2</ele>
        <time>2020-07-19T14:45:25Z</time>
      </trkpt>
      <trkpt lat="44.27234" lon="3.23472">
        <ele>736.7</ele>
        <time>2020-07-19T14:45:27Z</time>
      </trkpt>
      <trkpt lat="44.27227" lon="3.23464">
        <ele>735.5</ele>
        <time>2020-07-19T14:45:28Z</time>
      </trkpt>
      <trkpt lat="44.27215" lon="3.23449">
        <ele>733.2</ele>
        <time>2020-07-19T14:45:30Z</time>
      </trkpt>
      <trkpt lat="44.27211" lon="3.23443">
        <ele>732.4</ele>
        <time>2020-07-19T14:45:31Z</time>
      </trkpt>
      <trkpt lat="44.27203" lon="3.23433">
        <ele>731</ele>
        <time>2020-07-19T14:45:33Z</time>
      </trkpt>
      <trkpt lat="44.27197" lon="3.2342">
        <ele>728.9</ele>
        <time>2020-07-19T14:45:35Z</time>
      </trkpt>
      <trkpt lat="44.27197" lon="3.2341">
        <ele>727.1</ele>
        <time>2020-07-19T14:45:37Z</time>
      </trkpt>
      <trkpt lat="44.27198" lon="3.23409">
        <ele>726.7</ele>
        <time>2020-07-19T14:45:39Z</time>
      </trkpt>
      <trkpt lat="44.27198" lon="3.23409">
        <ele>726.7</ele>
        <time>2020-07-19T14:45:40Z</time>
      </trkpt>
      <trkpt lat="44.27198" lon="3.2341">
        <ele>726.7</ele>
        <time>2020-07-19T14:45:41Z</time>
      </trkpt>
      <trkpt lat="44.27198" lon="3.2341">
        <ele>726.6</ele>
        <time>2020-07-19T14:45:43Z</time>
      </trkpt>
      <trkpt lat="44.27198" lon="3.2341">
        <ele>726.6</ele>
        <time>2020-07-19T14:45:48Z</time>
      </trkpt>
      <trkpt lat="44.27194" lon="3.23412">
        <ele>725.4</ele>
        <time>2020-07-19T14:46:41Z</time>
      </trkpt>
      <trkpt lat="44.27195" lon="3.23415">
        <ele>724.8</ele>
        <time>2020-07-19T14:46:42Z</time>
      </trkpt>
      <trkpt lat="44.27199" lon="3.2342">
        <ele>723.6</ele>
        <time>2020-07-19T14:46:44Z</time>
      </trkpt>
      <trkpt lat="44.27201" lon="3.2342">
        <ele>722.9</ele>
        <time>2020-07-19T14:46:45Z</time>
      </trkpt>
      <trkpt lat="44.27203" lon="3.23422">
        <ele>722.5</ele>
        <time>2020-07-19T14:46:47Z</time>
      </trkpt>
      <trkpt lat="44.27204" lon="3.23422">
        <ele>722.3</ele>
        <time>2020-07-19T14:46:48Z</time>
      </trkpt>
      <trkpt lat="44.27205" lon="3.23423">
        <ele>722</ele>
        <time>2020-07-19T14:46:50Z</time>
      </trkpt>
      <trkpt lat="44.27206" lon="3.23424">
        <ele>721.7</ele>
        <time>2020-07-19T14:46:51Z</time>
      </trkpt>
      <trkpt lat="44.2721" lon="3.23427">
        <ele>720.9</ele>
        <time>2020-07-19T14:46:53Z</time>
      </trkpt>
      <trkpt lat="44.27213" lon="3.2343">
        <ele>720.2</ele>
        <time>2020-07-19T14:46:54Z</time>
      </trkpt>
      <trkpt lat="44.27216" lon="3.23432">
        <ele>719.8</ele>
        <time>2020-07-19T14:46:55Z</time>
      </trkpt>
      <trkpt lat="44.2722" lon="3.23437">
        <ele>719.1</ele>
        <time>2020-07-19T14:46:57Z</time>
      </trkpt>
      <trkpt lat="44.27229" lon="3.23444">
        <ele>718</ele>
        <time>2020-07-19T14:46:59Z</time>
      </trkpt>
      <trkpt lat="44.27236" lon="3.23448">
        <ele>717.1</ele>
        <time>2020-07-19T14:47:00Z</time>
      </trkpt>
      <trkpt lat="44.27244" lon="3.23451">
        <ele>715.5</ele>
        <time>2020-07-19T14:47:01Z</time>
      </trkpt>
      <trkpt lat="44.27257" lon="3.23454">
        <ele>713</ele>
        <time>2020-07-19T14:47:03Z</time>
      </trkpt>
      <trkpt lat="44.27262" lon="3.23456">
        <ele>712.4</ele>
        <time>2020-07-19T14:47:04Z</time>
      </trkpt>
      <trkpt lat="44.27267" lon="3.23459">
        <ele>711.7</ele>
        <time>2020-07-19T14:47:06Z</time>
      </trkpt>
      <trkpt lat="44.2727" lon="3.23461">
        <ele>711.4</ele>
        <time>2020-07-19T14:47:07Z</time>
      </trkpt>
      <trkpt lat="44.27282" lon="3.23466">
        <ele>709.9</ele>
        <time>2020-07-19T14:47:09Z</time>
      </trkpt>
      <trkpt lat="44.27293" lon="3.23471">
        <ele>708.4</ele>
        <time>2020-07-19T14:47:11Z</time>
      </trkpt>
      <trkpt lat="44.27301" lon="3.23472">
        <ele>707.2</ele>
        <time>2020-07-19T14:47:13Z</time>
      </trkpt>
      <trkpt lat="44.27305" lon="3.23473">
        <ele>706.5</ele>
        <time>2020-07-19T14:47:14Z</time>
      </trkpt>
      <trkpt lat="44.27309" lon="3.23471">
        <ele>705.8</ele>
        <time>2020-07-19T14:47:16Z</time>
      </trkpt>
      <trkpt lat="44.27305" lon="3.23468">
        <ele>705.2</ele>
        <time>2020-07-19T14:47:17Z</time>
      </trkpt>
      <trkpt lat="44.27301" lon="3.23465">
        <ele>704.4</ele>
        <time>2020-07-19T14:47:19Z</time>
      </trkpt>
      <trkpt lat="44.27298" lon="3.23463">
        <ele>703.9</ele>
        <time>2020-07-19T14:47:20Z</time>
      </trkpt>
      <trkpt lat="44.27295" lon="3.23459">
        <ele>703.1</ele>
        <time>2020-07-19T14:47:21Z</time>
      </trkpt>
      <trkpt lat="44.27286" lon="3.23449">
        <ele>687.1</ele>
        <time>2020-07-19T14:47:23Z</time>
      </trkpt>
      <trkpt lat="44.27284" lon="3.23448">
        <ele>686.7</ele>
        <time>2020-07-19T14:47:25Z</time>
      </trkpt>
      <trkpt lat="44.27285" lon="3.23444">
        <ele>686.2</ele>
        <time>2020-07-19T14:47:26Z</time>
      </trkpt>
      <trkpt lat="44.27289" lon="3.23444">
        <ele>685.4</ele>
        <time>2020-07-19T14:47:27Z</time>
      </trkpt>
      <trkpt lat="44.27295" lon="3.23444">
        <ele>684.1</ele>
        <time>2020-07-19T14:47:29Z</time>
      </trkpt>
      <trkpt lat="44.27304" lon="3.23447">
        <ele>682.4</ele>
        <time>2020-07-19T14:47:31Z</time>
      </trkpt>
      <trkpt lat="44.27308" lon="3.23448">
        <ele>681.4</ele>
        <time>2020-07-19T14:47:32Z</time>
      </trkpt>
      <trkpt lat="44.27312" lon="3.23449">
        <ele>680.6</ele>
        <time>2020-07-19T14:47:33Z</time>
      </trkpt>
      <trkpt lat="44.27317" lon="3.2345">
        <ele>679.6</ele>
        <time>2020-07-19T14:47:35Z</time>
      </trkpt>
      <trkpt lat="44.27322" lon="3.2345">
        <ele>678.7</ele>
        <time>2020-07-19T14:47:37Z</time>
      </trkpt>
      <trkpt lat="44.27328" lon="3.2345">
        <ele>677.3</ele>
        <time>2020-07-19T14:47:38Z</time>
      </trkpt>
      <trkpt lat="44.27334" lon="3.23451">
        <ele>676.2</ele>
        <time>2020-07-19T14:47:39Z</time>
      </trkpt>
      <trkpt lat="44.27345" lon="3.2345">
        <ele>673.8</ele>
        <time>2020-07-19T14:47:41Z</time>
      </trkpt>
      <trkpt lat="44.27356" lon="3.23448">
        <ele>671.2</ele>
        <time>2020-07-19T14:47:43Z</time>
      </trkpt>
      <trkpt lat="44.2736" lon="3.23447">
        <ele>670.2</ele>
        <time>2020-07-19T14:47:45Z</time>
      </trkpt>
      <trkpt lat="44.27362" lon="3.23449">
        <ele>669.5</ele>
        <time>2020-07-19T14:47:46Z</time>
      </trkpt>
      <trkpt lat="44.27363" lon="3.23449">
        <ele>669.3</ele>
        <time>2020-07-19T14:47:47Z</time>
      </trkpt>
      <trkpt lat="44.27366" lon="3.2345">
        <ele>668.7</ele>
        <time>2020-07-19T14:47:48Z</time>
      </trkpt>
      <trkpt lat="44.27373" lon="3.2345">
        <ele>667.5</ele>
        <time>2020-07-19T14:47:50Z</time>
      </trkpt>
      <trkpt lat="44.27385" lon="3.23449">
        <ele>665</ele>
        <time>2020-07-19T14:47:52Z</time>
      </trkpt>
      <trkpt lat="44.27395" lon="3.2345">
        <ele>663.3</ele>
        <time>2020-07-19T14:47:54Z</time>
      </trkpt>
      <trkpt lat="44.27395" lon="3.23448">
        <ele>663</ele>
        <time>2020-07-19T14:47:56Z</time>
      </trkpt>
      <trkpt lat="44.27394" lon="3.23447">
        <ele>662.9</ele>
        <time>2020-07-19T14:47:57Z</time>
      </trkpt>
      <trkpt lat="44.27393" lon="3.23447">
        <ele>662.7</ele>
        <time>2020-07-19T14:47:58Z</time>
      </trkpt>
      <trkpt lat="44.27392" lon="3.23447">
        <ele>662.6</ele>
        <time>2020-07-19T14:48:00Z</time>
      </trkpt>
      <trkpt lat="44.27391" lon="3.23446">
        <ele>662.5</ele>
        <time>2020-07-19T14:48:01Z</time>
      </trkpt>
      <trkpt lat="44.27386" lon="3.23444">
        <ele>661.8</ele>
        <time>2020-07-19T14:48:03Z</time>
      </trkpt>
      <trkpt lat="44.27382" lon="3.23442">
        <ele>661.3</ele>
        <time>2020-07-19T14:48:04Z</time>
      </trkpt>
      <trkpt lat="44.2738" lon="3.23438">
        <ele>660.9</ele>
        <time>2020-07-19T14:48:05Z</time>
      </trkpt>
      <trkpt lat="44.27379" lon="3.23438">
        <ele>660.7</ele>
        <time>2020-07-19T14:48:06Z</time>
      </trkpt>
      <trkpt lat="44.27375" lon="3.23434">
        <ele>660</ele>
        <time>2020-07-19T14:48:08Z</time>
      </trkpt>
      <trkpt lat="44.27372" lon="3.23432">
        <ele>659.4</ele>
        <time>2020-07-19T14:48:09Z</time>
      </trkpt>
      <trkpt lat="44.27368" lon="3.2343">
        <ele>658.7</ele>
        <time>2020-07-19T14:48:11Z</time>
      </trkpt>
      <trkpt lat="44.27368" lon="3.2343">
        <ele>658.7</ele>
        <time>2020-07-19T14:48:12Z</time>
      </trkpt>
      <trkpt lat="44.27369" lon="3.2343">
        <ele>658.6</ele>
        <time>2020-07-19T14:48:13Z</time>
      </trkpt>
      <trkpt lat="44.27369" lon="3.2343">
        <ele>658.6</ele>
        <time>2020-07-19T14:48:15Z</time>
      </trkpt>
      <trkpt lat="44.27368" lon="3.23428">
        <ele>658.2</ele>
        <time>2020-07-19T14:48:17Z</time>
      </trkpt>
      <trkpt lat="44.27366" lon="3.23426">
        <ele>657.9</ele>
        <time>2020-07-19T14:48:18Z</time>
      </trkpt>
      <trkpt lat="44.27364" lon="3.23423">
        <ele>657.4</ele>
        <time>2020-07-19T14:48:20Z</time>
      </trkpt>
      <trkpt lat="44.27363" lon="3.23423">
        <ele>657.3</ele>
        <time>2020-07-19T14:48:21Z</time>
      </trkpt>
      <trkpt lat="44.27361" lon="3.23422">
        <ele>657</ele>
        <time>2020-07-19T14:48:22Z</time>
      </trkpt>
      <trkpt lat="44.27359" lon="3.23418">
        <ele>656.6</ele>
        <time>2020-07-19T14:48:24Z</time>
      </trkpt>
      <trkpt lat="44.27355" lon="3.23414">
        <ele>655.9</ele>
        <time>2020-07-19T14:48:25Z</time>
      </trkpt>
      <trkpt lat="44.27352" lon="3.23409">
        <ele>655.1</ele>
        <time>2020-07-19T14:48:26Z</time>
      </trkpt>
      <trkpt lat="44.27342" lon="3.23399">
        <ele>653.3</ele>
        <time>2020-07-19T14:48:28Z</time>
      </trkpt>
      <trkpt lat="44.27338" lon="3.23392">
        <ele>652.3</ele>
        <time>2020-07-19T14:48:29Z</time>
      </trkpt>
      <trkpt lat="44.27332" lon="3.2338">
        <ele>650.1</ele>
        <time>2020-07-19T14:48:31Z</time>
      </trkpt>
      <trkpt lat="44.27324" lon="3.23368">
        <ele>648</ele>
        <time>2020-07-19T14:48:33Z</time>
      </trkpt>
      <trkpt lat="44.27321" lon="3.23364">
        <ele>647.3</ele>
        <time>2020-07-19T14:48:34Z</time>
      </trkpt>
      <trkpt lat="44.27316" lon="3.2336">
        <ele>646.2</ele>
        <time>2020-07-19T14:48:36Z</time>
      </trkpt>
      <trkpt lat="44.2731" lon="3.23355">
        <ele>644.4</ele>
        <time>2020-07-19T14:48:38Z</time>
      </trkpt>
      <trkpt lat="44.27308" lon="3.23351">
        <ele>643.2</ele>
        <time>2020-07-19T14:48:39Z</time>
      </trkpt>
      <trkpt lat="44.27306" lon="3.2335">
        <ele>642.6</ele>
        <time>2020-07-19T14:48:41Z</time>
      </trkpt>
      <trkpt lat="44.2731" lon="3.23351">
        <ele>641.5</ele>
        <time>2020-07-19T14:48:42Z</time>
      </trkpt>
      <trkpt lat="44.27316" lon="3.23353">
        <ele>640.3</ele>
        <time>2020-07-19T14:48:44Z</time>
      </trkpt>
      <trkpt lat="44.27326" lon="3.23358">
        <ele>638.8</ele>
        <time>2020-07-19T14:48:45Z</time>
      </trkpt>
      <trkpt lat="44.27331" lon="3.2336">
        <ele>638.3</ele>
        <time>2020-07-19T14:48:46Z</time>
      </trkpt>
      <trkpt lat="44.27335" lon="3.23364">
        <ele>637.7</ele>
        <time>2020-07-19T14:48:48Z</time>
      </trkpt>
      <trkpt lat="44.27337" lon="3.23358">
        <ele>637</ele>
        <time>2020-07-19T14:48:49Z</time>
      </trkpt>
      <trkpt lat="44.27342" lon="3.2336">
        <ele>636</ele>
        <time>2020-07-19T14:48:51Z</time>
      </trkpt>
      <trkpt lat="44.27345" lon="3.23361">
        <ele>635.2</ele>
        <time>2020-07-19T14:48:52Z</time>
      </trkpt>
      <trkpt lat="44.27351" lon="3.23362">
        <ele>634.3</ele>
        <time>2020-07-19T14:48:54Z</time>
      </trkpt>
      <trkpt lat="44.27352" lon="3.23359">
        <ele>633.9</ele>
        <time>2020-07-19T14:48:56Z</time>
      </trkpt>
      <trkpt lat="44.27347" lon="3.23354">
        <ele>633.1</ele>
        <time>2020-07-19T14:48:58Z</time>
      </trkpt>
      <trkpt lat="44.27345" lon="3.23352">
        <ele>632.7</ele>
        <time>2020-07-19T14:48:59Z</time>
      </trkpt>
      <trkpt lat="44.27342" lon="3.23349">
        <ele>632.2</ele>
        <time>2020-07-19T14:49:01Z</time>
      </trkpt>
      <trkpt lat="44.2734" lon="3.23345">
        <ele>631.6</ele>
        <time>2020-07-19T14:49:02Z</time>
      </trkpt>
      <trkpt lat="44.27337" lon="3.23337">
        <ele>630.5</ele>
        <time>2020-07-19T14:49:03Z</time>
      </trkpt>
      <trkpt lat="44.27334" lon="3.23332">
        <ele>629.8</ele>
        <time>2020-07-19T14:49:04Z</time>
      </trkpt>
      <trkpt lat="44.27331" lon="3.23328">
        <ele>629.3</ele>
        <time>2020-07-19T14:49:05Z</time>
      </trkpt>
      <trkpt lat="44.27328" lon="3.23324">
        <ele>628.6</ele>
        <time>2020-07-19T14:49:06Z</time>
      </trkpt>
      <trkpt lat="44.2732" lon="3.23315">
        <ele>627.1</ele>
        <time>2020-07-19T14:49:08Z</time>
      </trkpt>
      <trkpt lat="44.27317" lon="3.2331">
        <ele>626.4</ele>
        <time>2020-07-19T14:49:10Z</time>
      </trkpt>
      <trkpt lat="44.27313" lon="3.23306">
        <ele>625.9</ele>
        <time>2020-07-19T14:49:11Z</time>
      </trkpt>
      <trkpt lat="44.27306" lon="3.233">
        <ele>625</ele>
        <time>2020-07-19T14:49:12Z</time>
      </trkpt>
      <trkpt lat="44.27301" lon="3.23296">
        <ele>624.4</ele>
        <time>2020-07-19T14:49:13Z</time>
      </trkpt>
      <trkpt lat="44.27298" lon="3.2329">
        <ele>623.8</ele>
        <time>2020-07-19T14:49:14Z</time>
      </trkpt>
      <trkpt lat="44.27295" lon="3.23286">
        <ele>623.3</ele>
        <time>2020-07-19T14:49:15Z</time>
      </trkpt>
      <trkpt lat="44.27286" lon="3.23277">
        <ele>622</ele>
        <time>2020-07-19T14:49:17Z</time>
      </trkpt>
      <trkpt lat="44.27281" lon="3.2327">
        <ele>621.2</ele>
        <time>2020-07-19T14:49:18Z</time>
      </trkpt>
      <trkpt lat="44.27273" lon="3.23255">
        <ele>619.6</ele>
        <time>2020-07-19T14:49:20Z</time>
      </trkpt>
      <trkpt lat="44.27269" lon="3.2325">
        <ele>618.7</ele>
        <time>2020-07-19T14:49:21Z</time>
      </trkpt>
      <trkpt lat="44.27268" lon="3.23248">
        <ele>618.5</ele>
        <time>2020-07-19T14:49:23Z</time>
      </trkpt>
      <trkpt lat="44.27268" lon="3.23246">
        <ele>618.2</ele>
        <time>2020-07-19T14:49:24Z</time>
      </trkpt>
      <trkpt lat="44.27275" lon="3.23247">
        <ele>616.7</ele>
        <time>2020-07-19T14:49:25Z</time>
      </trkpt>
      <trkpt lat="44.2729" lon="3.2325">
        <ele>612.9</ele>
        <time>2020-07-19T14:49:27Z</time>
      </trkpt>
      <trkpt lat="44.27306" lon="3.23252">
        <ele>608.4</ele>
        <time>2020-07-19T14:49:29Z</time>
      </trkpt>
      <trkpt lat="44.27312" lon="3.23253">
        <ele>607.3</ele>
        <time>2020-07-19T14:49:30Z</time>
      </trkpt>
      <trkpt lat="44.27317" lon="3.23255">
        <ele>606.6</ele>
        <time>2020-07-19T14:49:32Z</time>
      </trkpt>
      <trkpt lat="44.27321" lon="3.23255">
        <ele>606</ele>
        <time>2020-07-19T14:49:34Z</time>
      </trkpt>
      <trkpt lat="44.27322" lon="3.23254">
        <ele>605.7</ele>
        <time>2020-07-19T14:49:35Z</time>
      </trkpt>
      <trkpt lat="44.27322" lon="3.23251">
        <ele>605.4</ele>
        <time>2020-07-19T14:49:36Z</time>
      </trkpt>
      <trkpt lat="44.27317" lon="3.23248">
        <ele>604.4</ele>
        <time>2020-07-19T14:49:38Z</time>
      </trkpt>
      <trkpt lat="44.27314" lon="3.23243">
        <ele>603.6</ele>
        <time>2020-07-19T14:49:39Z</time>
      </trkpt>
      <trkpt lat="44.27311" lon="3.23238">
        <ele>602.5</ele>
        <time>2020-07-19T14:49:40Z</time>
      </trkpt>
      <trkpt lat="44.27308" lon="3.23232">
        <ele>601.2</ele>
        <time>2020-07-19T14:49:42Z</time>
      </trkpt>
      <trkpt lat="44.27305" lon="3.23227">
        <ele>600.1</ele>
        <time>2020-07-19T14:49:43Z</time>
      </trkpt>
      <trkpt lat="44.27297" lon="3.23213">
        <ele>597.3</ele>
        <time>2020-07-19T14:49:45Z</time>
      </trkpt>
      <trkpt lat="44.27294" lon="3.23206">
        <ele>596.1</ele>
        <time>2020-07-19T14:49:46Z</time>
      </trkpt>
      <trkpt lat="44.27292" lon="3.23201">
        <ele>595.3</ele>
        <time>2020-07-19T14:49:48Z</time>
      </trkpt>
      <trkpt lat="44.27293" lon="3.23199">
        <ele>595</ele>
        <time>2020-07-19T14:49:49Z</time>
      </trkpt>
      <trkpt lat="44.27295" lon="3.232">
        <ele>594.7</ele>
        <time>2020-07-19T14:49:50Z</time>
      </trkpt>
      <trkpt lat="44.27296" lon="3.232">
        <ele>594.5</ele>
        <time>2020-07-19T14:49:51Z</time>
      </trkpt>
      <trkpt lat="44.27298" lon="3.232">
        <ele>594.1</ele>
        <time>2020-07-19T14:49:52Z</time>
      </trkpt>
      <trkpt lat="44.273" lon="3.23198">
        <ele>587</ele>
        <time>2020-07-19T14:49:53Z</time>
      </trkpt>
      <trkpt lat="44.27299" lon="3.23198">
        <ele>586.9</ele>
        <time>2020-07-19T14:49:54Z</time>
      </trkpt>
      <trkpt lat="44.27295" lon="3.23196">
        <ele>586.6</ele>
        <time>2020-07-19T14:49:56Z</time>
      </trkpt>
      <trkpt lat="44.27293" lon="3.23191">
        <ele>586.3</ele>
        <time>2020-07-19T14:49:58Z</time>
      </trkpt>
      <trkpt lat="44.27294" lon="3.23189">
        <ele>586.2</ele>
        <time>2020-07-19T14:49:59Z</time>
      </trkpt>
      <trkpt lat="44.27295" lon="3.23189">
        <ele>586.1</ele>
        <time>2020-07-19T14:50:01Z</time>
      </trkpt>
      <trkpt lat="44.27296" lon="3.23189">
        <ele>586</ele>
        <time>2020-07-19T14:50:03Z</time>
      </trkpt>
      <trkpt lat="44.27297" lon="3.2319">
        <ele>585.9</ele>
        <time>2020-07-19T14:50:04Z</time>
      </trkpt>
      <trkpt lat="44.27298" lon="3.2319">
        <ele>585.8</ele>
        <time>2020-07-19T14:50:06Z</time>
      </trkpt>
      <trkpt lat="44.27299" lon="3.2319">
        <ele>585.8</ele>
        <time>2020-07-19T14:50:08Z</time>
      </trkpt>
      <trkpt lat="44.273" lon="3.2319">
        <ele>585.7</ele>
        <time>2020-07-19T14:50:10Z</time>
      </trkpt>
      <trkpt lat="44.27301" lon="3.2319">
        <ele>585.6</ele>
        <time>2020-07-19T14:50:11Z</time>
      </trkpt>
      <trkpt lat="44.27302" lon="3.2319">
        <ele>585.5</ele>
        <time>2020-07-19T14:50:13Z</time>
      </trkpt>
      <trkpt lat="44.27303" lon="3.2319">
        <ele>585.4</ele>
        <time>2020-07-19T14:50:15Z</time>
      </trkpt>
      <trkpt lat="44.27304" lon="3.2319">
        <ele>585.3</ele>
        <time>2020-07-19T14:50:16Z</time>
      </trkpt>
      <trkpt lat="44.27305" lon="3.2319">
        <ele>585.3</ele>
        <time>2020-07-19T14:50:17Z</time>
      </trkpt>
      <trkpt lat="44.27306" lon="3.2319">
        <ele>585.2</ele>
        <time>2020-07-19T14:50:18Z</time>
      </trkpt>
      <trkpt lat="44.27307" lon="3.23191">
        <ele>585.1</ele>
        <time>2020-07-19T14:50:53Z</time>
      </trkpt>
      <trkpt lat="44.27308" lon="3.23191">
        <ele>585</ele>
        <time>2020-07-19T14:50:54Z</time>
      </trkpt>
      <trkpt lat="44.27322" lon="3.23201">
        <ele>583.9</ele>
        <time>2020-07-19T14:50:56Z</time>
      </trkpt>
      <trkpt lat="44.27337" lon="3.23208">
        <ele>582.7</ele>
        <time>2020-07-19T14:50:58Z</time>
      </trkpt>
      <trkpt lat="44.27351" lon="3.23213">
        <ele>581.6</ele>
        <time>2020-07-19T14:51:00Z</time>
      </trkpt>
      <trkpt lat="44.27359" lon="3.23216">
        <ele>581</ele>
        <time>2020-07-19T14:51:01Z</time>
      </trkpt>
      <trkpt lat="44.27374" lon="3.2322">
        <ele>579.9</ele>
        <time>2020-07-19T14:51:03Z</time>
      </trkpt>
      <trkpt lat="44.27379" lon="3.23222">
        <ele>579.4</ele>
        <time>2020-07-19T14:51:04Z</time>
      </trkpt>
      <trkpt lat="44.27386" lon="3.23224">
        <ele>579</ele>
        <time>2020-07-19T14:51:06Z</time>
      </trkpt>
      <trkpt lat="44.27382" lon="3.23221">
        <ele>578.1</ele>
        <time>2020-07-19T14:51:08Z</time>
      </trkpt>
      <trkpt lat="44.27383" lon="3.23218">
        <ele>577.9</ele>
        <time>2020-07-19T14:51:10Z</time>
      </trkpt>
      <trkpt lat="44.27381" lon="3.23211">
        <ele>575.3</ele>
        <time>2020-07-19T14:51:12Z</time>
      </trkpt>
      <trkpt lat="44.27385" lon="3.23217">
        <ele>576.5</ele>
        <time>2020-07-19T14:51:14Z</time>
      </trkpt>
      <trkpt lat="44.27385" lon="3.23216">
        <ele>574.5</ele>
        <time>2020-07-19T14:51:15Z</time>
      </trkpt>
      <trkpt lat="44.27385" lon="3.23214">
        <ele>574.4</ele>
        <time>2020-07-19T14:51:17Z</time>
      </trkpt>
      <trkpt lat="44.27384" lon="3.23212">
        <ele>573.6</ele>
        <time>2020-07-19T14:51:18Z</time>
      </trkpt>
      <trkpt lat="44.27385" lon="3.23208">
        <ele>570.7</ele>
        <time>2020-07-19T14:51:20Z</time>
      </trkpt>
      <trkpt lat="44.27387" lon="3.23204">
        <ele>570.5</ele>
        <time>2020-07-19T14:51:21Z</time>
      </trkpt>
      <trkpt lat="44.27397" lon="3.232">
        <ele>564.8</ele>
        <time>2020-07-19T14:51:23Z</time>
      </trkpt>
      <trkpt lat="44.27404" lon="3.23198">
        <ele>561.4</ele>
        <time>2020-07-19T14:51:24Z</time>
      </trkpt>
      <trkpt lat="44.27408" lon="3.23198">
        <ele>560.5</ele>
        <time>2020-07-19T14:51:26Z</time>
      </trkpt>
      <trkpt lat="44.27412" lon="3.23201">
        <ele>561.1</ele>
        <time>2020-07-19T14:51:28Z</time>
      </trkpt>
      <trkpt lat="44.27414" lon="3.23201">
        <ele>560.2</ele>
        <time>2020-07-19T14:51:29Z</time>
      </trkpt>
      <trkpt lat="44.27423" lon="3.23201">
        <ele>557.8</ele>
        <time>2020-07-19T14:51:31Z</time>
      </trkpt>
      <trkpt lat="44.27426" lon="3.23199">
        <ele>555.5</ele>
        <time>2020-07-19T14:51:32Z</time>
      </trkpt>
      <trkpt lat="44.27426" lon="3.23195">
        <ele>553.9</ele>
        <time>2020-07-19T14:51:33Z</time>
      </trkpt>
      <trkpt lat="44.27426" lon="3.23192">
        <ele>553.8</ele>
        <time>2020-07-19T14:51:34Z</time>
      </trkpt>
      <trkpt lat="44.27421" lon="3.23183">
        <ele>551.4</ele>
        <time>2020-07-19T14:51:36Z</time>
      </trkpt>
      <trkpt lat="44.27415" lon="3.23176">
        <ele>549.6</ele>
        <time>2020-07-19T14:51:37Z</time>
      </trkpt>
      <trkpt lat="44.27411" lon="3.23172">
        <ele>549.3</ele>
        <time>2020-07-19T14:51:38Z</time>
      </trkpt>
      <trkpt lat="44.27409" lon="3.23172">
        <ele>549.2</ele>
        <time>2020-07-19T14:51:40Z</time>
      </trkpt>
      <trkpt lat="44.27405" lon="3.23164">
        <ele>547.6</ele>
        <time>2020-07-19T14:51:42Z</time>
      </trkpt>
      <trkpt lat="44.27399" lon="3.23155">
        <ele>546.6</ele>
        <time>2020-07-19T14:51:43Z</time>
      </trkpt>
      <trkpt lat="44.27394" lon="3.23151">
        <ele>546.1</ele>
        <time>2020-07-19T14:51:44Z</time>
      </trkpt>
      <trkpt lat="44.2739" lon="3.23147">
        <ele>546.7</ele>
        <time>2020-07-19T14:51:46Z</time>
      </trkpt>
      <trkpt lat="44.27391" lon="3.23146">
        <ele>546.6</ele>
        <time>2020-07-19T14:51:47Z</time>
      </trkpt>
      <trkpt lat="44.27392" lon="3.23145">
        <ele>545.4</ele>
        <time>2020-07-19T14:51:49Z</time>
      </trkpt>
      <trkpt lat="44.27393" lon="3.23144">
        <ele>545.3</ele>
        <time>2020-07-19T14:51:51Z</time>
      </trkpt>
      <trkpt lat="44.27394" lon="3.23143">
        <ele>543</ele>
        <time>2020-07-19T14:51:53Z</time>
      </trkpt>
      <trkpt lat="44.27395" lon="3.23141">
        <ele>542.9</ele>
        <time>2020-07-19T14:51:55Z</time>
      </trkpt>
      <trkpt lat="44.27399" lon="3.23137">
        <ele>540.6</ele>
        <time>2020-07-19T14:51:57Z</time>
      </trkpt>
      <trkpt lat="44.274" lon="3.23137">
        <ele>539.7</ele>
        <time>2020-07-19T14:51:58Z</time>
      </trkpt>
      <trkpt lat="44.27401" lon="3.23136">
        <ele>539.6</ele>
        <time>2020-07-19T14:51:59Z</time>
      </trkpt>
      <trkpt lat="44.27403" lon="3.23136">
        <ele>539.4</ele>
        <time>2020-07-19T14:52:00Z</time>
      </trkpt>
      <trkpt lat="44.27404" lon="3.23135">
        <ele>537.3</ele>
        <time>2020-07-19T14:52:01Z</time>
      </trkpt>
      <trkpt lat="44.27404" lon="3.23136">
        <ele>538.4</ele>
        <time>2020-07-19T14:52:03Z</time>
      </trkpt>
      <trkpt lat="44.27404" lon="3.23137">
        <ele>538.3</ele>
        <time>2020-07-19T14:52:04Z</time>
      </trkpt>
      <trkpt lat="44.27405" lon="3.23137">
        <ele>538.2</ele>
        <time>2020-07-19T14:52:06Z</time>
      </trkpt>
      <trkpt lat="44.27403" lon="3.23136">
        <ele>538</ele>
        <time>2020-07-19T14:52:07Z</time>
      </trkpt>
      <trkpt lat="44.27402" lon="3.23135">
        <ele>538.6</ele>
        <time>2020-07-19T14:52:08Z</time>
      </trkpt>
      <trkpt lat="44.27401" lon="3.23133">
        <ele>537.2</ele>
        <time>2020-07-19T14:52:09Z</time>
      </trkpt>
      <trkpt lat="44.274" lon="3.23129">
        <ele>535.8</ele>
        <time>2020-07-19T14:52:11Z</time>
      </trkpt>
      <trkpt lat="44.27401" lon="3.23126">
        <ele>534.4</ele>
        <time>2020-07-19T14:52:12Z</time>
      </trkpt>
      <trkpt lat="44.27403" lon="3.23121">
        <ele>533.1</ele>
        <time>2020-07-19T14:52:14Z</time>
      </trkpt>
      <trkpt lat="44.27401" lon="3.2311">
        <ele>530.7</ele>
        <time>2020-07-19T14:52:15Z</time>
      </trkpt>
      <trkpt lat="44.27403" lon="3.23102">
        <ele>527.9</ele>
        <time>2020-07-19T14:52:17Z</time>
      </trkpt>
      <trkpt lat="44.27406" lon="3.23092">
        <ele>524</ele>
        <time>2020-07-19T14:52:19Z</time>
      </trkpt>
      <trkpt lat="44.27409" lon="3.23089">
        <ele>523.8</ele>
        <time>2020-07-19T14:52:20Z</time>
      </trkpt>
      <trkpt lat="44.2741" lon="3.23088">
        <ele>522</ele>
        <time>2020-07-19T14:52:21Z</time>
      </trkpt>
      <trkpt lat="44.27412" lon="3.23087">
        <ele>521.3</ele>
        <time>2020-07-19T14:52:22Z</time>
      </trkpt>
      <trkpt lat="44.27415" lon="3.23087">
        <ele>520.6</ele>
        <time>2020-07-19T14:52:23Z</time>
      </trkpt>
      <trkpt lat="44.27419" lon="3.23086">
        <ele>519.8</ele>
        <time>2020-07-19T14:52:25Z</time>
      </trkpt>
      <trkpt lat="44.27421" lon="3.23086">
        <ele>519.7</ele>
        <time>2020-07-19T14:52:26Z</time>
      </trkpt>
      <trkpt lat="44.27424" lon="3.23085">
        <ele>519</ele>
        <time>2020-07-19T14:52:27Z</time>
      </trkpt>
      <trkpt lat="44.27425" lon="3.23084">
        <ele>518.3</ele>
        <time>2020-07-19T14:52:28Z</time>
      </trkpt>
      <trkpt lat="44.27424" lon="3.2308">
        <ele>516.9</ele>
        <time>2020-07-19T14:52:30Z</time>
      </trkpt>
      <trkpt lat="44.27423" lon="3.23079">
        <ele>516.1</ele>
        <time>2020-07-19T14:52:31Z</time>
      </trkpt>
      <trkpt lat="44.2742" lon="3.23074">
        <ele>515.3</ele>
        <time>2020-07-19T14:52:32Z</time>
      </trkpt>
      <trkpt lat="44.27418" lon="3.23071">
        <ele>514.5</ele>
        <time>2020-07-19T14:52:33Z</time>
      </trkpt>
      <trkpt lat="44.27413" lon="3.23064">
        <ele>512.6</ele>
        <time>2020-07-19T14:52:35Z</time>
      </trkpt>
      <trkpt lat="44.2741" lon="3.23058">
        <ele>510.7</ele>
        <time>2020-07-19T14:52:36Z</time>
      </trkpt>
      <trkpt lat="44.27406" lon="3.23049">
        <ele>508.5</ele>
        <time>2020-07-19T14:52:38Z</time>
      </trkpt>
      <trkpt lat="44.27405" lon="3.23045">
        <ele>507.7</ele>
        <time>2020-07-19T14:52:39Z</time>
      </trkpt>
      <trkpt lat="44.27408" lon="3.23041">
        <ele>506.6</ele>
        <time>2020-07-19T14:52:40Z</time>
      </trkpt>
      <trkpt lat="44.2741" lon="3.23037">
        <ele>505.4</ele>
        <time>2020-07-19T14:52:42Z</time>
      </trkpt>
      <trkpt lat="44.27415" lon="3.23034">
        <ele>504.4</ele>
        <time>2020-07-19T14:52:43Z</time>
      </trkpt>
      <trkpt lat="44.27419" lon="3.23033">
        <ele>502.7</ele>
        <time>2020-07-19T14:52:44Z</time>
      </trkpt>
      <trkpt lat="44.27426" lon="3.23036">
        <ele>500</ele>
        <time>2020-07-19T14:52:46Z</time>
      </trkpt>
      <trkpt lat="44.27429" lon="3.23038">
        <ele>498.9</ele>
        <time>2020-07-19T14:52:48Z</time>
      </trkpt>
      <trkpt lat="44.2743" lon="3.23039">
        <ele>498.5</ele>
        <time>2020-07-19T14:52:49Z</time>
      </trkpt>
      <trkpt lat="44.2743" lon="3.23037">
        <ele>498.1</ele>
        <time>2020-07-19T14:52:50Z</time>
      </trkpt>
      <trkpt lat="44.27427" lon="3.23034">
        <ele>497.3</ele>
        <time>2020-07-19T14:52:52Z</time>
      </trkpt>
      <trkpt lat="44.27424" lon="3.23032">
        <ele>496.3</ele>
        <time>2020-07-19T14:52:54Z</time>
      </trkpt>
      <trkpt lat="44.27423" lon="3.23031">
        <ele>496.1</ele>
        <time>2020-07-19T14:52:55Z</time>
      </trkpt>
      <trkpt lat="44.27423" lon="3.23031">
        <ele>496</ele>
        <time>2020-07-19T14:52:57Z</time>
      </trkpt>
      <trkpt lat="44.27424" lon="3.23031">
        <ele>495.9</ele>
        <time>2020-07-19T14:52:59Z</time>
      </trkpt>
      <trkpt lat="44.27424" lon="3.2303">
        <ele>495.8</ele>
        <time>2020-07-19T14:53:01Z</time>
      </trkpt>
      <trkpt lat="44.27425" lon="3.2303">
        <ele>495.6</ele>
        <time>2020-07-19T14:53:02Z</time>
      </trkpt>
      <trkpt lat="44.27425" lon="3.2303">
        <ele>495.5</ele>
        <time>2020-07-19T14:53:04Z</time>
      </trkpt>
      <trkpt lat="44.27425" lon="3.23029">
        <ele>495.4</ele>
        <time>2020-07-19T14:53:05Z</time>
      </trkpt>
      <trkpt lat="44.27426" lon="3.23029">
        <ele>495.3</ele>
        <time>2020-07-19T14:53:07Z</time>
      </trkpt>
      <trkpt lat="44.27426" lon="3.23029">
        <ele>495.2</ele>
        <time>2020-07-19T14:53:08Z</time>
      </trkpt>
      <trkpt lat="44.27436" lon="3.23021">
        <ele>492.6</ele>
        <time>2020-07-19T14:53:09Z</time>
      </trkpt>
      <trkpt lat="44.27443" lon="3.23015">
        <ele>490.5</ele>
        <time>2020-07-19T14:53:11Z</time>
      </trkpt>
      <trkpt lat="44.27449" lon="3.23011">
        <ele>489</ele>
        <time>2020-07-19T14:53:12Z</time>
      </trkpt>
      <trkpt lat="44.2746" lon="3.23005">
        <ele>486.1</ele>
        <time>2020-07-19T14:53:14Z</time>
      </trkpt>
      <trkpt lat="44.27464" lon="3.23002">
        <ele>484.6</ele>
        <time>2020-07-19T14:53:15Z</time>
      </trkpt>
      <trkpt lat="44.27467" lon="3.23001">
        <ele>483.3</ele>
        <time>2020-07-19T14:53:17Z</time>
      </trkpt>
      <trkpt lat="44.27471" lon="3.22996">
        <ele>480.9</ele>
        <time>2020-07-19T14:53:18Z</time>
      </trkpt>
      <trkpt lat="44.27474" lon="3.22995">
        <ele>479.1</ele>
        <time>2020-07-19T14:53:19Z</time>
      </trkpt>
      <trkpt lat="44.27486" lon="3.23003">
        <ele>473.2</ele>
        <time>2020-07-19T14:53:21Z</time>
      </trkpt>
      <trkpt lat="44.27497" lon="3.2301">
        <ele>470.8</ele>
        <time>2020-07-19T14:53:23Z</time>
      </trkpt>
      <trkpt lat="44.27509" lon="3.23005">
        <ele>468.6</ele>
        <time>2020-07-19T14:53:25Z</time>
      </trkpt>
      <trkpt lat="44.27513" lon="3.23">
        <ele>467.7</ele>
        <time>2020-07-19T14:53:26Z</time>
      </trkpt>
      <trkpt lat="44.27522" lon="3.22992">
        <ele>466.4</ele>
        <time>2020-07-19T14:53:28Z</time>
      </trkpt>
      <trkpt lat="44.2753" lon="3.22985">
        <ele>465.4</ele>
        <time>2020-07-19T14:53:30Z</time>
      </trkpt>
      <trkpt lat="44.27534" lon="3.2298">
        <ele>464.9</ele>
        <time>2020-07-19T14:53:31Z</time>
      </trkpt>
      <trkpt lat="44.27538" lon="3.22976">
        <ele>464.5</ele>
        <time>2020-07-19T14:53:32Z</time>
      </trkpt>
      <trkpt lat="44.27548" lon="3.22973">
        <ele>463.6</ele>
        <time>2020-07-19T14:53:34Z</time>
      </trkpt>
      <trkpt lat="44.27554" lon="3.22974">
        <ele>463.1</ele>
        <time>2020-07-19T14:53:35Z</time>
      </trkpt>
      <trkpt lat="44.27565" lon="3.22971">
        <ele>462</ele>
        <time>2020-07-19T14:53:37Z</time>
      </trkpt>
      <trkpt lat="44.27578" lon="3.22969">
        <ele>460.8</ele>
        <time>2020-07-19T14:53:39Z</time>
      </trkpt>
      <trkpt lat="44.27585" lon="3.22969">
        <ele>460.3</ele>
        <time>2020-07-19T14:53:40Z</time>
      </trkpt>
      <trkpt lat="44.27598" lon="3.22968">
        <ele>459</ele>
        <time>2020-07-19T14:53:42Z</time>
      </trkpt>
      <trkpt lat="44.27604" lon="3.2297">
        <ele>458.3</ele>
        <time>2020-07-19T14:53:43Z</time>
      </trkpt>
      <trkpt lat="44.27608" lon="3.22971">
        <ele>457.9</ele>
        <time>2020-07-19T14:53:45Z</time>
      </trkpt>
      <trkpt lat="44.27608" lon="3.2297">
        <ele>457.8</ele>
        <time>2020-07-19T14:53:46Z</time>
      </trkpt>
      <trkpt lat="44.27608" lon="3.22968">
        <ele>457.6</ele>
        <time>2020-07-19T14:53:48Z</time>
      </trkpt>
      <trkpt lat="44.27607" lon="3.22968">
        <ele>457.6</ele>
        <time>2020-07-19T14:53:49Z</time>
      </trkpt>
      <trkpt lat="44.27607" lon="3.22967">
        <ele>457.5</ele>
        <time>2020-07-19T14:53:50Z</time>
      </trkpt>
      <trkpt lat="44.27607" lon="3.22967">
        <ele>457.4</ele>
        <time>2020-07-19T14:53:52Z</time>
      </trkpt>
      <trkpt lat="44.27607" lon="3.22967">
        <ele>457.4</ele>
        <time>2020-07-19T14:53:54Z</time>
      </trkpt>
      <trkpt lat="44.27607" lon="3.22967">
        <ele>457.4</ele>
        <time>2020-07-19T14:53:56Z</time>
      </trkpt>
      <trkpt lat="44.27607" lon="3.22967">
        <ele>457.4</ele>
        <time>2020-07-19T14:53:57Z</time>
      </trkpt>
      <trkpt lat="44.27607" lon="3.22967">
        <ele>457.4</ele>
        <time>2020-07-19T14:53:59Z</time>
      </trkpt>
      <trkpt lat="44.27612" lon="3.22967">
        <ele>456.6</ele>
        <time>2020-07-19T14:54:53Z</time>
      </trkpt>
      <trkpt lat="44.27618" lon="3.22966">
        <ele>455.7</ele>
        <time>2020-07-19T14:54:55Z</time>
      </trkpt>
      <trkpt lat="44.2762" lon="3.22965">
        <ele>455.4</ele>
        <time>2020-07-19T14:54:56Z</time>
      </trkpt>
      <trkpt lat="44.2762" lon="3.22963">
        <ele>455</ele>
        <time>2020-07-19T14:54:57Z</time>
      </trkpt>
      <trkpt lat="44.27623" lon="3.22965">
        <ele>454.5</ele>
        <time>2020-07-19T14:54:59Z</time>
      </trkpt>
      <trkpt lat="44.27624" lon="3.22964">
        <ele>454.1</ele>
        <time>2020-07-19T14:55:00Z</time>
      </trkpt>
      <trkpt lat="44.27626" lon="3.22962">
        <ele>453.7</ele>
        <time>2020-07-19T14:55:01Z</time>
      </trkpt>
      <trkpt lat="44.27628" lon="3.22963">
        <ele>453.2</ele>
        <time>2020-07-19T14:55:02Z</time>
      </trkpt>
      <trkpt lat="44.27631" lon="3.22965">
        <ele>452.5</ele>
        <time>2020-07-19T14:55:04Z</time>
      </trkpt>
      <trkpt lat="44.27634" lon="3.22967">
        <ele>451.9</ele>
        <time>2020-07-19T14:55:05Z</time>
      </trkpt>
      <trkpt lat="44.27635" lon="3.22968">
        <ele>451.6</ele>
        <time>2020-07-19T14:55:06Z</time>
      </trkpt>
      <trkpt lat="44.27638" lon="3.22968">
        <ele>451.1</ele>
        <time>2020-07-19T14:55:07Z</time>
      </trkpt>
      <trkpt lat="44.27641" lon="3.22966">
        <ele>450.5</ele>
        <time>2020-07-19T14:55:09Z</time>
      </trkpt>
      <trkpt lat="44.27642" lon="3.22965">
        <ele>450.3</ele>
        <time>2020-07-19T14:55:11Z</time>
      </trkpt>
      <trkpt lat="44.27643" lon="3.22965">
        <ele>450.1</ele>
        <time>2020-07-19T14:55:12Z</time>
      </trkpt>
      <trkpt lat="44.27644" lon="3.22964">
        <ele>449.9</ele>
        <time>2020-07-19T14:55:13Z</time>
      </trkpt>
      <trkpt lat="44.27645" lon="3.22964">
        <ele>449.8</ele>
        <time>2020-07-19T14:55:15Z</time>
      </trkpt>
      <trkpt lat="44.27646" lon="3.22964">
        <ele>449.6</ele>
        <time>2020-07-19T14:55:17Z</time>
      </trkpt>
      <trkpt lat="44.27647" lon="3.22963">
        <ele>449.4</ele>
        <time>2020-07-19T14:55:18Z</time>
      </trkpt>
      <trkpt lat="44.2765" lon="3.22963">
        <ele>449.1</ele>
        <time>2020-07-19T14:55:19Z</time>
      </trkpt>
      <trkpt lat="44.27655" lon="3.22961">
        <ele>448.5</ele>
        <time>2020-07-19T14:55:21Z</time>
      </trkpt>
      <trkpt lat="44.27667" lon="3.22955">
        <ele>446.8</ele>
        <time>2020-07-19T14:55:22Z</time>
      </trkpt>
      <trkpt lat="44.27676" lon="3.22951">
        <ele>445.9</ele>
        <time>2020-07-19T14:55:23Z</time>
      </trkpt>
      <trkpt lat="44.27689" lon="3.22946">
        <ele>444.5</ele>
        <time>2020-07-19T14:55:25Z</time>
      </trkpt>
      <trkpt lat="44.27695" lon="3.22942">
        <ele>443.8</ele>
        <time>2020-07-19T14:55:26Z</time>
      </trkpt>
      <trkpt lat="44.277" lon="3.22939">
        <ele>443</ele>
        <time>2020-07-19T14:55:27Z</time>
      </trkpt>
      <trkpt lat="44.27712" lon="3.22931">
        <ele>441.7</ele>
        <time>2020-07-19T14:55:29Z</time>
      </trkpt>
      <trkpt lat="44.27717" lon="3.2293">
        <ele>441.2</ele>
        <time>2020-07-19T14:55:30Z</time>
      </trkpt>
      <trkpt lat="44.27722" lon="3.2293">
        <ele>440.6</ele>
        <time>2020-07-19T14:55:31Z</time>
      </trkpt>
      <trkpt lat="44.27723" lon="3.22928">
        <ele>440.5</ele>
        <time>2020-07-19T14:55:32Z</time>
      </trkpt>
      <trkpt lat="44.27727" lon="3.22926">
        <ele>439.9</ele>
        <time>2020-07-19T14:55:34Z</time>
      </trkpt>
      <trkpt lat="44.27735" lon="3.22934">
        <ele>438.6</ele>
        <time>2020-07-19T14:55:36Z</time>
      </trkpt>
      <trkpt lat="44.2774" lon="3.2294">
        <ele>437.7</ele>
        <time>2020-07-19T14:55:37Z</time>
      </trkpt>
      <trkpt lat="44.27743" lon="3.22945">
        <ele>437</ele>
        <time>2020-07-19T14:55:38Z</time>
      </trkpt>
      <trkpt lat="44.27748" lon="3.2296">
        <ele>434.8</ele>
        <time>2020-07-19T14:55:40Z</time>
      </trkpt>
      <trkpt lat="44.27753" lon="3.22973">
        <ele>432.7</ele>
        <time>2020-07-19T14:55:42Z</time>
      </trkpt>
      <trkpt lat="44.27757" lon="3.22977">
        <ele>432</ele>
        <time>2020-07-19T14:55:43Z</time>
      </trkpt>
      <trkpt lat="44.27761" lon="3.22981">
        <ele>431</ele>
        <time>2020-07-19T14:55:44Z</time>
      </trkpt>
      <trkpt lat="44.27767" lon="3.22987">
        <ele>429.5</ele>
        <time>2020-07-19T14:55:46Z</time>
      </trkpt>
      <trkpt lat="44.27767" lon="3.22988">
        <ele>429.4</ele>
        <time>2020-07-19T14:55:47Z</time>
      </trkpt>
      <trkpt lat="44.27773" lon="3.22994">
        <ele>428</ele>
        <time>2020-07-19T14:55:49Z</time>
      </trkpt>
      <trkpt lat="44.2778" lon="3.23001">
        <ele>426.6</ele>
        <time>2020-07-19T14:55:50Z</time>
      </trkpt>
      <trkpt lat="44.27788" lon="3.23009">
        <ele>423.8</ele>
        <time>2020-07-19T14:55:52Z</time>
      </trkpt>
      <trkpt lat="44.27792" lon="3.23005">
        <ele>423</ele>
        <time>2020-07-19T14:55:54Z</time>
      </trkpt>
      <trkpt lat="44.27793" lon="3.23">
        <ele>422.4</ele>
        <time>2020-07-19T14:55:56Z</time>
      </trkpt>
      <trkpt lat="44.27793" lon="3.22998">
        <ele>422.3</ele>
        <time>2020-07-19T14:55:57Z</time>
      </trkpt>
      <trkpt lat="44.27796" lon="3.22992">
        <ele>421.6</ele>
        <time>2020-07-19T14:55:58Z</time>
      </trkpt>
      <trkpt lat="44.27799" lon="3.22991">
        <ele>421.2</ele>
        <time>2020-07-19T14:55:59Z</time>
      </trkpt>
      <trkpt lat="44.27802" lon="3.22992">
        <ele>420.9</ele>
        <time>2020-07-19T14:56:01Z</time>
      </trkpt>
      <trkpt lat="44.27805" lon="3.22993">
        <ele>420.6</ele>
        <time>2020-07-19T14:56:02Z</time>
      </trkpt>
      <trkpt lat="44.27807" lon="3.22989">
        <ele>420.2</ele>
        <time>2020-07-19T14:56:04Z</time>
      </trkpt>
      <trkpt lat="44.2781" lon="3.22985">
        <ele>419.9</ele>
        <time>2020-07-19T14:56:05Z</time>
      </trkpt>
      <trkpt lat="44.27813" lon="3.22979">
        <ele>419.3</ele>
        <time>2020-07-19T14:56:07Z</time>
      </trkpt>
      <trkpt lat="44.27815" lon="3.22976">
        <ele>419.2</ele>
        <time>2020-07-19T14:56:08Z</time>
      </trkpt>
      <trkpt lat="44.27816" lon="3.22976">
        <ele>419.2</ele>
        <time>2020-07-19T14:56:09Z</time>
      </trkpt>
      <trkpt lat="44.27815" lon="3.22978">
        <ele>419.2</ele>
        <time>2020-07-19T14:56:11Z</time>
      </trkpt>
      <trkpt lat="44.27815" lon="3.22977">
        <ele>419.2</ele>
        <time>2020-07-19T14:56:12Z</time>
      </trkpt>
      <trkpt lat="44.27816" lon="3.22977">
        <ele>419.2</ele>
        <time>2020-07-19T14:56:13Z</time>
      </trkpt>
      <trkpt lat="44.27816" lon="3.22978">
        <ele>419.2</ele>
        <time>2020-07-19T14:56:14Z</time>
      </trkpt>
      <trkpt lat="44.27816" lon="3.22979">
        <ele>419.2</ele>
        <time>2020-07-19T14:56:15Z</time>
      </trkpt>
      <trkpt lat="44.27816" lon="3.22981">
        <ele>419.2</ele>
        <time>2020-07-19T14:56:17Z</time>
      </trkpt>
      <trkpt lat="44.27814" lon="3.22981">
        <ele>419.2</ele>
        <time>2020-07-19T14:56:18Z</time>
      </trkpt>
      <trkpt lat="44.27813" lon="3.22981">
        <ele>419.2</ele>
        <time>2020-07-19T14:56:20Z</time>
      </trkpt>
      <trkpt lat="44.27813" lon="3.22981">
        <ele>419.2</ele>
        <time>2020-07-19T14:56:21Z</time>
      </trkpt>
      <trkpt lat="44.2779" lon="3.22951">
        <ele>417.7</ele>
        <time>2020-07-19T14:56:23Z</time>
      </trkpt>
      <trkpt lat="44.2778" lon="3.22935">
        <ele>416.6</ele>
        <time>2020-07-19T14:56:25Z</time>
      </trkpt>
      <trkpt lat="44.27776" lon="3.22926">
        <ele>416.1</ele>
        <time>2020-07-19T14:56:26Z</time>
      </trkpt>
      <trkpt lat="44.27772" lon="3.22919">
        <ele>415.8</ele>
        <time>2020-07-19T14:56:27Z</time>
      </trkpt>
      <trkpt lat="44.27766" lon="3.22906">
        <ele>416.2</ele>
        <time>2020-07-19T14:56:29Z</time>
      </trkpt>
      <trkpt lat="44.27759" lon="3.22895">
        <ele>417.1</ele>
        <time>2020-07-19T14:56:31Z</time>
      </trkpt>
      <trkpt lat="44.27755" lon="3.2289">
        <ele>417.5</ele>
        <time>2020-07-19T14:56:32Z</time>
      </trkpt>
      <trkpt lat="44.27747" lon="3.22882">
        <ele>418.3</ele>
        <time>2020-07-19T14:56:34Z</time>
      </trkpt>
      <trkpt lat="44.27742" lon="3.22877">
        <ele>418.8</ele>
        <time>2020-07-19T14:56:35Z</time>
      </trkpt>
      <trkpt lat="44.27733" lon="3.22866">
        <ele>419.7</ele>
        <time>2020-07-19T14:56:37Z</time>
      </trkpt>
      <trkpt lat="44.27729" lon="3.22862">
        <ele>420.1</ele>
        <time>2020-07-19T14:56:38Z</time>
      </trkpt>
      <trkpt lat="44.27726" lon="3.22857">
        <ele>420.5</ele>
        <time>2020-07-19T14:56:40Z</time>
      </trkpt>
      <trkpt lat="44.27726" lon="3.22856">
        <ele>420.6</ele>
        <time>2020-07-19T14:56:41Z</time>
      </trkpt>
      <trkpt lat="44.27725" lon="3.22853">
        <ele>420.8</ele>
        <time>2020-07-19T14:56:42Z</time>
      </trkpt>
      <trkpt lat="44.27723" lon="3.22847">
        <ele>421.2</ele>
        <time>2020-07-19T14:56:44Z</time>
      </trkpt>
      <trkpt lat="44.27722" lon="3.22843">
        <ele>421.6</ele>
        <time>2020-07-19T14:56:45Z</time>
      </trkpt>
      <trkpt lat="44.27724" lon="3.22837">
        <ele>421.7</ele>
        <time>2020-07-19T14:56:47Z</time>
      </trkpt>
      <trkpt lat="44.27766" lon="3.22743">
        <ele>415.8</ele>
      </trkpt>
      <trkpt lat="44.2775" lon="3.22723">
        <ele>417.8</ele>
      </trkpt>
      <trkpt lat="44.27749" lon="3.22713">
        <ele>419.8</ele>
      </trkpt>
      <trkpt lat="44.27713" lon="3.22661">
        <ele>422.8</ele>
      </trkpt>
      <trkpt lat="44.27703" lon="3.22645">
        <ele>424.5</ele>
      </trkpt>
      <trkpt lat="44.27697" lon="3.22627">
        <ele>425.5</ele>
      </trkpt>
      <trkpt lat="44.27697" lon="3.22616">
        <ele>426.6</ele>
      </trkpt>
      <trkpt lat="44.27699" lon="3.22608">
        <ele>428.8</ele>
      </trkpt>
      <trkpt lat="44.27705" lon="3.22606">
        <ele>432.4</ele>
      </trkpt>
      <trkpt lat="44.27712" lon="3.22606">
        <ele>435.4</ele>
      </trkpt>
      <trkpt lat="44.27715" lon="3.22615">
        <ele>434.3</ele>
      </trkpt>
      <trkpt lat="44.27721" lon="3.22639">
        <ele>430.5</ele>
      </trkpt>
      <trkpt lat="44.27726" lon="3.22649">
        <ele>430.4</ele>
      </trkpt>
      <trkpt lat="44.27736" lon="3.22657">
        <ele>439.3</ele>
        <time>2017-02-17T14:05:24Z</time>
      </trkpt>
      <trkpt lat="44.27738" lon="3.2266">
        <ele>439.7</ele>
        <time>2017-02-17T14:05:25Z</time>
      </trkpt>
      <trkpt lat="44.27744" lon="3.22668">
        <ele>440.7</ele>
        <time>2017-02-17T14:05:26Z</time>
      </trkpt>
      <trkpt lat="44.2775" lon="3.22674">
        <ele>441.7</ele>
        <time>2017-02-17T14:05:27Z</time>
      </trkpt>
      <trkpt lat="44.27754" lon="3.22678">
        <ele>442.2</ele>
        <time>2017-02-17T14:05:28Z</time>
      </trkpt>
      <trkpt lat="44.2776" lon="3.22689">
        <ele>443.3</ele>
        <time>2017-02-17T14:05:45Z</time>
      </trkpt>
      <trkpt lat="44.27766" lon="3.22689">
        <ele>443.9</ele>
        <time>2017-02-17T14:05:48Z</time>
      </trkpt>
      <trkpt lat="44.27769" lon="3.22692">
        <ele>444.2</ele>
        <time>2017-02-17T14:05:51Z</time>
      </trkpt>
      <trkpt lat="44.27772" lon="3.22695">
        <ele>444.6</ele>
        <time>2017-02-17T14:05:53Z</time>
      </trkpt>
      <trkpt lat="44.27777" lon="3.22695">
        <ele>445.1</ele>
        <time>2017-02-17T14:05:56Z</time>
      </trkpt>
      <trkpt lat="44.2778" lon="3.22696">
        <ele>445.5</ele>
        <time>2017-02-17T14:05:58Z</time>
      </trkpt>
      <trkpt lat="44.27784" lon="3.22698">
        <ele>445.9</ele>
        <time>2017-02-17T14:06:00Z</time>
      </trkpt>
      <trkpt lat="44.27787" lon="3.227">
        <ele>446.3</ele>
        <time>2017-02-17T14:06:02Z</time>
      </trkpt>
      <trkpt lat="44.2779" lon="3.22702">
        <ele>446.5</ele>
        <time>2017-02-17T14:06:04Z</time>
      </trkpt>
      <trkpt lat="44.27793" lon="3.22703">
        <ele>446.8</ele>
        <time>2017-02-17T14:06:06Z</time>
      </trkpt>
      <trkpt lat="44.27797" lon="3.22704">
        <ele>447.2</ele>
        <time>2017-02-17T14:06:08Z</time>
      </trkpt>
      <trkpt lat="44.278" lon="3.22706">
        <ele>447.6</ele>
        <time>2017-02-17T14:06:10Z</time>
      </trkpt>
      <trkpt lat="44.27803" lon="3.22709">
        <ele>448</ele>
        <time>2017-02-17T14:06:12Z</time>
      </trkpt>
      <trkpt lat="44.27806" lon="3.22712">
        <ele>448.4</ele>
        <time>2017-02-17T14:06:14Z</time>
      </trkpt>
      <trkpt lat="44.27807" lon="3.22716">
        <ele>448.8</ele>
        <time>2017-02-17T14:06:16Z</time>
      </trkpt>
      <trkpt lat="44.27811" lon="3.22721">
        <ele>449.3</ele>
        <time>2017-02-17T14:06:21Z</time>
      </trkpt>
      <trkpt lat="44.27815" lon="3.22721">
        <ele>449.8</ele>
        <time>2017-02-17T14:06:23Z</time>
      </trkpt>
      <trkpt lat="44.27818" lon="3.22721">
        <ele>450.2</ele>
        <time>2017-02-17T14:06:25Z</time>
      </trkpt>
      <trkpt lat="44.27822" lon="3.22723">
        <ele>450.7</ele>
        <time>2017-02-17T14:06:27Z</time>
      </trkpt>
      <trkpt lat="44.27826" lon="3.22724">
        <ele>451.2</ele>
        <time>2017-02-17T14:06:29Z</time>
      </trkpt>
      <trkpt lat="44.27833" lon="3.22726">
        <ele>451.9</ele>
        <time>2017-02-17T14:06:32Z</time>
      </trkpt>
      <trkpt lat="44.27835" lon="3.22726">
        <ele>452.2</ele>
        <time>2017-02-17T14:06:33Z</time>
      </trkpt>
      <trkpt lat="44.2784" lon="3.22726">
        <ele>452.7</ele>
        <time>2017-02-17T14:06:35Z</time>
      </trkpt>
      <trkpt lat="44.27844" lon="3.22725">
        <ele>453.2</ele>
        <time>2017-02-17T14:06:37Z</time>
      </trkpt>
      <trkpt lat="44.27848" lon="3.22726">
        <ele>453.6</ele>
        <time>2017-02-17T14:06:39Z</time>
      </trkpt>
      <trkpt lat="44.27852" lon="3.22728">
        <ele>454</ele>
        <time>2017-02-17T14:06:41Z</time>
      </trkpt>
      <trkpt lat="44.27856" lon="3.22728">
        <ele>454.4</ele>
        <time>2017-02-17T14:06:43Z</time>
      </trkpt>
      <trkpt lat="44.2786" lon="3.22729">
        <ele>454.8</ele>
        <time>2017-02-17T14:06:45Z</time>
      </trkpt>
      <trkpt lat="44.27863" lon="3.22731">
        <ele>455.1</ele>
        <time>2017-02-17T14:06:47Z</time>
      </trkpt>
      <trkpt lat="44.27867" lon="3.22732">
        <ele>455.5</ele>
        <time>2017-02-17T14:06:49Z</time>
      </trkpt>
      <trkpt lat="44.27871" lon="3.22733">
        <ele>455.9</ele>
        <time>2017-02-17T14:06:51Z</time>
      </trkpt>
      <trkpt lat="44.27875" lon="3.22735">
        <ele>456</ele>
        <time>2017-02-17T14:06:53Z</time>
      </trkpt>
      <trkpt lat="44.27877" lon="3.22737">
        <ele>456</ele>
        <time>2017-02-17T14:06:55Z</time>
      </trkpt>
      <trkpt lat="44.2788" lon="3.22741">
        <ele>455.9</ele>
        <time>2017-02-17T14:07:00Z</time>
      </trkpt>
      <trkpt lat="44.27883" lon="3.22744">
        <ele>455.9</ele>
        <time>2017-02-17T14:07:02Z</time>
      </trkpt>
      <trkpt lat="44.27885" lon="3.22748">
        <ele>455.9</ele>
        <time>2017-02-17T14:07:04Z</time>
      </trkpt>
      <trkpt lat="44.27888" lon="3.2275">
        <ele>455.9</ele>
        <time>2017-02-17T14:07:05Z</time>
      </trkpt>
      <trkpt lat="44.2789" lon="3.22752">
        <ele>455.9</ele>
        <time>2017-02-17T14:07:06Z</time>
      </trkpt>
      <trkpt lat="44.27893" lon="3.22755">
        <ele>455.9</ele>
        <time>2017-02-17T14:07:08Z</time>
      </trkpt>
      <trkpt lat="44.27897" lon="3.22757">
        <ele>455.9</ele>
        <time>2017-02-17T14:07:10Z</time>
      </trkpt>
      <trkpt lat="44.279" lon="3.22759">
        <ele>455.9</ele>
        <time>2017-02-17T14:07:12Z</time>
      </trkpt>
      <trkpt lat="44.27904" lon="3.22761">
        <ele>455.9</ele>
        <time>2017-02-17T14:07:14Z</time>
      </trkpt>
      <trkpt lat="44.27908" lon="3.22763">
        <ele>455.9</ele>
        <time>2017-02-17T14:07:17Z</time>
      </trkpt>
      <trkpt lat="44.27911" lon="3.22765">
        <ele>455.9</ele>
        <time>2017-02-17T14:07:19Z</time>
      </trkpt>
      <trkpt lat="44.27916" lon="3.22766">
        <ele>455.9</ele>
        <time>2017-02-17T14:07:21Z</time>
      </trkpt>
      <trkpt lat="44.27919" lon="3.22768">
        <ele>455.9</ele>
        <time>2017-02-17T14:07:23Z</time>
      </trkpt>
      <trkpt lat="44.27922" lon="3.2277">
        <ele>455.9</ele>
        <time>2017-02-17T14:07:25Z</time>
      </trkpt>
      <trkpt lat="44.27925" lon="3.22773">
        <ele>456</ele>
        <time>2017-02-17T14:07:27Z</time>
      </trkpt>
      <trkpt lat="44.27927" lon="3.22776">
        <ele>456</ele>
        <time>2017-02-17T14:07:29Z</time>
      </trkpt>
      <trkpt lat="44.2793" lon="3.2278">
        <ele>456.3</ele>
        <time>2017-02-17T14:07:32Z</time>
      </trkpt>
      <trkpt lat="44.27934" lon="3.22781">
        <ele>456.7</ele>
        <time>2017-02-17T14:07:35Z</time>
      </trkpt>
      <trkpt lat="44.27937" lon="3.22784">
        <ele>457</ele>
        <time>2017-02-17T14:07:38Z</time>
      </trkpt>
      <trkpt lat="44.27939" lon="3.22786">
        <ele>457.4</ele>
        <time>2017-02-17T14:07:41Z</time>
      </trkpt>
      <trkpt lat="44.27942" lon="3.22788">
        <ele>457.8</ele>
        <time>2017-02-17T14:07:44Z</time>
      </trkpt>
      <trkpt lat="44.27946" lon="3.2279">
        <ele>458.2</ele>
        <time>2017-02-17T14:07:47Z</time>
      </trkpt>
      <trkpt lat="44.27948" lon="3.22791">
        <ele>458.4</ele>
        <time>2017-02-17T14:07:49Z</time>
      </trkpt>
      <trkpt lat="44.27951" lon="3.22794">
        <ele>458.7</ele>
        <time>2017-02-17T14:07:52Z</time>
      </trkpt>
      <trkpt lat="44.27955" lon="3.22796">
        <ele>459.2</ele>
        <time>2017-02-17T14:07:55Z</time>
      </trkpt>
      <trkpt lat="44.27958" lon="3.22797">
        <ele>459.5</ele>
        <time>2017-02-17T14:07:57Z</time>
      </trkpt>
      <trkpt lat="44.27961" lon="3.22797">
        <ele>459.8</ele>
        <time>2017-02-17T14:07:59Z</time>
      </trkpt>
      <trkpt lat="44.27964" lon="3.22798">
        <ele>460</ele>
        <time>2017-02-17T14:08:01Z</time>
      </trkpt>
      <trkpt lat="44.27967" lon="3.228">
        <ele>460.3</ele>
        <time>2017-02-17T14:08:03Z</time>
      </trkpt>
      <trkpt lat="44.2797" lon="3.22801">
        <ele>460.7</ele>
        <time>2017-02-17T14:08:05Z</time>
      </trkpt>
      <trkpt lat="44.27973" lon="3.22803">
        <ele>461</ele>
        <time>2017-02-17T14:08:07Z</time>
      </trkpt>
      <trkpt lat="44.27978" lon="3.22805">
        <ele>461.5</ele>
        <time>2017-02-17T14:08:11Z</time>
      </trkpt>
      <trkpt lat="44.27981" lon="3.22807">
        <ele>461.7</ele>
        <time>2017-02-17T14:08:13Z</time>
      </trkpt>
      <trkpt lat="44.27984" lon="3.22808">
        <ele>462</ele>
        <time>2017-02-17T14:08:15Z</time>
      </trkpt>
      <trkpt lat="44.27986" lon="3.22809">
        <ele>462.3</ele>
        <time>2017-02-17T14:08:17Z</time>
      </trkpt>
      <trkpt lat="44.27989" lon="3.22811">
        <ele>462.6</ele>
        <time>2017-02-17T14:08:19Z</time>
      </trkpt>
      <trkpt lat="44.27992" lon="3.22811">
        <ele>462.8</ele>
        <time>2017-02-17T14:08:21Z</time>
      </trkpt>
      <trkpt lat="44.27996" lon="3.22813">
        <ele>463.2</ele>
        <time>2017-02-17T14:08:24Z</time>
      </trkpt>
      <trkpt lat="44.27999" lon="3.22814">
        <ele>463.6</ele>
        <time>2017-02-17T14:08:26Z</time>
      </trkpt>
      <trkpt lat="44.28002" lon="3.22815">
        <ele>463.9</ele>
        <time>2017-02-17T14:08:28Z</time>
      </trkpt>
      <trkpt lat="44.28005" lon="3.22815">
        <ele>464.1</ele>
        <time>2017-02-17T14:08:30Z</time>
      </trkpt>
      <trkpt lat="44.28009" lon="3.22815">
        <ele>464.5</ele>
        <time>2017-02-17T14:08:34Z</time>
      </trkpt>
      <trkpt lat="44.28012" lon="3.22815">
        <ele>464.8</ele>
        <time>2017-02-17T14:08:37Z</time>
      </trkpt>
      <trkpt lat="44.28016" lon="3.22816">
        <ele>465.1</ele>
        <time>2017-02-17T14:08:39Z</time>
      </trkpt>
      <trkpt lat="44.2802" lon="3.22816">
        <ele>465.5</ele>
        <time>2017-02-17T14:08:41Z</time>
      </trkpt>
      <trkpt lat="44.28023" lon="3.22815">
        <ele>465.8</ele>
        <time>2017-02-17T14:08:43Z</time>
      </trkpt>
      <trkpt lat="44.28026" lon="3.22814">
        <ele>466</ele>
        <time>2017-02-17T14:08:45Z</time>
      </trkpt>
      <trkpt lat="44.28029" lon="3.22815">
        <ele>466.4</ele>
        <time>2017-02-17T14:08:47Z</time>
      </trkpt>
      <trkpt lat="44.28032" lon="3.22814">
        <ele>466.6</ele>
        <time>2017-02-17T14:08:49Z</time>
      </trkpt>
      <trkpt lat="44.28035" lon="3.22814">
        <ele>466.9</ele>
        <time>2017-02-17T14:08:53Z</time>
      </trkpt>
      <trkpt lat="44.28038" lon="3.22815">
        <ele>467.1</ele>
        <time>2017-02-17T14:08:56Z</time>
      </trkpt>
      <trkpt lat="44.28042" lon="3.22816">
        <ele>467.5</ele>
        <time>2017-02-17T14:08:59Z</time>
      </trkpt>
      <trkpt lat="44.28045" lon="3.22817">
        <ele>467.8</ele>
        <time>2017-02-17T14:09:01Z</time>
      </trkpt>
      <trkpt lat="44.28049" lon="3.22818">
        <ele>468.2</ele>
        <time>2017-02-17T14:09:03Z</time>
      </trkpt>
      <trkpt lat="44.28052" lon="3.22818">
        <ele>468.5</ele>
        <time>2017-02-17T14:09:05Z</time>
      </trkpt>
      <trkpt lat="44.28055" lon="3.22817">
        <ele>468.8</ele>
        <time>2017-02-17T14:09:07Z</time>
      </trkpt>
      <trkpt lat="44.28058" lon="3.22816">
        <ele>469</ele>
        <time>2017-02-17T14:09:09Z</time>
      </trkpt>
      <trkpt lat="44.28061" lon="3.22816">
        <ele>469.3</ele>
        <time>2017-02-17T14:09:11Z</time>
      </trkpt>
      <trkpt lat="44.28064" lon="3.22817">
        <ele>469.6</ele>
        <time>2017-02-17T14:09:13Z</time>
      </trkpt>
      <trkpt lat="44.28067" lon="3.22817">
        <ele>469.8</ele>
        <time>2017-02-17T14:09:15Z</time>
      </trkpt>
      <trkpt lat="44.2807" lon="3.22817">
        <ele>470.1</ele>
        <time>2017-02-17T14:09:17Z</time>
      </trkpt>
      <trkpt lat="44.28073" lon="3.22816">
        <ele>470.4</ele>
        <time>2017-02-17T14:09:19Z</time>
      </trkpt>
      <trkpt lat="44.28077" lon="3.22815">
        <ele>470.8</ele>
        <time>2017-02-17T14:09:21Z</time>
      </trkpt>
      <trkpt lat="44.28081" lon="3.22814">
        <ele>471.1</ele>
        <time>2017-02-17T14:09:23Z</time>
      </trkpt>
      <trkpt lat="44.28084" lon="3.22812">
        <ele>471.5</ele>
        <time>2017-02-17T14:09:25Z</time>
      </trkpt>
      <trkpt lat="44.28087" lon="3.22811">
        <ele>471.8</ele>
        <time>2017-02-17T14:09:27Z</time>
      </trkpt>
      <trkpt lat="44.28089" lon="3.2281">
        <ele>472.1</ele>
        <time>2017-02-17T14:09:29Z</time>
      </trkpt>
      <trkpt lat="44.28092" lon="3.22808">
        <ele>472.4</ele>
        <time>2017-02-17T14:09:31Z</time>
      </trkpt>
      <trkpt lat="44.28096" lon="3.22806">
        <ele>472.8</ele>
        <time>2017-02-17T14:09:33Z</time>
      </trkpt>
      <trkpt lat="44.28099" lon="3.22805">
        <ele>473.1</ele>
        <time>2017-02-17T14:09:35Z</time>
      </trkpt>
      <trkpt lat="44.28102" lon="3.22803">
        <ele>473.5</ele>
        <time>2017-02-17T14:09:38Z</time>
      </trkpt>
      <trkpt lat="44.28104" lon="3.22801">
        <ele>473.8</ele>
        <time>2017-02-17T14:09:40Z</time>
      </trkpt>
      <trkpt lat="44.28107" lon="3.22798">
        <ele>474.2</ele>
        <time>2017-02-17T14:09:42Z</time>
      </trkpt>
      <trkpt lat="44.2811" lon="3.22795">
        <ele>474.6</ele>
        <time>2017-02-17T14:09:44Z</time>
      </trkpt>
      <trkpt lat="44.28112" lon="3.22792">
        <ele>474.9</ele>
        <time>2017-02-17T14:09:46Z</time>
      </trkpt>
      <trkpt lat="44.28114" lon="3.22789">
        <ele>475.1</ele>
        <time>2017-02-17T14:09:48Z</time>
      </trkpt>
      <trkpt lat="44.28116" lon="3.22785">
        <ele>475.4</ele>
        <time>2017-02-17T14:09:51Z</time>
      </trkpt>
      <trkpt lat="44.28118" lon="3.2278">
        <ele>475.8</ele>
        <time>2017-02-17T14:09:54Z</time>
      </trkpt>
      <trkpt lat="44.28119" lon="3.22776">
        <ele>476.1</ele>
        <time>2017-02-17T14:09:56Z</time>
      </trkpt>
      <trkpt lat="44.2812" lon="3.22772">
        <ele>476.3</ele>
        <time>2017-02-17T14:09:58Z</time>
      </trkpt>
      <trkpt lat="44.28121" lon="3.22767">
        <ele>476.7</ele>
        <time>2017-02-17T14:10:01Z</time>
      </trkpt>
      <trkpt lat="44.2812" lon="3.22763">
        <ele>476.9</ele>
        <time>2017-02-17T14:10:04Z</time>
      </trkpt>
      <trkpt lat="44.28119" lon="3.22759">
        <ele>477.2</ele>
        <time>2017-02-17T14:10:08Z</time>
      </trkpt>
      <trkpt lat="44.28122" lon="3.22755">
        <ele>477.5</ele>
        <time>2017-02-17T14:10:13Z</time>
      </trkpt>
      <trkpt lat="44.28125" lon="3.22752">
        <ele>477.8</ele>
        <time>2017-02-17T14:10:15Z</time>
      </trkpt>
      <trkpt lat="44.28132" lon="3.2275">
        <ele>478.3</ele>
        <time>2017-02-17T14:10:17Z</time>
      </trkpt>
      <trkpt lat="44.28137" lon="3.22747">
        <ele>478.7</ele>
        <time>2017-02-17T14:10:19Z</time>
      </trkpt>
      <trkpt lat="44.2814" lon="3.22747">
        <ele>479</ele>
        <time>2017-02-17T14:10:21Z</time>
      </trkpt>
      <trkpt lat="44.28144" lon="3.22746">
        <ele>479.3</ele>
        <time>2017-02-17T14:10:23Z</time>
      </trkpt>
      <trkpt lat="44.28148" lon="3.22745">
        <ele>479.5</ele>
        <time>2017-02-17T14:10:24Z</time>
      </trkpt>
      <trkpt lat="44.28151" lon="3.22743">
        <ele>479.8</ele>
        <time>2017-02-17T14:10:25Z</time>
      </trkpt>
      <trkpt lat="44.28157" lon="3.22743">
        <ele>480.2</ele>
        <time>2017-02-17T14:10:27Z</time>
      </trkpt>
      <trkpt lat="44.28161" lon="3.22741">
        <ele>480.4</ele>
        <time>2017-02-17T14:10:28Z</time>
      </trkpt>
      <trkpt lat="44.28165" lon="3.22739">
        <ele>480.8</ele>
        <time>2017-02-17T14:10:29Z</time>
      </trkpt>
      <trkpt lat="44.28168" lon="3.22738">
        <ele>481</ele>
        <time>2017-02-17T14:10:31Z</time>
      </trkpt>
      <trkpt lat="44.28173" lon="3.22737">
        <ele>481.4</ele>
        <time>2017-02-17T14:10:33Z</time>
      </trkpt>
      <trkpt lat="44.28178" lon="3.22735">
        <ele>481.7</ele>
        <time>2017-02-17T14:10:35Z</time>
      </trkpt>
      <trkpt lat="44.28182" lon="3.22734">
        <ele>482</ele>
        <time>2017-02-17T14:10:38Z</time>
      </trkpt>
      <trkpt lat="44.28185" lon="3.22735">
        <ele>482.2</ele>
        <time>2017-02-17T14:10:40Z</time>
      </trkpt>
      <trkpt lat="44.2819" lon="3.22734">
        <ele>482.5</ele>
        <time>2017-02-17T14:10:41Z</time>
      </trkpt>
      <trkpt lat="44.28194" lon="3.22732">
        <ele>482.9</ele>
        <time>2017-02-17T14:10:42Z</time>
      </trkpt>
      <trkpt lat="44.28196" lon="3.2273">
        <ele>483.1</ele>
        <time>2017-02-17T14:10:45Z</time>
      </trkpt>
      <trkpt lat="44.28199" lon="3.22727">
        <ele>483.3</ele>
        <time>2017-02-17T14:10:50Z</time>
      </trkpt>
      <trkpt lat="44.282" lon="3.22724">
        <ele>483.5</ele>
        <time>2017-02-17T14:10:55Z</time>
      </trkpt>
      <trkpt lat="44.28201" lon="3.2272">
        <ele>483.7</ele>
        <time>2017-02-17T14:10:58Z</time>
      </trkpt>
      <trkpt lat="44.28202" lon="3.22715">
        <ele>484</ele>
        <time>2017-02-17T14:11:01Z</time>
      </trkpt>
      <trkpt lat="44.28205" lon="3.22712">
        <ele>484.2</ele>
        <time>2017-02-17T14:11:04Z</time>
      </trkpt>
      <trkpt lat="44.28211" lon="3.22706">
        <ele>484.8</ele>
        <time>2017-02-17T14:11:11Z</time>
      </trkpt>
      <trkpt lat="44.2822" lon="3.22698">
        <ele>485.6</ele>
        <time>2017-02-17T14:11:17Z</time>
      </trkpt>
      <trkpt lat="44.28224" lon="3.22699">
        <ele>485.8</ele>
        <time>2017-02-17T14:11:20Z</time>
      </trkpt>
      <trkpt lat="44.28227" lon="3.22699">
        <ele>486</ele>
        <time>2017-02-17T14:11:22Z</time>
      </trkpt>
      <trkpt lat="44.28231" lon="3.22697">
        <ele>486.4</ele>
        <time>2017-02-17T14:11:23Z</time>
      </trkpt>
      <trkpt lat="44.28236" lon="3.22696">
        <ele>486.7</ele>
        <time>2017-02-17T14:11:24Z</time>
      </trkpt>
      <trkpt lat="44.28239" lon="3.22695">
        <ele>487</ele>
        <time>2017-02-17T14:11:26Z</time>
      </trkpt>
      <trkpt lat="44.28245" lon="3.22693">
        <ele>487.4</ele>
        <time>2017-02-17T14:11:28Z</time>
      </trkpt>
      <trkpt lat="44.28249" lon="3.22691">
        <ele>487.6</ele>
        <time>2017-02-17T14:11:30Z</time>
      </trkpt>
      <trkpt lat="44.28252" lon="3.2269">
        <ele>487.8</ele>
        <time>2017-02-17T14:11:32Z</time>
      </trkpt>
      <trkpt lat="44.28256" lon="3.2269">
        <ele>488.1</ele>
        <time>2017-02-17T14:11:35Z</time>
      </trkpt>
      <trkpt lat="44.2826" lon="3.22689">
        <ele>488.3</ele>
        <time>2017-02-17T14:11:37Z</time>
      </trkpt>
      <trkpt lat="44.28263" lon="3.22689">
        <ele>488.5</ele>
        <time>2017-02-17T14:11:39Z</time>
      </trkpt>
      <trkpt lat="44.28267" lon="3.22689">
        <ele>488.8</ele>
        <time>2017-02-17T14:11:40Z</time>
      </trkpt>
      <trkpt lat="44.28272" lon="3.22688">
        <ele>489.1</ele>
        <time>2017-02-17T14:11:42Z</time>
      </trkpt>
      <trkpt lat="44.28276" lon="3.22687">
        <ele>489.3</ele>
        <time>2017-02-17T14:11:44Z</time>
      </trkpt>
      <trkpt lat="44.2828" lon="3.22685">
        <ele>489.6</ele>
        <time>2017-02-17T14:11:46Z</time>
      </trkpt>
      <trkpt lat="44.28284" lon="3.22684">
        <ele>489.8</ele>
        <time>2017-02-17T14:11:48Z</time>
      </trkpt>
      <trkpt lat="44.28287" lon="3.22683">
        <ele>490.1</ele>
        <time>2017-02-17T14:11:50Z</time>
      </trkpt>
      <trkpt lat="44.2829" lon="3.22683">
        <ele>490.3</ele>
        <time>2017-02-17T14:11:52Z</time>
      </trkpt>
      <trkpt lat="44.28294" lon="3.22682">
        <ele>490.5</ele>
        <time>2017-02-17T14:11:54Z</time>
      </trkpt>
      <trkpt lat="44.28297" lon="3.22681">
        <ele>490.8</ele>
        <time>2017-02-17T14:11:56Z</time>
      </trkpt>
      <trkpt lat="44.28301" lon="3.2268">
        <ele>491</ele>
        <time>2017-02-17T14:11:58Z</time>
      </trkpt>
      <trkpt lat="44.28305" lon="3.2268">
        <ele>491.2</ele>
        <time>2017-02-17T14:12:00Z</time>
      </trkpt>
      <trkpt lat="44.28308" lon="3.2268">
        <ele>491.4</ele>
        <time>2017-02-17T14:12:02Z</time>
      </trkpt>
      <trkpt lat="44.28312" lon="3.2268">
        <ele>491.6</ele>
        <time>2017-02-17T14:12:04Z</time>
      </trkpt>
      <trkpt lat="44.28315" lon="3.22681">
        <ele>491.8</ele>
        <time>2017-02-17T14:12:06Z</time>
      </trkpt>
      <trkpt lat="44.28319" lon="3.22681">
        <ele>492</ele>
        <time>2017-02-17T14:12:08Z</time>
      </trkpt>
      <trkpt lat="44.28323" lon="3.22681">
        <ele>492.3</ele>
        <time>2017-02-17T14:12:10Z</time>
      </trkpt>
      <trkpt lat="44.28328" lon="3.22679">
        <ele>492.5</ele>
        <time>2017-02-17T14:12:12Z</time>
      </trkpt>
      <trkpt lat="44.28333" lon="3.22678">
        <ele>492.7</ele>
        <time>2017-02-17T14:12:14Z</time>
      </trkpt>
      <trkpt lat="44.28336" lon="3.22677">
        <ele>492.9</ele>
        <time>2017-02-17T14:12:16Z</time>
      </trkpt>
      <trkpt lat="44.28338" lon="3.22672">
        <ele>493.1</ele>
        <time>2017-02-17T14:12:19Z</time>
      </trkpt>
      <trkpt lat="44.28338" lon="3.22668">
        <ele>493.2</ele>
        <time>2017-02-17T14:12:21Z</time>
      </trkpt>
      <trkpt lat="44.28337" lon="3.22664">
        <ele>493.4</ele>
        <time>2017-02-17T14:12:24Z</time>
      </trkpt>
      <trkpt lat="44.28333" lon="3.22663">
        <ele>493.2</ele>
        <time>2017-02-17T14:12:28Z</time>
      </trkpt>
      <trkpt lat="44.2833" lon="3.22662">
        <ele>493</ele>
        <time>2017-02-17T14:12:30Z</time>
      </trkpt>
      <trkpt lat="44.28328" lon="3.2266">
        <ele>492.9</ele>
        <time>2017-02-17T14:12:32Z</time>
      </trkpt>
      <trkpt lat="44.28324" lon="3.22661">
        <ele>492.7</ele>
        <time>2017-02-17T14:12:34Z</time>
      </trkpt>
      <trkpt lat="44.2832" lon="3.22662">
        <ele>492.5</ele>
        <time>2017-02-17T14:12:36Z</time>
      </trkpt>
      <trkpt lat="44.28317" lon="3.22662">
        <ele>492.4</ele>
        <time>2017-02-17T14:12:38Z</time>
      </trkpt>
      <trkpt lat="44.28314" lon="3.22662">
        <ele>492.1</ele>
        <time>2017-02-17T14:12:40Z</time>
      </trkpt>
      <trkpt lat="44.28311" lon="3.22662">
        <ele>491.9</ele>
        <time>2017-02-17T14:12:42Z</time>
      </trkpt>
      <trkpt lat="44.28307" lon="3.22662">
        <ele>491.7</ele>
        <time>2017-02-17T14:12:44Z</time>
      </trkpt>
      <trkpt lat="44.283" lon="3.22663">
        <ele>494.7</ele>
        <time>2017-02-17T14:12:49Z</time>
      </trkpt>
      <trkpt lat="44.28296" lon="3.22661">
        <ele>495</ele>
        <time>2017-02-17T14:12:51Z</time>
      </trkpt>
      <trkpt lat="44.28292" lon="3.2266">
        <ele>495.1</ele>
        <time>2017-02-17T14:12:54Z</time>
      </trkpt>
      <trkpt lat="44.28289" lon="3.22659">
        <ele>495.3</ele>
        <time>2017-02-17T14:12:57Z</time>
      </trkpt>
      <trkpt lat="44.28286" lon="3.22659">
        <ele>495.4</ele>
        <time>2017-02-17T14:12:59Z</time>
      </trkpt>
      <trkpt lat="44.28283" lon="3.22658">
        <ele>495.6</ele>
        <time>2017-02-17T14:13:01Z</time>
      </trkpt>
      <trkpt lat="44.28279" lon="3.22657">
        <ele>495.8</ele>
        <time>2017-02-17T14:13:02Z</time>
      </trkpt>
      <trkpt lat="44.28274" lon="3.22656">
        <ele>496</ele>
        <time>2017-02-17T14:13:03Z</time>
      </trkpt>
      <trkpt lat="44.28271" lon="3.22656">
        <ele>496.2</ele>
        <time>2017-02-17T14:13:05Z</time>
      </trkpt>
      <trkpt lat="44.28267" lon="3.22655">
        <ele>496.4</ele>
        <time>2017-02-17T14:13:06Z</time>
      </trkpt>
      <trkpt lat="44.28263" lon="3.22654">
        <ele>496.7</ele>
        <time>2017-02-17T14:13:08Z</time>
      </trkpt>
      <trkpt lat="44.28259" lon="3.22654">
        <ele>496.9</ele>
        <time>2017-02-17T14:13:10Z</time>
      </trkpt>
      <trkpt lat="44.28255" lon="3.22654">
        <ele>497.2</ele>
        <time>2017-02-17T14:13:12Z</time>
      </trkpt>
      <trkpt lat="44.28251" lon="3.22656">
        <ele>497.5</ele>
        <time>2017-02-17T14:13:14Z</time>
      </trkpt>
      <trkpt lat="44.28248" lon="3.22657">
        <ele>497.8</ele>
        <time>2017-02-17T14:13:17Z</time>
      </trkpt>
      <trkpt lat="44.28244" lon="3.22658">
        <ele>498</ele>
        <time>2017-02-17T14:13:19Z</time>
      </trkpt>
      <trkpt lat="44.28239" lon="3.22659">
        <ele>498.3</ele>
        <time>2017-02-17T14:13:20Z</time>
      </trkpt>
      <trkpt lat="44.28235" lon="3.22661">
        <ele>498.7</ele>
        <time>2017-02-17T14:13:21Z</time>
      </trkpt>
      <trkpt lat="44.28232" lon="3.22662">
        <ele>498.9</ele>
        <time>2017-02-17T14:13:23Z</time>
      </trkpt>
      <trkpt lat="44.28229" lon="3.22664">
        <ele>499.3</ele>
        <time>2017-02-17T14:13:25Z</time>
      </trkpt>
      <trkpt lat="44.28226" lon="3.22666">
        <ele>499.6</ele>
        <time>2017-02-17T14:13:27Z</time>
      </trkpt>
      <trkpt lat="44.28223" lon="3.22667">
        <ele>499.8</ele>
        <time>2017-02-17T14:13:29Z</time>
      </trkpt>
      <trkpt lat="44.2822" lon="3.22669">
        <ele>500.1</ele>
        <time>2017-02-17T14:13:31Z</time>
      </trkpt>
      <trkpt lat="44.28217" lon="3.22671">
        <ele>500.3</ele>
        <time>2017-02-17T14:13:33Z</time>
      </trkpt>
      <trkpt lat="44.28214" lon="3.22673">
        <ele>500.6</ele>
        <time>2017-02-17T14:13:35Z</time>
      </trkpt>
      <trkpt lat="44.28212" lon="3.22675">
        <ele>500.9</ele>
        <time>2017-02-17T14:13:37Z</time>
      </trkpt>
      <trkpt lat="44.28209" lon="3.22676">
        <ele>501.1</ele>
        <time>2017-02-17T14:13:39Z</time>
      </trkpt>
      <trkpt lat="44.28206" lon="3.22678">
        <ele>501.4</ele>
        <time>2017-02-17T14:13:41Z</time>
      </trkpt>
      <trkpt lat="44.28203" lon="3.2268">
        <ele>501.6</ele>
        <time>2017-02-17T14:13:43Z</time>
      </trkpt>
      <trkpt lat="44.282" lon="3.22681">
        <ele>501.9</ele>
        <time>2017-02-17T14:13:45Z</time>
      </trkpt>
      <trkpt lat="44.28197" lon="3.22681">
        <ele>502.1</ele>
        <time>2017-02-17T14:13:47Z</time>
      </trkpt>
      <trkpt lat="44.28194" lon="3.22682">
        <ele>502.3</ele>
        <time>2017-02-17T14:13:49Z</time>
      </trkpt>
      <trkpt lat="44.28188" lon="3.22682">
        <ele>502.8</ele>
        <time>2017-02-17T14:13:52Z</time>
      </trkpt>
      <trkpt lat="44.28184" lon="3.22683">
        <ele>503.1</ele>
        <time>2017-02-17T14:13:55Z</time>
      </trkpt>
      <trkpt lat="44.28181" lon="3.22681">
        <ele>503.3</ele>
        <time>2017-02-17T14:13:57Z</time>
      </trkpt>
      <trkpt lat="44.28177" lon="3.22681">
        <ele>503.6</ele>
        <time>2017-02-17T14:13:59Z</time>
      </trkpt>
      <trkpt lat="44.28174" lon="3.2268">
        <ele>503.9</ele>
        <time>2017-02-17T14:14:01Z</time>
      </trkpt>
      <trkpt lat="44.2817" lon="3.2268">
        <ele>504.1</ele>
        <time>2017-02-17T14:14:03Z</time>
      </trkpt>
      <trkpt lat="44.28167" lon="3.2268">
        <ele>504.4</ele>
        <time>2017-02-17T14:14:05Z</time>
      </trkpt>
      <trkpt lat="44.28161" lon="3.22679">
        <ele>504.7</ele>
        <time>2017-02-17T14:14:07Z</time>
      </trkpt>
      <trkpt lat="44.28157" lon="3.22676">
        <ele>505</ele>
        <time>2017-02-17T14:14:14Z</time>
      </trkpt>
      <trkpt lat="44.28154" lon="3.22674">
        <ele>505.2</ele>
        <time>2017-02-17T14:14:23Z</time>
      </trkpt>
      <trkpt lat="44.28151" lon="3.22673">
        <ele>505.6</ele>
        <time>2017-02-17T14:14:25Z</time>
      </trkpt>
      <trkpt lat="44.28147" lon="3.22673">
        <ele>505.8</ele>
        <time>2017-02-17T14:14:27Z</time>
      </trkpt>
      <trkpt lat="44.28143" lon="3.22672">
        <ele>506.1</ele>
        <time>2017-02-17T14:14:29Z</time>
      </trkpt>
      <trkpt lat="44.28141" lon="3.22673">
        <ele>506.3</ele>
        <time>2017-02-17T14:14:31Z</time>
      </trkpt>
      <trkpt lat="44.28137" lon="3.22673">
        <ele>506.5</ele>
        <time>2017-02-17T14:14:33Z</time>
      </trkpt>
      <trkpt lat="44.28134" lon="3.22673">
        <ele>506.7</ele>
        <time>2017-02-17T14:14:35Z</time>
      </trkpt>
      <trkpt lat="44.28131" lon="3.22674">
        <ele>507</ele>
        <time>2017-02-17T14:14:37Z</time>
      </trkpt>
      <trkpt lat="44.28125" lon="3.22669">
        <ele>507.5</ele>
        <time>2017-02-17T14:14:39Z</time>
      </trkpt>
      <trkpt lat="44.28121" lon="3.2267">
        <ele>507.8</ele>
        <time>2017-02-17T14:14:40Z</time>
      </trkpt>
      <trkpt lat="44.28118" lon="3.22674">
        <ele>508.1</ele>
        <time>2017-02-17T14:14:42Z</time>
      </trkpt>
      <trkpt lat="44.28115" lon="3.22675">
        <ele>508.4</ele>
        <time>2017-02-17T14:14:44Z</time>
      </trkpt>
      <trkpt lat="44.28107" lon="3.22678">
        <ele>509</ele>
        <time>2017-02-17T14:14:46Z</time>
      </trkpt>
      <trkpt lat="44.28103" lon="3.22679">
        <ele>509.4</ele>
        <time>2017-02-17T14:14:48Z</time>
      </trkpt>
      <trkpt lat="44.28099" lon="3.2268">
        <ele>509.7</ele>
        <time>2017-02-17T14:14:51Z</time>
      </trkpt>
      <trkpt lat="44.28078" lon="3.22678">
        <ele>514.3</ele>
      </trkpt>
      <trkpt lat="44.28053" lon="3.22669">
        <ele>516.8</ele>
      </trkpt>
      <trkpt lat="44.28035" lon="3.22656">
        <ele>515.2</ele>
        <time>2017-02-17T14:15:37Z</time>
      </trkpt>
      <trkpt lat="44.28033" lon="3.22653">
        <ele>515.5</ele>
        <time>2017-02-17T14:15:39Z</time>
      </trkpt>
      <trkpt lat="44.2803" lon="3.22651">
        <ele>515.8</ele>
        <time>2017-02-17T14:15:41Z</time>
      </trkpt>
      <trkpt lat="44.28026" lon="3.22649">
        <ele>516</ele>
        <time>2017-02-17T14:15:44Z</time>
      </trkpt>
      <trkpt lat="44.28022" lon="3.22646">
        <ele>516.3</ele>
        <time>2017-02-17T14:15:46Z</time>
      </trkpt>
      <trkpt lat="44.28018" lon="3.22643">
        <ele>516.7</ele>
        <time>2017-02-17T14:15:48Z</time>
      </trkpt>
      <trkpt lat="44.28015" lon="3.2264">
        <ele>516.9</ele>
        <time>2017-02-17T14:15:50Z</time>
      </trkpt>
      <trkpt lat="44.28012" lon="3.22638">
        <ele>517.2</ele>
        <time>2017-02-17T14:15:52Z</time>
      </trkpt>
      <trkpt lat="44.28009" lon="3.22638">
        <ele>517.4</ele>
        <time>2017-02-17T14:15:54Z</time>
      </trkpt>
      <trkpt lat="44.28006" lon="3.22635">
        <ele>517.6</ele>
        <time>2017-02-17T14:15:56Z</time>
      </trkpt>
      <trkpt lat="44.28003" lon="3.22632">
        <ele>517.9</ele>
        <time>2017-02-17T14:15:58Z</time>
      </trkpt>
      <trkpt lat="44.28001" lon="3.22625">
        <ele>518.2</ele>
        <time>2017-02-17T14:16:01Z</time>
      </trkpt>
      <trkpt lat="44.27999" lon="3.22619">
        <ele>518.5</ele>
        <time>2017-02-17T14:16:02Z</time>
      </trkpt>
      <trkpt lat="44.27998" lon="3.22615">
        <ele>518.7</ele>
        <time>2017-02-17T14:16:04Z</time>
      </trkpt>
      <trkpt lat="44.27996" lon="3.22616">
        <ele>518.9</ele>
        <time>2017-02-17T14:16:06Z</time>
      </trkpt>
      <trkpt lat="44.27991" lon="3.22617">
        <ele>519.3</ele>
        <time>2017-02-17T14:16:08Z</time>
      </trkpt>
      <trkpt lat="44.27987" lon="3.22615">
        <ele>519.6</ele>
        <time>2017-02-17T14:16:10Z</time>
      </trkpt>
      <trkpt lat="44.27983" lon="3.22612">
        <ele>519.8</ele>
        <time>2017-02-17T14:16:12Z</time>
      </trkpt>
      <trkpt lat="44.2798" lon="3.22609">
        <ele>520.1</ele>
        <time>2017-02-17T14:16:14Z</time>
      </trkpt>
      <trkpt lat="44.27977" lon="3.22604">
        <ele>520.4</ele>
        <time>2017-02-17T14:16:16Z</time>
      </trkpt>
      <trkpt lat="44.27974" lon="3.226">
        <ele>520.6</ele>
        <time>2017-02-17T14:16:18Z</time>
      </trkpt>
      <trkpt lat="44.2797" lon="3.22598">
        <ele>520.8</ele>
        <time>2017-02-17T14:16:21Z</time>
      </trkpt>
      <trkpt lat="44.27968" lon="3.22595">
        <ele>521</ele>
        <time>2017-02-17T14:16:23Z</time>
      </trkpt>
      <trkpt lat="44.27965" lon="3.22594">
        <ele>522.1</ele>
        <time>2017-02-17T14:16:26Z</time>
      </trkpt>
      <trkpt lat="44.27961" lon="3.22593">
        <ele>523.9</ele>
        <time>2017-02-17T14:16:28Z</time>
      </trkpt>
      <trkpt lat="44.27957" lon="3.22593">
        <ele>525.8</ele>
        <time>2017-02-17T14:16:30Z</time>
      </trkpt>
      <trkpt lat="44.27954" lon="3.22591">
        <ele>527.7</ele>
        <time>2017-02-17T14:16:33Z</time>
      </trkpt>
      <trkpt lat="44.27951" lon="3.22589">
        <ele>529.3</ele>
        <time>2017-02-17T14:16:35Z</time>
      </trkpt>
      <trkpt lat="44.27948" lon="3.22586">
        <ele>531.6</ele>
        <time>2017-02-17T14:16:37Z</time>
      </trkpt>
      <trkpt lat="44.27945" lon="3.22583">
        <ele>534.6</ele>
        <time>2017-02-17T14:16:39Z</time>
      </trkpt>
      <trkpt lat="44.27943" lon="3.2258">
        <ele>536.2</ele>
        <time>2017-02-17T14:16:41Z</time>
      </trkpt>
      <trkpt lat="44.27941" lon="3.22577">
        <ele>537.4</ele>
        <time>2017-02-17T14:16:43Z</time>
      </trkpt>
      <trkpt lat="44.27939" lon="3.22574">
        <ele>538.5</ele>
        <time>2017-02-17T14:16:45Z</time>
      </trkpt>
      <trkpt lat="44.27936" lon="3.22571">
        <ele>540</ele>
        <time>2017-02-17T14:16:48Z</time>
      </trkpt>
      <trkpt lat="44.27933" lon="3.22567">
        <ele>541.7</ele>
        <time>2017-02-17T14:16:51Z</time>
      </trkpt>
      <trkpt lat="44.2793" lon="3.22564">
        <ele>543.3</ele>
        <time>2017-02-17T14:16:53Z</time>
      </trkpt>
      <trkpt lat="44.27927" lon="3.22561">
        <ele>544.8</ele>
        <time>2017-02-17T14:16:55Z</time>
      </trkpt>
      <trkpt lat="44.27924" lon="3.22558">
        <ele>548.4</ele>
        <time>2017-02-17T14:16:57Z</time>
      </trkpt>
      <trkpt lat="44.27922" lon="3.22555">
        <ele>551</ele>
        <time>2017-02-17T14:16:59Z</time>
      </trkpt>
      <trkpt lat="44.27921" lon="3.2255">
        <ele>553.9</ele>
        <time>2017-02-17T14:17:01Z</time>
      </trkpt>
      <trkpt lat="44.27921" lon="3.22546">
        <ele>557</ele>
        <time>2017-02-17T14:17:03Z</time>
      </trkpt>
      <trkpt lat="44.27921" lon="3.22542">
        <ele>557</ele>
        <time>2017-02-17T14:17:05Z</time>
      </trkpt>
      <trkpt lat="44.27923" lon="3.22538">
        <ele>557</ele>
        <time>2017-02-17T14:17:09Z</time>
      </trkpt>
      <trkpt lat="44.27923" lon="3.22534">
        <ele>557.1</ele>
        <time>2017-02-17T14:17:11Z</time>
      </trkpt>
      <trkpt lat="44.27931" lon="3.2253">
        <ele>557.1</ele>
        <time>2017-02-17T14:17:13Z</time>
      </trkpt>
      <trkpt lat="44.27934" lon="3.22532">
        <ele>557.1</ele>
        <time>2017-02-17T14:17:15Z</time>
      </trkpt>
      <trkpt lat="44.27935" lon="3.22535">
        <ele>557.1</ele>
        <time>2017-02-17T14:17:17Z</time>
      </trkpt>
      <trkpt lat="44.27937" lon="3.22539">
        <ele>557.1</ele>
        <time>2017-02-17T14:17:20Z</time>
      </trkpt>
      <trkpt lat="44.27939" lon="3.22544">
        <ele>557.1</ele>
        <time>2017-02-17T14:17:22Z</time>
      </trkpt>
      <trkpt lat="44.27941" lon="3.22547">
        <ele>557.1</ele>
        <time>2017-02-17T14:17:23Z</time>
      </trkpt>
      <trkpt lat="44.27943" lon="3.22551">
        <ele>557.1</ele>
        <time>2017-02-17T14:17:24Z</time>
      </trkpt>
      <trkpt lat="44.27945" lon="3.22554">
        <ele>557.1</ele>
        <time>2017-02-17T14:17:25Z</time>
      </trkpt>
      <trkpt lat="44.27947" lon="3.22557">
        <ele>557.1</ele>
        <time>2017-02-17T14:17:26Z</time>
      </trkpt>
      <trkpt lat="44.27951" lon="3.22563">
        <ele>557</ele>
        <time>2017-02-17T14:17:28Z</time>
      </trkpt>
      <trkpt lat="44.27953" lon="3.22566">
        <ele>557</ele>
        <time>2017-02-17T14:17:29Z</time>
      </trkpt>
      <trkpt lat="44.27956" lon="3.22569">
        <ele>557.7</ele>
        <time>2017-02-17T14:17:30Z</time>
      </trkpt>
      <trkpt lat="44.27959" lon="3.22572">
        <ele>559.1</ele>
        <time>2017-02-17T14:17:32Z</time>
      </trkpt>
      <trkpt lat="44.27963" lon="3.22575">
        <ele>560.2</ele>
        <time>2017-02-17T14:17:34Z</time>
      </trkpt>
      <trkpt lat="44.27965" lon="3.22577">
        <ele>561.1</ele>
        <time>2017-02-17T14:17:36Z</time>
      </trkpt>
      <trkpt lat="44.27968" lon="3.22578">
        <ele>562.1</ele>
        <time>2017-02-17T14:17:38Z</time>
      </trkpt>
      <trkpt lat="44.27972" lon="3.2258">
        <ele>563.3</ele>
        <time>2017-02-17T14:17:40Z</time>
      </trkpt>
      <trkpt lat="44.27976" lon="3.2258">
        <ele>564.4</ele>
        <time>2017-02-17T14:17:42Z</time>
      </trkpt>
      <trkpt lat="44.27979" lon="3.2258">
        <ele>565.3</ele>
        <time>2017-02-17T14:17:45Z</time>
      </trkpt>
      <trkpt lat="44.27982" lon="3.22581">
        <ele>566.2</ele>
        <time>2017-02-17T14:17:49Z</time>
      </trkpt>
      <trkpt lat="44.27986" lon="3.22582">
        <ele>567.3</ele>
        <time>2017-02-17T14:17:52Z</time>
      </trkpt>
      <trkpt lat="44.27989" lon="3.22583">
        <ele>568.4</ele>
        <time>2017-02-17T14:17:54Z</time>
      </trkpt>
      <trkpt lat="44.27992" lon="3.22584">
        <ele>569.2</ele>
        <time>2017-02-17T14:17:56Z</time>
      </trkpt>
      <trkpt lat="44.27995" lon="3.22585">
        <ele>570.2</ele>
        <time>2017-02-17T14:17:59Z</time>
      </trkpt>
      <trkpt lat="44.27998" lon="3.22585">
        <ele>571</ele>
        <time>2017-02-17T14:18:01Z</time>
      </trkpt>
      <trkpt lat="44.28002" lon="3.22586">
        <ele>572</ele>
        <time>2017-02-17T14:18:03Z</time>
      </trkpt>
      <trkpt lat="44.28005" lon="3.22587">
        <ele>572.5</ele>
        <time>2017-02-17T14:18:06Z</time>
      </trkpt>
      <trkpt lat="44.28008" lon="3.2259">
        <ele>572.9</ele>
        <time>2017-02-17T14:18:08Z</time>
      </trkpt>
      <trkpt lat="44.28012" lon="3.22591">
        <ele>573.4</ele>
        <time>2017-02-17T14:18:10Z</time>
      </trkpt>
      <trkpt lat="44.28017" lon="3.22592">
        <ele>574</ele>
        <time>2017-02-17T14:18:12Z</time>
      </trkpt>
      <trkpt lat="44.2802" lon="3.22593">
        <ele>574.4</ele>
        <time>2017-02-17T14:18:14Z</time>
      </trkpt>
      <trkpt lat="44.28024" lon="3.22594">
        <ele>574.8</ele>
        <time>2017-02-17T14:18:16Z</time>
      </trkpt>
      <trkpt lat="44.28028" lon="3.22596">
        <ele>575.3</ele>
        <time>2017-02-17T14:18:18Z</time>
      </trkpt>
      <trkpt lat="44.28031" lon="3.22599">
        <ele>575.7</ele>
        <time>2017-02-17T14:18:20Z</time>
      </trkpt>
      <trkpt lat="44.28035" lon="3.22601">
        <ele>576.2</ele>
        <time>2017-02-17T14:18:22Z</time>
      </trkpt>
      <trkpt lat="44.28038" lon="3.22601">
        <ele>576.5</ele>
        <time>2017-02-17T14:18:23Z</time>
      </trkpt>
      <trkpt lat="44.28042" lon="3.22601">
        <ele>576.9</ele>
        <time>2017-02-17T14:18:25Z</time>
      </trkpt>
      <trkpt lat="44.28045" lon="3.22602">
        <ele>577.3</ele>
        <time>2017-02-17T14:18:27Z</time>
      </trkpt>
      <trkpt lat="44.2805" lon="3.22603">
        <ele>577.8</ele>
        <time>2017-02-17T14:18:28Z</time>
      </trkpt>
      <trkpt lat="44.28054" lon="3.22604">
        <ele>578.2</ele>
        <time>2017-02-17T14:18:30Z</time>
      </trkpt>
      <trkpt lat="44.28058" lon="3.22603">
        <ele>578.5</ele>
        <time>2017-02-17T14:18:32Z</time>
      </trkpt>
      <trkpt lat="44.28061" lon="3.22605">
        <ele>578.8</ele>
        <time>2017-02-17T14:18:34Z</time>
      </trkpt>
      <trkpt lat="44.28063" lon="3.22605">
        <ele>579.1</ele>
        <time>2017-02-17T14:18:36Z</time>
      </trkpt>
      <trkpt lat="44.28066" lon="3.22605">
        <ele>579.4</ele>
        <time>2017-02-17T14:18:38Z</time>
      </trkpt>
      <trkpt lat="44.28069" lon="3.22606">
        <ele>579.7</ele>
        <time>2017-02-17T14:18:40Z</time>
      </trkpt>
      <trkpt lat="44.28072" lon="3.22606">
        <ele>580</ele>
        <time>2017-02-17T14:18:42Z</time>
      </trkpt>
      <trkpt lat="44.28075" lon="3.22606">
        <ele>580.3</ele>
        <time>2017-02-17T14:18:45Z</time>
      </trkpt>
      <trkpt lat="44.28079" lon="3.22605">
        <ele>580.8</ele>
        <time>2017-02-17T14:18:48Z</time>
      </trkpt>
      <trkpt lat="44.28082" lon="3.22604">
        <ele>581.2</ele>
        <time>2017-02-17T14:18:50Z</time>
      </trkpt>
      <trkpt lat="44.28084" lon="3.22602">
        <ele>581.4</ele>
        <time>2017-02-17T14:18:52Z</time>
      </trkpt>
      <trkpt lat="44.28088" lon="3.22602">
        <ele>581.7</ele>
        <time>2017-02-17T14:18:55Z</time>
      </trkpt>
      <trkpt lat="44.28091" lon="3.22601">
        <ele>582</ele>
        <time>2017-02-17T14:18:58Z</time>
      </trkpt>
      <trkpt lat="44.28094" lon="3.22601">
        <ele>582.3</ele>
        <time>2017-02-17T14:19:00Z</time>
      </trkpt>
      <trkpt lat="44.28097" lon="3.22601">
        <ele>582.6</ele>
        <time>2017-02-17T14:19:02Z</time>
      </trkpt>
      <trkpt lat="44.281" lon="3.22601">
        <ele>583</ele>
        <time>2017-02-17T14:19:04Z</time>
      </trkpt>
      <trkpt lat="44.28103" lon="3.226">
        <ele>583.4</ele>
        <time>2017-02-17T14:19:06Z</time>
      </trkpt>
      <trkpt lat="44.28106" lon="3.22599">
        <ele>583.7</ele>
        <time>2017-02-17T14:19:08Z</time>
      </trkpt>
      <trkpt lat="44.2811" lon="3.22598">
        <ele>584.1</ele>
        <time>2017-02-17T14:19:11Z</time>
      </trkpt>
      <trkpt lat="44.28114" lon="3.22596">
        <ele>584.5</ele>
        <time>2017-02-17T14:19:13Z</time>
      </trkpt>
      <trkpt lat="44.28118" lon="3.22595">
        <ele>584.9</ele>
        <time>2017-02-17T14:19:15Z</time>
      </trkpt>
      <trkpt lat="44.28122" lon="3.22594">
        <ele>585.3</ele>
        <time>2017-02-17T14:19:17Z</time>
      </trkpt>
      <trkpt lat="44.28126" lon="3.22592">
        <ele>585.7</ele>
        <time>2017-02-17T14:19:19Z</time>
      </trkpt>
      <trkpt lat="44.2813" lon="3.22592">
        <ele>586</ele>
        <time>2017-02-17T14:19:21Z</time>
      </trkpt>
      <trkpt lat="44.28133" lon="3.22591">
        <ele>586.4</ele>
        <time>2017-02-17T14:19:23Z</time>
      </trkpt>
      <trkpt lat="44.28136" lon="3.22588">
        <ele>586.7</ele>
        <time>2017-02-17T14:19:25Z</time>
      </trkpt>
      <trkpt lat="44.2814" lon="3.22587">
        <ele>587.1</ele>
        <time>2017-02-17T14:19:27Z</time>
      </trkpt>
      <trkpt lat="44.28143" lon="3.22586">
        <ele>587.4</ele>
        <time>2017-02-17T14:19:29Z</time>
      </trkpt>
      <trkpt lat="44.28146" lon="3.22583">
        <ele>587.8</ele>
        <time>2017-02-17T14:19:31Z</time>
      </trkpt>
      <trkpt lat="44.2815" lon="3.22582">
        <ele>588.2</ele>
        <time>2017-02-17T14:19:34Z</time>
      </trkpt>
      <trkpt lat="44.28153" lon="3.22582">
        <ele>588.5</ele>
        <time>2017-02-17T14:19:36Z</time>
      </trkpt>
      <trkpt lat="44.28157" lon="3.22582">
        <ele>588.9</ele>
        <time>2017-02-17T14:19:38Z</time>
      </trkpt>
      <trkpt lat="44.28162" lon="3.22582">
        <ele>589.4</ele>
        <time>2017-02-17T14:19:40Z</time>
      </trkpt>
      <trkpt lat="44.28165" lon="3.2258">
        <ele>589.7</ele>
        <time>2017-02-17T14:19:42Z</time>
      </trkpt>
      <trkpt lat="44.28168" lon="3.22579">
        <ele>590</ele>
        <time>2017-02-17T14:19:44Z</time>
      </trkpt>
      <trkpt lat="44.2817" lon="3.22576">
        <ele>590.3</ele>
        <time>2017-02-17T14:19:46Z</time>
      </trkpt>
      <trkpt lat="44.28173" lon="3.22575">
        <ele>590.6</ele>
        <time>2017-02-17T14:19:48Z</time>
      </trkpt>
      <trkpt lat="44.28176" lon="3.22572">
        <ele>591</ele>
        <time>2017-02-17T14:19:51Z</time>
      </trkpt>
      <trkpt lat="44.28179" lon="3.22572">
        <ele>591.3</ele>
        <time>2017-02-17T14:19:53Z</time>
      </trkpt>
      <trkpt lat="44.28182" lon="3.22571">
        <ele>591.7</ele>
        <time>2017-02-17T14:19:55Z</time>
      </trkpt>
      <trkpt lat="44.28185" lon="3.22569">
        <ele>592</ele>
        <time>2017-02-17T14:19:57Z</time>
      </trkpt>
      <trkpt lat="44.28188" lon="3.22567">
        <ele>592.3</ele>
        <time>2017-02-17T14:19:59Z</time>
      </trkpt>
      <trkpt lat="44.28191" lon="3.22565">
        <ele>592.6</ele>
        <time>2017-02-17T14:20:03Z</time>
      </trkpt>
      <trkpt lat="44.28193" lon="3.22563">
        <ele>592.9</ele>
        <time>2017-02-17T14:20:05Z</time>
      </trkpt>
      <trkpt lat="44.28197" lon="3.22561">
        <ele>593.3</ele>
        <time>2017-02-17T14:20:08Z</time>
      </trkpt>
      <trkpt lat="44.28201" lon="3.2256">
        <ele>593.8</ele>
        <time>2017-02-17T14:20:10Z</time>
      </trkpt>
      <trkpt lat="44.28205" lon="3.22559">
        <ele>594.1</ele>
        <time>2017-02-17T14:20:12Z</time>
      </trkpt>
      <trkpt lat="44.28209" lon="3.22559">
        <ele>594.6</ele>
        <time>2017-02-17T14:20:14Z</time>
      </trkpt>
      <trkpt lat="44.28213" lon="3.22557">
        <ele>595</ele>
        <time>2017-02-17T14:20:16Z</time>
      </trkpt>
      <trkpt lat="44.28217" lon="3.22557">
        <ele>595.4</ele>
        <time>2017-02-17T14:20:18Z</time>
      </trkpt>
      <trkpt lat="44.28221" lon="3.22557">
        <ele>595.8</ele>
        <time>2017-02-17T14:20:20Z</time>
      </trkpt>
      <trkpt lat="44.28226" lon="3.22556">
        <ele>596.3</ele>
        <time>2017-02-17T14:20:22Z</time>
      </trkpt>
      <trkpt lat="44.2823" lon="3.22554">
        <ele>596.7</ele>
        <time>2017-02-17T14:20:24Z</time>
      </trkpt>
      <trkpt lat="44.28234" lon="3.22553">
        <ele>597.1</ele>
        <time>2017-02-17T14:20:26Z</time>
      </trkpt>
      <trkpt lat="44.28238" lon="3.22551">
        <ele>597.5</ele>
        <time>2017-02-17T14:20:28Z</time>
      </trkpt>
      <trkpt lat="44.2824" lon="3.2255">
        <ele>597.8</ele>
        <time>2017-02-17T14:20:30Z</time>
      </trkpt>
      <trkpt lat="44.28243" lon="3.22549">
        <ele>598.1</ele>
        <time>2017-02-17T14:20:32Z</time>
      </trkpt>
      <trkpt lat="44.28248" lon="3.22548">
        <ele>598.5</ele>
        <time>2017-02-17T14:20:35Z</time>
      </trkpt>
      <trkpt lat="44.2825" lon="3.22547">
        <ele>598.8</ele>
        <time>2017-02-17T14:20:37Z</time>
      </trkpt>
      <trkpt lat="44.28255" lon="3.22546">
        <ele>599.2</ele>
        <time>2017-02-17T14:20:40Z</time>
      </trkpt>
      <trkpt lat="44.28259" lon="3.22545">
        <ele>599.6</ele>
        <time>2017-02-17T14:20:42Z</time>
      </trkpt>
      <trkpt lat="44.28262" lon="3.22544">
        <ele>599.9</ele>
        <time>2017-02-17T14:20:44Z</time>
      </trkpt>
      <trkpt lat="44.28265" lon="3.22543">
        <ele>600.2</ele>
        <time>2017-02-17T14:20:46Z</time>
      </trkpt>
      <trkpt lat="44.28268" lon="3.22542">
        <ele>600.5</ele>
        <time>2017-02-17T14:20:48Z</time>
      </trkpt>
      <trkpt lat="44.28272" lon="3.2254">
        <ele>600.9</ele>
        <time>2017-02-17T14:20:51Z</time>
      </trkpt>
      <trkpt lat="44.28275" lon="3.2254">
        <ele>601.3</ele>
        <time>2017-02-17T14:20:54Z</time>
      </trkpt>
      <trkpt lat="44.28278" lon="3.22539">
        <ele>601.6</ele>
        <time>2017-02-17T14:20:56Z</time>
      </trkpt>
      <trkpt lat="44.28281" lon="3.22539">
        <ele>601.8</ele>
        <time>2017-02-17T14:20:58Z</time>
      </trkpt>
      <trkpt lat="44.28284" lon="3.22539">
        <ele>602.1</ele>
        <time>2017-02-17T14:21:00Z</time>
      </trkpt>
      <trkpt lat="44.28287" lon="3.2254">
        <ele>602.5</ele>
        <time>2017-02-17T14:21:03Z</time>
      </trkpt>
      <trkpt lat="44.28291" lon="3.22539">
        <ele>602.9</ele>
        <time>2017-02-17T14:21:06Z</time>
      </trkpt>
      <trkpt lat="44.28295" lon="3.22538">
        <ele>603.3</ele>
        <time>2017-02-17T14:21:09Z</time>
      </trkpt>
      <trkpt lat="44.28301" lon="3.22538">
        <ele>603.9</ele>
        <time>2017-02-17T14:21:11Z</time>
      </trkpt>
      <trkpt lat="44.28304" lon="3.22538">
        <ele>604.2</ele>
        <time>2017-02-17T14:21:13Z</time>
      </trkpt>
      <trkpt lat="44.28307" lon="3.22537">
        <ele>604.5</ele>
        <time>2017-02-17T14:21:15Z</time>
      </trkpt>
      <trkpt lat="44.2831" lon="3.22538">
        <ele>604.7</ele>
        <time>2017-02-17T14:21:17Z</time>
      </trkpt>
      <trkpt lat="44.28312" lon="3.22538">
        <ele>605</ele>
        <time>2017-02-17T14:21:19Z</time>
      </trkpt>
      <trkpt lat="44.28315" lon="3.22538">
        <ele>605.4</ele>
        <time>2017-02-17T14:21:21Z</time>
      </trkpt>
      <trkpt lat="44.28318" lon="3.22537">
        <ele>605.7</ele>
        <time>2017-02-17T14:21:24Z</time>
      </trkpt>
      <trkpt lat="44.28321" lon="3.22536">
        <ele>606</ele>
        <time>2017-02-17T14:21:26Z</time>
      </trkpt>
      <trkpt lat="44.28323" lon="3.22533">
        <ele>606.3</ele>
        <time>2017-02-17T14:21:29Z</time>
      </trkpt>
      <trkpt lat="44.28326" lon="3.22532">
        <ele>606.6</ele>
        <time>2017-02-17T14:21:31Z</time>
      </trkpt>
      <trkpt lat="44.2833" lon="3.2253">
        <ele>607</ele>
        <time>2017-02-17T14:21:33Z</time>
      </trkpt>
      <trkpt lat="44.28333" lon="3.22527">
        <ele>607.4</ele>
        <time>2017-02-17T14:21:35Z</time>
      </trkpt>
      <trkpt lat="44.28337" lon="3.22525">
        <ele>607.8</ele>
        <time>2017-02-17T14:21:37Z</time>
      </trkpt>
      <trkpt lat="44.28342" lon="3.22522">
        <ele>608.4</ele>
        <time>2017-02-17T14:21:39Z</time>
      </trkpt>
      <trkpt lat="44.28345" lon="3.22518">
        <ele>608.9</ele>
        <time>2017-02-17T14:21:41Z</time>
      </trkpt>
      <trkpt lat="44.28347" lon="3.22515">
        <ele>609.2</ele>
        <time>2017-02-17T14:21:43Z</time>
      </trkpt>
      <trkpt lat="44.28351" lon="3.22512">
        <ele>609.8</ele>
        <time>2017-02-17T14:21:45Z</time>
      </trkpt>
      <trkpt lat="44.28354" lon="3.2251">
        <ele>610.1</ele>
        <time>2017-02-17T14:21:47Z</time>
      </trkpt>
      <trkpt lat="44.28357" lon="3.22507">
        <ele>610.5</ele>
        <time>2017-02-17T14:21:49Z</time>
      </trkpt>
      <trkpt lat="44.2836" lon="3.22505">
        <ele>610.8</ele>
        <time>2017-02-17T14:21:51Z</time>
      </trkpt>
      <trkpt lat="44.28362" lon="3.22502">
        <ele>611.3</ele>
        <time>2017-02-17T14:21:53Z</time>
      </trkpt>
      <trkpt lat="44.28366" lon="3.225">
        <ele>611.7</ele>
        <time>2017-02-17T14:21:55Z</time>
      </trkpt>
      <trkpt lat="44.2837" lon="3.22498">
        <ele>612.1</ele>
        <time>2017-02-17T14:21:57Z</time>
      </trkpt>
      <trkpt lat="44.28373" lon="3.22496">
        <ele>612.5</ele>
        <time>2017-02-17T14:21:59Z</time>
      </trkpt>
      <trkpt lat="44.28378" lon="3.22495">
        <ele>613.1</ele>
        <time>2017-02-17T14:22:02Z</time>
      </trkpt>
      <trkpt lat="44.28381" lon="3.22496">
        <ele>613.4</ele>
        <time>2017-02-17T14:22:06Z</time>
      </trkpt>
      <trkpt lat="44.28384" lon="3.22495">
        <ele>613.7</ele>
        <time>2017-02-17T14:22:08Z</time>
      </trkpt>
      <trkpt lat="44.28388" lon="3.22493">
        <ele>614.2</ele>
        <time>2017-02-17T14:22:10Z</time>
      </trkpt>
      <trkpt lat="44.28391" lon="3.22492">
        <ele>614.5</ele>
        <time>2017-02-17T14:22:12Z</time>
      </trkpt>
      <trkpt lat="44.28394" lon="3.22489">
        <ele>615</ele>
        <time>2017-02-17T14:22:14Z</time>
      </trkpt>
      <trkpt lat="44.28398" lon="3.22485">
        <ele>615.4</ele>
        <time>2017-02-17T14:22:16Z</time>
      </trkpt>
      <trkpt lat="44.284" lon="3.22481">
        <ele>615.8</ele>
        <time>2017-02-17T14:22:18Z</time>
      </trkpt>
      <trkpt lat="44.28403" lon="3.22477">
        <ele>616.2</ele>
        <time>2017-02-17T14:22:20Z</time>
      </trkpt>
      <trkpt lat="44.28405" lon="3.22475">
        <ele>616.5</ele>
        <time>2017-02-17T14:22:22Z</time>
      </trkpt>
      <trkpt lat="44.28408" lon="3.22473">
        <ele>616.8</ele>
        <time>2017-02-17T14:22:24Z</time>
      </trkpt>
      <trkpt lat="44.28411" lon="3.22469">
        <ele>617.2</ele>
        <time>2017-02-17T14:22:26Z</time>
      </trkpt>
      <trkpt lat="44.28414" lon="3.22466">
        <ele>617.6</ele>
        <time>2017-02-17T14:22:28Z</time>
      </trkpt>
      <trkpt lat="44.28417" lon="3.22462">
        <ele>618.1</ele>
        <time>2017-02-17T14:22:31Z</time>
      </trkpt>
      <trkpt lat="44.2842" lon="3.22458">
        <ele>618.5</ele>
        <time>2017-02-17T14:22:33Z</time>
      </trkpt>
      <trkpt lat="44.28423" lon="3.22456">
        <ele>618.8</ele>
        <time>2017-02-17T14:22:35Z</time>
      </trkpt>
      <trkpt lat="44.28425" lon="3.22453">
        <ele>619.1</ele>
        <time>2017-02-17T14:22:37Z</time>
      </trkpt>
      <trkpt lat="44.28428" lon="3.22449">
        <ele>619.6</ele>
        <time>2017-02-17T14:22:39Z</time>
      </trkpt>
      <trkpt lat="44.28431" lon="3.22446">
        <ele>620</ele>
        <time>2017-02-17T14:22:41Z</time>
      </trkpt>
      <trkpt lat="44.28438" lon="3.22439">
        <ele>620.8</ele>
        <time>2017-02-17T14:22:47Z</time>
      </trkpt>
      <trkpt lat="44.2844" lon="3.22435">
        <ele>621.3</ele>
        <time>2017-02-17T14:22:49Z</time>
      </trkpt>
      <trkpt lat="44.28445" lon="3.22433">
        <ele>621.9</ele>
        <time>2017-02-17T14:22:51Z</time>
      </trkpt>
      <trkpt lat="44.28452" lon="3.22421">
        <ele>623</ele>
        <time>2017-02-17T14:22:56Z</time>
      </trkpt>
      <trkpt lat="44.28455" lon="3.22419">
        <ele>623.3</ele>
        <time>2017-02-17T14:22:58Z</time>
      </trkpt>
      <trkpt lat="44.28457" lon="3.22422">
        <ele>623.6</ele>
        <time>2017-02-17T14:23:00Z</time>
      </trkpt>
      <trkpt lat="44.28463" lon="3.22418">
        <ele>624.3</ele>
        <time>2017-02-17T14:23:02Z</time>
      </trkpt>
      <trkpt lat="44.28469" lon="3.22417">
        <ele>624.9</ele>
        <time>2017-02-17T14:23:03Z</time>
      </trkpt>
      <trkpt lat="44.28473" lon="3.22415">
        <ele>619.6</ele>
        <time>2017-02-17T14:23:04Z</time>
      </trkpt>
      <trkpt lat="44.28477" lon="3.22414">
        <ele>618.6</ele>
        <time>2017-02-17T14:23:05Z</time>
      </trkpt>
      <trkpt lat="44.2847" lon="3.22396">
        <ele>624.4</ele>
        <time>2017-02-17T14:23:13Z</time>
      </trkpt>
      <trkpt lat="44.28466" lon="3.2239">
        <ele>626</ele>
        <time>2017-02-17T14:23:14Z</time>
      </trkpt>
      <trkpt lat="44.28463" lon="3.22401">
        <ele>625.4</ele>
        <time>2017-02-17T14:23:19Z</time>
      </trkpt>
      <trkpt lat="44.28461" lon="3.22403">
        <ele>625.2</ele>
        <time>2017-02-17T14:23:21Z</time>
      </trkpt>
      <trkpt lat="44.28463" lon="3.22408">
        <ele>624.8</ele>
        <time>2017-02-17T14:23:23Z</time>
      </trkpt>
      <trkpt lat="44.28465" lon="3.22412">
        <ele>624.5</ele>
        <time>2017-02-17T14:23:24Z</time>
      </trkpt>
      <trkpt lat="44.28463" lon="3.22416">
        <ele>624.2</ele>
        <time>2017-02-17T14:23:25Z</time>
      </trkpt>
      <trkpt lat="44.2846" lon="3.22419">
        <ele>623.9</ele>
        <time>2017-02-17T14:23:26Z</time>
      </trkpt>
      <trkpt lat="44.28457" lon="3.22422">
        <ele>623.5</ele>
        <time>2017-02-17T14:23:27Z</time>
      </trkpt>
      <trkpt lat="44.28441" lon="3.2244">
        <ele>621.6</ele>
        <time>2017-02-17T14:23:32Z</time>
      </trkpt>
      <trkpt lat="44.28439" lon="3.22445">
        <ele>621</ele>
        <time>2017-02-17T14:23:33Z</time>
      </trkpt>
      <trkpt lat="44.28434" lon="3.22452">
        <ele>620.4</ele>
        <time>2017-02-17T14:23:34Z</time>
      </trkpt>
      <trkpt lat="44.28431" lon="3.22455">
        <ele>620</ele>
        <time>2017-02-17T14:23:35Z</time>
      </trkpt>
      <trkpt lat="44.28428" lon="3.22457">
        <ele>619.7</ele>
        <time>2017-02-17T14:23:36Z</time>
      </trkpt>
      <trkpt lat="44.28423" lon="3.22459">
        <ele>619.2</ele>
        <time>2017-02-17T14:23:37Z</time>
      </trkpt>
      <trkpt lat="44.28418" lon="3.22461">
        <ele>618.7</ele>
        <time>2017-02-17T14:23:39Z</time>
      </trkpt>
      <trkpt lat="44.28416" lon="3.22464">
        <ele>618.4</ele>
        <time>2017-02-17T14:23:41Z</time>
      </trkpt>
      <trkpt lat="44.28412" lon="3.22466">
        <ele>618.1</ele>
        <time>2017-02-17T14:23:44Z</time>
      </trkpt>
      <trkpt lat="44.28405" lon="3.22468">
        <ele>617.4</ele>
        <time>2017-02-17T14:23:46Z</time>
      </trkpt>
      <trkpt lat="44.28402" lon="3.22469">
        <ele>617.1</ele>
        <time>2017-02-17T14:23:48Z</time>
      </trkpt>
      <trkpt lat="44.28398" lon="3.22469">
        <ele>616.7</ele>
        <time>2017-02-17T14:23:50Z</time>
      </trkpt>
      <trkpt lat="44.28395" lon="3.22467">
        <ele>616.4</ele>
        <time>2017-02-17T14:23:53Z</time>
      </trkpt>
      <trkpt lat="44.28391" lon="3.22467">
        <ele>616.1</ele>
        <time>2017-02-17T14:23:55Z</time>
      </trkpt>
      <trkpt lat="44.28388" lon="3.22464">
        <ele>615.8</ele>
        <time>2017-02-17T14:24:00Z</time>
      </trkpt>
      <trkpt lat="44.28382" lon="3.22466">
        <ele>619</ele>
        <time>2017-02-17T14:24:03Z</time>
      </trkpt>
      <trkpt lat="44.28375" lon="3.22468">
        <ele>624.6</ele>
        <time>2017-02-17T14:24:05Z</time>
      </trkpt>
      <trkpt lat="44.28371" lon="3.22468">
        <ele>624.6</ele>
        <time>2017-02-17T14:24:06Z</time>
      </trkpt>
      <trkpt lat="44.28366" lon="3.22468">
        <ele>624.6</ele>
        <time>2017-02-17T14:24:08Z</time>
      </trkpt>
      <trkpt lat="44.28359" lon="3.22468">
        <ele>624.6</ele>
        <time>2017-02-17T14:24:10Z</time>
      </trkpt>
      <trkpt lat="44.28355" lon="3.22468">
        <ele>624.6</ele>
        <time>2017-02-17T14:24:12Z</time>
      </trkpt>
      <trkpt lat="44.28352" lon="3.22469">
        <ele>624.6</ele>
        <time>2017-02-17T14:24:14Z</time>
      </trkpt>
      <trkpt lat="44.28347" lon="3.22469">
        <ele>624.5</ele>
        <time>2017-02-17T14:24:16Z</time>
      </trkpt>
      <trkpt lat="44.28343" lon="3.2247">
        <ele>624.5</ele>
        <time>2017-02-17T14:24:18Z</time>
      </trkpt>
      <trkpt lat="44.28339" lon="3.22469">
        <ele>624.5</ele>
        <time>2017-02-17T14:24:20Z</time>
      </trkpt>
      <trkpt lat="44.28335" lon="3.2247">
        <ele>624.5</ele>
        <time>2017-02-17T14:24:21Z</time>
      </trkpt>
      <trkpt lat="44.28332" lon="3.22469">
        <ele>624.5</ele>
        <time>2017-02-17T14:24:23Z</time>
      </trkpt>
      <trkpt lat="44.28328" lon="3.22468">
        <ele>624.5</ele>
        <time>2017-02-17T14:24:25Z</time>
      </trkpt>
      <trkpt lat="44.28325" lon="3.22468">
        <ele>624.4</ele>
        <time>2017-02-17T14:24:27Z</time>
      </trkpt>
      <trkpt lat="44.28321" lon="3.22467">
        <ele>624.4</ele>
        <time>2017-02-17T14:24:29Z</time>
      </trkpt>
      <trkpt lat="44.28318" lon="3.22466">
        <ele>624.4</ele>
        <time>2017-02-17T14:24:31Z</time>
      </trkpt>
      <trkpt lat="44.28314" lon="3.22466">
        <ele>624.4</ele>
        <time>2017-02-17T14:24:33Z</time>
      </trkpt>
      <trkpt lat="44.2831" lon="3.22466">
        <ele>624.4</ele>
        <time>2017-02-17T14:24:35Z</time>
      </trkpt>
      <trkpt lat="44.28307" lon="3.22465">
        <ele>624.4</ele>
        <time>2017-02-17T14:24:37Z</time>
      </trkpt>
      <trkpt lat="44.28304" lon="3.22464">
        <ele>624.4</ele>
        <time>2017-02-17T14:24:39Z</time>
      </trkpt>
      <trkpt lat="44.28301" lon="3.22462">
        <ele>624.4</ele>
        <time>2017-02-17T14:24:41Z</time>
      </trkpt>
      <trkpt lat="44.28289" lon="3.22459">
        <ele>624.4</ele>
        <time>2017-02-17T14:24:46Z</time>
      </trkpt>
      <trkpt lat="44.28286" lon="3.22461">
        <ele>624.5</ele>
        <time>2017-02-17T14:24:48Z</time>
      </trkpt>
      <trkpt lat="44.28283" lon="3.22462">
        <ele>624.5</ele>
        <time>2017-02-17T14:24:50Z</time>
      </trkpt>
      <trkpt lat="44.28278" lon="3.2246">
        <ele>624.5</ele>
        <time>2017-02-17T14:24:55Z</time>
      </trkpt>
      <trkpt lat="44.28274" lon="3.2246">
        <ele>624.5</ele>
        <time>2017-02-17T14:24:58Z</time>
      </trkpt>
      <trkpt lat="44.28271" lon="3.22462">
        <ele>624.5</ele>
        <time>2017-02-17T14:25:00Z</time>
      </trkpt>
      <trkpt lat="44.28267" lon="3.22463">
        <ele>624.6</ele>
        <time>2017-02-17T14:25:02Z</time>
      </trkpt>
      <trkpt lat="44.28264" lon="3.22463">
        <ele>624.6</ele>
        <time>2017-02-17T14:25:04Z</time>
      </trkpt>
      <trkpt lat="44.28261" lon="3.22461">
        <ele>624.6</ele>
        <time>2017-02-17T14:25:06Z</time>
      </trkpt>
      <trkpt lat="44.28258" lon="3.22458">
        <ele>624.6</ele>
        <time>2017-02-17T14:25:08Z</time>
      </trkpt>
      <trkpt lat="44.28251" lon="3.22459">
        <ele>624.6</ele>
        <time>2017-02-17T14:25:10Z</time>
      </trkpt>
      <trkpt lat="44.28248" lon="3.22457">
        <ele>624.6</ele>
        <time>2017-02-17T14:25:12Z</time>
      </trkpt>
      <trkpt lat="44.28244" lon="3.22455">
        <ele>624.6</ele>
        <time>2017-02-17T14:25:13Z</time>
      </trkpt>
      <trkpt lat="44.28241" lon="3.22455">
        <ele>624.5</ele>
        <time>2017-02-17T14:25:14Z</time>
      </trkpt>
      <trkpt lat="44.28238" lon="3.22455">
        <ele>624.5</ele>
        <time>2017-02-17T14:25:17Z</time>
      </trkpt>
      <trkpt lat="44.28235" lon="3.22457">
        <ele>624.5</ele>
        <time>2017-02-17T14:25:21Z</time>
      </trkpt>
      <trkpt lat="44.28232" lon="3.22455">
        <ele>624.5</ele>
        <time>2017-02-17T14:25:24Z</time>
      </trkpt>
      <trkpt lat="44.28229" lon="3.22452">
        <ele>624.4</ele>
        <time>2017-02-17T14:25:27Z</time>
      </trkpt>
      <trkpt lat="44.28226" lon="3.2245">
        <ele>624.4</ele>
        <time>2017-02-17T14:25:29Z</time>
      </trkpt>
      <trkpt lat="44.28223" lon="3.22449">
        <ele>624.4</ele>
        <time>2017-02-17T14:25:31Z</time>
      </trkpt>
      <trkpt lat="44.2822" lon="3.22448">
        <ele>624.4</ele>
        <time>2017-02-17T14:25:33Z</time>
      </trkpt>
      <trkpt lat="44.28217" lon="3.22446">
        <ele>624.4</ele>
        <time>2017-02-17T14:25:35Z</time>
      </trkpt>
      <trkpt lat="44.28214" lon="3.22446">
        <ele>624.3</ele>
        <time>2017-02-17T14:25:37Z</time>
      </trkpt>
      <trkpt lat="44.2821" lon="3.22446">
        <ele>624.3</ele>
        <time>2017-02-17T14:25:40Z</time>
      </trkpt>
      <trkpt lat="44.28206" lon="3.22446">
        <ele>624.3</ele>
        <time>2017-02-17T14:25:42Z</time>
      </trkpt>
      <trkpt lat="44.28203" lon="3.22447">
        <ele>624.3</ele>
        <time>2017-02-17T14:25:44Z</time>
      </trkpt>
      <trkpt lat="44.28198" lon="3.22445">
        <ele>624.3</ele>
        <time>2017-02-17T14:25:46Z</time>
      </trkpt>
      <trkpt lat="44.28194" lon="3.22445">
        <ele>624.3</ele>
        <time>2017-02-17T14:25:47Z</time>
      </trkpt>
      <trkpt lat="44.28189" lon="3.22446">
        <ele>624.3</ele>
        <time>2017-02-17T14:25:48Z</time>
      </trkpt>
      <trkpt lat="44.28184" lon="3.22445">
        <ele>624.3</ele>
        <time>2017-02-17T14:25:49Z</time>
      </trkpt>
      <trkpt lat="44.28178" lon="3.22444">
        <ele>624.4</ele>
        <time>2017-02-17T14:25:51Z</time>
      </trkpt>
      <trkpt lat="44.28166" lon="3.22444">
        <ele>624.4</ele>
        <time>2017-02-17T14:26:00Z</time>
      </trkpt>
      <trkpt lat="44.28163" lon="3.22445">
        <ele>624.4</ele>
        <time>2017-02-17T14:26:04Z</time>
      </trkpt>
      <trkpt lat="44.2816" lon="3.22444">
        <ele>624.4</ele>
        <time>2017-02-17T14:26:07Z</time>
      </trkpt>
      <trkpt lat="44.28156" lon="3.22443">
        <ele>624.4</ele>
        <time>2017-02-17T14:26:09Z</time>
      </trkpt>
      <trkpt lat="44.28153" lon="3.22443">
        <ele>624.4</ele>
        <time>2017-02-17T14:26:12Z</time>
      </trkpt>
      <trkpt lat="44.28148" lon="3.22444">
        <ele>624.4</ele>
        <time>2017-02-17T14:26:15Z</time>
      </trkpt>
      <trkpt lat="44.28145" lon="3.22447">
        <ele>624.4</ele>
        <time>2017-02-17T14:26:17Z</time>
      </trkpt>
      <trkpt lat="44.28142" lon="3.22448">
        <ele>624.4</ele>
        <time>2017-02-17T14:26:19Z</time>
      </trkpt>
      <trkpt lat="44.28124" lon="3.22441">
        <ele>624.3</ele>
        <time>2017-02-17T14:26:31Z</time>
      </trkpt>
      <trkpt lat="44.28121" lon="3.22439">
        <ele>624.3</ele>
        <time>2017-02-17T14:26:34Z</time>
      </trkpt>
      <trkpt lat="44.28119" lon="3.22436">
        <ele>624.2</ele>
        <time>2017-02-17T14:26:37Z</time>
      </trkpt>
      <trkpt lat="44.28117" lon="3.22434">
        <ele>624.2</ele>
        <time>2017-02-17T14:26:40Z</time>
      </trkpt>
      <trkpt lat="44.28113" lon="3.22431">
        <ele>624.2</ele>
        <time>2017-02-17T14:26:43Z</time>
      </trkpt>
      <trkpt lat="44.2811" lon="3.22429">
        <ele>624.2</ele>
        <time>2017-02-17T14:26:45Z</time>
      </trkpt>
      <trkpt lat="44.28108" lon="3.22428">
        <ele>624.2</ele>
        <time>2017-02-17T14:26:47Z</time>
      </trkpt>
      <trkpt lat="44.28105" lon="3.22426">
        <ele>624.1</ele>
        <time>2017-02-17T14:26:49Z</time>
      </trkpt>
      <trkpt lat="44.28102" lon="3.22424">
        <ele>624.1</ele>
        <time>2017-02-17T14:26:51Z</time>
      </trkpt>
      <trkpt lat="44.28099" lon="3.22422">
        <ele>624.1</ele>
        <time>2017-02-17T14:26:53Z</time>
      </trkpt>
      <trkpt lat="44.28096" lon="3.22421">
        <ele>624.1</ele>
        <time>2017-02-17T14:26:55Z</time>
      </trkpt>
      <trkpt lat="44.28093" lon="3.22419">
        <ele>624.1</ele>
        <time>2017-02-17T14:26:57Z</time>
      </trkpt>
      <trkpt lat="44.2809" lon="3.22417">
        <ele>624.1</ele>
        <time>2017-02-17T14:26:59Z</time>
      </trkpt>
      <trkpt lat="44.28087" lon="3.22416">
        <ele>624.1</ele>
        <time>2017-02-17T14:27:01Z</time>
      </trkpt>
      <trkpt lat="44.28084" lon="3.22414">
        <ele>624.1</ele>
        <time>2017-02-17T14:27:03Z</time>
      </trkpt>
      <trkpt lat="44.28081" lon="3.22413">
        <ele>624.1</ele>
        <time>2017-02-17T14:27:06Z</time>
      </trkpt>
      <trkpt lat="44.28078" lon="3.22412">
        <ele>624.1</ele>
        <time>2017-02-17T14:27:08Z</time>
      </trkpt>
      <trkpt lat="44.28075" lon="3.2241">
        <ele>624.1</ele>
        <time>2017-02-17T14:27:11Z</time>
      </trkpt>
      <trkpt lat="44.28072" lon="3.22408">
        <ele>624.1</ele>
        <time>2017-02-17T14:27:13Z</time>
      </trkpt>
      <trkpt lat="44.28068" lon="3.22406">
        <ele>624.1</ele>
        <time>2017-02-17T14:27:15Z</time>
      </trkpt>
      <trkpt lat="44.28064" lon="3.22403">
        <ele>624.1</ele>
        <time>2017-02-17T14:27:17Z</time>
      </trkpt>
      <trkpt lat="44.2806" lon="3.22401">
        <ele>624</ele>
        <time>2017-02-17T14:27:19Z</time>
      </trkpt>
      <trkpt lat="44.28056" lon="3.22398">
        <ele>624</ele>
        <time>2017-02-17T14:27:21Z</time>
      </trkpt>
      <trkpt lat="44.28054" lon="3.22395">
        <ele>624</ele>
        <time>2017-02-17T14:27:23Z</time>
      </trkpt>
      <trkpt lat="44.28051" lon="3.22393">
        <ele>624</ele>
        <time>2017-02-17T14:27:25Z</time>
      </trkpt>
      <trkpt lat="44.28048" lon="3.22391">
        <ele>624</ele>
        <time>2017-02-17T14:27:27Z</time>
      </trkpt>
      <trkpt lat="44.28045" lon="3.22391">
        <ele>624</ele>
        <time>2017-02-17T14:27:29Z</time>
      </trkpt>
      <trkpt lat="44.28042" lon="3.2239">
        <ele>624</ele>
        <time>2017-02-17T14:27:31Z</time>
      </trkpt>
      <trkpt lat="44.28039" lon="3.22388">
        <ele>623.9</ele>
        <time>2017-02-17T14:27:33Z</time>
      </trkpt>
      <trkpt lat="44.28036" lon="3.22387">
        <ele>623.9</ele>
        <time>2017-02-17T14:27:36Z</time>
      </trkpt>
      <trkpt lat="44.28033" lon="3.22386">
        <ele>623.9</ele>
        <time>2017-02-17T14:27:38Z</time>
      </trkpt>
      <trkpt lat="44.28029" lon="3.22386">
        <ele>623.9</ele>
        <time>2017-02-17T14:27:39Z</time>
      </trkpt>
      <trkpt lat="44.28024" lon="3.22387">
        <ele>623.9</ele>
        <time>2017-02-17T14:27:46Z</time>
      </trkpt>
      <trkpt lat="44.28021" lon="3.22384">
        <ele>623.9</ele>
        <time>2017-02-17T14:27:47Z</time>
      </trkpt>
      <trkpt lat="44.28016" lon="3.22379">
        <ele>623.9</ele>
        <time>2017-02-17T14:27:48Z</time>
      </trkpt>
      <trkpt lat="44.28013" lon="3.22378">
        <ele>623.9</ele>
        <time>2017-02-17T14:27:49Z</time>
      </trkpt>
      <trkpt lat="44.2801" lon="3.22375">
        <ele>623.9</ele>
        <time>2017-02-17T14:27:51Z</time>
      </trkpt>
      <trkpt lat="44.28008" lon="3.22373">
        <ele>623.9</ele>
        <time>2017-02-17T14:27:53Z</time>
      </trkpt>
      <trkpt lat="44.28006" lon="3.22368">
        <ele>623.9</ele>
        <time>2017-02-17T14:27:56Z</time>
      </trkpt>
      <trkpt lat="44.28003" lon="3.22365">
        <ele>623.9</ele>
        <time>2017-02-17T14:27:59Z</time>
      </trkpt>
      <trkpt lat="44.28" lon="3.22361">
        <ele>623.9</ele>
        <time>2017-02-17T14:28:02Z</time>
      </trkpt>
      <trkpt lat="44.27997" lon="3.22357">
        <ele>623.9</ele>
        <time>2017-02-17T14:28:05Z</time>
      </trkpt>
      <trkpt lat="44.27995" lon="3.22355">
        <ele>623.9</ele>
        <time>2017-02-17T14:28:07Z</time>
      </trkpt>
      <trkpt lat="44.27992" lon="3.22354">
        <ele>623.9</ele>
        <time>2017-02-17T14:28:09Z</time>
      </trkpt>
      <trkpt lat="44.27989" lon="3.22352">
        <ele>623.9</ele>
        <time>2017-02-17T14:28:11Z</time>
      </trkpt>
      <trkpt lat="44.27987" lon="3.2235">
        <ele>624</ele>
        <time>2017-02-17T14:28:14Z</time>
      </trkpt>
      <trkpt lat="44.27984" lon="3.22348">
        <ele>624</ele>
        <time>2017-02-17T14:28:18Z</time>
      </trkpt>
      <trkpt lat="44.27981" lon="3.22346">
        <ele>624</ele>
        <time>2017-02-17T14:28:21Z</time>
      </trkpt>
      <trkpt lat="44.27979" lon="3.22344">
        <ele>624</ele>
        <time>2017-02-17T14:28:23Z</time>
      </trkpt>
      <trkpt lat="44.27977" lon="3.22342">
        <ele>624</ele>
        <time>2017-02-17T14:28:25Z</time>
      </trkpt>
      <trkpt lat="44.27974" lon="3.22339">
        <ele>624</ele>
        <time>2017-02-17T14:28:27Z</time>
      </trkpt>
      <trkpt lat="44.27972" lon="3.22336">
        <ele>625.4</ele>
        <time>2017-02-17T14:28:29Z</time>
      </trkpt>
      <trkpt lat="44.27969" lon="3.22332">
        <ele>626.7</ele>
        <time>2017-02-17T14:28:32Z</time>
      </trkpt>
      <trkpt lat="44.27967" lon="3.22329">
        <ele>627.8</ele>
        <time>2017-02-17T14:28:34Z</time>
      </trkpt>
      <trkpt lat="44.27964" lon="3.22325">
        <ele>629.4</ele>
        <time>2017-02-17T14:28:37Z</time>
      </trkpt>
      <trkpt lat="44.27961" lon="3.22323">
        <ele>630.9</ele>
        <time>2017-02-17T14:28:39Z</time>
      </trkpt>
      <trkpt lat="44.27958" lon="3.2232">
        <ele>632.1</ele>
        <time>2017-02-17T14:28:41Z</time>
      </trkpt>
      <trkpt lat="44.27956" lon="3.22318">
        <ele>633.4</ele>
        <time>2017-02-17T14:28:43Z</time>
      </trkpt>
      <trkpt lat="44.27952" lon="3.22314">
        <ele>635.6</ele>
        <time>2017-02-17T14:28:46Z</time>
      </trkpt>
      <trkpt lat="44.27949" lon="3.22311">
        <ele>637.8</ele>
        <time>2017-02-17T14:28:48Z</time>
      </trkpt>
      <trkpt lat="44.27947" lon="3.22309">
        <ele>638.9</ele>
        <time>2017-02-17T14:28:50Z</time>
      </trkpt>
      <trkpt lat="44.27944" lon="3.22307">
        <ele>640</ele>
        <time>2017-02-17T14:28:52Z</time>
      </trkpt>
      <trkpt lat="44.27941" lon="3.22305">
        <ele>641.2</ele>
        <time>2017-02-17T14:28:54Z</time>
      </trkpt>
      <trkpt lat="44.27939" lon="3.22303">
        <ele>642.1</ele>
        <time>2017-02-17T14:28:56Z</time>
      </trkpt>
      <trkpt lat="44.27936" lon="3.22302">
        <ele>642.9</ele>
        <time>2017-02-17T14:28:58Z</time>
      </trkpt>
      <trkpt lat="44.27933" lon="3.223">
        <ele>643.7</ele>
        <time>2017-02-17T14:29:00Z</time>
      </trkpt>
      <trkpt lat="44.2793" lon="3.22296">
        <ele>639.8</ele>
        <time>2017-02-17T14:29:03Z</time>
      </trkpt>
      <trkpt lat="44.27926" lon="3.22294">
        <ele>633.9</ele>
        <time>2017-02-17T14:29:05Z</time>
      </trkpt>
      <trkpt lat="44.27922" lon="3.22292">
        <ele>634.6</ele>
        <time>2017-02-17T14:29:07Z</time>
      </trkpt>
      <trkpt lat="44.27919" lon="3.22291">
        <ele>635.3</ele>
        <time>2017-02-17T14:29:09Z</time>
      </trkpt>
      <trkpt lat="44.27916" lon="3.22289">
        <ele>635.9</ele>
        <time>2017-02-17T14:29:11Z</time>
      </trkpt>
      <trkpt lat="44.27912" lon="3.22287">
        <ele>636.5</ele>
        <time>2017-02-17T14:29:13Z</time>
      </trkpt>
      <trkpt lat="44.27908" lon="3.22285">
        <ele>637.2</ele>
        <time>2017-02-17T14:29:15Z</time>
      </trkpt>
      <trkpt lat="44.27904" lon="3.22283">
        <ele>638</ele>
        <time>2017-02-17T14:29:17Z</time>
      </trkpt>
      <trkpt lat="44.279" lon="3.22282">
        <ele>638.7</ele>
        <time>2017-02-17T14:29:19Z</time>
      </trkpt>
      <trkpt lat="44.27897" lon="3.22282">
        <ele>639.2</ele>
        <time>2017-02-17T14:29:21Z</time>
      </trkpt>
      <trkpt lat="44.27894" lon="3.22282">
        <ele>639.8</ele>
        <time>2017-02-17T14:29:23Z</time>
      </trkpt>
      <trkpt lat="44.27891" lon="3.22281">
        <ele>640.3</ele>
        <time>2017-02-17T14:29:25Z</time>
      </trkpt>
      <trkpt lat="44.27886" lon="3.22281">
        <ele>641.1</ele>
        <time>2017-02-17T14:29:28Z</time>
      </trkpt>
      <trkpt lat="44.27883" lon="3.22281">
        <ele>641.6</ele>
        <time>2017-02-17T14:29:31Z</time>
      </trkpt>
      <trkpt lat="44.27879" lon="3.22281">
        <ele>642.7</ele>
        <time>2017-02-17T14:29:34Z</time>
      </trkpt>
      <trkpt lat="44.27876" lon="3.2228">
        <ele>643.4</ele>
        <time>2017-02-17T14:29:36Z</time>
      </trkpt>
      <trkpt lat="44.27873" lon="3.22277">
        <ele>644.1</ele>
        <time>2017-02-17T14:29:38Z</time>
      </trkpt>
      <trkpt lat="44.27861" lon="3.22283">
        <ele>646.7</ele>
        <time>2017-02-17T14:29:42Z</time>
      </trkpt>
      <trkpt lat="44.27858" lon="3.22285">
        <ele>647.6</ele>
        <time>2017-02-17T14:29:43Z</time>
      </trkpt>
      <trkpt lat="44.27853" lon="3.22283">
        <ele>648.5</ele>
        <time>2017-02-17T14:29:49Z</time>
      </trkpt>
      <trkpt lat="44.27849" lon="3.22282">
        <ele>649.4</ele>
        <time>2017-02-17T14:29:51Z</time>
      </trkpt>
      <trkpt lat="44.27846" lon="3.22282">
        <ele>650</ele>
        <time>2017-02-17T14:29:54Z</time>
      </trkpt>
      <trkpt lat="44.27843" lon="3.22281">
        <ele>650.7</ele>
        <time>2017-02-17T14:29:57Z</time>
      </trkpt>
      <trkpt lat="44.2784" lon="3.2228">
        <ele>651.3</ele>
        <time>2017-02-17T14:30:00Z</time>
      </trkpt>
      <trkpt lat="44.27837" lon="3.22277">
        <ele>652</ele>
        <time>2017-02-17T14:30:02Z</time>
      </trkpt>
      <trkpt lat="44.27834" lon="3.22277">
        <ele>652.6</ele>
        <time>2017-02-17T14:30:05Z</time>
      </trkpt>
      <trkpt lat="44.27831" lon="3.22277">
        <ele>653.3</ele>
        <time>2017-02-17T14:30:08Z</time>
      </trkpt>
      <trkpt lat="44.27828" lon="3.22276">
        <ele>654.1</ele>
        <time>2017-02-17T14:30:11Z</time>
      </trkpt>
      <trkpt lat="44.27824" lon="3.22275">
        <ele>655.1</ele>
        <time>2017-02-17T14:30:14Z</time>
      </trkpt>
      <trkpt lat="44.2782" lon="3.22276">
        <ele>656</ele>
        <time>2017-02-17T14:30:17Z</time>
      </trkpt>
      <trkpt lat="44.27817" lon="3.22276">
        <ele>656.8</ele>
        <time>2017-02-17T14:30:19Z</time>
      </trkpt>
      <trkpt lat="44.27812" lon="3.22275">
        <ele>657.8</ele>
        <time>2017-02-17T14:30:21Z</time>
      </trkpt>
      <trkpt lat="44.27809" lon="3.22272">
        <ele>658.4</ele>
        <time>2017-02-17T14:30:23Z</time>
      </trkpt>
      <trkpt lat="44.27807" lon="3.22269">
        <ele>659.1</ele>
        <time>2017-02-17T14:30:26Z</time>
      </trkpt>
      <trkpt lat="44.27806" lon="3.22265">
        <ele>659.9</ele>
        <time>2017-02-17T14:30:28Z</time>
      </trkpt>
      <trkpt lat="44.27804" lon="3.22262">
        <ele>660.5</ele>
        <time>2017-02-17T14:30:30Z</time>
      </trkpt>
      <trkpt lat="44.27804" lon="3.22257">
        <ele>661.1</ele>
        <time>2017-02-17T14:30:33Z</time>
      </trkpt>
      <trkpt lat="44.27806" lon="3.22253">
        <ele>661.8</ele>
        <time>2017-02-17T14:30:38Z</time>
      </trkpt>
      <trkpt lat="44.27808" lon="3.22251">
        <ele>662.4</ele>
        <time>2017-02-17T14:30:40Z</time>
      </trkpt>
      <trkpt lat="44.27811" lon="3.2225">
        <ele>663</ele>
        <time>2017-02-17T14:30:42Z</time>
      </trkpt>
      <trkpt lat="44.27815" lon="3.22249">
        <ele>663.9</ele>
        <time>2017-02-17T14:30:44Z</time>
      </trkpt>
      <trkpt lat="44.27818" lon="3.22246">
        <ele>664.8</ele>
        <time>2017-02-17T14:30:47Z</time>
      </trkpt>
      <trkpt lat="44.27821" lon="3.22247">
        <ele>665.3</ele>
        <time>2017-02-17T14:30:49Z</time>
      </trkpt>
      <trkpt lat="44.27824" lon="3.22246">
        <ele>665.9</ele>
        <time>2017-02-17T14:30:52Z</time>
      </trkpt>
      <trkpt lat="44.27828" lon="3.22246">
        <ele>666.5</ele>
        <time>2017-02-17T14:31:01Z</time>
      </trkpt>
      <trkpt lat="44.27831" lon="3.22247">
        <ele>667.1</ele>
        <time>2017-02-17T14:31:03Z</time>
      </trkpt>
      <trkpt lat="44.27837" lon="3.22244">
        <ele>668.1</ele>
        <time>2017-02-17T14:31:06Z</time>
      </trkpt>
      <trkpt lat="44.2784" lon="3.22245">
        <ele>668.8</ele>
        <time>2017-02-17T14:31:07Z</time>
      </trkpt>
      <trkpt lat="44.27843" lon="3.22243">
        <ele>669.4</ele>
        <time>2017-02-17T14:31:10Z</time>
      </trkpt>
      <trkpt lat="44.27846" lon="3.22242">
        <ele>670</ele>
        <time>2017-02-17T14:31:13Z</time>
      </trkpt>
      <trkpt lat="44.27878" lon="3.22233">
        <ele>677.2</ele>
        <time>2017-02-17T14:33:46Z</time>
      </trkpt>
      <trkpt lat="44.27884" lon="3.22234">
        <ele>678.2</ele>
        <time>2017-02-17T14:33:47Z</time>
      </trkpt>
      <trkpt lat="44.27888" lon="3.22232">
        <ele>679.1</ele>
        <time>2017-02-17T14:33:48Z</time>
      </trkpt>
      <trkpt lat="44.27893" lon="3.22233">
        <ele>680</ele>
        <time>2017-02-17T14:33:50Z</time>
      </trkpt>
      <trkpt lat="44.27897" lon="3.22234">
        <ele>680.8</ele>
        <time>2017-02-17T14:33:52Z</time>
      </trkpt>
      <trkpt lat="44.27901" lon="3.22234">
        <ele>681.4</ele>
        <time>2017-02-17T14:33:54Z</time>
      </trkpt>
      <trkpt lat="44.27904" lon="3.22234">
        <ele>681.9</ele>
        <time>2017-02-17T14:33:56Z</time>
      </trkpt>
      <trkpt lat="44.27907" lon="3.22235">
        <ele>682.5</ele>
        <time>2017-02-17T14:33:58Z</time>
      </trkpt>
      <trkpt lat="44.27909" lon="3.22235">
        <ele>683</ele>
        <time>2017-02-17T14:34:00Z</time>
      </trkpt>
      <trkpt lat="44.27912" lon="3.22236">
        <ele>683.6</ele>
        <time>2017-02-17T14:34:02Z</time>
      </trkpt>
      <trkpt lat="44.27915" lon="3.22237">
        <ele>684.2</ele>
        <time>2017-02-17T14:34:05Z</time>
      </trkpt>
      <trkpt lat="44.27919" lon="3.22237">
        <ele>684.9</ele>
        <time>2017-02-17T14:34:08Z</time>
      </trkpt>
      <trkpt lat="44.27922" lon="3.2224">
        <ele>685.6</ele>
        <time>2017-02-17T14:34:10Z</time>
      </trkpt>
      <trkpt lat="44.27926" lon="3.22241">
        <ele>686.3</ele>
        <time>2017-02-17T14:34:12Z</time>
      </trkpt>
      <trkpt lat="44.27928" lon="3.22243">
        <ele>686.8</ele>
        <time>2017-02-17T14:34:14Z</time>
      </trkpt>
      <trkpt lat="44.27931" lon="3.22244">
        <ele>687.4</ele>
        <time>2017-02-17T14:34:17Z</time>
      </trkpt>
      <trkpt lat="44.27934" lon="3.22246">
        <ele>688</ele>
        <time>2017-02-17T14:34:20Z</time>
      </trkpt>
      <trkpt lat="44.27937" lon="3.22246">
        <ele>688.5</ele>
        <time>2017-02-17T14:34:22Z</time>
      </trkpt>
      <trkpt lat="44.2794" lon="3.22247">
        <ele>689</ele>
        <time>2017-02-17T14:34:25Z</time>
      </trkpt>
      <trkpt lat="44.27943" lon="3.22248">
        <ele>689.6</ele>
        <time>2017-02-17T14:34:27Z</time>
      </trkpt>
      <trkpt lat="44.27946" lon="3.22249">
        <ele>690.2</ele>
        <time>2017-02-17T14:34:30Z</time>
      </trkpt>
      <trkpt lat="44.2795" lon="3.22248">
        <ele>690.4</ele>
        <time>2017-02-17T14:34:33Z</time>
      </trkpt>
      <trkpt lat="44.27952" lon="3.22246">
        <ele>690.6</ele>
        <time>2017-02-17T14:34:35Z</time>
      </trkpt>
      <trkpt lat="44.27953" lon="3.22243">
        <ele>690.8</ele>
        <time>2017-02-17T14:34:39Z</time>
      </trkpt>
      <trkpt lat="44.27955" lon="3.22238">
        <ele>691</ele>
        <time>2017-02-17T14:34:41Z</time>
      </trkpt>
      <trkpt lat="44.27958" lon="3.22241">
        <ele>691.3</ele>
        <time>2017-02-17T14:34:43Z</time>
      </trkpt>
      <trkpt lat="44.2796" lon="3.22244">
        <ele>691.5</ele>
        <time>2017-02-17T14:34:44Z</time>
      </trkpt>
      <trkpt lat="44.27962" lon="3.22248">
        <ele>691.8</ele>
        <time>2017-02-17T14:34:46Z</time>
      </trkpt>
      <trkpt lat="44.27969" lon="3.22251">
        <ele>692.3</ele>
        <time>2017-02-17T14:34:48Z</time>
      </trkpt>
      <trkpt lat="44.27972" lon="3.22251">
        <ele>692.5</ele>
        <time>2017-02-17T14:34:50Z</time>
      </trkpt>
      <trkpt lat="44.27977" lon="3.2225">
        <ele>692.8</ele>
        <time>2017-02-17T14:34:52Z</time>
      </trkpt>
      <trkpt lat="44.27981" lon="3.22247">
        <ele>693.1</ele>
        <time>2017-02-17T14:34:54Z</time>
      </trkpt>
      <trkpt lat="44.27984" lon="3.22249">
        <ele>693.3</ele>
        <time>2017-02-17T14:34:58Z</time>
      </trkpt>
      <trkpt lat="44.27988" lon="3.2225">
        <ele>693.6</ele>
        <time>2017-02-17T14:35:00Z</time>
      </trkpt>
      <trkpt lat="44.27992" lon="3.22251">
        <ele>693.9</ele>
        <time>2017-02-17T14:35:02Z</time>
      </trkpt>
      <trkpt lat="44.27995" lon="3.22251">
        <ele>694.1</ele>
        <time>2017-02-17T14:35:03Z</time>
      </trkpt>
      <trkpt lat="44.27998" lon="3.22252">
        <ele>694.4</ele>
        <time>2017-02-17T14:35:04Z</time>
      </trkpt>
      <trkpt lat="44.28002" lon="3.22253">
        <ele>694.6</ele>
        <time>2017-02-17T14:35:06Z</time>
      </trkpt>
      <trkpt lat="44.28006" lon="3.2225">
        <ele>694.9</ele>
        <time>2017-02-17T14:35:08Z</time>
      </trkpt>
      <trkpt lat="44.28009" lon="3.22251">
        <ele>695.1</ele>
        <time>2017-02-17T14:35:10Z</time>
      </trkpt>
      <trkpt lat="44.28012" lon="3.22251">
        <ele>695.3</ele>
        <time>2017-02-17T14:35:13Z</time>
      </trkpt>
      <trkpt lat="44.28015" lon="3.22255">
        <ele>695.5</ele>
        <time>2017-02-17T14:35:17Z</time>
      </trkpt>
      <trkpt lat="44.28019" lon="3.2226">
        <ele>695.8</ele>
        <time>2017-02-17T14:35:19Z</time>
      </trkpt>
      <trkpt lat="44.28022" lon="3.22262">
        <ele>696</ele>
        <time>2017-02-17T14:35:20Z</time>
      </trkpt>
      <trkpt lat="44.28024" lon="3.22264">
        <ele>696.2</ele>
        <time>2017-02-17T14:35:21Z</time>
      </trkpt>
      <trkpt lat="44.28027" lon="3.22266">
        <ele>696.4</ele>
        <time>2017-02-17T14:35:22Z</time>
      </trkpt>
      <trkpt lat="44.2803" lon="3.22267">
        <ele>696.6</ele>
        <time>2017-02-17T14:35:23Z</time>
      </trkpt>
      <trkpt lat="44.28033" lon="3.22267">
        <ele>696.7</ele>
        <time>2017-02-17T14:35:24Z</time>
      </trkpt>
      <trkpt lat="44.28038" lon="3.22268">
        <ele>697</ele>
        <time>2017-02-17T14:35:26Z</time>
      </trkpt>
      <trkpt lat="44.28041" lon="3.22267">
        <ele>697.2</ele>
        <time>2017-02-17T14:35:28Z</time>
      </trkpt>
      <trkpt lat="44.28044" lon="3.22265">
        <ele>697.4</ele>
        <time>2017-02-17T14:35:29Z</time>
      </trkpt>
      <trkpt lat="44.28048" lon="3.22267">
        <ele>697.7</ele>
        <time>2017-02-17T14:35:32Z</time>
      </trkpt>
      <trkpt lat="44.28051" lon="3.22267">
        <ele>697.9</ele>
        <time>2017-02-17T14:35:35Z</time>
      </trkpt>
      <trkpt lat="44.28055" lon="3.22267">
        <ele>698.1</ele>
        <time>2017-02-17T14:35:37Z</time>
      </trkpt>
      <trkpt lat="44.2806" lon="3.22267">
        <ele>698.4</ele>
        <time>2017-02-17T14:35:39Z</time>
      </trkpt>
      <trkpt lat="44.28062" lon="3.22268">
        <ele>698.6</ele>
        <time>2017-02-17T14:35:40Z</time>
      </trkpt>
      <trkpt lat="44.28067" lon="3.22269">
        <ele>698.9</ele>
        <time>2017-02-17T14:35:42Z</time>
      </trkpt>
      <trkpt lat="44.28072" lon="3.22271">
        <ele>699.3</ele>
        <time>2017-02-17T14:35:44Z</time>
      </trkpt>
      <trkpt lat="44.28076" lon="3.22272">
        <ele>699.7</ele>
        <time>2017-02-17T14:35:46Z</time>
      </trkpt>
      <trkpt lat="44.28079" lon="3.22273">
        <ele>699.9</ele>
        <time>2017-02-17T14:35:48Z</time>
      </trkpt>
      <trkpt lat="44.28083" lon="3.22274">
        <ele>700.2</ele>
        <time>2017-02-17T14:35:50Z</time>
      </trkpt>
      <trkpt lat="44.28087" lon="3.22274">
        <ele>700.6</ele>
        <time>2017-02-17T14:35:52Z</time>
      </trkpt>
      <trkpt lat="44.28091" lon="3.22275">
        <ele>700.9</ele>
        <time>2017-02-17T14:35:54Z</time>
      </trkpt>
      <trkpt lat="44.28095" lon="3.22275">
        <ele>701.2</ele>
        <time>2017-02-17T14:35:56Z</time>
      </trkpt>
      <trkpt lat="44.28098" lon="3.22276">
        <ele>701.5</ele>
        <time>2017-02-17T14:35:58Z</time>
      </trkpt>
      <trkpt lat="44.28103" lon="3.22275">
        <ele>701.8</ele>
        <time>2017-02-17T14:36:00Z</time>
      </trkpt>
      <trkpt lat="44.28106" lon="3.22275">
        <ele>702.1</ele>
        <time>2017-02-17T14:36:02Z</time>
      </trkpt>
      <trkpt lat="44.2811" lon="3.22275">
        <ele>702.4</ele>
        <time>2017-02-17T14:36:04Z</time>
      </trkpt>
      <trkpt lat="44.28114" lon="3.22277">
        <ele>702.7</ele>
        <time>2017-02-17T14:36:06Z</time>
      </trkpt>
      <trkpt lat="44.28118" lon="3.22279">
        <ele>703.2</ele>
        <time>2017-02-17T14:36:08Z</time>
      </trkpt>
      <trkpt lat="44.28122" lon="3.22279">
        <ele>703.6</ele>
        <time>2017-02-17T14:36:10Z</time>
      </trkpt>
      <trkpt lat="44.28126" lon="3.22279">
        <ele>703.8</ele>
        <time>2017-02-17T14:36:12Z</time>
      </trkpt>
      <trkpt lat="44.2813" lon="3.22279">
        <ele>704.2</ele>
        <time>2017-02-17T14:36:14Z</time>
      </trkpt>
      <trkpt lat="44.28134" lon="3.22279">
        <ele>704.5</ele>
        <time>2017-02-17T14:36:16Z</time>
      </trkpt>
      <trkpt lat="44.28137" lon="3.22278">
        <ele>704.7</ele>
        <time>2017-02-17T14:36:18Z</time>
      </trkpt>
      <trkpt lat="44.28141" lon="3.22277">
        <ele>705</ele>
        <time>2017-02-17T14:36:20Z</time>
      </trkpt>
      <trkpt lat="44.28144" lon="3.22275">
        <ele>705.3</ele>
        <time>2017-02-17T14:36:22Z</time>
      </trkpt>
      <trkpt lat="44.28149" lon="3.22274">
        <ele>705.6</ele>
        <time>2017-02-17T14:36:24Z</time>
      </trkpt>
      <trkpt lat="44.28153" lon="3.22273">
        <ele>705.9</ele>
        <time>2017-02-17T14:36:26Z</time>
      </trkpt>
      <trkpt lat="44.28157" lon="3.22271">
        <ele>706.2</ele>
        <time>2017-02-17T14:36:28Z</time>
      </trkpt>
      <trkpt lat="44.2816" lon="3.22269">
        <ele>706.5</ele>
        <time>2017-02-17T14:36:30Z</time>
      </trkpt>
      <trkpt lat="44.28163" lon="3.22267">
        <ele>706.7</ele>
        <time>2017-02-17T14:36:32Z</time>
      </trkpt>
      <trkpt lat="44.28167" lon="3.22266">
        <ele>707</ele>
        <time>2017-02-17T14:36:34Z</time>
      </trkpt>
      <trkpt lat="44.2817" lon="3.22264">
        <ele>707.3</ele>
        <time>2017-02-17T14:36:36Z</time>
      </trkpt>
      <trkpt lat="44.28174" lon="3.22262">
        <ele>707.5</ele>
        <time>2017-02-17T14:36:38Z</time>
      </trkpt>
      <trkpt lat="44.28178" lon="3.2226">
        <ele>707.9</ele>
        <time>2017-02-17T14:36:40Z</time>
      </trkpt>
      <trkpt lat="44.28182" lon="3.22259">
        <ele>708.2</ele>
        <time>2017-02-17T14:36:42Z</time>
      </trkpt>
      <trkpt lat="44.28186" lon="3.22257">
        <ele>708.5</ele>
        <time>2017-02-17T14:36:44Z</time>
      </trkpt>
      <trkpt lat="44.28189" lon="3.22255">
        <ele>708.9</ele>
        <time>2017-02-17T14:36:47Z</time>
      </trkpt>
      <trkpt lat="44.28193" lon="3.22254">
        <ele>709.2</ele>
        <time>2017-02-17T14:36:49Z</time>
      </trkpt>
      <trkpt lat="44.28196" lon="3.22252">
        <ele>709.5</ele>
        <time>2017-02-17T14:36:52Z</time>
      </trkpt>
      <trkpt lat="44.282" lon="3.2225">
        <ele>709.8</ele>
        <time>2017-02-17T14:36:54Z</time>
      </trkpt>
      <trkpt lat="44.28202" lon="3.22248">
        <ele>710</ele>
        <time>2017-02-17T14:36:56Z</time>
      </trkpt>
      <trkpt lat="44.282" lon="3.22245">
        <ele>710.2</ele>
        <time>2017-02-17T14:37:01Z</time>
      </trkpt>
      <trkpt lat="44.28203" lon="3.22241">
        <ele>710.5</ele>
        <time>2017-02-17T14:37:04Z</time>
      </trkpt>
      <trkpt lat="44.28206" lon="3.22239">
        <ele>710.8</ele>
        <time>2017-02-17T14:37:06Z</time>
      </trkpt>
      <trkpt lat="44.28209" lon="3.22236">
        <ele>711.1</ele>
        <time>2017-02-17T14:37:08Z</time>
      </trkpt>
      <trkpt lat="44.28212" lon="3.22234">
        <ele>711.3</ele>
        <time>2017-02-17T14:37:09Z</time>
      </trkpt>
      <trkpt lat="44.28215" lon="3.22231">
        <ele>711.6</ele>
        <time>2017-02-17T14:37:11Z</time>
      </trkpt>
      <trkpt lat="44.28219" lon="3.22228">
        <ele>711.9</ele>
        <time>2017-02-17T14:37:13Z</time>
      </trkpt>
      <trkpt lat="44.28222" lon="3.22226">
        <ele>712.2</ele>
        <time>2017-02-17T14:37:15Z</time>
      </trkpt>
      <trkpt lat="44.28226" lon="3.22223">
        <ele>712.5</ele>
        <time>2017-02-17T14:37:17Z</time>
      </trkpt>
      <trkpt lat="44.2823" lon="3.2222">
        <ele>712.9</ele>
        <time>2017-02-17T14:37:19Z</time>
      </trkpt>
      <trkpt lat="44.28233" lon="3.22217">
        <ele>713.2</ele>
        <time>2017-02-17T14:37:21Z</time>
      </trkpt>
      <trkpt lat="44.28238" lon="3.22214">
        <ele>713.6</ele>
        <time>2017-02-17T14:37:23Z</time>
      </trkpt>
      <trkpt lat="44.2824" lon="3.22213">
        <ele>713.8</ele>
        <time>2017-02-17T14:37:24Z</time>
      </trkpt>
      <trkpt lat="44.28246" lon="3.2221">
        <ele>714.2</ele>
        <time>2017-02-17T14:37:26Z</time>
      </trkpt>
      <trkpt lat="44.2825" lon="3.22207">
        <ele>714.6</ele>
        <time>2017-02-17T14:37:28Z</time>
      </trkpt>
      <trkpt lat="44.28254" lon="3.22204">
        <ele>714.9</ele>
        <time>2017-02-17T14:37:30Z</time>
      </trkpt>
      <trkpt lat="44.28258" lon="3.22199">
        <ele>715.3</ele>
        <time>2017-02-17T14:37:32Z</time>
      </trkpt>
      <trkpt lat="44.2826" lon="3.22193">
        <ele>715.6</ele>
        <time>2017-02-17T14:37:34Z</time>
      </trkpt>
      <trkpt lat="44.28263" lon="3.22191">
        <ele>715.8</ele>
        <time>2017-02-17T14:37:37Z</time>
      </trkpt>
      <trkpt lat="44.28266" lon="3.22188">
        <ele>716.1</ele>
        <time>2017-02-17T14:37:40Z</time>
      </trkpt>
      <trkpt lat="44.2827" lon="3.22183">
        <ele>716.4</ele>
        <time>2017-02-17T14:37:42Z</time>
      </trkpt>
      <trkpt lat="44.28273" lon="3.2218">
        <ele>716.6</ele>
        <time>2017-02-17T14:37:44Z</time>
      </trkpt>
      <trkpt lat="44.28275" lon="3.22178">
        <ele>716.8</ele>
        <time>2017-02-17T14:37:46Z</time>
      </trkpt>
      <trkpt lat="44.28279" lon="3.22172">
        <ele>717.2</ele>
        <time>2017-02-17T14:37:48Z</time>
      </trkpt>
      <trkpt lat="44.28284" lon="3.22167">
        <ele>717.5</ele>
        <time>2017-02-17T14:37:51Z</time>
      </trkpt>
      <trkpt lat="44.28288" lon="3.22163">
        <ele>717.9</ele>
        <time>2017-02-17T14:37:53Z</time>
      </trkpt>
      <trkpt lat="44.2829" lon="3.2216">
        <ele>718.1</ele>
        <time>2017-02-17T14:37:56Z</time>
      </trkpt>
      <trkpt lat="44.28293" lon="3.22158">
        <ele>718.3</ele>
        <time>2017-02-17T14:37:58Z</time>
      </trkpt>
      <trkpt lat="44.28295" lon="3.22155">
        <ele>718.6</ele>
        <time>2017-02-17T14:38:00Z</time>
      </trkpt>
      <trkpt lat="44.28298" lon="3.22152">
        <ele>718.8</ele>
        <time>2017-02-17T14:38:02Z</time>
      </trkpt>
      <trkpt lat="44.283" lon="3.22149">
        <ele>719</ele>
        <time>2017-02-17T14:38:04Z</time>
      </trkpt>
      <trkpt lat="44.28303" lon="3.22145">
        <ele>719.3</ele>
        <time>2017-02-17T14:38:06Z</time>
      </trkpt>
      <trkpt lat="44.28305" lon="3.22141">
        <ele>719.5</ele>
        <time>2017-02-17T14:38:07Z</time>
      </trkpt>
      <trkpt lat="44.28309" lon="3.22139">
        <ele>719.8</ele>
        <time>2017-02-17T14:38:09Z</time>
      </trkpt>
      <trkpt lat="44.28311" lon="3.22135">
        <ele>720</ele>
        <time>2017-02-17T14:38:11Z</time>
      </trkpt>
      <trkpt lat="44.28313" lon="3.22132">
        <ele>720.3</ele>
        <time>2017-02-17T14:38:13Z</time>
      </trkpt>
      <trkpt lat="44.28316" lon="3.22128">
        <ele>720.5</ele>
        <time>2017-02-17T14:38:14Z</time>
      </trkpt>
      <trkpt lat="44.2832" lon="3.22122">
        <ele>721</ele>
        <time>2017-02-17T14:38:16Z</time>
      </trkpt>
      <trkpt lat="44.28322" lon="3.22117">
        <ele>721.3</ele>
        <time>2017-02-17T14:38:18Z</time>
      </trkpt>
      <trkpt lat="44.28324" lon="3.22112">
        <ele>721.5</ele>
        <time>2017-02-17T14:38:20Z</time>
      </trkpt>
      <trkpt lat="44.28326" lon="3.2211">
        <ele>721.7</ele>
        <time>2017-02-17T14:38:22Z</time>
      </trkpt>
      <trkpt lat="44.28328" lon="3.22107">
        <ele>721.9</ele>
        <time>2017-02-17T14:38:25Z</time>
      </trkpt>
      <trkpt lat="44.2833" lon="3.22104">
        <ele>722.1</ele>
        <time>2017-02-17T14:38:27Z</time>
      </trkpt>
      <trkpt lat="44.28332" lon="3.22101">
        <ele>722.2</ele>
        <time>2017-02-17T14:38:29Z</time>
      </trkpt>
      <trkpt lat="44.28335" lon="3.22095">
        <ele>722.7</ele>
        <time>2017-02-17T14:38:31Z</time>
      </trkpt>
      <trkpt lat="44.28338" lon="3.22091">
        <ele>722.9</ele>
        <time>2017-02-17T14:38:33Z</time>
      </trkpt>
      <trkpt lat="44.28341" lon="3.22084">
        <ele>723.3</ele>
        <time>2017-02-17T14:38:35Z</time>
      </trkpt>
      <trkpt lat="44.28343" lon="3.2208">
        <ele>723.5</ele>
        <time>2017-02-17T14:38:37Z</time>
      </trkpt>
      <trkpt lat="44.28344" lon="3.22075">
        <ele>723.7</ele>
        <time>2017-02-17T14:38:39Z</time>
      </trkpt>
      <trkpt lat="44.28346" lon="3.2207">
        <ele>724</ele>
        <time>2017-02-17T14:38:41Z</time>
      </trkpt>
      <trkpt lat="44.28346" lon="3.22065">
        <ele>724.2</ele>
        <time>2017-02-17T14:38:43Z</time>
      </trkpt>
      <trkpt lat="44.28345" lon="3.22061">
        <ele>724.4</ele>
        <time>2017-02-17T14:38:45Z</time>
      </trkpt>
      <trkpt lat="44.28343" lon="3.22058">
        <ele>724.6</ele>
        <time>2017-02-17T14:38:47Z</time>
      </trkpt>
      <trkpt lat="44.28339" lon="3.22055">
        <ele>724.9</ele>
        <time>2017-02-17T14:38:50Z</time>
      </trkpt>
      <trkpt lat="44.28336" lon="3.22055">
        <ele>725</ele>
        <time>2017-02-17T14:38:52Z</time>
      </trkpt>
      <trkpt lat="44.28333" lon="3.22057">
        <ele>724.9</ele>
        <time>2017-02-17T14:38:54Z</time>
      </trkpt>
      <trkpt lat="44.28332" lon="3.22061">
        <ele>724.8</ele>
        <time>2017-02-17T14:38:57Z</time>
      </trkpt>
      <trkpt lat="44.2833" lon="3.22065">
        <ele>724.8</ele>
        <time>2017-02-17T14:38:59Z</time>
      </trkpt>
      <trkpt lat="44.28327" lon="3.2207">
        <ele>724.8</ele>
        <time>2017-02-17T14:39:01Z</time>
      </trkpt>
      <trkpt lat="44.28325" lon="3.22074">
        <ele>724.8</ele>
        <time>2017-02-17T14:39:03Z</time>
      </trkpt>
      <trkpt lat="44.28322" lon="3.22079">
        <ele>724.8</ele>
        <time>2017-02-17T14:39:05Z</time>
      </trkpt>
      <trkpt lat="44.28319" lon="3.22082">
        <ele>724.9</ele>
        <time>2017-02-17T14:39:07Z</time>
      </trkpt>
      <trkpt lat="44.28316" lon="3.22086">
        <ele>724.9</ele>
        <time>2017-02-17T14:39:09Z</time>
      </trkpt>
      <trkpt lat="44.28311" lon="3.22092">
        <ele>725</ele>
        <time>2017-02-17T14:39:13Z</time>
      </trkpt>
      <trkpt lat="44.28309" lon="3.22095">
        <ele>725</ele>
        <time>2017-02-17T14:39:14Z</time>
      </trkpt>
      <trkpt lat="44.28306" lon="3.22098">
        <ele>725.1</ele>
        <time>2017-02-17T14:39:15Z</time>
      </trkpt>
      <trkpt lat="44.28303" lon="3.221">
        <ele>725.1</ele>
        <time>2017-02-17T14:39:16Z</time>
      </trkpt>
      <trkpt lat="44.28299" lon="3.22104">
        <ele>725.2</ele>
        <time>2017-02-17T14:39:18Z</time>
      </trkpt>
      <trkpt lat="44.28295" lon="3.22106">
        <ele>725.2</ele>
        <time>2017-02-17T14:39:20Z</time>
      </trkpt>
      <trkpt lat="44.28292" lon="3.22108">
        <ele>725.3</ele>
        <time>2017-02-17T14:39:22Z</time>
      </trkpt>
      <trkpt lat="44.28289" lon="3.2211">
        <ele>725.3</ele>
        <time>2017-02-17T14:39:24Z</time>
      </trkpt>
      <trkpt lat="44.28284" lon="3.22111">
        <ele>725.3</ele>
        <time>2017-02-17T14:39:26Z</time>
      </trkpt>
      <trkpt lat="44.28281" lon="3.22113">
        <ele>725.4</ele>
        <time>2017-02-17T14:39:28Z</time>
      </trkpt>
      <trkpt lat="44.28278" lon="3.22116">
        <ele>725.4</ele>
        <time>2017-02-17T14:39:30Z</time>
      </trkpt>
      <trkpt lat="44.28276" lon="3.2212">
        <ele>725.5</ele>
        <time>2017-02-17T14:39:32Z</time>
      </trkpt>
      <trkpt lat="44.28272" lon="3.22125">
        <ele>725.6</ele>
        <time>2017-02-17T14:39:36Z</time>
      </trkpt>
      <trkpt lat="44.2827" lon="3.22128">
        <ele>725.6</ele>
        <time>2017-02-17T14:39:38Z</time>
      </trkpt>
      <trkpt lat="44.28266" lon="3.2213">
        <ele>725.7</ele>
        <time>2017-02-17T14:39:40Z</time>
      </trkpt>
      <trkpt lat="44.28257" lon="3.22133">
        <ele>725.8</ele>
        <time>2017-02-17T14:39:43Z</time>
      </trkpt>
      <trkpt lat="44.28253" lon="3.22134">
        <ele>725.9</ele>
        <time>2017-02-17T14:39:45Z</time>
      </trkpt>
      <trkpt lat="44.28246" lon="3.22135">
        <ele>726</ele>
        <time>2017-02-17T14:39:47Z</time>
      </trkpt>
      <trkpt lat="44.28244" lon="3.22135">
        <ele>726</ele>
        <time>2017-02-17T14:39:48Z</time>
      </trkpt>
      <trkpt lat="44.2824" lon="3.22135">
        <ele>726.1</ele>
        <time>2017-02-17T14:39:50Z</time>
      </trkpt>
      <trkpt lat="44.28235" lon="3.22136">
        <ele>726.2</ele>
        <time>2017-02-17T14:39:52Z</time>
      </trkpt>
      <trkpt lat="44.28232" lon="3.22136">
        <ele>726.3</ele>
        <time>2017-02-17T14:39:53Z</time>
      </trkpt>
      <trkpt lat="44.28212" lon="3.22132">
        <ele>726.9</ele>
        <time>2017-02-17T14:40:03Z</time>
      </trkpt>
      <trkpt lat="44.28207" lon="3.22133">
        <ele>727</ele>
        <time>2017-02-17T14:40:04Z</time>
      </trkpt>
      <trkpt lat="44.28203" lon="3.22133">
        <ele>727.2</ele>
        <time>2017-02-17T14:40:06Z</time>
      </trkpt>
      <trkpt lat="44.282" lon="3.22134">
        <ele>727.3</ele>
        <time>2017-02-17T14:40:07Z</time>
      </trkpt>
      <trkpt lat="44.28197" lon="3.22134">
        <ele>727.3</ele>
        <time>2017-02-17T14:40:08Z</time>
      </trkpt>
      <trkpt lat="44.28193" lon="3.22134">
        <ele>727.5</ele>
        <time>2017-02-17T14:40:10Z</time>
      </trkpt>
      <trkpt lat="44.28189" lon="3.22133">
        <ele>727.6</ele>
        <time>2017-02-17T14:40:12Z</time>
      </trkpt>
      <trkpt lat="44.28185" lon="3.22132">
        <ele>727.7</ele>
        <time>2017-02-17T14:40:13Z</time>
      </trkpt>
      <trkpt lat="44.28182" lon="3.22131">
        <ele>727.8</ele>
        <time>2017-02-17T14:40:14Z</time>
      </trkpt>
      <trkpt lat="44.28178" lon="3.22131">
        <ele>727.9</ele>
        <time>2017-02-17T14:40:16Z</time>
      </trkpt>
      <trkpt lat="44.28174" lon="3.22131">
        <ele>728</ele>
        <time>2017-02-17T14:40:18Z</time>
      </trkpt>
      <trkpt lat="44.28171" lon="3.22131">
        <ele>728.1</ele>
        <time>2017-02-17T14:40:20Z</time>
      </trkpt>
      <trkpt lat="44.28168" lon="3.22129">
        <ele>728.2</ele>
        <time>2017-02-17T14:40:22Z</time>
      </trkpt>
      <trkpt lat="44.28163" lon="3.22129">
        <ele>728.3</ele>
        <time>2017-02-17T14:40:25Z</time>
      </trkpt>
      <trkpt lat="44.2816" lon="3.22131">
        <ele>728.3</ele>
        <time>2017-02-17T14:40:27Z</time>
      </trkpt>
      <trkpt lat="44.28158" lon="3.22129">
        <ele>728.4</ele>
        <time>2017-02-17T14:40:32Z</time>
      </trkpt>
      <trkpt lat="44.28154" lon="3.22126">
        <ele>728.5</ele>
        <time>2017-02-17T14:40:34Z</time>
      </trkpt>
      <trkpt lat="44.28151" lon="3.22128">
        <ele>728.5</ele>
        <time>2017-02-17T14:40:36Z</time>
      </trkpt>
      <trkpt lat="44.28139" lon="3.22123">
        <ele>728.8</ele>
        <time>2017-02-17T14:40:43Z</time>
      </trkpt>
      <trkpt lat="44.28136" lon="3.22123">
        <ele>728.9</ele>
        <time>2017-02-17T14:40:46Z</time>
      </trkpt>
      <trkpt lat="44.28132" lon="3.22123">
        <ele>729</ele>
        <time>2017-02-17T14:40:48Z</time>
      </trkpt>
      <trkpt lat="44.28129" lon="3.22122">
        <ele>729.1</ele>
        <time>2017-02-17T14:40:49Z</time>
      </trkpt>
      <trkpt lat="44.28124" lon="3.22121">
        <ele>729.2</ele>
        <time>2017-02-17T14:40:50Z</time>
      </trkpt>
      <trkpt lat="44.28121" lon="3.2212">
        <ele>729.3</ele>
        <time>2017-02-17T14:40:51Z</time>
      </trkpt>
      <trkpt lat="44.28118" lon="3.22119">
        <ele>729.4</ele>
        <time>2017-02-17T14:40:52Z</time>
      </trkpt>
      <trkpt lat="44.28116" lon="3.22118">
        <ele>729.4</ele>
        <time>2017-02-17T14:40:53Z</time>
      </trkpt>
      <trkpt lat="44.28113" lon="3.22117">
        <ele>729.5</ele>
        <time>2017-02-17T14:40:54Z</time>
      </trkpt>
      <trkpt lat="44.28108" lon="3.22115">
        <ele>729.6</ele>
        <time>2017-02-17T14:40:56Z</time>
      </trkpt>
      <trkpt lat="44.28103" lon="3.22112">
        <ele>729.7</ele>
        <time>2017-02-17T14:40:58Z</time>
      </trkpt>
      <trkpt lat="44.281" lon="3.22111">
        <ele>729.7</ele>
        <time>2017-02-17T14:40:59Z</time>
      </trkpt>
      <trkpt lat="44.28097" lon="3.22109">
        <ele>729.8</ele>
        <time>2017-02-17T14:41:00Z</time>
      </trkpt>
      <trkpt lat="44.28094" lon="3.22108">
        <ele>729.8</ele>
        <time>2017-02-17T14:41:01Z</time>
      </trkpt>
      <trkpt lat="44.28091" lon="3.22107">
        <ele>729.9</ele>
        <time>2017-02-17T14:41:02Z</time>
      </trkpt>
      <trkpt lat="44.28088" lon="3.22105">
        <ele>729.9</ele>
        <time>2017-02-17T14:41:03Z</time>
      </trkpt>
      <trkpt lat="44.28086" lon="3.22103">
        <ele>730</ele>
        <time>2017-02-17T14:41:04Z</time>
      </trkpt>
      <trkpt lat="44.28083" lon="3.22101">
        <ele>730.5</ele>
        <time>2017-02-17T14:41:05Z</time>
      </trkpt>
      <trkpt lat="44.28077" lon="3.221">
        <ele>731.2</ele>
        <time>2017-02-17T14:41:07Z</time>
      </trkpt>
      <trkpt lat="44.28074" lon="3.22097">
        <ele>731.6</ele>
        <time>2017-02-17T14:41:09Z</time>
      </trkpt>
      <trkpt lat="44.2807" lon="3.22094">
        <ele>732.1</ele>
        <time>2017-02-17T14:41:12Z</time>
      </trkpt>
      <trkpt lat="44.28067" lon="3.22092">
        <ele>732.5</ele>
        <time>2017-02-17T14:41:14Z</time>
      </trkpt>
      <trkpt lat="44.28064" lon="3.2209">
        <ele>732.8</ele>
        <time>2017-02-17T14:41:16Z</time>
      </trkpt>
      <trkpt lat="44.28061" lon="3.22088">
        <ele>733.2</ele>
        <time>2017-02-17T14:41:18Z</time>
      </trkpt>
      <trkpt lat="44.28058" lon="3.22086">
        <ele>733.5</ele>
        <time>2017-02-17T14:41:20Z</time>
      </trkpt>
      <trkpt lat="44.28055" lon="3.22084">
        <ele>733.9</ele>
        <time>2017-02-17T14:41:22Z</time>
      </trkpt>
      <trkpt lat="44.28052" lon="3.22082">
        <ele>734.2</ele>
        <time>2017-02-17T14:41:24Z</time>
      </trkpt>
      <trkpt lat="44.28048" lon="3.2208">
        <ele>734.7</ele>
        <time>2017-02-17T14:41:26Z</time>
      </trkpt>
      <trkpt lat="44.28044" lon="3.22078">
        <ele>735.1</ele>
        <time>2017-02-17T14:41:28Z</time>
      </trkpt>
      <trkpt lat="44.28041" lon="3.22075">
        <ele>735.4</ele>
        <time>2017-02-17T14:41:30Z</time>
      </trkpt>
      <trkpt lat="44.28038" lon="3.22074">
        <ele>735.7</ele>
        <time>2017-02-17T14:41:32Z</time>
      </trkpt>
      <trkpt lat="44.28035" lon="3.22071">
        <ele>736.1</ele>
        <time>2017-02-17T14:41:34Z</time>
      </trkpt>
      <trkpt lat="44.28031" lon="3.22069">
        <ele>736.5</ele>
        <time>2017-02-17T14:41:36Z</time>
      </trkpt>
      <trkpt lat="44.28027" lon="3.22067">
        <ele>737</ele>
        <time>2017-02-17T14:41:38Z</time>
      </trkpt>
      <trkpt lat="44.28024" lon="3.22065">
        <ele>737.3</ele>
        <time>2017-02-17T14:41:40Z</time>
      </trkpt>
      <trkpt lat="44.28019" lon="3.22063">
        <ele>737.8</ele>
        <time>2017-02-17T14:41:42Z</time>
      </trkpt>
      <trkpt lat="44.28015" lon="3.22061">
        <ele>738.3</ele>
        <time>2017-02-17T14:41:44Z</time>
      </trkpt>
      <trkpt lat="44.28011" lon="3.22058">
        <ele>738.8</ele>
        <time>2017-02-17T14:41:46Z</time>
      </trkpt>
      <trkpt lat="44.28007" lon="3.22056">
        <ele>739.4</ele>
        <time>2017-02-17T14:41:48Z</time>
      </trkpt>
      <trkpt lat="44.28002" lon="3.22055">
        <ele>740</ele>
        <time>2017-02-17T14:41:50Z</time>
      </trkpt>
      <trkpt lat="44.27999" lon="3.22054">
        <ele>740.3</ele>
        <time>2017-02-17T14:41:51Z</time>
      </trkpt>
      <trkpt lat="44.27996" lon="3.22053">
        <ele>740.6</ele>
        <time>2017-02-17T14:41:52Z</time>
      </trkpt>
      <trkpt lat="44.27993" lon="3.22052">
        <ele>740.9</ele>
        <time>2017-02-17T14:41:53Z</time>
      </trkpt>
      <trkpt lat="44.27991" lon="3.22051">
        <ele>741.2</ele>
        <time>2017-02-17T14:41:54Z</time>
      </trkpt>
      <trkpt lat="44.27988" lon="3.2205">
        <ele>741.5</ele>
        <time>2017-02-17T14:41:55Z</time>
      </trkpt>
      <trkpt lat="44.27985" lon="3.22049">
        <ele>741.8</ele>
        <time>2017-02-17T14:41:56Z</time>
      </trkpt>
      <trkpt lat="44.27982" lon="3.22048">
        <ele>742.1</ele>
        <time>2017-02-17T14:41:57Z</time>
      </trkpt>
      <trkpt lat="44.27978" lon="3.22046">
        <ele>742.6</ele>
        <time>2017-02-17T14:41:59Z</time>
      </trkpt>
      <trkpt lat="44.27974" lon="3.22044">
        <ele>743.1</ele>
        <time>2017-02-17T14:42:01Z</time>
      </trkpt>
      <trkpt lat="44.27971" lon="3.22043">
        <ele>743.4</ele>
        <time>2017-02-17T14:42:03Z</time>
      </trkpt>
      <trkpt lat="44.27968" lon="3.22042">
        <ele>743.8</ele>
        <time>2017-02-17T14:42:05Z</time>
      </trkpt>
      <trkpt lat="44.27965" lon="3.22041">
        <ele>744.1</ele>
        <time>2017-02-17T14:42:07Z</time>
      </trkpt>
      <trkpt lat="44.27961" lon="3.22039">
        <ele>744.5</ele>
        <time>2017-02-17T14:42:09Z</time>
      </trkpt>
      <trkpt lat="44.27958" lon="3.22037">
        <ele>744.9</ele>
        <time>2017-02-17T14:42:11Z</time>
      </trkpt>
      <trkpt lat="44.27954" lon="3.22035">
        <ele>745.4</ele>
        <time>2017-02-17T14:42:13Z</time>
      </trkpt>
      <trkpt lat="44.27951" lon="3.22035">
        <ele>745.7</ele>
        <time>2017-02-17T14:42:15Z</time>
      </trkpt>
      <trkpt lat="44.27947" lon="3.22033">
        <ele>746.2</ele>
        <time>2017-02-17T14:42:18Z</time>
      </trkpt>
      <trkpt lat="44.27944" lon="3.22032">
        <ele>746.6</ele>
        <time>2017-02-17T14:42:20Z</time>
      </trkpt>
      <trkpt lat="44.27939" lon="3.2203">
        <ele>747.3</ele>
        <time>2017-02-17T14:42:22Z</time>
      </trkpt>
      <trkpt lat="44.27935" lon="3.22029">
        <ele>747.7</ele>
        <time>2017-02-17T14:42:24Z</time>
      </trkpt>
      <trkpt lat="44.27931" lon="3.22028">
        <ele>748.2</ele>
        <time>2017-02-17T14:42:26Z</time>
      </trkpt>
      <trkpt lat="44.27926" lon="3.22027">
        <ele>748.8</ele>
        <time>2017-02-17T14:42:28Z</time>
      </trkpt>
      <trkpt lat="44.27921" lon="3.22025">
        <ele>749.3</ele>
        <time>2017-02-17T14:42:30Z</time>
      </trkpt>
      <trkpt lat="44.27917" lon="3.22023">
        <ele>749.8</ele>
        <time>2017-02-17T14:42:32Z</time>
      </trkpt>
      <trkpt lat="44.27914" lon="3.22022">
        <ele>750.2</ele>
        <time>2017-02-17T14:42:34Z</time>
      </trkpt>
      <trkpt lat="44.2791" lon="3.22021">
        <ele>750.5</ele>
        <time>2017-02-17T14:42:36Z</time>
      </trkpt>
      <trkpt lat="44.27906" lon="3.2202">
        <ele>750.9</ele>
        <time>2017-02-17T14:42:38Z</time>
      </trkpt>
      <trkpt lat="44.27902" lon="3.22019">
        <ele>751.4</ele>
        <time>2017-02-17T14:42:41Z</time>
      </trkpt>
      <trkpt lat="44.27898" lon="3.22019">
        <ele>751.8</ele>
        <time>2017-02-17T14:42:43Z</time>
      </trkpt>
      <trkpt lat="44.27895" lon="3.22017">
        <ele>752.1</ele>
        <time>2017-02-17T14:42:45Z</time>
      </trkpt>
      <trkpt lat="44.27893" lon="3.22016">
        <ele>752.4</ele>
        <time>2017-02-17T14:42:47Z</time>
      </trkpt>
      <trkpt lat="44.27889" lon="3.22015">
        <ele>752.8</ele>
        <time>2017-02-17T14:42:49Z</time>
      </trkpt>
      <trkpt lat="44.27885" lon="3.22014">
        <ele>753.3</ele>
        <time>2017-02-17T14:42:51Z</time>
      </trkpt>
      <trkpt lat="44.27881" lon="3.22013">
        <ele>753.8</ele>
        <time>2017-02-17T14:42:53Z</time>
      </trkpt>
      <trkpt lat="44.27877" lon="3.22012">
        <ele>754.3</ele>
        <time>2017-02-17T14:42:55Z</time>
      </trkpt>
      <trkpt lat="44.27873" lon="3.22011">
        <ele>754.7</ele>
        <time>2017-02-17T14:42:57Z</time>
      </trkpt>
      <trkpt lat="44.27868" lon="3.2201">
        <ele>755.3</ele>
        <time>2017-02-17T14:42:59Z</time>
      </trkpt>
      <trkpt lat="44.27863" lon="3.22009">
        <ele>755.8</ele>
        <time>2017-02-17T14:43:01Z</time>
      </trkpt>
      <trkpt lat="44.2786" lon="3.22008">
        <ele>756.2</ele>
        <time>2017-02-17T14:43:04Z</time>
      </trkpt>
      <trkpt lat="44.27856" lon="3.22007">
        <ele>756.6</ele>
        <time>2017-02-17T14:43:06Z</time>
      </trkpt>
      <trkpt lat="44.27853" lon="3.22005">
        <ele>757</ele>
        <time>2017-02-17T14:43:08Z</time>
      </trkpt>
      <trkpt lat="44.2785" lon="3.22004">
        <ele>757.3</ele>
        <time>2017-02-17T14:43:10Z</time>
      </trkpt>
      <trkpt lat="44.27847" lon="3.22004">
        <ele>757.7</ele>
        <time>2017-02-17T14:43:12Z</time>
      </trkpt>
      <trkpt lat="44.27841" lon="3.22003">
        <ele>758.4</ele>
        <time>2017-02-17T14:43:14Z</time>
      </trkpt>
      <trkpt lat="44.27838" lon="3.22002">
        <ele>758.7</ele>
        <time>2017-02-17T14:43:15Z</time>
      </trkpt>
      <trkpt lat="44.27813" lon="3.21998">
        <ele>761.6</ele>
        <time>2017-02-17T14:43:25Z</time>
      </trkpt>
      <trkpt lat="44.27792" lon="3.21997">
        <ele>755.2</ele>
      </trkpt>
      <trkpt lat="44.27775" lon="3.21999">
        <ele>755.3</ele>
      </trkpt>
      <trkpt lat="44.27762" lon="3.21999">
        <ele>755.7</ele>
      </trkpt>
      <trkpt lat="44.27753" lon="3.21993">
        <ele>756.3</ele>
      </trkpt>
      <trkpt lat="44.27753" lon="3.21986">
        <ele>756.7</ele>
      </trkpt>
      <trkpt lat="44.27756" lon="3.2198">
        <ele>757.2</ele>
      </trkpt>
      <trkpt lat="44.27764" lon="3.2198">
        <ele>758</ele>
      </trkpt>
      <trkpt lat="44.27784" lon="3.21988">
        <ele>758.2</ele>
      </trkpt>
      <trkpt lat="44.27818" lon="3.2199">
        <ele>758.4</ele>
      </trkpt>
      <trkpt lat="44.2786" lon="3.2198">
        <ele>762.3</ele>
      </trkpt>
      <trkpt lat="44.2789" lon="3.21982">
        <ele>764.2</ele>
      </trkpt>
      <trkpt lat="44.2795" lon="3.21983">
        <ele>768</ele>
      </trkpt>
      <trkpt lat="44.28016" lon="3.21985">
        <ele>771.7</ele>
      </trkpt>
      <trkpt lat="44.28037" lon="3.21983">
        <ele>773.4</ele>
      </trkpt>
      <trkpt lat="44.28066" lon="3.21978">
        <ele>775.5</ele>
      </trkpt>
      <trkpt lat="44.28094" lon="3.2197">
        <ele>777.6</ele>
      </trkpt>
      <trkpt lat="44.28154" lon="3.21956">
        <ele>780</ele>
      </trkpt>
      <trkpt lat="44.28178" lon="3.21948">
        <ele>783.3</ele>
      </trkpt>
      <trkpt lat="44.28202" lon="3.21949">
        <ele>781.1</ele>
      </trkpt>
      <trkpt lat="44.28228" lon="3.2194">
        <ele>781.2</ele>
      </trkpt>
      <trkpt lat="44.28245" lon="3.21926">
        <ele>782.6</ele>
      </trkpt>
      <trkpt lat="44.28263" lon="3.21899">
        <ele>784</ele>
      </trkpt>
      <trkpt lat="44.28277" lon="3.21875">
        <ele>785</ele>
      </trkpt>
      <trkpt lat="44.28279" lon="3.21862">
        <ele>787</ele>
      </trkpt>
      <trkpt lat="44.28278" lon="3.21853">
        <ele>789.3</ele>
      </trkpt>
      <trkpt lat="44.28272" lon="3.21849">
        <ele>793.1</ele>
      </trkpt>
      <trkpt lat="44.28266" lon="3.21853">
        <ele>795.2</ele>
      </trkpt>
      <trkpt lat="44.2826" lon="3.21866">
        <ele>794.2</ele>
      </trkpt>
      <trkpt lat="44.28255" lon="3.21885">
        <ele>790.5</ele>
      </trkpt>
      <trkpt lat="44.28244" lon="3.21903">
        <ele>790.3</ele>
      </trkpt>
      <trkpt lat="44.28231" lon="3.21912">
        <ele>791.6</ele>
      </trkpt>
      <trkpt lat="44.28216" lon="3.21919">
        <ele>792.1</ele>
      </trkpt>
      <trkpt lat="44.28199" lon="3.21923">
        <ele>793</ele>
      </trkpt>
      <trkpt lat="44.28137" lon="3.21928">
        <ele>798.4</ele>
      </trkpt>
      <trkpt lat="44.28072" lon="3.21932">
        <ele>804.3</ele>
      </trkpt>
      <trkpt lat="44.28051" lon="3.21933">
        <ele>804.5</ele>
      </trkpt>
      <trkpt lat="44.28027" lon="3.21927">
        <ele>806.3</ele>
      </trkpt>
      <trkpt lat="44.27995" lon="3.21916">
        <ele>807.6</ele>
      </trkpt>
      <trkpt lat="44.27969" lon="3.21908">
        <ele>810.5</ele>
      </trkpt>
      <trkpt lat="44.27949" lon="3.21899">
        <ele>810.4</ele>
      </trkpt>
      <trkpt lat="44.27887" lon="3.21867">
        <ele>815.3</ele>
      </trkpt>
      <trkpt lat="44.27864" lon="3.21859">
        <ele>818.7</ele>
      </trkpt>
      <trkpt lat="44.27835" lon="3.21859">
        <ele>819.9</ele>
      </trkpt>
      <trkpt lat="44.27796" lon="3.21861">
        <ele>822.6</ele>
      </trkpt>
      <trkpt lat="44.27748" lon="3.21859">
        <ele>826.1</ele>
      </trkpt>
      <trkpt lat="44.2772" lon="3.21849">
        <ele>838</ele>
        <time>2017-02-17T14:52:45Z</time>
      </trkpt>
      <trkpt lat="44.27716" lon="3.21846">
        <ele>838.2</ele>
        <time>2017-02-17T14:52:47Z</time>
      </trkpt>
      <trkpt lat="44.27713" lon="3.21842">
        <ele>838.4</ele>
        <time>2017-02-17T14:52:49Z</time>
      </trkpt>
      <trkpt lat="44.2771" lon="3.21839">
        <ele>838.7</ele>
        <time>2017-02-17T14:52:51Z</time>
      </trkpt>
      <trkpt lat="44.27706" lon="3.21836">
        <ele>838.9</ele>
        <time>2017-02-17T14:52:53Z</time>
      </trkpt>
      <trkpt lat="44.27702" lon="3.21834">
        <ele>839</ele>
        <time>2017-02-17T14:52:55Z</time>
      </trkpt>
      <trkpt lat="44.27699" lon="3.21832">
        <ele>839.2</ele>
        <time>2017-02-17T14:52:57Z</time>
      </trkpt>
      <trkpt lat="44.27696" lon="3.21829">
        <ele>839.3</ele>
        <time>2017-02-17T14:52:59Z</time>
      </trkpt>
      <trkpt lat="44.27693" lon="3.21825">
        <ele>839.5</ele>
        <time>2017-02-17T14:53:01Z</time>
      </trkpt>
      <trkpt lat="44.2769" lon="3.21821">
        <ele>839.7</ele>
        <time>2017-02-17T14:53:03Z</time>
      </trkpt>
      <trkpt lat="44.27687" lon="3.21819">
        <ele>839.9</ele>
        <time>2017-02-17T14:53:05Z</time>
      </trkpt>
      <trkpt lat="44.27684" lon="3.21816">
        <ele>840</ele>
        <time>2017-02-17T14:53:08Z</time>
      </trkpt>
      <trkpt lat="44.27681" lon="3.21814">
        <ele>840.1</ele>
        <time>2017-02-17T14:53:10Z</time>
      </trkpt>
      <trkpt lat="44.27671" lon="3.21812">
        <ele>840.6</ele>
        <time>2017-02-17T14:53:16Z</time>
      </trkpt>
      <trkpt lat="44.27669" lon="3.2181">
        <ele>840.7</ele>
        <time>2017-02-17T14:53:18Z</time>
      </trkpt>
      <trkpt lat="44.27666" lon="3.21807">
        <ele>840.8</ele>
        <time>2017-02-17T14:53:20Z</time>
      </trkpt>
      <trkpt lat="44.27665" lon="3.21803">
        <ele>840.9</ele>
        <time>2017-02-17T14:53:22Z</time>
      </trkpt>
      <trkpt lat="44.27663" lon="3.218">
        <ele>841</ele>
        <time>2017-02-17T14:53:24Z</time>
      </trkpt>
      <trkpt lat="44.2766" lon="3.21797">
        <ele>841.1</ele>
        <time>2017-02-17T14:53:26Z</time>
      </trkpt>
      <trkpt lat="44.27657" lon="3.21793">
        <ele>841.3</ele>
        <time>2017-02-17T14:53:28Z</time>
      </trkpt>
      <trkpt lat="44.27654" lon="3.2179">
        <ele>841.4</ele>
        <time>2017-02-17T14:53:30Z</time>
      </trkpt>
      <trkpt lat="44.27651" lon="3.21787">
        <ele>841.6</ele>
        <time>2017-02-17T14:53:33Z</time>
      </trkpt>
      <trkpt lat="44.27649" lon="3.21783">
        <ele>841.7</ele>
        <time>2017-02-17T14:53:35Z</time>
      </trkpt>
      <trkpt lat="44.27646" lon="3.21778">
        <ele>841.9</ele>
        <time>2017-02-17T14:53:37Z</time>
      </trkpt>
      <trkpt lat="44.27642" lon="3.21775">
        <ele>842.1</ele>
        <time>2017-02-17T14:53:39Z</time>
      </trkpt>
      <trkpt lat="44.27638" lon="3.21773">
        <ele>842.2</ele>
        <time>2017-02-17T14:53:41Z</time>
      </trkpt>
      <trkpt lat="44.27635" lon="3.2177">
        <ele>842.4</ele>
        <time>2017-02-17T14:53:43Z</time>
      </trkpt>
      <trkpt lat="44.2763" lon="3.21766">
        <ele>842.6</ele>
        <time>2017-02-17T14:53:45Z</time>
      </trkpt>
      <trkpt lat="44.27627" lon="3.21764">
        <ele>842.7</ele>
        <time>2017-02-17T14:53:47Z</time>
      </trkpt>
      <trkpt lat="44.27624" lon="3.21761">
        <ele>842.9</ele>
        <time>2017-02-17T14:53:49Z</time>
      </trkpt>
      <trkpt lat="44.2762" lon="3.21758">
        <ele>843</ele>
        <time>2017-02-17T14:53:51Z</time>
      </trkpt>
      <trkpt lat="44.27618" lon="3.21755">
        <ele>843.2</ele>
        <time>2017-02-17T14:53:53Z</time>
      </trkpt>
      <trkpt lat="44.27615" lon="3.21752">
        <ele>843.3</ele>
        <time>2017-02-17T14:53:55Z</time>
      </trkpt>
      <trkpt lat="44.27612" lon="3.21748">
        <ele>843.5</ele>
        <time>2017-02-17T14:53:57Z</time>
      </trkpt>
      <trkpt lat="44.2761" lon="3.21745">
        <ele>843.6</ele>
        <time>2017-02-17T14:53:59Z</time>
      </trkpt>
      <trkpt lat="44.27607" lon="3.21741">
        <ele>843.8</ele>
        <time>2017-02-17T14:54:01Z</time>
      </trkpt>
      <trkpt lat="44.27605" lon="3.21737">
        <ele>844</ele>
        <time>2017-02-17T14:54:03Z</time>
      </trkpt>
      <trkpt lat="44.27603" lon="3.21732">
        <ele>844.2</ele>
        <time>2017-02-17T14:54:05Z</time>
      </trkpt>
      <trkpt lat="44.276" lon="3.21728">
        <ele>844.4</ele>
        <time>2017-02-17T14:54:07Z</time>
      </trkpt>
      <trkpt lat="44.27598" lon="3.21724">
        <ele>844.6</ele>
        <time>2017-02-17T14:54:09Z</time>
      </trkpt>
      <trkpt lat="44.27596" lon="3.2172">
        <ele>844.8</ele>
        <time>2017-02-17T14:54:11Z</time>
      </trkpt>
      <trkpt lat="44.27593" lon="3.21716">
        <ele>844.9</ele>
        <time>2017-02-17T14:54:13Z</time>
      </trkpt>
      <trkpt lat="44.2759" lon="3.21713">
        <ele>845.1</ele>
        <time>2017-02-17T14:54:15Z</time>
      </trkpt>
      <trkpt lat="44.27588" lon="3.21709">
        <ele>845.2</ele>
        <time>2017-02-17T14:54:17Z</time>
      </trkpt>
      <trkpt lat="44.27585" lon="3.21705">
        <ele>845.4</ele>
        <time>2017-02-17T14:54:19Z</time>
      </trkpt>
      <trkpt lat="44.27583" lon="3.21702">
        <ele>845.5</ele>
        <time>2017-02-17T14:54:21Z</time>
      </trkpt>
      <trkpt lat="44.2758" lon="3.21698">
        <ele>845.7</ele>
        <time>2017-02-17T14:54:23Z</time>
      </trkpt>
      <trkpt lat="44.27577" lon="3.21694">
        <ele>845.8</ele>
        <time>2017-02-17T14:54:25Z</time>
      </trkpt>
      <trkpt lat="44.27574" lon="3.2169">
        <ele>846</ele>
        <time>2017-02-17T14:54:27Z</time>
      </trkpt>
      <trkpt lat="44.27571" lon="3.21687">
        <ele>846.2</ele>
        <time>2017-02-17T14:54:29Z</time>
      </trkpt>
      <trkpt lat="44.27567" lon="3.21685">
        <ele>846.5</ele>
        <time>2017-02-17T14:54:31Z</time>
      </trkpt>
      <trkpt lat="44.27563" lon="3.21682">
        <ele>846.6</ele>
        <time>2017-02-17T14:54:33Z</time>
      </trkpt>
      <trkpt lat="44.2756" lon="3.21679">
        <ele>846.8</ele>
        <time>2017-02-17T14:54:35Z</time>
      </trkpt>
      <trkpt lat="44.27557" lon="3.21678">
        <ele>847</ele>
        <time>2017-02-17T14:54:37Z</time>
      </trkpt>
      <trkpt lat="44.27553" lon="3.21675">
        <ele>847.2</ele>
        <time>2017-02-17T14:54:39Z</time>
      </trkpt>
      <trkpt lat="44.2755" lon="3.21673">
        <ele>847.3</ele>
        <time>2017-02-17T14:54:40Z</time>
      </trkpt>
      <trkpt lat="44.27547" lon="3.21672">
        <ele>847.5</ele>
        <time>2017-02-17T14:54:42Z</time>
      </trkpt>
      <trkpt lat="44.27541" lon="3.21669">
        <ele>847.9</ele>
        <time>2017-02-17T14:54:45Z</time>
      </trkpt>
      <trkpt lat="44.27537" lon="3.21666">
        <ele>848.1</ele>
        <time>2017-02-17T14:54:47Z</time>
      </trkpt>
      <trkpt lat="44.27533" lon="3.21665">
        <ele>848.2</ele>
        <time>2017-02-17T14:54:49Z</time>
      </trkpt>
      <trkpt lat="44.27529" lon="3.21663">
        <ele>848.4</ele>
        <time>2017-02-17T14:54:51Z</time>
      </trkpt>
      <trkpt lat="44.27525" lon="3.21661">
        <ele>848.5</ele>
        <time>2017-02-17T14:54:53Z</time>
      </trkpt>
      <trkpt lat="44.27522" lon="3.21661">
        <ele>848.7</ele>
        <time>2017-02-17T14:54:55Z</time>
      </trkpt>
      <trkpt lat="44.27518" lon="3.2166">
        <ele>848.9</ele>
        <time>2017-02-17T14:54:57Z</time>
      </trkpt>
      <trkpt lat="44.27514" lon="3.21659">
        <ele>849</ele>
        <time>2017-02-17T14:54:59Z</time>
      </trkpt>
      <trkpt lat="44.2751" lon="3.21656">
        <ele>849.3</ele>
        <time>2017-02-17T14:55:01Z</time>
      </trkpt>
      <trkpt lat="44.27506" lon="3.21653">
        <ele>849.5</ele>
        <time>2017-02-17T14:55:03Z</time>
      </trkpt>
      <trkpt lat="44.27502" lon="3.2165">
        <ele>849.7</ele>
        <time>2017-02-17T14:55:05Z</time>
      </trkpt>
      <trkpt lat="44.27499" lon="3.21647">
        <ele>849.9</ele>
        <time>2017-02-17T14:55:07Z</time>
      </trkpt>
      <trkpt lat="44.27496" lon="3.21645">
        <ele>850.1</ele>
        <time>2017-02-17T14:55:09Z</time>
      </trkpt>
      <trkpt lat="44.27492" lon="3.21641">
        <ele>850.4</ele>
        <time>2017-02-17T14:55:11Z</time>
      </trkpt>
      <trkpt lat="44.27487" lon="3.21637">
        <ele>850.6</ele>
        <time>2017-02-17T14:55:13Z</time>
      </trkpt>
      <trkpt lat="44.27483" lon="3.21634">
        <ele>850.9</ele>
        <time>2017-02-17T14:55:15Z</time>
      </trkpt>
      <trkpt lat="44.27478" lon="3.21632">
        <ele>851.1</ele>
        <time>2017-02-17T14:55:17Z</time>
      </trkpt>
      <trkpt lat="44.27474" lon="3.2163">
        <ele>851.4</ele>
        <time>2017-02-17T14:55:19Z</time>
      </trkpt>
      <trkpt lat="44.2747" lon="3.21627">
        <ele>851.6</ele>
        <time>2017-02-17T14:55:21Z</time>
      </trkpt>
      <trkpt lat="44.27465" lon="3.21623">
        <ele>851.8</ele>
        <time>2017-02-17T14:55:23Z</time>
      </trkpt>
      <trkpt lat="44.27462" lon="3.21622">
        <ele>852</ele>
        <time>2017-02-17T14:55:25Z</time>
      </trkpt>
      <trkpt lat="44.27459" lon="3.21612">
        <ele>852.3</ele>
        <time>2017-02-17T14:55:30Z</time>
      </trkpt>
      <trkpt lat="44.27458" lon="3.21608">
        <ele>852.4</ele>
        <time>2017-02-17T14:55:31Z</time>
      </trkpt>
      <trkpt lat="44.27457" lon="3.21605">
        <ele>852.5</ele>
        <time>2017-02-17T14:55:32Z</time>
      </trkpt>
      <trkpt lat="44.27454" lon="3.21598">
        <ele>852.7</ele>
        <time>2017-02-17T14:55:34Z</time>
      </trkpt>
      <trkpt lat="44.27452" lon="3.21593">
        <ele>852.9</ele>
        <time>2017-02-17T14:55:36Z</time>
      </trkpt>
      <trkpt lat="44.27448" lon="3.2159">
        <ele>853.1</ele>
        <time>2017-02-17T14:55:38Z</time>
      </trkpt>
      <trkpt lat="44.27433" lon="3.21586">
        <ele>853.5</ele>
        <time>2017-02-17T14:55:50Z</time>
      </trkpt>
      <trkpt lat="44.27431" lon="3.21568">
        <ele>854</ele>
        <time>2017-02-17T14:55:56Z</time>
      </trkpt>
      <trkpt lat="44.27428" lon="3.21563">
        <ele>854.2</ele>
        <time>2017-02-17T14:55:58Z</time>
      </trkpt>
      <trkpt lat="44.27424" lon="3.21559">
        <ele>854.5</ele>
        <time>2017-02-17T14:56:00Z</time>
      </trkpt>
      <trkpt lat="44.2742" lon="3.21559">
        <ele>854.7</ele>
        <time>2017-02-17T14:56:02Z</time>
      </trkpt>
      <trkpt lat="44.27407" lon="3.21563">
        <ele>855.4</ele>
        <time>2017-02-17T14:56:10Z</time>
      </trkpt>
      <trkpt lat="44.27389" lon="3.2155">
        <ele>856.9</ele>
        <time>2017-02-17T14:59:00Z</time>
      </trkpt>
      <trkpt lat="44.27386" lon="3.2155">
        <ele>857.3</ele>
        <time>2017-02-17T14:59:02Z</time>
      </trkpt>
      <trkpt lat="44.27382" lon="3.21551">
        <ele>857.7</ele>
        <time>2017-02-17T14:59:04Z</time>
      </trkpt>
      <trkpt lat="44.27377" lon="3.21549">
        <ele>858.2</ele>
        <time>2017-02-17T14:59:06Z</time>
      </trkpt>
      <trkpt lat="44.27374" lon="3.21549">
        <ele>858.5</ele>
        <time>2017-02-17T14:59:07Z</time>
      </trkpt>
      <trkpt lat="44.27371" lon="3.21548">
        <ele>858.8</ele>
        <time>2017-02-17T14:59:08Z</time>
      </trkpt>
      <trkpt lat="44.27368" lon="3.21547">
        <ele>859.2</ele>
        <time>2017-02-17T14:59:09Z</time>
      </trkpt>
      <trkpt lat="44.27365" lon="3.21546">
        <ele>859.5</ele>
        <time>2017-02-17T14:59:10Z</time>
      </trkpt>
      <trkpt lat="44.27361" lon="3.21545">
        <ele>860</ele>
        <time>2017-02-17T14:59:12Z</time>
      </trkpt>
      <trkpt lat="44.27358" lon="3.21545">
        <ele>860.4</ele>
        <time>2017-02-17T14:59:14Z</time>
      </trkpt>
      <trkpt lat="44.27354" lon="3.21543">
        <ele>860.8</ele>
        <time>2017-02-17T14:59:16Z</time>
      </trkpt>
      <trkpt lat="44.27351" lon="3.21543">
        <ele>861.2</ele>
        <time>2017-02-17T14:59:17Z</time>
      </trkpt>
      <trkpt lat="44.27348" lon="3.21542">
        <ele>861.7</ele>
        <time>2017-02-17T14:59:18Z</time>
      </trkpt>
      <trkpt lat="44.27345" lon="3.21542">
        <ele>862.2</ele>
        <time>2017-02-17T14:59:19Z</time>
      </trkpt>
      <trkpt lat="44.2734" lon="3.21541">
        <ele>862.7</ele>
        <time>2017-02-17T14:59:21Z</time>
      </trkpt>
      <trkpt lat="44.27336" lon="3.2154">
        <ele>863.2</ele>
        <time>2017-02-17T14:59:23Z</time>
      </trkpt>
      <trkpt lat="44.27332" lon="3.21538">
        <ele>863.8</ele>
        <time>2017-02-17T14:59:25Z</time>
      </trkpt>
      <trkpt lat="44.27329" lon="3.21536">
        <ele>864.1</ele>
        <time>2017-02-17T14:59:27Z</time>
      </trkpt>
      <trkpt lat="44.27326" lon="3.21535">
        <ele>864.5</ele>
        <time>2017-02-17T14:59:29Z</time>
      </trkpt>
      <trkpt lat="44.27323" lon="3.21534">
        <ele>864.9</ele>
        <time>2017-02-17T14:59:31Z</time>
      </trkpt>
      <trkpt lat="44.27318" lon="3.21532">
        <ele>865.5</ele>
        <time>2017-02-17T14:59:33Z</time>
      </trkpt>
      <trkpt lat="44.27313" lon="3.21531">
        <ele>866.1</ele>
        <time>2017-02-17T14:59:35Z</time>
      </trkpt>
      <trkpt lat="44.27311" lon="3.2153">
        <ele>866.4</ele>
        <time>2017-02-17T14:59:36Z</time>
      </trkpt>
      <trkpt lat="44.27306" lon="3.21528">
        <ele>867</ele>
        <time>2017-02-17T14:59:38Z</time>
      </trkpt>
      <trkpt lat="44.27301" lon="3.21526">
        <ele>867.6</ele>
        <time>2017-02-17T14:59:40Z</time>
      </trkpt>
      <trkpt lat="44.27299" lon="3.21524">
        <ele>868</ele>
        <time>2017-02-17T14:59:42Z</time>
      </trkpt>
      <trkpt lat="44.27296" lon="3.21522">
        <ele>868.3</ele>
        <time>2017-02-17T14:59:44Z</time>
      </trkpt>
      <trkpt lat="44.27293" lon="3.21518">
        <ele>868.6</ele>
        <time>2017-02-17T14:59:46Z</time>
      </trkpt>
      <trkpt lat="44.2729" lon="3.21514">
        <ele>868.9</ele>
        <time>2017-02-17T14:59:48Z</time>
      </trkpt>
      <trkpt lat="44.27287" lon="3.21511">
        <ele>869.1</ele>
        <time>2017-02-17T14:59:50Z</time>
      </trkpt>
      <trkpt lat="44.27285" lon="3.21508">
        <ele>869.4</ele>
        <time>2017-02-17T14:59:52Z</time>
      </trkpt>
      <trkpt lat="44.27283" lon="3.21504">
        <ele>869.7</ele>
        <time>2017-02-17T14:59:54Z</time>
      </trkpt>
      <trkpt lat="44.27281" lon="3.215">
        <ele>870</ele>
        <time>2017-02-17T14:59:56Z</time>
      </trkpt>
      <trkpt lat="44.27278" lon="3.21495">
        <ele>870.3</ele>
        <time>2017-02-17T14:59:58Z</time>
      </trkpt>
      <trkpt lat="44.27276" lon="3.21489">
        <ele>870.7</ele>
        <time>2017-02-17T15:00:00Z</time>
      </trkpt>
      <trkpt lat="44.27274" lon="3.21484">
        <ele>871.1</ele>
        <time>2017-02-17T15:00:02Z</time>
      </trkpt>
      <trkpt lat="44.27273" lon="3.21478">
        <ele>871.4</ele>
        <time>2017-02-17T15:00:04Z</time>
      </trkpt>
      <trkpt lat="44.27273" lon="3.21472">
        <ele>871.6</ele>
        <time>2017-02-17T15:00:06Z</time>
      </trkpt>
      <trkpt lat="44.27274" lon="3.21466">
        <ele>871.9</ele>
        <time>2017-02-17T15:00:08Z</time>
      </trkpt>
      <trkpt lat="44.27274" lon="3.21461">
        <ele>872.1</ele>
        <time>2017-02-17T15:00:10Z</time>
      </trkpt>
      <trkpt lat="44.27275" lon="3.21456">
        <ele>872.4</ele>
        <time>2017-02-17T15:00:12Z</time>
      </trkpt>
      <trkpt lat="44.27275" lon="3.21451">
        <ele>872.7</ele>
        <time>2017-02-17T15:00:14Z</time>
      </trkpt>
      <trkpt lat="44.27276" lon="3.21444">
        <ele>873.1</ele>
        <time>2017-02-17T15:00:16Z</time>
      </trkpt>
      <trkpt lat="44.27276" lon="3.21437">
        <ele>873.5</ele>
        <time>2017-02-17T15:00:18Z</time>
      </trkpt>
      <trkpt lat="44.27277" lon="3.21432">
        <ele>873.7</ele>
        <time>2017-02-17T15:00:20Z</time>
      </trkpt>
      <trkpt lat="44.27278" lon="3.21426">
        <ele>873.9</ele>
        <time>2017-02-17T15:00:22Z</time>
      </trkpt>
      <trkpt lat="44.27279" lon="3.2142">
        <ele>874.2</ele>
        <time>2017-02-17T15:00:24Z</time>
      </trkpt>
      <trkpt lat="44.2728" lon="3.21415">
        <ele>874.5</ele>
        <time>2017-02-17T15:00:26Z</time>
      </trkpt>
      <trkpt lat="44.2728" lon="3.21409">
        <ele>874.8</ele>
        <time>2017-02-17T15:00:28Z</time>
      </trkpt>
      <trkpt lat="44.2728" lon="3.21403">
        <ele>875.1</ele>
        <time>2017-02-17T15:00:30Z</time>
      </trkpt>
      <trkpt lat="44.2728" lon="3.21398">
        <ele>875.3</ele>
        <time>2017-02-17T15:00:32Z</time>
      </trkpt>
      <trkpt lat="44.27279" lon="3.21391">
        <ele>875.7</ele>
        <time>2017-02-17T15:00:34Z</time>
      </trkpt>
      <trkpt lat="44.27279" lon="3.21386">
        <ele>876</ele>
        <time>2017-02-17T15:00:36Z</time>
      </trkpt>
      <trkpt lat="44.27279" lon="3.21379">
        <ele>876.5</ele>
        <time>2017-02-17T15:00:38Z</time>
      </trkpt>
      <trkpt lat="44.27279" lon="3.21375">
        <ele>876.7</ele>
        <time>2017-02-17T15:00:39Z</time>
      </trkpt>
      <trkpt lat="44.27279" lon="3.21371">
        <ele>877</ele>
        <time>2017-02-17T15:00:40Z</time>
      </trkpt>
      <trkpt lat="44.27278" lon="3.21363">
        <ele>877.5</ele>
        <time>2017-02-17T15:00:42Z</time>
      </trkpt>
      <trkpt lat="44.27276" lon="3.21358">
        <ele>878</ele>
        <time>2017-02-17T15:00:44Z</time>
      </trkpt>
      <trkpt lat="44.27273" lon="3.21352">
        <ele>878.4</ele>
        <time>2017-02-17T15:00:46Z</time>
      </trkpt>
      <trkpt lat="44.2727" lon="3.2135">
        <ele>878.6</ele>
        <time>2017-02-17T15:00:47Z</time>
      </trkpt>
      <trkpt lat="44.27263" lon="3.21345">
        <ele>879.2</ele>
        <time>2017-02-17T15:00:50Z</time>
      </trkpt>
      <trkpt lat="44.27263" lon="3.21341">
        <ele>879.5</ele>
        <time>2017-02-17T15:00:52Z</time>
      </trkpt>
      <trkpt lat="44.27259" lon="3.21333">
        <ele>880.1</ele>
        <time>2017-02-17T15:00:54Z</time>
      </trkpt>
      <trkpt lat="44.27256" lon="3.21329">
        <ele>880.4</ele>
        <time>2017-02-17T15:00:55Z</time>
      </trkpt>
      <trkpt lat="44.27253" lon="3.21325">
        <ele>880.6</ele>
        <time>2017-02-17T15:00:57Z</time>
      </trkpt>
      <trkpt lat="44.2725" lon="3.21319">
        <ele>880.9</ele>
        <time>2017-02-17T15:00:59Z</time>
      </trkpt>
      <trkpt lat="44.27248" lon="3.21315">
        <ele>881</ele>
        <time>2017-02-17T15:01:01Z</time>
      </trkpt>
      <trkpt lat="44.27247" lon="3.21312">
        <ele>881.1</ele>
        <time>2017-02-17T15:01:03Z</time>
      </trkpt>
      <trkpt lat="44.27245" lon="3.21308">
        <ele>881.1</ele>
        <time>2017-02-17T15:01:05Z</time>
      </trkpt>
      <trkpt lat="44.27245" lon="3.21303">
        <ele>881.1</ele>
        <time>2017-02-17T15:01:07Z</time>
      </trkpt>
      <trkpt lat="44.27244" lon="3.21297">
        <ele>881.2</ele>
        <time>2017-02-17T15:01:09Z</time>
      </trkpt>
      <trkpt lat="44.27244" lon="3.21281">
        <ele>881.3</ele>
        <time>2017-02-17T15:01:15Z</time>
      </trkpt>
      <trkpt lat="44.27244" lon="3.21285">
        <ele>881.4</ele>
        <time>2017-02-17T15:01:17Z</time>
      </trkpt>
      <trkpt lat="44.27247" lon="3.2128">
        <ele>881.5</ele>
        <time>2017-02-17T15:01:19Z</time>
      </trkpt>
      <trkpt lat="44.27249" lon="3.21277">
        <ele>881.5</ele>
        <time>2017-02-17T15:01:20Z</time>
      </trkpt>
      <trkpt lat="44.27255" lon="3.21274">
        <ele>881.6</ele>
        <time>2017-02-17T15:01:21Z</time>
      </trkpt>
      <trkpt lat="44.2726" lon="3.21271">
        <ele>881.7</ele>
        <time>2017-02-17T15:01:22Z</time>
      </trkpt>
      <trkpt lat="44.27262" lon="3.21269">
        <ele>881.8</ele>
        <time>2017-02-17T15:01:23Z</time>
      </trkpt>
      <trkpt lat="44.27265" lon="3.21267">
        <ele>881.9</ele>
        <time>2017-02-17T15:01:24Z</time>
      </trkpt>
      <trkpt lat="44.27268" lon="3.21267">
        <ele>881.9</ele>
        <time>2017-02-17T15:01:25Z</time>
      </trkpt>
      <trkpt lat="44.27271" lon="3.21266">
        <ele>882</ele>
        <time>2017-02-17T15:01:26Z</time>
      </trkpt>
      <trkpt lat="44.27274" lon="3.21264">
        <ele>882.1</ele>
        <time>2017-02-17T15:01:28Z</time>
      </trkpt>
      <trkpt lat="44.27278" lon="3.21261">
        <ele>882.2</ele>
        <time>2017-02-17T15:01:29Z</time>
      </trkpt>
      <trkpt lat="44.27282" lon="3.2126">
        <ele>882.2</ele>
        <time>2017-02-17T15:01:31Z</time>
      </trkpt>
      <trkpt lat="44.27285" lon="3.21258">
        <ele>882.3</ele>
        <time>2017-02-17T15:01:33Z</time>
      </trkpt>
      <trkpt lat="44.27289" lon="3.21255">
        <ele>882.3</ele>
        <time>2017-02-17T15:01:35Z</time>
      </trkpt>
      <trkpt lat="44.27293" lon="3.21252">
        <ele>882.4</ele>
        <time>2017-02-17T15:01:37Z</time>
      </trkpt>
      <trkpt lat="44.27297" lon="3.21249">
        <ele>882.4</ele>
        <time>2017-02-17T15:01:39Z</time>
      </trkpt>
      <trkpt lat="44.27301" lon="3.21245">
        <ele>882.5</ele>
        <time>2017-02-17T15:01:41Z</time>
      </trkpt>
      <trkpt lat="44.27305" lon="3.21242">
        <ele>882.5</ele>
        <time>2017-02-17T15:01:43Z</time>
      </trkpt>
      <trkpt lat="44.27309" lon="3.21239">
        <ele>882.6</ele>
        <time>2017-02-17T15:01:45Z</time>
      </trkpt>
      <trkpt lat="44.27313" lon="3.21236">
        <ele>882.6</ele>
        <time>2017-02-17T15:01:47Z</time>
      </trkpt>
      <trkpt lat="44.27317" lon="3.21233">
        <ele>882.7</ele>
        <time>2017-02-17T15:01:49Z</time>
      </trkpt>
      <trkpt lat="44.2732" lon="3.2123">
        <ele>882.7</ele>
        <time>2017-02-17T15:01:51Z</time>
      </trkpt>
      <trkpt lat="44.27321" lon="3.21226">
        <ele>882.8</ele>
        <time>2017-02-17T15:01:53Z</time>
      </trkpt>
      <trkpt lat="44.27324" lon="3.21223">
        <ele>882.8</ele>
        <time>2017-02-17T15:01:55Z</time>
      </trkpt>
      <trkpt lat="44.27327" lon="3.21218">
        <ele>882.9</ele>
        <time>2017-02-17T15:01:57Z</time>
      </trkpt>
      <trkpt lat="44.2733" lon="3.21214">
        <ele>882.9</ele>
        <time>2017-02-17T15:01:59Z</time>
      </trkpt>
      <trkpt lat="44.27332" lon="3.21211">
        <ele>882.9</ele>
        <time>2017-02-17T15:02:00Z</time>
      </trkpt>
      <trkpt lat="44.27335" lon="3.21208">
        <ele>882.9</ele>
        <time>2017-02-17T15:02:01Z</time>
      </trkpt>
      <trkpt lat="44.27336" lon="3.21205">
        <ele>882.9</ele>
        <time>2017-02-17T15:02:02Z</time>
      </trkpt>
      <trkpt lat="44.27339" lon="3.212">
        <ele>883</ele>
        <time>2017-02-17T15:02:04Z</time>
      </trkpt>
      <trkpt lat="44.27341" lon="3.21195">
        <ele>883</ele>
        <time>2017-02-17T15:02:06Z</time>
      </trkpt>
      <trkpt lat="44.27344" lon="3.21191">
        <ele>883</ele>
        <time>2017-02-17T15:02:08Z</time>
      </trkpt>
      <trkpt lat="44.27348" lon="3.21186">
        <ele>883.1</ele>
        <time>2017-02-17T15:02:10Z</time>
      </trkpt>
      <trkpt lat="44.2735" lon="3.21181">
        <ele>883.5</ele>
        <time>2017-02-17T15:02:12Z</time>
      </trkpt>
      <trkpt lat="44.27351" lon="3.21178">
        <ele>883.7</ele>
        <time>2017-02-17T15:02:14Z</time>
      </trkpt>
      <trkpt lat="44.27353" lon="3.21175">
        <ele>883.8</ele>
        <time>2017-02-17T15:02:16Z</time>
      </trkpt>
      <trkpt lat="44.27355" lon="3.21169">
        <ele>884.1</ele>
        <time>2017-02-17T15:02:18Z</time>
      </trkpt>
      <trkpt lat="44.27358" lon="3.21165">
        <ele>884.3</ele>
        <time>2017-02-17T15:02:20Z</time>
      </trkpt>
      <trkpt lat="44.27362" lon="3.21167">
        <ele>884.7</ele>
        <time>2017-02-17T15:02:22Z</time>
      </trkpt>
      <trkpt lat="44.27365" lon="3.21168">
        <ele>884.9</ele>
        <time>2017-02-17T15:02:23Z</time>
      </trkpt>
      <trkpt lat="44.27369" lon="3.21168">
        <ele>885.2</ele>
        <time>2017-02-17T15:02:25Z</time>
      </trkpt>
      <trkpt lat="44.27372" lon="3.21168">
        <ele>885.5</ele>
        <time>2017-02-17T15:02:27Z</time>
      </trkpt>
      <trkpt lat="44.27377" lon="3.21167">
        <ele>886</ele>
        <time>2017-02-17T15:02:29Z</time>
      </trkpt>
      <trkpt lat="44.2738" lon="3.21166">
        <ele>886.3</ele>
        <time>2017-02-17T15:02:30Z</time>
      </trkpt>
      <trkpt lat="44.27385" lon="3.21165">
        <ele>886.6</ele>
        <time>2017-02-17T15:02:32Z</time>
      </trkpt>
      <trkpt lat="44.27389" lon="3.21164">
        <ele>886.9</ele>
        <time>2017-02-17T15:02:34Z</time>
      </trkpt>
      <trkpt lat="44.27393" lon="3.21163">
        <ele>887.2</ele>
        <time>2017-02-17T15:02:36Z</time>
      </trkpt>
      <trkpt lat="44.27398" lon="3.21162">
        <ele>887.7</ele>
        <time>2017-02-17T15:02:38Z</time>
      </trkpt>
      <trkpt lat="44.27402" lon="3.21161">
        <ele>888</ele>
        <time>2017-02-17T15:02:39Z</time>
      </trkpt>
      <trkpt lat="44.27404" lon="3.2116">
        <ele>888.3</ele>
        <time>2017-02-17T15:02:41Z</time>
      </trkpt>
      <trkpt lat="44.27407" lon="3.2116">
        <ele>888.5</ele>
        <time>2017-02-17T15:02:43Z</time>
      </trkpt>
      <trkpt lat="44.2741" lon="3.2116">
        <ele>888.8</ele>
        <time>2017-02-17T15:02:44Z</time>
      </trkpt>
      <trkpt lat="44.27413" lon="3.2116">
        <ele>889</ele>
        <time>2017-02-17T15:02:45Z</time>
      </trkpt>
      <trkpt lat="44.27417" lon="3.21159">
        <ele>889.2</ele>
        <time>2017-02-17T15:02:47Z</time>
      </trkpt>
      <trkpt lat="44.27421" lon="3.21158">
        <ele>889.5</ele>
        <time>2017-02-17T15:02:49Z</time>
      </trkpt>
      <trkpt lat="44.27425" lon="3.21157">
        <ele>889.8</ele>
        <time>2017-02-17T15:02:51Z</time>
      </trkpt>
      <trkpt lat="44.27429" lon="3.21156">
        <ele>890</ele>
        <time>2017-02-17T15:02:53Z</time>
      </trkpt>
      <trkpt lat="44.27433" lon="3.21154">
        <ele>890.3</ele>
        <time>2017-02-17T15:02:55Z</time>
      </trkpt>
      <trkpt lat="44.27437" lon="3.21153">
        <ele>890.5</ele>
        <time>2017-02-17T15:02:58Z</time>
      </trkpt>
      <trkpt lat="44.27441" lon="3.21151">
        <ele>890.8</ele>
        <time>2017-02-17T15:03:01Z</time>
      </trkpt>
      <trkpt lat="44.27446" lon="3.21151">
        <ele>891.2</ele>
        <time>2017-02-17T15:03:03Z</time>
      </trkpt>
      <trkpt lat="44.27449" lon="3.2115">
        <ele>891.4</ele>
        <time>2017-02-17T15:03:04Z</time>
      </trkpt>
      <trkpt lat="44.27454" lon="3.21147">
        <ele>891.7</ele>
        <time>2017-02-17T15:03:05Z</time>
      </trkpt>
      <trkpt lat="44.27459" lon="3.21145">
        <ele>892</ele>
        <time>2017-02-17T15:03:07Z</time>
      </trkpt>
      <trkpt lat="44.27463" lon="3.21143">
        <ele>892.3</ele>
        <time>2017-02-17T15:03:09Z</time>
      </trkpt>
      <trkpt lat="44.27467" lon="3.2114">
        <ele>892.5</ele>
        <time>2017-02-17T15:03:11Z</time>
      </trkpt>
      <trkpt lat="44.27471" lon="3.21137">
        <ele>892.8</ele>
        <time>2017-02-17T15:03:13Z</time>
      </trkpt>
      <trkpt lat="44.27475" lon="3.21134">
        <ele>893</ele>
        <time>2017-02-17T15:03:15Z</time>
      </trkpt>
      <trkpt lat="44.27479" lon="3.21133">
        <ele>893.4</ele>
        <time>2017-02-17T15:03:17Z</time>
      </trkpt>
      <trkpt lat="44.27481" lon="3.21124">
        <ele>893.9</ele>
        <time>2017-02-17T15:03:19Z</time>
      </trkpt>
      <trkpt lat="44.2748" lon="3.21121">
        <ele>894.1</ele>
        <time>2017-02-17T15:03:20Z</time>
      </trkpt>
      <trkpt lat="44.27476" lon="3.21117">
        <ele>894.3</ele>
        <time>2017-02-17T15:03:23Z</time>
      </trkpt>
      <trkpt lat="44.27473" lon="3.21115">
        <ele>894.4</ele>
        <time>2017-02-17T15:03:25Z</time>
      </trkpt>
      <trkpt lat="44.2747" lon="3.21116">
        <ele>894.5</ele>
        <time>2017-02-17T15:03:27Z</time>
      </trkpt>
      <trkpt lat="44.27465" lon="3.21117">
        <ele>894.7</ele>
        <time>2017-02-17T15:03:29Z</time>
      </trkpt>
      <trkpt lat="44.2746" lon="3.21118">
        <ele>894.8</ele>
        <time>2017-02-17T15:03:31Z</time>
      </trkpt>
      <trkpt lat="44.27457" lon="3.21119">
        <ele>895</ele>
        <time>2017-02-17T15:03:33Z</time>
      </trkpt>
      <trkpt lat="44.27452" lon="3.21119">
        <ele>895.1</ele>
        <time>2017-02-17T15:03:35Z</time>
      </trkpt>
      <trkpt lat="44.27448" lon="3.2112">
        <ele>895.2</ele>
        <time>2017-02-17T15:03:37Z</time>
      </trkpt>
      <trkpt lat="44.27429" lon="3.21127">
        <ele>895.9</ele>
        <time>2017-02-17T15:03:44Z</time>
      </trkpt>
      <trkpt lat="44.27424" lon="3.2113">
        <ele>896</ele>
        <time>2017-02-17T15:03:45Z</time>
      </trkpt>
      <trkpt lat="44.27416" lon="3.21133">
        <ele>896.3</ele>
        <time>2017-02-17T15:03:47Z</time>
      </trkpt>
      <trkpt lat="44.27411" lon="3.21129">
        <ele>896.5</ele>
        <time>2017-02-17T15:03:48Z</time>
      </trkpt>
      <trkpt lat="44.27406" lon="3.21128">
        <ele>896.6</ele>
        <time>2017-02-17T15:03:49Z</time>
      </trkpt>
      <trkpt lat="44.27403" lon="3.21127">
        <ele>896.7</ele>
        <time>2017-02-17T15:03:52Z</time>
      </trkpt>
      <trkpt lat="44.27392" lon="3.21122">
        <ele>897</ele>
        <time>2017-02-17T15:03:57Z</time>
      </trkpt>
      <trkpt lat="44.27393" lon="3.21117">
        <ele>897.1</ele>
        <time>2017-02-17T15:03:58Z</time>
      </trkpt>
      <trkpt lat="44.27394" lon="3.21112">
        <ele>897.2</ele>
        <time>2017-02-17T15:03:59Z</time>
      </trkpt>
      <trkpt lat="44.27396" lon="3.21107">
        <ele>897.3</ele>
        <time>2017-02-17T15:04:01Z</time>
      </trkpt>
      <trkpt lat="44.27392" lon="3.21105">
        <ele>897.4</ele>
        <time>2017-02-17T15:04:04Z</time>
      </trkpt>
      <trkpt lat="44.27388" lon="3.21103">
        <ele>897.6</ele>
        <time>2017-02-17T15:04:06Z</time>
      </trkpt>
      <trkpt lat="44.27383" lon="3.21102">
        <ele>897.7</ele>
        <time>2017-02-17T15:04:07Z</time>
      </trkpt>
      <trkpt lat="44.27378" lon="3.211">
        <ele>897.9</ele>
        <time>2017-02-17T15:04:08Z</time>
      </trkpt>
      <trkpt lat="44.27371" lon="3.21096">
        <ele>898.2</ele>
        <time>2017-02-17T15:04:10Z</time>
      </trkpt>
      <trkpt lat="44.27368" lon="3.21096">
        <ele>898.2</ele>
        <time>2017-02-17T15:04:11Z</time>
      </trkpt>
      <trkpt lat="44.27364" lon="3.21097">
        <ele>898.3</ele>
        <time>2017-02-17T15:04:13Z</time>
      </trkpt>
      <trkpt lat="44.27364" lon="3.21093">
        <ele>898.4</ele>
        <time>2017-02-17T15:04:16Z</time>
      </trkpt>
      <trkpt lat="44.27366" lon="3.21091">
        <ele>898.4</ele>
        <time>2017-02-17T15:04:18Z</time>
      </trkpt>
      <trkpt lat="44.27363" lon="3.21087">
        <ele>898.4</ele>
        <time>2017-02-17T15:04:21Z</time>
      </trkpt>
      <trkpt lat="44.27359" lon="3.21083">
        <ele>898.4</ele>
        <time>2017-02-17T15:04:23Z</time>
      </trkpt>
      <trkpt lat="44.27356" lon="3.21081">
        <ele>898.4</ele>
        <time>2017-02-17T15:04:24Z</time>
      </trkpt>
      <trkpt lat="44.27354" lon="3.21079">
        <ele>898.4</ele>
        <time>2017-02-17T15:04:25Z</time>
      </trkpt>
      <trkpt lat="44.27351" lon="3.21078">
        <ele>898.4</ele>
        <time>2017-02-17T15:04:26Z</time>
      </trkpt>
      <trkpt lat="44.27347" lon="3.21075">
        <ele>898.3</ele>
        <time>2017-02-17T15:04:28Z</time>
      </trkpt>
      <trkpt lat="44.27344" lon="3.21072">
        <ele>898.3</ele>
        <time>2017-02-17T15:04:30Z</time>
      </trkpt>
      <trkpt lat="44.27342" lon="3.21069">
        <ele>898.2</ele>
        <time>2017-02-17T15:04:32Z</time>
      </trkpt>
      <trkpt lat="44.27339" lon="3.21065">
        <ele>898.1</ele>
        <time>2017-02-17T15:04:34Z</time>
      </trkpt>
      <trkpt lat="44.27336" lon="3.21062">
        <ele>898.1</ele>
        <time>2017-02-17T15:04:36Z</time>
      </trkpt>
      <trkpt lat="44.27333" lon="3.2106">
        <ele>898</ele>
        <time>2017-02-17T15:04:38Z</time>
      </trkpt>
      <trkpt lat="44.27329" lon="3.21058">
        <ele>897.8</ele>
        <time>2017-02-17T15:04:40Z</time>
      </trkpt>
      <trkpt lat="44.27325" lon="3.21057">
        <ele>897.7</ele>
        <time>2017-02-17T15:04:42Z</time>
      </trkpt>
      <trkpt lat="44.2732" lon="3.21054">
        <ele>897.6</ele>
        <time>2017-02-17T15:04:44Z</time>
      </trkpt>
      <trkpt lat="44.27316" lon="3.21052">
        <ele>897.4</ele>
        <time>2017-02-17T15:04:46Z</time>
      </trkpt>
      <trkpt lat="44.27311" lon="3.2105">
        <ele>897.3</ele>
        <time>2017-02-17T15:04:48Z</time>
      </trkpt>
      <trkpt lat="44.27309" lon="3.21049">
        <ele>897.2</ele>
        <time>2017-02-17T15:04:50Z</time>
      </trkpt>
      <trkpt lat="44.27304" lon="3.21048">
        <ele>897.1</ele>
        <time>2017-02-17T15:04:52Z</time>
      </trkpt>
      <trkpt lat="44.273" lon="3.21047">
        <ele>897</ele>
        <time>2017-02-17T15:04:54Z</time>
      </trkpt>
      <trkpt lat="44.27298" lon="3.21049">
        <ele>897</ele>
        <time>2017-02-17T15:04:56Z</time>
      </trkpt>
      <trkpt lat="44.27294" lon="3.21051">
        <ele>897</ele>
        <time>2017-02-17T15:04:58Z</time>
      </trkpt>
      <trkpt lat="44.27289" lon="3.21054">
        <ele>897</ele>
        <time>2017-02-17T15:05:00Z</time>
      </trkpt>
      <trkpt lat="44.27285" lon="3.21056">
        <ele>897.1</ele>
        <time>2017-02-17T15:05:02Z</time>
      </trkpt>
      <trkpt lat="44.27281" lon="3.21056">
        <ele>897.1</ele>
        <time>2017-02-17T15:05:04Z</time>
      </trkpt>
      <trkpt lat="44.27277" lon="3.21053">
        <ele>897.2</ele>
        <time>2017-02-17T15:05:06Z</time>
      </trkpt>
      <trkpt lat="44.27274" lon="3.21051">
        <ele>897.2</ele>
        <time>2017-02-17T15:05:07Z</time>
      </trkpt>
      <trkpt lat="44.27272" lon="3.21046">
        <ele>897.3</ele>
        <time>2017-02-17T15:05:08Z</time>
      </trkpt>
      <trkpt lat="44.27252" lon="3.2103">
        <ele>898.2</ele>
        <time>2017-02-17T15:05:15Z</time>
      </trkpt>
      <trkpt lat="44.27249" lon="3.21032">
        <ele>898.5</ele>
        <time>2017-02-17T15:05:16Z</time>
      </trkpt>
      <trkpt lat="44.27244" lon="3.21034">
        <ele>898.6</ele>
        <time>2017-02-17T15:05:17Z</time>
      </trkpt>
      <trkpt lat="44.27238" lon="3.21034">
        <ele>898.9</ele>
        <time>2017-02-17T15:05:18Z</time>
      </trkpt>
      <trkpt lat="44.27236" lon="3.21037">
        <ele>899.1</ele>
        <time>2017-02-17T15:05:20Z</time>
      </trkpt>
      <trkpt lat="44.27234" lon="3.21042">
        <ele>899.3</ele>
        <time>2017-02-17T15:05:22Z</time>
      </trkpt>
      <trkpt lat="44.27234" lon="3.21047">
        <ele>899.4</ele>
        <time>2017-02-17T15:05:23Z</time>
      </trkpt>
      <trkpt lat="44.27235" lon="3.21051">
        <ele>899.3</ele>
        <time>2017-02-17T15:05:24Z</time>
      </trkpt>
      <trkpt lat="44.27236" lon="3.21055">
        <ele>899.3</ele>
        <time>2017-02-17T15:05:25Z</time>
      </trkpt>
      <trkpt lat="44.27235" lon="3.21059">
        <ele>899.4</ele>
        <time>2017-02-17T15:05:26Z</time>
      </trkpt>
      <trkpt lat="44.27231" lon="3.21061">
        <ele>899.6</ele>
        <time>2017-02-17T15:05:28Z</time>
      </trkpt>
      <trkpt lat="44.27228" lon="3.21059">
        <ele>899.7</ele>
        <time>2017-02-17T15:05:30Z</time>
      </trkpt>
      <trkpt lat="44.27224" lon="3.21058">
        <ele>899.9</ele>
        <time>2017-02-17T15:05:32Z</time>
      </trkpt>
      <trkpt lat="44.27219" lon="3.21057">
        <ele>900.1</ele>
        <time>2017-02-17T15:05:34Z</time>
      </trkpt>
      <trkpt lat="44.27215" lon="3.21058">
        <ele>900.3</ele>
        <time>2017-02-17T15:05:35Z</time>
      </trkpt>
      <trkpt lat="44.2721" lon="3.2106">
        <ele>900.7</ele>
        <time>2017-02-17T15:05:36Z</time>
      </trkpt>
      <trkpt lat="44.27205" lon="3.2106">
        <ele>901.1</ele>
        <time>2017-02-17T15:05:38Z</time>
      </trkpt>
      <trkpt lat="44.27202" lon="3.2106">
        <ele>901.2</ele>
        <time>2017-02-17T15:05:39Z</time>
      </trkpt>
      <trkpt lat="44.27198" lon="3.21061">
        <ele>901.4</ele>
        <time>2017-02-17T15:05:41Z</time>
      </trkpt>
      <trkpt lat="44.27193" lon="3.21061">
        <ele>901.5</ele>
        <time>2017-02-17T15:05:44Z</time>
      </trkpt>
      <trkpt lat="44.27189" lon="3.21062">
        <ele>901.6</ele>
        <time>2017-02-17T15:05:45Z</time>
      </trkpt>
      <trkpt lat="44.27185" lon="3.21065">
        <ele>901.6</ele>
        <time>2017-02-17T15:05:47Z</time>
      </trkpt>
      <trkpt lat="44.27182" lon="3.21065">
        <ele>901.6</ele>
        <time>2017-02-17T15:05:48Z</time>
      </trkpt>
      <trkpt lat="44.27179" lon="3.21066">
        <ele>901.6</ele>
        <time>2017-02-17T15:05:49Z</time>
      </trkpt>
      <trkpt lat="44.27176" lon="3.21069">
        <ele>901.7</ele>
        <time>2017-02-17T15:05:51Z</time>
      </trkpt>
      <trkpt lat="44.27172" lon="3.21067">
        <ele>901.7</ele>
        <time>2017-02-17T15:05:53Z</time>
      </trkpt>
      <trkpt lat="44.27166" lon="3.21066">
        <ele>901.7</ele>
        <time>2017-02-17T15:05:55Z</time>
      </trkpt>
      <trkpt lat="44.27162" lon="3.21064">
        <ele>901.7</ele>
        <time>2017-02-17T15:05:56Z</time>
      </trkpt>
      <trkpt lat="44.27157" lon="3.21061">
        <ele>901.7</ele>
        <time>2017-02-17T15:05:57Z</time>
      </trkpt>
      <trkpt lat="44.27153" lon="3.21058">
        <ele>901.7</ele>
        <time>2017-02-17T15:05:58Z</time>
      </trkpt>
      <trkpt lat="44.27149" lon="3.21056">
        <ele>901.7</ele>
        <time>2017-02-17T15:05:59Z</time>
      </trkpt>
      <trkpt lat="44.27146" lon="3.21053">
        <ele>901.7</ele>
        <time>2017-02-17T15:06:00Z</time>
      </trkpt>
      <trkpt lat="44.27143" lon="3.21051">
        <ele>901.7</ele>
        <time>2017-02-17T15:06:01Z</time>
      </trkpt>
      <trkpt lat="44.27139" lon="3.21048">
        <ele>901.7</ele>
        <time>2017-02-17T15:06:02Z</time>
      </trkpt>
      <trkpt lat="44.27136" lon="3.21045">
        <ele>901.7</ele>
        <time>2017-02-17T15:06:03Z</time>
      </trkpt>
      <trkpt lat="44.27133" lon="3.21043">
        <ele>901.7</ele>
        <time>2017-02-17T15:06:04Z</time>
      </trkpt>
      <trkpt lat="44.2713" lon="3.21041">
        <ele>901.8</ele>
        <time>2017-02-17T15:06:05Z</time>
      </trkpt>
      <trkpt lat="44.27126" lon="3.21039">
        <ele>901.8</ele>
        <time>2017-02-17T15:06:06Z</time>
      </trkpt>
      <trkpt lat="44.27124" lon="3.21039">
        <ele>901.8</ele>
        <time>2017-02-17T15:06:07Z</time>
      </trkpt>
      <trkpt lat="44.2712" lon="3.21039">
        <ele>901.8</ele>
        <time>2017-02-17T15:06:08Z</time>
      </trkpt>
      <trkpt lat="44.27115" lon="3.21039">
        <ele>901.8</ele>
        <time>2017-02-17T15:06:09Z</time>
      </trkpt>
      <trkpt lat="44.27112" lon="3.21037">
        <ele>901.8</ele>
        <time>2017-02-17T15:06:10Z</time>
      </trkpt>
      <trkpt lat="44.2711" lon="3.21036">
        <ele>901.8</ele>
        <time>2017-02-17T15:06:11Z</time>
      </trkpt>
      <trkpt lat="44.27107" lon="3.21032">
        <ele>901.8</ele>
        <time>2017-02-17T15:06:13Z</time>
      </trkpt>
      <trkpt lat="44.27104" lon="3.21031">
        <ele>901.9</ele>
        <time>2017-02-17T15:06:14Z</time>
      </trkpt>
      <trkpt lat="44.27099" lon="3.21028">
        <ele>901.9</ele>
        <time>2017-02-17T15:06:16Z</time>
      </trkpt>
      <trkpt lat="44.27096" lon="3.21027">
        <ele>901.9</ele>
        <time>2017-02-17T15:06:17Z</time>
      </trkpt>
      <trkpt lat="44.27093" lon="3.21027">
        <ele>901.9</ele>
        <time>2017-02-17T15:06:18Z</time>
      </trkpt>
      <trkpt lat="44.2709" lon="3.21026">
        <ele>902</ele>
        <time>2017-02-17T15:06:19Z</time>
      </trkpt>
      <trkpt lat="44.27087" lon="3.21026">
        <ele>902</ele>
        <time>2017-02-17T15:06:20Z</time>
      </trkpt>
      <trkpt lat="44.27083" lon="3.21026">
        <ele>902.1</ele>
        <time>2017-02-17T15:06:21Z</time>
      </trkpt>
      <trkpt lat="44.27077" lon="3.21028">
        <ele>902.2</ele>
        <time>2017-02-17T15:06:22Z</time>
      </trkpt>
      <trkpt lat="44.27073" lon="3.21028">
        <ele>902.3</ele>
        <time>2017-02-17T15:06:23Z</time>
      </trkpt>
      <trkpt lat="44.27066" lon="3.21027">
        <ele>902.6</ele>
        <time>2017-02-17T15:06:24Z</time>
      </trkpt>
      <trkpt lat="44.27063" lon="3.21027">
        <ele>902.9</ele>
        <time>2017-02-17T15:06:25Z</time>
      </trkpt>
      <trkpt lat="44.2706" lon="3.21027">
        <ele>903.2</ele>
        <time>2017-02-17T15:06:26Z</time>
      </trkpt>
      <trkpt lat="44.27055" lon="3.2103">
        <ele>903.3</ele>
        <time>2017-02-17T15:06:28Z</time>
      </trkpt>
      <trkpt lat="44.27052" lon="3.21031">
        <ele>903.4</ele>
        <time>2017-02-17T15:06:29Z</time>
      </trkpt>
      <trkpt lat="44.27048" lon="3.21032">
        <ele>903.5</ele>
        <time>2017-02-17T15:06:31Z</time>
      </trkpt>
      <trkpt lat="44.27044" lon="3.21032">
        <ele>903.5</ele>
        <time>2017-02-17T15:06:34Z</time>
      </trkpt>
      <trkpt lat="44.27041" lon="3.21033">
        <ele>903.6</ele>
        <time>2017-02-17T15:06:36Z</time>
      </trkpt>
      <trkpt lat="44.27034" lon="3.21031">
        <ele>903.7</ele>
        <time>2017-02-17T15:06:39Z</time>
      </trkpt>
      <trkpt lat="44.2703" lon="3.21028">
        <ele>903.7</ele>
        <time>2017-02-17T15:06:41Z</time>
      </trkpt>
      <trkpt lat="44.27024" lon="3.21028">
        <ele>903.7</ele>
        <time>2017-02-17T15:06:43Z</time>
      </trkpt>
      <trkpt lat="44.27021" lon="3.21027">
        <ele>903.8</ele>
        <time>2017-02-17T15:06:44Z</time>
      </trkpt>
      <trkpt lat="44.27018" lon="3.21027">
        <ele>903.8</ele>
        <time>2017-02-17T15:06:45Z</time>
      </trkpt>
      <trkpt lat="44.27011" lon="3.21027">
        <ele>903.9</ele>
        <time>2017-02-17T15:06:47Z</time>
      </trkpt>
      <trkpt lat="44.27003" lon="3.21028">
        <ele>903.9</ele>
        <time>2017-02-17T15:06:48Z</time>
      </trkpt>
      <trkpt lat="44.27" lon="3.21027">
        <ele>904</ele>
        <time>2017-02-17T15:06:49Z</time>
      </trkpt>
      <trkpt lat="44.26995" lon="3.21028">
        <ele>904.1</ele>
        <time>2017-02-17T15:06:51Z</time>
      </trkpt>
      <trkpt lat="44.2699" lon="3.2103">
        <ele>904.2</ele>
        <time>2017-02-17T15:06:53Z</time>
      </trkpt>
      <trkpt lat="44.26989" lon="3.21026">
        <ele>904.3</ele>
        <time>2017-02-17T15:06:57Z</time>
      </trkpt>
      <trkpt lat="44.26985" lon="3.21026">
        <ele>904.4</ele>
        <time>2017-02-17T15:06:58Z</time>
      </trkpt>
      <trkpt lat="44.26981" lon="3.21027">
        <ele>904.5</ele>
        <time>2017-02-17T15:06:59Z</time>
      </trkpt>
      <trkpt lat="44.26974" lon="3.21027">
        <ele>904.9</ele>
        <time>2017-02-17T15:07:00Z</time>
      </trkpt>
      <trkpt lat="44.26967" lon="3.21027">
        <ele>905.4</ele>
        <time>2017-02-17T15:07:01Z</time>
      </trkpt>
      <trkpt lat="44.26959" lon="3.21028">
        <ele>905.6</ele>
        <time>2017-02-17T15:07:03Z</time>
      </trkpt>
      <trkpt lat="44.26956" lon="3.21028">
        <ele>905.6</ele>
        <time>2017-02-17T15:07:04Z</time>
      </trkpt>
      <trkpt lat="44.26951" lon="3.21028">
        <ele>905.7</ele>
        <time>2017-02-17T15:07:05Z</time>
      </trkpt>
      <trkpt lat="44.26945" lon="3.21027">
        <ele>905.7</ele>
        <time>2017-02-17T15:07:06Z</time>
      </trkpt>
      <trkpt lat="44.26939" lon="3.21028">
        <ele>905.7</ele>
        <time>2017-02-17T15:07:07Z</time>
      </trkpt>
      <trkpt lat="44.26931" lon="3.21029">
        <ele>905.6</ele>
        <time>2017-02-17T15:07:08Z</time>
      </trkpt>
      <trkpt lat="44.26911" lon="3.2102">
        <ele>905.4</ele>
        <time>2017-02-17T15:07:12Z</time>
      </trkpt>
      <trkpt lat="44.26904" lon="3.21018">
        <ele>905.2</ele>
        <time>2017-02-17T15:07:13Z</time>
      </trkpt>
      <trkpt lat="44.26898" lon="3.2102">
        <ele>904.9</ele>
        <time>2017-02-17T15:07:14Z</time>
      </trkpt>
      <trkpt lat="44.26888" lon="3.21017">
        <ele>904.6</ele>
        <time>2017-02-17T15:07:15Z</time>
      </trkpt>
      <trkpt lat="44.2688" lon="3.2102">
        <ele>904.3</ele>
        <time>2017-02-17T15:07:16Z</time>
      </trkpt>
      <trkpt lat="44.26871" lon="3.21026">
        <ele>904</ele>
        <time>2017-02-17T15:07:17Z</time>
      </trkpt>
      <trkpt lat="44.26861" lon="3.21032">
        <ele>903.9</ele>
        <time>2017-02-17T15:07:18Z</time>
      </trkpt>
      <trkpt lat="44.26857" lon="3.21036">
        <ele>903.8</ele>
        <time>2017-02-17T15:07:19Z</time>
      </trkpt>
      <trkpt lat="44.26848" lon="3.2104">
        <ele>903.8</ele>
        <time>2017-02-17T15:07:20Z</time>
      </trkpt>
      <trkpt lat="44.26842" lon="3.21043">
        <ele>903.8</ele>
        <time>2017-02-17T15:07:21Z</time>
      </trkpt>
      <trkpt lat="44.26837" lon="3.21047">
        <ele>903.7</ele>
        <time>2017-02-17T15:07:22Z</time>
      </trkpt>
      <trkpt lat="44.26832" lon="3.21051">
        <ele>903.7</ele>
        <time>2017-02-17T15:07:23Z</time>
      </trkpt>
      <trkpt lat="44.26807" lon="3.21086">
        <ele>903.8</ele>
        <time>2017-02-17T15:07:27Z</time>
      </trkpt>
      <trkpt lat="44.26801" lon="3.21088">
        <ele>903.9</ele>
        <time>2017-02-17T15:07:28Z</time>
      </trkpt>
      <trkpt lat="44.26796" lon="3.21085">
        <ele>903.9</ele>
        <time>2017-02-17T15:07:29Z</time>
      </trkpt>
      <trkpt lat="44.26794" lon="3.21091">
        <ele>903.9</ele>
        <time>2017-02-17T15:07:31Z</time>
      </trkpt>
      <trkpt lat="44.26793" lon="3.21096">
        <ele>904</ele>
        <time>2017-02-17T15:07:32Z</time>
      </trkpt>
      <trkpt lat="44.26791" lon="3.21101">
        <ele>904.1</ele>
        <time>2017-02-17T15:07:33Z</time>
      </trkpt>
      <trkpt lat="44.26788" lon="3.21103">
        <ele>904.2</ele>
        <time>2017-02-17T15:07:35Z</time>
      </trkpt>
      <trkpt lat="44.26785" lon="3.21104">
        <ele>904.3</ele>
        <time>2017-02-17T15:07:37Z</time>
      </trkpt>
      <trkpt lat="44.2678" lon="3.21104">
        <ele>904.6</ele>
        <time>2017-02-17T15:07:39Z</time>
      </trkpt>
      <trkpt lat="44.26775" lon="3.21104">
        <ele>904.8</ele>
        <time>2017-02-17T15:07:40Z</time>
      </trkpt>
      <trkpt lat="44.26772" lon="3.21103">
        <ele>905</ele>
        <time>2017-02-17T15:07:42Z</time>
      </trkpt>
      <trkpt lat="44.26769" lon="3.21104">
        <ele>905.2</ele>
        <time>2017-02-17T15:07:43Z</time>
      </trkpt>
      <trkpt lat="44.26765" lon="3.21104">
        <ele>905.4</ele>
        <time>2017-02-17T15:07:44Z</time>
      </trkpt>
      <trkpt lat="44.26762" lon="3.21103">
        <ele>905.5</ele>
        <time>2017-02-17T15:07:45Z</time>
      </trkpt>
      <trkpt lat="44.2676" lon="3.21101">
        <ele>905.7</ele>
        <time>2017-02-17T15:07:47Z</time>
      </trkpt>
      <trkpt lat="44.26756" lon="3.21099">
        <ele>905.8</ele>
        <time>2017-02-17T15:07:49Z</time>
      </trkpt>
      <trkpt lat="44.26754" lon="3.21097">
        <ele>905.9</ele>
        <time>2017-02-17T15:07:51Z</time>
      </trkpt>
      <trkpt lat="44.2675" lon="3.21095">
        <ele>906</ele>
        <time>2017-02-17T15:07:53Z</time>
      </trkpt>
      <trkpt lat="44.26744" lon="3.21095">
        <ele>906.2</ele>
        <time>2017-02-17T15:07:55Z</time>
      </trkpt>
      <trkpt lat="44.26741" lon="3.21095">
        <ele>906.2</ele>
        <time>2017-02-17T15:07:56Z</time>
      </trkpt>
      <trkpt lat="44.26737" lon="3.21095">
        <ele>906.3</ele>
        <time>2017-02-17T15:07:57Z</time>
      </trkpt>
      <trkpt lat="44.26734" lon="3.21095">
        <ele>906.5</ele>
        <time>2017-02-17T15:07:58Z</time>
      </trkpt>
      <trkpt lat="44.26731" lon="3.21096">
        <ele>906.7</ele>
        <time>2017-02-17T15:07:59Z</time>
      </trkpt>
      <trkpt lat="44.26726" lon="3.21098">
        <ele>907.1</ele>
        <time>2017-02-17T15:08:01Z</time>
      </trkpt>
      <trkpt lat="44.26721" lon="3.211">
        <ele>907.4</ele>
        <time>2017-02-17T15:08:03Z</time>
      </trkpt>
      <trkpt lat="44.26718" lon="3.21101">
        <ele>907.6</ele>
        <time>2017-02-17T15:08:04Z</time>
      </trkpt>
      <trkpt lat="44.26714" lon="3.21102">
        <ele>907.8</ele>
        <time>2017-02-17T15:08:06Z</time>
      </trkpt>
      <trkpt lat="44.2671" lon="3.21103">
        <ele>907.8</ele>
        <time>2017-02-17T15:08:08Z</time>
      </trkpt>
      <trkpt lat="44.26705" lon="3.21104">
        <ele>907.9</ele>
        <time>2017-02-17T15:08:10Z</time>
      </trkpt>
      <trkpt lat="44.267" lon="3.21104">
        <ele>908</ele>
        <time>2017-02-17T15:08:12Z</time>
      </trkpt>
      <trkpt lat="44.26697" lon="3.21103">
        <ele>908</ele>
        <time>2017-02-17T15:08:13Z</time>
      </trkpt>
      <trkpt lat="44.26693" lon="3.21103">
        <ele>908</ele>
        <time>2017-02-17T15:08:14Z</time>
      </trkpt>
      <trkpt lat="44.2669" lon="3.21103">
        <ele>908</ele>
        <time>2017-02-17T15:08:15Z</time>
      </trkpt>
      <trkpt lat="44.26686" lon="3.21103">
        <ele>908</ele>
        <time>2017-02-17T15:08:16Z</time>
      </trkpt>
      <trkpt lat="44.26681" lon="3.21102">
        <ele>908</ele>
        <time>2017-02-17T15:08:18Z</time>
      </trkpt>
      <trkpt lat="44.26679" lon="3.211">
        <ele>908</ele>
        <time>2017-02-17T15:08:19Z</time>
      </trkpt>
      <trkpt lat="44.26676" lon="3.21099">
        <ele>908</ele>
        <time>2017-02-17T15:08:20Z</time>
      </trkpt>
      <trkpt lat="44.26673" lon="3.21097">
        <ele>908</ele>
        <time>2017-02-17T15:08:21Z</time>
      </trkpt>
      <trkpt lat="44.26669" lon="3.21097">
        <ele>908</ele>
        <time>2017-02-17T15:08:22Z</time>
      </trkpt>
      <trkpt lat="44.26666" lon="3.21099">
        <ele>908</ele>
        <time>2017-02-17T15:08:24Z</time>
      </trkpt>
      <trkpt lat="44.26663" lon="3.211">
        <ele>908</ele>
        <time>2017-02-17T15:08:25Z</time>
      </trkpt>
      <trkpt lat="44.2666" lon="3.21102">
        <ele>908</ele>
        <time>2017-02-17T15:08:26Z</time>
      </trkpt>
      <trkpt lat="44.26656" lon="3.21104">
        <ele>908</ele>
        <time>2017-02-17T15:08:27Z</time>
      </trkpt>
      <trkpt lat="44.26651" lon="3.21107">
        <ele>907.9</ele>
        <time>2017-02-17T15:08:28Z</time>
      </trkpt>
      <trkpt lat="44.26645" lon="3.21111">
        <ele>907.9</ele>
        <time>2017-02-17T15:08:29Z</time>
      </trkpt>
      <trkpt lat="44.2664" lon="3.21115">
        <ele>907.9</ele>
        <time>2017-02-17T15:08:30Z</time>
      </trkpt>
      <trkpt lat="44.26636" lon="3.21118">
        <ele>907.8</ele>
        <time>2017-02-17T15:08:31Z</time>
      </trkpt>
      <trkpt lat="44.26632" lon="3.2112">
        <ele>907.8</ele>
        <time>2017-02-17T15:08:32Z</time>
      </trkpt>
      <trkpt lat="44.26627" lon="3.21122">
        <ele>907.7</ele>
        <time>2017-02-17T15:08:33Z</time>
      </trkpt>
      <trkpt lat="44.26622" lon="3.2112">
        <ele>907.6</ele>
        <time>2017-02-17T15:08:34Z</time>
      </trkpt>
      <trkpt lat="44.26616" lon="3.21117">
        <ele>907.5</ele>
        <time>2017-02-17T15:08:35Z</time>
      </trkpt>
      <trkpt lat="44.26611" lon="3.21114">
        <ele>907.4</ele>
        <time>2017-02-17T15:08:36Z</time>
      </trkpt>
      <trkpt lat="44.26605" lon="3.21112">
        <ele>907.2</ele>
        <time>2017-02-17T15:08:37Z</time>
      </trkpt>
      <trkpt lat="44.26599" lon="3.21111">
        <ele>907.1</ele>
        <time>2017-02-17T15:08:38Z</time>
      </trkpt>
      <trkpt lat="44.26597" lon="3.2111">
        <ele>907</ele>
        <time>2017-02-17T15:08:39Z</time>
      </trkpt>
      <trkpt lat="44.26593" lon="3.21109">
        <ele>906.9</ele>
        <time>2017-02-17T15:08:40Z</time>
      </trkpt>
      <trkpt lat="44.26589" lon="3.21107">
        <ele>906.7</ele>
        <time>2017-02-17T15:08:41Z</time>
      </trkpt>
      <trkpt lat="44.26577" lon="3.21108">
        <ele>904.5</ele>
        <time>2017-02-17T15:08:43Z</time>
      </trkpt>
      <trkpt lat="44.26561" lon="3.21122">
        <ele>900.5</ele>
        <time>2017-02-17T15:08:45Z</time>
      </trkpt>
      <trkpt lat="44.26554" lon="3.21133">
        <ele>897.7</ele>
        <time>2017-02-17T15:08:46Z</time>
      </trkpt>
      <trkpt lat="44.26542" lon="3.21145">
        <ele>894.9</ele>
        <time>2017-02-17T15:08:47Z</time>
      </trkpt>
      <trkpt lat="44.26536" lon="3.21154">
        <ele>894.1</ele>
        <time>2017-02-17T15:08:48Z</time>
      </trkpt>
      <trkpt lat="44.26528" lon="3.21163">
        <ele>893.6</ele>
        <time>2017-02-17T15:08:49Z</time>
      </trkpt>
      <trkpt lat="44.26521" lon="3.21174">
        <ele>892.7</ele>
        <time>2017-02-17T15:08:50Z</time>
      </trkpt>
      <trkpt lat="44.26514" lon="3.21186">
        <ele>893</ele>
        <time>2017-02-17T15:08:51Z</time>
      </trkpt>
      <trkpt lat="44.26507" lon="3.21202">
        <ele>893.5</ele>
        <time>2017-02-17T15:08:52Z</time>
      </trkpt>
      <trkpt lat="44.265" lon="3.21213">
        <ele>893.2</ele>
        <time>2017-02-17T15:08:53Z</time>
      </trkpt>
      <trkpt lat="44.26492" lon="3.21224">
        <ele>892.5</ele>
        <time>2017-02-17T15:08:54Z</time>
      </trkpt>
      <trkpt lat="44.26486" lon="3.21234">
        <ele>892.1</ele>
        <time>2017-02-17T15:08:55Z</time>
      </trkpt>
      <trkpt lat="44.26483" lon="3.21241">
        <ele>891.8</ele>
        <time>2017-02-17T15:08:56Z</time>
      </trkpt>
      <trkpt lat="44.26479" lon="3.21248">
        <ele>891.4</ele>
        <time>2017-02-17T15:08:57Z</time>
      </trkpt>
      <trkpt lat="44.26473" lon="3.21257">
        <ele>890.9</ele>
        <time>2017-02-17T15:08:58Z</time>
      </trkpt>
      <trkpt lat="44.26466" lon="3.21264">
        <ele>890.6</ele>
        <time>2017-02-17T15:08:59Z</time>
      </trkpt>
      <trkpt lat="44.2646" lon="3.2127">
        <ele>890.6</ele>
        <time>2017-02-17T15:09:00Z</time>
      </trkpt>
      <trkpt lat="44.26455" lon="3.21275">
        <ele>890.5</ele>
        <time>2017-02-17T15:09:01Z</time>
      </trkpt>
      <trkpt lat="44.26429" lon="3.213">
        <ele>891.8</ele>
        <time>2017-02-17T15:09:05Z</time>
      </trkpt>
      <trkpt lat="44.26421" lon="3.21306">
        <ele>892.5</ele>
        <time>2017-02-17T15:09:08Z</time>
      </trkpt>
      <trkpt lat="44.26417" lon="3.2131">
        <ele>892.9</ele>
        <time>2017-02-17T15:09:09Z</time>
      </trkpt>
      <trkpt lat="44.26413" lon="3.21317">
        <ele>894</ele>
        <time>2017-02-17T15:09:10Z</time>
      </trkpt>
      <trkpt lat="44.26412" lon="3.21325">
        <ele>894.3</ele>
        <time>2017-02-17T15:09:11Z</time>
      </trkpt>
      <trkpt lat="44.26411" lon="3.21334">
        <ele>894.4</ele>
        <time>2017-02-17T15:09:12Z</time>
      </trkpt>
      <trkpt lat="44.26409" lon="3.21361">
        <ele>895.8</ele>
        <time>2017-02-17T15:09:16Z</time>
      </trkpt>
      <trkpt lat="44.26408" lon="3.21369">
        <ele>895.8</ele>
        <time>2017-02-17T15:09:17Z</time>
      </trkpt>
      <trkpt lat="44.26407" lon="3.21378">
        <ele>895.9</ele>
        <time>2017-02-17T15:09:18Z</time>
      </trkpt>
      <trkpt lat="44.26406" lon="3.21387">
        <ele>896.1</ele>
        <time>2017-02-17T15:09:19Z</time>
      </trkpt>
      <trkpt lat="44.26404" lon="3.21396">
        <ele>896.2</ele>
        <time>2017-02-17T15:09:20Z</time>
      </trkpt>
      <trkpt lat="44.26402" lon="3.21405">
        <ele>896.7</ele>
        <time>2017-02-17T15:09:21Z</time>
      </trkpt>
      <trkpt lat="44.264" lon="3.2141">
        <ele>896.9</ele>
        <time>2017-02-17T15:09:22Z</time>
      </trkpt>
      <trkpt lat="44.26397" lon="3.21409">
        <ele>897.1</ele>
        <time>2017-02-17T15:09:23Z</time>
      </trkpt>
      <trkpt lat="44.26391" lon="3.21411">
        <ele>897.3</ele>
        <time>2017-02-17T15:09:25Z</time>
      </trkpt>
      <trkpt lat="44.26388" lon="3.21414">
        <ele>897.4</ele>
        <time>2017-02-17T15:09:26Z</time>
      </trkpt>
      <trkpt lat="44.26384" lon="3.21419">
        <ele>897.5</ele>
        <time>2017-02-17T15:09:27Z</time>
      </trkpt>
      <trkpt lat="44.26382" lon="3.21422">
        <ele>897.5</ele>
        <time>2017-02-17T15:09:28Z</time>
      </trkpt>
      <trkpt lat="44.26378" lon="3.21427">
        <ele>897.6</ele>
        <time>2017-02-17T15:09:29Z</time>
      </trkpt>
      <trkpt lat="44.26375" lon="3.21433">
        <ele>897.6</ele>
        <time>2017-02-17T15:09:30Z</time>
      </trkpt>
      <trkpt lat="44.26372" lon="3.21442">
        <ele>897.6</ele>
        <time>2017-02-17T15:09:31Z</time>
      </trkpt>
      <trkpt lat="44.26369" lon="3.21448">
        <ele>897.7</ele>
        <time>2017-02-17T15:09:32Z</time>
      </trkpt>
      <trkpt lat="44.26365" lon="3.21453">
        <ele>897.7</ele>
        <time>2017-02-17T15:09:33Z</time>
      </trkpt>
      <trkpt lat="44.26362" lon="3.21457">
        <ele>897.7</ele>
        <time>2017-02-17T15:09:34Z</time>
      </trkpt>
      <trkpt lat="44.26358" lon="3.21461">
        <ele>897.7</ele>
        <time>2017-02-17T15:09:35Z</time>
      </trkpt>
      <trkpt lat="44.26355" lon="3.21466">
        <ele>897.7</ele>
        <time>2017-02-17T15:09:36Z</time>
      </trkpt>
      <trkpt lat="44.26353" lon="3.21473">
        <ele>897.7</ele>
        <time>2017-02-17T15:09:37Z</time>
      </trkpt>
      <trkpt lat="44.2635" lon="3.2148">
        <ele>897.8</ele>
        <time>2017-02-17T15:09:38Z</time>
      </trkpt>
      <trkpt lat="44.26346" lon="3.21488">
        <ele>897.8</ele>
        <time>2017-02-17T15:09:39Z</time>
      </trkpt>
      <trkpt lat="44.26342" lon="3.21495">
        <ele>897.7</ele>
        <time>2017-02-17T15:09:40Z</time>
      </trkpt>
      <trkpt lat="44.26339" lon="3.21502">
        <ele>897.7</ele>
        <time>2017-02-17T15:09:41Z</time>
      </trkpt>
      <trkpt lat="44.26334" lon="3.2151">
        <ele>897.7</ele>
        <time>2017-02-17T15:09:42Z</time>
      </trkpt>
      <trkpt lat="44.26332" lon="3.21516">
        <ele>897.7</ele>
        <time>2017-02-17T15:09:43Z</time>
      </trkpt>
      <trkpt lat="44.26329" lon="3.21522">
        <ele>897.6</ele>
        <time>2017-02-17T15:09:44Z</time>
      </trkpt>
      <trkpt lat="44.26329" lon="3.21526">
        <ele>897.6</ele>
        <time>2017-02-17T15:09:45Z</time>
      </trkpt>
      <trkpt lat="44.26324" lon="3.21542">
        <ele>897.4</ele>
        <time>2017-02-17T15:09:48Z</time>
      </trkpt>
      <trkpt lat="44.26319" lon="3.21549">
        <ele>897.2</ele>
        <time>2017-02-17T15:09:49Z</time>
      </trkpt>
      <trkpt lat="44.26313" lon="3.21554">
        <ele>897</ele>
        <time>2017-02-17T15:09:50Z</time>
      </trkpt>
      <trkpt lat="44.26306" lon="3.2156">
        <ele>896.5</ele>
        <time>2017-02-17T15:09:51Z</time>
      </trkpt>
      <trkpt lat="44.26299" lon="3.21563">
        <ele>896.1</ele>
        <time>2017-02-17T15:09:52Z</time>
      </trkpt>
      <trkpt lat="44.26294" lon="3.21567">
        <ele>895.7</ele>
        <time>2017-02-17T15:09:53Z</time>
      </trkpt>
      <trkpt lat="44.26288" lon="3.21571">
        <ele>895.4</ele>
        <time>2017-02-17T15:09:54Z</time>
      </trkpt>
      <trkpt lat="44.2628" lon="3.21577">
        <ele>895</ele>
        <time>2017-02-17T15:09:55Z</time>
      </trkpt>
      <trkpt lat="44.26271" lon="3.21587">
        <ele>894.1</ele>
        <time>2017-02-17T15:09:56Z</time>
      </trkpt>
      <trkpt lat="44.26268" lon="3.21601">
        <ele>893.4</ele>
        <time>2017-02-17T15:09:57Z</time>
      </trkpt>
      <trkpt lat="44.26266" lon="3.21613">
        <ele>892.7</ele>
        <time>2017-02-17T15:09:58Z</time>
      </trkpt>
      <trkpt lat="44.26266" lon="3.21625">
        <ele>892.1</ele>
        <time>2017-02-17T15:09:59Z</time>
      </trkpt>
      <trkpt lat="44.26267" lon="3.21635">
        <ele>891.6</ele>
        <time>2017-02-17T15:10:00Z</time>
      </trkpt>
      <trkpt lat="44.26267" lon="3.21644">
        <ele>891.1</ele>
        <time>2017-02-17T15:10:01Z</time>
      </trkpt>
      <trkpt lat="44.26264" lon="3.21649">
        <ele>890.6</ele>
        <time>2017-02-17T15:10:02Z</time>
      </trkpt>
      <trkpt lat="44.26262" lon="3.21653">
        <ele>890.3</ele>
        <time>2017-02-17T15:10:03Z</time>
      </trkpt>
      <trkpt lat="44.2626" lon="3.21658">
        <ele>890</ele>
        <time>2017-02-17T15:10:04Z</time>
      </trkpt>
      <trkpt lat="44.26254" lon="3.21659">
        <ele>889.6</ele>
        <time>2017-02-17T15:10:05Z</time>
      </trkpt>
      <trkpt lat="44.26246" lon="3.2166">
        <ele>889</ele>
        <time>2017-02-17T15:10:06Z</time>
      </trkpt>
      <trkpt lat="44.26239" lon="3.21661">
        <ele>888.4</ele>
        <time>2017-02-17T15:10:07Z</time>
      </trkpt>
      <trkpt lat="44.26232" lon="3.21662">
        <ele>887.7</ele>
        <time>2017-02-17T15:10:08Z</time>
      </trkpt>
      <trkpt lat="44.26225" lon="3.21664">
        <ele>887</ele>
        <time>2017-02-17T15:10:09Z</time>
      </trkpt>
      <trkpt lat="44.26219" lon="3.21668">
        <ele>886.3</ele>
        <time>2017-02-17T15:10:10Z</time>
      </trkpt>
      <trkpt lat="44.26215" lon="3.21672">
        <ele>885.9</ele>
        <time>2017-02-17T15:10:11Z</time>
      </trkpt>
      <trkpt lat="44.2621" lon="3.21672">
        <ele>885.6</ele>
        <time>2017-02-17T15:10:12Z</time>
      </trkpt>
      <trkpt lat="44.26206" lon="3.21672">
        <ele>885.4</ele>
        <time>2017-02-17T15:10:13Z</time>
      </trkpt>
      <trkpt lat="44.26201" lon="3.21671">
        <ele>885.2</ele>
        <time>2017-02-17T15:10:14Z</time>
      </trkpt>
      <trkpt lat="44.26199" lon="3.21666">
        <ele>885.1</ele>
        <time>2017-02-17T15:10:15Z</time>
      </trkpt>
      <trkpt lat="44.26202" lon="3.21645">
        <ele>884.5</ele>
        <time>2017-02-17T15:10:19Z</time>
      </trkpt>
      <trkpt lat="44.26204" lon="3.2164">
        <ele>884.2</ele>
        <time>2017-02-17T15:10:20Z</time>
      </trkpt>
      <trkpt lat="44.26203" lon="3.21632">
        <ele>883.8</ele>
        <time>2017-02-17T15:10:21Z</time>
      </trkpt>
      <trkpt lat="44.26201" lon="3.21623">
        <ele>883.2</ele>
        <time>2017-02-17T15:10:22Z</time>
      </trkpt>
      <trkpt lat="44.26197" lon="3.21615">
        <ele>882.6</ele>
        <time>2017-02-17T15:10:23Z</time>
      </trkpt>
      <trkpt lat="44.26193" lon="3.21605">
        <ele>881.9</ele>
        <time>2017-02-17T15:10:24Z</time>
      </trkpt>
      <trkpt lat="44.26191" lon="3.21598">
        <ele>881.4</ele>
        <time>2017-02-17T15:10:25Z</time>
      </trkpt>
      <trkpt lat="44.26186" lon="3.21593">
        <ele>880.8</ele>
        <time>2017-02-17T15:10:26Z</time>
      </trkpt>
      <trkpt lat="44.26185" lon="3.21588">
        <ele>880.4</ele>
        <time>2017-02-17T15:10:27Z</time>
      </trkpt>
      <trkpt lat="44.26184" lon="3.21583">
        <ele>880</ele>
        <time>2017-02-17T15:10:28Z</time>
      </trkpt>
      <trkpt lat="44.26184" lon="3.21578">
        <ele>879.6</ele>
        <time>2017-02-17T15:10:29Z</time>
      </trkpt>
      <trkpt lat="44.26183" lon="3.21571">
        <ele>879</ele>
        <time>2017-02-17T15:10:30Z</time>
      </trkpt>
      <trkpt lat="44.26179" lon="3.21568">
        <ele>878.4</ele>
        <time>2017-02-17T15:10:31Z</time>
      </trkpt>
      <trkpt lat="44.26174" lon="3.21568">
        <ele>877.6</ele>
        <time>2017-02-17T15:10:32Z</time>
      </trkpt>
      <trkpt lat="44.26167" lon="3.21571">
        <ele>877</ele>
        <time>2017-02-17T15:10:33Z</time>
      </trkpt>
      <trkpt lat="44.26161" lon="3.21576">
        <ele>876.6</ele>
        <time>2017-02-17T15:10:34Z</time>
      </trkpt>
      <trkpt lat="44.26155" lon="3.2158">
        <ele>876.3</ele>
        <time>2017-02-17T15:10:35Z</time>
      </trkpt>
      <trkpt lat="44.2615" lon="3.21587">
        <ele>875.9</ele>
        <time>2017-02-17T15:10:36Z</time>
      </trkpt>
      <trkpt lat="44.26146" lon="3.21595">
        <ele>875.4</ele>
        <time>2017-02-17T15:10:37Z</time>
      </trkpt>
      <trkpt lat="44.26143" lon="3.21604">
        <ele>875</ele>
        <time>2017-02-17T15:10:38Z</time>
      </trkpt>
      <trkpt lat="44.26142" lon="3.2161">
        <ele>874.7</ele>
        <time>2017-02-17T15:10:39Z</time>
      </trkpt>
      <trkpt lat="44.26141" lon="3.21618">
        <ele>874.3</ele>
        <time>2017-02-17T15:10:40Z</time>
      </trkpt>
      <trkpt lat="44.26139" lon="3.21629">
        <ele>873.6</ele>
        <time>2017-02-17T15:10:41Z</time>
      </trkpt>
      <trkpt lat="44.26136" lon="3.21641">
        <ele>872.8</ele>
        <time>2017-02-17T15:10:42Z</time>
      </trkpt>
      <trkpt lat="44.26131" lon="3.21653">
        <ele>871.9</ele>
        <time>2017-02-17T15:10:43Z</time>
      </trkpt>
      <trkpt lat="44.26126" lon="3.21664">
        <ele>871.1</ele>
        <time>2017-02-17T15:10:44Z</time>
      </trkpt>
      <trkpt lat="44.26122" lon="3.21675">
        <ele>870.3</ele>
        <time>2017-02-17T15:10:45Z</time>
      </trkpt>
      <trkpt lat="44.26117" lon="3.21685">
        <ele>869.5</ele>
        <time>2017-02-17T15:10:46Z</time>
      </trkpt>
      <trkpt lat="44.26111" lon="3.21698">
        <ele>868.5</ele>
        <time>2017-02-17T15:10:47Z</time>
      </trkpt>
      <trkpt lat="44.26103" lon="3.2171">
        <ele>867.5</ele>
        <time>2017-02-17T15:10:48Z</time>
      </trkpt>
      <trkpt lat="44.26093" lon="3.2172">
        <ele>866.5</ele>
        <time>2017-02-17T15:10:49Z</time>
      </trkpt>
      <trkpt lat="44.26082" lon="3.21726">
        <ele>865.5</ele>
        <time>2017-02-17T15:10:50Z</time>
      </trkpt>
      <trkpt lat="44.26073" lon="3.21731">
        <ele>864.7</ele>
        <time>2017-02-17T15:10:51Z</time>
      </trkpt>
      <trkpt lat="44.26065" lon="3.21737">
        <ele>863.9</ele>
        <time>2017-02-17T15:10:52Z</time>
      </trkpt>
      <trkpt lat="44.26057" lon="3.21748">
        <ele>863</ele>
        <time>2017-02-17T15:10:53Z</time>
      </trkpt>
      <trkpt lat="44.2605" lon="3.21759">
        <ele>862.2</ele>
        <time>2017-02-17T15:10:54Z</time>
      </trkpt>
      <trkpt lat="44.26042" lon="3.21766">
        <ele>861.5</ele>
        <time>2017-02-17T15:10:55Z</time>
      </trkpt>
      <trkpt lat="44.26034" lon="3.21775">
        <ele>860.7</ele>
        <time>2017-02-17T15:10:56Z</time>
      </trkpt>
      <trkpt lat="44.26026" lon="3.21786">
        <ele>860</ele>
        <time>2017-02-17T15:10:57Z</time>
      </trkpt>
      <trkpt lat="44.26018" lon="3.21795">
        <ele>859.3</ele>
        <time>2017-02-17T15:10:58Z</time>
      </trkpt>
      <trkpt lat="44.26011" lon="3.21801">
        <ele>858.8</ele>
        <time>2017-02-17T15:10:59Z</time>
      </trkpt>
      <trkpt lat="44.26005" lon="3.21806">
        <ele>858.3</ele>
        <time>2017-02-17T15:11:00Z</time>
      </trkpt>
      <trkpt lat="44.25997" lon="3.21813">
        <ele>857.6</ele>
        <time>2017-02-17T15:11:01Z</time>
      </trkpt>
      <trkpt lat="44.25988" lon="3.2182">
        <ele>856.8</ele>
        <time>2017-02-17T15:11:02Z</time>
      </trkpt>
      <trkpt lat="44.25979" lon="3.21823">
        <ele>856.1</ele>
        <time>2017-02-17T15:11:03Z</time>
      </trkpt>
      <trkpt lat="44.2597" lon="3.21827">
        <ele>855.4</ele>
        <time>2017-02-17T15:11:04Z</time>
      </trkpt>
      <trkpt lat="44.25963" lon="3.21831">
        <ele>854.7</ele>
        <time>2017-02-17T15:11:05Z</time>
      </trkpt>
      <trkpt lat="44.25956" lon="3.21836">
        <ele>854</ele>
        <time>2017-02-17T15:11:06Z</time>
      </trkpt>
      <trkpt lat="44.25948" lon="3.21842">
        <ele>853.2</ele>
        <time>2017-02-17T15:11:07Z</time>
      </trkpt>
      <trkpt lat="44.2594" lon="3.21847">
        <ele>852.5</ele>
        <time>2017-02-17T15:11:08Z</time>
      </trkpt>
      <trkpt lat="44.25933" lon="3.21849">
        <ele>851.9</ele>
        <time>2017-02-17T15:11:09Z</time>
      </trkpt>
      <trkpt lat="44.25926" lon="3.21851">
        <ele>851.4</ele>
        <time>2017-02-17T15:11:10Z</time>
      </trkpt>
      <trkpt lat="44.25817" lon="3.21796">
        <ele>843.2</ele>
        <time>2017-02-17T15:11:45Z</time>
      </trkpt>
      <trkpt lat="44.25821" lon="3.2183">
        <ele>843.7</ele>
        <time>2017-02-17T15:11:47Z</time>
      </trkpt>
      <trkpt lat="44.25782" lon="3.21828">
        <ele>844.8</ele>
        <time>2017-02-17T15:11:50Z</time>
      </trkpt>
      <trkpt lat="44.25767" lon="3.21833">
        <ele>845.5</ele>
        <time>2017-02-17T15:11:57Z</time>
      </trkpt>
      <trkpt lat="44.25762" lon="3.21831">
        <ele>845.3</ele>
        <time>2017-02-17T15:11:58Z</time>
      </trkpt>
      <trkpt lat="44.25756" lon="3.21829">
        <ele>845.4</ele>
        <time>2017-02-17T15:11:59Z</time>
      </trkpt>
      <trkpt lat="44.25752" lon="3.21828">
        <ele>845.5</ele>
        <time>2017-02-17T15:12:01Z</time>
      </trkpt>
      <trkpt lat="44.25756" lon="3.21829">
        <ele>844.6</ele>
        <time>2017-02-17T15:12:02Z</time>
      </trkpt>
      <trkpt lat="44.25759" lon="3.21829">
        <ele>843.9</ele>
        <time>2017-02-17T15:12:03Z</time>
      </trkpt>
      <trkpt lat="44.25762" lon="3.21827">
        <ele>843.2</ele>
        <time>2017-02-17T15:12:04Z</time>
      </trkpt>
      <trkpt lat="44.25758" lon="3.21822">
        <ele>843.2</ele>
        <time>2017-02-17T15:12:06Z</time>
      </trkpt>
      <trkpt lat="44.25756" lon="3.21817">
        <ele>843.1</ele>
        <time>2017-02-17T15:12:07Z</time>
      </trkpt>
      <trkpt lat="44.25755" lon="3.2181">
        <ele>843.1</ele>
        <time>2017-02-17T15:12:08Z</time>
      </trkpt>
      <trkpt lat="44.25754" lon="3.218">
        <ele>843.1</ele>
        <time>2017-02-17T15:12:10Z</time>
      </trkpt>
      <trkpt lat="44.25751" lon="3.21795">
        <ele>843.1</ele>
        <time>2017-02-17T15:12:11Z</time>
      </trkpt>
      <trkpt lat="44.25746" lon="3.21792">
        <ele>843.1</ele>
        <time>2017-02-17T15:12:12Z</time>
      </trkpt>
      <trkpt lat="44.25742" lon="3.21788">
        <ele>843.1</ele>
        <time>2017-02-17T15:12:13Z</time>
      </trkpt>
      <trkpt lat="44.25739" lon="3.21783">
        <ele>843</ele>
        <time>2017-02-17T15:12:14Z</time>
      </trkpt>
      <trkpt lat="44.25732" lon="3.21777">
        <ele>843</ele>
        <time>2017-02-17T15:12:15Z</time>
      </trkpt>
      <trkpt lat="44.25726" lon="3.2177">
        <ele>843</ele>
        <time>2017-02-17T15:12:17Z</time>
      </trkpt>
      <trkpt lat="44.25722" lon="3.21765">
        <ele>843.1</ele>
        <time>2017-02-17T15:12:18Z</time>
      </trkpt>
      <trkpt lat="44.25721" lon="3.21758">
        <ele>843.3</ele>
        <time>2017-02-17T15:12:19Z</time>
      </trkpt>
      <trkpt lat="44.25718" lon="3.21755">
        <ele>843.3</ele>
        <time>2017-02-17T15:12:20Z</time>
      </trkpt>
      <trkpt lat="44.25697" lon="3.21769">
        <ele>843.9</ele>
        <time>2017-02-17T15:12:24Z</time>
      </trkpt>
      <trkpt lat="44.25687" lon="3.21773">
        <ele>844.1</ele>
        <time>2017-02-17T15:12:25Z</time>
      </trkpt>
      <trkpt lat="44.2568" lon="3.21778">
        <ele>844.2</ele>
        <time>2017-02-17T15:12:26Z</time>
      </trkpt>
      <trkpt lat="44.25659" lon="3.21787">
        <ele>843.8</ele>
        <time>2017-02-17T15:12:30Z</time>
      </trkpt>
      <trkpt lat="44.25655" lon="3.21787">
        <ele>843.6</ele>
        <time>2017-02-17T15:12:31Z</time>
      </trkpt>
      <trkpt lat="44.25649" lon="3.21787">
        <ele>843.5</ele>
        <time>2017-02-17T15:12:32Z</time>
      </trkpt>
      <trkpt lat="44.25642" lon="3.21787">
        <ele>843.5</ele>
        <time>2017-02-17T15:12:33Z</time>
      </trkpt>
      <trkpt lat="44.25634" lon="3.21786">
        <ele>843.6</ele>
        <time>2017-02-17T15:12:34Z</time>
      </trkpt>
      <trkpt lat="44.25627" lon="3.21785">
        <ele>843.8</ele>
        <time>2017-02-17T15:12:35Z</time>
      </trkpt>
      <trkpt lat="44.2562" lon="3.21784">
        <ele>844</ele>
        <time>2017-02-17T15:12:36Z</time>
      </trkpt>
      <trkpt lat="44.25612" lon="3.21782">
        <ele>844.2</ele>
        <time>2017-02-17T15:12:37Z</time>
      </trkpt>
      <trkpt lat="44.25605" lon="3.21781">
        <ele>844.4</ele>
        <time>2017-02-17T15:12:38Z</time>
      </trkpt>
      <trkpt lat="44.25597" lon="3.2178">
        <ele>844.6</ele>
        <time>2017-02-17T15:12:39Z</time>
      </trkpt>
      <trkpt lat="44.25589" lon="3.21779">
        <ele>844.8</ele>
        <time>2017-02-17T15:12:40Z</time>
      </trkpt>
      <trkpt lat="44.2558" lon="3.21778">
        <ele>845.1</ele>
        <time>2017-02-17T15:12:41Z</time>
      </trkpt>
      <trkpt lat="44.25575" lon="3.21777">
        <ele>845.5</ele>
        <time>2017-02-17T15:12:42Z</time>
      </trkpt>
      <trkpt lat="44.25571" lon="3.21776">
        <ele>845.7</ele>
        <time>2017-02-17T15:12:43Z</time>
      </trkpt>
      <trkpt lat="44.25568" lon="3.21775">
        <ele>845.8</ele>
        <time>2017-02-17T15:12:44Z</time>
      </trkpt>
      <trkpt lat="44.25564" lon="3.21774">
        <ele>846</ele>
        <time>2017-02-17T15:12:47Z</time>
      </trkpt>
      <trkpt lat="44.2556" lon="3.21775">
        <ele>846.2</ele>
        <time>2017-02-17T15:12:49Z</time>
      </trkpt>
      <trkpt lat="44.25555" lon="3.21777">
        <ele>846.5</ele>
        <time>2017-02-17T15:12:51Z</time>
      </trkpt>
      <trkpt lat="44.25551" lon="3.21777">
        <ele>846.7</ele>
        <time>2017-02-17T15:12:52Z</time>
      </trkpt>
      <trkpt lat="44.25548" lon="3.21777">
        <ele>846.8</ele>
        <time>2017-02-17T15:12:53Z</time>
      </trkpt>
      <trkpt lat="44.25546" lon="3.21778">
        <ele>846.8</ele>
        <time>2017-02-17T15:12:54Z</time>
      </trkpt>
      <trkpt lat="44.25541" lon="3.21779">
        <ele>846.8</ele>
        <time>2017-02-17T15:12:56Z</time>
      </trkpt>
      <trkpt lat="44.25535" lon="3.21778">
        <ele>846.7</ele>
        <time>2017-02-17T15:12:58Z</time>
      </trkpt>
      <trkpt lat="44.25532" lon="3.21778">
        <ele>846.6</ele>
        <time>2017-02-17T15:12:59Z</time>
      </trkpt>
      <trkpt lat="44.25528" lon="3.21777">
        <ele>846.5</ele>
        <time>2017-02-17T15:13:00Z</time>
      </trkpt>
      <trkpt lat="44.25525" lon="3.21777">
        <ele>846.5</ele>
        <time>2017-02-17T15:13:01Z</time>
      </trkpt>
      <trkpt lat="44.25521" lon="3.21776">
        <ele>846.4</ele>
        <time>2017-02-17T15:13:02Z</time>
      </trkpt>
      <trkpt lat="44.25517" lon="3.21774">
        <ele>846.4</ele>
        <time>2017-02-17T15:13:03Z</time>
      </trkpt>
      <trkpt lat="44.25512" lon="3.21774">
        <ele>846.3</ele>
        <time>2017-02-17T15:13:04Z</time>
      </trkpt>
      <trkpt lat="44.25507" lon="3.21773">
        <ele>846.3</ele>
        <time>2017-02-17T15:13:05Z</time>
      </trkpt>
      <trkpt lat="44.25502" lon="3.21773">
        <ele>846.2</ele>
        <time>2017-02-17T15:13:06Z</time>
      </trkpt>
      <trkpt lat="44.25498" lon="3.21773">
        <ele>846.2</ele>
        <time>2017-02-17T15:13:07Z</time>
      </trkpt>
      <trkpt lat="44.25495" lon="3.21773">
        <ele>846.3</ele>
        <time>2017-02-17T15:13:08Z</time>
      </trkpt>
      <trkpt lat="44.25491" lon="3.21773">
        <ele>846.3</ele>
        <time>2017-02-17T15:13:09Z</time>
      </trkpt>
      <trkpt lat="44.25486" lon="3.21773">
        <ele>846.2</ele>
        <time>2017-02-17T15:13:10Z</time>
      </trkpt>
      <trkpt lat="44.2548" lon="3.21775">
        <ele>846.1</ele>
        <time>2017-02-17T15:13:11Z</time>
      </trkpt>
      <trkpt lat="44.25476" lon="3.21774">
        <ele>846.1</ele>
        <time>2017-02-17T15:13:12Z</time>
      </trkpt>
      <trkpt lat="44.25473" lon="3.21774">
        <ele>846.1</ele>
        <time>2017-02-17T15:13:13Z</time>
      </trkpt>
      <trkpt lat="44.25469" lon="3.21773">
        <ele>846.1</ele>
        <time>2017-02-17T15:13:14Z</time>
      </trkpt>
      <trkpt lat="44.25464" lon="3.21773">
        <ele>846.2</ele>
        <time>2017-02-17T15:13:15Z</time>
      </trkpt>
      <trkpt lat="44.25461" lon="3.21773">
        <ele>846.3</ele>
        <time>2017-02-17T15:13:16Z</time>
      </trkpt>
      <trkpt lat="44.25457" lon="3.21773">
        <ele>846.4</ele>
        <time>2017-02-17T15:13:17Z</time>
      </trkpt>
      <trkpt lat="44.25454" lon="3.21772">
        <ele>846.5</ele>
        <time>2017-02-17T15:13:18Z</time>
      </trkpt>
      <trkpt lat="44.25451" lon="3.21771">
        <ele>846.6</ele>
        <time>2017-02-17T15:13:19Z</time>
      </trkpt>
      <trkpt lat="44.25449" lon="3.2177">
        <ele>846.7</ele>
        <time>2017-02-17T15:13:20Z</time>
      </trkpt>
      <trkpt lat="44.25444" lon="3.2177">
        <ele>846.8</ele>
        <time>2017-02-17T15:13:22Z</time>
      </trkpt>
      <trkpt lat="44.25441" lon="3.2177">
        <ele>847</ele>
        <time>2017-02-17T15:13:23Z</time>
      </trkpt>
      <trkpt lat="44.25437" lon="3.21768">
        <ele>847.1</ele>
        <time>2017-02-17T15:13:25Z</time>
      </trkpt>
      <trkpt lat="44.2542" lon="3.21781">
        <ele>847.8</ele>
        <time>2017-02-17T15:13:37Z</time>
      </trkpt>
      <trkpt lat="44.25417" lon="3.21782">
        <ele>847.9</ele>
        <time>2017-02-17T15:13:38Z</time>
      </trkpt>
      <trkpt lat="44.25413" lon="3.21785">
        <ele>848.5</ele>
        <time>2017-02-17T15:13:39Z</time>
      </trkpt>
      <trkpt lat="44.25411" lon="3.21788">
        <ele>848.7</ele>
        <time>2017-02-17T15:13:40Z</time>
      </trkpt>
      <trkpt lat="44.254" lon="3.21798">
        <ele>849.9</ele>
        <time>2017-02-17T15:13:55Z</time>
      </trkpt>
      <trkpt lat="44.25396" lon="3.21797">
        <ele>850.2</ele>
        <time>2017-02-17T15:13:57Z</time>
      </trkpt>
      <trkpt lat="44.25392" lon="3.21794">
        <ele>850.5</ele>
        <time>2017-02-17T15:14:01Z</time>
      </trkpt>
      <trkpt lat="44.25387" lon="3.21794">
        <ele>850.8</ele>
        <time>2017-02-17T15:14:06Z</time>
      </trkpt>
      <trkpt lat="44.2538" lon="3.21796">
        <ele>851.5</ele>
        <time>2017-02-17T15:14:10Z</time>
      </trkpt>
      <trkpt lat="44.25376" lon="3.21796">
        <ele>851.8</ele>
        <time>2017-02-17T15:14:12Z</time>
      </trkpt>
      <trkpt lat="44.25372" lon="3.21797">
        <ele>852.1</ele>
        <time>2017-02-17T15:14:14Z</time>
      </trkpt>
      <trkpt lat="44.25331" lon="3.21772">
        <ele>854.6</ele>
        <time>2017-02-17T15:15:11Z</time>
      </trkpt>
      <trkpt lat="44.25329" lon="3.2179">
        <ele>858.1</ele>
        <time>2017-02-17T15:15:47Z</time>
      </trkpt>
      <trkpt lat="44.25319" lon="3.21797">
        <ele>859.3</ele>
        <time>2017-02-17T15:15:50Z</time>
      </trkpt>
      <trkpt lat="44.25309" lon="3.21778">
        <ele>863.6</ele>
        <time>2017-02-17T15:15:55Z</time>
      </trkpt>
      <trkpt lat="44.25305" lon="3.21784">
        <ele>865.2</ele>
        <time>2017-02-17T15:15:59Z</time>
      </trkpt>
      <trkpt lat="44.25312" lon="3.21782">
        <ele>866.5</ele>
        <time>2017-02-17T15:16:02Z</time>
      </trkpt>
      <trkpt lat="44.25299" lon="3.21717">
        <ele>867.3</ele>
        <time>2017-02-17T15:17:56Z</time>
      </trkpt>
      <trkpt lat="44.25296" lon="3.21712">
        <ele>867.2</ele>
        <time>2017-02-17T15:17:58Z</time>
      </trkpt>
      <trkpt lat="44.25292" lon="3.2171">
        <ele>867.1</ele>
        <time>2017-02-17T15:18:00Z</time>
      </trkpt>
      <trkpt lat="44.25288" lon="3.21711">
        <ele>867</ele>
        <time>2017-02-17T15:18:01Z</time>
      </trkpt>
      <trkpt lat="44.25285" lon="3.21712">
        <ele>866.4</ele>
        <time>2017-02-17T15:18:02Z</time>
      </trkpt>
      <trkpt lat="44.25282" lon="3.21715">
        <ele>865.9</ele>
        <time>2017-02-17T15:18:03Z</time>
      </trkpt>
      <trkpt lat="44.2528" lon="3.21719">
        <ele>865.6</ele>
        <time>2017-02-17T15:18:04Z</time>
      </trkpt>
      <trkpt lat="44.25277" lon="3.21723">
        <ele>865.5</ele>
        <time>2017-02-17T15:18:05Z</time>
      </trkpt>
      <trkpt lat="44.25273" lon="3.21726">
        <ele>865.4</ele>
        <time>2017-02-17T15:18:06Z</time>
      </trkpt>
      <trkpt lat="44.2527" lon="3.21728">
        <ele>865.4</ele>
        <time>2017-02-17T15:18:07Z</time>
      </trkpt>
      <trkpt lat="44.25267" lon="3.21729">
        <ele>865.5</ele>
        <time>2017-02-17T15:18:09Z</time>
      </trkpt>
      <trkpt lat="44.25264" lon="3.21731">
        <ele>865.6</ele>
        <time>2017-02-17T15:18:11Z</time>
      </trkpt>
      <trkpt lat="44.25261" lon="3.21733">
        <ele>865.6</ele>
        <time>2017-02-17T15:18:13Z</time>
      </trkpt>
      <trkpt lat="44.25258" lon="3.21734">
        <ele>865.9</ele>
        <time>2017-02-17T15:18:15Z</time>
      </trkpt>
      <trkpt lat="44.25236" lon="3.21738">
        <ele>867.4</ele>
        <time>2017-02-17T15:18:25Z</time>
      </trkpt>
      <trkpt lat="44.25232" lon="3.21737">
        <ele>867.6</ele>
        <time>2017-02-17T15:18:28Z</time>
      </trkpt>
      <trkpt lat="44.25226" lon="3.21727">
        <ele>868.5</ele>
        <time>2017-02-17T15:18:33Z</time>
      </trkpt>
      <trkpt lat="44.25224" lon="3.21721">
        <ele>869.3</ele>
        <time>2017-02-17T15:18:34Z</time>
      </trkpt>
      <trkpt lat="44.2522" lon="3.21716">
        <ele>869.8</ele>
        <time>2017-02-17T15:18:36Z</time>
      </trkpt>
      <trkpt lat="44.25211" lon="3.21723">
        <ele>870.6</ele>
        <time>2017-02-17T15:18:46Z</time>
      </trkpt>
      <trkpt lat="44.25215" lon="3.21721">
        <ele>871.1</ele>
        <time>2017-02-17T15:18:51Z</time>
      </trkpt>
      <trkpt lat="44.25219" lon="3.21719">
        <ele>871.4</ele>
        <time>2017-02-17T15:18:52Z</time>
      </trkpt>
      <trkpt lat="44.25222" lon="3.21717">
        <ele>871.7</ele>
        <time>2017-02-17T15:18:53Z</time>
      </trkpt>
      <trkpt lat="44.25225" lon="3.21715">
        <ele>871.9</ele>
        <time>2017-02-17T15:18:54Z</time>
      </trkpt>
      <trkpt lat="44.25194" lon="3.21731">
        <ele>873.8</ele>
        <time>2017-02-17T15:19:03Z</time>
      </trkpt>
      <trkpt lat="44.25186" lon="3.21731">
        <ele>874</ele>
        <time>2017-02-17T15:19:04Z</time>
      </trkpt>
      <trkpt lat="44.25167" lon="3.21738">
        <ele>874.4</ele>
        <time>2017-02-17T15:19:10Z</time>
      </trkpt>
      <trkpt lat="44.25165" lon="3.2174">
        <ele>874.5</ele>
        <time>2017-02-17T15:19:12Z</time>
      </trkpt>
      <trkpt lat="44.25154" lon="3.21771">
        <ele>875.7</ele>
        <time>2017-02-17T15:19:43Z</time>
      </trkpt>
      <trkpt lat="44.25156" lon="3.21775">
        <ele>875.8</ele>
        <time>2017-02-17T15:19:45Z</time>
      </trkpt>
      <trkpt lat="44.25158" lon="3.21779">
        <ele>875.9</ele>
        <time>2017-02-17T15:19:46Z</time>
      </trkpt>
      <trkpt lat="44.25161" lon="3.21787">
        <ele>876</ele>
        <time>2017-02-17T15:19:47Z</time>
      </trkpt>
      <trkpt lat="44.25162" lon="3.21798">
        <ele>876</ele>
        <time>2017-02-17T15:19:48Z</time>
      </trkpt>
      <trkpt lat="44.25162" lon="3.21811">
        <ele>876</ele>
        <time>2017-02-17T15:19:49Z</time>
      </trkpt>
      <trkpt lat="44.25162" lon="3.21828">
        <ele>876</ele>
        <time>2017-02-17T15:19:50Z</time>
      </trkpt>
      <trkpt lat="44.25161" lon="3.21841">
        <ele>875.9</ele>
        <time>2017-02-17T15:19:51Z</time>
      </trkpt>
      <trkpt lat="44.25159" lon="3.21852">
        <ele>875.7</ele>
        <time>2017-02-17T15:19:52Z</time>
      </trkpt>
      <trkpt lat="44.25156" lon="3.21858">
        <ele>875.5</ele>
        <time>2017-02-17T15:19:53Z</time>
      </trkpt>
      <trkpt lat="44.25153" lon="3.21862">
        <ele>875.3</ele>
        <time>2017-02-17T15:19:54Z</time>
      </trkpt>
      <trkpt lat="44.2515" lon="3.21867">
        <ele>875.1</ele>
        <time>2017-02-17T15:19:55Z</time>
      </trkpt>
      <trkpt lat="44.25148" lon="3.2187">
        <ele>874.9</ele>
        <time>2017-02-17T15:19:56Z</time>
      </trkpt>
      <trkpt lat="44.25144" lon="3.21879">
        <ele>874.7</ele>
        <time>2017-02-17T15:19:57Z</time>
      </trkpt>
      <trkpt lat="44.25138" lon="3.21892">
        <ele>874.4</ele>
        <time>2017-02-17T15:19:58Z</time>
      </trkpt>
      <trkpt lat="44.25134" lon="3.21899">
        <ele>874.4</ele>
        <time>2017-02-17T15:19:59Z</time>
      </trkpt>
      <trkpt lat="44.25131" lon="3.21903">
        <ele>874.3</ele>
        <time>2017-02-17T15:20:00Z</time>
      </trkpt>
      <trkpt lat="44.25128" lon="3.21907">
        <ele>874.3</ele>
        <time>2017-02-17T15:20:01Z</time>
      </trkpt>
      <trkpt lat="44.25123" lon="3.21912">
        <ele>874.3</ele>
        <time>2017-02-17T15:20:02Z</time>
      </trkpt>
      <trkpt lat="44.25121" lon="3.21914">
        <ele>874.3</ele>
        <time>2017-02-17T15:20:05Z</time>
      </trkpt>
      <trkpt lat="44.25119" lon="3.21917">
        <ele>874.3</ele>
        <time>2017-02-17T15:20:07Z</time>
      </trkpt>
      <trkpt lat="44.25123" lon="3.21917">
        <ele>874.2</ele>
        <time>2017-02-17T15:20:08Z</time>
      </trkpt>
      <trkpt lat="44.25122" lon="3.21922">
        <ele>874.2</ele>
        <time>2017-02-17T15:20:10Z</time>
      </trkpt>
      <trkpt lat="44.25119" lon="3.21928">
        <ele>874.2</ele>
        <time>2017-02-17T15:20:11Z</time>
      </trkpt>
      <trkpt lat="44.25115" lon="3.21933">
        <ele>874.2</ele>
        <time>2017-02-17T15:20:12Z</time>
      </trkpt>
      <trkpt lat="44.25113" lon="3.21938">
        <ele>874.3</ele>
        <time>2017-02-17T15:20:13Z</time>
      </trkpt>
      <trkpt lat="44.25112" lon="3.21946">
        <ele>874.3</ele>
        <time>2017-02-17T15:20:14Z</time>
      </trkpt>
      <trkpt lat="44.25109" lon="3.21955">
        <ele>874.4</ele>
        <time>2017-02-17T15:20:15Z</time>
      </trkpt>
      <trkpt lat="44.25107" lon="3.21965">
        <ele>874.4</ele>
        <time>2017-02-17T15:20:16Z</time>
      </trkpt>
      <trkpt lat="44.25103" lon="3.21974">
        <ele>874.5</ele>
        <time>2017-02-17T15:20:17Z</time>
      </trkpt>
      <trkpt lat="44.25103" lon="3.2198">
        <ele>874.5</ele>
        <time>2017-02-17T15:20:18Z</time>
      </trkpt>
      <trkpt lat="44.25101" lon="3.21982">
        <ele>874.6</ele>
        <time>2017-02-17T15:20:22Z</time>
      </trkpt>
      <trkpt lat="44.25098" lon="3.21982">
        <ele>874.7</ele>
        <time>2017-02-17T15:20:23Z</time>
      </trkpt>
      <trkpt lat="44.25092" lon="3.21981">
        <ele>874.8</ele>
        <time>2017-02-17T15:20:25Z</time>
      </trkpt>
      <trkpt lat="44.25089" lon="3.21981">
        <ele>874.9</ele>
        <time>2017-02-17T15:20:26Z</time>
      </trkpt>
      <trkpt lat="44.25083" lon="3.21979">
        <ele>875.4</ele>
        <time>2017-02-17T15:20:27Z</time>
      </trkpt>
      <trkpt lat="44.2508" lon="3.21977">
        <ele>875.9</ele>
        <time>2017-02-17T15:20:28Z</time>
      </trkpt>
      <trkpt lat="44.25076" lon="3.21975">
        <ele>876.4</ele>
        <time>2017-02-17T15:20:29Z</time>
      </trkpt>
      <trkpt lat="44.25073" lon="3.21975">
        <ele>876.9</ele>
        <time>2017-02-17T15:20:31Z</time>
      </trkpt>
      <trkpt lat="44.2507" lon="3.21975">
        <ele>877.2</ele>
        <time>2017-02-17T15:20:33Z</time>
      </trkpt>
      <trkpt lat="44.25065" lon="3.21978">
        <ele>878</ele>
        <time>2017-02-17T15:20:41Z</time>
      </trkpt>
      <trkpt lat="44.25033" lon="3.21952">
        <ele>881.4</ele>
        <time>2017-02-17T15:20:57Z</time>
      </trkpt>
      <trkpt lat="44.25027" lon="3.21952">
        <ele>881.7</ele>
        <time>2017-02-17T15:20:58Z</time>
      </trkpt>
      <trkpt lat="44.2502" lon="3.21948">
        <ele>882.8</ele>
        <time>2017-02-17T15:20:59Z</time>
      </trkpt>
      <trkpt lat="44.25016" lon="3.21947">
        <ele>883.5</ele>
        <time>2017-02-17T15:21:00Z</time>
      </trkpt>
      <trkpt lat="44.25012" lon="3.21947">
        <ele>884.3</ele>
        <time>2017-02-17T15:21:01Z</time>
      </trkpt>
      <trkpt lat="44.25017" lon="3.2195">
        <ele>885.1</ele>
        <time>2017-02-17T15:21:04Z</time>
      </trkpt>
      <trkpt lat="44.25015" lon="3.21956">
        <ele>885.4</ele>
        <time>2017-02-17T15:21:06Z</time>
      </trkpt>
      <trkpt lat="44.25012" lon="3.21961">
        <ele>885.8</ele>
        <time>2017-02-17T15:21:08Z</time>
      </trkpt>
      <trkpt lat="44.25009" lon="3.21963">
        <ele>886.3</ele>
        <time>2017-02-17T15:21:10Z</time>
      </trkpt>
      <trkpt lat="44.25006" lon="3.21966">
        <ele>886.8</ele>
        <time>2017-02-17T15:21:12Z</time>
      </trkpt>
      <trkpt lat="44.25002" lon="3.21969">
        <ele>887</ele>
        <time>2017-02-17T15:21:14Z</time>
      </trkpt>
      <trkpt lat="44.25008" lon="3.21967">
        <ele>887.4</ele>
        <time>2017-02-17T15:21:19Z</time>
      </trkpt>
      <trkpt lat="44.25004" lon="3.21968">
        <ele>887.6</ele>
        <time>2017-02-17T15:21:23Z</time>
      </trkpt>
      <trkpt lat="44.25" lon="3.21968">
        <ele>888</ele>
        <time>2017-02-17T15:21:24Z</time>
      </trkpt>
      <trkpt lat="44.24995" lon="3.21968">
        <ele>888.4</ele>
        <time>2017-02-17T15:21:25Z</time>
      </trkpt>
      <trkpt lat="44.24993" lon="3.21969">
        <ele>888.6</ele>
        <time>2017-02-17T15:21:26Z</time>
      </trkpt>
      <trkpt lat="44.24988" lon="3.21969">
        <ele>889</ele>
        <time>2017-02-17T15:21:28Z</time>
      </trkpt>
      <trkpt lat="44.24982" lon="3.21969">
        <ele>889.1</ele>
        <time>2017-02-17T15:21:30Z</time>
      </trkpt>
      <trkpt lat="44.24978" lon="3.21969">
        <ele>889.2</ele>
        <time>2017-02-17T15:21:33Z</time>
      </trkpt>
      <trkpt lat="44.24976" lon="3.21966">
        <ele>889.2</ele>
        <time>2017-02-17T15:21:36Z</time>
      </trkpt>
      <trkpt lat="44.24972" lon="3.21965">
        <ele>889.2</ele>
        <time>2017-02-17T15:21:40Z</time>
      </trkpt>
      <trkpt lat="44.24968" lon="3.21967">
        <ele>889.3</ele>
        <time>2017-02-17T15:21:43Z</time>
      </trkpt>
      <trkpt lat="44.24964" lon="3.2197">
        <ele>889.4</ele>
        <time>2017-02-17T15:21:45Z</time>
      </trkpt>
      <trkpt lat="44.24961" lon="3.21971">
        <ele>889.4</ele>
        <time>2017-02-17T15:21:46Z</time>
      </trkpt>
      <trkpt lat="44.24958" lon="3.21972">
        <ele>889.4</ele>
        <time>2017-02-17T15:21:47Z</time>
      </trkpt>
      <trkpt lat="44.24953" lon="3.21973">
        <ele>889.5</ele>
        <time>2017-02-17T15:21:48Z</time>
      </trkpt>
      <trkpt lat="44.2495" lon="3.21973">
        <ele>889.5</ele>
        <time>2017-02-17T15:21:49Z</time>
      </trkpt>
      <trkpt lat="44.24946" lon="3.21974">
        <ele>889.5</ele>
        <time>2017-02-17T15:21:50Z</time>
      </trkpt>
      <trkpt lat="44.24942" lon="3.21975">
        <ele>889.5</ele>
        <time>2017-02-17T15:21:51Z</time>
      </trkpt>
      <trkpt lat="44.24939" lon="3.21975">
        <ele>889.5</ele>
        <time>2017-02-17T15:21:52Z</time>
      </trkpt>
      <trkpt lat="44.24936" lon="3.21976">
        <ele>889.5</ele>
        <time>2017-02-17T15:21:53Z</time>
      </trkpt>
      <trkpt lat="44.24932" lon="3.21976">
        <ele>889.5</ele>
        <time>2017-02-17T15:21:54Z</time>
      </trkpt>
      <trkpt lat="44.24929" lon="3.21976">
        <ele>889.5</ele>
        <time>2017-02-17T15:21:55Z</time>
      </trkpt>
      <trkpt lat="44.24922" lon="3.21975">
        <ele>889.4</ele>
        <time>2017-02-17T15:21:57Z</time>
      </trkpt>
      <trkpt lat="44.24916" lon="3.21978">
        <ele>889.4</ele>
        <time>2017-02-17T15:21:59Z</time>
      </trkpt>
      <trkpt lat="44.24912" lon="3.21979">
        <ele>889.4</ele>
        <time>2017-02-17T15:22:00Z</time>
      </trkpt>
      <trkpt lat="44.24905" lon="3.21983">
        <ele>889.3</ele>
        <time>2017-02-17T15:22:02Z</time>
      </trkpt>
      <trkpt lat="44.24898" lon="3.21988">
        <ele>889.1</ele>
        <time>2017-02-17T15:22:03Z</time>
      </trkpt>
      <trkpt lat="44.24888" lon="3.21993">
        <ele>888.6</ele>
        <time>2017-02-17T15:22:04Z</time>
      </trkpt>
      <trkpt lat="44.24883" lon="3.21995">
        <ele>888.3</ele>
        <time>2017-02-17T15:22:05Z</time>
      </trkpt>
      <trkpt lat="44.24878" lon="3.22">
        <ele>888</ele>
        <time>2017-02-17T15:22:06Z</time>
      </trkpt>
      <trkpt lat="44.24873" lon="3.22">
        <ele>887.5</ele>
        <time>2017-02-17T15:22:07Z</time>
      </trkpt>
      <trkpt lat="44.24867" lon="3.22003">
        <ele>887</ele>
        <time>2017-02-17T15:22:08Z</time>
      </trkpt>
      <trkpt lat="44.24861" lon="3.22003">
        <ele>886.4</ele>
        <time>2017-02-17T15:22:09Z</time>
      </trkpt>
      <trkpt lat="44.24855" lon="3.22001">
        <ele>885.8</ele>
        <time>2017-02-17T15:22:10Z</time>
      </trkpt>
      <trkpt lat="44.24849" lon="3.21999">
        <ele>885.2</ele>
        <time>2017-02-17T15:22:11Z</time>
      </trkpt>
      <trkpt lat="44.24839" lon="3.22">
        <ele>884.1</ele>
        <time>2017-02-17T15:22:14Z</time>
      </trkpt>
      <trkpt lat="44.24833" lon="3.21999">
        <ele>883.6</ele>
        <time>2017-02-17T15:22:15Z</time>
      </trkpt>
      <trkpt lat="44.24824" lon="3.21998">
        <ele>882.7</ele>
        <time>2017-02-17T15:22:16Z</time>
      </trkpt>
      <trkpt lat="44.24815" lon="3.21997">
        <ele>881.8</ele>
        <time>2017-02-17T15:22:17Z</time>
      </trkpt>
      <trkpt lat="44.24806" lon="3.21997">
        <ele>881</ele>
        <time>2017-02-17T15:22:18Z</time>
      </trkpt>
      <trkpt lat="44.24799" lon="3.22001">
        <ele>880.3</ele>
        <time>2017-02-17T15:22:19Z</time>
      </trkpt>
      <trkpt lat="44.24798" lon="3.22009">
        <ele>879.9</ele>
        <time>2017-02-17T15:22:20Z</time>
      </trkpt>
      <trkpt lat="44.24798" lon="3.22012">
        <ele>879.7</ele>
        <time>2017-02-17T15:22:21Z</time>
      </trkpt>
      <trkpt lat="44.24797" lon="3.2202">
        <ele>879.3</ele>
        <time>2017-02-17T15:22:23Z</time>
      </trkpt>
      <trkpt lat="44.24798" lon="3.22024">
        <ele>879.1</ele>
        <time>2017-02-17T15:22:24Z</time>
      </trkpt>
      <trkpt lat="44.24798" lon="3.22031">
        <ele>878.7</ele>
        <time>2017-02-17T15:22:25Z</time>
      </trkpt>
      <trkpt lat="44.24796" lon="3.2204">
        <ele>878.4</ele>
        <time>2017-02-17T15:22:26Z</time>
      </trkpt>
      <trkpt lat="44.24797" lon="3.22047">
        <ele>878.2</ele>
        <time>2017-02-17T15:22:27Z</time>
      </trkpt>
      <trkpt lat="44.24801" lon="3.22055">
        <ele>878.1</ele>
        <time>2017-02-17T15:22:28Z</time>
      </trkpt>
      <trkpt lat="44.24805" lon="3.22061">
        <ele>878.1</ele>
        <time>2017-02-17T15:22:29Z</time>
      </trkpt>
      <trkpt lat="44.24812" lon="3.22069">
        <ele>878.1</ele>
        <time>2017-02-17T15:22:30Z</time>
      </trkpt>
      <trkpt lat="44.24818" lon="3.22074">
        <ele>878.3</ele>
        <time>2017-02-17T15:22:31Z</time>
      </trkpt>
      <trkpt lat="44.24825" lon="3.22079">
        <ele>878.6</ele>
        <time>2017-02-17T15:22:32Z</time>
      </trkpt>
      <trkpt lat="44.24831" lon="3.22086">
        <ele>879.2</ele>
        <time>2017-02-17T15:22:33Z</time>
      </trkpt>
      <trkpt lat="44.24833" lon="3.22094">
        <ele>879.4</ele>
        <time>2017-02-17T15:22:34Z</time>
      </trkpt>
      <trkpt lat="44.24834" lon="3.22105">
        <ele>879.5</ele>
        <time>2017-02-17T15:22:35Z</time>
      </trkpt>
      <trkpt lat="44.24835" lon="3.22114">
        <ele>879.6</ele>
        <time>2017-02-17T15:22:36Z</time>
      </trkpt>
      <trkpt lat="44.24834" lon="3.22118">
        <ele>879.6</ele>
        <time>2017-02-17T15:22:37Z</time>
      </trkpt>
      <trkpt lat="44.24831" lon="3.22123">
        <ele>879.7</ele>
        <time>2017-02-17T15:22:38Z</time>
      </trkpt>
      <trkpt lat="44.24829" lon="3.22128">
        <ele>879.7</ele>
        <time>2017-02-17T15:22:39Z</time>
      </trkpt>
      <trkpt lat="44.24825" lon="3.22133">
        <ele>879.7</ele>
        <time>2017-02-17T15:22:40Z</time>
      </trkpt>
      <trkpt lat="44.24821" lon="3.22137">
        <ele>879.8</ele>
        <time>2017-02-17T15:22:41Z</time>
      </trkpt>
      <trkpt lat="44.24819" lon="3.22143">
        <ele>879.8</ele>
        <time>2017-02-17T15:22:42Z</time>
      </trkpt>
      <trkpt lat="44.24815" lon="3.22148">
        <ele>879.8</ele>
        <time>2017-02-17T15:22:43Z</time>
      </trkpt>
      <trkpt lat="44.2481" lon="3.22155">
        <ele>879.8</ele>
        <time>2017-02-17T15:22:44Z</time>
      </trkpt>
      <trkpt lat="44.24803" lon="3.22161">
        <ele>879.8</ele>
        <time>2017-02-17T15:22:45Z</time>
      </trkpt>
      <trkpt lat="44.24799" lon="3.22164">
        <ele>879.8</ele>
        <time>2017-02-17T15:22:46Z</time>
      </trkpt>
      <trkpt lat="44.24793" lon="3.22166">
        <ele>879.8</ele>
        <time>2017-02-17T15:22:47Z</time>
      </trkpt>
      <trkpt lat="44.24789" lon="3.22169">
        <ele>879.8</ele>
        <time>2017-02-17T15:22:48Z</time>
      </trkpt>
      <trkpt lat="44.24786" lon="3.22169">
        <ele>879.8</ele>
        <time>2017-02-17T15:22:49Z</time>
      </trkpt>
      <trkpt lat="44.24782" lon="3.2217">
        <ele>879.8</ele>
        <time>2017-02-17T15:22:50Z</time>
      </trkpt>
      <trkpt lat="44.24778" lon="3.22172">
        <ele>879.7</ele>
        <time>2017-02-17T15:22:51Z</time>
      </trkpt>
      <trkpt lat="44.24773" lon="3.22174">
        <ele>879.7</ele>
        <time>2017-02-17T15:22:52Z</time>
      </trkpt>
      <trkpt lat="44.24769" lon="3.22176">
        <ele>879.7</ele>
        <time>2017-02-17T15:22:53Z</time>
      </trkpt>
      <trkpt lat="44.24765" lon="3.22177">
        <ele>879.7</ele>
        <time>2017-02-17T15:22:54Z</time>
      </trkpt>
      <trkpt lat="44.2476" lon="3.22177">
        <ele>879.6</ele>
        <time>2017-02-17T15:22:55Z</time>
      </trkpt>
      <trkpt lat="44.24755" lon="3.22176">
        <ele>879.6</ele>
        <time>2017-02-17T15:22:56Z</time>
      </trkpt>
      <trkpt lat="44.24748" lon="3.22176">
        <ele>879.5</ele>
        <time>2017-02-17T15:22:57Z</time>
      </trkpt>
      <trkpt lat="44.24739" lon="3.22177">
        <ele>879.3</ele>
        <time>2017-02-17T15:22:58Z</time>
      </trkpt>
      <trkpt lat="44.24733" lon="3.22179">
        <ele>879.2</ele>
        <time>2017-02-17T15:22:59Z</time>
      </trkpt>
      <trkpt lat="44.24728" lon="3.22184">
        <ele>879.1</ele>
        <time>2017-02-17T15:23:00Z</time>
      </trkpt>
      <trkpt lat="44.24724" lon="3.22188">
        <ele>878.9</ele>
        <time>2017-02-17T15:23:01Z</time>
      </trkpt>
      <trkpt lat="44.24719" lon="3.22191">
        <ele>878.7</ele>
        <time>2017-02-17T15:23:02Z</time>
      </trkpt>
      <trkpt lat="44.2471" lon="3.22191">
        <ele>878.2</ele>
        <time>2017-02-17T15:23:03Z</time>
      </trkpt>
      <trkpt lat="44.24702" lon="3.22191">
        <ele>877.6</ele>
        <time>2017-02-17T15:23:04Z</time>
      </trkpt>
      <trkpt lat="44.24691" lon="3.22195">
        <ele>876.9</ele>
        <time>2017-02-17T15:23:05Z</time>
      </trkpt>
      <trkpt lat="44.24682" lon="3.22196">
        <ele>876.2</ele>
        <time>2017-02-17T15:23:06Z</time>
      </trkpt>
      <trkpt lat="44.24677" lon="3.22198">
        <ele>875.9</ele>
        <time>2017-02-17T15:23:07Z</time>
      </trkpt>
      <trkpt lat="44.24673" lon="3.22201">
        <ele>875.6</ele>
        <time>2017-02-17T15:23:08Z</time>
      </trkpt>
      <trkpt lat="44.24669" lon="3.22203">
        <ele>875.4</ele>
        <time>2017-02-17T15:23:09Z</time>
      </trkpt>
      <trkpt lat="44.24665" lon="3.22205">
        <ele>875.3</ele>
        <time>2017-02-17T15:23:10Z</time>
      </trkpt>
      <trkpt lat="44.24657" lon="3.22206">
        <ele>875.1</ele>
        <time>2017-02-17T15:23:11Z</time>
      </trkpt>
      <trkpt lat="44.24654" lon="3.22206">
        <ele>875</ele>
        <time>2017-02-17T15:23:12Z</time>
      </trkpt>
      <trkpt lat="44.24651" lon="3.22203">
        <ele>874.9</ele>
        <time>2017-02-17T15:23:13Z</time>
      </trkpt>
      <trkpt lat="44.2465" lon="3.22197">
        <ele>874.9</ele>
        <time>2017-02-17T15:23:14Z</time>
      </trkpt>
      <trkpt lat="44.24649" lon="3.22191">
        <ele>874.9</ele>
        <time>2017-02-17T15:23:15Z</time>
      </trkpt>
      <trkpt lat="44.24648" lon="3.22185">
        <ele>874.8</ele>
        <time>2017-02-17T15:23:16Z</time>
      </trkpt>
      <trkpt lat="44.24647" lon="3.22166">
        <ele>874.8</ele>
        <time>2017-02-17T15:23:19Z</time>
      </trkpt>
      <trkpt lat="44.24649" lon="3.22159">
        <ele>874.8</ele>
        <time>2017-02-17T15:23:20Z</time>
      </trkpt>
      <trkpt lat="44.24651" lon="3.22154">
        <ele>874.8</ele>
        <time>2017-02-17T15:23:21Z</time>
      </trkpt>
      <trkpt lat="44.24653" lon="3.22147">
        <ele>874.8</ele>
        <time>2017-02-17T15:23:22Z</time>
      </trkpt>
      <trkpt lat="44.24656" lon="3.22142">
        <ele>874.8</ele>
        <time>2017-02-17T15:23:23Z</time>
      </trkpt>
      <trkpt lat="44.24658" lon="3.22138">
        <ele>874.8</ele>
        <time>2017-02-17T15:23:26Z</time>
      </trkpt>
      <trkpt lat="44.24656" lon="3.22134">
        <ele>874.8</ele>
        <time>2017-02-17T15:23:31Z</time>
      </trkpt>
      <trkpt lat="44.24655" lon="3.2213">
        <ele>874.9</ele>
        <time>2017-02-17T15:23:33Z</time>
      </trkpt>
      <trkpt lat="44.24653" lon="3.22126">
        <ele>874.9</ele>
        <time>2017-02-17T15:23:35Z</time>
      </trkpt>
      <trkpt lat="44.24651" lon="3.22123">
        <ele>874.9</ele>
        <time>2017-02-17T15:23:38Z</time>
      </trkpt>
      <trkpt lat="44.24648" lon="3.22121">
        <ele>875</ele>
        <time>2017-02-17T15:23:40Z</time>
      </trkpt>
      <trkpt lat="44.24644" lon="3.2212">
        <ele>875</ele>
        <time>2017-02-17T15:23:43Z</time>
      </trkpt>
      <trkpt lat="44.2464" lon="3.22116">
        <ele>875.2</ele>
        <time>2017-02-17T15:23:48Z</time>
      </trkpt>
      <trkpt lat="44.24636" lon="3.22113">
        <ele>875.4</ele>
        <time>2017-02-17T15:23:50Z</time>
      </trkpt>
      <trkpt lat="44.24633" lon="3.22111">
        <ele>875.8</ele>
        <time>2017-02-17T15:23:52Z</time>
      </trkpt>
      <trkpt lat="44.24631" lon="3.22115">
        <ele>877.1</ele>
        <time>2017-02-17T15:23:55Z</time>
      </trkpt>
      <trkpt lat="44.24625" lon="3.22119">
        <ele>878.7</ele>
        <time>2017-02-17T15:23:57Z</time>
      </trkpt>
      <trkpt lat="44.24619" lon="3.22123">
        <ele>879.3</ele>
        <time>2017-02-17T15:23:59Z</time>
      </trkpt>
      <trkpt lat="44.24613" lon="3.22123">
        <ele>879.7</ele>
        <time>2017-02-17T15:24:01Z</time>
      </trkpt>
      <trkpt lat="44.24609" lon="3.22127">
        <ele>880.1</ele>
        <time>2017-02-17T15:24:12Z</time>
      </trkpt>
      <trkpt lat="44.24605" lon="3.22129">
        <ele>880.4</ele>
        <time>2017-02-17T15:24:14Z</time>
      </trkpt>
      <trkpt lat="44.24595" lon="3.22131">
        <ele>881.3</ele>
        <time>2017-02-17T15:24:24Z</time>
      </trkpt>
      <trkpt lat="44.24594" lon="3.22135">
        <ele>881.6</ele>
        <time>2017-02-17T15:24:30Z</time>
      </trkpt>
      <trkpt lat="44.24591" lon="3.22137">
        <ele>881.9</ele>
        <time>2017-02-17T15:24:32Z</time>
      </trkpt>
      <trkpt lat="44.24584" lon="3.22139">
        <ele>882.6</ele>
        <time>2017-02-17T15:24:34Z</time>
      </trkpt>
      <trkpt lat="44.2458" lon="3.22141">
        <ele>883</ele>
        <time>2017-02-17T15:24:35Z</time>
      </trkpt>
      <trkpt lat="44.24577" lon="3.22139">
        <ele>883.3</ele>
        <time>2017-02-17T15:24:45Z</time>
      </trkpt>
      <trkpt lat="44.24572" lon="3.22137">
        <ele>883.7</ele>
        <time>2017-02-17T15:24:47Z</time>
      </trkpt>
      <trkpt lat="44.24569" lon="3.22137">
        <ele>884</ele>
        <time>2017-02-17T15:24:49Z</time>
      </trkpt>
      <trkpt lat="44.24567" lon="3.22137">
        <ele>884.3</ele>
        <time>2017-02-17T15:24:52Z</time>
      </trkpt>
      <trkpt lat="44.24562" lon="3.22135">
        <ele>884.6</ele>
        <time>2017-02-17T15:24:54Z</time>
      </trkpt>
      <trkpt lat="44.24557" lon="3.22136">
        <ele>884.8</ele>
        <time>2017-02-17T15:24:57Z</time>
      </trkpt>
      <trkpt lat="44.24554" lon="3.22135">
        <ele>885</ele>
        <time>2017-02-17T15:24:58Z</time>
      </trkpt>
      <trkpt lat="44.24551" lon="3.22137">
        <ele>885.3</ele>
        <time>2017-02-17T15:25:02Z</time>
      </trkpt>
      <trkpt lat="44.24548" lon="3.22139">
        <ele>885.7</ele>
        <time>2017-02-17T15:25:08Z</time>
      </trkpt>
      <trkpt lat="44.24545" lon="3.22138">
        <ele>886</ele>
        <time>2017-02-17T15:25:11Z</time>
      </trkpt>
      <trkpt lat="44.24542" lon="3.2214">
        <ele>886.3</ele>
        <time>2017-02-17T15:25:15Z</time>
      </trkpt>
      <trkpt lat="44.24539" lon="3.2214">
        <ele>886.5</ele>
        <time>2017-02-17T15:25:17Z</time>
      </trkpt>
      <trkpt lat="44.24535" lon="3.22139">
        <ele>886.7</ele>
        <time>2017-02-17T15:25:20Z</time>
      </trkpt>
      <trkpt lat="44.24532" lon="3.22135">
        <ele>887</ele>
        <time>2017-02-17T15:25:22Z</time>
      </trkpt>
      <trkpt lat="44.24529" lon="3.22131">
        <ele>887.3</ele>
        <time>2017-02-17T15:25:24Z</time>
      </trkpt>
      <trkpt lat="44.24524" lon="3.22129">
        <ele>887.9</ele>
        <time>2017-02-17T15:25:26Z</time>
      </trkpt>
      <trkpt lat="44.24528" lon="3.22132">
        <ele>888.6</ele>
        <time>2017-02-17T15:25:28Z</time>
      </trkpt>
      <trkpt lat="44.24527" lon="3.22128">
        <ele>888.9</ele>
        <time>2017-02-17T15:25:35Z</time>
      </trkpt>
      <trkpt lat="44.24523" lon="3.22129">
        <ele>889.1</ele>
        <time>2017-02-17T15:25:41Z</time>
      </trkpt>
      <trkpt lat="44.2452" lon="3.22127">
        <ele>894.3</ele>
        <time>2017-02-17T15:25:42Z</time>
      </trkpt>
      <trkpt lat="44.24516" lon="3.22128">
        <ele>894.7</ele>
        <time>2017-02-17T15:25:44Z</time>
      </trkpt>
      <trkpt lat="44.24512" lon="3.22126">
        <ele>895.2</ele>
        <time>2017-02-17T15:25:46Z</time>
      </trkpt>
      <trkpt lat="44.24509" lon="3.22127">
        <ele>895.4</ele>
        <time>2017-02-17T15:25:49Z</time>
      </trkpt>
      <trkpt lat="44.24506" lon="3.22128">
        <ele>895.6</ele>
        <time>2017-02-17T15:25:52Z</time>
      </trkpt>
      <trkpt lat="44.24502" lon="3.22127">
        <ele>895.8</ele>
        <time>2017-02-17T15:25:53Z</time>
      </trkpt>
      <trkpt lat="44.24498" lon="3.22127">
        <ele>895.9</ele>
        <time>2017-02-17T15:25:54Z</time>
      </trkpt>
      <trkpt lat="44.24495" lon="3.22126">
        <ele>895.9</ele>
        <time>2017-02-17T15:25:55Z</time>
      </trkpt>
      <trkpt lat="44.24489" lon="3.22121">
        <ele>895.8</ele>
        <time>2017-02-17T15:25:56Z</time>
      </trkpt>
      <trkpt lat="44.24486" lon="3.2212">
        <ele>895.8</ele>
        <time>2017-02-17T15:25:57Z</time>
      </trkpt>
      <trkpt lat="44.24488" lon="3.22116">
        <ele>895.8</ele>
        <time>2017-02-17T15:26:00Z</time>
      </trkpt>
      <trkpt lat="44.24491" lon="3.22115">
        <ele>895.8</ele>
        <time>2017-02-17T15:26:06Z</time>
      </trkpt>
      <trkpt lat="44.24488" lon="3.22117">
        <ele>895.7</ele>
        <time>2017-02-17T15:26:08Z</time>
      </trkpt>
      <trkpt lat="44.24485" lon="3.22115">
        <ele>895.6</ele>
        <time>2017-02-17T15:26:16Z</time>
      </trkpt>
      <trkpt lat="44.24482" lon="3.22117">
        <ele>895.5</ele>
        <time>2017-02-17T15:26:17Z</time>
      </trkpt>
      <trkpt lat="44.24479" lon="3.22115">
        <ele>895.4</ele>
        <time>2017-02-17T15:26:19Z</time>
      </trkpt>
      <trkpt lat="44.24477" lon="3.22112">
        <ele>895.3</ele>
        <time>2017-02-17T15:26:21Z</time>
      </trkpt>
      <trkpt lat="44.24472" lon="3.22112">
        <ele>895.1</ele>
        <time>2017-02-17T15:26:23Z</time>
      </trkpt>
      <trkpt lat="44.24468" lon="3.22111">
        <ele>894.9</ele>
        <time>2017-02-17T15:26:24Z</time>
      </trkpt>
      <trkpt lat="44.24466" lon="3.22111">
        <ele>894.8</ele>
        <time>2017-02-17T15:26:25Z</time>
      </trkpt>
      <trkpt lat="44.24458" lon="3.22108">
        <ele>894.4</ele>
        <time>2017-02-17T15:26:27Z</time>
      </trkpt>
      <trkpt lat="44.24454" lon="3.22107">
        <ele>894.3</ele>
        <time>2017-02-17T15:26:28Z</time>
      </trkpt>
      <trkpt lat="44.24446" lon="3.22107">
        <ele>894</ele>
        <time>2017-02-17T15:26:29Z</time>
      </trkpt>
      <trkpt lat="44.24439" lon="3.22108">
        <ele>893.9</ele>
        <time>2017-02-17T15:26:30Z</time>
      </trkpt>
      <trkpt lat="44.24435" lon="3.22106">
        <ele>893.8</ele>
        <time>2017-02-17T15:26:31Z</time>
      </trkpt>
      <trkpt lat="44.24431" lon="3.22105">
        <ele>893.7</ele>
        <time>2017-02-17T15:26:32Z</time>
      </trkpt>
      <trkpt lat="44.24424" lon="3.22104">
        <ele>893.6</ele>
        <time>2017-02-17T15:26:33Z</time>
      </trkpt>
      <trkpt lat="44.24416" lon="3.22104">
        <ele>893.4</ele>
        <time>2017-02-17T15:26:34Z</time>
      </trkpt>
      <trkpt lat="44.24409" lon="3.22106">
        <ele>893.2</ele>
        <time>2017-02-17T15:26:35Z</time>
      </trkpt>
      <trkpt lat="44.24403" lon="3.22108">
        <ele>893.1</ele>
        <time>2017-02-17T15:26:36Z</time>
      </trkpt>
      <trkpt lat="44.24397" lon="3.22107">
        <ele>892.9</ele>
        <time>2017-02-17T15:26:37Z</time>
      </trkpt>
      <trkpt lat="44.24392" lon="3.22107">
        <ele>892.6</ele>
        <time>2017-02-17T15:26:38Z</time>
      </trkpt>
      <trkpt lat="44.24384" lon="3.22108">
        <ele>892.1</ele>
        <time>2017-02-17T15:26:39Z</time>
      </trkpt>
      <trkpt lat="44.24379" lon="3.22109">
        <ele>891.8</ele>
        <time>2017-02-17T15:26:40Z</time>
      </trkpt>
      <trkpt lat="44.24344" lon="3.22113">
        <ele>890.1</ele>
        <time>2017-02-17T15:26:46Z</time>
      </trkpt>
      <trkpt lat="44.24339" lon="3.22104">
        <ele>889.7</ele>
        <time>2017-02-17T15:26:47Z</time>
      </trkpt>
      <trkpt lat="44.24334" lon="3.22096">
        <ele>889.4</ele>
        <time>2017-02-17T15:26:48Z</time>
      </trkpt>
      <trkpt lat="44.24327" lon="3.22087">
        <ele>889</ele>
        <time>2017-02-17T15:26:49Z</time>
      </trkpt>
      <trkpt lat="44.24319" lon="3.22076">
        <ele>888.3</ele>
        <time>2017-02-17T15:26:50Z</time>
      </trkpt>
      <trkpt lat="44.24312" lon="3.22068">
        <ele>887.7</ele>
        <time>2017-02-17T15:26:51Z</time>
      </trkpt>
      <trkpt lat="44.24303" lon="3.22066">
        <ele>887.1</ele>
        <time>2017-02-17T15:26:52Z</time>
      </trkpt>
      <trkpt lat="44.24295" lon="3.22067">
        <ele>886.6</ele>
        <time>2017-02-17T15:26:53Z</time>
      </trkpt>
      <trkpt lat="44.24287" lon="3.22068">
        <ele>886</ele>
        <time>2017-02-17T15:26:54Z</time>
      </trkpt>
      <trkpt lat="44.24279" lon="3.22068">
        <ele>885.5</ele>
        <time>2017-02-17T15:26:55Z</time>
      </trkpt>
      <trkpt lat="44.24273" lon="3.22069">
        <ele>885.1</ele>
        <time>2017-02-17T15:26:56Z</time>
      </trkpt>
      <trkpt lat="44.24265" lon="3.22073">
        <ele>884.6</ele>
        <time>2017-02-17T15:26:57Z</time>
      </trkpt>
      <trkpt lat="44.24259" lon="3.22076">
        <ele>884.1</ele>
        <time>2017-02-17T15:26:58Z</time>
      </trkpt>
      <trkpt lat="44.24253" lon="3.22077">
        <ele>883.6</ele>
        <time>2017-02-17T15:26:59Z</time>
      </trkpt>
      <trkpt lat="44.24247" lon="3.22076">
        <ele>883.2</ele>
        <time>2017-02-17T15:27:00Z</time>
      </trkpt>
      <trkpt lat="44.24241" lon="3.22075">
        <ele>882.7</ele>
        <time>2017-02-17T15:27:01Z</time>
      </trkpt>
      <trkpt lat="44.24233" lon="3.22073">
        <ele>882.1</ele>
        <time>2017-02-17T15:27:02Z</time>
      </trkpt>
      <trkpt lat="44.24227" lon="3.22072">
        <ele>881.6</ele>
        <time>2017-02-17T15:27:03Z</time>
      </trkpt>
      <trkpt lat="44.2422" lon="3.22071">
        <ele>881.2</ele>
        <time>2017-02-17T15:27:04Z</time>
      </trkpt>
      <trkpt lat="44.24216" lon="3.22071">
        <ele>881</ele>
        <time>2017-02-17T15:27:05Z</time>
      </trkpt>
      <trkpt lat="44.24212" lon="3.22073">
        <ele>880.9</ele>
        <time>2017-02-17T15:27:06Z</time>
      </trkpt>
      <trkpt lat="44.24209" lon="3.22078">
        <ele>880.9</ele>
        <time>2017-02-17T15:27:07Z</time>
      </trkpt>
      <trkpt lat="44.24206" lon="3.22083">
        <ele>881</ele>
        <time>2017-02-17T15:27:08Z</time>
      </trkpt>
      <trkpt lat="44.24206" lon="3.2209">
        <ele>881.1</ele>
        <time>2017-02-17T15:27:09Z</time>
      </trkpt>
      <trkpt lat="44.24208" lon="3.22097">
        <ele>881.3</ele>
        <time>2017-02-17T15:27:10Z</time>
      </trkpt>
      <trkpt lat="44.24211" lon="3.22103">
        <ele>881.7</ele>
        <time>2017-02-17T15:27:11Z</time>
      </trkpt>
      <trkpt lat="44.24213" lon="3.2211">
        <ele>882</ele>
        <time>2017-02-17T15:27:12Z</time>
      </trkpt>
      <trkpt lat="44.24215" lon="3.22115">
        <ele>882.3</ele>
        <time>2017-02-17T15:27:13Z</time>
      </trkpt>
      <trkpt lat="44.24216" lon="3.22119">
        <ele>882.6</ele>
        <time>2017-02-17T15:27:14Z</time>
      </trkpt>
      <trkpt lat="44.24216" lon="3.22124">
        <ele>882.9</ele>
        <time>2017-02-17T15:27:15Z</time>
      </trkpt>
      <trkpt lat="44.24215" lon="3.22129">
        <ele>883.3</ele>
        <time>2017-02-17T15:27:16Z</time>
      </trkpt>
      <trkpt lat="44.24214" lon="3.22133">
        <ele>883.5</ele>
        <time>2017-02-17T15:27:17Z</time>
      </trkpt>
      <trkpt lat="44.24212" lon="3.22137">
        <ele>883.7</ele>
        <time>2017-02-17T15:27:18Z</time>
      </trkpt>
      <trkpt lat="44.24209" lon="3.22141">
        <ele>883.8</ele>
        <time>2017-02-17T15:27:20Z</time>
      </trkpt>
      <trkpt lat="44.24207" lon="3.22144">
        <ele>883.9</ele>
        <time>2017-02-17T15:27:21Z</time>
      </trkpt>
      <trkpt lat="44.24204" lon="3.22147">
        <ele>884</ele>
        <time>2017-02-17T15:27:22Z</time>
      </trkpt>
      <trkpt lat="44.242" lon="3.22151">
        <ele>884.1</ele>
        <time>2017-02-17T15:27:23Z</time>
      </trkpt>
      <trkpt lat="44.24197" lon="3.22154">
        <ele>884.1</ele>
        <time>2017-02-17T15:27:24Z</time>
      </trkpt>
      <trkpt lat="44.24193" lon="3.22157">
        <ele>884.1</ele>
        <time>2017-02-17T15:27:25Z</time>
      </trkpt>
      <trkpt lat="44.24187" lon="3.22161">
        <ele>884.1</ele>
        <time>2017-02-17T15:27:26Z</time>
      </trkpt>
      <trkpt lat="44.24181" lon="3.22164">
        <ele>884.1</ele>
        <time>2017-02-17T15:27:27Z</time>
      </trkpt>
      <trkpt lat="44.24175" lon="3.22167">
        <ele>884</ele>
        <time>2017-02-17T15:27:28Z</time>
      </trkpt>
      <trkpt lat="44.2417" lon="3.22165">
        <ele>884</ele>
        <time>2017-02-17T15:27:29Z</time>
      </trkpt>
      <trkpt lat="44.24166" lon="3.22163">
        <ele>883.9</ele>
        <time>2017-02-17T15:27:30Z</time>
      </trkpt>
      <trkpt lat="44.24162" lon="3.2216">
        <ele>883.9</ele>
        <time>2017-02-17T15:27:31Z</time>
      </trkpt>
      <trkpt lat="44.24159" lon="3.22156">
        <ele>883.8</ele>
        <time>2017-02-17T15:27:32Z</time>
      </trkpt>
      <trkpt lat="44.24157" lon="3.2215">
        <ele>883.6</ele>
        <time>2017-02-17T15:27:33Z</time>
      </trkpt>
      <trkpt lat="44.24155" lon="3.22145">
        <ele>883.5</ele>
        <time>2017-02-17T15:27:34Z</time>
      </trkpt>
      <trkpt lat="44.24154" lon="3.22142">
        <ele>883.3</ele>
        <time>2017-02-17T15:27:35Z</time>
      </trkpt>
      <trkpt lat="44.24152" lon="3.22135">
        <ele>883.1</ele>
        <time>2017-02-17T15:27:37Z</time>
      </trkpt>
      <trkpt lat="44.2415" lon="3.22129">
        <ele>883.1</ele>
        <time>2017-02-17T15:27:39Z</time>
      </trkpt>
      <trkpt lat="44.24148" lon="3.22124">
        <ele>883.1</ele>
        <time>2017-02-17T15:27:41Z</time>
      </trkpt>
      <trkpt lat="44.24145" lon="3.2212">
        <ele>883.1</ele>
        <time>2017-02-17T15:27:43Z</time>
      </trkpt>
      <trkpt lat="44.24142" lon="3.22116">
        <ele>883.2</ele>
        <time>2017-02-17T15:27:45Z</time>
      </trkpt>
      <trkpt lat="44.2414" lon="3.22111">
        <ele>883.4</ele>
        <time>2017-02-17T15:27:47Z</time>
      </trkpt>
      <trkpt lat="44.24137" lon="3.22108">
        <ele>883.7</ele>
        <time>2017-02-17T15:27:48Z</time>
      </trkpt>
      <trkpt lat="44.24134" lon="3.22102">
        <ele>884</ele>
        <time>2017-02-17T15:27:50Z</time>
      </trkpt>
      <trkpt lat="44.24132" lon="3.22097">
        <ele>884.3</ele>
        <time>2017-02-17T15:27:51Z</time>
      </trkpt>
      <trkpt lat="44.24129" lon="3.22092">
        <ele>884.4</ele>
        <time>2017-02-17T15:27:52Z</time>
      </trkpt>
      <trkpt lat="44.24127" lon="3.22088">
        <ele>884.5</ele>
        <time>2017-02-17T15:27:54Z</time>
      </trkpt>
      <trkpt lat="44.24124" lon="3.22085">
        <ele>884.6</ele>
        <time>2017-02-17T15:27:55Z</time>
      </trkpt>
      <trkpt lat="44.24118" lon="3.2208">
        <ele>884.7</ele>
        <time>2017-02-17T15:27:57Z</time>
      </trkpt>
      <trkpt lat="44.24112" lon="3.22078">
        <ele>884.8</ele>
        <time>2017-02-17T15:27:58Z</time>
      </trkpt>
      <trkpt lat="44.24107" lon="3.22078">
        <ele>884.8</ele>
        <time>2017-02-17T15:27:59Z</time>
      </trkpt>
      <trkpt lat="44.24102" lon="3.22081">
        <ele>884.9</ele>
        <time>2017-02-17T15:28:00Z</time>
      </trkpt>
      <trkpt lat="44.24099" lon="3.22085">
        <ele>884.9</ele>
        <time>2017-02-17T15:28:01Z</time>
      </trkpt>
      <trkpt lat="44.24096" lon="3.22091">
        <ele>885</ele>
        <time>2017-02-17T15:28:02Z</time>
      </trkpt>
      <trkpt lat="44.24095" lon="3.22097">
        <ele>885.1</ele>
        <time>2017-02-17T15:28:03Z</time>
      </trkpt>
      <trkpt lat="44.24094" lon="3.22102">
        <ele>885.2</ele>
        <time>2017-02-17T15:28:04Z</time>
      </trkpt>
      <trkpt lat="44.24094" lon="3.22106">
        <ele>885.2</ele>
        <time>2017-02-17T15:28:05Z</time>
      </trkpt>
      <trkpt lat="44.24094" lon="3.2211">
        <ele>885.3</ele>
        <time>2017-02-17T15:28:06Z</time>
      </trkpt>
      <trkpt lat="44.24093" lon="3.22116">
        <ele>885.5</ele>
        <time>2017-02-17T15:28:07Z</time>
      </trkpt>
      <trkpt lat="44.24093" lon="3.2212">
        <ele>885.7</ele>
        <time>2017-02-17T15:28:08Z</time>
      </trkpt>
      <trkpt lat="44.24094" lon="3.22124">
        <ele>885.8</ele>
        <time>2017-02-17T15:28:09Z</time>
      </trkpt>
      <trkpt lat="44.24096" lon="3.22131">
        <ele>886.1</ele>
        <time>2017-02-17T15:28:11Z</time>
      </trkpt>
      <trkpt lat="44.24098" lon="3.22137">
        <ele>886.4</ele>
        <time>2017-02-17T15:28:12Z</time>
      </trkpt>
      <trkpt lat="44.24099" lon="3.22143">
        <ele>886.6</ele>
        <time>2017-02-17T15:28:13Z</time>
      </trkpt>
      <trkpt lat="44.24101" lon="3.22147">
        <ele>886.7</ele>
        <time>2017-02-17T15:28:14Z</time>
      </trkpt>
      <trkpt lat="44.24103" lon="3.2215">
        <ele>886.7</ele>
        <time>2017-02-17T15:28:15Z</time>
      </trkpt>
      <trkpt lat="44.24105" lon="3.22153">
        <ele>886.8</ele>
        <time>2017-02-17T15:28:16Z</time>
      </trkpt>
      <trkpt lat="44.24107" lon="3.22158">
        <ele>886.9</ele>
        <time>2017-02-17T15:28:17Z</time>
      </trkpt>
      <trkpt lat="44.2411" lon="3.22163">
        <ele>887</ele>
        <time>2017-02-17T15:28:18Z</time>
      </trkpt>
      <trkpt lat="44.24112" lon="3.22169">
        <ele>887</ele>
        <time>2017-02-17T15:28:19Z</time>
      </trkpt>
      <trkpt lat="44.24114" lon="3.22174">
        <ele>887</ele>
        <time>2017-02-17T15:28:20Z</time>
      </trkpt>
      <trkpt lat="44.24116" lon="3.2218">
        <ele>887</ele>
        <time>2017-02-17T15:28:21Z</time>
      </trkpt>
      <trkpt lat="44.24118" lon="3.22186">
        <ele>887.1</ele>
        <time>2017-02-17T15:28:22Z</time>
      </trkpt>
      <trkpt lat="44.24121" lon="3.22192">
        <ele>887.1</ele>
        <time>2017-02-17T15:28:23Z</time>
      </trkpt>
      <trkpt lat="44.24122" lon="3.222">
        <ele>887.1</ele>
        <time>2017-02-17T15:28:24Z</time>
      </trkpt>
      <trkpt lat="44.24123" lon="3.22206">
        <ele>887.1</ele>
        <time>2017-02-17T15:28:25Z</time>
      </trkpt>
      <trkpt lat="44.24122" lon="3.2221">
        <ele>887.1</ele>
        <time>2017-02-17T15:28:26Z</time>
      </trkpt>
      <trkpt lat="44.2412" lon="3.22214">
        <ele>887.1</ele>
        <time>2017-02-17T15:28:27Z</time>
      </trkpt>
      <trkpt lat="44.24118" lon="3.22218">
        <ele>887.1</ele>
        <time>2017-02-17T15:28:28Z</time>
      </trkpt>
      <trkpt lat="44.24103" lon="3.2224">
        <ele>887.3</ele>
        <time>2017-02-17T15:28:43Z</time>
      </trkpt>
      <trkpt lat="44.24097" lon="3.22241">
        <ele>887.3</ele>
        <time>2017-02-17T15:28:47Z</time>
      </trkpt>
      <trkpt lat="44.24093" lon="3.22242">
        <ele>887.4</ele>
        <time>2017-02-17T15:28:48Z</time>
      </trkpt>
      <trkpt lat="44.24089" lon="3.22243">
        <ele>887.4</ele>
        <time>2017-02-17T15:28:49Z</time>
      </trkpt>
      <trkpt lat="44.24086" lon="3.22244">
        <ele>887.5</ele>
        <time>2017-02-17T15:28:50Z</time>
      </trkpt>
      <trkpt lat="44.24083" lon="3.22244">
        <ele>887.5</ele>
        <time>2017-02-17T15:28:51Z</time>
      </trkpt>
      <trkpt lat="44.2408" lon="3.22243">
        <ele>887.5</ele>
        <time>2017-02-17T15:28:52Z</time>
      </trkpt>
      <trkpt lat="44.24012" lon="3.22237">
        <ele>889.2</ele>
        <time>2017-02-17T15:29:04Z</time>
      </trkpt>
      <trkpt lat="44.24005" lon="3.22238">
        <ele>889</ele>
        <time>2017-02-17T15:29:07Z</time>
      </trkpt>
      <trkpt lat="44.24" lon="3.22242">
        <ele>888.7</ele>
        <time>2017-02-17T15:29:08Z</time>
      </trkpt>
      <trkpt lat="44.23996" lon="3.22247">
        <ele>888.4</ele>
        <time>2017-02-17T15:29:09Z</time>
      </trkpt>
      <trkpt lat="44.23991" lon="3.22251">
        <ele>888.1</ele>
        <time>2017-02-17T15:29:10Z</time>
      </trkpt>
      <trkpt lat="44.23984" lon="3.22251">
        <ele>887.6</ele>
        <time>2017-02-17T15:29:11Z</time>
      </trkpt>
      <trkpt lat="44.23979" lon="3.2225">
        <ele>887.2</ele>
        <time>2017-02-17T15:29:12Z</time>
      </trkpt>
      <trkpt lat="44.23976" lon="3.22249">
        <ele>887</ele>
        <time>2017-02-17T15:29:13Z</time>
      </trkpt>
      <trkpt lat="44.23976" lon="3.22239">
        <ele>886.4</ele>
        <time>2017-02-17T15:29:15Z</time>
      </trkpt>
      <trkpt lat="44.23973" lon="3.22233">
        <ele>886</ele>
        <time>2017-02-17T15:29:16Z</time>
      </trkpt>
      <trkpt lat="44.2397" lon="3.22227">
        <ele>885.6</ele>
        <time>2017-02-17T15:29:17Z</time>
      </trkpt>
      <trkpt lat="44.23966" lon="3.22222">
        <ele>885.2</ele>
        <time>2017-02-17T15:29:18Z</time>
      </trkpt>
      <trkpt lat="44.23961" lon="3.22214">
        <ele>884.6</ele>
        <time>2017-02-17T15:29:19Z</time>
      </trkpt>
      <trkpt lat="44.23954" lon="3.22206">
        <ele>883.9</ele>
        <time>2017-02-17T15:29:20Z</time>
      </trkpt>
      <trkpt lat="44.23951" lon="3.22201">
        <ele>883.7</ele>
        <time>2017-02-17T15:29:21Z</time>
      </trkpt>
      <trkpt lat="44.23948" lon="3.22201">
        <ele>883.6</ele>
        <time>2017-02-17T15:29:22Z</time>
      </trkpt>
      <trkpt lat="44.23944" lon="3.222">
        <ele>883.4</ele>
        <time>2017-02-17T15:29:23Z</time>
      </trkpt>
      <trkpt lat="44.23941" lon="3.22198">
        <ele>883.3</ele>
        <time>2017-02-17T15:29:24Z</time>
      </trkpt>
      <trkpt lat="44.23938" lon="3.22197">
        <ele>883.3</ele>
        <time>2017-02-17T15:29:25Z</time>
      </trkpt>
      <trkpt lat="44.23935" lon="3.22197">
        <ele>883.3</ele>
        <time>2017-02-17T15:29:26Z</time>
      </trkpt>
      <trkpt lat="44.23933" lon="3.22197">
        <ele>883.3</ele>
        <time>2017-02-17T15:29:27Z</time>
      </trkpt>
      <trkpt lat="44.2393" lon="3.22197">
        <ele>883.3</ele>
        <time>2017-02-17T15:29:28Z</time>
      </trkpt>
      <trkpt lat="44.23924" lon="3.22195">
        <ele>883.3</ele>
        <time>2017-02-17T15:29:30Z</time>
      </trkpt>
      <trkpt lat="44.23919" lon="3.22196">
        <ele>883.4</ele>
        <time>2017-02-17T15:29:32Z</time>
      </trkpt>
      <trkpt lat="44.23916" lon="3.22197">
        <ele>883.4</ele>
        <time>2017-02-17T15:29:33Z</time>
      </trkpt>
      <trkpt lat="44.2391" lon="3.22194">
        <ele>883.5</ele>
        <time>2017-02-17T15:29:35Z</time>
      </trkpt>
      <trkpt lat="44.23906" lon="3.22193">
        <ele>883.6</ele>
        <time>2017-02-17T15:29:36Z</time>
      </trkpt>
      <trkpt lat="44.23901" lon="3.22193">
        <ele>883.6</ele>
        <time>2017-02-17T15:29:37Z</time>
      </trkpt>
      <trkpt lat="44.23897" lon="3.22192">
        <ele>883.8</ele>
        <time>2017-02-17T15:29:38Z</time>
      </trkpt>
      <trkpt lat="44.23892" lon="3.22192">
        <ele>883.9</ele>
        <time>2017-02-17T15:29:39Z</time>
      </trkpt>
      <trkpt lat="44.23888" lon="3.22193">
        <ele>884</ele>
        <time>2017-02-17T15:29:40Z</time>
      </trkpt>
      <trkpt lat="44.23884" lon="3.22194">
        <ele>884.2</ele>
        <time>2017-02-17T15:29:41Z</time>
      </trkpt>
      <trkpt lat="44.23877" lon="3.22194">
        <ele>884.5</ele>
        <time>2017-02-17T15:29:42Z</time>
      </trkpt>
      <trkpt lat="44.2387" lon="3.22195">
        <ele>884.6</ele>
        <time>2017-02-17T15:29:43Z</time>
      </trkpt>
      <trkpt lat="44.2386" lon="3.22198">
        <ele>884.7</ele>
        <time>2017-02-17T15:29:44Z</time>
      </trkpt>
      <trkpt lat="44.23837" lon="3.22209">
        <ele>883.8</ele>
        <time>2017-02-17T15:29:47Z</time>
      </trkpt>
      <trkpt lat="44.23831" lon="3.22213">
        <ele>883.5</ele>
        <time>2017-02-17T15:29:48Z</time>
      </trkpt>
      <trkpt lat="44.23823" lon="3.22217">
        <ele>882.8</ele>
        <time>2017-02-17T15:29:49Z</time>
      </trkpt>
      <trkpt lat="44.23814" lon="3.22222">
        <ele>882</ele>
        <time>2017-02-17T15:29:50Z</time>
      </trkpt>
      <trkpt lat="44.23806" lon="3.22225">
        <ele>881.3</ele>
        <time>2017-02-17T15:29:51Z</time>
      </trkpt>
      <trkpt lat="44.23797" lon="3.22227">
        <ele>880.6</ele>
        <time>2017-02-17T15:29:52Z</time>
      </trkpt>
      <trkpt lat="44.23787" lon="3.22229">
        <ele>879.7</ele>
        <time>2017-02-17T15:29:53Z</time>
      </trkpt>
      <trkpt lat="44.2378" lon="3.22228">
        <ele>878.9</ele>
        <time>2017-02-17T15:29:54Z</time>
      </trkpt>
      <trkpt lat="44.23773" lon="3.22225">
        <ele>878.2</ele>
        <time>2017-02-17T15:29:55Z</time>
      </trkpt>
      <trkpt lat="44.2377" lon="3.22225">
        <ele>877.9</ele>
        <time>2017-02-17T15:29:56Z</time>
      </trkpt>
      <trkpt lat="44.23765" lon="3.22215">
        <ele>876.8</ele>
        <time>2017-02-17T15:29:59Z</time>
      </trkpt>
      <trkpt lat="44.23764" lon="3.22208">
        <ele>876.2</ele>
        <time>2017-02-17T15:30:00Z</time>
      </trkpt>
      <trkpt lat="44.23764" lon="3.22203">
        <ele>875.8</ele>
        <time>2017-02-17T15:30:02Z</time>
      </trkpt>
      <trkpt lat="44.23763" lon="3.22195">
        <ele>875.5</ele>
        <time>2017-02-17T15:30:04Z</time>
      </trkpt>
      <trkpt lat="44.23762" lon="3.22191">
        <ele>875.6</ele>
        <time>2017-02-17T15:30:05Z</time>
      </trkpt>
      <trkpt lat="44.23763" lon="3.22186">
        <ele>875.7</ele>
        <time>2017-02-17T15:30:06Z</time>
      </trkpt>
      <trkpt lat="44.23764" lon="3.22182">
        <ele>875.9</ele>
        <time>2017-02-17T15:30:07Z</time>
      </trkpt>
      <trkpt lat="44.23762" lon="3.22176">
        <ele>876.4</ele>
        <time>2017-02-17T15:30:09Z</time>
      </trkpt>
      <trkpt lat="44.2376" lon="3.22169">
        <ele>877</ele>
        <time>2017-02-17T15:30:11Z</time>
      </trkpt>
      <trkpt lat="44.23758" lon="3.22163">
        <ele>877.6</ele>
        <time>2017-02-17T15:30:13Z</time>
      </trkpt>
      <trkpt lat="44.23757" lon="3.22157">
        <ele>878.1</ele>
        <time>2017-02-17T15:30:15Z</time>
      </trkpt>
      <trkpt lat="44.23756" lon="3.22152">
        <ele>878.4</ele>
        <time>2017-02-17T15:30:17Z</time>
      </trkpt>
      <trkpt lat="44.23755" lon="3.22148">
        <ele>878.7</ele>
        <time>2017-02-17T15:30:19Z</time>
      </trkpt>
      <trkpt lat="44.23754" lon="3.22142">
        <ele>879</ele>
        <time>2017-02-17T15:30:21Z</time>
      </trkpt>
      <trkpt lat="44.23752" lon="3.22135">
        <ele>879.2</ele>
        <time>2017-02-17T15:30:23Z</time>
      </trkpt>
      <trkpt lat="44.2375" lon="3.22129">
        <ele>879.4</ele>
        <time>2017-02-17T15:30:25Z</time>
      </trkpt>
      <trkpt lat="44.23747" lon="3.22123">
        <ele>879.7</ele>
        <time>2017-02-17T15:30:27Z</time>
      </trkpt>
      <trkpt lat="44.23744" lon="3.22122">
        <ele>880.1</ele>
        <time>2017-02-17T15:30:28Z</time>
      </trkpt>
      <trkpt lat="44.23739" lon="3.2212">
        <ele>880.5</ele>
        <time>2017-02-17T15:30:30Z</time>
      </trkpt>
      <trkpt lat="44.23736" lon="3.22119">
        <ele>880.7</ele>
        <time>2017-02-17T15:30:31Z</time>
      </trkpt>
      <trkpt lat="44.23731" lon="3.22119">
        <ele>880.9</ele>
        <time>2017-02-17T15:30:33Z</time>
      </trkpt>
      <trkpt lat="44.23728" lon="3.22119">
        <ele>881</ele>
        <time>2017-02-17T15:30:34Z</time>
      </trkpt>
      <trkpt lat="44.23723" lon="3.22121">
        <ele>881.1</ele>
        <time>2017-02-17T15:30:36Z</time>
      </trkpt>
      <trkpt lat="44.23718" lon="3.22122">
        <ele>881.2</ele>
        <time>2017-02-17T15:30:38Z</time>
      </trkpt>
      <trkpt lat="44.23715" lon="3.22123">
        <ele>881.2</ele>
        <time>2017-02-17T15:30:39Z</time>
      </trkpt>
      <trkpt lat="44.2371" lon="3.22123">
        <ele>881.3</ele>
        <time>2017-02-17T15:30:41Z</time>
      </trkpt>
      <trkpt lat="44.23707" lon="3.22122">
        <ele>881.3</ele>
        <time>2017-02-17T15:30:42Z</time>
      </trkpt>
      <trkpt lat="44.237" lon="3.2212">
        <ele>881.3</ele>
        <time>2017-02-17T15:30:46Z</time>
      </trkpt>
      <trkpt lat="44.23697" lon="3.22118">
        <ele>881.3</ele>
        <time>2017-02-17T15:30:47Z</time>
      </trkpt>
      <trkpt lat="44.23692" lon="3.22113">
        <ele>881.3</ele>
        <time>2017-02-17T15:30:49Z</time>
      </trkpt>
      <trkpt lat="44.2369" lon="3.22111">
        <ele>881.3</ele>
        <time>2017-02-17T15:30:50Z</time>
      </trkpt>
      <trkpt lat="44.23688" lon="3.22106">
        <ele>881.4</ele>
        <time>2017-02-17T15:30:53Z</time>
      </trkpt>
      <trkpt lat="44.23685" lon="3.22102">
        <ele>881.4</ele>
        <time>2017-02-17T15:30:54Z</time>
      </trkpt>
      <trkpt lat="44.23682" lon="3.22098">
        <ele>881.4</ele>
        <time>2017-02-17T15:30:55Z</time>
      </trkpt>
      <trkpt lat="44.23678" lon="3.22096">
        <ele>881.4</ele>
        <time>2017-02-17T15:30:56Z</time>
      </trkpt>
      <trkpt lat="44.23675" lon="3.22092">
        <ele>881.5</ele>
        <time>2017-02-17T15:30:57Z</time>
      </trkpt>
      <trkpt lat="44.23673" lon="3.22089">
        <ele>881.5</ele>
        <time>2017-02-17T15:30:58Z</time>
      </trkpt>
      <trkpt lat="44.2367" lon="3.22085">
        <ele>881.6</ele>
        <time>2017-02-17T15:31:00Z</time>
      </trkpt>
      <trkpt lat="44.23663" lon="3.22085">
        <ele>881.7</ele>
        <time>2017-02-17T15:31:07Z</time>
      </trkpt>
      <trkpt lat="44.2366" lon="3.22083">
        <ele>881.7</ele>
        <time>2017-02-17T15:31:08Z</time>
      </trkpt>
      <trkpt lat="44.23655" lon="3.2208">
        <ele>881.8</ele>
        <time>2017-02-17T15:31:09Z</time>
      </trkpt>
      <trkpt lat="44.23648" lon="3.22075">
        <ele>882.1</ele>
        <time>2017-02-17T15:31:10Z</time>
      </trkpt>
      <trkpt lat="44.23643" lon="3.22069">
        <ele>882.5</ele>
        <time>2017-02-17T15:31:11Z</time>
      </trkpt>
      <trkpt lat="44.23639" lon="3.22064">
        <ele>883.1</ele>
        <time>2017-02-17T15:31:12Z</time>
      </trkpt>
      <trkpt lat="44.23634" lon="3.22062">
        <ele>883.5</ele>
        <time>2017-02-17T15:31:14Z</time>
      </trkpt>
      <trkpt lat="44.23629" lon="3.2206">
        <ele>883.7</ele>
        <time>2017-02-17T15:31:20Z</time>
      </trkpt>
      <trkpt lat="44.23623" lon="3.22018">
        <ele>887.5</ele>
        <time>2017-02-17T15:31:34Z</time>
      </trkpt>
      <trkpt lat="44.2362" lon="3.22015">
        <ele>887.8</ele>
        <time>2017-02-17T15:31:35Z</time>
      </trkpt>
      <trkpt lat="44.23615" lon="3.22011">
        <ele>888.4</ele>
        <time>2017-02-17T15:31:37Z</time>
      </trkpt>
      <trkpt lat="44.23612" lon="3.22008">
        <ele>888.9</ele>
        <time>2017-02-17T15:31:39Z</time>
      </trkpt>
      <trkpt lat="44.23607" lon="3.22006">
        <ele>889.6</ele>
        <time>2017-02-17T15:31:45Z</time>
      </trkpt>
      <trkpt lat="44.23603" lon="3.22001">
        <ele>890.4</ele>
        <time>2017-02-17T15:31:49Z</time>
      </trkpt>
      <trkpt lat="44.23587" lon="3.22008">
        <ele>892.1</ele>
        <time>2017-02-17T15:31:57Z</time>
      </trkpt>
      <trkpt lat="44.23576" lon="3.22004">
        <ele>893.4</ele>
        <time>2017-02-17T15:32:02Z</time>
      </trkpt>
      <trkpt lat="44.2357" lon="3.21999">
        <ele>894.5</ele>
        <time>2017-02-17T15:32:04Z</time>
      </trkpt>
      <trkpt lat="44.23565" lon="3.21998">
        <ele>895.7</ele>
        <time>2017-02-17T15:32:06Z</time>
      </trkpt>
      <trkpt lat="44.23561" lon="3.21996">
        <ele>897.3</ele>
        <time>2017-02-17T15:32:08Z</time>
      </trkpt>
      <trkpt lat="44.23557" lon="3.21996">
        <ele>899.1</ele>
        <time>2017-02-17T15:32:12Z</time>
      </trkpt>
      <trkpt lat="44.23554" lon="3.21995">
        <ele>900.6</ele>
        <time>2017-02-17T15:32:15Z</time>
      </trkpt>
      <trkpt lat="44.2355" lon="3.21996">
        <ele>903</ele>
        <time>2017-02-17T15:32:18Z</time>
      </trkpt>
      <trkpt lat="44.23535" lon="3.22014">
        <ele>901</ele>
        <time>2017-02-17T15:33:59Z</time>
      </trkpt>
      <trkpt lat="44.23534" lon="3.2201">
        <ele>900.7</ele>
        <time>2017-02-17T15:34:00Z</time>
      </trkpt>
      <trkpt lat="44.23532" lon="3.21999">
        <ele>899.9</ele>
        <time>2017-02-17T15:34:05Z</time>
      </trkpt>
      <trkpt lat="44.23533" lon="3.22011">
        <ele>899</ele>
        <time>2017-02-17T15:34:35Z</time>
      </trkpt>
      <trkpt lat="44.23536" lon="3.22012">
        <ele>898.5</ele>
        <time>2017-02-17T15:34:38Z</time>
      </trkpt>
      <trkpt lat="44.23532" lon="3.22014">
        <ele>897.9</ele>
        <time>2017-02-17T15:34:42Z</time>
      </trkpt>
      <trkpt lat="44.23528" lon="3.22014">
        <ele>897.3</ele>
        <time>2017-02-17T15:34:43Z</time>
      </trkpt>
      <trkpt lat="44.23524" lon="3.22015">
        <ele>896.7</ele>
        <time>2017-02-17T15:34:45Z</time>
      </trkpt>
      <trkpt lat="44.2352" lon="3.22017">
        <ele>895.9</ele>
        <time>2017-02-17T15:34:47Z</time>
      </trkpt>
      <trkpt lat="44.23515" lon="3.22019">
        <ele>895.1</ele>
        <time>2017-02-17T15:34:48Z</time>
      </trkpt>
      <trkpt lat="44.23511" lon="3.22022">
        <ele>894.3</ele>
        <time>2017-02-17T15:34:49Z</time>
      </trkpt>
      <trkpt lat="44.23507" lon="3.22024">
        <ele>893.5</ele>
        <time>2017-02-17T15:34:50Z</time>
      </trkpt>
      <trkpt lat="44.23501" lon="3.22026">
        <ele>892.5</ele>
        <time>2017-02-17T15:34:51Z</time>
      </trkpt>
      <trkpt lat="44.23492" lon="3.22029">
        <ele>890.9</ele>
        <time>2017-02-17T15:34:52Z</time>
      </trkpt>
      <trkpt lat="44.23485" lon="3.22034">
        <ele>889.7</ele>
        <time>2017-02-17T15:34:53Z</time>
      </trkpt>
      <trkpt lat="44.23479" lon="3.22037">
        <ele>888.5</ele>
        <time>2017-02-17T15:34:54Z</time>
      </trkpt>
      <trkpt lat="44.23473" lon="3.22039">
        <ele>887.6</ele>
        <time>2017-02-17T15:34:55Z</time>
      </trkpt>
      <trkpt lat="44.23468" lon="3.2204">
        <ele>886.9</ele>
        <time>2017-02-17T15:34:56Z</time>
      </trkpt>
      <trkpt lat="44.23465" lon="3.22041">
        <ele>886.4</ele>
        <time>2017-02-17T15:34:57Z</time>
      </trkpt>
      <trkpt lat="44.23461" lon="3.2204">
        <ele>885.9</ele>
        <time>2017-02-17T15:34:58Z</time>
      </trkpt>
      <trkpt lat="44.23457" lon="3.22039">
        <ele>885.2</ele>
        <time>2017-02-17T15:34:59Z</time>
      </trkpt>
      <trkpt lat="44.23453" lon="3.22037">
        <ele>884.5</ele>
        <time>2017-02-17T15:35:00Z</time>
      </trkpt>
      <trkpt lat="44.23449" lon="3.22035">
        <ele>883.7</ele>
        <time>2017-02-17T15:35:01Z</time>
      </trkpt>
      <trkpt lat="44.23446" lon="3.22032">
        <ele>882.7</ele>
        <time>2017-02-17T15:35:02Z</time>
      </trkpt>
      <trkpt lat="44.23442" lon="3.22029">
        <ele>879.1</ele>
        <time>2017-02-17T15:35:03Z</time>
      </trkpt>
      <trkpt lat="44.23438" lon="3.22026">
        <ele>878.4</ele>
        <time>2017-02-17T15:35:05Z</time>
      </trkpt>
      <trkpt lat="44.23435" lon="3.22024">
        <ele>877.8</ele>
        <time>2017-02-17T15:35:06Z</time>
      </trkpt>
      <trkpt lat="44.23431" lon="3.22022">
        <ele>877.3</ele>
        <time>2017-02-17T15:35:07Z</time>
      </trkpt>
      <trkpt lat="44.23427" lon="3.2202">
        <ele>877</ele>
        <time>2017-02-17T15:35:08Z</time>
      </trkpt>
      <trkpt lat="44.23424" lon="3.22019">
        <ele>876.7</ele>
        <time>2017-02-17T15:35:09Z</time>
      </trkpt>
      <trkpt lat="44.23419" lon="3.22015">
        <ele>876.3</ele>
        <time>2017-02-17T15:35:11Z</time>
      </trkpt>
      <trkpt lat="44.23415" lon="3.22012">
        <ele>876.1</ele>
        <time>2017-02-17T15:35:13Z</time>
      </trkpt>
      <trkpt lat="44.2341" lon="3.22011">
        <ele>876</ele>
        <time>2017-02-17T15:35:15Z</time>
      </trkpt>
      <trkpt lat="44.23408" lon="3.22007">
        <ele>875.9</ele>
        <time>2017-02-17T15:35:18Z</time>
      </trkpt>
      <trkpt lat="44.23405" lon="3.22005">
        <ele>875.8</ele>
        <time>2017-02-17T15:35:21Z</time>
      </trkpt>
      <trkpt lat="44.23401" lon="3.22008">
        <ele>875.8</ele>
        <time>2017-02-17T15:35:31Z</time>
      </trkpt>
      <trkpt lat="44.23404" lon="3.2201">
        <ele>875.8</ele>
        <time>2017-02-17T15:35:40Z</time>
      </trkpt>
      <trkpt lat="44.23407" lon="3.22012">
        <ele>875.9</ele>
        <time>2017-02-17T15:35:43Z</time>
      </trkpt>
      <trkpt lat="44.23411" lon="3.22015">
        <ele>876</ele>
        <time>2017-02-17T15:35:45Z</time>
      </trkpt>
      <trkpt lat="44.23414" lon="3.22018">
        <ele>876.1</ele>
        <time>2017-02-17T15:35:47Z</time>
      </trkpt>
      <trkpt lat="44.23417" lon="3.22018">
        <ele>876.2</ele>
        <time>2017-02-17T15:35:48Z</time>
      </trkpt>
      <trkpt lat="44.23423" lon="3.2202">
        <ele>876.6</ele>
        <time>2017-02-17T15:35:50Z</time>
      </trkpt>
      <trkpt lat="44.23426" lon="3.22024">
        <ele>876.9</ele>
        <time>2017-02-17T15:35:52Z</time>
      </trkpt>
      <trkpt lat="44.23428" lon="3.22027">
        <ele>877</ele>
        <time>2017-02-17T15:35:55Z</time>
      </trkpt>
      <trkpt lat="44.23426" lon="3.22031">
        <ele>876.6</ele>
        <time>2017-02-17T15:35:57Z</time>
      </trkpt>
      <trkpt lat="44.23422" lon="3.22039">
        <ele>875.8</ele>
        <time>2017-02-17T15:36:00Z</time>
      </trkpt>
      <trkpt lat="44.23423" lon="3.22043">
        <ele>875.5</ele>
        <time>2017-02-17T15:36:02Z</time>
      </trkpt>
      <trkpt lat="44.2342" lon="3.22046">
        <ele>875</ele>
        <time>2017-02-17T15:36:03Z</time>
      </trkpt>
      <trkpt lat="44.23415" lon="3.22051">
        <ele>874.3</ele>
        <time>2017-02-17T15:36:05Z</time>
      </trkpt>
      <trkpt lat="44.23412" lon="3.22052">
        <ele>873.2</ele>
        <time>2017-02-17T15:36:06Z</time>
      </trkpt>
      <trkpt lat="44.23406" lon="3.22061">
        <ele>869.5</ele>
        <time>2017-02-17T15:36:09Z</time>
      </trkpt>
      <trkpt lat="44.23401" lon="3.22063">
        <ele>867.9</ele>
        <time>2017-02-17T15:36:11Z</time>
      </trkpt>
      <trkpt lat="44.23397" lon="3.22064">
        <ele>866.5</ele>
        <time>2017-02-17T15:36:12Z</time>
      </trkpt>
      <trkpt lat="44.23393" lon="3.22065">
        <ele>865.2</ele>
        <time>2017-02-17T15:36:13Z</time>
      </trkpt>
      <trkpt lat="44.23389" lon="3.22068">
        <ele>863.9</ele>
        <time>2017-02-17T15:36:14Z</time>
      </trkpt>
      <trkpt lat="44.23381" lon="3.22072">
        <ele>861.7</ele>
        <time>2017-02-17T15:36:15Z</time>
      </trkpt>
      <trkpt lat="44.23377" lon="3.22074">
        <ele>860.4</ele>
        <time>2017-02-17T15:36:16Z</time>
      </trkpt>
      <trkpt lat="44.23372" lon="3.22076">
        <ele>859.2</ele>
        <time>2017-02-17T15:36:17Z</time>
      </trkpt>
      <trkpt lat="44.23368" lon="3.22077">
        <ele>857.9</ele>
        <time>2017-02-17T15:36:18Z</time>
      </trkpt>
      <trkpt lat="44.23364" lon="3.22077">
        <ele>856.9</ele>
        <time>2017-02-17T15:36:19Z</time>
      </trkpt>
      <trkpt lat="44.2336" lon="3.22079">
        <ele>856</ele>
        <time>2017-02-17T15:36:20Z</time>
      </trkpt>
      <trkpt lat="44.23357" lon="3.22081">
        <ele>855.1</ele>
        <time>2017-02-17T15:36:21Z</time>
      </trkpt>
      <trkpt lat="44.23355" lon="3.22083">
        <ele>854.5</ele>
        <time>2017-02-17T15:36:22Z</time>
      </trkpt>
      <trkpt lat="44.23352" lon="3.2208">
        <ele>853.8</ele>
        <time>2017-02-17T15:36:25Z</time>
      </trkpt>
      <trkpt lat="44.23348" lon="3.22079">
        <ele>852.8</ele>
        <time>2017-02-17T15:36:29Z</time>
      </trkpt>
      <trkpt lat="44.23342" lon="3.22079">
        <ele>851.3</ele>
        <time>2017-02-17T15:36:31Z</time>
      </trkpt>
      <trkpt lat="44.23304" lon="3.22095">
        <ele>842.1</ele>
        <time>2017-02-17T15:36:40Z</time>
      </trkpt>
      <trkpt lat="44.23296" lon="3.22099">
        <ele>840.2</ele>
        <time>2017-02-17T15:36:41Z</time>
      </trkpt>
      <trkpt lat="44.23264" lon="3.22111">
        <ele>832.6</ele>
        <time>2017-02-17T15:36:46Z</time>
      </trkpt>
      <trkpt lat="44.2326" lon="3.22105">
        <ele>831.1</ele>
        <time>2017-02-17T15:36:47Z</time>
      </trkpt>
      <trkpt lat="44.23258" lon="3.22098">
        <ele>829.7</ele>
        <time>2017-02-17T15:36:48Z</time>
      </trkpt>
      <trkpt lat="44.23256" lon="3.22092">
        <ele>828.2</ele>
        <time>2017-02-17T15:36:49Z</time>
      </trkpt>
      <trkpt lat="44.23255" lon="3.22087">
        <ele>826.9</ele>
        <time>2017-02-17T15:36:50Z</time>
      </trkpt>
      <trkpt lat="44.23253" lon="3.22083">
        <ele>825.5</ele>
        <time>2017-02-17T15:36:51Z</time>
      </trkpt>
      <trkpt lat="44.2325" lon="3.2208">
        <ele>824.1</ele>
        <time>2017-02-17T15:36:52Z</time>
      </trkpt>
      <trkpt lat="44.23246" lon="3.22076">
        <ele>822.6</ele>
        <time>2017-02-17T15:36:53Z</time>
      </trkpt>
      <trkpt lat="44.23239" lon="3.22073">
        <ele>821.3</ele>
        <time>2017-02-17T15:36:54Z</time>
      </trkpt>
      <trkpt lat="44.23233" lon="3.22073">
        <ele>820.3</ele>
        <time>2017-02-17T15:36:55Z</time>
      </trkpt>
      <trkpt lat="44.23227" lon="3.22073">
        <ele>818.7</ele>
        <time>2017-02-17T15:36:56Z</time>
      </trkpt>
      <trkpt lat="44.23224" lon="3.22073">
        <ele>818.1</ele>
        <time>2017-02-17T15:37:05Z</time>
      </trkpt>
      <trkpt lat="44.2322" lon="3.22074">
        <ele>817.5</ele>
        <time>2017-02-17T15:37:07Z</time>
      </trkpt>
      <trkpt lat="44.23217" lon="3.22075">
        <ele>817</ele>
        <time>2017-02-17T15:37:11Z</time>
      </trkpt>
      <trkpt lat="44.23214" lon="3.22073">
        <ele>816.5</ele>
        <time>2017-02-17T15:37:24Z</time>
      </trkpt>
      <trkpt lat="44.23216" lon="3.22076">
        <ele>816.2</ele>
        <time>2017-02-17T15:37:32Z</time>
      </trkpt>
      <trkpt lat="44.23221" lon="3.22077">
        <ele>815.7</ele>
        <time>2017-02-17T15:37:38Z</time>
      </trkpt>
      <trkpt lat="44.23223" lon="3.22078">
        <ele>815.4</ele>
        <time>2017-02-17T15:37:44Z</time>
      </trkpt>
      <trkpt lat="44.2322" lon="3.22079">
        <ele>815.1</ele>
        <time>2017-02-17T15:37:59Z</time>
      </trkpt>
      <trkpt lat="44.23217" lon="3.2208">
        <ele>814.8</ele>
        <time>2017-02-17T15:38:02Z</time>
      </trkpt>
      <trkpt lat="44.23215" lon="3.22083">
        <ele>814.5</ele>
        <time>2017-02-17T15:38:10Z</time>
      </trkpt>
      <trkpt lat="44.2321" lon="3.22087">
        <ele>814.1</ele>
        <time>2017-02-17T15:38:14Z</time>
      </trkpt>
      <trkpt lat="44.23207" lon="3.22086">
        <ele>813.9</ele>
        <time>2017-02-17T15:38:22Z</time>
      </trkpt>
      <trkpt lat="44.23206" lon="3.22082">
        <ele>813.7</ele>
        <time>2017-02-17T15:38:26Z</time>
      </trkpt>
      <trkpt lat="44.23203" lon="3.2208">
        <ele>813.5</ele>
        <time>2017-02-17T15:38:29Z</time>
      </trkpt>
      <trkpt lat="44.23201" lon="3.22075">
        <ele>813.3</ele>
        <time>2017-02-17T15:38:31Z</time>
      </trkpt>
      <trkpt lat="44.23202" lon="3.22071">
        <ele>813.2</ele>
        <time>2017-02-17T15:38:33Z</time>
      </trkpt>
      <trkpt lat="44.23201" lon="3.22067">
        <ele>813</ele>
        <time>2017-02-17T15:38:35Z</time>
      </trkpt>
      <trkpt lat="44.23198" lon="3.2206">
        <ele>812.9</ele>
        <time>2017-02-17T15:38:37Z</time>
      </trkpt>
      <trkpt lat="44.23196" lon="3.22056">
        <ele>812.9</ele>
        <time>2017-02-17T15:38:38Z</time>
      </trkpt>
      <trkpt lat="44.23193" lon="3.22051">
        <ele>813</ele>
        <time>2017-02-17T15:38:39Z</time>
      </trkpt>
      <trkpt lat="44.23189" lon="3.22044">
        <ele>813.1</ele>
        <time>2017-02-17T15:38:41Z</time>
      </trkpt>
      <trkpt lat="44.23186" lon="3.22039">
        <ele>813.3</ele>
        <time>2017-02-17T15:38:42Z</time>
      </trkpt>
      <trkpt lat="44.23185" lon="3.22033">
        <ele>813.4</ele>
        <time>2017-02-17T15:38:43Z</time>
      </trkpt>
      <trkpt lat="44.23183" lon="3.22028">
        <ele>813.4</ele>
        <time>2017-02-17T15:38:44Z</time>
      </trkpt>
      <trkpt lat="44.23178" lon="3.22028">
        <ele>813.3</ele>
        <time>2017-02-17T15:38:46Z</time>
      </trkpt>
      <trkpt lat="44.23173" lon="3.22027">
        <ele>812.9</ele>
        <time>2017-02-17T15:38:47Z</time>
      </trkpt>
      <trkpt lat="44.23169" lon="3.22028">
        <ele>812.5</ele>
        <time>2017-02-17T15:38:48Z</time>
      </trkpt>
      <trkpt lat="44.23167" lon="3.2203">
        <ele>812.3</ele>
        <time>2017-02-17T15:38:49Z</time>
      </trkpt>
      <trkpt lat="44.23163" lon="3.22034">
        <ele>813.1</ele>
        <time>2017-02-17T15:38:51Z</time>
      </trkpt>
      <trkpt lat="44.23161" lon="3.22037">
        <ele>813.3</ele>
        <time>2017-02-17T15:38:52Z</time>
      </trkpt>
      <trkpt lat="44.23158" lon="3.2204">
        <ele>813.8</ele>
        <time>2017-02-17T15:38:54Z</time>
      </trkpt>
      <trkpt lat="44.23155" lon="3.22041">
        <ele>813.9</ele>
        <time>2017-02-17T15:38:56Z</time>
      </trkpt>
      <trkpt lat="44.23152" lon="3.22038">
        <ele>814</ele>
        <time>2017-02-17T15:38:57Z</time>
      </trkpt>
      <trkpt lat="44.2315" lon="3.22033">
        <ele>814.1</ele>
        <time>2017-02-17T15:38:58Z</time>
      </trkpt>
      <trkpt lat="44.23148" lon="3.22029">
        <ele>814.2</ele>
        <time>2017-02-17T15:38:59Z</time>
      </trkpt>
      <trkpt lat="44.23146" lon="3.22026">
        <ele>814.5</ele>
        <time>2017-02-17T15:39:00Z</time>
      </trkpt>
      <trkpt lat="44.23143" lon="3.22023">
        <ele>814.5</ele>
        <time>2017-02-17T15:39:02Z</time>
      </trkpt>
      <trkpt lat="44.2314" lon="3.2202">
        <ele>814.4</ele>
        <time>2017-02-17T15:39:03Z</time>
      </trkpt>
      <trkpt lat="44.23135" lon="3.22019">
        <ele>814.4</ele>
        <time>2017-02-17T15:39:04Z</time>
      </trkpt>
      <trkpt lat="44.23131" lon="3.22018">
        <ele>814.3</ele>
        <time>2017-02-17T15:39:05Z</time>
      </trkpt>
      <trkpt lat="44.23126" lon="3.22019">
        <ele>814.2</ele>
        <time>2017-02-17T15:39:06Z</time>
      </trkpt>
      <trkpt lat="44.23122" lon="3.22018">
        <ele>814</ele>
        <time>2017-02-17T15:39:08Z</time>
      </trkpt>
      <trkpt lat="44.23119" lon="3.22017">
        <ele>813.9</ele>
        <time>2017-02-17T15:39:09Z</time>
      </trkpt>
      <trkpt lat="44.23116" lon="3.2202">
        <ele>813.8</ele>
        <time>2017-02-17T15:39:10Z</time>
      </trkpt>
      <trkpt lat="44.23113" lon="3.22021">
        <ele>813.6</ele>
        <time>2017-02-17T15:39:11Z</time>
      </trkpt>
      <trkpt lat="44.23111" lon="3.22028">
        <ele>813.4</ele>
        <time>2017-02-17T15:39:13Z</time>
      </trkpt>
      <trkpt lat="44.23109" lon="3.22031">
        <ele>813.2</ele>
        <time>2017-02-17T15:39:14Z</time>
      </trkpt>
      <trkpt lat="44.23107" lon="3.22039">
        <ele>813</ele>
        <time>2017-02-17T15:39:16Z</time>
      </trkpt>
      <trkpt lat="44.23106" lon="3.22042">
        <ele>812.9</ele>
        <time>2017-02-17T15:39:17Z</time>
      </trkpt>
      <trkpt lat="44.23103" lon="3.22044">
        <ele>812.8</ele>
        <time>2017-02-17T15:39:18Z</time>
      </trkpt>
      <trkpt lat="44.231" lon="3.22047">
        <ele>812.7</ele>
        <time>2017-02-17T15:39:19Z</time>
      </trkpt>
      <trkpt lat="44.23099" lon="3.2205">
        <ele>812.7</ele>
        <time>2017-02-17T15:39:20Z</time>
      </trkpt>
      <trkpt lat="44.23098" lon="3.22054">
        <ele>812.6</ele>
        <time>2017-02-17T15:39:21Z</time>
      </trkpt>
      <trkpt lat="44.23096" lon="3.22057">
        <ele>812.6</ele>
        <time>2017-02-17T15:39:22Z</time>
      </trkpt>
      <trkpt lat="44.23093" lon="3.22061">
        <ele>812.5</ele>
        <time>2017-02-17T15:39:23Z</time>
      </trkpt>
      <trkpt lat="44.23089" lon="3.22064">
        <ele>812.4</ele>
        <time>2017-02-17T15:39:24Z</time>
      </trkpt>
      <trkpt lat="44.23085" lon="3.22068">
        <ele>812.4</ele>
        <time>2017-02-17T15:39:25Z</time>
      </trkpt>
      <trkpt lat="44.23082" lon="3.2207">
        <ele>812.3</ele>
        <time>2017-02-17T15:39:26Z</time>
      </trkpt>
      <trkpt lat="44.23078" lon="3.22071">
        <ele>812.3</ele>
        <time>2017-02-17T15:39:27Z</time>
      </trkpt>
      <trkpt lat="44.23075" lon="3.22072">
        <ele>812.2</ele>
        <time>2017-02-17T15:39:28Z</time>
      </trkpt>
      <trkpt lat="44.2307" lon="3.22072">
        <ele>812.2</ele>
        <time>2017-02-17T15:39:29Z</time>
      </trkpt>
      <trkpt lat="44.23068" lon="3.22077">
        <ele>812.1</ele>
        <time>2017-02-17T15:39:30Z</time>
      </trkpt>
      <trkpt lat="44.23065" lon="3.22081">
        <ele>812.1</ele>
        <time>2017-02-17T15:39:31Z</time>
      </trkpt>
      <trkpt lat="44.23061" lon="3.22082">
        <ele>812</ele>
        <time>2017-02-17T15:39:32Z</time>
      </trkpt>
      <trkpt lat="44.23057" lon="3.22084">
        <ele>812</ele>
        <time>2017-02-17T15:39:33Z</time>
      </trkpt>
      <trkpt lat="44.23053" lon="3.22087">
        <ele>812</ele>
        <time>2017-02-17T15:39:34Z</time>
      </trkpt>
      <trkpt lat="44.23048" lon="3.2209">
        <ele>812</ele>
        <time>2017-02-17T15:39:35Z</time>
      </trkpt>
      <trkpt lat="44.23044" lon="3.22095">
        <ele>811.7</ele>
        <time>2017-02-17T15:39:36Z</time>
      </trkpt>
      <trkpt lat="44.23042" lon="3.22098">
        <ele>811.1</ele>
        <time>2017-02-17T15:39:37Z</time>
      </trkpt>
      <trkpt lat="44.23039" lon="3.22099">
        <ele>810.4</ele>
        <time>2017-02-17T15:39:40Z</time>
      </trkpt>
      <trkpt lat="44.23037" lon="3.22105">
        <ele>809.7</ele>
        <time>2017-02-17T15:39:46Z</time>
      </trkpt>
      <trkpt lat="44.23036" lon="3.22117">
        <ele>808.3</ele>
        <time>2017-02-17T15:39:49Z</time>
      </trkpt>
      <trkpt lat="44.23032" lon="3.22125">
        <ele>807.4</ele>
        <time>2017-02-17T15:39:52Z</time>
      </trkpt>
      <trkpt lat="44.23029" lon="3.22127">
        <ele>807</ele>
        <time>2017-02-17T15:39:53Z</time>
      </trkpt>
      <trkpt lat="44.23021" lon="3.22132">
        <ele>806.2</ele>
        <time>2017-02-17T15:39:54Z</time>
      </trkpt>
      <trkpt lat="44.23005" lon="3.22142">
        <ele>804.5</ele>
        <time>2017-02-17T15:39:56Z</time>
      </trkpt>
      <trkpt lat="44.23" lon="3.22144">
        <ele>804</ele>
        <time>2017-02-17T15:39:57Z</time>
      </trkpt>
      <trkpt lat="44.22993" lon="3.22144">
        <ele>803.3</ele>
        <time>2017-02-17T15:39:58Z</time>
      </trkpt>
      <trkpt lat="44.22983" lon="3.22143">
        <ele>802.3</ele>
        <time>2017-02-17T15:39:59Z</time>
      </trkpt>
      <trkpt lat="44.22976" lon="3.22141">
        <ele>801.7</ele>
        <time>2017-02-17T15:40:00Z</time>
      </trkpt>
      <trkpt lat="44.22971" lon="3.2214">
        <ele>801.1</ele>
        <time>2017-02-17T15:40:01Z</time>
      </trkpt>
      <trkpt lat="44.22966" lon="3.2214">
        <ele>800</ele>
        <time>2017-02-17T15:40:02Z</time>
      </trkpt>
      <trkpt lat="44.22949" lon="3.22132">
        <ele>791.4</ele>
        <time>2017-02-17T15:40:06Z</time>
      </trkpt>
      <trkpt lat="44.22942" lon="3.22131">
        <ele>789.5</ele>
        <time>2017-02-17T15:40:21Z</time>
      </trkpt>
      <trkpt lat="44.22937" lon="3.22128">
        <ele>788.4</ele>
        <time>2017-02-17T15:40:26Z</time>
      </trkpt>
      <trkpt lat="44.22933" lon="3.22126">
        <ele>787.4</ele>
        <time>2017-02-17T15:40:33Z</time>
      </trkpt>
      <trkpt lat="44.22928" lon="3.22123">
        <ele>786.5</ele>
        <time>2017-02-17T15:40:40Z</time>
      </trkpt>
      <trkpt lat="44.22924" lon="3.2212">
        <ele>785.6</ele>
        <time>2017-02-17T15:41:23Z</time>
      </trkpt>
      <trkpt lat="44.22919" lon="3.22118">
        <ele>784.6</ele>
        <time>2017-02-17T15:41:24Z</time>
      </trkpt>
      <trkpt lat="44.22921" lon="3.22114">
        <ele>783.9</ele>
        <time>2017-02-17T15:41:25Z</time>
      </trkpt>
      <trkpt lat="44.22916" lon="3.2211">
        <ele>782.9</ele>
        <time>2017-02-17T15:41:28Z</time>
      </trkpt>
      <trkpt lat="44.22911" lon="3.22109">
        <ele>782</ele>
        <time>2017-02-17T15:41:29Z</time>
      </trkpt>
      <trkpt lat="44.22907" lon="3.22108">
        <ele>781.1</ele>
        <time>2017-02-17T15:41:30Z</time>
      </trkpt>
      <trkpt lat="44.22903" lon="3.22106">
        <ele>780.4</ele>
        <time>2017-02-17T15:41:31Z</time>
      </trkpt>
      <trkpt lat="44.22896" lon="3.22104">
        <ele>779.1</ele>
        <time>2017-02-17T15:41:33Z</time>
      </trkpt>
      <trkpt lat="44.22893" lon="3.22103">
        <ele>778.5</ele>
        <time>2017-02-17T15:41:34Z</time>
      </trkpt>
      <trkpt lat="44.22891" lon="3.221">
        <ele>778</ele>
        <time>2017-02-17T15:41:35Z</time>
      </trkpt>
      <trkpt lat="44.22888" lon="3.22096">
        <ele>777.4</ele>
        <time>2017-02-17T15:41:36Z</time>
      </trkpt>
      <trkpt lat="44.22886" lon="3.22091">
        <ele>776.7</ele>
        <time>2017-02-17T15:41:37Z</time>
      </trkpt>
      <trkpt lat="44.22883" lon="3.22085">
        <ele>776</ele>
        <time>2017-02-17T15:41:38Z</time>
      </trkpt>
      <trkpt lat="44.22879" lon="3.22084">
        <ele>775.3</ele>
        <time>2017-02-17T15:41:39Z</time>
      </trkpt>
      <trkpt lat="44.22873" lon="3.22083">
        <ele>774.6</ele>
        <time>2017-02-17T15:41:40Z</time>
      </trkpt>
      <trkpt lat="44.22869" lon="3.22083">
        <ele>774.2</ele>
        <time>2017-02-17T15:41:41Z</time>
      </trkpt>
      <trkpt lat="44.22863" lon="3.22084">
        <ele>773.6</ele>
        <time>2017-02-17T15:41:42Z</time>
      </trkpt>
      <trkpt lat="44.22858" lon="3.22083">
        <ele>773</ele>
        <time>2017-02-17T15:41:43Z</time>
      </trkpt>
      <trkpt lat="44.22854" lon="3.22082">
        <ele>771.2</ele>
        <time>2017-02-17T15:41:44Z</time>
      </trkpt>
      <trkpt lat="44.22849" lon="3.22079">
        <ele>763.3</ele>
        <time>2017-02-17T15:41:45Z</time>
      </trkpt>
      <trkpt lat="44.22844" lon="3.22076">
        <ele>762.2</ele>
        <time>2017-02-17T15:41:46Z</time>
      </trkpt>
      <trkpt lat="44.2284" lon="3.22074">
        <ele>761.8</ele>
        <time>2017-02-17T15:41:47Z</time>
      </trkpt>
      <trkpt lat="44.22836" lon="3.22073">
        <ele>761.5</ele>
        <time>2017-02-17T15:41:48Z</time>
      </trkpt>
      <trkpt lat="44.22833" lon="3.22072">
        <ele>761.2</ele>
        <time>2017-02-17T15:41:49Z</time>
      </trkpt>
      <trkpt lat="44.2283" lon="3.2207">
        <ele>761</ele>
        <time>2017-02-17T15:41:57Z</time>
      </trkpt>
      <trkpt lat="44.22831" lon="3.22075">
        <ele>760.5</ele>
        <time>2017-02-17T15:42:04Z</time>
      </trkpt>
      <trkpt lat="44.22836" lon="3.22078">
        <ele>759.4</ele>
        <time>2017-02-17T15:42:06Z</time>
      </trkpt>
      <trkpt lat="44.22839" lon="3.2208">
        <ele>758.5</ele>
        <time>2017-02-17T15:42:07Z</time>
      </trkpt>
      <trkpt lat="44.22842" lon="3.22083">
        <ele>757.3</ele>
        <time>2017-02-17T15:42:08Z</time>
      </trkpt>
      <trkpt lat="44.22845" lon="3.22086">
        <ele>756</ele>
        <time>2017-02-17T15:42:09Z</time>
      </trkpt>
      <trkpt lat="44.22848" lon="3.22089">
        <ele>754.5</ele>
        <time>2017-02-17T15:42:10Z</time>
      </trkpt>
      <trkpt lat="44.2285" lon="3.22093">
        <ele>753.5</ele>
        <time>2017-02-17T15:42:11Z</time>
      </trkpt>
      <trkpt lat="44.22853" lon="3.22096">
        <ele>752.5</ele>
        <time>2017-02-17T15:42:13Z</time>
      </trkpt>
      <trkpt lat="44.22857" lon="3.22102">
        <ele>751.4</ele>
        <time>2017-02-17T15:42:15Z</time>
      </trkpt>
      <trkpt lat="44.22857" lon="3.22108">
        <ele>750.7</ele>
        <time>2017-02-17T15:42:16Z</time>
      </trkpt>
      <trkpt lat="44.22854" lon="3.2211">
        <ele>750.2</ele>
        <time>2017-02-17T15:42:19Z</time>
      </trkpt>
      <trkpt lat="44.22851" lon="3.22112">
        <ele>749.6</ele>
        <time>2017-02-17T15:42:21Z</time>
      </trkpt>
      <trkpt lat="44.2285" lon="3.22117">
        <ele>749.1</ele>
        <time>2017-02-17T15:42:23Z</time>
      </trkpt>
      <trkpt lat="44.2285" lon="3.22127">
        <ele>747.9</ele>
        <time>2017-02-17T15:42:25Z</time>
      </trkpt>
      <trkpt lat="44.22851" lon="3.22135">
        <ele>747</ele>
        <time>2017-02-17T15:42:26Z</time>
      </trkpt>
      <trkpt lat="44.22852" lon="3.2214">
        <ele>746.4</ele>
        <time>2017-02-17T15:42:27Z</time>
      </trkpt>
      <trkpt lat="44.22853" lon="3.22146">
        <ele>745.6</ele>
        <time>2017-02-17T15:42:28Z</time>
      </trkpt>
      <trkpt lat="44.22855" lon="3.22152">
        <ele>744.9</ele>
        <time>2017-02-17T15:42:29Z</time>
      </trkpt>
      <trkpt lat="44.22856" lon="3.22156">
        <ele>744.3</ele>
        <time>2017-02-17T15:42:30Z</time>
      </trkpt>
      <trkpt lat="44.22857" lon="3.22161">
        <ele>743.8</ele>
        <time>2017-02-17T15:42:32Z</time>
      </trkpt>
      <trkpt lat="44.22858" lon="3.22164">
        <ele>743.2</ele>
        <time>2017-02-17T15:42:45Z</time>
      </trkpt>
      <trkpt lat="44.2286" lon="3.22168">
        <ele>742.5</ele>
        <time>2017-02-17T15:42:51Z</time>
      </trkpt>
      <trkpt lat="44.22862" lon="3.22171">
        <ele>741.7</ele>
        <time>2017-02-17T15:42:53Z</time>
      </trkpt>
      <trkpt lat="44.22866" lon="3.22176">
        <ele>740.5</ele>
        <time>2017-02-17T15:42:55Z</time>
      </trkpt>
      <trkpt lat="44.22868" lon="3.2218">
        <ele>739.5</ele>
        <time>2017-02-17T15:42:56Z</time>
      </trkpt>
      <trkpt lat="44.2287" lon="3.22186">
        <ele>737.9</ele>
        <time>2017-02-17T15:42:57Z</time>
      </trkpt>
      <trkpt lat="44.22869" lon="3.2219">
        <ele>737</ele>
        <time>2017-02-17T15:42:58Z</time>
      </trkpt>
      <trkpt lat="44.22869" lon="3.22194">
        <ele>736.4</ele>
        <time>2017-02-17T15:42:59Z</time>
      </trkpt>
      <trkpt lat="44.22871" lon="3.22201">
        <ele>735.1</ele>
        <time>2017-02-17T15:43:01Z</time>
      </trkpt>
      <trkpt lat="44.22873" lon="3.22205">
        <ele>734.4</ele>
        <time>2017-02-17T15:43:02Z</time>
      </trkpt>
      <trkpt lat="44.22867" lon="3.22205">
        <ele>733.4</ele>
        <time>2017-02-17T15:43:06Z</time>
      </trkpt>
      <trkpt lat="44.22864" lon="3.22203">
        <ele>732.9</ele>
        <time>2017-02-17T15:43:07Z</time>
      </trkpt>
      <trkpt lat="44.22862" lon="3.22199">
        <ele>732.4</ele>
        <time>2017-02-17T15:43:08Z</time>
      </trkpt>
      <trkpt lat="44.22857" lon="3.22195">
        <ele>731.4</ele>
        <time>2017-02-17T15:43:10Z</time>
      </trkpt>
      <trkpt lat="44.22852" lon="3.22194">
        <ele>730.7</ele>
        <time>2017-02-17T15:43:11Z</time>
      </trkpt>
      <trkpt lat="44.22848" lon="3.22191">
        <ele>730.1</ele>
        <time>2017-02-17T15:43:12Z</time>
      </trkpt>
      <trkpt lat="44.22843" lon="3.22189">
        <ele>729.4</ele>
        <time>2017-02-17T15:43:13Z</time>
      </trkpt>
      <trkpt lat="44.22839" lon="3.22188">
        <ele>728.8</ele>
        <time>2017-02-17T15:43:14Z</time>
      </trkpt>
      <trkpt lat="44.22833" lon="3.22188">
        <ele>728.1</ele>
        <time>2017-02-17T15:43:15Z</time>
      </trkpt>
      <trkpt lat="44.22829" lon="3.22187">
        <ele>727.5</ele>
        <time>2017-02-17T15:43:16Z</time>
      </trkpt>
      <trkpt lat="44.22825" lon="3.22186">
        <ele>726.9</ele>
        <time>2017-02-17T15:43:17Z</time>
      </trkpt>
      <trkpt lat="44.22821" lon="3.22183">
        <ele>726.3</ele>
        <time>2017-02-17T15:43:18Z</time>
      </trkpt>
      <trkpt lat="44.22818" lon="3.22179">
        <ele>725.7</ele>
        <time>2017-02-17T15:43:19Z</time>
      </trkpt>
      <trkpt lat="44.22816" lon="3.22175">
        <ele>725.3</ele>
        <time>2017-02-17T15:43:20Z</time>
      </trkpt>
      <trkpt lat="44.22811" lon="3.2217">
        <ele>724.6</ele>
        <time>2017-02-17T15:43:22Z</time>
      </trkpt>
      <trkpt lat="44.22808" lon="3.22167">
        <ele>724.1</ele>
        <time>2017-02-17T15:43:23Z</time>
      </trkpt>
      <trkpt lat="44.22808" lon="3.22163">
        <ele>723.8</ele>
        <time>2017-02-17T15:43:24Z</time>
      </trkpt>
      <trkpt lat="44.22806" lon="3.22157">
        <ele>723.5</ele>
        <time>2017-02-17T15:43:26Z</time>
      </trkpt>
      <trkpt lat="44.22803" lon="3.22154">
        <ele>723.1</ele>
        <time>2017-02-17T15:43:27Z</time>
      </trkpt>
      <trkpt lat="44.228" lon="3.22154">
        <ele>720.8</ele>
        <time>2017-02-17T15:43:39Z</time>
      </trkpt>
      <trkpt lat="44.22798" lon="3.22151">
        <ele>720</ele>
        <time>2017-02-17T15:43:48Z</time>
      </trkpt>
      <trkpt lat="44.22798" lon="3.22146">
        <ele>718.9</ele>
        <time>2017-02-17T15:43:50Z</time>
      </trkpt>
      <trkpt lat="44.22797" lon="3.2214">
        <ele>717.2</ele>
        <time>2017-02-17T15:43:52Z</time>
      </trkpt>
      <trkpt lat="44.22797" lon="3.22135">
        <ele>716.1</ele>
        <time>2017-02-17T15:43:54Z</time>
      </trkpt>
      <trkpt lat="44.22795" lon="3.22129">
        <ele>714.8</ele>
        <time>2017-02-17T15:43:56Z</time>
      </trkpt>
      <trkpt lat="44.22793" lon="3.22126">
        <ele>714.1</ele>
        <time>2017-02-17T15:43:57Z</time>
      </trkpt>
      <trkpt lat="44.2279" lon="3.22122">
        <ele>713.1</ele>
        <time>2017-02-17T15:43:59Z</time>
      </trkpt>
      <trkpt lat="44.22785" lon="3.2212">
        <ele>712.1</ele>
        <time>2017-02-17T15:44:02Z</time>
      </trkpt>
      <trkpt lat="44.22784" lon="3.22117">
        <ele>711.5</ele>
        <time>2017-02-17T15:44:04Z</time>
      </trkpt>
      <trkpt lat="44.22783" lon="3.22112">
        <ele>710.9</ele>
        <time>2017-02-17T15:44:05Z</time>
      </trkpt>
      <trkpt lat="44.22782" lon="3.22108">
        <ele>710.3</ele>
        <time>2017-02-17T15:44:06Z</time>
      </trkpt>
      <trkpt lat="44.2278" lon="3.22103">
        <ele>709.7</ele>
        <time>2017-02-17T15:44:07Z</time>
      </trkpt>
      <trkpt lat="44.22777" lon="3.22099">
        <ele>709.1</ele>
        <time>2017-02-17T15:44:08Z</time>
      </trkpt>
      <trkpt lat="44.22774" lon="3.22095">
        <ele>708.6</ele>
        <time>2017-02-17T15:44:09Z</time>
      </trkpt>
      <trkpt lat="44.2277" lon="3.22089">
        <ele>708</ele>
        <time>2017-02-17T15:44:10Z</time>
      </trkpt>
      <trkpt lat="44.22765" lon="3.22081">
        <ele>706.9</ele>
        <time>2017-02-17T15:44:11Z</time>
      </trkpt>
      <trkpt lat="44.22761" lon="3.22075">
        <ele>705.9</ele>
        <time>2017-02-17T15:44:12Z</time>
      </trkpt>
      <trkpt lat="44.22758" lon="3.22071">
        <ele>705.3</ele>
        <time>2017-02-17T15:44:13Z</time>
      </trkpt>
      <trkpt lat="44.22755" lon="3.22067">
        <ele>704.7</ele>
        <time>2017-02-17T15:44:14Z</time>
      </trkpt>
      <trkpt lat="44.22754" lon="3.22063">
        <ele>704.3</ele>
        <time>2017-02-17T15:44:15Z</time>
      </trkpt>
      <trkpt lat="44.22754" lon="3.22059">
        <ele>703.8</ele>
        <time>2017-02-17T15:44:16Z</time>
      </trkpt>
      <trkpt lat="44.22752" lon="3.22056">
        <ele>703.3</ele>
        <time>2017-02-17T15:44:17Z</time>
      </trkpt>
      <trkpt lat="44.22749" lon="3.22052">
        <ele>702.6</ele>
        <time>2017-02-17T15:44:18Z</time>
      </trkpt>
      <trkpt lat="44.22748" lon="3.22049">
        <ele>701.9</ele>
        <time>2017-02-17T15:44:19Z</time>
      </trkpt>
      <trkpt lat="44.22745" lon="3.22043">
        <ele>701</ele>
        <time>2017-02-17T15:44:20Z</time>
      </trkpt>
      <trkpt lat="44.22743" lon="3.22039">
        <ele>700.2</ele>
        <time>2017-02-17T15:44:21Z</time>
      </trkpt>
      <trkpt lat="44.22742" lon="3.22035">
        <ele>699.1</ele>
        <time>2017-02-17T15:44:23Z</time>
      </trkpt>
      <trkpt lat="44.2274" lon="3.22029">
        <ele>697.5</ele>
        <time>2017-02-17T15:44:25Z</time>
      </trkpt>
      <trkpt lat="44.22738" lon="3.22023">
        <ele>696.1</ele>
        <time>2017-02-17T15:44:27Z</time>
      </trkpt>
      <trkpt lat="44.22739" lon="3.22018">
        <ele>695.3</ele>
        <time>2017-02-17T15:44:29Z</time>
      </trkpt>
      <trkpt lat="44.22736" lon="3.22018">
        <ele>694.5</ele>
        <time>2017-02-17T15:44:40Z</time>
      </trkpt>
      <trkpt lat="44.22734" lon="3.22014">
        <ele>693.7</ele>
        <time>2017-02-17T15:44:48Z</time>
      </trkpt>
      <trkpt lat="44.22732" lon="3.2201">
        <ele>692.9</ele>
        <time>2017-02-17T15:44:58Z</time>
      </trkpt>
      <trkpt lat="44.22731" lon="3.22007">
        <ele>692.1</ele>
        <time>2017-02-17T15:45:10Z</time>
      </trkpt>
      <trkpt lat="44.22728" lon="3.22005">
        <ele>691.2</ele>
        <time>2017-02-17T15:45:29Z</time>
      </trkpt>
      <trkpt lat="44.22726" lon="3.21999">
        <ele>689.8</ele>
        <time>2017-02-17T15:45:31Z</time>
      </trkpt>
      <trkpt lat="44.22725" lon="3.21992">
        <ele>688</ele>
        <time>2017-02-17T15:45:33Z</time>
      </trkpt>
      <trkpt lat="44.22725" lon="3.21988">
        <ele>687.3</ele>
        <time>2017-02-17T15:45:41Z</time>
      </trkpt>
      <trkpt lat="44.22725" lon="3.21985">
        <ele>686.5</ele>
        <time>2017-02-17T15:46:03Z</time>
      </trkpt>
      <trkpt lat="44.22724" lon="3.21981">
        <ele>685.5</ele>
        <time>2017-02-17T15:46:11Z</time>
      </trkpt>
      <trkpt lat="44.22724" lon="3.21977">
        <ele>684.6</ele>
        <time>2017-02-17T15:46:14Z</time>
      </trkpt>
      <trkpt lat="44.22723" lon="3.21974">
        <ele>682.7</ele>
        <time>2017-02-17T15:46:17Z</time>
      </trkpt>
      <trkpt lat="44.22723" lon="3.2197">
        <ele>681.7</ele>
        <time>2017-02-17T15:46:21Z</time>
      </trkpt>
      <trkpt lat="44.22723" lon="3.21966">
        <ele>680.5</ele>
        <time>2017-02-17T15:46:38Z</time>
      </trkpt>
      <trkpt lat="44.22722" lon="3.21963">
        <ele>676.9</ele>
        <time>2017-02-17T15:46:40Z</time>
      </trkpt>
      <trkpt lat="44.22722" lon="3.21959">
        <ele>674</ele>
        <time>2017-02-17T15:46:46Z</time>
      </trkpt>
      <trkpt lat="44.22721" lon="3.21956">
        <ele>671.9</ele>
        <time>2017-02-17T15:47:04Z</time>
      </trkpt>
      <trkpt lat="44.22721" lon="3.21952">
        <ele>670</ele>
        <time>2017-02-17T15:47:23Z</time>
      </trkpt>
      <trkpt lat="44.2272" lon="3.21948">
        <ele>669.8</ele>
        <time>2017-02-17T15:47:24Z</time>
      </trkpt>
      <trkpt lat="44.22719" lon="3.21945">
        <ele>669.6</ele>
        <time>2017-02-17T15:47:43Z</time>
      </trkpt>
      <trkpt lat="44.2272" lon="3.21941">
        <ele>669.4</ele>
        <time>2017-02-17T15:47:48Z</time>
      </trkpt>
      <trkpt lat="44.22721" lon="3.21935">
        <ele>669.1</ele>
        <time>2017-02-17T15:48:02Z</time>
      </trkpt>
      <trkpt lat="44.22721" lon="3.21931">
        <ele>668.9</ele>
        <time>2017-02-17T15:48:04Z</time>
      </trkpt>
      <trkpt lat="44.22723" lon="3.21926">
        <ele>668.6</ele>
        <time>2017-02-17T15:48:06Z</time>
      </trkpt>
      <trkpt lat="44.22724" lon="3.21921">
        <ele>667.7</ele>
        <time>2017-02-17T15:48:08Z</time>
      </trkpt>
      <trkpt lat="44.22725" lon="3.21914">
        <ele>666.6</ele>
        <time>2017-02-17T15:48:10Z</time>
      </trkpt>
      <trkpt lat="44.22725" lon="3.2191">
        <ele>665.9</ele>
        <time>2017-02-17T15:48:11Z</time>
      </trkpt>
      <trkpt lat="44.22724" lon="3.21902">
        <ele>664.8</ele>
        <time>2017-02-17T15:48:12Z</time>
      </trkpt>
      <trkpt lat="44.22722" lon="3.21898">
        <ele>664.3</ele>
        <time>2017-02-17T15:48:14Z</time>
      </trkpt>
      <trkpt lat="44.22718" lon="3.21896">
        <ele>663.9</ele>
        <time>2017-02-17T15:48:16Z</time>
      </trkpt>
      <trkpt lat="44.22713" lon="3.21894">
        <ele>663.6</ele>
        <time>2017-02-17T15:48:18Z</time>
      </trkpt>
      <trkpt lat="44.22708" lon="3.21892">
        <ele>663.4</ele>
        <time>2017-02-17T15:48:20Z</time>
      </trkpt>
      <trkpt lat="44.22706" lon="3.2189">
        <ele>663.3</ele>
        <time>2017-02-17T15:48:21Z</time>
      </trkpt>
      <trkpt lat="44.22703" lon="3.21889">
        <ele>663.3</ele>
        <time>2017-02-17T15:48:22Z</time>
      </trkpt>
      <trkpt lat="44.227" lon="3.21888">
        <ele>663.3</ele>
        <time>2017-02-17T15:48:23Z</time>
      </trkpt>
      <trkpt lat="44.22697" lon="3.21888">
        <ele>663.2</ele>
        <time>2017-02-17T15:48:24Z</time>
      </trkpt>
      <trkpt lat="44.22694" lon="3.21889">
        <ele>663.2</ele>
        <time>2017-02-17T15:48:25Z</time>
      </trkpt>
      <trkpt lat="44.22691" lon="3.21889">
        <ele>663.2</ele>
        <time>2017-02-17T15:48:26Z</time>
      </trkpt>
      <trkpt lat="44.22688" lon="3.21887">
        <ele>663.2</ele>
        <time>2017-02-17T15:48:27Z</time>
      </trkpt>
      <trkpt lat="44.22684" lon="3.21884">
        <ele>663.1</ele>
        <time>2017-02-17T15:48:28Z</time>
      </trkpt>
      <trkpt lat="44.2268" lon="3.21879">
        <ele>663</ele>
        <time>2017-02-17T15:48:29Z</time>
      </trkpt>
      <trkpt lat="44.22676" lon="3.21877">
        <ele>662.9</ele>
        <time>2017-02-17T15:48:31Z</time>
      </trkpt>
      <trkpt lat="44.22672" lon="3.21875">
        <ele>662.8</ele>
        <time>2017-02-17T15:48:33Z</time>
      </trkpt>
      <trkpt lat="44.22668" lon="3.21872">
        <ele>662.7</ele>
        <time>2017-02-17T15:48:35Z</time>
      </trkpt>
      <trkpt lat="44.22664" lon="3.21869">
        <ele>662.6</ele>
        <time>2017-02-17T15:48:37Z</time>
      </trkpt>
      <trkpt lat="44.22662" lon="3.21867">
        <ele>662.5</ele>
        <time>2017-02-17T15:48:38Z</time>
      </trkpt>
      <trkpt lat="44.22659" lon="3.21865">
        <ele>662.5</ele>
        <time>2017-02-17T15:48:39Z</time>
      </trkpt>
      <trkpt lat="44.22654" lon="3.21862">
        <ele>662.3</ele>
        <time>2017-02-17T15:48:41Z</time>
      </trkpt>
      <trkpt lat="44.22651" lon="3.2186">
        <ele>662.2</ele>
        <time>2017-02-17T15:48:43Z</time>
      </trkpt>
      <trkpt lat="44.22647" lon="3.21858">
        <ele>662</ele>
        <time>2017-02-17T15:48:45Z</time>
      </trkpt>
      <trkpt lat="44.22645" lon="3.21857">
        <ele>661.8</ele>
        <time>2017-02-17T15:48:46Z</time>
      </trkpt>
      <trkpt lat="44.22641" lon="3.21856">
        <ele>661.5</ele>
        <time>2017-02-17T15:48:47Z</time>
      </trkpt>
      <trkpt lat="44.22638" lon="3.21856">
        <ele>661.3</ele>
        <time>2017-02-17T15:48:48Z</time>
      </trkpt>
      <trkpt lat="44.22633" lon="3.21855">
        <ele>660.9</ele>
        <time>2017-02-17T15:48:49Z</time>
      </trkpt>
      <trkpt lat="44.22628" lon="3.21851">
        <ele>660.3</ele>
        <time>2017-02-17T15:48:50Z</time>
      </trkpt>
      <trkpt lat="44.22625" lon="3.21849">
        <ele>660</ele>
        <time>2017-02-17T15:48:51Z</time>
      </trkpt>
      <trkpt lat="44.22622" lon="3.21847">
        <ele>659.7</ele>
        <time>2017-02-17T15:48:52Z</time>
      </trkpt>
      <trkpt lat="44.22618" lon="3.21845">
        <ele>659.1</ele>
        <time>2017-02-17T15:48:53Z</time>
      </trkpt>
      <trkpt lat="44.22613" lon="3.21842">
        <ele>658.4</ele>
        <time>2017-02-17T15:48:54Z</time>
      </trkpt>
      <trkpt lat="44.22607" lon="3.2184">
        <ele>657.6</ele>
        <time>2017-02-17T15:48:55Z</time>
      </trkpt>
      <trkpt lat="44.22602" lon="3.21837">
        <ele>656.8</ele>
        <time>2017-02-17T15:48:56Z</time>
      </trkpt>
      <trkpt lat="44.22596" lon="3.21834">
        <ele>656</ele>
        <time>2017-02-17T15:48:57Z</time>
      </trkpt>
      <trkpt lat="44.22591" lon="3.21829">
        <ele>655.1</ele>
        <time>2017-02-17T15:48:58Z</time>
      </trkpt>
      <trkpt lat="44.22586" lon="3.21825">
        <ele>654.4</ele>
        <time>2017-02-17T15:48:59Z</time>
      </trkpt>
      <trkpt lat="44.22581" lon="3.21821">
        <ele>653.5</ele>
        <time>2017-02-17T15:49:00Z</time>
      </trkpt>
      <trkpt lat="44.22575" lon="3.21816">
        <ele>651.6</ele>
        <time>2017-02-17T15:49:01Z</time>
      </trkpt>
      <trkpt lat="44.22569" lon="3.2181">
        <ele>650.8</ele>
        <time>2017-02-17T15:49:02Z</time>
      </trkpt>
      <trkpt lat="44.22566" lon="3.21808">
        <ele>650.5</ele>
        <time>2017-02-17T15:49:03Z</time>
      </trkpt>
      <trkpt lat="44.22564" lon="3.21805">
        <ele>650.2</ele>
        <time>2017-02-17T15:49:05Z</time>
      </trkpt>
      <trkpt lat="44.22562" lon="3.21801">
        <ele>649.8</ele>
        <time>2017-02-17T15:49:07Z</time>
      </trkpt>
      <trkpt lat="44.22558" lon="3.21795">
        <ele>649.3</ele>
        <time>2017-02-17T15:49:09Z</time>
      </trkpt>
      <trkpt lat="44.22556" lon="3.21791">
        <ele>649.1</ele>
        <time>2017-02-17T15:49:10Z</time>
      </trkpt>
      <trkpt lat="44.22553" lon="3.21786">
        <ele>648.9</ele>
        <time>2017-02-17T15:49:14Z</time>
      </trkpt>
      <trkpt lat="44.22552" lon="3.21782">
        <ele>648.8</ele>
        <time>2017-02-17T15:49:17Z</time>
      </trkpt>
      <trkpt lat="44.2255" lon="3.21779">
        <ele>648.7</ele>
        <time>2017-02-17T15:49:19Z</time>
      </trkpt>
      <trkpt lat="44.22547" lon="3.21775">
        <ele>648.7</ele>
        <time>2017-02-17T15:49:23Z</time>
      </trkpt>
      <trkpt lat="44.22548" lon="3.21765">
        <ele>648.7</ele>
        <time>2017-02-17T15:49:25Z</time>
      </trkpt>
      <trkpt lat="44.22548" lon="3.21758">
        <ele>648.4</ele>
        <time>2017-02-17T15:49:27Z</time>
      </trkpt>
      <trkpt lat="44.22546" lon="3.21753">
        <ele>647.9</ele>
        <time>2017-02-17T15:49:29Z</time>
      </trkpt>
      <trkpt lat="44.22543" lon="3.21748">
        <ele>647.4</ele>
        <time>2017-02-17T15:49:31Z</time>
      </trkpt>
      <trkpt lat="44.22539" lon="3.21746">
        <ele>647</ele>
        <time>2017-02-17T15:49:33Z</time>
      </trkpt>
      <trkpt lat="44.22536" lon="3.21743">
        <ele>646.7</ele>
        <time>2017-02-17T15:49:53Z</time>
      </trkpt>
      <trkpt lat="44.22532" lon="3.21738">
        <ele>646.2</ele>
        <time>2017-02-17T15:49:55Z</time>
      </trkpt>
      <trkpt lat="44.22527" lon="3.21734">
        <ele>645.5</ele>
        <time>2017-02-17T15:49:56Z</time>
      </trkpt>
      <trkpt lat="44.22523" lon="3.21733">
        <ele>645.1</ele>
        <time>2017-02-17T15:49:57Z</time>
      </trkpt>
      <trkpt lat="44.2252" lon="3.21731">
        <ele>644.7</ele>
        <time>2017-02-17T15:49:58Z</time>
      </trkpt>
      <trkpt lat="44.22516" lon="3.21729">
        <ele>644.3</ele>
        <time>2017-02-17T15:49:59Z</time>
      </trkpt>
      <trkpt lat="44.2251" lon="3.21727">
        <ele>643.7</ele>
        <time>2017-02-17T15:50:00Z</time>
      </trkpt>
      <trkpt lat="44.22507" lon="3.21724">
        <ele>643.4</ele>
        <time>2017-02-17T15:50:01Z</time>
      </trkpt>
      <trkpt lat="44.22505" lon="3.21722">
        <ele>643.1</ele>
        <time>2017-02-17T15:50:02Z</time>
      </trkpt>
      <trkpt lat="44.225" lon="3.21721">
        <ele>642.7</ele>
        <time>2017-02-17T15:50:04Z</time>
      </trkpt>
      <trkpt lat="44.22495" lon="3.21721">
        <ele>642.3</ele>
        <time>2017-02-17T15:50:05Z</time>
      </trkpt>
      <trkpt lat="44.22491" lon="3.2172">
        <ele>641.9</ele>
        <time>2017-02-17T15:50:07Z</time>
      </trkpt>
      <trkpt lat="44.22487" lon="3.21717">
        <ele>641.3</ele>
        <time>2017-02-17T15:50:09Z</time>
      </trkpt>
      <trkpt lat="44.22484" lon="3.21714">
        <ele>640.8</ele>
        <time>2017-02-17T15:50:10Z</time>
      </trkpt>
      <trkpt lat="44.22479" lon="3.21708">
        <ele>640</ele>
        <time>2017-02-17T15:50:12Z</time>
      </trkpt>
      <trkpt lat="44.22477" lon="3.21702">
        <ele>639.7</ele>
        <time>2017-02-17T15:50:14Z</time>
      </trkpt>
      <trkpt lat="44.22474" lon="3.21696">
        <ele>638.7</ele>
        <time>2017-02-17T15:50:16Z</time>
      </trkpt>
      <trkpt lat="44.22471" lon="3.2169">
        <ele>638</ele>
        <time>2017-02-17T15:50:18Z</time>
      </trkpt>
      <trkpt lat="44.22469" lon="3.21686">
        <ele>637.5</ele>
        <time>2017-02-17T15:50:26Z</time>
      </trkpt>
      <trkpt lat="44.22466" lon="3.21682">
        <ele>636.9</ele>
        <time>2017-02-17T15:50:28Z</time>
      </trkpt>
      <trkpt lat="44.22464" lon="3.21678">
        <ele>636.4</ele>
        <time>2017-02-17T15:50:29Z</time>
      </trkpt>
      <trkpt lat="44.22462" lon="3.21674">
        <ele>635.9</ele>
        <time>2017-02-17T15:50:30Z</time>
      </trkpt>
      <trkpt lat="44.22461" lon="3.2167">
        <ele>635.4</ele>
        <time>2017-02-17T15:50:31Z</time>
      </trkpt>
      <trkpt lat="44.22459" lon="3.21666">
        <ele>634.8</ele>
        <time>2017-02-17T15:50:32Z</time>
      </trkpt>
      <trkpt lat="44.22457" lon="3.21663">
        <ele>634.2</ele>
        <time>2017-02-17T15:50:33Z</time>
      </trkpt>
      <trkpt lat="44.22455" lon="3.21658">
        <ele>633.6</ele>
        <time>2017-02-17T15:50:34Z</time>
      </trkpt>
      <trkpt lat="44.22455" lon="3.21652">
        <ele>632.8</ele>
        <time>2017-02-17T15:50:35Z</time>
      </trkpt>
      <trkpt lat="44.22454" lon="3.21648">
        <ele>632.2</ele>
        <time>2017-02-17T15:50:36Z</time>
      </trkpt>
      <trkpt lat="44.22453" lon="3.21644">
        <ele>631.5</ele>
        <time>2017-02-17T15:50:37Z</time>
      </trkpt>
      <trkpt lat="44.22451" lon="3.21637">
        <ele>630.5</ele>
        <time>2017-02-17T15:50:38Z</time>
      </trkpt>
      <trkpt lat="44.2245" lon="3.21632">
        <ele>629.5</ele>
        <time>2017-02-17T15:50:39Z</time>
      </trkpt>
      <trkpt lat="44.22448" lon="3.21628">
        <ele>628.7</ele>
        <time>2017-02-17T15:50:40Z</time>
      </trkpt>
      <trkpt lat="44.22447" lon="3.21623">
        <ele>627.8</ele>
        <time>2017-02-17T15:50:42Z</time>
      </trkpt>
      <trkpt lat="44.22446" lon="3.21619">
        <ele>627.3</ele>
        <time>2017-02-17T15:50:43Z</time>
      </trkpt>
      <trkpt lat="44.22441" lon="3.21617">
        <ele>626.5</ele>
        <time>2017-02-17T15:50:45Z</time>
      </trkpt>
      <trkpt lat="44.2244" lon="3.21613">
        <ele>626.1</ele>
        <time>2017-02-17T15:50:46Z</time>
      </trkpt>
      <trkpt lat="44.22438" lon="3.21609">
        <ele>625.5</ele>
        <time>2017-02-17T15:50:47Z</time>
      </trkpt>
      <trkpt lat="44.22434" lon="3.21606">
        <ele>624.8</ele>
        <time>2017-02-17T15:50:48Z</time>
      </trkpt>
      <trkpt lat="44.22431" lon="3.21601">
        <ele>624.1</ele>
        <time>2017-02-17T15:50:49Z</time>
      </trkpt>
      <trkpt lat="44.22428" lon="3.21598">
        <ele>623.4</ele>
        <time>2017-02-17T15:50:50Z</time>
      </trkpt>
      <trkpt lat="44.22426" lon="3.21595">
        <ele>622.9</ele>
        <time>2017-02-17T15:50:51Z</time>
      </trkpt>
      <trkpt lat="44.22423" lon="3.21591">
        <ele>622</ele>
        <time>2017-02-17T15:50:53Z</time>
      </trkpt>
      <trkpt lat="44.22419" lon="3.21589">
        <ele>621.2</ele>
        <time>2017-02-17T15:50:55Z</time>
      </trkpt>
      <trkpt lat="44.22417" lon="3.21585">
        <ele>620.6</ele>
        <time>2017-02-17T15:50:56Z</time>
      </trkpt>
      <trkpt lat="44.22415" lon="3.21582">
        <ele>620</ele>
        <time>2017-02-17T15:50:57Z</time>
      </trkpt>
      <trkpt lat="44.22412" lon="3.21578">
        <ele>619.3</ele>
        <time>2017-02-17T15:50:58Z</time>
      </trkpt>
      <trkpt lat="44.2241" lon="3.2158">
        <ele>618.8</ele>
        <time>2017-02-17T15:51:08Z</time>
      </trkpt>
      <trkpt lat="44.22404" lon="3.2158">
        <ele>617.4</ele>
        <time>2017-02-17T15:51:12Z</time>
      </trkpt>
      <trkpt lat="44.22402" lon="3.21579">
        <ele>616.7</ele>
        <time>2017-02-17T15:51:20Z</time>
      </trkpt>
      <trkpt lat="44.22403" lon="3.21574">
        <ele>615.9</ele>
        <time>2017-02-17T15:51:32Z</time>
      </trkpt>
      <trkpt lat="44.22403" lon="3.21569">
        <ele>615.3</ele>
        <time>2017-02-17T15:51:36Z</time>
      </trkpt>
      <trkpt lat="44.22403" lon="3.21565">
        <ele>614.8</ele>
        <time>2017-02-17T15:51:43Z</time>
      </trkpt>
      <trkpt lat="44.22401" lon="3.21562">
        <ele>614.1</ele>
        <time>2017-02-17T15:51:58Z</time>
      </trkpt>
      <trkpt lat="44.22397" lon="3.21557">
        <ele>613.2</ele>
        <time>2017-02-17T15:52:00Z</time>
      </trkpt>
      <trkpt lat="44.22396" lon="3.21553">
        <ele>612.6</ele>
        <time>2017-02-17T15:52:06Z</time>
      </trkpt>
      <trkpt lat="44.22395" lon="3.2155">
        <ele>612.7</ele>
        <time>2017-02-17T15:52:27Z</time>
      </trkpt>
      <trkpt lat="44.22398" lon="3.21548">
        <ele>616.1</ele>
        <time>2017-02-17T15:52:50Z</time>
      </trkpt>
      <trkpt lat="44.22396" lon="3.21545">
        <ele>619</ele>
        <time>2017-02-17T15:52:58Z</time>
      </trkpt>
      <trkpt lat="44.22391" lon="3.21543">
        <ele>617.9</ele>
        <time>2017-02-17T15:53:13Z</time>
      </trkpt>
      <trkpt lat="44.22388" lon="3.21542">
        <ele>617.2</ele>
        <time>2017-02-17T15:53:33Z</time>
      </trkpt>
      <trkpt lat="44.22386" lon="3.21541">
        <ele>616.3</ele>
        <time>2017-02-17T15:53:53Z</time>
      </trkpt>
      <trkpt lat="44.22383" lon="3.21537">
        <ele>617.6</ele>
        <time>2017-02-17T15:53:55Z</time>
      </trkpt>
      <trkpt lat="44.22382" lon="3.21532">
        <ele>621.1</ele>
        <time>2017-02-17T15:53:56Z</time>
      </trkpt>
      <trkpt lat="44.22379" lon="3.21529">
        <ele>622.1</ele>
        <time>2017-02-17T15:53:57Z</time>
      </trkpt>
      <trkpt lat="44.22376" lon="3.21524">
        <ele>622.9</ele>
        <time>2017-02-17T15:54:07Z</time>
      </trkpt>
      <trkpt lat="44.22373" lon="3.21522">
        <ele>621.7</ele>
        <time>2017-02-17T15:54:08Z</time>
      </trkpt>
      <trkpt lat="44.22375" lon="3.21518">
        <ele>627.2</ele>
        <time>2017-02-17T15:54:59Z</time>
      </trkpt>
      <trkpt lat="44.22378" lon="3.21519">
        <ele>630.7</ele>
        <time>2017-02-17T15:55:14Z</time>
      </trkpt>
      <trkpt lat="44.22381" lon="3.21519">
        <ele>634</ele>
        <time>2017-02-17T15:55:18Z</time>
      </trkpt>
      <trkpt lat="44.22384" lon="3.21519">
        <ele>637.1</ele>
        <time>2017-02-17T15:55:20Z</time>
      </trkpt>
      <trkpt lat="44.22387" lon="3.2152">
        <ele>640</ele>
        <time>2017-02-17T15:55:22Z</time>
      </trkpt>
      <trkpt lat="44.22391" lon="3.21521">
        <ele>642.7</ele>
        <time>2017-02-17T15:55:25Z</time>
      </trkpt>
      <trkpt lat="44.22394" lon="3.21521">
        <ele>645.5</ele>
        <time>2017-02-17T15:55:27Z</time>
      </trkpt>
      <trkpt lat="44.22397" lon="3.21521">
        <ele>648.4</ele>
        <time>2017-02-17T15:55:29Z</time>
      </trkpt>
      <trkpt lat="44.224" lon="3.2152">
        <ele>651.4</ele>
        <time>2017-02-17T15:55:31Z</time>
      </trkpt>
      <trkpt lat="44.22403" lon="3.2152">
        <ele>654.4</ele>
        <time>2017-02-17T15:55:33Z</time>
      </trkpt>
      <trkpt lat="44.22407" lon="3.21518">
        <ele>657.3</ele>
        <time>2017-02-17T15:55:35Z</time>
      </trkpt>
      <trkpt lat="44.2241" lon="3.21517">
        <ele>661.2</ele>
        <time>2017-02-17T15:55:37Z</time>
      </trkpt>
      <trkpt lat="44.22413" lon="3.21517">
        <ele>663.6</ele>
        <time>2017-02-17T15:56:21Z</time>
      </trkpt>
      <trkpt lat="44.22411" lon="3.21518">
        <ele>664.3</ele>
        <time>2017-02-17T15:57:21Z</time>
      </trkpt>
      <trkpt lat="44.22407" lon="3.21519">
        <ele>665.3</ele>
        <time>2017-02-17T15:57:24Z</time>
      </trkpt>
      <trkpt lat="44.22404" lon="3.21518">
        <ele>666.2</ele>
        <time>2017-02-17T15:57:33Z</time>
      </trkpt>
      <trkpt lat="44.22401" lon="3.21518">
        <ele>667.2</ele>
        <time>2017-02-17T15:57:41Z</time>
      </trkpt>
      <trkpt lat="44.22399" lon="3.21512">
        <ele>668.8</ele>
        <time>2017-02-17T15:57:45Z</time>
      </trkpt>
      <trkpt lat="44.22398" lon="3.21509">
        <ele>670</ele>
        <time>2017-02-17T15:58:06Z</time>
      </trkpt>
      <trkpt lat="44.22395" lon="3.21506">
        <ele>671.5</ele>
        <time>2017-02-17T15:58:07Z</time>
      </trkpt>
      <trkpt lat="44.22392" lon="3.21503">
        <ele>672.9</ele>
        <time>2017-02-17T15:58:08Z</time>
      </trkpt>
      <trkpt lat="44.22389" lon="3.21503">
        <ele>674</ele>
        <time>2017-02-17T15:58:21Z</time>
      </trkpt>
      <trkpt lat="44.22385" lon="3.215">
        <ele>675.2</ele>
        <time>2017-02-17T15:58:23Z</time>
      </trkpt>
      <trkpt lat="44.22383" lon="3.21497">
        <ele>676</ele>
        <time>2017-02-17T15:58:27Z</time>
      </trkpt>
      <trkpt lat="44.22379" lon="3.21494">
        <ele>677.1</ele>
        <time>2017-02-17T15:58:30Z</time>
      </trkpt>
      <trkpt lat="44.22376" lon="3.21493">
        <ele>677.7</ele>
        <time>2017-02-17T15:58:33Z</time>
      </trkpt>
      <trkpt lat="44.22375" lon="3.21489">
        <ele>678.4</ele>
        <time>2017-02-17T15:58:35Z</time>
      </trkpt>
      <trkpt lat="44.22374" lon="3.21485">
        <ele>679.1</ele>
        <time>2017-02-17T15:58:47Z</time>
      </trkpt>
      <trkpt lat="44.22373" lon="3.21481">
        <ele>679.7</ele>
        <time>2017-02-17T15:58:48Z</time>
      </trkpt>
      <trkpt lat="44.22372" lon="3.21477">
        <ele>680.3</ele>
        <time>2017-02-17T15:58:50Z</time>
      </trkpt>
      <trkpt lat="44.22371" lon="3.21474">
        <ele>680.8</ele>
        <time>2017-02-17T15:58:52Z</time>
      </trkpt>
      <trkpt lat="44.22369" lon="3.2147">
        <ele>681.5</ele>
        <time>2017-02-17T15:58:55Z</time>
      </trkpt>
      <trkpt lat="44.22368" lon="3.21465">
        <ele>682.3</ele>
        <time>2017-02-17T15:58:58Z</time>
      </trkpt>
      <trkpt lat="44.22368" lon="3.2146">
        <ele>683.1</ele>
        <time>2017-02-17T15:58:59Z</time>
      </trkpt>
      <trkpt lat="44.22367" lon="3.21456">
        <ele>683.8</ele>
        <time>2017-02-17T15:59:02Z</time>
      </trkpt>
      <trkpt lat="44.22362" lon="3.21448">
        <ele>685.9</ele>
        <time>2017-02-17T16:02:24Z</time>
      </trkpt>
      <trkpt lat="44.2236" lon="3.21445">
        <ele>686.5</ele>
        <time>2017-02-17T16:02:26Z</time>
      </trkpt>
      <trkpt lat="44.22358" lon="3.21442">
        <ele>687.2</ele>
        <time>2017-02-17T16:02:28Z</time>
      </trkpt>
      <trkpt lat="44.22353" lon="3.21437">
        <ele>688.6</ele>
        <time>2017-02-17T16:02:30Z</time>
      </trkpt>
      <trkpt lat="44.2235" lon="3.21435">
        <ele>689.3</ele>
        <time>2017-02-17T16:02:32Z</time>
      </trkpt>
      <trkpt lat="44.22347" lon="3.21431">
        <ele>690.3</ele>
        <time>2017-02-17T16:02:35Z</time>
      </trkpt>
      <trkpt lat="44.22346" lon="3.21428">
        <ele>691.1</ele>
        <time>2017-02-17T16:03:15Z</time>
      </trkpt>
      <trkpt lat="44.22345" lon="3.21422">
        <ele>692.3</ele>
        <time>2017-02-17T16:03:25Z</time>
      </trkpt>
      <trkpt lat="44.22343" lon="3.21418">
        <ele>693.4</ele>
        <time>2017-02-17T16:03:29Z</time>
      </trkpt>
      <trkpt lat="44.22344" lon="3.21413">
        <ele>694.5</ele>
        <time>2017-02-17T16:03:45Z</time>
      </trkpt>
      <trkpt lat="44.22344" lon="3.21408">
        <ele>695.9</ele>
        <time>2017-02-17T16:03:48Z</time>
      </trkpt>
      <trkpt lat="44.22345" lon="3.21401">
        <ele>697.4</ele>
        <time>2017-02-17T16:03:54Z</time>
      </trkpt>
      <trkpt lat="44.22345" lon="3.21395">
        <ele>698.4</ele>
        <time>2017-02-17T16:03:56Z</time>
      </trkpt>
      <trkpt lat="44.22343" lon="3.21387">
        <ele>699.7</ele>
        <time>2017-02-17T16:03:58Z</time>
      </trkpt>
      <trkpt lat="44.22341" lon="3.21381">
        <ele>700.6</ele>
        <time>2017-02-17T16:03:59Z</time>
      </trkpt>
      <trkpt lat="44.22338" lon="3.21374">
        <ele>701.8</ele>
        <time>2017-02-17T16:04:01Z</time>
      </trkpt>
      <trkpt lat="44.22337" lon="3.21369">
        <ele>702.4</ele>
        <time>2017-02-17T16:04:03Z</time>
      </trkpt>
      <trkpt lat="44.22335" lon="3.21365">
        <ele>703.1</ele>
        <time>2017-02-17T16:04:06Z</time>
      </trkpt>
      <trkpt lat="44.22334" lon="3.21362">
        <ele>703.6</ele>
        <time>2017-02-17T16:04:07Z</time>
      </trkpt>
      <trkpt lat="44.22331" lon="3.21357">
        <ele>704.3</ele>
        <time>2017-02-17T16:04:09Z</time>
      </trkpt>
      <trkpt lat="44.22329" lon="3.21351">
        <ele>705</ele>
        <time>2017-02-17T16:04:12Z</time>
      </trkpt>
      <trkpt lat="44.22328" lon="3.21347">
        <ele>705.5</ele>
        <time>2017-02-17T16:04:14Z</time>
      </trkpt>
      <trkpt lat="44.22327" lon="3.21342">
        <ele>705.9</ele>
        <time>2017-02-17T16:04:16Z</time>
      </trkpt>
      <trkpt lat="44.22326" lon="3.21336">
        <ele>706.4</ele>
        <time>2017-02-17T16:04:18Z</time>
      </trkpt>
      <trkpt lat="44.2232" lon="3.2133">
        <ele>707.3</ele>
        <time>2017-02-17T16:04:20Z</time>
      </trkpt>
      <trkpt lat="44.22317" lon="3.21326">
        <ele>707.9</ele>
        <time>2017-02-17T16:04:21Z</time>
      </trkpt>
      <trkpt lat="44.22314" lon="3.21323">
        <ele>708.5</ele>
        <time>2017-02-17T16:04:23Z</time>
      </trkpt>
      <trkpt lat="44.22311" lon="3.2132">
        <ele>709.1</ele>
        <time>2017-02-17T16:04:26Z</time>
      </trkpt>
      <trkpt lat="44.22308" lon="3.21316">
        <ele>710</ele>
        <time>2017-02-17T16:04:28Z</time>
      </trkpt>
      <trkpt lat="44.22304" lon="3.21313">
        <ele>710.9</ele>
        <time>2017-02-17T16:04:30Z</time>
      </trkpt>
      <trkpt lat="44.22302" lon="3.2131">
        <ele>711.6</ele>
        <time>2017-02-17T16:04:32Z</time>
      </trkpt>
      <trkpt lat="44.22299" lon="3.21309">
        <ele>711.8</ele>
        <time>2017-02-17T16:04:34Z</time>
      </trkpt>
      <trkpt lat="44.22297" lon="3.21306">
        <ele>711.6</ele>
        <time>2017-02-17T16:04:36Z</time>
      </trkpt>
      <trkpt lat="44.22294" lon="3.21302">
        <ele>711.3</ele>
        <time>2017-02-17T16:04:38Z</time>
      </trkpt>
      <trkpt lat="44.22292" lon="3.21299">
        <ele>711.1</ele>
        <time>2017-02-17T16:04:39Z</time>
      </trkpt>
      <trkpt lat="44.2229" lon="3.21296">
        <ele>710.8</ele>
        <time>2017-02-17T16:04:40Z</time>
      </trkpt>
      <trkpt lat="44.22286" lon="3.21293">
        <ele>710.5</ele>
        <time>2017-02-17T16:04:42Z</time>
      </trkpt>
      <trkpt lat="44.22284" lon="3.21291">
        <ele>710.4</ele>
        <time>2017-02-17T16:04:43Z</time>
      </trkpt>
      <trkpt lat="44.22281" lon="3.21288">
        <ele>710.5</ele>
        <time>2017-02-17T16:04:44Z</time>
      </trkpt>
      <trkpt lat="44.22278" lon="3.21286">
        <ele>710.8</ele>
        <time>2017-02-17T16:04:45Z</time>
      </trkpt>
      <trkpt lat="44.22275" lon="3.21289">
        <ele>711.5</ele>
        <time>2017-02-17T16:04:49Z</time>
      </trkpt>
      <trkpt lat="44.22272" lon="3.21292">
        <ele>712.2</ele>
        <time>2017-02-17T16:04:51Z</time>
      </trkpt>
      <trkpt lat="44.2227" lon="3.21295">
        <ele>712.5</ele>
        <time>2017-02-17T16:04:52Z</time>
      </trkpt>
      <trkpt lat="44.22269" lon="3.21299">
        <ele>712.7</ele>
        <time>2017-02-17T16:04:54Z</time>
      </trkpt>
      <trkpt lat="44.22267" lon="3.21305">
        <ele>712.9</ele>
        <time>2017-02-17T16:05:10Z</time>
      </trkpt>
      <trkpt lat="44.22265" lon="3.2131">
        <ele>713</ele>
        <time>2017-02-17T16:05:12Z</time>
      </trkpt>
      <trkpt lat="44.22262" lon="3.21313">
        <ele>713.1</ele>
        <time>2017-02-17T16:05:15Z</time>
      </trkpt>
      <trkpt lat="44.22261" lon="3.21316">
        <ele>713.2</ele>
        <time>2017-02-17T16:05:23Z</time>
      </trkpt>
      <trkpt lat="44.22263" lon="3.21313">
        <ele>713.4</ele>
        <time>2017-02-17T16:05:38Z</time>
      </trkpt>
      <trkpt lat="44.2226" lon="3.21313">
        <ele>713.5</ele>
        <time>2017-02-17T16:05:45Z</time>
      </trkpt>
      <trkpt lat="44.22257" lon="3.21316">
        <ele>713.5</ele>
        <time>2017-02-17T16:05:51Z</time>
      </trkpt>
      <trkpt lat="44.22254" lon="3.21317">
        <ele>713.4</ele>
        <time>2017-02-17T16:05:55Z</time>
      </trkpt>
      <trkpt lat="44.22251" lon="3.21317">
        <ele>713.5</ele>
        <time>2017-02-17T16:07:53Z</time>
      </trkpt>
      <trkpt lat="44.22246" lon="3.21315">
        <ele>713.7</ele>
        <time>2017-02-17T16:07:58Z</time>
      </trkpt>
      <trkpt lat="44.2224" lon="3.21316">
        <ele>714.2</ele>
        <time>2017-02-17T16:08:09Z</time>
      </trkpt>
      <trkpt lat="44.22236" lon="3.21315">
        <ele>714.7</ele>
        <time>2017-02-17T16:08:11Z</time>
      </trkpt>
      <trkpt lat="44.22233" lon="3.21312">
        <ele>715</ele>
        <time>2017-02-17T16:08:12Z</time>
      </trkpt>
      <trkpt lat="44.2223" lon="3.2131">
        <ele>715.3</ele>
        <time>2017-02-17T16:08:15Z</time>
      </trkpt>
      <trkpt lat="44.22227" lon="3.21308">
        <ele>715.6</ele>
        <time>2017-02-17T16:08:18Z</time>
      </trkpt>
      <trkpt lat="44.22222" lon="3.21307">
        <ele>716.2</ele>
        <time>2017-02-17T16:08:21Z</time>
      </trkpt>
      <trkpt lat="44.22217" lon="3.21304">
        <ele>716.7</ele>
        <time>2017-02-17T16:08:24Z</time>
      </trkpt>
      <trkpt lat="44.22215" lon="3.21301">
        <ele>717.1</ele>
        <time>2017-02-17T16:08:27Z</time>
      </trkpt>
      <trkpt lat="44.22211" lon="3.21299">
        <ele>717.5</ele>
        <time>2017-02-17T16:08:30Z</time>
      </trkpt>
      <trkpt lat="44.22207" lon="3.213">
        <ele>717.9</ele>
        <time>2017-02-17T16:08:31Z</time>
      </trkpt>
      <trkpt lat="44.22204" lon="3.213">
        <ele>718.3</ele>
        <time>2017-02-17T16:08:40Z</time>
      </trkpt>
      <trkpt lat="44.22201" lon="3.21299">
        <ele>718.6</ele>
        <time>2017-02-17T16:08:45Z</time>
      </trkpt>
      <trkpt lat="44.22198" lon="3.21299">
        <ele>718.9</ele>
        <time>2017-02-17T16:08:50Z</time>
      </trkpt>
      <trkpt lat="44.22195" lon="3.213">
        <ele>719.1</ele>
        <time>2017-02-17T16:08:57Z</time>
      </trkpt>
      <trkpt lat="44.22192" lon="3.21302">
        <ele>719.3</ele>
        <time>2017-02-17T16:08:58Z</time>
      </trkpt>
      <trkpt lat="44.2219" lon="3.21304">
        <ele>719.3</ele>
        <time>2017-02-17T16:09:05Z</time>
      </trkpt>
      <trkpt lat="44.22187" lon="3.21303">
        <ele>719.2</ele>
        <time>2017-02-17T16:09:10Z</time>
      </trkpt>
      <trkpt lat="44.22184" lon="3.21304">
        <ele>719.1</ele>
        <time>2017-02-17T16:09:13Z</time>
      </trkpt>
      <trkpt lat="44.22181" lon="3.21305">
        <ele>719</ele>
        <time>2017-02-17T16:09:18Z</time>
      </trkpt>
      <trkpt lat="44.22178" lon="3.21307">
        <ele>718.8</ele>
        <time>2017-02-17T16:09:26Z</time>
      </trkpt>
      <trkpt lat="44.22172" lon="3.2131">
        <ele>718.3</ele>
        <time>2017-02-17T16:09:28Z</time>
      </trkpt>
      <trkpt lat="44.22168" lon="3.21312">
        <ele>718</ele>
        <time>2017-02-17T16:09:29Z</time>
      </trkpt>
      <trkpt lat="44.22164" lon="3.21313">
        <ele>717.6</ele>
        <time>2017-02-17T16:09:31Z</time>
      </trkpt>
      <trkpt lat="44.2216" lon="3.21315">
        <ele>717.2</ele>
        <time>2017-02-17T16:09:33Z</time>
      </trkpt>
      <trkpt lat="44.22156" lon="3.21317">
        <ele>716.8</ele>
        <time>2017-02-17T16:09:35Z</time>
      </trkpt>
      <trkpt lat="44.22153" lon="3.2132">
        <ele>716.3</ele>
        <time>2017-02-17T16:09:37Z</time>
      </trkpt>
      <trkpt lat="44.22149" lon="3.21323">
        <ele>715.7</ele>
        <time>2017-02-17T16:09:39Z</time>
      </trkpt>
      <trkpt lat="44.22145" lon="3.21326">
        <ele>715</ele>
        <time>2017-02-17T16:09:41Z</time>
      </trkpt>
      <trkpt lat="44.2214" lon="3.21329">
        <ele>714.2</ele>
        <time>2017-02-17T16:09:43Z</time>
      </trkpt>
      <trkpt lat="44.22137" lon="3.21332">
        <ele>713.7</ele>
        <time>2017-02-17T16:09:44Z</time>
      </trkpt>
      <trkpt lat="44.22135" lon="3.21335">
        <ele>713.3</ele>
        <time>2017-02-17T16:09:45Z</time>
      </trkpt>
      <trkpt lat="44.22133" lon="3.21339">
        <ele>712.8</ele>
        <time>2017-02-17T16:09:46Z</time>
      </trkpt>
      <trkpt lat="44.22129" lon="3.21345">
        <ele>712.1</ele>
        <time>2017-02-17T16:09:47Z</time>
      </trkpt>
      <trkpt lat="44.22126" lon="3.21349">
        <ele>711.7</ele>
        <time>2017-02-17T16:09:48Z</time>
      </trkpt>
      <trkpt lat="44.22123" lon="3.21352">
        <ele>711.4</ele>
        <time>2017-02-17T16:09:49Z</time>
      </trkpt>
      <trkpt lat="44.2212" lon="3.21356">
        <ele>711</ele>
        <time>2017-02-17T16:09:50Z</time>
      </trkpt>
      <trkpt lat="44.22116" lon="3.2136">
        <ele>710.6</ele>
        <time>2017-02-17T16:09:51Z</time>
      </trkpt>
      <trkpt lat="44.22113" lon="3.21363">
        <ele>710.4</ele>
        <time>2017-02-17T16:09:52Z</time>
      </trkpt>
      <trkpt lat="44.2211" lon="3.21367">
        <ele>710.1</ele>
        <time>2017-02-17T16:09:53Z</time>
      </trkpt>
      <trkpt lat="44.22105" lon="3.21372">
        <ele>709.7</ele>
        <time>2017-02-17T16:09:54Z</time>
      </trkpt>
      <trkpt lat="44.22102" lon="3.21375">
        <ele>709.5</ele>
        <time>2017-02-17T16:09:55Z</time>
      </trkpt>
      <trkpt lat="44.22098" lon="3.21377">
        <ele>709.4</ele>
        <time>2017-02-17T16:09:56Z</time>
      </trkpt>
      <trkpt lat="44.22095" lon="3.21379">
        <ele>709.2</ele>
        <time>2017-02-17T16:09:57Z</time>
      </trkpt>
      <trkpt lat="44.22089" lon="3.21383">
        <ele>709</ele>
        <time>2017-02-17T16:09:58Z</time>
      </trkpt>
      <trkpt lat="44.22086" lon="3.21385">
        <ele>708.9</ele>
        <time>2017-02-17T16:09:59Z</time>
      </trkpt>
      <trkpt lat="44.22084" lon="3.21389">
        <ele>708.4</ele>
        <time>2017-02-17T16:10:01Z</time>
      </trkpt>
      <trkpt lat="44.22079" lon="3.21395">
        <ele>707.9</ele>
        <time>2017-02-17T16:10:03Z</time>
      </trkpt>
      <trkpt lat="44.22075" lon="3.21401">
        <ele>707.3</ele>
        <time>2017-02-17T16:10:04Z</time>
      </trkpt>
      <trkpt lat="44.22071" lon="3.21407">
        <ele>706.8</ele>
        <time>2017-02-17T16:10:05Z</time>
      </trkpt>
      <trkpt lat="44.2207" lon="3.2141">
        <ele>706.5</ele>
        <time>2017-02-17T16:10:06Z</time>
      </trkpt>
      <trkpt lat="44.22064" lon="3.21416">
        <ele>705.9</ele>
        <time>2017-02-17T16:10:07Z</time>
      </trkpt>
      <trkpt lat="44.2206" lon="3.21423">
        <ele>705.4</ele>
        <time>2017-02-17T16:10:08Z</time>
      </trkpt>
      <trkpt lat="44.22056" lon="3.21427">
        <ele>705.1</ele>
        <time>2017-02-17T16:10:09Z</time>
      </trkpt>
      <trkpt lat="44.22051" lon="3.21434">
        <ele>704.7</ele>
        <time>2017-02-17T16:10:10Z</time>
      </trkpt>
      <trkpt lat="44.22047" lon="3.21441">
        <ele>704.4</ele>
        <time>2017-02-17T16:10:11Z</time>
      </trkpt>
      <trkpt lat="44.22044" lon="3.21444">
        <ele>704.2</ele>
        <time>2017-02-17T16:10:12Z</time>
      </trkpt>
      <trkpt lat="44.2204" lon="3.2145">
        <ele>704</ele>
        <time>2017-02-17T16:10:13Z</time>
      </trkpt>
      <trkpt lat="44.22035" lon="3.21455">
        <ele>703.8</ele>
        <time>2017-02-17T16:10:14Z</time>
      </trkpt>
      <trkpt lat="44.22031" lon="3.21457">
        <ele>703.6</ele>
        <time>2017-02-17T16:10:15Z</time>
      </trkpt>
      <trkpt lat="44.22027" lon="3.2146">
        <ele>703.5</ele>
        <time>2017-02-17T16:10:16Z</time>
      </trkpt>
      <trkpt lat="44.22024" lon="3.21462">
        <ele>703.3</ele>
        <time>2017-02-17T16:10:17Z</time>
      </trkpt>
      <trkpt lat="44.22022" lon="3.21465">
        <ele>703.2</ele>
        <time>2017-02-17T16:10:18Z</time>
      </trkpt>
      <trkpt lat="44.2202" lon="3.21467">
        <ele>703.1</ele>
        <time>2017-02-17T16:10:19Z</time>
      </trkpt>
      <trkpt lat="44.22017" lon="3.2147">
        <ele>703</ele>
        <time>2017-02-17T16:10:20Z</time>
      </trkpt>
      <trkpt lat="44.22014" lon="3.21471">
        <ele>702.8</ele>
        <time>2017-02-17T16:10:21Z</time>
      </trkpt>
      <trkpt lat="44.22012" lon="3.21473">
        <ele>702.7</ele>
        <time>2017-02-17T16:10:22Z</time>
      </trkpt>
      <trkpt lat="44.22008" lon="3.21478">
        <ele>702.5</ele>
        <time>2017-02-17T16:10:24Z</time>
      </trkpt>
      <trkpt lat="44.22005" lon="3.21481">
        <ele>702.4</ele>
        <time>2017-02-17T16:10:26Z</time>
      </trkpt>
      <trkpt lat="44.22002" lon="3.21487">
        <ele>702.1</ele>
        <time>2017-02-17T16:10:28Z</time>
      </trkpt>
      <trkpt lat="44.22001" lon="3.21491">
        <ele>701.9</ele>
        <time>2017-02-17T16:10:29Z</time>
      </trkpt>
      <trkpt lat="44.21999" lon="3.21497">
        <ele>701.7</ele>
        <time>2017-02-17T16:10:30Z</time>
      </trkpt>
      <trkpt lat="44.21997" lon="3.21501">
        <ele>701.5</ele>
        <time>2017-02-17T16:10:31Z</time>
      </trkpt>
      <trkpt lat="44.21996" lon="3.21506">
        <ele>701.3</ele>
        <time>2017-02-17T16:10:32Z</time>
      </trkpt>
      <trkpt lat="44.21994" lon="3.21511">
        <ele>701.1</ele>
        <time>2017-02-17T16:10:33Z</time>
      </trkpt>
      <trkpt lat="44.21993" lon="3.21514">
        <ele>701</ele>
        <time>2017-02-17T16:10:34Z</time>
      </trkpt>
      <trkpt lat="44.21992" lon="3.21521">
        <ele>700.8</ele>
        <time>2017-02-17T16:10:35Z</time>
      </trkpt>
      <trkpt lat="44.21991" lon="3.21525">
        <ele>700.8</ele>
        <time>2017-02-17T16:10:36Z</time>
      </trkpt>
      <trkpt lat="44.21991" lon="3.21529">
        <ele>700.7</ele>
        <time>2017-02-17T16:10:37Z</time>
      </trkpt>
      <trkpt lat="44.21989" lon="3.21533">
        <ele>700.7</ele>
        <time>2017-02-17T16:10:38Z</time>
      </trkpt>
      <trkpt lat="44.21987" lon="3.2154">
        <ele>700.7</ele>
        <time>2017-02-17T16:10:40Z</time>
      </trkpt>
      <trkpt lat="44.21985" lon="3.21544">
        <ele>700.6</ele>
        <time>2017-02-17T16:10:41Z</time>
      </trkpt>
      <trkpt lat="44.21983" lon="3.21549">
        <ele>700.4</ele>
        <time>2017-02-17T16:10:42Z</time>
      </trkpt>
      <trkpt lat="44.21981" lon="3.21555">
        <ele>700</ele>
        <time>2017-02-17T16:10:44Z</time>
      </trkpt>
      <trkpt lat="44.21978" lon="3.21559">
        <ele>699.5</ele>
        <time>2017-02-17T16:10:46Z</time>
      </trkpt>
      <trkpt lat="44.21974" lon="3.2156">
        <ele>699.1</ele>
        <time>2017-02-17T16:10:47Z</time>
      </trkpt>
      <trkpt lat="44.2197" lon="3.21559">
        <ele>698.8</ele>
        <time>2017-02-17T16:10:49Z</time>
      </trkpt>
      <trkpt lat="44.21966" lon="3.21559">
        <ele>698.7</ele>
        <time>2017-02-17T16:10:51Z</time>
      </trkpt>
      <trkpt lat="44.21963" lon="3.21558">
        <ele>698.7</ele>
        <time>2017-02-17T16:10:53Z</time>
      </trkpt>
      <trkpt lat="44.21962" lon="3.21554">
        <ele>698.7</ele>
        <time>2017-02-17T16:10:56Z</time>
      </trkpt>
      <trkpt lat="44.21959" lon="3.21553">
        <ele>698.7</ele>
        <time>2017-02-17T16:11:01Z</time>
      </trkpt>
      <trkpt lat="44.21953" lon="3.21551">
        <ele>698.6</ele>
        <time>2017-02-17T16:11:13Z</time>
      </trkpt>
      <trkpt lat="44.21951" lon="3.21551">
        <ele>698.6</ele>
        <time>2017-02-17T16:11:23Z</time>
      </trkpt>
      <trkpt lat="44.21945" lon="3.21551">
        <ele>698.4</ele>
        <time>2017-02-17T16:11:32Z</time>
      </trkpt>
      <trkpt lat="44.21941" lon="3.21548">
        <ele>697.9</ele>
        <time>2017-02-17T16:11:34Z</time>
      </trkpt>
      <trkpt lat="44.21938" lon="3.21549">
        <ele>697.6</ele>
        <time>2017-02-17T16:11:36Z</time>
      </trkpt>
      <trkpt lat="44.21935" lon="3.21548">
        <ele>697.4</ele>
        <time>2017-02-17T16:11:39Z</time>
      </trkpt>
      <trkpt lat="44.21932" lon="3.21546">
        <ele>697.2</ele>
        <time>2017-02-17T16:11:41Z</time>
      </trkpt>
      <trkpt lat="44.21928" lon="3.21547">
        <ele>696.9</ele>
        <time>2017-02-17T16:11:43Z</time>
      </trkpt>
      <trkpt lat="44.21923" lon="3.21543">
        <ele>696.5</ele>
        <time>2017-02-17T16:11:45Z</time>
      </trkpt>
      <trkpt lat="44.21919" lon="3.21545">
        <ele>696.3</ele>
        <time>2017-02-17T16:11:47Z</time>
      </trkpt>
      <trkpt lat="44.21916" lon="3.21544">
        <ele>696.1</ele>
        <time>2017-02-17T16:11:48Z</time>
      </trkpt>
      <trkpt lat="44.21913" lon="3.21546">
        <ele>696</ele>
        <time>2017-02-17T16:11:50Z</time>
      </trkpt>
      <trkpt lat="44.21908" lon="3.21544">
        <ele>695.8</ele>
        <time>2017-02-17T16:11:52Z</time>
      </trkpt>
      <trkpt lat="44.21904" lon="3.21542">
        <ele>695.7</ele>
        <time>2017-02-17T16:11:54Z</time>
      </trkpt>
      <trkpt lat="44.21901" lon="3.21542">
        <ele>695.6</ele>
        <time>2017-02-17T16:11:56Z</time>
      </trkpt>
      <trkpt lat="44.21897" lon="3.21543">
        <ele>695.5</ele>
        <time>2017-02-17T16:11:58Z</time>
      </trkpt>
      <trkpt lat="44.21893" lon="3.21542">
        <ele>695.3</ele>
        <time>2017-02-17T16:12:00Z</time>
      </trkpt>
      <trkpt lat="44.21887" lon="3.21544">
        <ele>695</ele>
        <time>2017-02-17T16:12:02Z</time>
      </trkpt>
      <trkpt lat="44.21884" lon="3.21545">
        <ele>694.8</ele>
        <time>2017-02-17T16:12:03Z</time>
      </trkpt>
      <trkpt lat="44.21881" lon="3.21543">
        <ele>694.6</ele>
        <time>2017-02-17T16:12:05Z</time>
      </trkpt>
      <trkpt lat="44.21875" lon="3.21543">
        <ele>694.2</ele>
        <time>2017-02-17T16:12:07Z</time>
      </trkpt>
      <trkpt lat="44.21871" lon="3.21544">
        <ele>694</ele>
        <time>2017-02-17T16:12:08Z</time>
      </trkpt>
      <trkpt lat="44.21868" lon="3.21544">
        <ele>693.9</ele>
        <time>2017-02-17T16:12:09Z</time>
      </trkpt>
      <trkpt lat="44.21863" lon="3.21543">
        <ele>693.7</ele>
        <time>2017-02-17T16:12:10Z</time>
      </trkpt>
      <trkpt lat="44.2186" lon="3.21543">
        <ele>693.6</ele>
        <time>2017-02-17T16:12:11Z</time>
      </trkpt>
      <trkpt lat="44.21857" lon="3.21543">
        <ele>693.5</ele>
        <time>2017-02-17T16:12:12Z</time>
      </trkpt>
      <trkpt lat="44.21854" lon="3.21544">
        <ele>693.3</ele>
        <time>2017-02-17T16:12:13Z</time>
      </trkpt>
      <trkpt lat="44.2185" lon="3.21545">
        <ele>692.9</ele>
        <time>2017-02-17T16:12:14Z</time>
      </trkpt>
      <trkpt lat="44.21847" lon="3.21546">
        <ele>692.6</ele>
        <time>2017-02-17T16:12:15Z</time>
      </trkpt>
      <trkpt lat="44.21844" lon="3.21546">
        <ele>692.2</ele>
        <time>2017-02-17T16:12:16Z</time>
      </trkpt>
      <trkpt lat="44.21839" lon="3.21547">
        <ele>691.5</ele>
        <time>2017-02-17T16:12:17Z</time>
      </trkpt>
      <trkpt lat="44.21836" lon="3.21548">
        <ele>690.9</ele>
        <time>2017-02-17T16:12:25Z</time>
      </trkpt>
      <trkpt lat="44.21834" lon="3.21551">
        <ele>690.6</ele>
        <time>2017-02-17T16:12:26Z</time>
      </trkpt>
      <trkpt lat="44.21831" lon="3.21555">
        <ele>690.1</ele>
        <time>2017-02-17T16:12:29Z</time>
      </trkpt>
      <trkpt lat="44.21827" lon="3.21558">
        <ele>689.7</ele>
        <time>2017-02-17T16:12:30Z</time>
      </trkpt>
      <trkpt lat="44.21822" lon="3.21563">
        <ele>689.1</ele>
        <time>2017-02-17T16:12:31Z</time>
      </trkpt>
      <trkpt lat="44.21817" lon="3.21568">
        <ele>688.5</ele>
        <time>2017-02-17T16:12:32Z</time>
      </trkpt>
      <trkpt lat="44.21813" lon="3.21573">
        <ele>688.1</ele>
        <time>2017-02-17T16:12:33Z</time>
      </trkpt>
      <trkpt lat="44.2181" lon="3.21576">
        <ele>687.8</ele>
        <time>2017-02-17T16:12:34Z</time>
      </trkpt>
      <trkpt lat="44.21806" lon="3.21579">
        <ele>687.4</ele>
        <time>2017-02-17T16:12:35Z</time>
      </trkpt>
      <trkpt lat="44.21799" lon="3.21583">
        <ele>686.7</ele>
        <time>2017-02-17T16:12:36Z</time>
      </trkpt>
      <trkpt lat="44.21794" lon="3.21585">
        <ele>686.1</ele>
        <time>2017-02-17T16:12:37Z</time>
      </trkpt>
      <trkpt lat="44.21791" lon="3.21586">
        <ele>685.8</ele>
        <time>2017-02-17T16:12:38Z</time>
      </trkpt>
      <trkpt lat="44.21787" lon="3.21589">
        <ele>685.1</ele>
        <time>2017-02-17T16:12:40Z</time>
      </trkpt>
      <trkpt lat="44.21783" lon="3.21591">
        <ele>684.6</ele>
        <time>2017-02-17T16:12:42Z</time>
      </trkpt>
      <trkpt lat="44.21781" lon="3.21595">
        <ele>684</ele>
        <time>2017-02-17T16:12:44Z</time>
      </trkpt>
      <trkpt lat="44.21778" lon="3.21597">
        <ele>683.4</ele>
        <time>2017-02-17T16:12:45Z</time>
      </trkpt>
      <trkpt lat="44.21775" lon="3.21601">
        <ele>682.6</ele>
        <time>2017-02-17T16:12:46Z</time>
      </trkpt>
      <trkpt lat="44.2177" lon="3.21606">
        <ele>681.5</ele>
        <time>2017-02-17T16:12:47Z</time>
      </trkpt>
      <trkpt lat="44.21766" lon="3.21611">
        <ele>680.4</ele>
        <time>2017-02-17T16:12:48Z</time>
      </trkpt>
      <trkpt lat="44.21763" lon="3.21615">
        <ele>679.5</ele>
        <time>2017-02-17T16:12:49Z</time>
      </trkpt>
      <trkpt lat="44.21757" lon="3.2162">
        <ele>678.4</ele>
        <time>2017-02-17T16:12:50Z</time>
      </trkpt>
      <trkpt lat="44.21755" lon="3.21622">
        <ele>677.9</ele>
        <time>2017-02-17T16:12:52Z</time>
      </trkpt>
      <trkpt lat="44.21752" lon="3.21624">
        <ele>677.3</ele>
        <time>2017-02-17T16:13:00Z</time>
      </trkpt>
      <trkpt lat="44.21748" lon="3.21627">
        <ele>676.3</ele>
        <time>2017-02-17T16:13:05Z</time>
      </trkpt>
      <trkpt lat="44.21744" lon="3.21632">
        <ele>675.2</ele>
        <time>2017-02-17T16:13:07Z</time>
      </trkpt>
      <trkpt lat="44.21738" lon="3.21634">
        <ele>674.3</ele>
        <time>2017-02-17T16:13:09Z</time>
      </trkpt>
      <trkpt lat="44.21735" lon="3.21632">
        <ele>673.7</ele>
        <time>2017-02-17T16:13:11Z</time>
      </trkpt>
      <trkpt lat="44.21732" lon="3.21631">
        <ele>673.3</ele>
        <time>2017-02-17T16:13:17Z</time>
      </trkpt>
      <trkpt lat="44.21729" lon="3.21631">
        <ele>672.8</ele>
        <time>2017-02-17T16:13:26Z</time>
      </trkpt>
      <trkpt lat="44.21726" lon="3.21629">
        <ele>672.3</ele>
        <time>2017-02-17T16:13:41Z</time>
      </trkpt>
      <trkpt lat="44.21722" lon="3.21628">
        <ele>671.5</ele>
        <time>2017-02-17T16:13:43Z</time>
      </trkpt>
      <trkpt lat="44.21717" lon="3.21628">
        <ele>670.5</ele>
        <time>2017-02-17T16:13:45Z</time>
      </trkpt>
      <trkpt lat="44.21714" lon="3.21629">
        <ele>669.7</ele>
        <time>2017-02-17T16:13:47Z</time>
      </trkpt>
      <trkpt lat="44.2171" lon="3.2163">
        <ele>669.1</ele>
        <time>2017-02-17T16:13:48Z</time>
      </trkpt>
      <trkpt lat="44.21707" lon="3.21632">
        <ele>668.5</ele>
        <time>2017-02-17T16:13:50Z</time>
      </trkpt>
      <trkpt lat="44.21708" lon="3.21636">
        <ele>668.1</ele>
        <time>2017-02-17T16:13:52Z</time>
      </trkpt>
      <trkpt lat="44.21708" lon="3.21641">
        <ele>667.8</ele>
        <time>2017-02-17T16:13:53Z</time>
      </trkpt>
      <trkpt lat="44.21706" lon="3.21644">
        <ele>667.4</ele>
        <time>2017-02-17T16:13:54Z</time>
      </trkpt>
      <trkpt lat="44.21703" lon="3.21652">
        <ele>666.9</ele>
        <time>2017-02-17T16:13:55Z</time>
      </trkpt>
      <trkpt lat="44.21701" lon="3.21661">
        <ele>666.2</ele>
        <time>2017-02-17T16:13:56Z</time>
      </trkpt>
      <trkpt lat="44.21698" lon="3.21667">
        <ele>665.8</ele>
        <time>2017-02-17T16:13:57Z</time>
      </trkpt>
      <trkpt lat="44.21695" lon="3.21672">
        <ele>665.3</ele>
        <time>2017-02-17T16:13:58Z</time>
      </trkpt>
      <trkpt lat="44.21692" lon="3.21679">
        <ele>664.7</ele>
        <time>2017-02-17T16:13:59Z</time>
      </trkpt>
      <trkpt lat="44.21686" lon="3.21683">
        <ele>664.2</ele>
        <time>2017-02-17T16:14:05Z</time>
      </trkpt>
      <trkpt lat="44.21685" lon="3.21684">
        <ele>664.1</ele>
        <time>2017-02-17T16:14:09Z</time>
      </trkpt>
      <trkpt lat="44.21684" lon="3.21685">
        <ele>664</ele>
        <time>2017-02-17T16:14:15Z</time>
      </trkpt>
      <trkpt lat="44.21683" lon="3.21686">
        <ele>663.9</ele>
        <time>2017-02-17T16:14:16Z</time>
      </trkpt>
      <trkpt lat="44.21681" lon="3.21688">
        <ele>663.8</ele>
        <time>2017-02-17T16:14:17Z</time>
      </trkpt>
      <trkpt lat="44.21677" lon="3.21691">
        <ele>663.8</ele>
        <time>2017-02-17T16:14:19Z</time>
      </trkpt>
      <trkpt lat="44.21675" lon="3.21694">
        <ele>663.9</ele>
        <time>2017-02-17T16:14:22Z</time>
      </trkpt>
      <trkpt lat="44.21675" lon="3.21699">
        <ele>664.2</ele>
        <time>2017-02-17T16:14:29Z</time>
      </trkpt>
      <trkpt lat="44.21675" lon="3.21704">
        <ele>664.5</ele>
        <time>2017-02-17T16:14:32Z</time>
      </trkpt>
      <trkpt lat="44.21676" lon="3.21713">
        <ele>665.3</ele>
        <time>2017-02-17T16:14:35Z</time>
      </trkpt>
      <trkpt lat="44.21674" lon="3.21717">
        <ele>665.7</ele>
        <time>2017-02-17T16:14:36Z</time>
      </trkpt>
      <trkpt lat="44.21671" lon="3.21723">
        <ele>666.1</ele>
        <time>2017-02-17T16:14:37Z</time>
      </trkpt>
      <trkpt lat="44.21669" lon="3.21726">
        <ele>666.4</ele>
        <time>2017-02-17T16:14:39Z</time>
      </trkpt>
      <trkpt lat="44.21668" lon="3.2173">
        <ele>666.7</ele>
        <time>2017-02-17T16:14:54Z</time>
      </trkpt>
      <trkpt lat="44.21669" lon="3.21734">
        <ele>667</ele>
        <time>2017-02-17T16:15:05Z</time>
      </trkpt>
      <trkpt lat="44.21667" lon="3.21738">
        <ele>667.5</ele>
        <time>2017-02-17T16:15:08Z</time>
      </trkpt>
      <trkpt lat="44.21666" lon="3.21743">
        <ele>668.2</ele>
        <time>2017-02-17T16:15:11Z</time>
      </trkpt>
      <trkpt lat="44.21664" lon="3.21747">
        <ele>668.7</ele>
        <time>2017-02-17T16:15:13Z</time>
      </trkpt>
      <trkpt lat="44.21665" lon="3.21753">
        <ele>668.9</ele>
        <time>2017-02-17T16:15:15Z</time>
      </trkpt>
      <trkpt lat="44.21665" lon="3.21758">
        <ele>668.9</ele>
        <time>2017-02-17T16:15:17Z</time>
      </trkpt>
      <trkpt lat="44.21666" lon="3.21763">
        <ele>668.9</ele>
        <time>2017-02-17T16:15:19Z</time>
      </trkpt>
      <trkpt lat="44.21667" lon="3.21766">
        <ele>668.9</ele>
        <time>2017-02-17T16:15:20Z</time>
      </trkpt>
      <trkpt lat="44.21668" lon="3.2177">
        <ele>668.8</ele>
        <time>2017-02-17T16:15:21Z</time>
      </trkpt>
      <trkpt lat="44.21668" lon="3.21775">
        <ele>668.6</ele>
        <time>2017-02-17T16:15:22Z</time>
      </trkpt>
      <trkpt lat="44.21668" lon="3.21781">
        <ele>668.3</ele>
        <time>2017-02-17T16:15:23Z</time>
      </trkpt>
      <trkpt lat="44.21665" lon="3.21788">
        <ele>667.8</ele>
        <time>2017-02-17T16:15:24Z</time>
      </trkpt>
      <trkpt lat="44.21662" lon="3.21792">
        <ele>667.6</ele>
        <time>2017-02-17T16:15:25Z</time>
      </trkpt>
      <trkpt lat="44.2166" lon="3.21794">
        <ele>667.4</ele>
        <time>2017-02-17T16:15:26Z</time>
      </trkpt>
      <trkpt lat="44.21657" lon="3.21796">
        <ele>667.1</ele>
        <time>2017-02-17T16:15:28Z</time>
      </trkpt>
      <trkpt lat="44.21654" lon="3.218">
        <ele>666.9</ele>
        <time>2017-02-17T16:15:30Z</time>
      </trkpt>
      <trkpt lat="44.21653" lon="3.21803">
        <ele>666.7</ele>
        <time>2017-02-17T16:15:32Z</time>
      </trkpt>
      <trkpt lat="44.21649" lon="3.21807">
        <ele>666.5</ele>
        <time>2017-02-17T16:15:34Z</time>
      </trkpt>
      <trkpt lat="44.21646" lon="3.2181">
        <ele>666.4</ele>
        <time>2017-02-17T16:15:37Z</time>
      </trkpt>
      <trkpt lat="44.21644" lon="3.21812">
        <ele>666.4</ele>
        <time>2017-02-17T16:15:45Z</time>
      </trkpt>
      <trkpt lat="44.2164" lon="3.21818">
        <ele>666.4</ele>
        <time>2017-02-17T16:15:49Z</time>
      </trkpt>
      <trkpt lat="44.21638" lon="3.21824">
        <ele>666.4</ele>
        <time>2017-02-17T16:15:53Z</time>
      </trkpt>
      <trkpt lat="44.21635" lon="3.21827">
        <ele>666.4</ele>
        <time>2017-02-17T16:15:59Z</time>
      </trkpt>
      <trkpt lat="44.21634" lon="3.21831">
        <ele>666.5</ele>
        <time>2017-02-17T16:16:01Z</time>
      </trkpt>
      <trkpt lat="44.21634" lon="3.21837">
        <ele>666.5</ele>
        <time>2017-02-17T16:16:02Z</time>
      </trkpt>
      <trkpt lat="44.21632" lon="3.21843">
        <ele>666.5</ele>
        <time>2017-02-17T16:16:04Z</time>
      </trkpt>
      <trkpt lat="44.2163" lon="3.21847">
        <ele>666.4</ele>
        <time>2017-02-17T16:16:05Z</time>
      </trkpt>
      <trkpt lat="44.21628" lon="3.21851">
        <ele>666.3</ele>
        <time>2017-02-17T16:16:07Z</time>
      </trkpt>
      <trkpt lat="44.21626" lon="3.21855">
        <ele>666.1</ele>
        <time>2017-02-17T16:16:09Z</time>
      </trkpt>
      <trkpt lat="44.21624" lon="3.21859">
        <ele>665.9</ele>
        <time>2017-02-17T16:16:12Z</time>
      </trkpt>
      <trkpt lat="44.2162" lon="3.21866">
        <ele>665.6</ele>
        <time>2017-02-17T16:16:14Z</time>
      </trkpt>
      <trkpt lat="44.21619" lon="3.21872">
        <ele>665.5</ele>
        <time>2017-02-17T16:16:15Z</time>
      </trkpt>
      <trkpt lat="44.21619" lon="3.21876">
        <ele>665.4</ele>
        <time>2017-02-17T16:16:17Z</time>
      </trkpt>
      <trkpt lat="44.21616" lon="3.21879">
        <ele>665.2</ele>
        <time>2017-02-17T16:16:19Z</time>
      </trkpt>
      <trkpt lat="44.21613" lon="3.21883">
        <ele>665.1</ele>
        <time>2017-02-17T16:16:22Z</time>
      </trkpt>
      <trkpt lat="44.21611" lon="3.21887">
        <ele>665</ele>
        <time>2017-02-17T16:16:24Z</time>
      </trkpt>
      <trkpt lat="44.21609" lon="3.21894">
        <ele>664.9</ele>
        <time>2017-02-17T16:16:26Z</time>
      </trkpt>
      <trkpt lat="44.21607" lon="3.219">
        <ele>664.7</ele>
        <time>2017-02-17T16:16:27Z</time>
      </trkpt>
      <trkpt lat="44.21603" lon="3.21904">
        <ele>664.5</ele>
        <time>2017-02-17T16:16:29Z</time>
      </trkpt>
      <trkpt lat="44.216" lon="3.21906">
        <ele>664.4</ele>
        <time>2017-02-17T16:16:31Z</time>
      </trkpt>
      <trkpt lat="44.21596" lon="3.21908">
        <ele>664</ele>
        <time>2017-02-17T16:16:33Z</time>
      </trkpt>
      <trkpt lat="44.21592" lon="3.2191">
        <ele>663.8</ele>
        <time>2017-02-17T16:16:34Z</time>
      </trkpt>
      <trkpt lat="44.21587" lon="3.21912">
        <ele>663.4</ele>
        <time>2017-02-17T16:16:36Z</time>
      </trkpt>
      <trkpt lat="44.21584" lon="3.21912">
        <ele>663.1</ele>
        <time>2017-02-17T16:16:39Z</time>
      </trkpt>
      <trkpt lat="44.21582" lon="3.21909">
        <ele>662.8</ele>
        <time>2017-02-17T16:16:43Z</time>
      </trkpt>
      <trkpt lat="44.2158" lon="3.21905">
        <ele>662.5</ele>
        <time>2017-02-17T16:16:45Z</time>
      </trkpt>
      <trkpt lat="44.21578" lon="3.21902">
        <ele>662.1</ele>
        <time>2017-02-17T16:16:48Z</time>
      </trkpt>
      <trkpt lat="44.21574" lon="3.21899">
        <ele>661.6</ele>
        <time>2017-02-17T16:16:51Z</time>
      </trkpt>
      <trkpt lat="44.21571" lon="3.21895">
        <ele>660.9</ele>
        <time>2017-02-17T16:16:53Z</time>
      </trkpt>
      <trkpt lat="44.21567" lon="3.21891">
        <ele>660.3</ele>
        <time>2017-02-17T16:16:54Z</time>
      </trkpt>
      <trkpt lat="44.21561" lon="3.21888">
        <ele>659.9</ele>
        <time>2017-02-17T16:16:56Z</time>
      </trkpt>
      <trkpt lat="44.21557" lon="3.21887">
        <ele>659.7</ele>
        <time>2017-02-17T16:16:57Z</time>
      </trkpt>
      <trkpt lat="44.21553" lon="3.21885">
        <ele>658.7</ele>
        <time>2017-02-17T16:16:58Z</time>
      </trkpt>
      <trkpt lat="44.21546" lon="3.21882">
        <ele>657.8</ele>
        <time>2017-02-17T16:17:00Z</time>
      </trkpt>
      <trkpt lat="44.21538" lon="3.2188">
        <ele>657.4</ele>
        <time>2017-02-17T16:17:02Z</time>
      </trkpt>
      <trkpt lat="44.21536" lon="3.2188">
        <ele>657.2</ele>
        <time>2017-02-17T16:17:03Z</time>
      </trkpt>
      <trkpt lat="44.21531" lon="3.21878">
        <ele>656.8</ele>
        <time>2017-02-17T16:17:05Z</time>
      </trkpt>
      <trkpt lat="44.21528" lon="3.21879">
        <ele>656.7</ele>
        <time>2017-02-17T16:17:06Z</time>
      </trkpt>
      <trkpt lat="44.21525" lon="3.21877">
        <ele>656.5</ele>
        <time>2017-02-17T16:17:08Z</time>
      </trkpt>
      <trkpt lat="44.21523" lon="3.21873">
        <ele>656.4</ele>
        <time>2017-02-17T16:17:10Z</time>
      </trkpt>
      <trkpt lat="44.21515" lon="3.21869">
        <ele>656</ele>
        <time>2017-02-17T16:17:12Z</time>
      </trkpt>
      <trkpt lat="44.21509" lon="3.21867">
        <ele>655.7</ele>
        <time>2017-02-17T16:17:13Z</time>
      </trkpt>
      <trkpt lat="44.21503" lon="3.21865">
        <ele>655.2</ele>
        <time>2017-02-17T16:17:14Z</time>
      </trkpt>
      <trkpt lat="44.21498" lon="3.21862">
        <ele>654.7</ele>
        <time>2017-02-17T16:17:16Z</time>
      </trkpt>
      <trkpt lat="44.21495" lon="3.21861">
        <ele>654.4</ele>
        <time>2017-02-17T16:17:17Z</time>
      </trkpt>
      <trkpt lat="44.21492" lon="3.2186">
        <ele>654.1</ele>
        <time>2017-02-17T16:17:18Z</time>
      </trkpt>
      <trkpt lat="44.21487" lon="3.21858">
        <ele>653.6</ele>
        <time>2017-02-17T16:17:19Z</time>
      </trkpt>
      <trkpt lat="44.21481" lon="3.21858">
        <ele>653.1</ele>
        <time>2017-02-17T16:17:20Z</time>
      </trkpt>
      <trkpt lat="44.21478" lon="3.21858">
        <ele>652.8</ele>
        <time>2017-02-17T16:17:21Z</time>
      </trkpt>
      <trkpt lat="44.21474" lon="3.21858">
        <ele>652.4</ele>
        <time>2017-02-17T16:17:22Z</time>
      </trkpt>
      <trkpt lat="44.21471" lon="3.21859">
        <ele>652.2</ele>
        <time>2017-02-17T16:17:24Z</time>
      </trkpt>
      <trkpt lat="44.21468" lon="3.2186">
        <ele>652</ele>
        <time>2017-02-17T16:17:26Z</time>
      </trkpt>
      <trkpt lat="44.21464" lon="3.21863">
        <ele>651.7</ele>
        <time>2017-02-17T16:17:27Z</time>
      </trkpt>
      <trkpt lat="44.2146" lon="3.21868">
        <ele>651.5</ele>
        <time>2017-02-17T16:17:28Z</time>
      </trkpt>
      <trkpt lat="44.21457" lon="3.21871">
        <ele>651.3</ele>
        <time>2017-02-17T16:17:29Z</time>
      </trkpt>
      <trkpt lat="44.21453" lon="3.21875">
        <ele>651.1</ele>
        <time>2017-02-17T16:17:30Z</time>
      </trkpt>
      <trkpt lat="44.2145" lon="3.21878">
        <ele>650.9</ele>
        <time>2017-02-17T16:17:31Z</time>
      </trkpt>
      <trkpt lat="44.21445" lon="3.2188">
        <ele>650.5</ele>
        <time>2017-02-17T16:17:33Z</time>
      </trkpt>
      <trkpt lat="44.21441" lon="3.21878">
        <ele>650.1</ele>
        <time>2017-02-17T16:17:35Z</time>
      </trkpt>
      <trkpt lat="44.21438" lon="3.21875">
        <ele>649.9</ele>
        <time>2017-02-17T16:17:36Z</time>
      </trkpt>
      <trkpt lat="44.21436" lon="3.21869">
        <ele>649.5</ele>
        <time>2017-02-17T16:17:38Z</time>
      </trkpt>
      <trkpt lat="44.21433" lon="3.21863">
        <ele>649.1</ele>
        <time>2017-02-17T16:17:40Z</time>
      </trkpt>
      <trkpt lat="44.21429" lon="3.21861">
        <ele>648.8</ele>
        <time>2017-02-17T16:17:42Z</time>
      </trkpt>
      <trkpt lat="44.21427" lon="3.21857">
        <ele>648.6</ele>
        <time>2017-02-17T16:17:43Z</time>
      </trkpt>
      <trkpt lat="44.21425" lon="3.21852">
        <ele>648.3</ele>
        <time>2017-02-17T16:17:44Z</time>
      </trkpt>
      <trkpt lat="44.21423" lon="3.21847">
        <ele>648</ele>
        <time>2017-02-17T16:17:45Z</time>
      </trkpt>
      <trkpt lat="44.21421" lon="3.2184">
        <ele>647.6</ele>
        <time>2017-02-17T16:17:47Z</time>
      </trkpt>
      <trkpt lat="44.2142" lon="3.21835">
        <ele>647.3</ele>
        <time>2017-02-17T16:17:49Z</time>
      </trkpt>
      <trkpt lat="44.21417" lon="3.21829">
        <ele>647</ele>
        <time>2017-02-17T16:17:51Z</time>
      </trkpt>
      <trkpt lat="44.21416" lon="3.21826">
        <ele>646.8</ele>
        <time>2017-02-17T16:17:52Z</time>
      </trkpt>
      <trkpt lat="44.21414" lon="3.21819">
        <ele>646.5</ele>
        <time>2017-02-17T16:17:54Z</time>
      </trkpt>
      <trkpt lat="44.21412" lon="3.21816">
        <ele>646.4</ele>
        <time>2017-02-17T16:17:55Z</time>
      </trkpt>
      <trkpt lat="44.2141" lon="3.21814">
        <ele>646.2</ele>
        <time>2017-02-17T16:17:56Z</time>
      </trkpt>
      <trkpt lat="44.21408" lon="3.2181">
        <ele>646</ele>
        <time>2017-02-17T16:17:57Z</time>
      </trkpt>
      <trkpt lat="44.21407" lon="3.21806">
        <ele>645.8</ele>
        <time>2017-02-17T16:17:58Z</time>
      </trkpt>
      <trkpt lat="44.21406" lon="3.21802">
        <ele>645.7</ele>
        <time>2017-02-17T16:17:59Z</time>
      </trkpt>
      <trkpt lat="44.21402" lon="3.21798">
        <ele>645.5</ele>
        <time>2017-02-17T16:18:01Z</time>
      </trkpt>
      <trkpt lat="44.21398" lon="3.21793">
        <ele>645.4</ele>
        <time>2017-02-17T16:18:03Z</time>
      </trkpt>
      <trkpt lat="44.21395" lon="3.2179">
        <ele>645.4</ele>
        <time>2017-02-17T16:18:05Z</time>
      </trkpt>
      <trkpt lat="44.21393" lon="3.21787">
        <ele>645.4</ele>
        <time>2017-02-17T16:18:06Z</time>
      </trkpt>
      <trkpt lat="44.2139" lon="3.21784">
        <ele>645.4</ele>
        <time>2017-02-17T16:18:07Z</time>
      </trkpt>
      <trkpt lat="44.21386" lon="3.21781">
        <ele>645.4</ele>
        <time>2017-02-17T16:18:08Z</time>
      </trkpt>
      <trkpt lat="44.21382" lon="3.21779">
        <ele>645.5</ele>
        <time>2017-02-17T16:18:09Z</time>
      </trkpt>
      <trkpt lat="44.21377" lon="3.21776">
        <ele>645.5</ele>
        <time>2017-02-17T16:18:10Z</time>
      </trkpt>
      <trkpt lat="44.21375" lon="3.21773">
        <ele>645.5</ele>
        <time>2017-02-17T16:18:11Z</time>
      </trkpt>
      <trkpt lat="44.21374" lon="3.2177">
        <ele>645.5</ele>
        <time>2017-02-17T16:18:12Z</time>
      </trkpt>
      <trkpt lat="44.21371" lon="3.21764">
        <ele>645.4</ele>
        <time>2017-02-17T16:18:14Z</time>
      </trkpt>
      <trkpt lat="44.21367" lon="3.21758">
        <ele>645.1</ele>
        <time>2017-02-17T16:18:16Z</time>
      </trkpt>
      <trkpt lat="44.21366" lon="3.21752">
        <ele>644.9</ele>
        <time>2017-02-17T16:18:17Z</time>
      </trkpt>
      <trkpt lat="44.21365" lon="3.21749">
        <ele>644.7</ele>
        <time>2017-02-17T16:18:18Z</time>
      </trkpt>
      <trkpt lat="44.21361" lon="3.21747">
        <ele>644.5</ele>
        <time>2017-02-17T16:18:19Z</time>
      </trkpt>
      <trkpt lat="44.21358" lon="3.21747">
        <ele>644.3</ele>
        <time>2017-02-17T16:18:20Z</time>
      </trkpt>
      <trkpt lat="44.21355" lon="3.21747">
        <ele>644.1</ele>
        <time>2017-02-17T16:18:21Z</time>
      </trkpt>
      <trkpt lat="44.2135" lon="3.21747">
        <ele>643.9</ele>
        <time>2017-02-17T16:18:23Z</time>
      </trkpt>
      <trkpt lat="44.21345" lon="3.21747">
        <ele>643.7</ele>
        <time>2017-02-17T16:18:25Z</time>
      </trkpt>
      <trkpt lat="44.21339" lon="3.21747">
        <ele>643.5</ele>
        <time>2017-02-17T16:18:27Z</time>
      </trkpt>
      <trkpt lat="44.21335" lon="3.21747">
        <ele>643.4</ele>
        <time>2017-02-17T16:18:29Z</time>
      </trkpt>
      <trkpt lat="44.21332" lon="3.21748">
        <ele>643.3</ele>
        <time>2017-02-17T16:18:30Z</time>
      </trkpt>
      <trkpt lat="44.21326" lon="3.21753">
        <ele>643.1</ele>
        <time>2017-02-17T16:18:31Z</time>
      </trkpt>
      <trkpt lat="44.21323" lon="3.2176">
        <ele>642.9</ele>
        <time>2017-02-17T16:18:32Z</time>
      </trkpt>
      <trkpt lat="44.21318" lon="3.21764">
        <ele>642.6</ele>
        <time>2017-02-17T16:18:33Z</time>
      </trkpt>
      <trkpt lat="44.21313" lon="3.21768">
        <ele>642.4</ele>
        <time>2017-02-17T16:18:34Z</time>
      </trkpt>
      <trkpt lat="44.21308" lon="3.2177">
        <ele>642.1</ele>
        <time>2017-02-17T16:18:35Z</time>
      </trkpt>
      <trkpt lat="44.21305" lon="3.21772">
        <ele>641.9</ele>
        <time>2017-02-17T16:18:36Z</time>
      </trkpt>
      <trkpt lat="44.21302" lon="3.21774">
        <ele>641.8</ele>
        <time>2017-02-17T16:18:37Z</time>
      </trkpt>
      <trkpt lat="44.21299" lon="3.21777">
        <ele>641.5</ele>
        <time>2017-02-17T16:18:38Z</time>
      </trkpt>
      <trkpt lat="44.21296" lon="3.2178">
        <ele>641.3</ele>
        <time>2017-02-17T16:18:39Z</time>
      </trkpt>
      <trkpt lat="44.21293" lon="3.21783">
        <ele>641.1</ele>
        <time>2017-02-17T16:18:40Z</time>
      </trkpt>
      <trkpt lat="44.2129" lon="3.21785">
        <ele>640.8</ele>
        <time>2017-02-17T16:18:41Z</time>
      </trkpt>
      <trkpt lat="44.21288" lon="3.21788">
        <ele>640.5</ele>
        <time>2017-02-17T16:18:42Z</time>
      </trkpt>
      <trkpt lat="44.21285" lon="3.21791">
        <ele>640.2</ele>
        <time>2017-02-17T16:18:43Z</time>
      </trkpt>
      <trkpt lat="44.21281" lon="3.21794">
        <ele>639.7</ele>
        <time>2017-02-17T16:18:45Z</time>
      </trkpt>
      <trkpt lat="44.21278" lon="3.21795">
        <ele>639.5</ele>
        <time>2017-02-17T16:18:46Z</time>
      </trkpt>
      <trkpt lat="44.21275" lon="3.21797">
        <ele>639.3</ele>
        <time>2017-02-17T16:18:47Z</time>
      </trkpt>
      <trkpt lat="44.21272" lon="3.21798">
        <ele>639.1</ele>
        <time>2017-02-17T16:18:48Z</time>
      </trkpt>
      <trkpt lat="44.21269" lon="3.218">
        <ele>638.9</ele>
        <time>2017-02-17T16:18:49Z</time>
      </trkpt>
      <trkpt lat="44.21266" lon="3.21802">
        <ele>638.7</ele>
        <time>2017-02-17T16:18:50Z</time>
      </trkpt>
      <trkpt lat="44.21263" lon="3.21802">
        <ele>638.6</ele>
        <time>2017-02-17T16:18:51Z</time>
      </trkpt>
      <trkpt lat="44.21259" lon="3.21802">
        <ele>638.4</ele>
        <time>2017-02-17T16:18:53Z</time>
      </trkpt>
      <trkpt lat="44.21255" lon="3.21801">
        <ele>638.2</ele>
        <time>2017-02-17T16:18:55Z</time>
      </trkpt>
      <trkpt lat="44.21252" lon="3.21799">
        <ele>638.1</ele>
        <time>2017-02-17T16:18:56Z</time>
      </trkpt>
      <trkpt lat="44.21249" lon="3.21798">
        <ele>638</ele>
        <time>2017-02-17T16:18:57Z</time>
      </trkpt>
      <trkpt lat="44.21246" lon="3.21797">
        <ele>637.9</ele>
        <time>2017-02-17T16:18:58Z</time>
      </trkpt>
      <trkpt lat="44.21243" lon="3.21795">
        <ele>637.8</ele>
        <time>2017-02-17T16:18:59Z</time>
      </trkpt>
      <trkpt lat="44.21241" lon="3.21793">
        <ele>637.6</ele>
        <time>2017-02-17T16:19:00Z</time>
      </trkpt>
      <trkpt lat="44.21236" lon="3.21789">
        <ele>637.4</ele>
        <time>2017-02-17T16:19:02Z</time>
      </trkpt>
      <trkpt lat="44.21234" lon="3.21787">
        <ele>637.3</ele>
        <time>2017-02-17T16:19:03Z</time>
      </trkpt>
      <trkpt lat="44.2123" lon="3.21786">
        <ele>637.2</ele>
        <time>2017-02-17T16:19:05Z</time>
      </trkpt>
      <trkpt lat="44.21227" lon="3.21784">
        <ele>637</ele>
        <time>2017-02-17T16:19:06Z</time>
      </trkpt>
      <trkpt lat="44.21222" lon="3.21781">
        <ele>636.8</ele>
        <time>2017-02-17T16:19:08Z</time>
      </trkpt>
      <trkpt lat="44.21218" lon="3.21778">
        <ele>636</ele>
        <time>2017-02-17T16:19:09Z</time>
      </trkpt>
      <trkpt lat="44.21214" lon="3.21774">
        <ele>635.1</ele>
        <time>2017-02-17T16:19:10Z</time>
      </trkpt>
      <trkpt lat="44.21211" lon="3.21771">
        <ele>634.4</ele>
        <time>2017-02-17T16:19:11Z</time>
      </trkpt>
      <trkpt lat="44.21208" lon="3.21767">
        <ele>633.6</ele>
        <time>2017-02-17T16:19:12Z</time>
      </trkpt>
      <trkpt lat="44.21206" lon="3.21763">
        <ele>632.9</ele>
        <time>2017-02-17T16:19:13Z</time>
      </trkpt>
      <trkpt lat="44.21201" lon="3.21759">
        <ele>631.8</ele>
        <time>2017-02-17T16:19:15Z</time>
      </trkpt>
      <trkpt lat="44.21198" lon="3.21758">
        <ele>631.4</ele>
        <time>2017-02-17T16:19:17Z</time>
      </trkpt>
      <trkpt lat="44.21195" lon="3.21759">
        <ele>631.1</ele>
        <time>2017-02-17T16:19:19Z</time>
      </trkpt>
      <trkpt lat="44.2119" lon="3.21759">
        <ele>630.6</ele>
        <time>2017-02-17T16:19:21Z</time>
      </trkpt>
      <trkpt lat="44.21186" lon="3.21758">
        <ele>630.3</ele>
        <time>2017-02-17T16:19:22Z</time>
      </trkpt>
      <trkpt lat="44.21182" lon="3.21758">
        <ele>630</ele>
        <time>2017-02-17T16:19:23Z</time>
      </trkpt>
      <trkpt lat="44.21177" lon="3.21756">
        <ele>629.7</ele>
        <time>2017-02-17T16:19:24Z</time>
      </trkpt>
      <trkpt lat="44.21172" lon="3.21753">
        <ele>629.4</ele>
        <time>2017-02-17T16:19:25Z</time>
      </trkpt>
      <trkpt lat="44.21167" lon="3.21755">
        <ele>629</ele>
        <time>2017-02-17T16:19:26Z</time>
      </trkpt>
      <trkpt lat="44.21163" lon="3.21754">
        <ele>628.8</ele>
        <time>2017-02-17T16:19:27Z</time>
      </trkpt>
      <trkpt lat="44.21159" lon="3.21756">
        <ele>628.5</ele>
        <time>2017-02-17T16:19:28Z</time>
      </trkpt>
      <trkpt lat="44.21156" lon="3.2176">
        <ele>628</ele>
        <time>2017-02-17T16:19:30Z</time>
      </trkpt>
      <trkpt lat="44.21151" lon="3.2176">
        <ele>627.2</ele>
        <time>2017-02-17T16:19:32Z</time>
      </trkpt>
      <trkpt lat="44.21147" lon="3.21759">
        <ele>626.8</ele>
        <time>2017-02-17T16:19:33Z</time>
      </trkpt>
      <trkpt lat="44.21144" lon="3.21761">
        <ele>626.3</ele>
        <time>2017-02-17T16:19:34Z</time>
      </trkpt>
      <trkpt lat="44.21141" lon="3.21763">
        <ele>626</ele>
        <time>2017-02-17T16:19:41Z</time>
      </trkpt>
      <trkpt lat="44.21138" lon="3.21765">
        <ele>625.5</ele>
        <time>2017-02-17T16:19:54Z</time>
      </trkpt>
      <trkpt lat="44.21137" lon="3.21769">
        <ele>625.2</ele>
        <time>2017-02-17T16:20:10Z</time>
      </trkpt>
      <trkpt lat="44.21134" lon="3.21766">
        <ele>624.9</ele>
        <time>2017-02-17T16:20:23Z</time>
      </trkpt>
      <trkpt lat="44.21132" lon="3.21763">
        <ele>624.5</ele>
        <time>2017-02-17T16:20:32Z</time>
      </trkpt>
      <trkpt lat="44.21131" lon="3.21757">
        <ele>623.9</ele>
        <time>2017-02-17T16:20:34Z</time>
      </trkpt>
      <trkpt lat="44.2113" lon="3.21752">
        <ele>623.5</ele>
        <time>2017-02-17T16:20:35Z</time>
      </trkpt>
      <trkpt lat="44.21128" lon="3.21753">
        <ele>623.2</ele>
        <time>2017-02-17T16:20:40Z</time>
      </trkpt>
      <trkpt lat="44.21126" lon="3.21759">
        <ele>622.6</ele>
        <time>2017-02-17T16:20:43Z</time>
      </trkpt>
      <trkpt lat="44.21124" lon="3.21765">
        <ele>621.7</ele>
        <time>2017-02-17T16:20:45Z</time>
      </trkpt>
      <trkpt lat="44.21122" lon="3.21768">
        <ele>621.1</ele>
        <time>2017-02-17T16:20:46Z</time>
      </trkpt>
      <trkpt lat="44.21119" lon="3.2177">
        <ele>620.6</ele>
        <time>2017-02-17T16:20:47Z</time>
      </trkpt>
      <trkpt lat="44.21118" lon="3.21773">
        <ele>620.1</ele>
        <time>2017-02-17T16:20:57Z</time>
      </trkpt>
      <trkpt lat="44.21114" lon="3.21771">
        <ele>619.6</ele>
        <time>2017-02-17T16:21:02Z</time>
      </trkpt>
      <trkpt lat="44.21111" lon="3.21771">
        <ele>616</ele>
        <time>2017-02-17T16:21:03Z</time>
      </trkpt>
      <trkpt lat="44.21107" lon="3.21769">
        <ele>615.2</ele>
        <time>2017-02-17T16:21:05Z</time>
      </trkpt>
      <trkpt lat="44.21103" lon="3.21767">
        <ele>614.3</ele>
        <time>2017-02-17T16:21:07Z</time>
      </trkpt>
      <trkpt lat="44.21098" lon="3.21769">
        <ele>613.8</ele>
        <time>2017-02-17T16:21:10Z</time>
      </trkpt>
      <trkpt lat="44.21093" lon="3.21767">
        <ele>613</ele>
        <time>2017-02-17T16:21:12Z</time>
      </trkpt>
      <trkpt lat="44.21089" lon="3.21764">
        <ele>611.7</ele>
        <time>2017-02-17T16:21:13Z</time>
      </trkpt>
      <trkpt lat="44.21087" lon="3.2176">
        <ele>610.4</ele>
        <time>2017-02-17T16:21:14Z</time>
      </trkpt>
      <trkpt lat="44.21084" lon="3.21757">
        <ele>610.1</ele>
        <time>2017-02-17T16:21:15Z</time>
      </trkpt>
      <trkpt lat="44.21082" lon="3.21755">
        <ele>609.8</ele>
        <time>2017-02-17T16:21:18Z</time>
      </trkpt>
      <trkpt lat="44.21079" lon="3.21755">
        <ele>609.5</ele>
        <time>2017-02-17T16:21:21Z</time>
      </trkpt>
      <trkpt lat="44.21077" lon="3.2175">
        <ele>609.1</ele>
        <time>2017-02-17T16:21:25Z</time>
      </trkpt>
      <trkpt lat="44.21076" lon="3.21746">
        <ele>608.7</ele>
        <time>2017-02-17T16:21:28Z</time>
      </trkpt>
      <trkpt lat="44.21076" lon="3.21741">
        <ele>608.4</ele>
        <time>2017-02-17T16:21:29Z</time>
      </trkpt>
      <trkpt lat="44.21074" lon="3.21737">
        <ele>608</ele>
        <time>2017-02-17T16:21:37Z</time>
      </trkpt>
      <trkpt lat="44.21073" lon="3.21733">
        <ele>607.7</ele>
        <time>2017-02-17T16:21:39Z</time>
      </trkpt>
      <trkpt lat="44.21071" lon="3.21729">
        <ele>607.5</ele>
        <time>2017-02-17T16:21:42Z</time>
      </trkpt>
      <trkpt lat="44.21069" lon="3.21727">
        <ele>607.4</ele>
        <time>2017-02-17T16:21:58Z</time>
      </trkpt>
      <trkpt lat="44.21065" lon="3.21723">
        <ele>607.3</ele>
        <time>2017-02-17T16:22:01Z</time>
      </trkpt>
      <trkpt lat="44.21064" lon="3.21719">
        <ele>607.2</ele>
        <time>2017-02-17T16:22:02Z</time>
      </trkpt>
      <trkpt lat="44.21062" lon="3.21715">
        <ele>607</ele>
        <time>2017-02-17T16:22:04Z</time>
      </trkpt>
      <trkpt lat="44.21059" lon="3.21709">
        <ele>607.1</ele>
        <time>2017-02-17T16:22:06Z</time>
      </trkpt>
      <trkpt lat="44.21057" lon="3.21703">
        <ele>607.3</ele>
        <time>2017-02-17T16:22:08Z</time>
      </trkpt>
      <trkpt lat="44.21054" lon="3.21696">
        <ele>607.4</ele>
        <time>2017-02-17T16:22:10Z</time>
      </trkpt>
      <trkpt lat="44.21053" lon="3.21691">
        <ele>607.5</ele>
        <time>2017-02-17T16:22:11Z</time>
      </trkpt>
      <trkpt lat="44.21051" lon="3.21688">
        <ele>607.5</ele>
        <time>2017-02-17T16:22:12Z</time>
      </trkpt>
      <trkpt lat="44.21048" lon="3.21683">
        <ele>607.5</ele>
        <time>2017-02-17T16:22:14Z</time>
      </trkpt>
      <trkpt lat="44.21045" lon="3.2168">
        <ele>607.5</ele>
        <time>2017-02-17T16:22:16Z</time>
      </trkpt>
      <trkpt lat="44.21041" lon="3.2168">
        <ele>607.4</ele>
        <time>2017-02-17T16:22:24Z</time>
      </trkpt>
      <trkpt lat="44.2104" lon="3.21676">
        <ele>607.2</ele>
        <time>2017-02-17T16:22:28Z</time>
      </trkpt>
      <trkpt lat="44.21039" lon="3.21673">
        <ele>606.9</ele>
        <time>2017-02-17T16:22:35Z</time>
      </trkpt>
      <trkpt lat="44.21036" lon="3.21673">
        <ele>606.7</ele>
        <time>2017-02-17T16:22:40Z</time>
      </trkpt>
      <trkpt lat="44.21034" lon="3.21676">
        <ele>606.4</ele>
        <time>2017-02-17T16:22:57Z</time>
      </trkpt>
      <trkpt lat="44.21034" lon="3.21681">
        <ele>606</ele>
        <time>2017-02-17T16:23:03Z</time>
      </trkpt>
      <trkpt lat="44.21033" lon="3.21685">
        <ele>596.6</ele>
        <time>2017-02-17T16:23:09Z</time>
      </trkpt>
      <trkpt lat="44.2103" lon="3.21684">
        <ele>593.9</ele>
        <time>2017-02-17T16:23:15Z</time>
      </trkpt>
      <trkpt lat="44.21027" lon="3.21682">
        <ele>592.2</ele>
        <time>2017-02-17T16:23:20Z</time>
      </trkpt>
      <trkpt lat="44.21025" lon="3.21679">
        <ele>590.6</ele>
        <time>2017-02-17T16:23:24Z</time>
      </trkpt>
      <trkpt lat="44.21022" lon="3.21679">
        <ele>588.6</ele>
        <time>2017-02-17T16:23:48Z</time>
      </trkpt>
      <trkpt lat="44.21025" lon="3.2168">
        <ele>590.9</ele>
        <time>2017-02-17T16:24:08Z</time>
      </trkpt>
      <trkpt lat="44.21028" lon="3.21681">
        <ele>592.5</ele>
        <time>2017-02-17T16:24:15Z</time>
      </trkpt>
      <trkpt lat="44.21031" lon="3.21681">
        <ele>594.2</ele>
        <time>2017-02-17T16:24:20Z</time>
      </trkpt>
      <trkpt lat="44.21034" lon="3.21681">
        <ele>596.9</ele>
        <time>2017-02-17T16:24:24Z</time>
      </trkpt>
      <trkpt lat="44.21037" lon="3.21681">
        <ele>599.6</ele>
        <time>2017-02-17T16:24:29Z</time>
      </trkpt>
      <trkpt lat="44.2104" lon="3.21681">
        <ele>602.4</ele>
        <time>2017-02-17T16:24:35Z</time>
      </trkpt>
      <trkpt lat="44.21043" lon="3.21682">
        <ele>606.5</ele>
        <time>2017-02-17T16:24:39Z</time>
      </trkpt>
      <trkpt lat="44.21043" lon="3.21679">
        <ele>606.9</ele>
        <time>2017-02-17T16:25:00Z</time>
      </trkpt>
      <trkpt lat="44.21042" lon="3.21674">
        <ele>607.3</ele>
        <time>2017-02-17T16:25:04Z</time>
      </trkpt>
      <trkpt lat="44.21041" lon="3.21669">
        <ele>607.6</ele>
        <time>2017-02-17T16:25:07Z</time>
      </trkpt>
      <trkpt lat="44.2104" lon="3.21666">
        <ele>607.8</ele>
        <time>2017-02-17T16:25:10Z</time>
      </trkpt>
      <trkpt lat="44.21038" lon="3.21662">
        <ele>608</ele>
        <time>2017-02-17T16:25:13Z</time>
      </trkpt>
      <trkpt lat="44.21036" lon="3.21658">
        <ele>608.3</ele>
        <time>2017-02-17T16:25:17Z</time>
      </trkpt>
      <trkpt lat="44.21033" lon="3.21655">
        <ele>608.6</ele>
        <time>2017-02-17T16:25:26Z</time>
      </trkpt>
      <trkpt lat="44.21031" lon="3.21652">
        <ele>608.7</ele>
        <time>2017-02-17T16:25:30Z</time>
      </trkpt>
      <trkpt lat="44.21032" lon="3.21648">
        <ele>608.8</ele>
        <time>2017-02-17T16:25:34Z</time>
      </trkpt>
      <trkpt lat="44.21034" lon="3.21645">
        <ele>609.9</ele>
        <time>2017-02-17T16:25:37Z</time>
      </trkpt>
      <trkpt lat="44.21035" lon="3.2164">
        <ele>610.3</ele>
        <time>2017-02-17T16:25:40Z</time>
      </trkpt>
      <trkpt lat="44.21037" lon="3.21636">
        <ele>610.7</ele>
        <time>2017-02-17T16:26:06Z</time>
      </trkpt>
      <trkpt lat="44.21041" lon="3.21634">
        <ele>611.1</ele>
        <time>2017-02-17T16:26:09Z</time>
      </trkpt>
      <trkpt lat="44.21044" lon="3.2163">
        <ele>611.5</ele>
        <time>2017-02-17T16:26:11Z</time>
      </trkpt>
      <trkpt lat="44.21048" lon="3.21626">
        <ele>611.7</ele>
        <time>2017-02-17T16:26:13Z</time>
      </trkpt>
      <trkpt lat="44.21051" lon="3.21623">
        <ele>611.8</ele>
        <time>2017-02-17T16:26:15Z</time>
      </trkpt>
      <trkpt lat="44.21056" lon="3.21619">
        <ele>611.9</ele>
        <time>2017-02-17T16:26:17Z</time>
      </trkpt>
      <trkpt lat="44.21058" lon="3.21616">
        <ele>612</ele>
        <time>2017-02-17T16:26:18Z</time>
      </trkpt>
      <trkpt lat="44.2106" lon="3.21613">
        <ele>612.3</ele>
        <time>2017-02-17T16:26:19Z</time>
      </trkpt>
      <trkpt lat="44.21063" lon="3.21608">
        <ele>612.5</ele>
        <time>2017-02-17T16:26:21Z</time>
      </trkpt>
      <trkpt lat="44.21066" lon="3.21603">
        <ele>612.8</ele>
        <time>2017-02-17T16:26:23Z</time>
      </trkpt>
      <trkpt lat="44.21068" lon="3.21597">
        <ele>613.1</ele>
        <time>2017-02-17T16:26:25Z</time>
      </trkpt>
      <trkpt lat="44.21072" lon="3.21592">
        <ele>613.5</ele>
        <time>2017-02-17T16:26:27Z</time>
      </trkpt>
      <trkpt lat="44.21075" lon="3.21586">
        <ele>613.8</ele>
        <time>2017-02-17T16:26:29Z</time>
      </trkpt>
      <trkpt lat="44.21077" lon="3.21583">
        <ele>613.9</ele>
        <time>2017-02-17T16:26:30Z</time>
      </trkpt>
      <trkpt lat="44.21079" lon="3.21581">
        <ele>614</ele>
        <time>2017-02-17T16:26:31Z</time>
      </trkpt>
      <trkpt lat="44.21083" lon="3.21578">
        <ele>614.3</ele>
        <time>2017-02-17T16:26:33Z</time>
      </trkpt>
      <trkpt lat="44.21087" lon="3.21571">
        <ele>614.7</ele>
        <time>2017-02-17T16:26:35Z</time>
      </trkpt>
      <trkpt lat="44.21089" lon="3.21567">
        <ele>615</ele>
        <time>2017-02-17T16:26:37Z</time>
      </trkpt>
      <trkpt lat="44.21089" lon="3.21563">
        <ele>615</ele>
        <time>2017-02-17T16:26:39Z</time>
      </trkpt>
      <trkpt lat="44.21092" lon="3.21561">
        <ele>615</ele>
        <time>2017-02-17T16:26:41Z</time>
      </trkpt>
      <trkpt lat="44.21092" lon="3.21551">
        <ele>615</ele>
        <time>2017-02-17T16:27:32Z</time>
      </trkpt>
      <trkpt lat="44.21095" lon="3.21549">
        <ele>615</ele>
        <time>2017-02-17T16:27:38Z</time>
      </trkpt>
      <trkpt lat="44.21098" lon="3.21547">
        <ele>615</ele>
        <time>2017-02-17T16:27:42Z</time>
      </trkpt>
      <trkpt lat="44.21099" lon="3.21542">
        <ele>615</ele>
        <time>2017-02-17T16:27:49Z</time>
      </trkpt>
      <trkpt lat="44.21101" lon="3.21537">
        <ele>615.4</ele>
        <time>2017-02-17T16:27:54Z</time>
      </trkpt>
      <trkpt lat="44.21102" lon="3.21533">
        <ele>616</ele>
        <time>2017-02-17T16:27:59Z</time>
      </trkpt>
      <trkpt lat="44.21104" lon="3.21528">
        <ele>617.1</ele>
        <time>2017-02-17T16:28:05Z</time>
      </trkpt>
      <trkpt lat="44.21107" lon="3.21525">
        <ele>618.1</ele>
        <time>2017-02-17T16:28:07Z</time>
      </trkpt>
      <trkpt lat="44.21109" lon="3.21521">
        <ele>618.7</ele>
        <time>2017-02-17T16:28:09Z</time>
      </trkpt>
      <trkpt lat="44.21112" lon="3.21522">
        <ele>619</ele>
        <time>2017-02-17T16:28:11Z</time>
      </trkpt>
      <trkpt lat="44.2111" lon="3.21519">
        <ele>619.3</ele>
        <time>2017-02-17T16:28:27Z</time>
      </trkpt>
      <trkpt lat="44.21107" lon="3.2152">
        <ele>619.8</ele>
        <time>2017-02-17T16:28:33Z</time>
      </trkpt>
      <trkpt lat="44.21107" lon="3.21515">
        <ele>621</ele>
        <time>2017-02-17T16:28:38Z</time>
      </trkpt>
      <trkpt lat="44.21112" lon="3.21516">
        <ele>622.6</ele>
        <time>2017-02-17T16:28:42Z</time>
      </trkpt>
      <trkpt lat="44.21115" lon="3.21518">
        <ele>623.5</ele>
        <time>2017-02-17T16:28:43Z</time>
      </trkpt>
      <trkpt lat="44.21117" lon="3.21513">
        <ele>624.6</ele>
        <time>2017-02-17T16:28:47Z</time>
      </trkpt>
      <trkpt lat="44.21116" lon="3.21506">
        <ele>625.1</ele>
        <time>2017-02-17T16:28:50Z</time>
      </trkpt>
      <trkpt lat="44.21117" lon="3.21503">
        <ele>625.1</ele>
        <time>2017-02-17T16:28:52Z</time>
      </trkpt>
      <trkpt lat="44.21118" lon="3.21498">
        <ele>625.1</ele>
        <time>2017-02-17T16:28:55Z</time>
      </trkpt>
      <trkpt lat="44.21118" lon="3.21491">
        <ele>626.1</ele>
        <time>2017-02-17T16:29:06Z</time>
      </trkpt>
      <trkpt lat="44.21118" lon="3.21487">
        <ele>626.7</ele>
        <time>2017-02-17T16:29:12Z</time>
      </trkpt>
      <trkpt lat="44.21118" lon="3.21481">
        <ele>624.2</ele>
        <time>2017-02-17T16:29:17Z</time>
      </trkpt>
      <trkpt lat="44.21116" lon="3.21474">
        <ele>622.7</ele>
        <time>2017-02-17T16:29:19Z</time>
      </trkpt>
      <trkpt lat="44.21113" lon="3.21472">
        <ele>622.2</ele>
        <time>2017-02-17T16:29:20Z</time>
      </trkpt>
      <trkpt lat="44.21111" lon="3.21471">
        <ele>621.6</ele>
        <time>2017-02-17T16:29:21Z</time>
      </trkpt>
      <trkpt lat="44.21108" lon="3.21463">
        <ele>620.5</ele>
        <time>2017-02-17T16:29:23Z</time>
      </trkpt>
      <trkpt lat="44.21107" lon="3.21458">
        <ele>619.7</ele>
        <time>2017-02-17T16:29:24Z</time>
      </trkpt>
      <trkpt lat="44.21107" lon="3.21452">
        <ele>619.3</ele>
        <time>2017-02-17T16:29:25Z</time>
      </trkpt>
      <trkpt lat="44.21106" lon="3.21447">
        <ele>619.2</ele>
        <time>2017-02-17T16:29:26Z</time>
      </trkpt>
      <trkpt lat="44.21105" lon="3.21443">
        <ele>619.2</ele>
        <time>2017-02-17T16:29:27Z</time>
      </trkpt>
      <trkpt lat="44.21105" lon="3.21436">
        <ele>620.3</ele>
        <time>2017-02-17T16:29:29Z</time>
      </trkpt>
      <trkpt lat="44.21107" lon="3.2143">
        <ele>621.5</ele>
        <time>2017-02-17T16:29:31Z</time>
      </trkpt>
      <trkpt lat="44.21109" lon="3.21424">
        <ele>623.4</ele>
        <time>2017-02-17T16:29:33Z</time>
      </trkpt>
      <trkpt lat="44.2111" lon="3.21417">
        <ele>625.9</ele>
        <time>2017-02-17T16:29:35Z</time>
      </trkpt>
      <trkpt lat="44.21111" lon="3.21409">
        <ele>628.5</ele>
        <time>2017-02-17T16:29:37Z</time>
      </trkpt>
      <trkpt lat="44.21113" lon="3.21406">
        <ele>629.3</ele>
        <time>2017-02-17T16:29:38Z</time>
      </trkpt>
      <trkpt lat="44.21114" lon="3.21403">
        <ele>630</ele>
        <time>2017-02-17T16:29:39Z</time>
      </trkpt>
      <trkpt lat="44.21114" lon="3.21398">
        <ele>630.4</ele>
        <time>2017-02-17T16:29:40Z</time>
      </trkpt>
      <trkpt lat="44.21113" lon="3.21393">
        <ele>630.7</ele>
        <time>2017-02-17T16:29:41Z</time>
      </trkpt>
      <trkpt lat="44.21112" lon="3.21388">
        <ele>630.8</ele>
        <time>2017-02-17T16:29:42Z</time>
      </trkpt>
      <trkpt lat="44.21112" lon="3.21383">
        <ele>630.8</ele>
        <time>2017-02-17T16:29:43Z</time>
      </trkpt>
      <trkpt lat="44.2111" lon="3.21376">
        <ele>630.4</ele>
        <time>2017-02-17T16:29:45Z</time>
      </trkpt>
      <trkpt lat="44.21108" lon="3.21372">
        <ele>630.3</ele>
        <time>2017-02-17T16:29:46Z</time>
      </trkpt>
      <trkpt lat="44.21106" lon="3.21368">
        <ele>630.4</ele>
        <time>2017-02-17T16:29:47Z</time>
      </trkpt>
      <trkpt lat="44.21106" lon="3.21365">
        <ele>630.4</ele>
        <time>2017-02-17T16:29:48Z</time>
      </trkpt>
      <trkpt lat="44.21106" lon="3.21358">
        <ele>631.3</ele>
        <time>2017-02-17T16:29:49Z</time>
      </trkpt>
      <trkpt lat="44.21105" lon="3.21353">
        <ele>632</ele>
        <time>2017-02-17T16:29:50Z</time>
      </trkpt>
      <trkpt lat="44.21103" lon="3.21349">
        <ele>631.5</ele>
        <time>2017-02-17T16:29:51Z</time>
      </trkpt>
      <trkpt lat="44.21102" lon="3.21344">
        <ele>630.3</ele>
        <time>2017-02-17T16:29:52Z</time>
      </trkpt>
      <trkpt lat="44.21101" lon="3.2134">
        <ele>629.4</ele>
        <time>2017-02-17T16:29:53Z</time>
      </trkpt>
      <trkpt lat="44.21099" lon="3.21336">
        <ele>628.7</ele>
        <time>2017-02-17T16:29:54Z</time>
      </trkpt>
      <trkpt lat="44.21096" lon="3.21333">
        <ele>627.9</ele>
        <time>2017-02-17T16:29:55Z</time>
      </trkpt>
      <trkpt lat="44.21095" lon="3.21328">
        <ele>627.2</ele>
        <time>2017-02-17T16:29:56Z</time>
      </trkpt>
      <trkpt lat="44.21092" lon="3.21325">
        <ele>626.5</ele>
        <time>2017-02-17T16:29:58Z</time>
      </trkpt>
      <trkpt lat="44.21088" lon="3.21323">
        <ele>625.4</ele>
        <time>2017-02-17T16:30:00Z</time>
      </trkpt>
      <trkpt lat="44.21084" lon="3.21322">
        <ele>624.3</ele>
        <time>2017-02-17T16:30:01Z</time>
      </trkpt>
      <trkpt lat="44.21079" lon="3.21322">
        <ele>623.4</ele>
        <time>2017-02-17T16:30:02Z</time>
      </trkpt>
      <trkpt lat="44.21073" lon="3.21321">
        <ele>623</ele>
        <time>2017-02-17T16:30:03Z</time>
      </trkpt>
      <trkpt lat="44.21069" lon="3.21319">
        <ele>623.2</ele>
        <time>2017-02-17T16:30:04Z</time>
      </trkpt>
      <trkpt lat="44.21067" lon="3.21318">
        <ele>623.3</ele>
        <time>2017-02-17T16:30:05Z</time>
      </trkpt>
      <trkpt lat="44.21062" lon="3.21318">
        <ele>623</ele>
        <time>2017-02-17T16:30:06Z</time>
      </trkpt>
      <trkpt lat="44.21057" lon="3.21319">
        <ele>622.9</ele>
        <time>2017-02-17T16:30:07Z</time>
      </trkpt>
      <trkpt lat="44.21053" lon="3.2132">
        <ele>623</ele>
        <time>2017-02-17T16:30:08Z</time>
      </trkpt>
      <trkpt lat="44.21048" lon="3.21316">
        <ele>622.1</ele>
        <time>2017-02-17T16:30:09Z</time>
      </trkpt>
      <trkpt lat="44.21045" lon="3.21315">
        <ele>621.5</ele>
        <time>2017-02-17T16:30:10Z</time>
      </trkpt>
      <trkpt lat="44.2104" lon="3.21315">
        <ele>620</ele>
        <time>2017-02-17T16:30:11Z</time>
      </trkpt>
      <trkpt lat="44.21035" lon="3.21314">
        <ele>618.2</ele>
        <time>2017-02-17T16:30:12Z</time>
      </trkpt>
      <trkpt lat="44.21031" lon="3.21313">
        <ele>616.7</ele>
        <time>2017-02-17T16:30:13Z</time>
      </trkpt>
      <trkpt lat="44.21026" lon="3.21312">
        <ele>615.4</ele>
        <time>2017-02-17T16:30:14Z</time>
      </trkpt>
      <trkpt lat="44.21021" lon="3.21311">
        <ele>614.4</ele>
        <time>2017-02-17T16:30:15Z</time>
      </trkpt>
      <trkpt lat="44.21016" lon="3.2131">
        <ele>612.9</ele>
        <time>2017-02-17T16:30:16Z</time>
      </trkpt>
      <trkpt lat="44.21012" lon="3.2131">
        <ele>611.8</ele>
        <time>2017-02-17T16:30:17Z</time>
      </trkpt>
      <trkpt lat="44.2101" lon="3.21307">
        <ele>611.5</ele>
        <time>2017-02-17T16:30:18Z</time>
      </trkpt>
      <trkpt lat="44.21004" lon="3.21303">
        <ele>611.1</ele>
        <time>2017-02-17T16:30:20Z</time>
      </trkpt>
      <trkpt lat="44.21" lon="3.21301">
        <ele>610.4</ele>
        <time>2017-02-17T16:30:21Z</time>
      </trkpt>
      <trkpt lat="44.20997" lon="3.21299">
        <ele>610</ele>
        <time>2017-02-17T16:30:22Z</time>
      </trkpt>
      <trkpt lat="44.20993" lon="3.21298">
        <ele>609.9</ele>
        <time>2017-02-17T16:30:23Z</time>
      </trkpt>
      <trkpt lat="44.20988" lon="3.21296">
        <ele>609.7</ele>
        <time>2017-02-17T16:30:24Z</time>
      </trkpt>
      <trkpt lat="44.20984" lon="3.21295">
        <ele>609.1</ele>
        <time>2017-02-17T16:30:25Z</time>
      </trkpt>
      <trkpt lat="44.2098" lon="3.21294">
        <ele>608.9</ele>
        <time>2017-02-17T16:30:26Z</time>
      </trkpt>
      <trkpt lat="44.20975" lon="3.21292">
        <ele>609.2</ele>
        <time>2017-02-17T16:30:27Z</time>
      </trkpt>
      <trkpt lat="44.20971" lon="3.21289">
        <ele>609.5</ele>
        <time>2017-02-17T16:30:28Z</time>
      </trkpt>
      <trkpt lat="44.20968" lon="3.21286">
        <ele>609.7</ele>
        <time>2017-02-17T16:30:29Z</time>
      </trkpt>
      <trkpt lat="44.20965" lon="3.21284">
        <ele>610.2</ele>
        <time>2017-02-17T16:30:30Z</time>
      </trkpt>
      <trkpt lat="44.20961" lon="3.21278">
        <ele>611.4</ele>
        <time>2017-02-17T16:30:32Z</time>
      </trkpt>
      <trkpt lat="44.20957" lon="3.21276">
        <ele>612.4</ele>
        <time>2017-02-17T16:30:33Z</time>
      </trkpt>
      <trkpt lat="44.20954" lon="3.21272">
        <ele>613.3</ele>
        <time>2017-02-17T16:30:34Z</time>
      </trkpt>
      <trkpt lat="44.20951" lon="3.21268">
        <ele>615.5</ele>
        <time>2017-02-17T16:30:36Z</time>
      </trkpt>
      <trkpt lat="44.20949" lon="3.21266">
        <ele>617.2</ele>
        <time>2017-02-17T16:30:39Z</time>
      </trkpt>
      <trkpt lat="44.20946" lon="3.21264">
        <ele>618.3</ele>
        <time>2017-02-17T16:30:41Z</time>
      </trkpt>
      <trkpt lat="44.20943" lon="3.21261">
        <ele>618.8</ele>
        <time>2017-02-17T16:30:43Z</time>
      </trkpt>
      <trkpt lat="44.2094" lon="3.21258">
        <ele>618.8</ele>
        <time>2017-02-17T16:30:45Z</time>
      </trkpt>
      <trkpt lat="44.20937" lon="3.21256">
        <ele>618.4</ele>
        <time>2017-02-17T16:30:47Z</time>
      </trkpt>
      <trkpt lat="44.20932" lon="3.21254">
        <ele>618.3</ele>
        <time>2017-02-17T16:30:51Z</time>
      </trkpt>
      <trkpt lat="44.20929" lon="3.21254">
        <ele>618.7</ele>
        <time>2017-02-17T16:30:52Z</time>
      </trkpt>
      <trkpt lat="44.20923" lon="3.21254">
        <ele>618.5</ele>
        <time>2017-02-17T16:30:54Z</time>
      </trkpt>
      <trkpt lat="44.20918" lon="3.21253">
        <ele>617.7</ele>
        <time>2017-02-17T16:30:56Z</time>
      </trkpt>
      <trkpt lat="44.20912" lon="3.21255">
        <ele>616.2</ele>
        <time>2017-02-17T16:30:58Z</time>
      </trkpt>
      <trkpt lat="44.20908" lon="3.21254">
        <ele>615.2</ele>
        <time>2017-02-17T16:30:59Z</time>
      </trkpt>
      <trkpt lat="44.20904" lon="3.21254">
        <ele>614</ele>
        <time>2017-02-17T16:31:00Z</time>
      </trkpt>
      <trkpt lat="44.20901" lon="3.21255">
        <ele>612.9</ele>
        <time>2017-02-17T16:31:01Z</time>
      </trkpt>
      <trkpt lat="44.20898" lon="3.21256">
        <ele>612.2</ele>
        <time>2017-02-17T16:31:02Z</time>
      </trkpt>
      <trkpt lat="44.20894" lon="3.21257">
        <ele>611.5</ele>
        <time>2017-02-17T16:31:03Z</time>
      </trkpt>
      <trkpt lat="44.20889" lon="3.21258">
        <ele>610</ele>
        <time>2017-02-17T16:31:04Z</time>
      </trkpt>
      <trkpt lat="44.20885" lon="3.2126">
        <ele>608</ele>
        <time>2017-02-17T16:31:05Z</time>
      </trkpt>
      <trkpt lat="44.2088" lon="3.21259">
        <ele>606.3</ele>
        <time>2017-02-17T16:31:06Z</time>
      </trkpt>
      <trkpt lat="44.20875" lon="3.21259">
        <ele>604.3</ele>
        <time>2017-02-17T16:31:07Z</time>
      </trkpt>
      <trkpt lat="44.2087" lon="3.21259">
        <ele>601.4</ele>
        <time>2017-02-17T16:31:08Z</time>
      </trkpt>
      <trkpt lat="44.20865" lon="3.21258">
        <ele>599.6</ele>
        <time>2017-02-17T16:31:09Z</time>
      </trkpt>
      <trkpt lat="44.20861" lon="3.21257">
        <ele>599.7</ele>
        <time>2017-02-17T16:31:10Z</time>
      </trkpt>
      <trkpt lat="44.20858" lon="3.21254">
        <ele>600.6</ele>
        <time>2017-02-17T16:31:11Z</time>
      </trkpt>
      <trkpt lat="44.20855" lon="3.21249">
        <ele>600.8</ele>
        <time>2017-02-17T16:31:12Z</time>
      </trkpt>
      <trkpt lat="44.20855" lon="3.21243">
        <ele>600.6</ele>
        <time>2017-02-17T16:31:13Z</time>
      </trkpt>
      <trkpt lat="44.20854" lon="3.21234">
        <ele>599.7</ele>
        <time>2017-02-17T16:31:14Z</time>
      </trkpt>
      <trkpt lat="44.20854" lon="3.21229">
        <ele>599.3</ele>
        <time>2017-02-17T16:31:15Z</time>
      </trkpt>
      <trkpt lat="44.20852" lon="3.21222">
        <ele>599.3</ele>
        <time>2017-02-17T16:31:17Z</time>
      </trkpt>
      <trkpt lat="44.20852" lon="3.21218">
        <ele>600.3</ele>
        <time>2017-02-17T16:31:18Z</time>
      </trkpt>
      <trkpt lat="44.20851" lon="3.21211">
        <ele>601.4</ele>
        <time>2017-02-17T16:31:19Z</time>
      </trkpt>
      <trkpt lat="44.2085" lon="3.21206">
        <ele>601.6</ele>
        <time>2017-02-17T16:31:20Z</time>
      </trkpt>
      <trkpt lat="44.2085" lon="3.21199">
        <ele>601.9</ele>
        <time>2017-02-17T16:31:22Z</time>
      </trkpt>
      <trkpt lat="44.2085" lon="3.21195">
        <ele>602.5</ele>
        <time>2017-02-17T16:31:23Z</time>
      </trkpt>
      <trkpt lat="44.20851" lon="3.21191">
        <ele>603</ele>
        <time>2017-02-17T16:31:24Z</time>
      </trkpt>
      <trkpt lat="44.2085" lon="3.21188">
        <ele>603.4</ele>
        <time>2017-02-17T16:31:25Z</time>
      </trkpt>
      <trkpt lat="44.2085" lon="3.21181">
        <ele>603.1</ele>
        <time>2017-02-17T16:31:27Z</time>
      </trkpt>
      <trkpt lat="44.20851" lon="3.21177">
        <ele>602.9</ele>
        <time>2017-02-17T16:31:28Z</time>
      </trkpt>
      <trkpt lat="44.20851" lon="3.21173">
        <ele>602.5</ele>
        <time>2017-02-17T16:31:29Z</time>
      </trkpt>
      <trkpt lat="44.20851" lon="3.21169">
        <ele>602.1</ele>
        <time>2017-02-17T16:31:30Z</time>
      </trkpt>
      <trkpt lat="44.20852" lon="3.21162">
        <ele>601.7</ele>
        <time>2017-02-17T16:31:32Z</time>
      </trkpt>
      <trkpt lat="44.20852" lon="3.21154">
        <ele>601.7</ele>
        <time>2017-02-17T16:31:34Z</time>
      </trkpt>
      <trkpt lat="44.20853" lon="3.21146">
        <ele>601.1</ele>
        <time>2017-02-17T16:31:35Z</time>
      </trkpt>
      <trkpt lat="44.20853" lon="3.21138">
        <ele>600.9</ele>
        <time>2017-02-17T16:31:36Z</time>
      </trkpt>
      <trkpt lat="44.20853" lon="3.21125">
        <ele>602.1</ele>
        <time>2017-02-17T16:31:37Z</time>
      </trkpt>
      <trkpt lat="44.20854" lon="3.21114">
        <ele>603</ele>
        <time>2017-02-17T16:31:38Z</time>
      </trkpt>
      <trkpt lat="44.20855" lon="3.21106">
        <ele>604</ele>
        <time>2017-02-17T16:31:39Z</time>
      </trkpt>
      <trkpt lat="44.20855" lon="3.21098">
        <ele>605.7</ele>
        <time>2017-02-17T16:31:40Z</time>
      </trkpt>
      <trkpt lat="44.20856" lon="3.21092">
        <ele>605</ele>
        <time>2017-02-17T16:31:41Z</time>
      </trkpt>
      <trkpt lat="44.20855" lon="3.21088">
        <ele>604.4</ele>
        <time>2017-02-17T16:31:42Z</time>
      </trkpt>
      <trkpt lat="44.20853" lon="3.21084">
        <ele>604.3</ele>
        <time>2017-02-17T16:31:43Z</time>
      </trkpt>
      <trkpt lat="44.20851" lon="3.2108">
        <ele>604.3</ele>
        <time>2017-02-17T16:31:46Z</time>
      </trkpt>
      <trkpt lat="44.20848" lon="3.21078">
        <ele>604.3</ele>
        <time>2017-02-17T16:31:48Z</time>
      </trkpt>
      <trkpt lat="44.20844" lon="3.21076">
        <ele>603.9</ele>
        <time>2017-02-17T16:31:50Z</time>
      </trkpt>
      <trkpt lat="44.2084" lon="3.21071">
        <ele>603.5</ele>
        <time>2017-02-17T16:31:52Z</time>
      </trkpt>
      <trkpt lat="44.20838" lon="3.21068">
        <ele>603.3</ele>
        <time>2017-02-17T16:31:53Z</time>
      </trkpt>
      <trkpt lat="44.20836" lon="3.21065">
        <ele>603.3</ele>
        <time>2017-02-17T16:31:54Z</time>
      </trkpt>
      <trkpt lat="44.20834" lon="3.21062">
        <ele>603.4</ele>
        <time>2017-02-17T16:31:55Z</time>
      </trkpt>
      <trkpt lat="44.20831" lon="3.21058">
        <ele>603.7</ele>
        <time>2017-02-17T16:31:57Z</time>
      </trkpt>
      <trkpt lat="44.20826" lon="3.21055">
        <ele>603.7</ele>
        <time>2017-02-17T16:31:59Z</time>
      </trkpt>
      <trkpt lat="44.20821" lon="3.21053">
        <ele>603.4</ele>
        <time>2017-02-17T16:32:01Z</time>
      </trkpt>
      <trkpt lat="44.20817" lon="3.21052">
        <ele>602.3</ele>
        <time>2017-02-17T16:32:03Z</time>
      </trkpt>
      <trkpt lat="44.20814" lon="3.21052">
        <ele>601.8</ele>
        <time>2017-02-17T16:32:04Z</time>
      </trkpt>
      <trkpt lat="44.2081" lon="3.21051">
        <ele>602.1</ele>
        <time>2017-02-17T16:32:05Z</time>
      </trkpt>
      <trkpt lat="44.20807" lon="3.2105">
        <ele>602.5</ele>
        <time>2017-02-17T16:32:06Z</time>
      </trkpt>
      <trkpt lat="44.20804" lon="3.21048">
        <ele>603.3</ele>
        <time>2017-02-17T16:32:07Z</time>
      </trkpt>
      <trkpt lat="44.20801" lon="3.21045">
        <ele>604.2</ele>
        <time>2017-02-17T16:32:08Z</time>
      </trkpt>
      <trkpt lat="44.20798" lon="3.21044">
        <ele>605</ele>
        <time>2017-02-17T16:32:09Z</time>
      </trkpt>
      <trkpt lat="44.20794" lon="3.2104">
        <ele>604.6</ele>
        <time>2017-02-17T16:32:10Z</time>
      </trkpt>
      <trkpt lat="44.20791" lon="3.21037">
        <ele>604.5</ele>
        <time>2017-02-17T16:32:11Z</time>
      </trkpt>
      <trkpt lat="44.20788" lon="3.21035">
        <ele>604.9</ele>
        <time>2017-02-17T16:32:12Z</time>
      </trkpt>
      <trkpt lat="44.20784" lon="3.21032">
        <ele>604.9</ele>
        <time>2017-02-17T16:32:13Z</time>
      </trkpt>
      <trkpt lat="44.20779" lon="3.21029">
        <ele>604.2</ele>
        <time>2017-02-17T16:32:14Z</time>
      </trkpt>
      <trkpt lat="44.20774" lon="3.21025">
        <ele>603.8</ele>
        <time>2017-02-17T16:32:15Z</time>
      </trkpt>
      <trkpt lat="44.2077" lon="3.2102">
        <ele>603.3</ele>
        <time>2017-02-17T16:32:16Z</time>
      </trkpt>
      <trkpt lat="44.20766" lon="3.21015">
        <ele>602.3</ele>
        <time>2017-02-17T16:32:17Z</time>
      </trkpt>
      <trkpt lat="44.20761" lon="3.21011">
        <ele>602.1</ele>
        <time>2017-02-17T16:32:18Z</time>
      </trkpt>
      <trkpt lat="44.20757" lon="3.21008">
        <ele>601.1</ele>
        <time>2017-02-17T16:32:19Z</time>
      </trkpt>
      <trkpt lat="44.20752" lon="3.21009">
        <ele>599.3</ele>
        <time>2017-02-17T16:32:20Z</time>
      </trkpt>
      <trkpt lat="44.20747" lon="3.21012">
        <ele>597.1</ele>
        <time>2017-02-17T16:32:21Z</time>
      </trkpt>
      <trkpt lat="44.20745" lon="3.21015">
        <ele>595.4</ele>
        <time>2017-02-17T16:32:22Z</time>
      </trkpt>
      <trkpt lat="44.2074" lon="3.2102">
        <ele>593.2</ele>
        <time>2017-02-17T16:32:24Z</time>
      </trkpt>
      <trkpt lat="44.20736" lon="3.21024">
        <ele>592.1</ele>
        <time>2017-02-17T16:32:25Z</time>
      </trkpt>
      <trkpt lat="44.20734" lon="3.21026">
        <ele>591.3</ele>
        <time>2017-02-17T16:32:26Z</time>
      </trkpt>
      <trkpt lat="44.20729" lon="3.21032">
        <ele>589.5</ele>
        <time>2017-02-17T16:32:28Z</time>
      </trkpt>
      <trkpt lat="44.20685" lon="3.21103">
        <ele>569.8</ele>
        <time>2017-02-17T16:32:40Z</time>
      </trkpt>
      <trkpt lat="44.20642" lon="3.21141">
        <ele>567.8</ele>
        <time>2017-02-17T16:32:46Z</time>
      </trkpt>
      <trkpt lat="44.20634" lon="3.21129">
        <ele>580.7</ele>
        <time>2017-02-17T16:32:48Z</time>
      </trkpt>
      <trkpt lat="44.20636" lon="3.21124">
        <ele>582.8</ele>
        <time>2017-02-17T16:32:49Z</time>
      </trkpt>
      <trkpt lat="44.20633" lon="3.21115">
        <ele>590.7</ele>
        <time>2017-02-17T16:32:50Z</time>
      </trkpt>
      <trkpt lat="44.20634" lon="3.2111">
        <ele>594.3</ele>
        <time>2017-02-17T16:32:51Z</time>
      </trkpt>
      <trkpt lat="44.20629" lon="3.21113">
        <ele>592.8</ele>
        <time>2017-02-17T16:32:52Z</time>
      </trkpt>
      <trkpt lat="44.20626" lon="3.21107">
        <ele>591.5</ele>
        <time>2017-02-17T16:32:54Z</time>
      </trkpt>
      <trkpt lat="44.20627" lon="3.21112">
        <ele>591.1</ele>
        <time>2017-02-17T16:32:55Z</time>
      </trkpt>
      <trkpt lat="44.20622" lon="3.21112">
        <ele>590.8</ele>
        <time>2017-02-17T16:32:56Z</time>
      </trkpt>
      <trkpt lat="44.20622" lon="3.21118">
        <ele>590.5</ele>
        <time>2017-02-17T16:32:57Z</time>
      </trkpt>
      <trkpt lat="44.20503" lon="3.21212">
        <ele>589.4</ele>
        <time>2017-02-17T16:33:23Z</time>
      </trkpt>
      <trkpt lat="44.20511" lon="3.2122">
        <ele>581.7</ele>
        <time>2017-02-17T16:33:24Z</time>
      </trkpt>
      <trkpt lat="44.20503" lon="3.21222">
        <ele>579.7</ele>
        <time>2017-02-17T16:33:25Z</time>
      </trkpt>
      <trkpt lat="44.20506" lon="3.21236">
        <ele>576.9</ele>
        <time>2017-02-17T16:33:26Z</time>
      </trkpt>
      <trkpt lat="44.20504" lon="3.21233">
        <ele>576.2</ele>
        <time>2017-02-17T16:33:27Z</time>
      </trkpt>
      <trkpt lat="44.20496" lon="3.21232">
        <ele>574.3</ele>
        <time>2017-02-17T16:33:28Z</time>
      </trkpt>
      <trkpt lat="44.20502" lon="3.21246">
        <ele>573.2</ele>
        <time>2017-02-17T16:33:29Z</time>
      </trkpt>
      <trkpt lat="44.20495" lon="3.21245">
        <ele>572.6</ele>
        <time>2017-02-17T16:33:30Z</time>
      </trkpt>
      <trkpt lat="44.20492" lon="3.21268">
        <ele>570.2</ele>
        <time>2017-02-17T16:33:35Z</time>
      </trkpt>
      <trkpt lat="44.20488" lon="3.21267">
        <ele>570.3</ele>
        <time>2017-02-17T16:33:36Z</time>
      </trkpt>
      <trkpt lat="44.20482" lon="3.21267">
        <ele>570.4</ele>
        <time>2017-02-17T16:33:37Z</time>
      </trkpt>
      <trkpt lat="44.20477" lon="3.21268">
        <ele>572</ele>
        <time>2017-02-17T16:33:38Z</time>
      </trkpt>
      <trkpt lat="44.20473" lon="3.21269">
        <ele>572.4</ele>
        <time>2017-02-17T16:33:39Z</time>
      </trkpt>
      <trkpt lat="44.20468" lon="3.21272">
        <ele>571.9</ele>
        <time>2017-02-17T16:33:40Z</time>
      </trkpt>
      <trkpt lat="44.20465" lon="3.21273">
        <ele>571.3</ele>
        <time>2017-02-17T16:33:41Z</time>
      </trkpt>
      <trkpt lat="44.2046" lon="3.21276">
        <ele>570.2</ele>
        <time>2017-02-17T16:33:42Z</time>
      </trkpt>
      <trkpt lat="44.20456" lon="3.21275">
        <ele>570.1</ele>
        <time>2017-02-17T16:33:43Z</time>
      </trkpt>
      <trkpt lat="44.20448" lon="3.21272">
        <ele>570</ele>
        <time>2017-02-17T16:33:44Z</time>
      </trkpt>
      <trkpt lat="44.2044" lon="3.21267">
        <ele>569.4</ele>
        <time>2017-02-17T16:33:45Z</time>
      </trkpt>
      <trkpt lat="44.20433" lon="3.21263">
        <ele>567.7</ele>
        <time>2017-02-17T16:33:46Z</time>
      </trkpt>
      <trkpt lat="44.20426" lon="3.21262">
        <ele>567.8</ele>
        <time>2017-02-17T16:33:47Z</time>
      </trkpt>
      <trkpt lat="44.20422" lon="3.21261">
        <ele>567.7</ele>
        <time>2017-02-17T16:33:48Z</time>
      </trkpt>
      <trkpt lat="44.20418" lon="3.21258">
        <ele>567.5</ele>
        <time>2017-02-17T16:33:49Z</time>
      </trkpt>
      <trkpt lat="44.20413" lon="3.21255">
        <ele>566.7</ele>
        <time>2017-02-17T16:33:50Z</time>
      </trkpt>
      <trkpt lat="44.20407" lon="3.21251">
        <ele>566.2</ele>
        <time>2017-02-17T16:33:51Z</time>
      </trkpt>
      <trkpt lat="44.20403" lon="3.21247">
        <ele>566.2</ele>
        <time>2017-02-17T16:33:52Z</time>
      </trkpt>
      <trkpt lat="44.20398" lon="3.21245">
        <ele>566.4</ele>
        <time>2017-02-17T16:33:53Z</time>
      </trkpt>
      <trkpt lat="44.20395" lon="3.21241">
        <ele>566.7</ele>
        <time>2017-02-17T16:33:54Z</time>
      </trkpt>
      <trkpt lat="44.20392" lon="3.2124">
        <ele>566.1</ele>
        <time>2017-02-17T16:33:55Z</time>
      </trkpt>
      <trkpt lat="44.20388" lon="3.21238">
        <ele>565</ele>
        <time>2017-02-17T16:33:56Z</time>
      </trkpt>
      <trkpt lat="44.20384" lon="3.21236">
        <ele>564.1</ele>
        <time>2017-02-17T16:33:57Z</time>
      </trkpt>
      <trkpt lat="44.2038" lon="3.21234">
        <ele>563.4</ele>
        <time>2017-02-17T16:33:58Z</time>
      </trkpt>
      <trkpt lat="44.20379" lon="3.2123">
        <ele>562.9</ele>
        <time>2017-02-17T16:33:59Z</time>
      </trkpt>
      <trkpt lat="44.20376" lon="3.21225">
        <ele>562.9</ele>
        <time>2017-02-17T16:34:01Z</time>
      </trkpt>
      <trkpt lat="44.20373" lon="3.21226">
        <ele>563</ele>
        <time>2017-02-17T16:34:02Z</time>
      </trkpt>
      <trkpt lat="44.20368" lon="3.21227">
        <ele>562</ele>
        <time>2017-02-17T16:34:03Z</time>
      </trkpt>
      <trkpt lat="44.20363" lon="3.21227">
        <ele>560.9</ele>
        <time>2017-02-17T16:34:04Z</time>
      </trkpt>
      <trkpt lat="44.20356" lon="3.21224">
        <ele>560.2</ele>
        <time>2017-02-17T16:34:05Z</time>
      </trkpt>
      <trkpt lat="44.20343" lon="3.21217">
        <ele>555.6</ele>
        <time>2017-02-17T16:34:07Z</time>
      </trkpt>
      <trkpt lat="44.20338" lon="3.21214">
        <ele>555.3</ele>
        <time>2017-02-17T16:34:08Z</time>
      </trkpt>
      <trkpt lat="44.20332" lon="3.21211">
        <ele>554.1</ele>
        <time>2017-02-17T16:34:09Z</time>
      </trkpt>
      <trkpt lat="44.20329" lon="3.21208">
        <ele>553.9</ele>
        <time>2017-02-17T16:34:10Z</time>
      </trkpt>
      <trkpt lat="44.20319" lon="3.21206">
        <ele>554.9</ele>
        <time>2017-02-17T16:34:11Z</time>
      </trkpt>
      <trkpt lat="44.20299" lon="3.212">
        <ele>554.4</ele>
        <time>2017-02-17T16:34:14Z</time>
      </trkpt>
      <trkpt lat="44.20267" lon="3.2117">
        <ele>558.5</ele>
        <time>2017-02-17T16:34:20Z</time>
      </trkpt>
      <trkpt lat="44.20268" lon="3.21159">
        <ele>561</ele>
        <time>2017-02-17T16:34:21Z</time>
      </trkpt>
      <trkpt lat="44.20269" lon="3.21151">
        <ele>563.1</ele>
        <time>2017-02-17T16:34:22Z</time>
      </trkpt>
      <trkpt lat="44.20269" lon="3.21143">
        <ele>564.9</ele>
        <time>2017-02-17T16:34:23Z</time>
      </trkpt>
      <trkpt lat="44.2027" lon="3.21137">
        <ele>565.7</ele>
        <time>2017-02-17T16:34:24Z</time>
      </trkpt>
      <trkpt lat="44.20272" lon="3.21129">
        <ele>566.7</ele>
        <time>2017-02-17T16:34:25Z</time>
      </trkpt>
      <trkpt lat="44.20274" lon="3.21125">
        <ele>567.7</ele>
        <time>2017-02-17T16:34:26Z</time>
      </trkpt>
      <trkpt lat="44.20276" lon="3.21122">
        <ele>568.6</ele>
        <time>2017-02-17T16:34:27Z</time>
      </trkpt>
      <trkpt lat="44.20278" lon="3.21119">
        <ele>569.4</ele>
        <time>2017-02-17T16:34:28Z</time>
      </trkpt>
      <trkpt lat="44.20282" lon="3.21112">
        <ele>570.7</ele>
        <time>2017-02-17T16:34:29Z</time>
      </trkpt>
      <trkpt lat="44.20284" lon="3.21109">
        <ele>570.9</ele>
        <time>2017-02-17T16:34:32Z</time>
      </trkpt>
      <trkpt lat="44.20286" lon="3.2111">
        <ele>571.1</ele>
        <time>2017-02-17T16:34:38Z</time>
      </trkpt>
      <trkpt lat="44.20285" lon="3.21116">
        <ele>572.1</ele>
        <time>2017-02-17T16:34:54Z</time>
      </trkpt>
      <trkpt lat="44.20281" lon="3.21109">
        <ele>572.7</ele>
        <time>2017-02-17T16:35:06Z</time>
      </trkpt>
      <trkpt lat="44.20281" lon="3.21104">
        <ele>571.5</ele>
        <time>2017-02-17T16:35:07Z</time>
      </trkpt>
      <trkpt lat="44.20283" lon="3.21097">
        <ele>570.4</ele>
        <time>2017-02-17T16:35:08Z</time>
      </trkpt>
      <trkpt lat="44.20285" lon="3.2109">
        <ele>569.8</ele>
        <time>2017-02-17T16:35:10Z</time>
      </trkpt>
      <trkpt lat="44.20285" lon="3.21085">
        <ele>569.4</ele>
        <time>2017-02-17T16:35:11Z</time>
      </trkpt>
      <trkpt lat="44.20286" lon="3.21078">
        <ele>568.8</ele>
        <time>2017-02-17T16:35:13Z</time>
      </trkpt>
      <trkpt lat="44.20285" lon="3.21074">
        <ele>568.6</ele>
        <time>2017-02-17T16:35:14Z</time>
      </trkpt>
      <trkpt lat="44.20283" lon="3.21071">
        <ele>568.5</ele>
        <time>2017-02-17T16:35:15Z</time>
      </trkpt>
      <trkpt lat="44.20281" lon="3.2107">
        <ele>568.4</ele>
        <time>2017-02-17T16:35:16Z</time>
      </trkpt>
      <trkpt lat="44.20276" lon="3.21066">
        <ele>568.4</ele>
        <time>2017-02-17T16:35:18Z</time>
      </trkpt>
      <trkpt lat="44.20273" lon="3.21063">
        <ele>568.5</ele>
        <time>2017-02-17T16:35:19Z</time>
      </trkpt>
      <trkpt lat="44.20268" lon="3.21059">
        <ele>569</ele>
        <time>2017-02-17T16:35:21Z</time>
      </trkpt>
      <trkpt lat="44.20265" lon="3.21057">
        <ele>569.4</ele>
        <time>2017-02-17T16:35:23Z</time>
      </trkpt>
      <trkpt lat="44.20261" lon="3.21055">
        <ele>569.2</ele>
        <time>2017-02-17T16:35:25Z</time>
      </trkpt>
      <trkpt lat="44.20258" lon="3.21054">
        <ele>569</ele>
        <time>2017-02-17T16:35:26Z</time>
      </trkpt>
      <trkpt lat="44.20253" lon="3.21051">
        <ele>568.4</ele>
        <time>2017-02-17T16:35:27Z</time>
      </trkpt>
      <trkpt lat="44.20249" lon="3.21049">
        <ele>567.6</ele>
        <time>2017-02-17T16:35:28Z</time>
      </trkpt>
      <trkpt lat="44.20245" lon="3.21048">
        <ele>566.4</ele>
        <time>2017-02-17T16:35:29Z</time>
      </trkpt>
      <trkpt lat="44.20241" lon="3.21047">
        <ele>565.7</ele>
        <time>2017-02-17T16:35:30Z</time>
      </trkpt>
      <trkpt lat="44.20236" lon="3.21046">
        <ele>565.5</ele>
        <time>2017-02-17T16:35:31Z</time>
      </trkpt>
      <trkpt lat="44.20231" lon="3.21045">
        <ele>565.2</ele>
        <time>2017-02-17T16:35:32Z</time>
      </trkpt>
      <trkpt lat="44.20225" lon="3.21044">
        <ele>564.6</ele>
        <time>2017-02-17T16:35:33Z</time>
      </trkpt>
      <trkpt lat="44.2022" lon="3.2104">
        <ele>564</ele>
        <time>2017-02-17T16:35:34Z</time>
      </trkpt>
      <trkpt lat="44.20213" lon="3.21035">
        <ele>563.1</ele>
        <time>2017-02-17T16:35:35Z</time>
      </trkpt>
      <trkpt lat="44.20207" lon="3.2103">
        <ele>562.2</ele>
        <time>2017-02-17T16:35:36Z</time>
      </trkpt>
      <trkpt lat="44.20204" lon="3.21027">
        <ele>562.2</ele>
        <time>2017-02-17T16:35:37Z</time>
      </trkpt>
      <trkpt lat="44.202" lon="3.21024">
        <ele>562.5</ele>
        <time>2017-02-17T16:35:38Z</time>
      </trkpt>
      <trkpt lat="44.20196" lon="3.21021">
        <ele>562.6</ele>
        <time>2017-02-17T16:35:39Z</time>
      </trkpt>
      <trkpt lat="44.20193" lon="3.21018">
        <ele>562</ele>
        <time>2017-02-17T16:35:40Z</time>
      </trkpt>
      <trkpt lat="44.2019" lon="3.21015">
        <ele>561.5</ele>
        <time>2017-02-17T16:35:41Z</time>
      </trkpt>
      <trkpt lat="44.20186" lon="3.21012">
        <ele>561.2</ele>
        <time>2017-02-17T16:35:42Z</time>
      </trkpt>
      <trkpt lat="44.20183" lon="3.2101">
        <ele>561</ele>
        <time>2017-02-17T16:35:43Z</time>
      </trkpt>
      <trkpt lat="44.2018" lon="3.21008">
        <ele>560.8</ele>
        <time>2017-02-17T16:35:44Z</time>
      </trkpt>
      <trkpt lat="44.20177" lon="3.21007">
        <ele>560.9</ele>
        <time>2017-02-17T16:35:45Z</time>
      </trkpt>
      <trkpt lat="44.20174" lon="3.21005">
        <ele>561.1</ele>
        <time>2017-02-17T16:35:46Z</time>
      </trkpt>
      <trkpt lat="44.20169" lon="3.21003">
        <ele>561.3</ele>
        <time>2017-02-17T16:35:47Z</time>
      </trkpt>
      <trkpt lat="44.20166" lon="3.21002">
        <ele>561.2</ele>
        <time>2017-02-17T16:35:48Z</time>
      </trkpt>
      <trkpt lat="44.20163" lon="3.21001">
        <ele>561.2</ele>
        <time>2017-02-17T16:35:49Z</time>
      </trkpt>
      <trkpt lat="44.2016" lon="3.20999">
        <ele>561.1</ele>
        <time>2017-02-17T16:35:50Z</time>
      </trkpt>
      <trkpt lat="44.20156" lon="3.20997">
        <ele>561</ele>
        <time>2017-02-17T16:35:51Z</time>
      </trkpt>
      <trkpt lat="44.20153" lon="3.20994">
        <ele>561</ele>
        <time>2017-02-17T16:35:52Z</time>
      </trkpt>
      <trkpt lat="44.2015" lon="3.20992">
        <ele>560.7</ele>
        <time>2017-02-17T16:35:53Z</time>
      </trkpt>
      <trkpt lat="44.20145" lon="3.2099">
        <ele>560</ele>
        <time>2017-02-17T16:35:55Z</time>
      </trkpt>
      <trkpt lat="44.2014" lon="3.2099">
        <ele>559.4</ele>
        <time>2017-02-17T16:35:57Z</time>
      </trkpt>
      <trkpt lat="44.20136" lon="3.20991">
        <ele>558.8</ele>
        <time>2017-02-17T16:35:59Z</time>
      </trkpt>
      <trkpt lat="44.20133" lon="3.20991">
        <ele>558.5</ele>
        <time>2017-02-17T16:36:00Z</time>
      </trkpt>
      <trkpt lat="44.2013" lon="3.20992">
        <ele>558.1</ele>
        <time>2017-02-17T16:36:01Z</time>
      </trkpt>
      <trkpt lat="44.20127" lon="3.20992">
        <ele>557.8</ele>
        <time>2017-02-17T16:36:02Z</time>
      </trkpt>
      <trkpt lat="44.20122" lon="3.20993">
        <ele>557.9</ele>
        <time>2017-02-17T16:36:03Z</time>
      </trkpt>
      <trkpt lat="44.20119" lon="3.20993">
        <ele>558.3</ele>
        <time>2017-02-17T16:36:04Z</time>
      </trkpt>
      <trkpt lat="44.20116" lon="3.20994">
        <ele>558.6</ele>
        <time>2017-02-17T16:36:05Z</time>
      </trkpt>
      <trkpt lat="44.20113" lon="3.20994">
        <ele>558.5</ele>
        <time>2017-02-17T16:36:06Z</time>
      </trkpt>
      <trkpt lat="44.2011" lon="3.20995">
        <ele>558.3</ele>
        <time>2017-02-17T16:36:07Z</time>
      </trkpt>
      <trkpt lat="44.20107" lon="3.20994">
        <ele>558</ele>
        <time>2017-02-17T16:36:08Z</time>
      </trkpt>
      <trkpt lat="44.20105" lon="3.20994">
        <ele>557.8</ele>
        <time>2017-02-17T16:36:09Z</time>
      </trkpt>
      <trkpt lat="44.20101" lon="3.20994">
        <ele>557.7</ele>
        <time>2017-02-17T16:36:10Z</time>
      </trkpt>
      <trkpt lat="44.20096" lon="3.20994">
        <ele>557.4</ele>
        <time>2017-02-17T16:36:12Z</time>
      </trkpt>
      <trkpt lat="44.20091" lon="3.20994">
        <ele>557.1</ele>
        <time>2017-02-17T16:36:14Z</time>
      </trkpt>
      <trkpt lat="44.20088" lon="3.20994">
        <ele>556.9</ele>
        <time>2017-02-17T16:36:15Z</time>
      </trkpt>
      <trkpt lat="44.20083" lon="3.20992">
        <ele>556.7</ele>
        <time>2017-02-17T16:36:16Z</time>
      </trkpt>
      <trkpt lat="44.20079" lon="3.20991">
        <ele>556.6</ele>
        <time>2017-02-17T16:36:17Z</time>
      </trkpt>
      <trkpt lat="44.20074" lon="3.20991">
        <ele>556.5</ele>
        <time>2017-02-17T16:36:18Z</time>
      </trkpt>
      <trkpt lat="44.20071" lon="3.20992">
        <ele>556.5</ele>
        <time>2017-02-17T16:36:19Z</time>
      </trkpt>
      <trkpt lat="44.20068" lon="3.20992">
        <ele>556.3</ele>
        <time>2017-02-17T16:36:20Z</time>
      </trkpt>
      <trkpt lat="44.20065" lon="3.20992">
        <ele>555.7</ele>
        <time>2017-02-17T16:36:21Z</time>
      </trkpt>
      <trkpt lat="44.20061" lon="3.20995">
        <ele>554.9</ele>
        <time>2017-02-17T16:36:23Z</time>
      </trkpt>
      <trkpt lat="44.20058" lon="3.20997">
        <ele>554.4</ele>
        <time>2017-02-17T16:36:25Z</time>
      </trkpt>
      <trkpt lat="44.20055" lon="3.20999">
        <ele>553.8</ele>
        <time>2017-02-17T16:36:27Z</time>
      </trkpt>
      <trkpt lat="44.20052" lon="3.21001">
        <ele>553.5</ele>
        <time>2017-02-17T16:36:28Z</time>
      </trkpt>
      <trkpt lat="44.20049" lon="3.21001">
        <ele>553.3</ele>
        <time>2017-02-17T16:36:29Z</time>
      </trkpt>
      <trkpt lat="44.20045" lon="3.20999">
        <ele>553</ele>
        <time>2017-02-17T16:36:30Z</time>
      </trkpt>
      <trkpt lat="44.20041" lon="3.20999">
        <ele>553.5</ele>
        <time>2017-02-17T16:36:32Z</time>
      </trkpt>
      <trkpt lat="44.20038" lon="3.20998">
        <ele>554</ele>
        <time>2017-02-17T16:36:34Z</time>
      </trkpt>
      <trkpt lat="44.20035" lon="3.20997">
        <ele>554.4</ele>
        <time>2017-02-17T16:36:38Z</time>
      </trkpt>
      <trkpt lat="44.20032" lon="3.20996">
        <ele>554.8</ele>
        <time>2017-02-17T16:36:40Z</time>
      </trkpt>
      <trkpt lat="44.20029" lon="3.20994">
        <ele>555.3</ele>
        <time>2017-02-17T16:36:42Z</time>
      </trkpt>
      <trkpt lat="44.20026" lon="3.20992">
        <ele>556.1</ele>
        <time>2017-02-17T16:36:44Z</time>
      </trkpt>
      <trkpt lat="44.20022" lon="3.2099">
        <ele>557.3</ele>
        <time>2017-02-17T16:36:46Z</time>
      </trkpt>
      <trkpt lat="44.2002" lon="3.20987">
        <ele>558.3</ele>
        <time>2017-02-17T16:36:48Z</time>
      </trkpt>
      <trkpt lat="44.20017" lon="3.20984">
        <ele>559.2</ele>
        <time>2017-02-17T16:36:50Z</time>
      </trkpt>
      <trkpt lat="44.20012" lon="3.20981">
        <ele>560</ele>
        <time>2017-02-17T16:36:52Z</time>
      </trkpt>
      <trkpt lat="44.20008" lon="3.20978">
        <ele>560.5</ele>
        <time>2017-02-17T16:36:54Z</time>
      </trkpt>
      <trkpt lat="44.20003" lon="3.20978">
        <ele>561</ele>
        <time>2017-02-17T16:36:56Z</time>
      </trkpt>
      <trkpt lat="44.19998" lon="3.20979">
        <ele>561.1</ele>
        <time>2017-02-17T16:36:58Z</time>
      </trkpt>
      <trkpt lat="44.19994" lon="3.20978">
        <ele>561</ele>
        <time>2017-02-17T16:36:59Z</time>
      </trkpt>
      <trkpt lat="44.19991" lon="3.20975">
        <ele>560.8</ele>
        <time>2017-02-17T16:37:01Z</time>
      </trkpt>
      <trkpt lat="44.19989" lon="3.20975">
        <ele>560.8</ele>
        <time>2017-02-17T16:37:03Z</time>
      </trkpt>
      <trkpt lat="44.19983" lon="3.20972">
        <ele>560.8</ele>
        <time>2017-02-17T16:37:09Z</time>
      </trkpt>
      <trkpt lat="44.19981" lon="3.20969">
        <ele>560.6</ele>
        <time>2017-02-17T16:37:16Z</time>
      </trkpt>
      <trkpt lat="44.19982" lon="3.20973">
        <ele>560.4</ele>
        <time>2017-02-17T16:37:20Z</time>
      </trkpt>
      <trkpt lat="44.19982" lon="3.20977">
        <ele>560.1</ele>
        <time>2017-02-17T16:37:23Z</time>
      </trkpt>
      <trkpt lat="44.19977" lon="3.20979">
        <ele>560.1</ele>
        <time>2017-02-17T16:37:25Z</time>
      </trkpt>
      <trkpt lat="44.19974" lon="3.20979">
        <ele>560.2</ele>
        <time>2017-02-17T16:37:26Z</time>
      </trkpt>
      <trkpt lat="44.19971" lon="3.20975">
        <ele>560.4</ele>
        <time>2017-02-17T16:37:30Z</time>
      </trkpt>
      <trkpt lat="44.19967" lon="3.20975">
        <ele>560.4</ele>
        <time>2017-02-17T16:37:34Z</time>
      </trkpt>
      <trkpt lat="44.19963" lon="3.20977">
        <ele>560.3</ele>
        <time>2017-02-17T16:37:37Z</time>
      </trkpt>
      <trkpt lat="44.19961" lon="3.20974">
        <ele>560.2</ele>
        <time>2017-02-17T16:37:43Z</time>
      </trkpt>
      <trkpt lat="44.1996" lon="3.20971">
        <ele>560.1</ele>
        <time>2017-02-17T16:37:50Z</time>
      </trkpt>
      <trkpt lat="44.19957" lon="3.20965">
        <ele>559.9</ele>
        <time>2017-02-17T16:37:58Z</time>
      </trkpt>
      <trkpt lat="44.19955" lon="3.2096">
        <ele>560.1</ele>
        <time>2017-02-17T16:38:00Z</time>
      </trkpt>
      <trkpt lat="44.19952" lon="3.20956">
        <ele>560.4</ele>
        <time>2017-02-17T16:38:02Z</time>
      </trkpt>
      <trkpt lat="44.1995" lon="3.20951">
        <ele>560.6</ele>
        <time>2017-02-17T16:38:03Z</time>
      </trkpt>
      <trkpt lat="44.19948" lon="3.20946">
        <ele>560.5</ele>
        <time>2017-02-17T16:38:04Z</time>
      </trkpt>
      <trkpt lat="44.19947" lon="3.20942">
        <ele>560.4</ele>
        <time>2017-02-17T16:38:05Z</time>
      </trkpt>
      <trkpt lat="44.19945" lon="3.20939">
        <ele>560.3</ele>
        <time>2017-02-17T16:38:06Z</time>
      </trkpt>
      <trkpt lat="44.19944" lon="3.20935">
        <ele>560.2</ele>
        <time>2017-02-17T16:38:07Z</time>
      </trkpt>
      <trkpt lat="44.19942" lon="3.20929">
        <ele>560.1</ele>
        <time>2017-02-17T16:38:09Z</time>
      </trkpt>
      <trkpt lat="44.1994" lon="3.20924">
        <ele>559.7</ele>
        <time>2017-02-17T16:38:11Z</time>
      </trkpt>
      <trkpt lat="44.19937" lon="3.20925">
        <ele>559.4</ele>
        <time>2017-02-17T16:38:20Z</time>
      </trkpt>
      <trkpt lat="44.19938" lon="3.20928">
        <ele>559.7</ele>
        <time>2017-02-17T16:38:27Z</time>
      </trkpt>
      <trkpt lat="44.1994" lon="3.20931">
        <ele>560</ele>
        <time>2017-02-17T16:38:30Z</time>
      </trkpt>
      <trkpt lat="44.19942" lon="3.20934">
        <ele>560.1</ele>
        <time>2017-02-17T16:38:33Z</time>
      </trkpt>
      <trkpt lat="44.19943" lon="3.20938">
        <ele>560.2</ele>
        <time>2017-02-17T16:38:38Z</time>
      </trkpt>
      <trkpt lat="44.19941" lon="3.2094">
        <ele>560.3</ele>
        <time>2017-02-17T16:38:48Z</time>
      </trkpt>
      <trkpt lat="44.19937" lon="3.20943">
        <ele>559</ele>
        <time>2017-02-17T16:39:02Z</time>
      </trkpt>
      <trkpt lat="44.19932" lon="3.20942">
        <ele>558.2</ele>
        <time>2017-02-17T16:39:04Z</time>
      </trkpt>
      <trkpt lat="44.19928" lon="3.2094">
        <ele>557.4</ele>
        <time>2017-02-17T16:39:06Z</time>
      </trkpt>
      <trkpt lat="44.19926" lon="3.20934">
        <ele>556.6</ele>
        <time>2017-02-17T16:39:08Z</time>
      </trkpt>
      <trkpt lat="44.19922" lon="3.2093">
        <ele>555.1</ele>
        <time>2017-02-17T16:39:10Z</time>
      </trkpt>
      <trkpt lat="44.19918" lon="3.20926">
        <ele>554.6</ele>
        <time>2017-02-17T16:39:12Z</time>
      </trkpt>
      <trkpt lat="44.19914" lon="3.20922">
        <ele>554.1</ele>
        <time>2017-02-17T16:39:14Z</time>
      </trkpt>
      <trkpt lat="44.19911" lon="3.20918">
        <ele>553.5</ele>
        <time>2017-02-17T16:39:16Z</time>
      </trkpt>
      <trkpt lat="44.19909" lon="3.20915">
        <ele>552.8</ele>
        <time>2017-02-17T16:39:17Z</time>
      </trkpt>
      <trkpt lat="44.19907" lon="3.20912">
        <ele>553</ele>
        <time>2017-02-17T16:39:18Z</time>
      </trkpt>
      <trkpt lat="44.19901" lon="3.2091">
        <ele>551</ele>
        <time>2017-02-17T16:39:20Z</time>
      </trkpt>
      <trkpt lat="44.19898" lon="3.20909">
        <ele>549.9</ele>
        <time>2017-02-17T16:39:21Z</time>
      </trkpt>
      <trkpt lat="44.19894" lon="3.20904">
        <ele>547.9</ele>
        <time>2017-02-17T16:39:23Z</time>
      </trkpt>
      <trkpt lat="44.1989" lon="3.20901">
        <ele>547.1</ele>
        <time>2017-02-17T16:39:24Z</time>
      </trkpt>
      <trkpt lat="44.19886" lon="3.20898">
        <ele>546.4</ele>
        <time>2017-02-17T16:39:25Z</time>
      </trkpt>
      <trkpt lat="44.19882" lon="3.20896">
        <ele>543.8</ele>
        <time>2017-02-17T16:39:27Z</time>
      </trkpt>
      <trkpt lat="44.19878" lon="3.20895">
        <ele>542.4</ele>
        <time>2017-02-17T16:39:28Z</time>
      </trkpt>
      <trkpt lat="44.19873" lon="3.20892">
        <ele>541.5</ele>
        <time>2017-02-17T16:39:29Z</time>
      </trkpt>
      <trkpt lat="44.19869" lon="3.20891">
        <ele>538.8</ele>
        <time>2017-02-17T16:39:30Z</time>
      </trkpt>
      <trkpt lat="44.19866" lon="3.20893">
        <ele>537.7</ele>
        <time>2017-02-17T16:39:31Z</time>
      </trkpt>
      <trkpt lat="44.19862" lon="3.20894">
        <ele>536.7</ele>
        <time>2017-02-17T16:39:32Z</time>
      </trkpt>
      <trkpt lat="44.19858" lon="3.20892">
        <ele>535.8</ele>
        <time>2017-02-17T16:39:33Z</time>
      </trkpt>
      <trkpt lat="44.19855" lon="3.2089">
        <ele>535.6</ele>
        <time>2017-02-17T16:39:34Z</time>
      </trkpt>
      <trkpt lat="44.19852" lon="3.20889">
        <ele>534.8</ele>
        <time>2017-02-17T16:39:35Z</time>
      </trkpt>
      <trkpt lat="44.19846" lon="3.20888">
        <ele>533.1</ele>
        <time>2017-02-17T16:39:37Z</time>
      </trkpt>
      <trkpt lat="44.19842" lon="3.20888">
        <ele>532.3</ele>
        <time>2017-02-17T16:39:38Z</time>
      </trkpt>
      <trkpt lat="44.19838" lon="3.20888">
        <ele>530.9</ele>
        <time>2017-02-17T16:39:39Z</time>
      </trkpt>
      <trkpt lat="44.19834" lon="3.20887">
        <ele>530.4</ele>
        <time>2017-02-17T16:39:40Z</time>
      </trkpt>
      <trkpt lat="44.19832" lon="3.20885">
        <ele>530.1</ele>
        <time>2017-02-17T16:39:41Z</time>
      </trkpt>
      <trkpt lat="44.19829" lon="3.20882">
        <ele>529.5</ele>
        <time>2017-02-17T16:39:42Z</time>
      </trkpt>
      <trkpt lat="44.19826" lon="3.2088">
        <ele>528.7</ele>
        <time>2017-02-17T16:39:43Z</time>
      </trkpt>
      <trkpt lat="44.19823" lon="3.20877">
        <ele>527.8</ele>
        <time>2017-02-17T16:39:44Z</time>
      </trkpt>
      <trkpt lat="44.19819" lon="3.20875">
        <ele>526.8</ele>
        <time>2017-02-17T16:39:45Z</time>
      </trkpt>
      <trkpt lat="44.19816" lon="3.20874">
        <ele>525.9</ele>
        <time>2017-02-17T16:39:46Z</time>
      </trkpt>
      <trkpt lat="44.19813" lon="3.20877">
        <ele>524.9</ele>
        <time>2017-02-17T16:39:52Z</time>
      </trkpt>
      <trkpt lat="44.19813" lon="3.20881">
        <ele>525</ele>
        <time>2017-02-17T16:40:05Z</time>
      </trkpt>
      <trkpt lat="44.1981" lon="3.20886">
        <ele>524.2</ele>
        <time>2017-02-17T16:40:07Z</time>
      </trkpt>
      <trkpt lat="44.19811" lon="3.20882">
        <ele>525</ele>
        <time>2017-02-17T16:40:16Z</time>
      </trkpt>
      <trkpt lat="44.1981" lon="3.20878">
        <ele>524.2</ele>
        <time>2017-02-17T16:40:18Z</time>
      </trkpt>
      <trkpt lat="44.19806" lon="3.20877">
        <ele>523.4</ele>
        <time>2017-02-17T16:40:27Z</time>
      </trkpt>
      <trkpt lat="44.19805" lon="3.20873">
        <ele>522.8</ele>
        <time>2017-02-17T16:40:30Z</time>
      </trkpt>
      <trkpt lat="44.19802" lon="3.20869">
        <ele>522.9</ele>
        <time>2017-02-17T16:40:32Z</time>
      </trkpt>
      <trkpt lat="44.19802" lon="3.20862">
        <ele>522.2</ele>
        <time>2017-02-17T16:40:34Z</time>
      </trkpt>
      <trkpt lat="44.19802" lon="3.20856">
        <ele>523.3</ele>
        <time>2017-02-17T16:40:35Z</time>
      </trkpt>
      <trkpt lat="44.19801" lon="3.2085">
        <ele>522.6</ele>
        <time>2017-02-17T16:40:36Z</time>
      </trkpt>
      <trkpt lat="44.19799" lon="3.20846">
        <ele>522.9</ele>
        <time>2017-02-17T16:40:37Z</time>
      </trkpt>
      <trkpt lat="44.19798" lon="3.20841">
        <ele>522.1</ele>
        <time>2017-02-17T16:40:38Z</time>
      </trkpt>
      <trkpt lat="44.19796" lon="3.20838">
        <ele>522.4</ele>
        <time>2017-02-17T16:40:39Z</time>
      </trkpt>
      <trkpt lat="44.19792" lon="3.20836">
        <ele>520</ele>
        <time>2017-02-17T16:40:40Z</time>
      </trkpt>
      <trkpt lat="44.19785" lon="3.20838">
        <ele>517.7</ele>
        <time>2017-02-17T16:40:41Z</time>
      </trkpt>
      <trkpt lat="44.19781" lon="3.20839">
        <ele>516.7</ele>
        <time>2017-02-17T16:40:42Z</time>
      </trkpt>
      <trkpt lat="44.19778" lon="3.20838">
        <ele>515.8</ele>
        <time>2017-02-17T16:40:44Z</time>
      </trkpt>
      <trkpt lat="44.19777" lon="3.20835">
        <ele>515.2</ele>
        <time>2017-02-17T16:40:49Z</time>
      </trkpt>
      <trkpt lat="44.19774" lon="3.20833">
        <ele>514.2</ele>
        <time>2017-02-17T16:40:54Z</time>
      </trkpt>
      <trkpt lat="44.19771" lon="3.20834">
        <ele>513.1</ele>
        <time>2017-02-17T16:41:05Z</time>
      </trkpt>
      <trkpt lat="44.19768" lon="3.20834">
        <ele>511.8</ele>
        <time>2017-02-17T16:41:13Z</time>
      </trkpt>
      <trkpt lat="44.19765" lon="3.20829">
        <ele>512.1</ele>
        <time>2017-02-17T16:41:16Z</time>
      </trkpt>
      <trkpt lat="44.19763" lon="3.20828">
        <ele>510.8</ele>
        <time>2017-02-17T16:41:19Z</time>
      </trkpt>
      <trkpt lat="44.19759" lon="3.20824">
        <ele>509.7</ele>
        <time>2017-02-17T16:41:22Z</time>
      </trkpt>
      <trkpt lat="44.19757" lon="3.20818">
        <ele>508.5</ele>
        <time>2017-02-17T16:41:24Z</time>
      </trkpt>
      <trkpt lat="44.19755" lon="3.20813">
        <ele>507.6</ele>
        <time>2017-02-17T16:41:26Z</time>
      </trkpt>
      <trkpt lat="44.19753" lon="3.20809">
        <ele>506.4</ele>
        <time>2017-02-17T16:41:27Z</time>
      </trkpt>
      <trkpt lat="44.1975" lon="3.20806">
        <ele>506.4</ele>
        <time>2017-02-17T16:41:28Z</time>
      </trkpt>
      <trkpt lat="44.19748" lon="3.20803">
        <ele>505.1</ele>
        <time>2017-02-17T16:41:30Z</time>
      </trkpt>
      <trkpt lat="44.19745" lon="3.20801">
        <ele>503.7</ele>
        <time>2017-02-17T16:41:32Z</time>
      </trkpt>
      <trkpt lat="44.19743" lon="3.20799">
        <ele>501.9</ele>
        <time>2017-02-17T16:41:33Z</time>
      </trkpt>
      <trkpt lat="44.19741" lon="3.20794">
        <ele>502</ele>
        <time>2017-02-17T16:41:35Z</time>
      </trkpt>
      <trkpt lat="44.1974" lon="3.2079">
        <ele>500</ele>
        <time>2017-02-17T16:41:36Z</time>
      </trkpt>
      <trkpt lat="44.19738" lon="3.20786">
        <ele>500.1</ele>
        <time>2017-02-17T16:41:37Z</time>
      </trkpt>
      <trkpt lat="44.19736" lon="3.20784">
        <ele>497.9</ele>
        <time>2017-02-17T16:41:38Z</time>
      </trkpt>
      <trkpt lat="44.19733" lon="3.2078">
        <ele>495.7</ele>
        <time>2017-02-17T16:41:39Z</time>
      </trkpt>
      <trkpt lat="44.19731" lon="3.20776">
        <ele>493.6</ele>
        <time>2017-02-17T16:41:40Z</time>
      </trkpt>
      <trkpt lat="44.19728" lon="3.20773">
        <ele>491.5</ele>
        <time>2017-02-17T16:41:41Z</time>
      </trkpt>
      <trkpt lat="44.19725" lon="3.2077">
        <ele>489.6</ele>
        <time>2017-02-17T16:41:42Z</time>
      </trkpt>
      <trkpt lat="44.19722" lon="3.20767">
        <ele>487.9</ele>
        <time>2017-02-17T16:41:43Z</time>
      </trkpt>
      <trkpt lat="44.19718" lon="3.20762">
        <ele>486.2</ele>
        <time>2017-02-17T16:41:44Z</time>
      </trkpt>
      <trkpt lat="44.19716" lon="3.20759">
        <ele>486.2</ele>
        <time>2017-02-17T16:41:45Z</time>
      </trkpt>
      <trkpt lat="44.19714" lon="3.20755">
        <ele>484.6</ele>
        <time>2017-02-17T16:41:46Z</time>
      </trkpt>
      <trkpt lat="44.19712" lon="3.20752">
        <ele>483.1</ele>
        <time>2017-02-17T16:41:47Z</time>
      </trkpt>
      <trkpt lat="44.1971" lon="3.20748">
        <ele>481.6</ele>
        <time>2017-02-17T16:41:48Z</time>
      </trkpt>
      <trkpt lat="44.19709" lon="3.20744">
        <ele>481.9</ele>
        <time>2017-02-17T16:41:49Z</time>
      </trkpt>
      <trkpt lat="44.19708" lon="3.20739">
        <ele>482.1</ele>
        <time>2017-02-17T16:41:50Z</time>
      </trkpt>
      <trkpt lat="44.19708" lon="3.20734">
        <ele>482.3</ele>
        <time>2017-02-17T16:41:51Z</time>
      </trkpt>
      <trkpt lat="44.19707" lon="3.2073">
        <ele>482.4</ele>
        <time>2017-02-17T16:41:52Z</time>
      </trkpt>
      <trkpt lat="44.19706" lon="3.20726">
        <ele>480.5</ele>
        <time>2017-02-17T16:41:53Z</time>
      </trkpt>
      <trkpt lat="44.19706" lon="3.20722">
        <ele>480.5</ele>
        <time>2017-02-17T16:41:54Z</time>
      </trkpt>
      <trkpt lat="44.19707" lon="3.20717">
        <ele>480.4</ele>
        <time>2017-02-17T16:41:55Z</time>
      </trkpt>
      <trkpt lat="44.19706" lon="3.20712">
        <ele>480.2</ele>
        <time>2017-02-17T16:41:56Z</time>
      </trkpt>
      <trkpt lat="44.19706" lon="3.20706">
        <ele>479.8</ele>
        <time>2017-02-17T16:41:57Z</time>
      </trkpt>
      <trkpt lat="44.19707" lon="3.20702">
        <ele>480.9</ele>
        <time>2017-02-17T16:41:58Z</time>
      </trkpt>
      <trkpt lat="44.19708" lon="3.20697">
        <ele>480.3</ele>
        <time>2017-02-17T16:41:59Z</time>
      </trkpt>
      <trkpt lat="44.19708" lon="3.20693">
        <ele>479.7</ele>
        <time>2017-02-17T16:42:00Z</time>
      </trkpt>
      <trkpt lat="44.19711" lon="3.20687">
        <ele>481.3</ele>
        <time>2017-02-17T16:42:02Z</time>
      </trkpt>
      <trkpt lat="44.19712" lon="3.20681">
        <ele>480.5</ele>
        <time>2017-02-17T16:42:04Z</time>
      </trkpt>
      <trkpt lat="44.19712" lon="3.20677">
        <ele>479.6</ele>
        <time>2017-02-17T16:42:05Z</time>
      </trkpt>
      <trkpt lat="44.19712" lon="3.20672">
        <ele>477.7</ele>
        <time>2017-02-17T16:42:06Z</time>
      </trkpt>
      <trkpt lat="44.19713" lon="3.20667">
        <ele>479</ele>
        <time>2017-02-17T16:42:07Z</time>
      </trkpt>
      <trkpt lat="44.19714" lon="3.20661">
        <ele>478</ele>
        <time>2017-02-17T16:42:08Z</time>
      </trkpt>
      <trkpt lat="44.19714" lon="3.20655">
        <ele>476.8</ele>
        <time>2017-02-17T16:42:09Z</time>
      </trkpt>
      <trkpt lat="44.19714" lon="3.20651">
        <ele>475.6</ele>
        <time>2017-02-17T16:42:10Z</time>
      </trkpt>
      <trkpt lat="44.19714" lon="3.20646">
        <ele>473.2</ele>
        <time>2017-02-17T16:42:11Z</time>
      </trkpt>
      <trkpt lat="44.19715" lon="3.20641">
        <ele>472.1</ele>
        <time>2017-02-17T16:42:12Z</time>
      </trkpt>
      <trkpt lat="44.19717" lon="3.20635">
        <ele>473</ele>
        <time>2017-02-17T16:42:13Z</time>
      </trkpt>
      <trkpt lat="44.19718" lon="3.2063">
        <ele>471.9</ele>
        <time>2017-02-17T16:42:14Z</time>
      </trkpt>
      <trkpt lat="44.19718" lon="3.20625">
        <ele>469.7</ele>
        <time>2017-02-17T16:42:15Z</time>
      </trkpt>
      <trkpt lat="44.19719" lon="3.2062">
        <ele>470.3</ele>
        <time>2017-02-17T16:42:16Z</time>
      </trkpt>
      <trkpt lat="44.1972" lon="3.20613">
        <ele>469.4</ele>
        <time>2017-02-17T16:42:17Z</time>
      </trkpt>
      <trkpt lat="44.19721" lon="3.20607">
        <ele>468.1</ele>
        <time>2017-02-17T16:42:18Z</time>
      </trkpt>
      <trkpt lat="44.1972" lon="3.206">
        <ele>467.4</ele>
        <time>2017-02-17T16:42:19Z</time>
      </trkpt>
      <trkpt lat="44.1972" lon="3.20594">
        <ele>466.2</ele>
        <time>2017-02-17T16:42:20Z</time>
      </trkpt>
      <trkpt lat="44.19719" lon="3.20588">
        <ele>465.7</ele>
        <time>2017-02-17T16:42:21Z</time>
      </trkpt>
      <trkpt lat="44.19719" lon="3.20581">
        <ele>463.2</ele>
        <time>2017-02-17T16:42:22Z</time>
      </trkpt>
      <trkpt lat="44.19722" lon="3.20568">
        <ele>462.6</ele>
        <time>2017-02-17T16:42:23Z</time>
      </trkpt>
      <trkpt lat="44.19723" lon="3.20557">
        <ele>462.6</ele>
        <time>2017-02-17T16:42:24Z</time>
      </trkpt>
      <trkpt lat="44.19725" lon="3.20551">
        <ele>462</ele>
        <time>2017-02-17T16:42:25Z</time>
      </trkpt>
      <trkpt lat="44.19725" lon="3.20548">
        <ele>463.4</ele>
        <time>2017-02-17T16:42:26Z</time>
      </trkpt>
      <trkpt lat="44.19726" lon="3.20542">
        <ele>463.1</ele>
        <time>2017-02-17T16:42:28Z</time>
      </trkpt>
      <trkpt lat="44.19724" lon="3.20538">
        <ele>461.6</ele>
        <time>2017-02-17T16:42:30Z</time>
      </trkpt>
      <trkpt lat="44.19721" lon="3.2054">
        <ele>460.5</ele>
        <time>2017-02-17T16:42:32Z</time>
      </trkpt>
      <trkpt lat="44.19721" lon="3.20545">
        <ele>460.7</ele>
        <time>2017-02-17T16:42:38Z</time>
      </trkpt>
      <trkpt lat="44.19719" lon="3.20549">
        <ele>461</ele>
        <time>2017-02-17T16:42:40Z</time>
      </trkpt>
      <trkpt lat="44.19718" lon="3.20546">
        <ele>459.5</ele>
        <time>2017-02-17T16:42:56Z</time>
      </trkpt>
      <trkpt lat="44.19717" lon="3.2054">
        <ele>459.3</ele>
        <time>2017-02-17T16:43:05Z</time>
      </trkpt>
      <trkpt lat="44.19717" lon="3.20533">
        <ele>459</ele>
        <time>2017-02-17T16:43:07Z</time>
      </trkpt>
      <trkpt lat="44.19716" lon="3.20529">
        <ele>457.5</ele>
        <time>2017-02-17T16:43:08Z</time>
      </trkpt>
      <trkpt lat="44.19715" lon="3.20523">
        <ele>457.5</ele>
        <time>2017-02-17T16:43:09Z</time>
      </trkpt>
      <trkpt lat="44.19714" lon="3.20518">
        <ele>457.3</ele>
        <time>2017-02-17T16:43:10Z</time>
      </trkpt>
      <trkpt lat="44.19711" lon="3.20513">
        <ele>455.2</ele>
        <time>2017-02-17T16:43:11Z</time>
      </trkpt>
      <trkpt lat="44.19708" lon="3.20506">
        <ele>453.3</ele>
        <time>2017-02-17T16:43:12Z</time>
      </trkpt>
      <trkpt lat="44.19706" lon="3.20502">
        <ele>451.4</ele>
        <time>2017-02-17T16:43:13Z</time>
      </trkpt>
      <trkpt lat="44.19703" lon="3.20498">
        <ele>449.6</ele>
        <time>2017-02-17T16:43:14Z</time>
      </trkpt>
      <trkpt lat="44.197" lon="3.20495">
        <ele>448</ele>
        <time>2017-02-17T16:43:15Z</time>
      </trkpt>
      <trkpt lat="44.19697" lon="3.20492">
        <ele>446.7</ele>
        <time>2017-02-17T16:43:17Z</time>
      </trkpt>
      <trkpt lat="44.19695" lon="3.20495">
        <ele>446.7</ele>
        <time>2017-02-17T16:43:19Z</time>
      </trkpt>
      <trkpt lat="44.19692" lon="3.20499">
        <ele>445.6</ele>
        <time>2017-02-17T16:43:22Z</time>
      </trkpt>
      <trkpt lat="44.1969" lon="3.20501">
        <ele>444.4</ele>
        <time>2017-02-17T16:43:23Z</time>
      </trkpt>
      <trkpt lat="44.19687" lon="3.20503">
        <ele>443.1</ele>
        <time>2017-02-17T16:43:24Z</time>
      </trkpt>
      <trkpt lat="44.19684" lon="3.20507">
        <ele>441.9</ele>
        <time>2017-02-17T16:43:25Z</time>
      </trkpt>
      <trkpt lat="44.19681" lon="3.20511">
        <ele>440.6</ele>
        <time>2017-02-17T16:43:26Z</time>
      </trkpt>
      <trkpt lat="44.19678" lon="3.20514">
        <ele>439.4</ele>
        <time>2017-02-17T16:43:27Z</time>
      </trkpt>
      <trkpt lat="44.19676" lon="3.20518">
        <ele>439.4</ele>
        <time>2017-02-17T16:43:28Z</time>
      </trkpt>
      <trkpt lat="44.19674" lon="3.2052">
        <ele>438.3</ele>
        <time>2017-02-17T16:43:29Z</time>
      </trkpt>
      <trkpt lat="44.1967" lon="3.2052">
        <ele>435.9</ele>
        <time>2017-02-17T16:43:31Z</time>
      </trkpt>
      <trkpt lat="44.19667" lon="3.20518">
        <ele>435.9</ele>
        <time>2017-02-17T16:43:32Z</time>
      </trkpt>
      <trkpt lat="44.19663" lon="3.20514">
        <ele>433.9</ele>
        <time>2017-02-17T16:43:33Z</time>
      </trkpt>
      <trkpt lat="44.19658" lon="3.20511">
        <ele>433.1</ele>
        <time>2017-02-17T16:43:34Z</time>
      </trkpt>
      <trkpt lat="44.19655" lon="3.2051">
        <ele>432</ele>
        <time>2017-02-17T16:43:35Z</time>
      </trkpt>
      <trkpt lat="44.19652" lon="3.20508">
        <ele>431.2</ele>
        <time>2017-02-17T16:43:36Z</time>
      </trkpt>
      <trkpt lat="44.19648" lon="3.20507">
        <ele>429.3</ele>
        <time>2017-02-17T16:43:37Z</time>
      </trkpt>
      <trkpt lat="44.19642" lon="3.20506">
        <ele>429.2</ele>
        <time>2017-02-17T16:43:38Z</time>
      </trkpt>
      <trkpt lat="44.19638" lon="3.20506">
        <ele>429</ele>
        <time>2017-02-17T16:43:39Z</time>
      </trkpt>
      <trkpt lat="44.19632" lon="3.20505">
        <ele>428.9</ele>
        <time>2017-02-17T16:43:41Z</time>
      </trkpt>
      <trkpt lat="44.19629" lon="3.20502">
        <ele>428.7</ele>
        <time>2017-02-17T16:43:43Z</time>
      </trkpt>
      <trkpt lat="44.19629" lon="3.20496">
        <ele>428.5</ele>
        <time>2017-02-17T16:43:50Z</time>
      </trkpt>
      <trkpt lat="44.19626" lon="3.20493">
        <ele>428.4</ele>
        <time>2017-02-17T16:43:55Z</time>
      </trkpt>
      <trkpt lat="44.19624" lon="3.2049">
        <ele>428.2</ele>
        <time>2017-02-17T16:43:59Z</time>
      </trkpt>
      <trkpt lat="44.19624" lon="3.20486">
        <ele>428.1</ele>
        <time>2017-02-17T16:44:20Z</time>
      </trkpt>
      <trkpt lat="44.19623" lon="3.20482">
        <ele>428</ele>
        <time>2017-02-17T16:44:24Z</time>
      </trkpt>
      <trkpt lat="44.19623" lon="3.20478">
        <ele>428</ele>
        <time>2017-02-17T16:44:26Z</time>
      </trkpt>
      <trkpt lat="44.19621" lon="3.20473">
        <ele>428</ele>
        <time>2017-02-17T16:44:29Z</time>
      </trkpt>
      <trkpt lat="44.19621" lon="3.20468">
        <ele>427.9</ele>
        <time>2017-02-17T16:44:31Z</time>
      </trkpt>
      <trkpt lat="44.1962" lon="3.20464">
        <ele>427.8</ele>
        <time>2017-02-17T16:44:33Z</time>
      </trkpt>
      <trkpt lat="44.19619" lon="3.20459">
        <ele>427.7</ele>
        <time>2017-02-17T16:44:35Z</time>
      </trkpt>
      <trkpt lat="44.19617" lon="3.20456">
        <ele>427.8</ele>
        <time>2017-02-17T16:44:37Z</time>
      </trkpt>
      <trkpt lat="44.19616" lon="3.2046">
        <ele>427.7</ele>
        <time>2017-02-17T16:44:39Z</time>
      </trkpt>
      <trkpt lat="44.19618" lon="3.20465">
        <ele>427.8</ele>
        <time>2017-02-17T16:44:41Z</time>
      </trkpt>
      <trkpt lat="44.1962" lon="3.20468">
        <ele>427.9</ele>
        <time>2017-02-17T16:44:43Z</time>
      </trkpt>
      <trkpt lat="44.19621" lon="3.20474">
        <ele>428</ele>
        <time>2017-02-17T16:44:45Z</time>
      </trkpt>
      <trkpt lat="44.1962" lon="3.2048">
        <ele>428</ele>
        <time>2017-02-17T16:44:47Z</time>
      </trkpt>
      <trkpt lat="44.19618" lon="3.20483">
        <ele>427.3</ele>
        <time>2017-02-17T16:44:48Z</time>
      </trkpt>
      <trkpt lat="44.19614" lon="3.20486">
        <ele>426.2</ele>
        <time>2017-02-17T16:44:49Z</time>
      </trkpt>
      <trkpt lat="44.19612" lon="3.20488">
        <ele>425.1</ele>
        <time>2017-02-17T16:44:50Z</time>
      </trkpt>
      <trkpt lat="44.19607" lon="3.20489">
        <ele>423.4</ele>
        <time>2017-02-17T16:44:52Z</time>
      </trkpt>
      <trkpt lat="44.19604" lon="3.20489">
        <ele>422.6</ele>
        <time>2017-02-17T16:44:53Z</time>
      </trkpt>
      <trkpt lat="44.196" lon="3.20489">
        <ele>421.6</ele>
        <time>2017-02-17T16:44:54Z</time>
      </trkpt>
      <trkpt lat="44.19595" lon="3.20488">
        <ele>420.3</ele>
        <time>2017-02-17T16:44:55Z</time>
      </trkpt>
      <trkpt lat="44.19591" lon="3.2049">
        <ele>419.3</ele>
        <time>2017-02-17T16:44:56Z</time>
      </trkpt>
      <trkpt lat="44.19587" lon="3.20492">
        <ele>418.3</ele>
        <time>2017-02-17T16:44:57Z</time>
      </trkpt>
      <trkpt lat="44.19584" lon="3.20495">
        <ele>417.8</ele>
        <time>2017-02-17T16:44:58Z</time>
      </trkpt>
      <trkpt lat="44.1958" lon="3.20497">
        <ele>417.2</ele>
        <time>2017-02-17T16:44:59Z</time>
      </trkpt>
      <trkpt lat="44.19577" lon="3.205">
        <ele>416.6</ele>
        <time>2017-02-17T16:45:00Z</time>
      </trkpt>
      <trkpt lat="44.19573" lon="3.20503">
        <ele>416.1</ele>
        <time>2017-02-17T16:45:01Z</time>
      </trkpt>
      <trkpt lat="44.1957" lon="3.20507">
        <ele>415.5</ele>
        <time>2017-02-17T16:45:02Z</time>
      </trkpt>
      <trkpt lat="44.19566" lon="3.2051">
        <ele>415.4</ele>
        <time>2017-02-17T16:45:03Z</time>
      </trkpt>
      <trkpt lat="44.19563" lon="3.20511">
        <ele>414.9</ele>
        <time>2017-02-17T16:45:04Z</time>
      </trkpt>
      <trkpt lat="44.19559" lon="3.20512">
        <ele>414.2</ele>
        <time>2017-02-17T16:45:05Z</time>
      </trkpt>
      <trkpt lat="44.19557" lon="3.20514">
        <ele>413.5</ele>
        <time>2017-02-17T16:45:06Z</time>
      </trkpt>
      <trkpt lat="44.19553" lon="3.20516">
        <ele>412.6</ele>
        <time>2017-02-17T16:45:07Z</time>
      </trkpt>
      <trkpt lat="44.1955" lon="3.20517">
        <ele>411.8</ele>
        <time>2017-02-17T16:45:08Z</time>
      </trkpt>
      <trkpt lat="44.19546" lon="3.20517">
        <ele>411.1</ele>
        <time>2017-02-17T16:45:09Z</time>
      </trkpt>
      <trkpt lat="44.19543" lon="3.20516">
        <ele>410.2</ele>
        <time>2017-02-17T16:45:10Z</time>
      </trkpt>
      <trkpt lat="44.19539" lon="3.20514">
        <ele>408.8</ele>
        <time>2017-02-17T16:45:11Z</time>
      </trkpt>
      <trkpt lat="44.19535" lon="3.20514">
        <ele>407.5</ele>
        <time>2017-02-17T16:45:12Z</time>
      </trkpt>
      <trkpt lat="44.19531" lon="3.20512">
        <ele>406.2</ele>
        <time>2017-02-17T16:45:14Z</time>
      </trkpt>
      <trkpt lat="44.19528" lon="3.20513">
        <ele>405.1</ele>
        <time>2017-02-17T16:45:16Z</time>
      </trkpt>
      <trkpt lat="44.19523" lon="3.20512">
        <ele>404.5</ele>
        <time>2017-02-17T16:45:18Z</time>
      </trkpt>
      <trkpt lat="44.19521" lon="3.2051">
        <ele>404</ele>
        <time>2017-02-17T16:45:19Z</time>
      </trkpt>
      <trkpt lat="44.19518" lon="3.20508">
        <ele>403.3</ele>
        <time>2017-02-17T16:45:20Z</time>
      </trkpt>
      <trkpt lat="44.19515" lon="3.20505">
        <ele>402.4</ele>
        <time>2017-02-17T16:45:21Z</time>
      </trkpt>
      <trkpt lat="44.19513" lon="3.20502">
        <ele>401.5</ele>
        <time>2017-02-17T16:45:22Z</time>
      </trkpt>
      <trkpt lat="44.1951" lon="3.20499">
        <ele>400.5</ele>
        <time>2017-02-17T16:45:23Z</time>
      </trkpt>
      <trkpt lat="44.19506" lon="3.20495">
        <ele>399.7</ele>
        <time>2017-02-17T16:45:24Z</time>
      </trkpt>
      <trkpt lat="44.19502" lon="3.20491">
        <ele>398.9</ele>
        <time>2017-02-17T16:45:25Z</time>
      </trkpt>
      <trkpt lat="44.19498" lon="3.20488">
        <ele>398.4</ele>
        <time>2017-02-17T16:45:26Z</time>
      </trkpt>
      <trkpt lat="44.19492" lon="3.20485">
        <ele>397.6</ele>
        <time>2017-02-17T16:45:27Z</time>
      </trkpt>
      <trkpt lat="44.19487" lon="3.20483">
        <ele>396.6</ele>
        <time>2017-02-17T16:45:28Z</time>
      </trkpt>
      <trkpt lat="44.19482" lon="3.20481">
        <ele>396.1</ele>
        <time>2017-02-17T16:45:29Z</time>
      </trkpt>
      <trkpt lat="44.19476" lon="3.20479">
        <ele>395.4</ele>
        <time>2017-02-17T16:45:30Z</time>
      </trkpt>
      <trkpt lat="44.19471" lon="3.20477">
        <ele>394.4</ele>
        <time>2017-02-17T16:45:31Z</time>
      </trkpt>
      <trkpt lat="44.19466" lon="3.20475">
        <ele>393.4</ele>
        <time>2017-02-17T16:45:32Z</time>
      </trkpt>
      <trkpt lat="44.19462" lon="3.20473">
        <ele>392.8</ele>
        <time>2017-02-17T16:45:33Z</time>
      </trkpt>
      <trkpt lat="44.19459" lon="3.20471">
        <ele>392.4</ele>
        <time>2017-02-17T16:45:34Z</time>
      </trkpt>
      <trkpt lat="44.19455" lon="3.20471">
        <ele>391.9</ele>
        <time>2017-02-17T16:45:36Z</time>
      </trkpt>
      <trkpt lat="44.19453" lon="3.20473">
        <ele>391.3</ele>
        <time>2017-02-17T16:45:38Z</time>
      </trkpt>
      <trkpt lat="44.19451" lon="3.20477">
        <ele>391</ele>
        <time>2017-02-17T16:45:39Z</time>
      </trkpt>
      <trkpt lat="44.19451" lon="3.20481">
        <ele>391</ele>
        <time>2017-02-17T16:45:40Z</time>
      </trkpt>
      <trkpt lat="44.1945" lon="3.20485">
        <ele>391</ele>
        <time>2017-02-17T16:45:41Z</time>
      </trkpt>
      <trkpt lat="44.19449" lon="3.20489">
        <ele>391</ele>
        <time>2017-02-17T16:45:42Z</time>
      </trkpt>
      <trkpt lat="44.19448" lon="3.20496">
        <ele>391.1</ele>
        <time>2017-02-17T16:45:44Z</time>
      </trkpt>
      <trkpt lat="44.19447" lon="3.20503">
        <ele>391.1</ele>
        <time>2017-02-17T16:45:46Z</time>
      </trkpt>
      <trkpt lat="44.19447" lon="3.20508">
        <ele>391.1</ele>
        <time>2017-02-17T16:45:48Z</time>
      </trkpt>
      <trkpt lat="44.19447" lon="3.20514">
        <ele>391.1</ele>
        <time>2017-02-17T16:45:50Z</time>
      </trkpt>
      <trkpt lat="44.19448" lon="3.2052">
        <ele>391.2</ele>
        <time>2017-02-17T16:45:52Z</time>
      </trkpt>
      <trkpt lat="44.19448" lon="3.20527">
        <ele>391.2</ele>
        <time>2017-02-17T16:45:54Z</time>
      </trkpt>
      <trkpt lat="44.19449" lon="3.20531">
        <ele>391.2</ele>
        <time>2017-02-17T16:45:55Z</time>
      </trkpt>
      <trkpt lat="44.1945" lon="3.20537">
        <ele>391.2</ele>
        <time>2017-02-17T16:45:56Z</time>
      </trkpt>
      <trkpt lat="44.19452" lon="3.20543">
        <ele>391.2</ele>
        <time>2017-02-17T16:45:57Z</time>
      </trkpt>
      <trkpt lat="44.19453" lon="3.2055">
        <ele>391.3</ele>
        <time>2017-02-17T16:45:58Z</time>
      </trkpt>
      <trkpt lat="44.19454" lon="3.20557">
        <ele>391.3</ele>
        <time>2017-02-17T16:45:59Z</time>
      </trkpt>
      <trkpt lat="44.19454" lon="3.20564">
        <ele>391.3</ele>
        <time>2017-02-17T16:46:00Z</time>
      </trkpt>
      <trkpt lat="44.19456" lon="3.20571">
        <ele>391.3</ele>
        <time>2017-02-17T16:46:01Z</time>
      </trkpt>
      <trkpt lat="44.19456" lon="3.20578">
        <ele>391.4</ele>
        <time>2017-02-17T16:46:02Z</time>
      </trkpt>
      <trkpt lat="44.19456" lon="3.20584">
        <ele>391.4</ele>
        <time>2017-02-17T16:46:03Z</time>
      </trkpt>
      <trkpt lat="44.19456" lon="3.20589">
        <ele>391.4</ele>
        <time>2017-02-17T16:46:04Z</time>
      </trkpt>
      <trkpt lat="44.19456" lon="3.20595">
        <ele>391.4</ele>
        <time>2017-02-17T16:46:05Z</time>
      </trkpt>
      <trkpt lat="44.19455" lon="3.20601">
        <ele>391.5</ele>
        <time>2017-02-17T16:46:06Z</time>
      </trkpt>
      <trkpt lat="44.19455" lon="3.20607">
        <ele>391.5</ele>
        <time>2017-02-17T16:46:07Z</time>
      </trkpt>
      <trkpt lat="44.19454" lon="3.20613">
        <ele>391.5</ele>
        <time>2017-02-17T16:46:08Z</time>
      </trkpt>
      <trkpt lat="44.19453" lon="3.2062">
        <ele>391.6</ele>
        <time>2017-02-17T16:46:09Z</time>
      </trkpt>
      <trkpt lat="44.19452" lon="3.20627">
        <ele>391.7</ele>
        <time>2017-02-17T16:46:10Z</time>
      </trkpt>
      <trkpt lat="44.19451" lon="3.20634">
        <ele>391.7</ele>
        <time>2017-02-17T16:46:11Z</time>
      </trkpt>
      <trkpt lat="44.1945" lon="3.2064">
        <ele>391.8</ele>
        <time>2017-02-17T16:46:12Z</time>
      </trkpt>
      <trkpt lat="44.19449" lon="3.20646">
        <ele>391.8</ele>
        <time>2017-02-17T16:46:13Z</time>
      </trkpt>
      <trkpt lat="44.19448" lon="3.20652">
        <ele>391.8</ele>
        <time>2017-02-17T16:46:14Z</time>
      </trkpt>
      <trkpt lat="44.19447" lon="3.20658">
        <ele>391.9</ele>
        <time>2017-02-17T16:46:15Z</time>
      </trkpt>
      <trkpt lat="44.19447" lon="3.20663">
        <ele>391.9</ele>
        <time>2017-02-17T16:46:16Z</time>
      </trkpt>
      <trkpt lat="44.19446" lon="3.20668">
        <ele>391.9</ele>
        <time>2017-02-17T16:46:17Z</time>
      </trkpt>
      <trkpt lat="44.19445" lon="3.20674">
        <ele>391.9</ele>
        <time>2017-02-17T16:46:18Z</time>
      </trkpt>
      <trkpt lat="44.19444" lon="3.20679">
        <ele>392</ele>
        <time>2017-02-17T16:46:19Z</time>
      </trkpt>
      <trkpt lat="44.19444" lon="3.20685">
        <ele>392.1</ele>
        <time>2017-02-17T16:46:20Z</time>
      </trkpt>
      <trkpt lat="44.19444" lon="3.20691">
        <ele>392.3</ele>
        <time>2017-02-17T16:46:21Z</time>
      </trkpt>
      <trkpt lat="44.19445" lon="3.20696">
        <ele>392.4</ele>
        <time>2017-02-17T16:46:22Z</time>
      </trkpt>
      <trkpt lat="44.19445" lon="3.20703">
        <ele>392.7</ele>
        <time>2017-02-17T16:46:23Z</time>
      </trkpt>
      <trkpt lat="44.19445" lon="3.20708">
        <ele>392.9</ele>
        <time>2017-02-17T16:46:24Z</time>
      </trkpt>
      <trkpt lat="44.19446" lon="3.20714">
        <ele>393.1</ele>
        <time>2017-02-17T16:46:25Z</time>
      </trkpt>
      <trkpt lat="44.19446" lon="3.2072">
        <ele>393.3</ele>
        <time>2017-02-17T16:46:26Z</time>
      </trkpt>
      <trkpt lat="44.19446" lon="3.20726">
        <ele>393.4</ele>
        <time>2017-02-17T16:46:27Z</time>
      </trkpt>
      <trkpt lat="44.19446" lon="3.20731">
        <ele>393.6</ele>
        <time>2017-02-17T16:46:28Z</time>
      </trkpt>
      <trkpt lat="44.19446" lon="3.20736">
        <ele>393.8</ele>
        <time>2017-02-17T16:46:29Z</time>
      </trkpt>
      <trkpt lat="44.19447" lon="3.20741">
        <ele>394</ele>
        <time>2017-02-17T16:46:30Z</time>
      </trkpt>
      <trkpt lat="44.19447" lon="3.20748">
        <ele>394.4</ele>
        <time>2017-02-17T16:46:31Z</time>
      </trkpt>
      <trkpt lat="44.19445" lon="3.20754">
        <ele>395</ele>
        <time>2017-02-17T16:46:32Z</time>
      </trkpt>
      <trkpt lat="44.19444" lon="3.2076">
        <ele>395</ele>
        <time>2017-02-17T16:46:33Z</time>
      </trkpt>
      <trkpt lat="44.19442" lon="3.20766">
        <ele>395</ele>
        <time>2017-02-17T16:46:34Z</time>
      </trkpt>
      <trkpt lat="44.19441" lon="3.2077">
        <ele>395</ele>
        <time>2017-02-17T16:46:35Z</time>
      </trkpt>
      <trkpt lat="44.1944" lon="3.20775">
        <ele>395.1</ele>
        <time>2017-02-17T16:46:36Z</time>
      </trkpt>
      <trkpt lat="44.19438" lon="3.2078">
        <ele>395.1</ele>
        <time>2017-02-17T16:46:37Z</time>
      </trkpt>
      <trkpt lat="44.19436" lon="3.20783">
        <ele>395</ele>
        <time>2017-02-17T16:46:38Z</time>
      </trkpt>
      <trkpt lat="44.19434" lon="3.20786">
        <ele>395</ele>
        <time>2017-02-17T16:46:39Z</time>
      </trkpt>
      <trkpt lat="44.19432" lon="3.2079">
        <ele>395</ele>
        <time>2017-02-17T16:46:40Z</time>
      </trkpt>
      <trkpt lat="44.1943" lon="3.20793">
        <ele>395</ele>
        <time>2017-02-17T16:46:41Z</time>
      </trkpt>
      <trkpt lat="44.19426" lon="3.208">
        <ele>395</ele>
        <time>2017-02-17T16:46:43Z</time>
      </trkpt>
      <trkpt lat="44.19423" lon="3.20801">
        <ele>395</ele>
        <time>2017-02-17T16:46:44Z</time>
      </trkpt>
      <trkpt lat="44.19419" lon="3.20803">
        <ele>395</ele>
        <time>2017-02-17T16:46:45Z</time>
      </trkpt>
      <trkpt lat="44.19416" lon="3.20806">
        <ele>395</ele>
        <time>2017-02-17T16:46:46Z</time>
      </trkpt>
      <trkpt lat="44.19412" lon="3.20808">
        <ele>395.3</ele>
        <time>2017-02-17T16:46:47Z</time>
      </trkpt>
      <trkpt lat="44.19408" lon="3.20811">
        <ele>395.5</ele>
        <time>2017-02-17T16:46:48Z</time>
      </trkpt>
      <trkpt lat="44.19405" lon="3.20813">
        <ele>395.8</ele>
        <time>2017-02-17T16:46:49Z</time>
      </trkpt>
      <trkpt lat="44.19402" lon="3.20816">
        <ele>396</ele>
        <time>2017-02-17T16:46:50Z</time>
      </trkpt>
      <trkpt lat="44.19398" lon="3.20818">
        <ele>396.3</ele>
        <time>2017-02-17T16:46:51Z</time>
      </trkpt>
      <trkpt lat="44.19395" lon="3.20821">
        <ele>396.5</ele>
        <time>2017-02-17T16:46:52Z</time>
      </trkpt>
      <trkpt lat="44.19392" lon="3.20823">
        <ele>397</ele>
        <time>2017-02-17T16:46:53Z</time>
      </trkpt>
      <trkpt lat="44.19389" lon="3.20825">
        <ele>397.5</ele>
        <time>2017-02-17T16:46:54Z</time>
      </trkpt>
      <trkpt lat="44.19386" lon="3.20827">
        <ele>397.9</ele>
        <time>2017-02-17T16:46:55Z</time>
      </trkpt>
      <trkpt lat="44.19382" lon="3.20829">
        <ele>398.2</ele>
        <time>2017-02-17T16:46:56Z</time>
      </trkpt>
      <trkpt lat="44.19378" lon="3.20831">
        <ele>398.7</ele>
        <time>2017-02-17T16:46:57Z</time>
      </trkpt>
      <trkpt lat="44.19374" lon="3.20833">
        <ele>399.1</ele>
        <time>2017-02-17T16:46:58Z</time>
      </trkpt>
      <trkpt lat="44.19371" lon="3.20835">
        <ele>399.5</ele>
        <time>2017-02-17T16:46:59Z</time>
      </trkpt>
      <trkpt lat="44.19367" lon="3.20837">
        <ele>400.8</ele>
        <time>2017-02-17T16:47:00Z</time>
      </trkpt>
      <trkpt lat="44.19364" lon="3.20838">
        <ele>402.1</ele>
        <time>2017-02-17T16:47:01Z</time>
      </trkpt>
      <trkpt lat="44.19361" lon="3.2084">
        <ele>403</ele>
        <time>2017-02-17T16:47:02Z</time>
      </trkpt>
      <trkpt lat="44.19357" lon="3.20842">
        <ele>403.5</ele>
        <time>2017-02-17T16:47:03Z</time>
      </trkpt>
      <trkpt lat="44.19354" lon="3.20844">
        <ele>404</ele>
        <time>2017-02-17T16:47:04Z</time>
      </trkpt>
      <trkpt lat="44.19351" lon="3.20846">
        <ele>404.4</ele>
        <time>2017-02-17T16:47:05Z</time>
      </trkpt>
      <trkpt lat="44.19348" lon="3.20847">
        <ele>404.8</ele>
        <time>2017-02-17T16:47:06Z</time>
      </trkpt>
      <trkpt lat="44.19345" lon="3.20849">
        <ele>405.2</ele>
        <time>2017-02-17T16:47:07Z</time>
      </trkpt>
      <trkpt lat="44.19342" lon="3.2085">
        <ele>405.6</ele>
        <time>2017-02-17T16:47:08Z</time>
      </trkpt>
      <trkpt lat="44.19338" lon="3.20851">
        <ele>406</ele>
        <time>2017-02-17T16:47:09Z</time>
      </trkpt>
      <trkpt lat="44.19332" lon="3.20849">
        <ele>418.3</ele>
        <time>2017-02-17T16:47:11Z</time>
      </trkpt>
      <trkpt lat="44.19328" lon="3.20846">
        <ele>427.3</ele>
        <time>2017-02-17T16:47:12Z</time>
      </trkpt>
      <trkpt lat="44.19324" lon="3.20844">
        <ele>426.1</ele>
        <time>2017-02-17T16:47:13Z</time>
      </trkpt>
      <trkpt lat="44.19321" lon="3.20842">
        <ele>423.7</ele>
        <time>2017-02-17T16:47:14Z</time>
      </trkpt>
      <trkpt lat="44.19318" lon="3.20838">
        <ele>421.8</ele>
        <time>2017-02-17T16:47:15Z</time>
      </trkpt>
      <trkpt lat="44.19315" lon="3.20834">
        <ele>420.5</ele>
        <time>2017-02-17T16:47:16Z</time>
      </trkpt>
      <trkpt lat="44.19313" lon="3.2083">
        <ele>419.2</ele>
        <time>2017-02-17T16:47:17Z</time>
      </trkpt>
      <trkpt lat="44.1931" lon="3.20825">
        <ele>417.7</ele>
        <time>2017-02-17T16:47:18Z</time>
      </trkpt>
      <trkpt lat="44.19308" lon="3.20819">
        <ele>416.1</ele>
        <time>2017-02-17T16:47:19Z</time>
      </trkpt>
      <trkpt lat="44.19305" lon="3.20813">
        <ele>414.4</ele>
        <time>2017-02-17T16:47:20Z</time>
      </trkpt>
      <trkpt lat="44.19302" lon="3.20809">
        <ele>413</ele>
        <time>2017-02-17T16:47:21Z</time>
      </trkpt>
      <trkpt lat="44.193" lon="3.20804">
        <ele>411.7</ele>
        <time>2017-02-17T16:47:22Z</time>
      </trkpt>
      <trkpt lat="44.19298" lon="3.208">
        <ele>410.7</ele>
        <time>2017-02-17T16:47:23Z</time>
      </trkpt>
      <trkpt lat="44.19297" lon="3.20796">
        <ele>409.6</ele>
        <time>2017-02-17T16:47:24Z</time>
      </trkpt>
      <trkpt lat="44.19296" lon="3.20793">
        <ele>409</ele>
        <time>2017-02-17T16:47:25Z</time>
      </trkpt>
      <trkpt lat="44.19293" lon="3.20787">
        <ele>408.8</ele>
        <time>2017-02-17T16:47:27Z</time>
      </trkpt>
      <trkpt lat="44.19291" lon="3.20783">
        <ele>408.6</ele>
        <time>2017-02-17T16:47:28Z</time>
      </trkpt>
      <trkpt lat="44.19289" lon="3.20778">
        <ele>408.5</ele>
        <time>2017-02-17T16:47:29Z</time>
      </trkpt>
      <trkpt lat="44.19287" lon="3.20775">
        <ele>408.3</ele>
        <time>2017-02-17T16:47:30Z</time>
      </trkpt>
      <trkpt lat="44.19285" lon="3.20772">
        <ele>408.2</ele>
        <time>2017-02-17T16:47:31Z</time>
      </trkpt>
      <trkpt lat="44.19283" lon="3.20769">
        <ele>408.1</ele>
        <time>2017-02-17T16:47:32Z</time>
      </trkpt>
      <trkpt lat="44.19279" lon="3.20765">
        <ele>407.8</ele>
        <time>2017-02-17T16:47:34Z</time>
      </trkpt>
      <trkpt lat="44.19277" lon="3.20763">
        <ele>407.7</ele>
        <time>2017-02-17T16:47:35Z</time>
      </trkpt>
      <trkpt lat="44.19274" lon="3.2076">
        <ele>407.5</ele>
        <time>2017-02-17T16:47:36Z</time>
      </trkpt>
      <trkpt lat="44.1927" lon="3.20759">
        <ele>407.4</ele>
        <time>2017-02-17T16:47:37Z</time>
      </trkpt>
      <trkpt lat="44.19267" lon="3.20757">
        <ele>407.2</ele>
        <time>2017-02-17T16:47:38Z</time>
      </trkpt>
      <trkpt lat="44.19263" lon="3.20754">
        <ele>406.9</ele>
        <time>2017-02-17T16:47:39Z</time>
      </trkpt>
      <trkpt lat="44.1926" lon="3.2075">
        <ele>406.8</ele>
        <time>2017-02-17T16:47:40Z</time>
      </trkpt>
      <trkpt lat="44.19256" lon="3.20744">
        <ele>406.7</ele>
        <time>2017-02-17T16:47:41Z</time>
      </trkpt>
      <trkpt lat="44.19253" lon="3.20739">
        <ele>406.5</ele>
        <time>2017-02-17T16:47:42Z</time>
      </trkpt>
      <trkpt lat="44.19249" lon="3.20735">
        <ele>406.4</ele>
        <time>2017-02-17T16:47:43Z</time>
      </trkpt>
      <trkpt lat="44.19246" lon="3.20731">
        <ele>406.3</ele>
        <time>2017-02-17T16:47:44Z</time>
      </trkpt>
      <trkpt lat="44.19243" lon="3.20727">
        <ele>406.2</ele>
        <time>2017-02-17T16:47:45Z</time>
      </trkpt>
      <trkpt lat="44.19239" lon="3.20723">
        <ele>406.1</ele>
        <time>2017-02-17T16:47:46Z</time>
      </trkpt>
      <trkpt lat="44.19235" lon="3.20719">
        <ele>405.8</ele>
        <time>2017-02-17T16:47:47Z</time>
      </trkpt>
      <trkpt lat="44.19231" lon="3.20715">
        <ele>405.6</ele>
        <time>2017-02-17T16:47:48Z</time>
      </trkpt>
      <trkpt lat="44.19229" lon="3.20711">
        <ele>405.4</ele>
        <time>2017-02-17T16:47:49Z</time>
      </trkpt>
      <trkpt lat="44.19226" lon="3.20706">
        <ele>405.1</ele>
        <time>2017-02-17T16:47:50Z</time>
      </trkpt>
      <trkpt lat="44.19224" lon="3.20702">
        <ele>404.8</ele>
        <time>2017-02-17T16:47:51Z</time>
      </trkpt>
      <trkpt lat="44.19221" lon="3.20697">
        <ele>404.6</ele>
        <time>2017-02-17T16:47:52Z</time>
      </trkpt>
      <trkpt lat="44.19219" lon="3.20692">
        <ele>404.3</ele>
        <time>2017-02-17T16:47:53Z</time>
      </trkpt>
      <trkpt lat="44.19217" lon="3.20688">
        <ele>404.2</ele>
        <time>2017-02-17T16:47:54Z</time>
      </trkpt>
      <trkpt lat="44.19215" lon="3.20683">
        <ele>404</ele>
        <time>2017-02-17T16:47:55Z</time>
      </trkpt>
      <trkpt lat="44.19212" lon="3.20678">
        <ele>403.7</ele>
        <time>2017-02-17T16:47:56Z</time>
      </trkpt>
      <trkpt lat="44.1921" lon="3.20673">
        <ele>403.5</ele>
        <time>2017-02-17T16:47:57Z</time>
      </trkpt>
      <trkpt lat="44.19208" lon="3.20669">
        <ele>403.4</ele>
        <time>2017-02-17T16:47:58Z</time>
      </trkpt>
      <trkpt lat="44.19205" lon="3.20666">
        <ele>403.2</ele>
        <time>2017-02-17T16:47:59Z</time>
      </trkpt>
      <trkpt lat="44.19202" lon="3.20663">
        <ele>403</ele>
        <time>2017-02-17T16:48:00Z</time>
      </trkpt>
      <trkpt lat="44.192" lon="3.20659">
        <ele>402.8</ele>
        <time>2017-02-17T16:48:01Z</time>
      </trkpt>
      <trkpt lat="44.19198" lon="3.20655">
        <ele>402.7</ele>
        <time>2017-02-17T16:48:02Z</time>
      </trkpt>
      <trkpt lat="44.19197" lon="3.20651">
        <ele>402.5</ele>
        <time>2017-02-17T16:48:03Z</time>
      </trkpt>
      <trkpt lat="44.19195" lon="3.20647">
        <ele>402.2</ele>
        <time>2017-02-17T16:48:06Z</time>
      </trkpt>
      <trkpt lat="44.19198" lon="3.20644">
        <ele>401.9</ele>
        <time>2017-02-17T16:48:12Z</time>
      </trkpt>
      <trkpt lat="44.19201" lon="3.20645">
        <ele>401.6</ele>
        <time>2017-02-17T16:48:37Z</time>
      </trkpt>
    </trkseg>
  </trk>
</gpx>